<?xml version="1.0" encoding="UTF-8" standalone="no" ?>
<gpx xmlns="http://www.topografix.com/GPX/1/1" xmlns:xsi="http://www.w3.org/2001/XMLSchema-instance" xsi:schemaLocation="http://www.topografix.com/GPX/1/1 http://www.topografix.com/GPX/1/1/gpx.xsd" version="1.1" creator="VisuGPX - https://www.visugpx.com">
  <metadata>
    <name>POULDU 2020</name>
    <desc><![CDATA[<p>Heure de départ: 10:56 8 juil. 2020<br/>Heure d'arrivée: 15:36 8 juil. 2020<br/>Distance: 52,8 km (04:39)<br/>Temps déplacement: 03:29<br/>Vitesse moyenne: 11,31 km/h<br/>Vitesse moyenne mouv.: 15,14 km/h<br/>Vitesse Max.: 37,8 km/h<br/>Altitude minimale: 0 m<br/>Altitude maximale: 57 m<br/>Vitesse de montée: 327,7 m/h<br/>Vitesse de descente: 516,2 m/h<br/>Gain d'altitude: 922 m<br/>Perte d'altitude: 905 m<br/>Temps de montée: 02:48<br/>Temps de descente: 01:45<br/></p><hr align="center" width="480" style="height: 2px; width: 517px"/>]]></desc>
  </metadata>
  <wpt lat="47.77261" lon="-3.55107">
    <ele>35.17</ele>
    <name><![CDATA[0001685]]></name>
    <desc><![CDATA[<p><br /><h3>Nom: Segment: 1</h3><br />Heure de départ: 10:37 10 juil. 2020<br/>Heure d'arrivée: 16:00 10 juil. 2020<br/>Distance: 74,7km (05:22)<br/>Temps déplacement: 04:31<br/>Vitesse moyenne: 13,88 km/h<br/>Vitesse moyenne mouv.: 16,48 km/h<br/>Vitesse Max.: 41,23 km/h<br/>Altitude minimale: 0 m<br/>Altitude maximale: 68 m<br/>Vitesse de montée: 346,3 m/h<br/>Vitesse de descente: 434,1 m/h<br/>Gain d'altitude: 1018 m<br/>Perte d'altitude: 1044 m<br/>Temps de montée: 02:56<br/>Temps de descente: 02:24<br/></p>]]></desc>
    <cmt><![CDATA[<p><br /><h3>Nom: Segment: 1</h3><br />Heure de départ: 10:37 10 juil. 2020<br/>Heure d'arrivée: 16:00 10 juil. 2020<br/>Distance: 74,7km (05:22)<br/>Temps déplacement: 04:31<br/>Vitesse moyenne: 13,88 km/h<br/>Vitesse moyenne mouv.: 16,48 km/h<br/>Vitesse Max.: 41,23 km/h<br/>Altitude minimale: 0 m<br/>Altitude maximale: 68 m<br/>Vitesse de montée: 346,3 m/h<br/>Vitesse de descente: 434,1 m/h<br/>Gain d'altitude: 1018 m<br/>Perte d'altitude: 1044 m<br/>Temps de montée: 02:56<br/>Temps de descente: 02:24<br/></p>]]></cmt>
    <type><![CDATA[user]]></type>
  </wpt>
  <trk>
    <name><![CDATA[chemin cotier]]></name>
    <trkseg>
      <trkpt lat="47.772" lon="-3.55076">
        <ele>31</ele>
        <time>2018-07-18T09:12:30Z</time>
      </trkpt>
      <trkpt lat="47.77195" lon="-3.55072">
        <ele>30</ele>
        <time>2018-07-18T09:12:31Z</time>
      </trkpt>
      <trkpt lat="47.77191" lon="-3.55068">
        <ele>30</ele>
        <time>2018-07-18T09:12:32Z</time>
      </trkpt>
      <trkpt lat="47.77188" lon="-3.55064">
        <ele>30</ele>
        <time>2018-07-18T09:12:33Z</time>
      </trkpt>
      <trkpt lat="47.77185" lon="-3.55062">
        <ele>29</ele>
        <time>2018-07-18T09:12:34Z</time>
      </trkpt>
      <trkpt lat="47.77182" lon="-3.55062">
        <ele>28</ele>
        <time>2018-07-18T09:12:35Z</time>
      </trkpt>
      <trkpt lat="47.77178" lon="-3.55062">
        <ele>28</ele>
        <time>2018-07-18T09:12:36Z</time>
      </trkpt>
      <trkpt lat="47.77175" lon="-3.55064">
        <ele>27</ele>
        <time>2018-07-18T09:12:37Z</time>
      </trkpt>
      <trkpt lat="47.77172" lon="-3.55065">
        <ele>27</ele>
        <time>2018-07-18T09:12:38Z</time>
      </trkpt>
      <trkpt lat="47.77171" lon="-3.55069">
        <ele>27</ele>
        <time>2018-07-18T09:12:39Z</time>
      </trkpt>
      <trkpt lat="47.77169" lon="-3.55073">
        <ele>27</ele>
        <time>2018-07-18T09:12:40Z</time>
      </trkpt>
      <trkpt lat="47.77167" lon="-3.55078">
        <ele>28</ele>
        <time>2018-07-18T09:12:41Z</time>
      </trkpt>
      <trkpt lat="47.77165" lon="-3.55082">
        <ele>28</ele>
        <time>2018-07-18T09:12:42Z</time>
      </trkpt>
      <trkpt lat="47.77163" lon="-3.55086">
        <ele>28</ele>
        <time>2018-07-18T09:12:43Z</time>
      </trkpt>
      <trkpt lat="47.77161" lon="-3.55091">
        <ele>28</ele>
        <time>2018-07-18T09:12:44Z</time>
      </trkpt>
      <trkpt lat="47.77158" lon="-3.55096">
        <ele>29</ele>
        <time>2018-07-18T09:12:45Z</time>
      </trkpt>
      <trkpt lat="47.77155" lon="-3.55101">
        <ele>29</ele>
        <time>2018-07-18T09:12:46Z</time>
      </trkpt>
      <trkpt lat="47.77153" lon="-3.55105">
        <ele>29</ele>
        <time>2018-07-18T09:12:47Z</time>
      </trkpt>
      <trkpt lat="47.77151" lon="-3.55108">
        <ele>29</ele>
        <time>2018-07-18T09:12:48Z</time>
      </trkpt>
      <trkpt lat="47.77149" lon="-3.55111">
        <ele>29</ele>
        <time>2018-07-18T09:12:49Z</time>
      </trkpt>
      <trkpt lat="47.77147" lon="-3.55113">
        <ele>29</ele>
        <time>2018-07-18T09:12:50Z</time>
      </trkpt>
      <trkpt lat="47.77146" lon="-3.55114">
        <ele>29</ele>
        <time>2018-07-18T09:12:51Z</time>
      </trkpt>
      <trkpt lat="47.77146" lon="-3.55113">
        <ele>29</ele>
        <time>2018-07-18T09:12:52Z</time>
      </trkpt>
      <trkpt lat="47.77146" lon="-3.55112">
        <ele>29</ele>
        <time>2018-07-18T09:12:53Z</time>
      </trkpt>
      <trkpt lat="47.77146" lon="-3.55109">
        <ele>29</ele>
        <time>2018-07-18T09:12:54Z</time>
      </trkpt>
      <trkpt lat="47.77148" lon="-3.55107">
        <ele>29</ele>
        <time>2018-07-18T09:12:55Z</time>
      </trkpt>
      <trkpt lat="47.7715" lon="-3.55104">
        <ele>28</ele>
        <time>2018-07-18T09:12:56Z</time>
      </trkpt>
      <trkpt lat="47.77153" lon="-3.55101">
        <ele>28</ele>
        <time>2018-07-18T09:12:57Z</time>
      </trkpt>
      <trkpt lat="47.77156" lon="-3.55098">
        <ele>28</ele>
        <time>2018-07-18T09:12:58Z</time>
      </trkpt>
      <trkpt lat="47.77158" lon="-3.55094">
        <ele>28</ele>
        <time>2018-07-18T09:12:59Z</time>
      </trkpt>
      <trkpt lat="47.77162" lon="-3.55091">
        <ele>28</ele>
        <time>2018-07-18T09:13:00Z</time>
      </trkpt>
      <trkpt lat="47.77165" lon="-3.55087">
        <ele>28</ele>
        <time>2018-07-18T09:13:01Z</time>
      </trkpt>
      <trkpt lat="47.77168" lon="-3.55083">
        <ele>29</ele>
        <time>2018-07-18T09:13:02Z</time>
      </trkpt>
      <trkpt lat="47.77171" lon="-3.55078">
        <ele>29</ele>
        <time>2018-07-18T09:13:03Z</time>
      </trkpt>
      <trkpt lat="47.77173" lon="-3.55074">
        <ele>29</ele>
        <time>2018-07-18T09:13:04Z</time>
      </trkpt>
      <trkpt lat="47.77176" lon="-3.5507">
        <ele>29</ele>
        <time>2018-07-18T09:13:05Z</time>
      </trkpt>
      <trkpt lat="47.77179" lon="-3.55067">
        <ele>29</ele>
        <time>2018-07-18T09:13:06Z</time>
      </trkpt>
      <trkpt lat="47.77182" lon="-3.55065">
        <ele>29</ele>
        <time>2018-07-18T09:13:07Z</time>
      </trkpt>
      <trkpt lat="47.77185" lon="-3.55064">
        <ele>28</ele>
        <time>2018-07-18T09:13:08Z</time>
      </trkpt>
      <trkpt lat="47.77188" lon="-3.55063">
        <ele>28</ele>
        <time>2018-07-18T09:13:09Z</time>
      </trkpt>
      <trkpt lat="47.77191" lon="-3.55064">
        <ele>28</ele>
        <time>2018-07-18T09:13:10Z</time>
      </trkpt>
      <trkpt lat="47.77194" lon="-3.55067">
        <ele>28</ele>
        <time>2018-07-18T09:13:11Z</time>
      </trkpt>
      <trkpt lat="47.77197" lon="-3.55071">
        <ele>28</ele>
        <time>2018-07-18T09:13:12Z</time>
      </trkpt>
      <trkpt lat="47.77201" lon="-3.55076">
        <ele>28</ele>
        <time>2018-07-18T09:13:13Z</time>
      </trkpt>
      <trkpt lat="47.77204" lon="-3.55079">
        <ele>28</ele>
        <time>2018-07-18T09:13:14Z</time>
      </trkpt>
      <trkpt lat="47.77207" lon="-3.55083">
        <ele>29</ele>
        <time>2018-07-18T09:13:15Z</time>
      </trkpt>
      <trkpt lat="47.77211" lon="-3.55085">
        <ele>29</ele>
        <time>2018-07-18T09:13:16Z</time>
      </trkpt>
      <trkpt lat="47.77215" lon="-3.55088">
        <ele>29</ele>
        <time>2018-07-18T09:13:17Z</time>
      </trkpt>
      <trkpt lat="47.77218" lon="-3.55091">
        <ele>29</ele>
        <time>2018-07-18T09:13:18Z</time>
      </trkpt>
      <trkpt lat="47.77222" lon="-3.55093">
        <ele>29</ele>
        <time>2018-07-18T09:13:19Z</time>
      </trkpt>
      <trkpt lat="47.77225" lon="-3.55096">
        <ele>29</ele>
        <time>2018-07-18T09:13:20Z</time>
      </trkpt>
      <trkpt lat="47.77229" lon="-3.55098">
        <ele>29</ele>
        <time>2018-07-18T09:13:21Z</time>
      </trkpt>
      <trkpt lat="47.77232" lon="-3.551">
        <ele>30</ele>
        <time>2018-07-18T09:13:22Z</time>
      </trkpt>
      <trkpt lat="47.77236" lon="-3.55102">
        <ele>30</ele>
        <time>2018-07-18T09:13:23Z</time>
      </trkpt>
      <trkpt lat="47.7724" lon="-3.55104">
        <ele>30</ele>
        <time>2018-07-18T09:13:24Z</time>
      </trkpt>
      <trkpt lat="47.77244" lon="-3.55106">
        <ele>30</ele>
        <time>2018-07-18T09:13:25Z</time>
      </trkpt>
      <trkpt lat="47.77247" lon="-3.55108">
        <ele>30</ele>
        <time>2018-07-18T09:13:26Z</time>
      </trkpt>
      <trkpt lat="47.77251" lon="-3.55109">
        <ele>30</ele>
        <time>2018-07-18T09:13:27Z</time>
      </trkpt>
      <trkpt lat="47.77254" lon="-3.55111">
        <ele>30</ele>
        <time>2018-07-18T09:13:28Z</time>
      </trkpt>
      <trkpt lat="47.77257" lon="-3.55112">
        <ele>31</ele>
        <time>2018-07-18T09:13:29Z</time>
      </trkpt>
      <trkpt lat="47.7726" lon="-3.55113">
        <ele>31</ele>
        <time>2018-07-18T09:13:30Z</time>
      </trkpt>
      <trkpt lat="47.77264" lon="-3.55114">
        <ele>31</ele>
        <time>2018-07-18T09:13:31Z</time>
      </trkpt>
      <trkpt lat="47.77267" lon="-3.55117">
        <ele>31</ele>
        <time>2018-07-18T09:13:32Z</time>
      </trkpt>
      <trkpt lat="47.7727" lon="-3.55119">
        <ele>31</ele>
        <time>2018-07-18T09:13:33Z</time>
      </trkpt>
      <trkpt lat="47.77273" lon="-3.55122">
        <ele>32</ele>
        <time>2018-07-18T09:13:34Z</time>
      </trkpt>
      <trkpt lat="47.77274" lon="-3.55125">
        <ele>32</ele>
        <time>2018-07-18T09:13:35Z</time>
      </trkpt>
      <trkpt lat="47.77275" lon="-3.55128">
        <ele>32</ele>
        <time>2018-07-18T09:13:36Z</time>
      </trkpt>
      <trkpt lat="47.77276" lon="-3.55133">
        <ele>32</ele>
        <time>2018-07-18T09:13:37Z</time>
      </trkpt>
      <trkpt lat="47.77275" lon="-3.55139">
        <ele>32</ele>
        <time>2018-07-18T09:13:38Z</time>
      </trkpt>
      <trkpt lat="47.77274" lon="-3.55145">
        <ele>32</ele>
        <time>2018-07-18T09:13:39Z</time>
      </trkpt>
      <trkpt lat="47.77273" lon="-3.55151">
        <ele>32</ele>
        <time>2018-07-18T09:13:40Z</time>
      </trkpt>
      <trkpt lat="47.77273" lon="-3.55156">
        <ele>32</ele>
        <time>2018-07-18T09:13:41Z</time>
      </trkpt>
      <trkpt lat="47.77272" lon="-3.55161">
        <ele>31</ele>
        <time>2018-07-18T09:13:42Z</time>
      </trkpt>
      <trkpt lat="47.77272" lon="-3.55165">
        <ele>32</ele>
        <time>2018-07-18T09:13:43Z</time>
      </trkpt>
      <trkpt lat="47.77271" lon="-3.55169">
        <ele>31</ele>
        <time>2018-07-18T09:13:44Z</time>
      </trkpt>
      <trkpt lat="47.77271" lon="-3.55171">
        <ele>31</ele>
        <time>2018-07-18T09:13:45Z</time>
      </trkpt>
      <trkpt lat="47.77271" lon="-3.55173">
        <ele>31</ele>
        <time>2018-07-18T09:13:46Z</time>
      </trkpt>
      <trkpt lat="47.7727" lon="-3.55174">
        <ele>32</ele>
        <time>2018-07-18T09:13:47Z</time>
      </trkpt>
      <trkpt lat="47.77269" lon="-3.55175">
        <ele>32</ele>
        <time>2018-07-18T09:13:48Z</time>
      </trkpt>
      <trkpt lat="47.77267" lon="-3.55173">
        <ele>33</ele>
        <time>2018-07-18T09:13:49Z</time>
      </trkpt>
      <trkpt lat="47.77265" lon="-3.55173">
        <ele>33</ele>
        <time>2018-07-18T09:13:50Z</time>
      </trkpt>
      <trkpt lat="47.77263" lon="-3.55171">
        <ele>33</ele>
        <time>2018-07-18T09:13:51Z</time>
      </trkpt>
      <trkpt lat="47.7726" lon="-3.5517">
        <ele>34</ele>
        <time>2018-07-18T09:13:52Z</time>
      </trkpt>
      <trkpt lat="47.77258" lon="-3.5517">
        <ele>34</ele>
        <time>2018-07-18T09:13:53Z</time>
      </trkpt>
      <trkpt lat="47.77255" lon="-3.55168">
        <ele>34</ele>
        <time>2018-07-18T09:13:54Z</time>
      </trkpt>
      <trkpt lat="47.77252" lon="-3.55166">
        <ele>34</ele>
        <time>2018-07-18T09:13:55Z</time>
      </trkpt>
      <trkpt lat="47.77248" lon="-3.55164">
        <ele>34</ele>
        <time>2018-07-18T09:13:56Z</time>
      </trkpt>
      <trkpt lat="47.77245" lon="-3.55161">
        <ele>34</ele>
        <time>2018-07-18T09:13:57Z</time>
      </trkpt>
      <trkpt lat="47.77241" lon="-3.55159">
        <ele>34</ele>
        <time>2018-07-18T09:13:58Z</time>
      </trkpt>
      <trkpt lat="47.77237" lon="-3.55156">
        <ele>34</ele>
        <time>2018-07-18T09:13:59Z</time>
      </trkpt>
      <trkpt lat="47.77234" lon="-3.55154">
        <ele>34</ele>
        <time>2018-07-18T09:14:00Z</time>
      </trkpt>
      <trkpt lat="47.77229" lon="-3.55151">
        <ele>34</ele>
        <time>2018-07-18T09:14:01Z</time>
      </trkpt>
      <trkpt lat="47.77225" lon="-3.55148">
        <ele>34</ele>
        <time>2018-07-18T09:14:02Z</time>
      </trkpt>
      <trkpt lat="47.7722" lon="-3.55146">
        <ele>34</ele>
        <time>2018-07-18T09:14:03Z</time>
      </trkpt>
      <trkpt lat="47.77214" lon="-3.55144">
        <ele>34</ele>
        <time>2018-07-18T09:14:04Z</time>
      </trkpt>
      <trkpt lat="47.77208" lon="-3.55141">
        <ele>35</ele>
        <time>2018-07-18T09:14:05Z</time>
      </trkpt>
      <trkpt lat="47.772" lon="-3.55139">
        <ele>35</ele>
        <time>2018-07-18T09:14:06Z</time>
      </trkpt>
      <trkpt lat="47.77193" lon="-3.55138">
        <ele>35</ele>
        <time>2018-07-18T09:14:07Z</time>
      </trkpt>
      <trkpt lat="47.77185" lon="-3.55136">
        <ele>34</ele>
        <time>2018-07-18T09:14:08Z</time>
      </trkpt>
      <trkpt lat="47.77178" lon="-3.55133">
        <ele>34</ele>
        <time>2018-07-18T09:14:09Z</time>
      </trkpt>
      <trkpt lat="47.7717" lon="-3.55131">
        <ele>34</ele>
        <time>2018-07-18T09:14:10Z</time>
      </trkpt>
      <trkpt lat="47.77162" lon="-3.55128">
        <ele>34</ele>
        <time>2018-07-18T09:14:11Z</time>
      </trkpt>
      <trkpt lat="47.77155" lon="-3.55126">
        <ele>34</ele>
        <time>2018-07-18T09:14:12Z</time>
      </trkpt>
      <trkpt lat="47.77146" lon="-3.55125">
        <ele>34</ele>
        <time>2018-07-18T09:14:13Z</time>
      </trkpt>
      <trkpt lat="47.77137" lon="-3.55123">
        <ele>33</ele>
        <time>2018-07-18T09:14:14Z</time>
      </trkpt>
      <trkpt lat="47.77127" lon="-3.55122">
        <ele>33</ele>
        <time>2018-07-18T09:14:15Z</time>
      </trkpt>
      <trkpt lat="47.77117" lon="-3.55121">
        <ele>33</ele>
        <time>2018-07-18T09:14:16Z</time>
      </trkpt>
      <trkpt lat="47.77107" lon="-3.55119">
        <ele>33</ele>
        <time>2018-07-18T09:14:17Z</time>
      </trkpt>
      <trkpt lat="47.77097" lon="-3.55119">
        <ele>33</ele>
        <time>2018-07-18T09:14:18Z</time>
      </trkpt>
      <trkpt lat="47.77088" lon="-3.55121">
        <ele>32</ele>
        <time>2018-07-18T09:14:19Z</time>
      </trkpt>
      <trkpt lat="47.77079" lon="-3.55123">
        <ele>32</ele>
        <time>2018-07-18T09:14:20Z</time>
      </trkpt>
      <trkpt lat="47.77071" lon="-3.55125">
        <ele>32</ele>
        <time>2018-07-18T09:14:21Z</time>
      </trkpt>
      <trkpt lat="47.77062" lon="-3.55126">
        <ele>32</ele>
        <time>2018-07-18T09:14:22Z</time>
      </trkpt>
      <trkpt lat="47.77053" lon="-3.55127">
        <ele>32</ele>
        <time>2018-07-18T09:14:23Z</time>
      </trkpt>
      <trkpt lat="47.77043" lon="-3.55127">
        <ele>31</ele>
        <time>2018-07-18T09:14:24Z</time>
      </trkpt>
      <trkpt lat="47.77034" lon="-3.55124">
        <ele>30</ele>
        <time>2018-07-18T09:14:25Z</time>
      </trkpt>
      <trkpt lat="47.77025" lon="-3.55121">
        <ele>29</ele>
        <time>2018-07-18T09:14:26Z</time>
      </trkpt>
      <trkpt lat="47.77017" lon="-3.5512">
        <ele>27</ele>
        <time>2018-07-18T09:14:27Z</time>
      </trkpt>
      <trkpt lat="47.77009" lon="-3.55117">
        <ele>27</ele>
        <time>2018-07-18T09:14:28Z</time>
      </trkpt>
      <trkpt lat="47.77" lon="-3.55114">
        <ele>27</ele>
        <time>2018-07-18T09:14:29Z</time>
      </trkpt>
      <trkpt lat="47.76993" lon="-3.55111">
        <ele>26</ele>
        <time>2018-07-18T09:14:30Z</time>
      </trkpt>
      <trkpt lat="47.76986" lon="-3.5511">
        <ele>25</ele>
        <time>2018-07-18T09:14:31Z</time>
      </trkpt>
      <trkpt lat="47.76979" lon="-3.55107">
        <ele>25</ele>
        <time>2018-07-18T09:14:32Z</time>
      </trkpt>
      <trkpt lat="47.76972" lon="-3.55104">
        <ele>25</ele>
        <time>2018-07-18T09:14:33Z</time>
      </trkpt>
      <trkpt lat="47.76964" lon="-3.551">
        <ele>24</ele>
        <time>2018-07-18T09:14:34Z</time>
      </trkpt>
      <trkpt lat="47.76957" lon="-3.55095">
        <ele>23</ele>
        <time>2018-07-18T09:14:35Z</time>
      </trkpt>
      <trkpt lat="47.76951" lon="-3.55091">
        <ele>23</ele>
        <time>2018-07-18T09:14:36Z</time>
      </trkpt>
      <trkpt lat="47.76944" lon="-3.55088">
        <ele>23</ele>
        <time>2018-07-18T09:14:37Z</time>
      </trkpt>
      <trkpt lat="47.76936" lon="-3.55086">
        <ele>22</ele>
        <time>2018-07-18T09:14:38Z</time>
      </trkpt>
      <trkpt lat="47.76929" lon="-3.55086">
        <ele>22</ele>
        <time>2018-07-18T09:14:39Z</time>
      </trkpt>
      <trkpt lat="47.76921" lon="-3.55088">
        <ele>22</ele>
        <time>2018-07-18T09:14:40Z</time>
      </trkpt>
      <trkpt lat="47.76913" lon="-3.55093">
        <ele>21</ele>
        <time>2018-07-18T09:14:41Z</time>
      </trkpt>
      <trkpt lat="47.76906" lon="-3.551">
        <ele>20</ele>
        <time>2018-07-18T09:14:42Z</time>
      </trkpt>
      <trkpt lat="47.76899" lon="-3.55109">
        <ele>19</ele>
        <time>2018-07-18T09:14:43Z</time>
      </trkpt>
      <trkpt lat="47.76893" lon="-3.55118">
        <ele>18</ele>
        <time>2018-07-18T09:14:44Z</time>
      </trkpt>
      <trkpt lat="47.76888" lon="-3.55129">
        <ele>17</ele>
        <time>2018-07-18T09:14:45Z</time>
      </trkpt>
      <trkpt lat="47.76883" lon="-3.5514">
        <ele>17</ele>
        <time>2018-07-18T09:14:46Z</time>
      </trkpt>
      <trkpt lat="47.76879" lon="-3.55151">
        <ele>16</ele>
        <time>2018-07-18T09:14:47Z</time>
      </trkpt>
      <trkpt lat="47.76874" lon="-3.55163">
        <ele>15</ele>
        <time>2018-07-18T09:14:48Z</time>
      </trkpt>
      <trkpt lat="47.7687" lon="-3.55174">
        <ele>14</ele>
        <time>2018-07-18T09:14:49Z</time>
      </trkpt>
      <trkpt lat="47.76866" lon="-3.55184">
        <ele>14</ele>
        <time>2018-07-18T09:14:50Z</time>
      </trkpt>
      <trkpt lat="47.76862" lon="-3.55194">
        <ele>13</ele>
        <time>2018-07-18T09:14:51Z</time>
      </trkpt>
      <trkpt lat="47.7686" lon="-3.55204">
        <ele>12</ele>
        <time>2018-07-18T09:14:52Z</time>
      </trkpt>
      <trkpt lat="47.76859" lon="-3.55214">
        <ele>12</ele>
        <time>2018-07-18T09:14:53Z</time>
      </trkpt>
      <trkpt lat="47.76858" lon="-3.55223">
        <ele>12</ele>
        <time>2018-07-18T09:14:54Z</time>
      </trkpt>
      <trkpt lat="47.76855" lon="-3.55231">
        <ele>11</ele>
        <time>2018-07-18T09:14:55Z</time>
      </trkpt>
      <trkpt lat="47.76852" lon="-3.55237">
        <ele>11</ele>
        <time>2018-07-18T09:14:56Z</time>
      </trkpt>
      <trkpt lat="47.76848" lon="-3.55243">
        <ele>11</ele>
        <time>2018-07-18T09:14:57Z</time>
      </trkpt>
      <trkpt lat="47.76844" lon="-3.55249">
        <ele>11</ele>
        <time>2018-07-18T09:14:58Z</time>
      </trkpt>
      <trkpt lat="47.7684" lon="-3.55255">
        <ele>11</ele>
        <time>2018-07-18T09:14:59Z</time>
      </trkpt>
      <trkpt lat="47.76837" lon="-3.55263">
        <ele>10</ele>
        <time>2018-07-18T09:15:00Z</time>
      </trkpt>
      <trkpt lat="47.76835" lon="-3.55271">
        <ele>10</ele>
        <time>2018-07-18T09:15:01Z</time>
      </trkpt>
      <trkpt lat="47.76836" lon="-3.55279">
        <ele>10</ele>
        <time>2018-07-18T09:15:02Z</time>
      </trkpt>
      <trkpt lat="47.76836" lon="-3.55287">
        <ele>10</ele>
        <time>2018-07-18T09:15:03Z</time>
      </trkpt>
      <trkpt lat="47.76836" lon="-3.55294">
        <ele>9</ele>
        <time>2018-07-18T09:15:04Z</time>
      </trkpt>
      <trkpt lat="47.76835" lon="-3.55302">
        <ele>9</ele>
        <time>2018-07-18T09:15:05Z</time>
      </trkpt>
      <trkpt lat="47.76834" lon="-3.55309">
        <ele>9</ele>
        <time>2018-07-18T09:15:06Z</time>
      </trkpt>
      <trkpt lat="47.76834" lon="-3.55316">
        <ele>9</ele>
        <time>2018-07-18T09:15:07Z</time>
      </trkpt>
      <trkpt lat="47.76834" lon="-3.55324">
        <ele>9</ele>
        <time>2018-07-18T09:15:08Z</time>
      </trkpt>
      <trkpt lat="47.76833" lon="-3.55331">
        <ele>9</ele>
        <time>2018-07-18T09:15:09Z</time>
      </trkpt>
      <trkpt lat="47.76833" lon="-3.55338">
        <ele>9</ele>
        <time>2018-07-18T09:15:10Z</time>
      </trkpt>
      <trkpt lat="47.76834" lon="-3.55346">
        <ele>9</ele>
        <time>2018-07-18T09:15:11Z</time>
      </trkpt>
      <trkpt lat="47.76834" lon="-3.55353">
        <ele>9</ele>
        <time>2018-07-18T09:15:12Z</time>
      </trkpt>
      <trkpt lat="47.76834" lon="-3.55359">
        <ele>9</ele>
        <time>2018-07-18T09:15:13Z</time>
      </trkpt>
      <trkpt lat="47.76833" lon="-3.55364">
        <ele>9</ele>
        <time>2018-07-18T09:15:14Z</time>
      </trkpt>
      <trkpt lat="47.7683" lon="-3.55368">
        <ele>9</ele>
        <time>2018-07-18T09:15:15Z</time>
      </trkpt>
      <trkpt lat="47.76827" lon="-3.55372">
        <ele>9</ele>
        <time>2018-07-18T09:15:16Z</time>
      </trkpt>
      <trkpt lat="47.76824" lon="-3.55376">
        <ele>9</ele>
        <time>2018-07-18T09:15:17Z</time>
      </trkpt>
      <trkpt lat="47.7682" lon="-3.55381">
        <ele>9</ele>
        <time>2018-07-18T09:15:18Z</time>
      </trkpt>
      <trkpt lat="47.76816" lon="-3.55386">
        <ele>9</ele>
        <time>2018-07-18T09:15:19Z</time>
      </trkpt>
      <trkpt lat="47.76812" lon="-3.55391">
        <ele>9</ele>
        <time>2018-07-18T09:15:20Z</time>
      </trkpt>
      <trkpt lat="47.76808" lon="-3.55396">
        <ele>9</ele>
        <time>2018-07-18T09:15:21Z</time>
      </trkpt>
      <trkpt lat="47.76803" lon="-3.554">
        <ele>9</ele>
        <time>2018-07-18T09:15:22Z</time>
      </trkpt>
      <trkpt lat="47.76799" lon="-3.55404">
        <ele>9</ele>
        <time>2018-07-18T09:15:23Z</time>
      </trkpt>
      <trkpt lat="47.76794" lon="-3.55409">
        <ele>9</ele>
        <time>2018-07-18T09:15:24Z</time>
      </trkpt>
      <trkpt lat="47.7679" lon="-3.55413">
        <ele>9</ele>
        <time>2018-07-18T09:15:25Z</time>
      </trkpt>
      <trkpt lat="47.76786" lon="-3.55417">
        <ele>9</ele>
        <time>2018-07-18T09:15:26Z</time>
      </trkpt>
      <trkpt lat="47.76781" lon="-3.55421">
        <ele>9</ele>
        <time>2018-07-18T09:15:27Z</time>
      </trkpt>
      <trkpt lat="47.76777" lon="-3.55426">
        <ele>9</ele>
        <time>2018-07-18T09:15:28Z</time>
      </trkpt>
      <trkpt lat="47.76772" lon="-3.55431">
        <ele>9</ele>
        <time>2018-07-18T09:15:29Z</time>
      </trkpt>
      <trkpt lat="47.76768" lon="-3.55436">
        <ele>9</ele>
        <time>2018-07-18T09:15:30Z</time>
      </trkpt>
      <trkpt lat="47.76763" lon="-3.55441">
        <ele>9</ele>
        <time>2018-07-18T09:15:31Z</time>
      </trkpt>
      <trkpt lat="47.76758" lon="-3.55446">
        <ele>9</ele>
        <time>2018-07-18T09:15:32Z</time>
      </trkpt>
      <trkpt lat="47.76754" lon="-3.5545">
        <ele>9</ele>
        <time>2018-07-18T09:15:33Z</time>
      </trkpt>
      <trkpt lat="47.76749" lon="-3.55454">
        <ele>9</ele>
        <time>2018-07-18T09:15:34Z</time>
      </trkpt>
      <trkpt lat="47.76745" lon="-3.55457">
        <ele>9</ele>
        <time>2018-07-18T09:15:35Z</time>
      </trkpt>
      <trkpt lat="47.7674" lon="-3.5546">
        <ele>9</ele>
        <time>2018-07-18T09:15:36Z</time>
      </trkpt>
      <trkpt lat="47.76736" lon="-3.55463">
        <ele>8</ele>
        <time>2018-07-18T09:15:37Z</time>
      </trkpt>
      <trkpt lat="47.76732" lon="-3.55466">
        <ele>8</ele>
        <time>2018-07-18T09:15:38Z</time>
      </trkpt>
      <trkpt lat="47.76729" lon="-3.55469">
        <ele>8</ele>
        <time>2018-07-18T09:15:39Z</time>
      </trkpt>
      <trkpt lat="47.76725" lon="-3.55472">
        <ele>8</ele>
        <time>2018-07-18T09:15:40Z</time>
      </trkpt>
      <trkpt lat="47.76721" lon="-3.55475">
        <ele>8</ele>
        <time>2018-07-18T09:15:41Z</time>
      </trkpt>
      <trkpt lat="47.76717" lon="-3.55478">
        <ele>8</ele>
        <time>2018-07-18T09:15:42Z</time>
      </trkpt>
      <trkpt lat="47.76713" lon="-3.55481">
        <ele>8</ele>
        <time>2018-07-18T09:15:43Z</time>
      </trkpt>
      <trkpt lat="47.76706" lon="-3.55487">
        <ele>8</ele>
        <time>2018-07-18T09:15:44Z</time>
      </trkpt>
      <trkpt lat="47.76702" lon="-3.5549">
        <ele>8</ele>
        <time>2018-07-18T09:15:45Z</time>
      </trkpt>
      <trkpt lat="47.76698" lon="-3.55494">
        <ele>8</ele>
        <time>2018-07-18T09:15:46Z</time>
      </trkpt>
      <trkpt lat="47.76693" lon="-3.55496">
        <ele>8</ele>
        <time>2018-07-18T09:15:47Z</time>
      </trkpt>
      <trkpt lat="47.76689" lon="-3.55499">
        <ele>8</ele>
        <time>2018-07-18T09:15:48Z</time>
      </trkpt>
      <trkpt lat="47.76686" lon="-3.55502">
        <ele>8</ele>
        <time>2018-07-18T09:15:49Z</time>
      </trkpt>
      <trkpt lat="47.76683" lon="-3.55506">
        <ele>8</ele>
        <time>2018-07-18T09:15:50Z</time>
      </trkpt>
      <trkpt lat="47.76682" lon="-3.55509">
        <ele>8</ele>
        <time>2018-07-18T09:15:51Z</time>
      </trkpt>
      <trkpt lat="47.76682" lon="-3.55512">
        <ele>8</ele>
        <time>2018-07-18T09:15:52Z</time>
      </trkpt>
      <trkpt lat="47.76682" lon="-3.55515">
        <ele>8</ele>
        <time>2018-07-18T09:15:53Z</time>
      </trkpt>
      <trkpt lat="47.76683" lon="-3.55518">
        <ele>8</ele>
        <time>2018-07-18T09:15:54Z</time>
      </trkpt>
      <trkpt lat="47.76685" lon="-3.55523">
        <ele>8</ele>
        <time>2018-07-18T09:15:55Z</time>
      </trkpt>
      <trkpt lat="47.76687" lon="-3.55528">
        <ele>8</ele>
        <time>2018-07-18T09:15:56Z</time>
      </trkpt>
      <trkpt lat="47.76689" lon="-3.55533">
        <ele>8</ele>
        <time>2018-07-18T09:15:57Z</time>
      </trkpt>
      <trkpt lat="47.76691" lon="-3.55539">
        <ele>8</ele>
        <time>2018-07-18T09:15:58Z</time>
      </trkpt>
      <trkpt lat="47.76693" lon="-3.55545">
        <ele>8</ele>
        <time>2018-07-18T09:15:59Z</time>
      </trkpt>
      <trkpt lat="47.76696" lon="-3.55552">
        <ele>7</ele>
        <time>2018-07-18T09:16:00Z</time>
      </trkpt>
      <trkpt lat="47.76698" lon="-3.55558">
        <ele>7</ele>
        <time>2018-07-18T09:16:01Z</time>
      </trkpt>
      <trkpt lat="47.76701" lon="-3.55565">
        <ele>7</ele>
        <time>2018-07-18T09:16:02Z</time>
      </trkpt>
      <trkpt lat="47.76703" lon="-3.55571">
        <ele>7</ele>
        <time>2018-07-18T09:16:03Z</time>
      </trkpt>
      <trkpt lat="47.76705" lon="-3.55578">
        <ele>7</ele>
        <time>2018-07-18T09:16:04Z</time>
      </trkpt>
      <trkpt lat="47.76708" lon="-3.55585">
        <ele>7</ele>
        <time>2018-07-18T09:16:05Z</time>
      </trkpt>
      <trkpt lat="47.7671" lon="-3.55591">
        <ele>7</ele>
        <time>2018-07-18T09:16:06Z</time>
      </trkpt>
      <trkpt lat="47.76712" lon="-3.55598">
        <ele>7</ele>
        <time>2018-07-18T09:16:07Z</time>
      </trkpt>
      <trkpt lat="47.76713" lon="-3.55604">
        <ele>7</ele>
        <time>2018-07-18T09:16:08Z</time>
      </trkpt>
      <trkpt lat="47.76715" lon="-3.5561">
        <ele>7</ele>
        <time>2018-07-18T09:16:09Z</time>
      </trkpt>
      <trkpt lat="47.76716" lon="-3.55617">
        <ele>7</ele>
        <time>2018-07-18T09:16:10Z</time>
      </trkpt>
      <trkpt lat="47.76718" lon="-3.55623">
        <ele>7</ele>
        <time>2018-07-18T09:16:11Z</time>
      </trkpt>
      <trkpt lat="47.7672" lon="-3.55628">
        <ele>8</ele>
        <time>2018-07-18T09:16:12Z</time>
      </trkpt>
      <trkpt lat="47.76722" lon="-3.55633">
        <ele>8</ele>
        <time>2018-07-18T09:16:13Z</time>
      </trkpt>
      <trkpt lat="47.76725" lon="-3.55639">
        <ele>8</ele>
        <time>2018-07-18T09:16:14Z</time>
      </trkpt>
      <trkpt lat="47.76727" lon="-3.55644">
        <ele>8</ele>
        <time>2018-07-18T09:16:15Z</time>
      </trkpt>
      <trkpt lat="47.7673" lon="-3.55649">
        <ele>8</ele>
        <time>2018-07-18T09:16:16Z</time>
      </trkpt>
      <trkpt lat="47.76732" lon="-3.55655">
        <ele>9</ele>
        <time>2018-07-18T09:16:17Z</time>
      </trkpt>
      <trkpt lat="47.76734" lon="-3.5566">
        <ele>9</ele>
        <time>2018-07-18T09:16:18Z</time>
      </trkpt>
      <trkpt lat="47.76737" lon="-3.55665">
        <ele>9</ele>
        <time>2018-07-18T09:16:19Z</time>
      </trkpt>
      <trkpt lat="47.76739" lon="-3.5567">
        <ele>10</ele>
        <time>2018-07-18T09:16:20Z</time>
      </trkpt>
      <trkpt lat="47.76741" lon="-3.55675">
        <ele>10</ele>
        <time>2018-07-18T09:16:21Z</time>
      </trkpt>
      <trkpt lat="47.76744" lon="-3.55681">
        <ele>11</ele>
        <time>2018-07-18T09:16:22Z</time>
      </trkpt>
      <trkpt lat="47.76746" lon="-3.55686">
        <ele>11</ele>
        <time>2018-07-18T09:16:23Z</time>
      </trkpt>
      <trkpt lat="47.76748" lon="-3.55691">
        <ele>11</ele>
        <time>2018-07-18T09:16:24Z</time>
      </trkpt>
      <trkpt lat="47.76751" lon="-3.55696">
        <ele>12</ele>
        <time>2018-07-18T09:16:25Z</time>
      </trkpt>
      <trkpt lat="47.76753" lon="-3.55702">
        <ele>12</ele>
        <time>2018-07-18T09:16:26Z</time>
      </trkpt>
      <trkpt lat="47.76755" lon="-3.55707">
        <ele>12</ele>
        <time>2018-07-18T09:16:27Z</time>
      </trkpt>
      <trkpt lat="47.76757" lon="-3.55712">
        <ele>12</ele>
        <time>2018-07-18T09:16:28Z</time>
      </trkpt>
      <trkpt lat="47.76759" lon="-3.55717">
        <ele>13</ele>
        <time>2018-07-18T09:16:29Z</time>
      </trkpt>
      <trkpt lat="47.76761" lon="-3.55722">
        <ele>13</ele>
        <time>2018-07-18T09:16:30Z</time>
      </trkpt>
      <trkpt lat="47.76764" lon="-3.55727">
        <ele>14</ele>
        <time>2018-07-18T09:16:31Z</time>
      </trkpt>
      <trkpt lat="47.76766" lon="-3.55732">
        <ele>14</ele>
        <time>2018-07-18T09:16:32Z</time>
      </trkpt>
      <trkpt lat="47.76769" lon="-3.55736">
        <ele>14</ele>
        <time>2018-07-18T09:16:33Z</time>
      </trkpt>
      <trkpt lat="47.76772" lon="-3.55738">
        <ele>14</ele>
        <time>2018-07-18T09:16:34Z</time>
      </trkpt>
      <trkpt lat="47.76776" lon="-3.55741">
        <ele>14</ele>
        <time>2018-07-18T09:16:35Z</time>
      </trkpt>
      <trkpt lat="47.76779" lon="-3.55744">
        <ele>14</ele>
        <time>2018-07-18T09:16:36Z</time>
      </trkpt>
      <trkpt lat="47.76783" lon="-3.55747">
        <ele>14</ele>
        <time>2018-07-18T09:16:37Z</time>
      </trkpt>
      <trkpt lat="47.76787" lon="-3.55751">
        <ele>15</ele>
        <time>2018-07-18T09:16:38Z</time>
      </trkpt>
      <trkpt lat="47.7679" lon="-3.55754">
        <ele>15</ele>
        <time>2018-07-18T09:16:39Z</time>
      </trkpt>
      <trkpt lat="47.76794" lon="-3.55758">
        <ele>15</ele>
        <time>2018-07-18T09:16:40Z</time>
      </trkpt>
      <trkpt lat="47.76798" lon="-3.55761">
        <ele>15</ele>
        <time>2018-07-18T09:16:41Z</time>
      </trkpt>
      <trkpt lat="47.76802" lon="-3.55765">
        <ele>15</ele>
        <time>2018-07-18T09:16:42Z</time>
      </trkpt>
      <trkpt lat="47.76806" lon="-3.55769">
        <ele>15</ele>
        <time>2018-07-18T09:16:43Z</time>
      </trkpt>
      <trkpt lat="47.7681" lon="-3.55773">
        <ele>15</ele>
        <time>2018-07-18T09:16:44Z</time>
      </trkpt>
      <trkpt lat="47.76814" lon="-3.55777">
        <ele>15</ele>
        <time>2018-07-18T09:16:45Z</time>
      </trkpt>
      <trkpt lat="47.76817" lon="-3.55781">
        <ele>15</ele>
        <time>2018-07-18T09:16:46Z</time>
      </trkpt>
      <trkpt lat="47.76821" lon="-3.55786">
        <ele>15</ele>
        <time>2018-07-18T09:16:47Z</time>
      </trkpt>
      <trkpt lat="47.76826" lon="-3.5579">
        <ele>15</ele>
        <time>2018-07-18T09:16:48Z</time>
      </trkpt>
      <trkpt lat="47.7683" lon="-3.55794">
        <ele>15</ele>
        <time>2018-07-18T09:16:49Z</time>
      </trkpt>
      <trkpt lat="47.76834" lon="-3.55798">
        <ele>15</ele>
        <time>2018-07-18T09:16:50Z</time>
      </trkpt>
      <trkpt lat="47.76839" lon="-3.55802">
        <ele>15</ele>
        <time>2018-07-18T09:16:51Z</time>
      </trkpt>
      <trkpt lat="47.76843" lon="-3.55806">
        <ele>15</ele>
        <time>2018-07-18T09:16:52Z</time>
      </trkpt>
      <trkpt lat="47.76848" lon="-3.5581">
        <ele>15</ele>
        <time>2018-07-18T09:16:53Z</time>
      </trkpt>
      <trkpt lat="47.76852" lon="-3.55814">
        <ele>15</ele>
        <time>2018-07-18T09:16:54Z</time>
      </trkpt>
      <trkpt lat="47.76856" lon="-3.55817">
        <ele>15</ele>
        <time>2018-07-18T09:16:55Z</time>
      </trkpt>
      <trkpt lat="47.7686" lon="-3.55821">
        <ele>15</ele>
        <time>2018-07-18T09:16:56Z</time>
      </trkpt>
      <trkpt lat="47.76863" lon="-3.55824">
        <ele>15</ele>
        <time>2018-07-18T09:16:57Z</time>
      </trkpt>
      <trkpt lat="47.76867" lon="-3.55827">
        <ele>15</ele>
        <time>2018-07-18T09:16:58Z</time>
      </trkpt>
      <trkpt lat="47.76872" lon="-3.5583">
        <ele>15</ele>
        <time>2018-07-18T09:16:59Z</time>
      </trkpt>
      <trkpt lat="47.76876" lon="-3.55833">
        <ele>15</ele>
        <time>2018-07-18T09:17:00Z</time>
      </trkpt>
      <trkpt lat="47.7688" lon="-3.55836">
        <ele>15</ele>
        <time>2018-07-18T09:17:01Z</time>
      </trkpt>
      <trkpt lat="47.76884" lon="-3.55839">
        <ele>15</ele>
        <time>2018-07-18T09:17:02Z</time>
      </trkpt>
      <trkpt lat="47.76888" lon="-3.55841">
        <ele>15</ele>
        <time>2018-07-18T09:17:03Z</time>
      </trkpt>
      <trkpt lat="47.76892" lon="-3.55844">
        <ele>16</ele>
        <time>2018-07-18T09:17:04Z</time>
      </trkpt>
      <trkpt lat="47.76896" lon="-3.55847">
        <ele>16</ele>
        <time>2018-07-18T09:17:05Z</time>
      </trkpt>
      <trkpt lat="47.769" lon="-3.55849">
        <ele>16</ele>
        <time>2018-07-18T09:17:06Z</time>
      </trkpt>
      <trkpt lat="47.76904" lon="-3.55852">
        <ele>16</ele>
        <time>2018-07-18T09:17:07Z</time>
      </trkpt>
      <trkpt lat="47.76907" lon="-3.55853">
        <ele>16</ele>
        <time>2018-07-18T09:17:08Z</time>
      </trkpt>
      <trkpt lat="47.76911" lon="-3.55856">
        <ele>16</ele>
        <time>2018-07-18T09:17:09Z</time>
      </trkpt>
      <trkpt lat="47.76915" lon="-3.55857">
        <ele>16</ele>
        <time>2018-07-18T09:17:10Z</time>
      </trkpt>
      <trkpt lat="47.76918" lon="-3.55858">
        <ele>16</ele>
        <time>2018-07-18T09:17:11Z</time>
      </trkpt>
      <trkpt lat="47.76922" lon="-3.55859">
        <ele>16</ele>
        <time>2018-07-18T09:17:12Z</time>
      </trkpt>
      <trkpt lat="47.76925" lon="-3.5586">
        <ele>16</ele>
        <time>2018-07-18T09:17:13Z</time>
      </trkpt>
      <trkpt lat="47.76929" lon="-3.55861">
        <ele>17</ele>
        <time>2018-07-18T09:17:14Z</time>
      </trkpt>
      <trkpt lat="47.76932" lon="-3.55863">
        <ele>17</ele>
        <time>2018-07-18T09:17:15Z</time>
      </trkpt>
      <trkpt lat="47.76935" lon="-3.55864">
        <ele>17</ele>
        <time>2018-07-18T09:17:16Z</time>
      </trkpt>
      <trkpt lat="47.76939" lon="-3.55865">
        <ele>17</ele>
        <time>2018-07-18T09:17:17Z</time>
      </trkpt>
      <trkpt lat="47.76942" lon="-3.55865">
        <ele>17</ele>
        <time>2018-07-18T09:17:18Z</time>
      </trkpt>
      <trkpt lat="47.76945" lon="-3.55865">
        <ele>17</ele>
        <time>2018-07-18T09:17:19Z</time>
      </trkpt>
      <trkpt lat="47.76948" lon="-3.55865">
        <ele>18</ele>
        <time>2018-07-18T09:17:20Z</time>
      </trkpt>
      <trkpt lat="47.76952" lon="-3.55864">
        <ele>18</ele>
        <time>2018-07-18T09:17:21Z</time>
      </trkpt>
      <trkpt lat="47.76955" lon="-3.55864">
        <ele>18</ele>
        <time>2018-07-18T09:17:22Z</time>
      </trkpt>
      <trkpt lat="47.76958" lon="-3.55863">
        <ele>18</ele>
        <time>2018-07-18T09:17:23Z</time>
      </trkpt>
      <trkpt lat="47.76961" lon="-3.55863">
        <ele>19</ele>
        <time>2018-07-18T09:17:24Z</time>
      </trkpt>
      <trkpt lat="47.76964" lon="-3.55862">
        <ele>19</ele>
        <time>2018-07-18T09:17:25Z</time>
      </trkpt>
      <trkpt lat="47.76968" lon="-3.55861">
        <ele>19</ele>
        <time>2018-07-18T09:17:26Z</time>
      </trkpt>
      <trkpt lat="47.76971" lon="-3.5586">
        <ele>19</ele>
        <time>2018-07-18T09:17:27Z</time>
      </trkpt>
      <trkpt lat="47.76974" lon="-3.5586">
        <ele>20</ele>
        <time>2018-07-18T09:17:28Z</time>
      </trkpt>
      <trkpt lat="47.76977" lon="-3.55859">
        <ele>20</ele>
        <time>2018-07-18T09:17:29Z</time>
      </trkpt>
      <trkpt lat="47.7698" lon="-3.55859">
        <ele>20</ele>
        <time>2018-07-18T09:17:30Z</time>
      </trkpt>
      <trkpt lat="47.76982" lon="-3.55859">
        <ele>21</ele>
        <time>2018-07-18T09:17:31Z</time>
      </trkpt>
      <trkpt lat="47.76985" lon="-3.55861">
        <ele>21</ele>
        <time>2018-07-18T09:17:32Z</time>
      </trkpt>
      <trkpt lat="47.76987" lon="-3.55864">
        <ele>21</ele>
        <time>2018-07-18T09:17:33Z</time>
      </trkpt>
      <trkpt lat="47.76989" lon="-3.55868">
        <ele>21</ele>
        <time>2018-07-18T09:17:34Z</time>
      </trkpt>
      <trkpt lat="47.7699" lon="-3.55872">
        <ele>21</ele>
        <time>2018-07-18T09:17:35Z</time>
      </trkpt>
      <trkpt lat="47.76991" lon="-3.55878">
        <ele>22</ele>
        <time>2018-07-18T09:17:36Z</time>
      </trkpt>
      <trkpt lat="47.7699" lon="-3.55883">
        <ele>22</ele>
        <time>2018-07-18T09:17:37Z</time>
      </trkpt>
      <trkpt lat="47.76989" lon="-3.55888">
        <ele>22</ele>
        <time>2018-07-18T09:17:38Z</time>
      </trkpt>
      <trkpt lat="47.76987" lon="-3.55893">
        <ele>22</ele>
        <time>2018-07-18T09:17:39Z</time>
      </trkpt>
      <trkpt lat="47.76985" lon="-3.55898">
        <ele>22</ele>
        <time>2018-07-18T09:17:40Z</time>
      </trkpt>
      <trkpt lat="47.76983" lon="-3.55902">
        <ele>22</ele>
        <time>2018-07-18T09:17:41Z</time>
      </trkpt>
      <trkpt lat="47.76981" lon="-3.55907">
        <ele>22</ele>
        <time>2018-07-18T09:17:42Z</time>
      </trkpt>
      <trkpt lat="47.7698" lon="-3.55912">
        <ele>22</ele>
        <time>2018-07-18T09:17:43Z</time>
      </trkpt>
      <trkpt lat="47.76979" lon="-3.55918">
        <ele>22</ele>
        <time>2018-07-18T09:17:44Z</time>
      </trkpt>
      <trkpt lat="47.76977" lon="-3.55924">
        <ele>22</ele>
        <time>2018-07-18T09:17:45Z</time>
      </trkpt>
      <trkpt lat="47.76976" lon="-3.55929">
        <ele>22</ele>
        <time>2018-07-18T09:17:46Z</time>
      </trkpt>
      <trkpt lat="47.76975" lon="-3.55936">
        <ele>23</ele>
        <time>2018-07-18T09:17:47Z</time>
      </trkpt>
      <trkpt lat="47.76974" lon="-3.55942">
        <ele>23</ele>
        <time>2018-07-18T09:17:48Z</time>
      </trkpt>
      <trkpt lat="47.76973" lon="-3.55948">
        <ele>23</ele>
        <time>2018-07-18T09:17:49Z</time>
      </trkpt>
      <trkpt lat="47.76972" lon="-3.55955">
        <ele>23</ele>
        <time>2018-07-18T09:17:50Z</time>
      </trkpt>
      <trkpt lat="47.76971" lon="-3.55961">
        <ele>23</ele>
        <time>2018-07-18T09:17:51Z</time>
      </trkpt>
      <trkpt lat="47.7697" lon="-3.55968">
        <ele>23</ele>
        <time>2018-07-18T09:17:52Z</time>
      </trkpt>
      <trkpt lat="47.76969" lon="-3.55975">
        <ele>23</ele>
        <time>2018-07-18T09:17:53Z</time>
      </trkpt>
      <trkpt lat="47.76967" lon="-3.55982">
        <ele>23</ele>
        <time>2018-07-18T09:17:54Z</time>
      </trkpt>
      <trkpt lat="47.76966" lon="-3.55989">
        <ele>23</ele>
        <time>2018-07-18T09:17:55Z</time>
      </trkpt>
      <trkpt lat="47.76965" lon="-3.55996">
        <ele>23</ele>
        <time>2018-07-18T09:17:56Z</time>
      </trkpt>
      <trkpt lat="47.76963" lon="-3.56004">
        <ele>23</ele>
        <time>2018-07-18T09:17:57Z</time>
      </trkpt>
      <trkpt lat="47.76962" lon="-3.56011">
        <ele>23</ele>
        <time>2018-07-18T09:17:58Z</time>
      </trkpt>
      <trkpt lat="47.76961" lon="-3.56019">
        <ele>23</ele>
        <time>2018-07-18T09:17:59Z</time>
      </trkpt>
      <trkpt lat="47.76959" lon="-3.56027">
        <ele>23</ele>
        <time>2018-07-18T09:18:00Z</time>
      </trkpt>
      <trkpt lat="47.76958" lon="-3.56034">
        <ele>23</ele>
        <time>2018-07-18T09:18:01Z</time>
      </trkpt>
      <trkpt lat="47.76957" lon="-3.5604">
        <ele>23</ele>
        <time>2018-07-18T09:18:02Z</time>
      </trkpt>
      <trkpt lat="47.76957" lon="-3.56044">
        <ele>23</ele>
        <time>2018-07-18T09:18:03Z</time>
      </trkpt>
      <trkpt lat="47.76957" lon="-3.56047">
        <ele>24</ele>
        <time>2018-07-18T09:18:04Z</time>
      </trkpt>
      <trkpt lat="47.76956" lon="-3.56052">
        <ele>24</ele>
        <time>2018-07-18T09:18:05Z</time>
      </trkpt>
      <trkpt lat="47.76956" lon="-3.56056">
        <ele>24</ele>
        <time>2018-07-18T09:18:06Z</time>
      </trkpt>
      <trkpt lat="47.76955" lon="-3.56062">
        <ele>24</ele>
        <time>2018-07-18T09:18:07Z</time>
      </trkpt>
      <trkpt lat="47.76955" lon="-3.56068">
        <ele>24</ele>
        <time>2018-07-18T09:18:08Z</time>
      </trkpt>
      <trkpt lat="47.76955" lon="-3.56074">
        <ele>24</ele>
        <time>2018-07-18T09:18:09Z</time>
      </trkpt>
      <trkpt lat="47.76954" lon="-3.56082">
        <ele>23</ele>
        <time>2018-07-18T09:18:10Z</time>
      </trkpt>
      <trkpt lat="47.76953" lon="-3.56089">
        <ele>23</ele>
        <time>2018-07-18T09:18:11Z</time>
      </trkpt>
      <trkpt lat="47.76952" lon="-3.56098">
        <ele>23</ele>
        <time>2018-07-18T09:18:12Z</time>
      </trkpt>
      <trkpt lat="47.76951" lon="-3.56107">
        <ele>22</ele>
        <time>2018-07-18T09:18:13Z</time>
      </trkpt>
      <trkpt lat="47.7695" lon="-3.56117">
        <ele>22</ele>
        <time>2018-07-18T09:18:14Z</time>
      </trkpt>
      <trkpt lat="47.76949" lon="-3.56127">
        <ele>22</ele>
        <time>2018-07-18T09:18:15Z</time>
      </trkpt>
      <trkpt lat="47.76948" lon="-3.56138">
        <ele>21</ele>
        <time>2018-07-18T09:18:16Z</time>
      </trkpt>
      <trkpt lat="47.76946" lon="-3.56148">
        <ele>21</ele>
        <time>2018-07-18T09:18:17Z</time>
      </trkpt>
      <trkpt lat="47.76945" lon="-3.56159">
        <ele>21</ele>
        <time>2018-07-18T09:18:18Z</time>
      </trkpt>
      <trkpt lat="47.76944" lon="-3.5617">
        <ele>20</ele>
        <time>2018-07-18T09:18:19Z</time>
      </trkpt>
      <trkpt lat="47.76943" lon="-3.56181">
        <ele>20</ele>
        <time>2018-07-18T09:18:20Z</time>
      </trkpt>
      <trkpt lat="47.76942" lon="-3.56193">
        <ele>20</ele>
        <time>2018-07-18T09:18:21Z</time>
      </trkpt>
      <trkpt lat="47.7694" lon="-3.56204">
        <ele>19</ele>
        <time>2018-07-18T09:18:22Z</time>
      </trkpt>
      <trkpt lat="47.76938" lon="-3.56214">
        <ele>19</ele>
        <time>2018-07-18T09:18:23Z</time>
      </trkpt>
      <trkpt lat="47.76935" lon="-3.56224">
        <ele>19</ele>
        <time>2018-07-18T09:18:24Z</time>
      </trkpt>
      <trkpt lat="47.76931" lon="-3.56233">
        <ele>18</ele>
        <time>2018-07-18T09:18:25Z</time>
      </trkpt>
      <trkpt lat="47.76928" lon="-3.56243">
        <ele>18</ele>
        <time>2018-07-18T09:18:26Z</time>
      </trkpt>
      <trkpt lat="47.76925" lon="-3.5625">
        <ele>18</ele>
        <time>2018-07-18T09:18:27Z</time>
      </trkpt>
      <trkpt lat="47.76922" lon="-3.56257">
        <ele>18</ele>
        <time>2018-07-18T09:18:28Z</time>
      </trkpt>
      <trkpt lat="47.76921" lon="-3.56262">
        <ele>17</ele>
        <time>2018-07-18T09:18:29Z</time>
      </trkpt>
      <trkpt lat="47.76919" lon="-3.56268">
        <ele>17</ele>
        <time>2018-07-18T09:18:30Z</time>
      </trkpt>
      <trkpt lat="47.76917" lon="-3.56274">
        <ele>17</ele>
        <time>2018-07-18T09:18:31Z</time>
      </trkpt>
      <trkpt lat="47.76915" lon="-3.56279">
        <ele>17</ele>
        <time>2018-07-18T09:18:32Z</time>
      </trkpt>
      <trkpt lat="47.76913" lon="-3.56284">
        <ele>17</ele>
        <time>2018-07-18T09:18:33Z</time>
      </trkpt>
      <trkpt lat="47.76911" lon="-3.56289">
        <ele>17</ele>
        <time>2018-07-18T09:18:34Z</time>
      </trkpt>
      <trkpt lat="47.7691" lon="-3.56294">
        <ele>17</ele>
        <time>2018-07-18T09:18:35Z</time>
      </trkpt>
      <trkpt lat="47.76909" lon="-3.56298">
        <ele>17</ele>
        <time>2018-07-18T09:18:36Z</time>
      </trkpt>
      <trkpt lat="47.76908" lon="-3.56304">
        <ele>17</ele>
        <time>2018-07-18T09:18:37Z</time>
      </trkpt>
      <trkpt lat="47.76907" lon="-3.56309">
        <ele>17</ele>
        <time>2018-07-18T09:18:38Z</time>
      </trkpt>
      <trkpt lat="47.76906" lon="-3.56315">
        <ele>17</ele>
        <time>2018-07-18T09:18:39Z</time>
      </trkpt>
      <trkpt lat="47.76904" lon="-3.56321">
        <ele>17</ele>
        <time>2018-07-18T09:18:40Z</time>
      </trkpt>
      <trkpt lat="47.76903" lon="-3.56326">
        <ele>17</ele>
        <time>2018-07-18T09:18:41Z</time>
      </trkpt>
      <trkpt lat="47.76902" lon="-3.56332">
        <ele>17</ele>
        <time>2018-07-18T09:18:42Z</time>
      </trkpt>
      <trkpt lat="47.769" lon="-3.56337">
        <ele>17</ele>
        <time>2018-07-18T09:18:43Z</time>
      </trkpt>
      <trkpt lat="47.76899" lon="-3.56343">
        <ele>17</ele>
        <time>2018-07-18T09:18:44Z</time>
      </trkpt>
      <trkpt lat="47.76897" lon="-3.56348">
        <ele>17</ele>
        <time>2018-07-18T09:18:45Z</time>
      </trkpt>
      <trkpt lat="47.76896" lon="-3.56354">
        <ele>17</ele>
        <time>2018-07-18T09:18:46Z</time>
      </trkpt>
      <trkpt lat="47.76894" lon="-3.56359">
        <ele>17</ele>
        <time>2018-07-18T09:18:47Z</time>
      </trkpt>
      <trkpt lat="47.76892" lon="-3.56364">
        <ele>17</ele>
        <time>2018-07-18T09:18:48Z</time>
      </trkpt>
      <trkpt lat="47.7689" lon="-3.56369">
        <ele>17</ele>
        <time>2018-07-18T09:18:49Z</time>
      </trkpt>
      <trkpt lat="47.76889" lon="-3.56375">
        <ele>17</ele>
        <time>2018-07-18T09:18:50Z</time>
      </trkpt>
      <trkpt lat="47.76887" lon="-3.5638">
        <ele>17</ele>
        <time>2018-07-18T09:18:51Z</time>
      </trkpt>
      <trkpt lat="47.76886" lon="-3.56386">
        <ele>17</ele>
        <time>2018-07-18T09:18:52Z</time>
      </trkpt>
      <trkpt lat="47.76885" lon="-3.56391">
        <ele>17</ele>
        <time>2018-07-18T09:18:53Z</time>
      </trkpt>
      <trkpt lat="47.76885" lon="-3.56397">
        <ele>17</ele>
        <time>2018-07-18T09:18:54Z</time>
      </trkpt>
      <trkpt lat="47.76886" lon="-3.56403">
        <ele>17</ele>
        <time>2018-07-18T09:18:55Z</time>
      </trkpt>
      <trkpt lat="47.76886" lon="-3.56408">
        <ele>17</ele>
        <time>2018-07-18T09:18:56Z</time>
      </trkpt>
      <trkpt lat="47.76887" lon="-3.56414">
        <ele>18</ele>
        <time>2018-07-18T09:18:57Z</time>
      </trkpt>
      <trkpt lat="47.76888" lon="-3.5642">
        <ele>18</ele>
        <time>2018-07-18T09:18:58Z</time>
      </trkpt>
      <trkpt lat="47.7689" lon="-3.56425">
        <ele>18</ele>
        <time>2018-07-18T09:18:59Z</time>
      </trkpt>
      <trkpt lat="47.76891" lon="-3.5643">
        <ele>18</ele>
        <time>2018-07-18T09:19:00Z</time>
      </trkpt>
      <trkpt lat="47.76892" lon="-3.56436">
        <ele>18</ele>
        <time>2018-07-18T09:19:01Z</time>
      </trkpt>
      <trkpt lat="47.76893" lon="-3.56442">
        <ele>18</ele>
        <time>2018-07-18T09:19:02Z</time>
      </trkpt>
      <trkpt lat="47.76894" lon="-3.56448">
        <ele>18</ele>
        <time>2018-07-18T09:19:03Z</time>
      </trkpt>
      <trkpt lat="47.76896" lon="-3.56454">
        <ele>18</ele>
        <time>2018-07-18T09:19:04Z</time>
      </trkpt>
      <trkpt lat="47.76896" lon="-3.56461">
        <ele>18</ele>
        <time>2018-07-18T09:19:05Z</time>
      </trkpt>
      <trkpt lat="47.76896" lon="-3.56467">
        <ele>18</ele>
        <time>2018-07-18T09:19:06Z</time>
      </trkpt>
      <trkpt lat="47.76896" lon="-3.56474">
        <ele>18</ele>
        <time>2018-07-18T09:19:07Z</time>
      </trkpt>
      <trkpt lat="47.76896" lon="-3.5648">
        <ele>18</ele>
        <time>2018-07-18T09:19:08Z</time>
      </trkpt>
      <trkpt lat="47.76895" lon="-3.56487">
        <ele>18</ele>
        <time>2018-07-18T09:19:09Z</time>
      </trkpt>
      <trkpt lat="47.76894" lon="-3.56493">
        <ele>18</ele>
        <time>2018-07-18T09:19:10Z</time>
      </trkpt>
      <trkpt lat="47.76893" lon="-3.56499">
        <ele>18</ele>
        <time>2018-07-18T09:19:11Z</time>
      </trkpt>
      <trkpt lat="47.76892" lon="-3.56504">
        <ele>18</ele>
        <time>2018-07-18T09:19:12Z</time>
      </trkpt>
      <trkpt lat="47.76891" lon="-3.56511">
        <ele>18</ele>
        <time>2018-07-18T09:19:13Z</time>
      </trkpt>
      <trkpt lat="47.76891" lon="-3.56518">
        <ele>18</ele>
        <time>2018-07-18T09:19:14Z</time>
      </trkpt>
      <trkpt lat="47.76891" lon="-3.56524">
        <ele>18</ele>
        <time>2018-07-18T09:19:15Z</time>
      </trkpt>
      <trkpt lat="47.76891" lon="-3.5653">
        <ele>18</ele>
        <time>2018-07-18T09:19:16Z</time>
      </trkpt>
      <trkpt lat="47.76891" lon="-3.56537">
        <ele>18</ele>
        <time>2018-07-18T09:19:17Z</time>
      </trkpt>
      <trkpt lat="47.76891" lon="-3.56544">
        <ele>18</ele>
        <time>2018-07-18T09:19:18Z</time>
      </trkpt>
      <trkpt lat="47.76891" lon="-3.56551">
        <ele>18</ele>
        <time>2018-07-18T09:19:19Z</time>
      </trkpt>
      <trkpt lat="47.7689" lon="-3.56558">
        <ele>18</ele>
        <time>2018-07-18T09:19:20Z</time>
      </trkpt>
      <trkpt lat="47.76891" lon="-3.56566">
        <ele>18</ele>
        <time>2018-07-18T09:19:21Z</time>
      </trkpt>
      <trkpt lat="47.76892" lon="-3.56574">
        <ele>17</ele>
        <time>2018-07-18T09:19:22Z</time>
      </trkpt>
      <trkpt lat="47.76895" lon="-3.56581">
        <ele>17</ele>
        <time>2018-07-18T09:19:23Z</time>
      </trkpt>
      <trkpt lat="47.76898" lon="-3.56588">
        <ele>16</ele>
        <time>2018-07-18T09:19:24Z</time>
      </trkpt>
      <trkpt lat="47.769" lon="-3.56596">
        <ele>16</ele>
        <time>2018-07-18T09:19:25Z</time>
      </trkpt>
      <trkpt lat="47.76901" lon="-3.56604">
        <ele>16</ele>
        <time>2018-07-18T09:19:26Z</time>
      </trkpt>
      <trkpt lat="47.76902" lon="-3.56613">
        <ele>15</ele>
        <time>2018-07-18T09:19:27Z</time>
      </trkpt>
      <trkpt lat="47.76902" lon="-3.56621">
        <ele>15</ele>
        <time>2018-07-18T09:19:28Z</time>
      </trkpt>
      <trkpt lat="47.769" lon="-3.56629">
        <ele>15</ele>
        <time>2018-07-18T09:19:29Z</time>
      </trkpt>
      <trkpt lat="47.76899" lon="-3.56637">
        <ele>14</ele>
        <time>2018-07-18T09:19:30Z</time>
      </trkpt>
      <trkpt lat="47.76899" lon="-3.56646">
        <ele>14</ele>
        <time>2018-07-18T09:19:31Z</time>
      </trkpt>
      <trkpt lat="47.76898" lon="-3.56656">
        <ele>14</ele>
        <time>2018-07-18T09:19:32Z</time>
      </trkpt>
      <trkpt lat="47.76898" lon="-3.56664">
        <ele>13</ele>
        <time>2018-07-18T09:19:33Z</time>
      </trkpt>
      <trkpt lat="47.76898" lon="-3.56672">
        <ele>13</ele>
        <time>2018-07-18T09:19:34Z</time>
      </trkpt>
      <trkpt lat="47.769" lon="-3.56677">
        <ele>13</ele>
        <time>2018-07-18T09:19:35Z</time>
      </trkpt>
      <trkpt lat="47.76903" lon="-3.56682">
        <ele>13</ele>
        <time>2018-07-18T09:19:36Z</time>
      </trkpt>
      <trkpt lat="47.76904" lon="-3.56686">
        <ele>13</ele>
        <time>2018-07-18T09:19:37Z</time>
      </trkpt>
      <trkpt lat="47.76906" lon="-3.56692">
        <ele>12</ele>
        <time>2018-07-18T09:19:38Z</time>
      </trkpt>
      <trkpt lat="47.76909" lon="-3.56698">
        <ele>12</ele>
        <time>2018-07-18T09:19:39Z</time>
      </trkpt>
      <trkpt lat="47.76912" lon="-3.56705">
        <ele>11</ele>
        <time>2018-07-18T09:19:40Z</time>
      </trkpt>
      <trkpt lat="47.76914" lon="-3.56712">
        <ele>11</ele>
        <time>2018-07-18T09:19:41Z</time>
      </trkpt>
      <trkpt lat="47.76914" lon="-3.56719">
        <ele>11</ele>
        <time>2018-07-18T09:19:42Z</time>
      </trkpt>
      <trkpt lat="47.76915" lon="-3.56726">
        <ele>10</ele>
        <time>2018-07-18T09:19:43Z</time>
      </trkpt>
      <trkpt lat="47.76916" lon="-3.56733">
        <ele>10</ele>
        <time>2018-07-18T09:19:44Z</time>
      </trkpt>
      <trkpt lat="47.76918" lon="-3.56739">
        <ele>10</ele>
        <time>2018-07-18T09:19:45Z</time>
      </trkpt>
      <trkpt lat="47.76921" lon="-3.56743">
        <ele>10</ele>
        <time>2018-07-18T09:19:46Z</time>
      </trkpt>
      <trkpt lat="47.76924" lon="-3.56745">
        <ele>10</ele>
        <time>2018-07-18T09:19:47Z</time>
      </trkpt>
      <trkpt lat="47.76927" lon="-3.56748">
        <ele>10</ele>
        <time>2018-07-18T09:19:48Z</time>
      </trkpt>
      <trkpt lat="47.76928" lon="-3.56751">
        <ele>11</ele>
        <time>2018-07-18T09:19:49Z</time>
      </trkpt>
      <trkpt lat="47.76929" lon="-3.56755">
        <ele>11</ele>
        <time>2018-07-18T09:19:50Z</time>
      </trkpt>
      <trkpt lat="47.76929" lon="-3.56758">
        <ele>11</ele>
        <time>2018-07-18T09:19:51Z</time>
      </trkpt>
      <trkpt lat="47.76929" lon="-3.56761">
        <ele>11</ele>
        <time>2018-07-18T09:19:52Z</time>
      </trkpt>
      <trkpt lat="47.7693" lon="-3.56765">
        <ele>11</ele>
        <time>2018-07-18T09:19:53Z</time>
      </trkpt>
      <trkpt lat="47.7693" lon="-3.56768">
        <ele>11</ele>
        <time>2018-07-18T09:19:54Z</time>
      </trkpt>
      <trkpt lat="47.7693" lon="-3.56772">
        <ele>12</ele>
        <time>2018-07-18T09:19:55Z</time>
      </trkpt>
      <trkpt lat="47.76931" lon="-3.56775">
        <ele>12</ele>
        <time>2018-07-18T09:19:56Z</time>
      </trkpt>
      <trkpt lat="47.76931" lon="-3.56778">
        <ele>12</ele>
        <time>2018-07-18T09:19:57Z</time>
      </trkpt>
      <trkpt lat="47.76931" lon="-3.56782">
        <ele>12</ele>
        <time>2018-07-18T09:19:58Z</time>
      </trkpt>
      <trkpt lat="47.76929" lon="-3.56787">
        <ele>12</ele>
        <time>2018-07-18T09:19:59Z</time>
      </trkpt>
      <trkpt lat="47.76928" lon="-3.56792">
        <ele>12</ele>
        <time>2018-07-18T09:20:00Z</time>
      </trkpt>
      <trkpt lat="47.76927" lon="-3.56797">
        <ele>12</ele>
        <time>2018-07-18T09:20:01Z</time>
      </trkpt>
      <trkpt lat="47.76925" lon="-3.56802">
        <ele>12</ele>
        <time>2018-07-18T09:20:02Z</time>
      </trkpt>
      <trkpt lat="47.76924" lon="-3.56806">
        <ele>12</ele>
        <time>2018-07-18T09:20:03Z</time>
      </trkpt>
      <trkpt lat="47.76923" lon="-3.56811">
        <ele>12</ele>
        <time>2018-07-18T09:20:04Z</time>
      </trkpt>
      <trkpt lat="47.76921" lon="-3.56814">
        <ele>12</ele>
        <time>2018-07-18T09:20:05Z</time>
      </trkpt>
      <trkpt lat="47.76918" lon="-3.56817">
        <ele>12</ele>
        <time>2018-07-18T09:20:06Z</time>
      </trkpt>
      <trkpt lat="47.76914" lon="-3.56819">
        <ele>12</ele>
        <time>2018-07-18T09:20:07Z</time>
      </trkpt>
      <trkpt lat="47.7691" lon="-3.56821">
        <ele>12</ele>
        <time>2018-07-18T09:20:08Z</time>
      </trkpt>
      <trkpt lat="47.76907" lon="-3.56824">
        <ele>12</ele>
        <time>2018-07-18T09:20:09Z</time>
      </trkpt>
      <trkpt lat="47.76903" lon="-3.56827">
        <ele>12</ele>
        <time>2018-07-18T09:20:10Z</time>
      </trkpt>
      <trkpt lat="47.769" lon="-3.56831">
        <ele>12</ele>
        <time>2018-07-18T09:20:11Z</time>
      </trkpt>
      <trkpt lat="47.76896" lon="-3.56835">
        <ele>12</ele>
        <time>2018-07-18T09:20:12Z</time>
      </trkpt>
      <trkpt lat="47.76893" lon="-3.56839">
        <ele>12</ele>
        <time>2018-07-18T09:20:13Z</time>
      </trkpt>
      <trkpt lat="47.7689" lon="-3.56844">
        <ele>12</ele>
        <time>2018-07-18T09:20:14Z</time>
      </trkpt>
      <trkpt lat="47.76889" lon="-3.5685">
        <ele>12</ele>
        <time>2018-07-18T09:20:15Z</time>
      </trkpt>
      <trkpt lat="47.76888" lon="-3.56857">
        <ele>12</ele>
        <time>2018-07-18T09:20:16Z</time>
      </trkpt>
      <trkpt lat="47.76887" lon="-3.56863">
        <ele>11</ele>
        <time>2018-07-18T09:20:17Z</time>
      </trkpt>
      <trkpt lat="47.76886" lon="-3.56869">
        <ele>12</ele>
        <time>2018-07-18T09:20:18Z</time>
      </trkpt>
      <trkpt lat="47.76886" lon="-3.56876">
        <ele>12</ele>
        <time>2018-07-18T09:20:19Z</time>
      </trkpt>
      <trkpt lat="47.76887" lon="-3.56881">
        <ele>12</ele>
        <time>2018-07-18T09:20:20Z</time>
      </trkpt>
      <trkpt lat="47.76888" lon="-3.56887">
        <ele>12</ele>
        <time>2018-07-18T09:20:21Z</time>
      </trkpt>
      <trkpt lat="47.7689" lon="-3.56891">
        <ele>12</ele>
        <time>2018-07-18T09:20:22Z</time>
      </trkpt>
      <trkpt lat="47.76892" lon="-3.56896">
        <ele>13</ele>
        <time>2018-07-18T09:20:23Z</time>
      </trkpt>
      <trkpt lat="47.76894" lon="-3.569">
        <ele>13</ele>
        <time>2018-07-18T09:20:24Z</time>
      </trkpt>
      <trkpt lat="47.76897" lon="-3.56902">
        <ele>13</ele>
        <time>2018-07-18T09:20:25Z</time>
      </trkpt>
      <trkpt lat="47.76899" lon="-3.56905">
        <ele>14</ele>
        <time>2018-07-18T09:20:26Z</time>
      </trkpt>
      <trkpt lat="47.769" lon="-3.56907">
        <ele>14</ele>
        <time>2018-07-18T09:20:27Z</time>
      </trkpt>
      <trkpt lat="47.76903" lon="-3.56909">
        <ele>14</ele>
        <time>2018-07-18T09:20:28Z</time>
      </trkpt>
      <trkpt lat="47.76905" lon="-3.56911">
        <ele>14</ele>
        <time>2018-07-18T09:20:29Z</time>
      </trkpt>
      <trkpt lat="47.76907" lon="-3.56914">
        <ele>14</ele>
        <time>2018-07-18T09:20:30Z</time>
      </trkpt>
      <trkpt lat="47.76909" lon="-3.56918">
        <ele>15</ele>
        <time>2018-07-18T09:20:31Z</time>
      </trkpt>
      <trkpt lat="47.76911" lon="-3.56921">
        <ele>15</ele>
        <time>2018-07-18T09:20:32Z</time>
      </trkpt>
      <trkpt lat="47.76913" lon="-3.56925">
        <ele>15</ele>
        <time>2018-07-18T09:20:33Z</time>
      </trkpt>
      <trkpt lat="47.76915" lon="-3.56928">
        <ele>15</ele>
        <time>2018-07-18T09:20:34Z</time>
      </trkpt>
      <trkpt lat="47.76916" lon="-3.56931">
        <ele>16</ele>
        <time>2018-07-18T09:20:35Z</time>
      </trkpt>
      <trkpt lat="47.76918" lon="-3.56934">
        <ele>16</ele>
        <time>2018-07-18T09:20:36Z</time>
      </trkpt>
      <trkpt lat="47.76919" lon="-3.56936">
        <ele>16</ele>
        <time>2018-07-18T09:20:37Z</time>
      </trkpt>
      <trkpt lat="47.76921" lon="-3.56939">
        <ele>17</ele>
        <time>2018-07-18T09:20:38Z</time>
      </trkpt>
      <trkpt lat="47.76922" lon="-3.56942">
        <ele>17</ele>
        <time>2018-07-18T09:20:39Z</time>
      </trkpt>
      <trkpt lat="47.76923" lon="-3.56945">
        <ele>17</ele>
        <time>2018-07-18T09:20:40Z</time>
      </trkpt>
      <trkpt lat="47.76923" lon="-3.56948">
        <ele>17</ele>
        <time>2018-07-18T09:20:41Z</time>
      </trkpt>
      <trkpt lat="47.76924" lon="-3.56951">
        <ele>17</ele>
        <time>2018-07-18T09:20:42Z</time>
      </trkpt>
      <trkpt lat="47.76925" lon="-3.56955">
        <ele>17</ele>
        <time>2018-07-18T09:20:43Z</time>
      </trkpt>
      <trkpt lat="47.76926" lon="-3.56959">
        <ele>18</ele>
        <time>2018-07-18T09:20:44Z</time>
      </trkpt>
      <trkpt lat="47.76927" lon="-3.56964">
        <ele>18</ele>
        <time>2018-07-18T09:20:45Z</time>
      </trkpt>
      <trkpt lat="47.76928" lon="-3.56968">
        <ele>18</ele>
        <time>2018-07-18T09:20:46Z</time>
      </trkpt>
      <trkpt lat="47.76928" lon="-3.56973">
        <ele>18</ele>
        <time>2018-07-18T09:20:47Z</time>
      </trkpt>
      <trkpt lat="47.76929" lon="-3.56977">
        <ele>18</ele>
        <time>2018-07-18T09:20:48Z</time>
      </trkpt>
      <trkpt lat="47.7693" lon="-3.56981">
        <ele>18</ele>
        <time>2018-07-18T09:20:49Z</time>
      </trkpt>
      <trkpt lat="47.7693" lon="-3.56985">
        <ele>18</ele>
        <time>2018-07-18T09:20:50Z</time>
      </trkpt>
      <trkpt lat="47.76931" lon="-3.56989">
        <ele>18</ele>
        <time>2018-07-18T09:20:51Z</time>
      </trkpt>
      <trkpt lat="47.76932" lon="-3.56993">
        <ele>18</ele>
        <time>2018-07-18T09:20:52Z</time>
      </trkpt>
      <trkpt lat="47.76933" lon="-3.56996">
        <ele>19</ele>
        <time>2018-07-18T09:20:53Z</time>
      </trkpt>
      <trkpt lat="47.76934" lon="-3.56998">
        <ele>19</ele>
        <time>2018-07-18T09:20:54Z</time>
      </trkpt>
      <trkpt lat="47.76936" lon="-3.57001">
        <ele>19</ele>
        <time>2018-07-18T09:20:55Z</time>
      </trkpt>
      <trkpt lat="47.76937" lon="-3.57004">
        <ele>19</ele>
        <time>2018-07-18T09:20:56Z</time>
      </trkpt>
      <trkpt lat="47.76939" lon="-3.57006">
        <ele>19</ele>
        <time>2018-07-18T09:20:57Z</time>
      </trkpt>
      <trkpt lat="47.7694" lon="-3.57009">
        <ele>20</ele>
        <time>2018-07-18T09:20:58Z</time>
      </trkpt>
      <trkpt lat="47.76941" lon="-3.57011">
        <ele>20</ele>
        <time>2018-07-18T09:20:59Z</time>
      </trkpt>
      <trkpt lat="47.76942" lon="-3.57014">
        <ele>20</ele>
        <time>2018-07-18T09:21:00Z</time>
      </trkpt>
      <trkpt lat="47.76943" lon="-3.57017">
        <ele>20</ele>
        <time>2018-07-18T09:21:01Z</time>
      </trkpt>
      <trkpt lat="47.76943" lon="-3.57018">
        <ele>20</ele>
        <time>2018-07-18T09:21:02Z</time>
      </trkpt>
      <trkpt lat="47.76944" lon="-3.57021">
        <ele>20</ele>
        <time>2018-07-18T09:21:03Z</time>
      </trkpt>
      <trkpt lat="47.76944" lon="-3.57023">
        <ele>20</ele>
        <time>2018-07-18T09:21:04Z</time>
      </trkpt>
      <trkpt lat="47.76945" lon="-3.57025">
        <ele>20</ele>
        <time>2018-07-18T09:21:05Z</time>
      </trkpt>
      <trkpt lat="47.76946" lon="-3.57027">
        <ele>21</ele>
        <time>2018-07-18T09:21:06Z</time>
      </trkpt>
      <trkpt lat="47.76947" lon="-3.57029">
        <ele>21</ele>
        <time>2018-07-18T09:21:07Z</time>
      </trkpt>
      <trkpt lat="47.76948" lon="-3.57031">
        <ele>21</ele>
        <time>2018-07-18T09:21:08Z</time>
      </trkpt>
      <trkpt lat="47.76948" lon="-3.57033">
        <ele>21</ele>
        <time>2018-07-18T09:21:09Z</time>
      </trkpt>
      <trkpt lat="47.76949" lon="-3.57035">
        <ele>21</ele>
        <time>2018-07-18T09:21:10Z</time>
      </trkpt>
      <trkpt lat="47.76949" lon="-3.57037">
        <ele>21</ele>
        <time>2018-07-18T09:21:11Z</time>
      </trkpt>
      <trkpt lat="47.7695" lon="-3.57038">
        <ele>22</ele>
        <time>2018-07-18T09:21:12Z</time>
      </trkpt>
      <trkpt lat="47.76951" lon="-3.5704">
        <ele>22</ele>
        <time>2018-07-18T09:21:13Z</time>
      </trkpt>
      <trkpt lat="47.76951" lon="-3.57042">
        <ele>22</ele>
        <time>2018-07-18T09:21:14Z</time>
      </trkpt>
      <trkpt lat="47.76951" lon="-3.57044">
        <ele>22</ele>
        <time>2018-07-18T09:21:15Z</time>
      </trkpt>
      <trkpt lat="47.76951" lon="-3.57045">
        <ele>22</ele>
        <time>2018-07-18T09:21:16Z</time>
      </trkpt>
      <trkpt lat="47.76952" lon="-3.57047">
        <ele>22</ele>
        <time>2018-07-18T09:21:17Z</time>
      </trkpt>
      <trkpt lat="47.76952" lon="-3.57048">
        <ele>22</ele>
        <time>2018-07-18T09:21:18Z</time>
      </trkpt>
      <trkpt lat="47.76953" lon="-3.57051">
        <ele>22</ele>
        <time>2018-07-18T09:21:19Z</time>
      </trkpt>
      <trkpt lat="47.76953" lon="-3.57053">
        <ele>23</ele>
        <time>2018-07-18T09:21:20Z</time>
      </trkpt>
      <trkpt lat="47.76953" lon="-3.57057">
        <ele>23</ele>
        <time>2018-07-18T09:21:21Z</time>
      </trkpt>
      <trkpt lat="47.76953" lon="-3.57061">
        <ele>23</ele>
        <time>2018-07-18T09:21:22Z</time>
      </trkpt>
      <trkpt lat="47.76953" lon="-3.57064">
        <ele>23</ele>
        <time>2018-07-18T09:21:23Z</time>
      </trkpt>
      <trkpt lat="47.76953" lon="-3.57068">
        <ele>23</ele>
        <time>2018-07-18T09:21:24Z</time>
      </trkpt>
      <trkpt lat="47.76954" lon="-3.57073">
        <ele>23</ele>
        <time>2018-07-18T09:21:25Z</time>
      </trkpt>
      <trkpt lat="47.76954" lon="-3.57077">
        <ele>23</ele>
        <time>2018-07-18T09:21:26Z</time>
      </trkpt>
      <trkpt lat="47.76954" lon="-3.57082">
        <ele>23</ele>
        <time>2018-07-18T09:21:27Z</time>
      </trkpt>
      <trkpt lat="47.76954" lon="-3.57087">
        <ele>23</ele>
        <time>2018-07-18T09:21:28Z</time>
      </trkpt>
      <trkpt lat="47.76954" lon="-3.57091">
        <ele>23</ele>
        <time>2018-07-18T09:21:29Z</time>
      </trkpt>
      <trkpt lat="47.76954" lon="-3.57096">
        <ele>23</ele>
        <time>2018-07-18T09:21:30Z</time>
      </trkpt>
      <trkpt lat="47.76955" lon="-3.571">
        <ele>23</ele>
        <time>2018-07-18T09:21:31Z</time>
      </trkpt>
      <trkpt lat="47.76955" lon="-3.57105">
        <ele>23</ele>
        <time>2018-07-18T09:21:32Z</time>
      </trkpt>
      <trkpt lat="47.76955" lon="-3.5711">
        <ele>23</ele>
        <time>2018-07-18T09:21:33Z</time>
      </trkpt>
      <trkpt lat="47.76955" lon="-3.57115">
        <ele>23</ele>
        <time>2018-07-18T09:21:34Z</time>
      </trkpt>
      <trkpt lat="47.76954" lon="-3.57121">
        <ele>22</ele>
        <time>2018-07-18T09:21:35Z</time>
      </trkpt>
      <trkpt lat="47.76952" lon="-3.57127">
        <ele>22</ele>
        <time>2018-07-18T09:21:36Z</time>
      </trkpt>
      <trkpt lat="47.76952" lon="-3.57133">
        <ele>22</ele>
        <time>2018-07-18T09:21:37Z</time>
      </trkpt>
      <trkpt lat="47.76952" lon="-3.5714">
        <ele>22</ele>
        <time>2018-07-18T09:21:38Z</time>
      </trkpt>
      <trkpt lat="47.76953" lon="-3.57146">
        <ele>21</ele>
        <time>2018-07-18T09:21:39Z</time>
      </trkpt>
      <trkpt lat="47.76955" lon="-3.57152">
        <ele>21</ele>
        <time>2018-07-18T09:21:40Z</time>
      </trkpt>
      <trkpt lat="47.76955" lon="-3.57158">
        <ele>21</ele>
        <time>2018-07-18T09:21:41Z</time>
      </trkpt>
      <trkpt lat="47.76955" lon="-3.57164">
        <ele>21</ele>
        <time>2018-07-18T09:21:42Z</time>
      </trkpt>
      <trkpt lat="47.76955" lon="-3.57171">
        <ele>21</ele>
        <time>2018-07-18T09:21:43Z</time>
      </trkpt>
      <trkpt lat="47.76956" lon="-3.57178">
        <ele>21</ele>
        <time>2018-07-18T09:21:44Z</time>
      </trkpt>
      <trkpt lat="47.76958" lon="-3.57185">
        <ele>20</ele>
        <time>2018-07-18T09:21:45Z</time>
      </trkpt>
      <trkpt lat="47.7696" lon="-3.57191">
        <ele>20</ele>
        <time>2018-07-18T09:21:46Z</time>
      </trkpt>
      <trkpt lat="47.76963" lon="-3.57198">
        <ele>19</ele>
        <time>2018-07-18T09:21:47Z</time>
      </trkpt>
      <trkpt lat="47.76965" lon="-3.57205">
        <ele>19</ele>
        <time>2018-07-18T09:21:48Z</time>
      </trkpt>
      <trkpt lat="47.76968" lon="-3.57212">
        <ele>18</ele>
        <time>2018-07-18T09:21:49Z</time>
      </trkpt>
      <trkpt lat="47.7697" lon="-3.57218">
        <ele>18</ele>
        <time>2018-07-18T09:21:50Z</time>
      </trkpt>
      <trkpt lat="47.76971" lon="-3.57223">
        <ele>18</ele>
        <time>2018-07-18T09:21:51Z</time>
      </trkpt>
      <trkpt lat="47.76972" lon="-3.57228">
        <ele>17</ele>
        <time>2018-07-18T09:21:52Z</time>
      </trkpt>
      <trkpt lat="47.76973" lon="-3.57234">
        <ele>17</ele>
        <time>2018-07-18T09:21:53Z</time>
      </trkpt>
      <trkpt lat="47.76975" lon="-3.5724">
        <ele>17</ele>
        <time>2018-07-18T09:21:54Z</time>
      </trkpt>
      <trkpt lat="47.76977" lon="-3.57245">
        <ele>16</ele>
        <time>2018-07-18T09:21:55Z</time>
      </trkpt>
      <trkpt lat="47.7698" lon="-3.5725">
        <ele>15</ele>
        <time>2018-07-18T09:21:56Z</time>
      </trkpt>
      <trkpt lat="47.76982" lon="-3.57256">
        <ele>15</ele>
        <time>2018-07-18T09:21:57Z</time>
      </trkpt>
      <trkpt lat="47.76984" lon="-3.57261">
        <ele>14</ele>
        <time>2018-07-18T09:21:58Z</time>
      </trkpt>
      <trkpt lat="47.76985" lon="-3.57265">
        <ele>14</ele>
        <time>2018-07-18T09:21:59Z</time>
      </trkpt>
      <trkpt lat="47.76986" lon="-3.57269">
        <ele>13</ele>
        <time>2018-07-18T09:22:00Z</time>
      </trkpt>
      <trkpt lat="47.76987" lon="-3.57273">
        <ele>13</ele>
        <time>2018-07-18T09:22:01Z</time>
      </trkpt>
      <trkpt lat="47.76989" lon="-3.57276">
        <ele>13</ele>
        <time>2018-07-18T09:22:02Z</time>
      </trkpt>
      <trkpt lat="47.76992" lon="-3.57279">
        <ele>12</ele>
        <time>2018-07-18T09:22:03Z</time>
      </trkpt>
      <trkpt lat="47.76994" lon="-3.57283">
        <ele>12</ele>
        <time>2018-07-18T09:22:04Z</time>
      </trkpt>
      <trkpt lat="47.76997" lon="-3.57287">
        <ele>12</ele>
        <time>2018-07-18T09:22:05Z</time>
      </trkpt>
      <trkpt lat="47.76999" lon="-3.5729">
        <ele>11</ele>
        <time>2018-07-18T09:22:06Z</time>
      </trkpt>
      <trkpt lat="47.77" lon="-3.57292">
        <ele>11</ele>
        <time>2018-07-18T09:22:07Z</time>
      </trkpt>
      <trkpt lat="47.77" lon="-3.57293">
        <ele>11</ele>
        <time>2018-07-18T09:22:08Z</time>
      </trkpt>
      <trkpt lat="47.77" lon="-3.57293">
        <ele>11</ele>
        <time>2018-07-18T09:22:09Z</time>
      </trkpt>
      <trkpt lat="47.77" lon="-3.57293">
        <ele>10</ele>
        <time>2018-07-18T09:22:10Z</time>
      </trkpt>
      <trkpt lat="47.77" lon="-3.57293">
        <ele>10</ele>
        <time>2018-07-18T09:22:11Z</time>
      </trkpt>
      <trkpt lat="47.77001" lon="-3.57293">
        <ele>9</ele>
        <time>2018-07-18T09:22:12Z</time>
      </trkpt>
      <trkpt lat="47.77002" lon="-3.57295">
        <ele>9</ele>
        <time>2018-07-18T09:22:13Z</time>
      </trkpt>
      <trkpt lat="47.77003" lon="-3.57298">
        <ele>8</ele>
        <time>2018-07-18T09:22:14Z</time>
      </trkpt>
      <trkpt lat="47.77005" lon="-3.57302">
        <ele>8</ele>
        <time>2018-07-18T09:22:15Z</time>
      </trkpt>
      <trkpt lat="47.77008" lon="-3.57305">
        <ele>8</ele>
        <time>2018-07-18T09:22:16Z</time>
      </trkpt>
      <trkpt lat="47.7701" lon="-3.57308">
        <ele>7</ele>
        <time>2018-07-18T09:22:17Z</time>
      </trkpt>
      <trkpt lat="47.77012" lon="-3.57311">
        <ele>7</ele>
        <time>2018-07-18T09:22:18Z</time>
      </trkpt>
      <trkpt lat="47.77014" lon="-3.57314">
        <ele>7</ele>
        <time>2018-07-18T09:22:19Z</time>
      </trkpt>
      <trkpt lat="47.77015" lon="-3.57315">
        <ele>7</ele>
        <time>2018-07-18T09:22:20Z</time>
      </trkpt>
      <trkpt lat="47.77016" lon="-3.57316">
        <ele>7</ele>
        <time>2018-07-18T09:22:21Z</time>
      </trkpt>
      <trkpt lat="47.77017" lon="-3.57317">
        <ele>7</ele>
        <time>2018-07-18T09:22:22Z</time>
      </trkpt>
      <trkpt lat="47.77018" lon="-3.57319">
        <ele>7</ele>
        <time>2018-07-18T09:22:23Z</time>
      </trkpt>
      <trkpt lat="47.7702" lon="-3.57321">
        <ele>6</ele>
        <time>2018-07-18T09:22:24Z</time>
      </trkpt>
      <trkpt lat="47.77021" lon="-3.57324">
        <ele>6</ele>
        <time>2018-07-18T09:22:25Z</time>
      </trkpt>
      <trkpt lat="47.77022" lon="-3.57328">
        <ele>6</ele>
        <time>2018-07-18T09:22:26Z</time>
      </trkpt>
      <trkpt lat="47.77023" lon="-3.57331">
        <ele>6</ele>
        <time>2018-07-18T09:22:27Z</time>
      </trkpt>
      <trkpt lat="47.77023" lon="-3.57334">
        <ele>6</ele>
        <time>2018-07-18T09:22:28Z</time>
      </trkpt>
      <trkpt lat="47.77023" lon="-3.57336">
        <ele>6</ele>
        <time>2018-07-18T09:22:29Z</time>
      </trkpt>
      <trkpt lat="47.77021" lon="-3.57339">
        <ele>6</ele>
        <time>2018-07-18T09:22:30Z</time>
      </trkpt>
      <trkpt lat="47.7702" lon="-3.57341">
        <ele>6</ele>
        <time>2018-07-18T09:22:31Z</time>
      </trkpt>
      <trkpt lat="47.77018" lon="-3.57343">
        <ele>6</ele>
        <time>2018-07-18T09:22:32Z</time>
      </trkpt>
      <trkpt lat="47.77016" lon="-3.57343">
        <ele>6</ele>
        <time>2018-07-18T09:22:33Z</time>
      </trkpt>
      <trkpt lat="47.77014" lon="-3.57345">
        <ele>6</ele>
        <time>2018-07-18T09:22:34Z</time>
      </trkpt>
      <trkpt lat="47.77013" lon="-3.57346">
        <ele>6</ele>
        <time>2018-07-18T09:22:35Z</time>
      </trkpt>
      <trkpt lat="47.77011" lon="-3.57347">
        <ele>6</ele>
        <time>2018-07-18T09:22:36Z</time>
      </trkpt>
      <trkpt lat="47.77009" lon="-3.57348">
        <ele>6</ele>
        <time>2018-07-18T09:22:37Z</time>
      </trkpt>
      <trkpt lat="47.77007" lon="-3.5735">
        <ele>6</ele>
        <time>2018-07-18T09:22:38Z</time>
      </trkpt>
      <trkpt lat="47.77006" lon="-3.57351">
        <ele>6</ele>
        <time>2018-07-18T09:22:39Z</time>
      </trkpt>
      <trkpt lat="47.77004" lon="-3.57353">
        <ele>6</ele>
        <time>2018-07-18T09:22:40Z</time>
      </trkpt>
      <trkpt lat="47.77002" lon="-3.57354">
        <ele>6</ele>
        <time>2018-07-18T09:22:41Z</time>
      </trkpt>
      <trkpt lat="47.77" lon="-3.57356">
        <ele>6</ele>
        <time>2018-07-18T09:22:42Z</time>
      </trkpt>
      <trkpt lat="47.76998" lon="-3.57357">
        <ele>6</ele>
        <time>2018-07-18T09:22:43Z</time>
      </trkpt>
      <trkpt lat="47.76996" lon="-3.57358">
        <ele>6</ele>
        <time>2018-07-18T09:22:44Z</time>
      </trkpt>
      <trkpt lat="47.76994" lon="-3.57359">
        <ele>6</ele>
        <time>2018-07-18T09:22:45Z</time>
      </trkpt>
      <trkpt lat="47.76992" lon="-3.57359">
        <ele>6</ele>
        <time>2018-07-18T09:22:46Z</time>
      </trkpt>
      <trkpt lat="47.7699" lon="-3.5736">
        <ele>6</ele>
        <time>2018-07-18T09:22:47Z</time>
      </trkpt>
      <trkpt lat="47.76988" lon="-3.57361">
        <ele>6</ele>
        <time>2018-07-18T09:22:48Z</time>
      </trkpt>
      <trkpt lat="47.76987" lon="-3.57362">
        <ele>6</ele>
        <time>2018-07-18T09:22:49Z</time>
      </trkpt>
      <trkpt lat="47.76987" lon="-3.57364">
        <ele>7</ele>
        <time>2018-07-18T09:22:50Z</time>
      </trkpt>
      <trkpt lat="47.76988" lon="-3.57365">
        <ele>7</ele>
        <time>2018-07-18T09:22:51Z</time>
      </trkpt>
      <trkpt lat="47.7699" lon="-3.57365">
        <ele>7</ele>
        <time>2018-07-18T09:22:52Z</time>
      </trkpt>
      <trkpt lat="47.76992" lon="-3.57365">
        <ele>7</ele>
        <time>2018-07-18T09:22:53Z</time>
      </trkpt>
      <trkpt lat="47.76994" lon="-3.57366">
        <ele>7</ele>
        <time>2018-07-18T09:22:54Z</time>
      </trkpt>
      <trkpt lat="47.76996" lon="-3.57366">
        <ele>7</ele>
        <time>2018-07-18T09:22:55Z</time>
      </trkpt>
      <trkpt lat="47.76998" lon="-3.57366">
        <ele>7</ele>
        <time>2018-07-18T09:22:56Z</time>
      </trkpt>
      <trkpt lat="47.77" lon="-3.57366">
        <ele>7</ele>
        <time>2018-07-18T09:22:57Z</time>
      </trkpt>
      <trkpt lat="47.77002" lon="-3.57366">
        <ele>7</ele>
        <time>2018-07-18T09:22:58Z</time>
      </trkpt>
      <trkpt lat="47.77004" lon="-3.57366">
        <ele>7</ele>
        <time>2018-07-18T09:22:59Z</time>
      </trkpt>
      <trkpt lat="47.77006" lon="-3.57366">
        <ele>7</ele>
        <time>2018-07-18T09:23:00Z</time>
      </trkpt>
      <trkpt lat="47.77008" lon="-3.57367">
        <ele>8</ele>
        <time>2018-07-18T09:23:01Z</time>
      </trkpt>
      <trkpt lat="47.7701" lon="-3.57367">
        <ele>8</ele>
        <time>2018-07-18T09:23:02Z</time>
      </trkpt>
      <trkpt lat="47.77011" lon="-3.57367">
        <ele>8</ele>
        <time>2018-07-18T09:23:03Z</time>
      </trkpt>
      <trkpt lat="47.77013" lon="-3.57367">
        <ele>8</ele>
        <time>2018-07-18T09:23:04Z</time>
      </trkpt>
      <trkpt lat="47.77015" lon="-3.57367">
        <ele>8</ele>
        <time>2018-07-18T09:23:05Z</time>
      </trkpt>
      <trkpt lat="47.77017" lon="-3.57367">
        <ele>9</ele>
        <time>2018-07-18T09:23:06Z</time>
      </trkpt>
      <trkpt lat="47.77018" lon="-3.57367">
        <ele>9</ele>
        <time>2018-07-18T09:23:07Z</time>
      </trkpt>
      <trkpt lat="47.7702" lon="-3.57367">
        <ele>9</ele>
        <time>2018-07-18T09:23:08Z</time>
      </trkpt>
      <trkpt lat="47.77021" lon="-3.57367">
        <ele>9</ele>
        <time>2018-07-18T09:23:09Z</time>
      </trkpt>
      <trkpt lat="47.77023" lon="-3.57367">
        <ele>9</ele>
        <time>2018-07-18T09:23:10Z</time>
      </trkpt>
      <trkpt lat="47.77025" lon="-3.57367">
        <ele>10</ele>
        <time>2018-07-18T09:23:11Z</time>
      </trkpt>
      <trkpt lat="47.77027" lon="-3.57367">
        <ele>10</ele>
        <time>2018-07-18T09:23:12Z</time>
      </trkpt>
      <trkpt lat="47.77028" lon="-3.57367">
        <ele>10</ele>
        <time>2018-07-18T09:23:13Z</time>
      </trkpt>
      <trkpt lat="47.77029" lon="-3.57368">
        <ele>10</ele>
        <time>2018-07-18T09:23:14Z</time>
      </trkpt>
      <trkpt lat="47.7703" lon="-3.57368">
        <ele>10</ele>
        <time>2018-07-18T09:23:15Z</time>
      </trkpt>
      <trkpt lat="47.77032" lon="-3.57368">
        <ele>10</ele>
        <time>2018-07-18T09:23:16Z</time>
      </trkpt>
      <trkpt lat="47.77034" lon="-3.57369">
        <ele>10</ele>
        <time>2018-07-18T09:23:17Z</time>
      </trkpt>
      <trkpt lat="47.77036" lon="-3.5737">
        <ele>11</ele>
        <time>2018-07-18T09:23:18Z</time>
      </trkpt>
      <trkpt lat="47.77038" lon="-3.57372">
        <ele>11</ele>
        <time>2018-07-18T09:23:19Z</time>
      </trkpt>
      <trkpt lat="47.77039" lon="-3.57373">
        <ele>11</ele>
        <time>2018-07-18T09:23:20Z</time>
      </trkpt>
      <trkpt lat="47.77041" lon="-3.57375">
        <ele>11</ele>
        <time>2018-07-18T09:23:21Z</time>
      </trkpt>
      <trkpt lat="47.77043" lon="-3.57376">
        <ele>11</ele>
        <time>2018-07-18T09:23:22Z</time>
      </trkpt>
      <trkpt lat="47.77044" lon="-3.57378">
        <ele>11</ele>
        <time>2018-07-18T09:23:23Z</time>
      </trkpt>
      <trkpt lat="47.77046" lon="-3.57379">
        <ele>12</ele>
        <time>2018-07-18T09:23:24Z</time>
      </trkpt>
      <trkpt lat="47.77047" lon="-3.5738">
        <ele>12</ele>
        <time>2018-07-18T09:23:25Z</time>
      </trkpt>
      <trkpt lat="47.77049" lon="-3.57381">
        <ele>12</ele>
        <time>2018-07-18T09:23:26Z</time>
      </trkpt>
      <trkpt lat="47.77051" lon="-3.57382">
        <ele>13</ele>
        <time>2018-07-18T09:23:27Z</time>
      </trkpt>
      <trkpt lat="47.77052" lon="-3.57383">
        <ele>13</ele>
        <time>2018-07-18T09:23:28Z</time>
      </trkpt>
      <trkpt lat="47.77054" lon="-3.57384">
        <ele>13</ele>
        <time>2018-07-18T09:23:29Z</time>
      </trkpt>
      <trkpt lat="47.77055" lon="-3.57385">
        <ele>13</ele>
        <time>2018-07-18T09:23:30Z</time>
      </trkpt>
      <trkpt lat="47.77056" lon="-3.57386">
        <ele>14</ele>
        <time>2018-07-18T09:23:31Z</time>
      </trkpt>
      <trkpt lat="47.77057" lon="-3.57387">
        <ele>14</ele>
        <time>2018-07-18T09:23:32Z</time>
      </trkpt>
      <trkpt lat="47.77059" lon="-3.57388">
        <ele>14</ele>
        <time>2018-07-18T09:23:33Z</time>
      </trkpt>
      <trkpt lat="47.7706" lon="-3.57389">
        <ele>15</ele>
        <time>2018-07-18T09:23:34Z</time>
      </trkpt>
      <trkpt lat="47.77061" lon="-3.5739">
        <ele>15</ele>
        <time>2018-07-18T09:23:35Z</time>
      </trkpt>
      <trkpt lat="47.77062" lon="-3.57391">
        <ele>15</ele>
        <time>2018-07-18T09:23:36Z</time>
      </trkpt>
      <trkpt lat="47.77063" lon="-3.57392">
        <ele>16</ele>
        <time>2018-07-18T09:23:37Z</time>
      </trkpt>
      <trkpt lat="47.77064" lon="-3.57393">
        <ele>16</ele>
        <time>2018-07-18T09:23:38Z</time>
      </trkpt>
      <trkpt lat="47.77066" lon="-3.57395">
        <ele>16</ele>
        <time>2018-07-18T09:23:39Z</time>
      </trkpt>
      <trkpt lat="47.77067" lon="-3.57396">
        <ele>16</ele>
        <time>2018-07-18T09:23:40Z</time>
      </trkpt>
      <trkpt lat="47.77068" lon="-3.57397">
        <ele>17</ele>
        <time>2018-07-18T09:23:41Z</time>
      </trkpt>
      <trkpt lat="47.77069" lon="-3.57398">
        <ele>17</ele>
        <time>2018-07-18T09:23:42Z</time>
      </trkpt>
      <trkpt lat="47.77071" lon="-3.574">
        <ele>17</ele>
        <time>2018-07-18T09:23:43Z</time>
      </trkpt>
      <trkpt lat="47.77072" lon="-3.57402">
        <ele>18</ele>
        <time>2018-07-18T09:23:44Z</time>
      </trkpt>
      <trkpt lat="47.77074" lon="-3.57403">
        <ele>18</ele>
        <time>2018-07-18T09:23:45Z</time>
      </trkpt>
      <trkpt lat="47.77076" lon="-3.57404">
        <ele>19</ele>
        <time>2018-07-18T09:23:46Z</time>
      </trkpt>
      <trkpt lat="47.77078" lon="-3.57406">
        <ele>19</ele>
        <time>2018-07-18T09:23:47Z</time>
      </trkpt>
      <trkpt lat="47.7708" lon="-3.57408">
        <ele>20</ele>
        <time>2018-07-18T09:23:48Z</time>
      </trkpt>
      <trkpt lat="47.77081" lon="-3.57409">
        <ele>20</ele>
        <time>2018-07-18T09:23:49Z</time>
      </trkpt>
      <trkpt lat="47.77083" lon="-3.5741">
        <ele>21</ele>
        <time>2018-07-18T09:23:50Z</time>
      </trkpt>
      <trkpt lat="47.77084" lon="-3.57412">
        <ele>21</ele>
        <time>2018-07-18T09:23:51Z</time>
      </trkpt>
      <trkpt lat="47.77086" lon="-3.57413">
        <ele>21</ele>
        <time>2018-07-18T09:23:52Z</time>
      </trkpt>
      <trkpt lat="47.77087" lon="-3.57414">
        <ele>21</ele>
        <time>2018-07-18T09:23:53Z</time>
      </trkpt>
      <trkpt lat="47.77089" lon="-3.57415">
        <ele>22</ele>
        <time>2018-07-18T09:23:54Z</time>
      </trkpt>
      <trkpt lat="47.7709" lon="-3.57416">
        <ele>22</ele>
        <time>2018-07-18T09:23:55Z</time>
      </trkpt>
      <trkpt lat="47.77092" lon="-3.57417">
        <ele>22</ele>
        <time>2018-07-18T09:23:56Z</time>
      </trkpt>
      <trkpt lat="47.77094" lon="-3.57418">
        <ele>23</ele>
        <time>2018-07-18T09:23:57Z</time>
      </trkpt>
      <trkpt lat="47.77096" lon="-3.57418">
        <ele>23</ele>
        <time>2018-07-18T09:23:58Z</time>
      </trkpt>
      <trkpt lat="47.77097" lon="-3.57419">
        <ele>23</ele>
        <time>2018-07-18T09:23:59Z</time>
      </trkpt>
      <trkpt lat="47.77099" lon="-3.57419">
        <ele>23</ele>
        <time>2018-07-18T09:24:00Z</time>
      </trkpt>
      <trkpt lat="47.77101" lon="-3.57419">
        <ele>24</ele>
        <time>2018-07-18T09:24:01Z</time>
      </trkpt>
      <trkpt lat="47.77103" lon="-3.5742">
        <ele>24</ele>
        <time>2018-07-18T09:24:02Z</time>
      </trkpt>
      <trkpt lat="47.77105" lon="-3.5742">
        <ele>24</ele>
        <time>2018-07-18T09:24:03Z</time>
      </trkpt>
      <trkpt lat="47.77106" lon="-3.5742">
        <ele>24</ele>
        <time>2018-07-18T09:24:04Z</time>
      </trkpt>
      <trkpt lat="47.77108" lon="-3.57421">
        <ele>24</ele>
        <time>2018-07-18T09:24:05Z</time>
      </trkpt>
      <trkpt lat="47.7711" lon="-3.57421">
        <ele>25</ele>
        <time>2018-07-18T09:24:06Z</time>
      </trkpt>
      <trkpt lat="47.77112" lon="-3.57421">
        <ele>25</ele>
        <time>2018-07-18T09:24:07Z</time>
      </trkpt>
      <trkpt lat="47.77114" lon="-3.57421">
        <ele>25</ele>
        <time>2018-07-18T09:24:08Z</time>
      </trkpt>
      <trkpt lat="47.77116" lon="-3.57421">
        <ele>25</ele>
        <time>2018-07-18T09:24:09Z</time>
      </trkpt>
      <trkpt lat="47.77118" lon="-3.57422">
        <ele>26</ele>
        <time>2018-07-18T09:24:10Z</time>
      </trkpt>
      <trkpt lat="47.7712" lon="-3.57422">
        <ele>26</ele>
        <time>2018-07-18T09:24:11Z</time>
      </trkpt>
      <trkpt lat="47.77122" lon="-3.57422">
        <ele>26</ele>
        <time>2018-07-18T09:24:12Z</time>
      </trkpt>
      <trkpt lat="47.77123" lon="-3.57421">
        <ele>26</ele>
        <time>2018-07-18T09:24:13Z</time>
      </trkpt>
      <trkpt lat="47.77125" lon="-3.57419">
        <ele>26</ele>
        <time>2018-07-18T09:24:14Z</time>
      </trkpt>
      <trkpt lat="47.77126" lon="-3.57418">
        <ele>26</ele>
        <time>2018-07-18T09:24:15Z</time>
      </trkpt>
      <trkpt lat="47.77128" lon="-3.57417">
        <ele>27</ele>
        <time>2018-07-18T09:24:16Z</time>
      </trkpt>
      <trkpt lat="47.7713" lon="-3.57416">
        <ele>27</ele>
        <time>2018-07-18T09:24:17Z</time>
      </trkpt>
      <trkpt lat="47.77132" lon="-3.57416">
        <ele>27</ele>
        <time>2018-07-18T09:24:18Z</time>
      </trkpt>
      <trkpt lat="47.77135" lon="-3.57416">
        <ele>27</ele>
        <time>2018-07-18T09:24:19Z</time>
      </trkpt>
      <trkpt lat="47.77137" lon="-3.57417">
        <ele>27</ele>
        <time>2018-07-18T09:24:20Z</time>
      </trkpt>
      <trkpt lat="47.77139" lon="-3.57417">
        <ele>28</ele>
        <time>2018-07-18T09:24:21Z</time>
      </trkpt>
      <trkpt lat="47.77141" lon="-3.57418">
        <ele>28</ele>
        <time>2018-07-18T09:24:22Z</time>
      </trkpt>
      <trkpt lat="47.77143" lon="-3.57419">
        <ele>28</ele>
        <time>2018-07-18T09:24:23Z</time>
      </trkpt>
      <trkpt lat="47.77145" lon="-3.57421">
        <ele>28</ele>
        <time>2018-07-18T09:24:24Z</time>
      </trkpt>
      <trkpt lat="47.77146" lon="-3.57423">
        <ele>28</ele>
        <time>2018-07-18T09:24:25Z</time>
      </trkpt>
      <trkpt lat="47.77147" lon="-3.57425">
        <ele>28</ele>
        <time>2018-07-18T09:24:26Z</time>
      </trkpt>
      <trkpt lat="47.77147" lon="-3.57428">
        <ele>29</ele>
        <time>2018-07-18T09:24:27Z</time>
      </trkpt>
      <trkpt lat="47.77146" lon="-3.57431">
        <ele>29</ele>
        <time>2018-07-18T09:24:28Z</time>
      </trkpt>
      <trkpt lat="47.77145" lon="-3.57434">
        <ele>29</ele>
        <time>2018-07-18T09:24:29Z</time>
      </trkpt>
      <trkpt lat="47.77145" lon="-3.57438">
        <ele>29</ele>
        <time>2018-07-18T09:24:30Z</time>
      </trkpt>
      <trkpt lat="47.77144" lon="-3.57439">
        <ele>29</ele>
        <time>2018-07-18T09:24:31Z</time>
      </trkpt>
      <trkpt lat="47.77144" lon="-3.5744">
        <ele>30</ele>
        <time>2018-07-18T09:24:32Z</time>
      </trkpt>
      <trkpt lat="47.77144" lon="-3.5744">
        <ele>30</ele>
        <time>2018-07-18T09:24:33Z</time>
      </trkpt>
      <trkpt lat="47.77144" lon="-3.5744">
        <ele>30</ele>
        <time>2018-07-18T09:24:34Z</time>
      </trkpt>
      <trkpt lat="47.77144" lon="-3.5744">
        <ele>30</ele>
        <time>2018-07-18T09:24:35Z</time>
      </trkpt>
      <trkpt lat="47.77146" lon="-3.57441">
        <ele>31</ele>
        <time>2018-07-18T09:24:36Z</time>
      </trkpt>
      <trkpt lat="47.77146" lon="-3.57439">
        <ele>31</ele>
        <time>2018-07-18T09:24:37Z</time>
      </trkpt>
      <trkpt lat="47.77146" lon="-3.57438">
        <ele>31</ele>
        <time>2018-07-18T09:24:38Z</time>
      </trkpt>
      <trkpt lat="47.77147" lon="-3.57437">
        <ele>31</ele>
        <time>2018-07-18T09:24:39Z</time>
      </trkpt>
      <trkpt lat="47.77148" lon="-3.57435">
        <ele>31</ele>
        <time>2018-07-18T09:24:40Z</time>
      </trkpt>
      <trkpt lat="47.77149" lon="-3.57433">
        <ele>31</ele>
        <time>2018-07-18T09:24:41Z</time>
      </trkpt>
      <trkpt lat="47.7715" lon="-3.57431">
        <ele>31</ele>
        <time>2018-07-18T09:24:42Z</time>
      </trkpt>
      <trkpt lat="47.77151" lon="-3.57428">
        <ele>31</ele>
        <time>2018-07-18T09:24:43Z</time>
      </trkpt>
      <trkpt lat="47.77152" lon="-3.57425">
        <ele>31</ele>
        <time>2018-07-18T09:24:44Z</time>
      </trkpt>
      <trkpt lat="47.77153" lon="-3.57422">
        <ele>31</ele>
        <time>2018-07-18T09:24:45Z</time>
      </trkpt>
      <trkpt lat="47.77154" lon="-3.57418">
        <ele>31</ele>
        <time>2018-07-18T09:24:46Z</time>
      </trkpt>
      <trkpt lat="47.77155" lon="-3.57414">
        <ele>31</ele>
        <time>2018-07-18T09:24:47Z</time>
      </trkpt>
      <trkpt lat="47.77155" lon="-3.5741">
        <ele>31</ele>
        <time>2018-07-18T09:24:48Z</time>
      </trkpt>
      <trkpt lat="47.77155" lon="-3.57405">
        <ele>31</ele>
        <time>2018-07-18T09:24:49Z</time>
      </trkpt>
      <trkpt lat="47.77154" lon="-3.57401">
        <ele>31</ele>
        <time>2018-07-18T09:24:50Z</time>
      </trkpt>
      <trkpt lat="47.77153" lon="-3.57396">
        <ele>31</ele>
        <time>2018-07-18T09:24:51Z</time>
      </trkpt>
      <trkpt lat="47.77152" lon="-3.57392">
        <ele>31</ele>
        <time>2018-07-18T09:24:52Z</time>
      </trkpt>
      <trkpt lat="47.77152" lon="-3.57387">
        <ele>31</ele>
        <time>2018-07-18T09:24:53Z</time>
      </trkpt>
      <trkpt lat="47.77152" lon="-3.57381">
        <ele>30</ele>
        <time>2018-07-18T09:24:54Z</time>
      </trkpt>
      <trkpt lat="47.77153" lon="-3.57375">
        <ele>30</ele>
        <time>2018-07-18T09:24:55Z</time>
      </trkpt>
      <trkpt lat="47.77154" lon="-3.57369">
        <ele>30</ele>
        <time>2018-07-18T09:24:56Z</time>
      </trkpt>
      <trkpt lat="47.77156" lon="-3.57364">
        <ele>30</ele>
        <time>2018-07-18T09:24:57Z</time>
      </trkpt>
      <trkpt lat="47.77159" lon="-3.5736">
        <ele>30</ele>
        <time>2018-07-18T09:24:58Z</time>
      </trkpt>
      <trkpt lat="47.77162" lon="-3.57355">
        <ele>30</ele>
        <time>2018-07-18T09:24:59Z</time>
      </trkpt>
      <trkpt lat="47.77165" lon="-3.57352">
        <ele>29</ele>
        <time>2018-07-18T09:25:00Z</time>
      </trkpt>
      <trkpt lat="47.77168" lon="-3.57349">
        <ele>29</ele>
        <time>2018-07-18T09:25:01Z</time>
      </trkpt>
      <trkpt lat="47.77172" lon="-3.57346">
        <ele>29</ele>
        <time>2018-07-18T09:25:02Z</time>
      </trkpt>
      <trkpt lat="47.77177" lon="-3.57344">
        <ele>29</ele>
        <time>2018-07-18T09:25:03Z</time>
      </trkpt>
      <trkpt lat="47.77182" lon="-3.57343">
        <ele>29</ele>
        <time>2018-07-18T09:25:04Z</time>
      </trkpt>
      <trkpt lat="47.77187" lon="-3.57341">
        <ele>29</ele>
        <time>2018-07-18T09:25:05Z</time>
      </trkpt>
      <trkpt lat="47.77193" lon="-3.5734">
        <ele>29</ele>
        <time>2018-07-18T09:25:06Z</time>
      </trkpt>
      <trkpt lat="47.77199" lon="-3.5734">
        <ele>28</ele>
        <time>2018-07-18T09:25:07Z</time>
      </trkpt>
      <trkpt lat="47.77205" lon="-3.57339">
        <ele>28</ele>
        <time>2018-07-18T09:25:08Z</time>
      </trkpt>
      <trkpt lat="47.77211" lon="-3.57338">
        <ele>28</ele>
        <time>2018-07-18T09:25:09Z</time>
      </trkpt>
      <trkpt lat="47.77217" lon="-3.57337">
        <ele>28</ele>
        <time>2018-07-18T09:25:10Z</time>
      </trkpt>
      <trkpt lat="47.77223" lon="-3.57336">
        <ele>28</ele>
        <time>2018-07-18T09:25:11Z</time>
      </trkpt>
      <trkpt lat="47.77228" lon="-3.57336">
        <ele>28</ele>
        <time>2018-07-18T09:25:12Z</time>
      </trkpt>
      <trkpt lat="47.77233" lon="-3.57337">
        <ele>28</ele>
        <time>2018-07-18T09:25:13Z</time>
      </trkpt>
      <trkpt lat="47.77239" lon="-3.57338">
        <ele>28</ele>
        <time>2018-07-18T09:25:14Z</time>
      </trkpt>
      <trkpt lat="47.77246" lon="-3.57339">
        <ele>28</ele>
        <time>2018-07-18T09:25:15Z</time>
      </trkpt>
      <trkpt lat="47.77253" lon="-3.57339">
        <ele>27</ele>
        <time>2018-07-18T09:25:16Z</time>
      </trkpt>
      <trkpt lat="47.7726" lon="-3.57338">
        <ele>27</ele>
        <time>2018-07-18T09:25:17Z</time>
      </trkpt>
      <trkpt lat="47.77267" lon="-3.57338">
        <ele>27</ele>
        <time>2018-07-18T09:25:18Z</time>
      </trkpt>
      <trkpt lat="47.77273" lon="-3.57339">
        <ele>27</ele>
        <time>2018-07-18T09:25:19Z</time>
      </trkpt>
      <trkpt lat="47.77277" lon="-3.5734">
        <ele>27</ele>
        <time>2018-07-18T09:25:20Z</time>
      </trkpt>
      <trkpt lat="47.77279" lon="-3.5734">
        <ele>27</ele>
        <time>2018-07-18T09:25:21Z</time>
      </trkpt>
      <trkpt lat="47.77279" lon="-3.5734">
        <ele>27</ele>
        <time>2018-07-18T09:25:22Z</time>
      </trkpt>
      <trkpt lat="47.77279" lon="-3.5734">
        <ele>27</ele>
        <time>2018-07-18T09:25:23Z</time>
      </trkpt>
      <trkpt lat="47.7728" lon="-3.5734">
        <ele>27</ele>
        <time>2018-07-18T09:25:24Z</time>
      </trkpt>
      <trkpt lat="47.7728" lon="-3.5734">
        <ele>27</ele>
        <time>2018-07-18T09:25:25Z</time>
      </trkpt>
      <trkpt lat="47.77281" lon="-3.5734">
        <ele>27</ele>
        <time>2018-07-18T09:25:26Z</time>
      </trkpt>
      <trkpt lat="47.77283" lon="-3.5734">
        <ele>27</ele>
        <time>2018-07-18T09:25:27Z</time>
      </trkpt>
      <trkpt lat="47.77284" lon="-3.57339">
        <ele>27</ele>
        <time>2018-07-18T09:25:28Z</time>
      </trkpt>
      <trkpt lat="47.77286" lon="-3.57338">
        <ele>27</ele>
        <time>2018-07-18T09:25:29Z</time>
      </trkpt>
      <trkpt lat="47.77288" lon="-3.57335">
        <ele>27</ele>
        <time>2018-07-18T09:25:30Z</time>
      </trkpt>
      <trkpt lat="47.77289" lon="-3.57332">
        <ele>27</ele>
        <time>2018-07-18T09:25:31Z</time>
      </trkpt>
      <trkpt lat="47.77289" lon="-3.57327">
        <ele>27</ele>
        <time>2018-07-18T09:25:32Z</time>
      </trkpt>
      <trkpt lat="47.77289" lon="-3.57325">
        <ele>27</ele>
        <time>2018-07-18T09:25:33Z</time>
      </trkpt>
      <trkpt lat="47.77289" lon="-3.57322">
        <ele>27</ele>
        <time>2018-07-18T09:25:34Z</time>
      </trkpt>
      <trkpt lat="47.7729" lon="-3.5732">
        <ele>27</ele>
        <time>2018-07-18T09:25:35Z</time>
      </trkpt>
      <trkpt lat="47.7729" lon="-3.57318">
        <ele>27</ele>
        <time>2018-07-18T09:25:36Z</time>
      </trkpt>
      <trkpt lat="47.77289" lon="-3.57316">
        <ele>27</ele>
        <time>2018-07-18T09:25:37Z</time>
      </trkpt>
      <trkpt lat="47.7729" lon="-3.57313">
        <ele>27</ele>
        <time>2018-07-18T09:25:38Z</time>
      </trkpt>
      <trkpt lat="47.77291" lon="-3.57311">
        <ele>26</ele>
        <time>2018-07-18T09:25:39Z</time>
      </trkpt>
      <trkpt lat="47.77293" lon="-3.5731">
        <ele>26</ele>
        <time>2018-07-18T09:25:40Z</time>
      </trkpt>
      <trkpt lat="47.77294" lon="-3.57309">
        <ele>26</ele>
        <time>2018-07-18T09:25:41Z</time>
      </trkpt>
      <trkpt lat="47.77297" lon="-3.5731">
        <ele>26</ele>
        <time>2018-07-18T09:25:42Z</time>
      </trkpt>
      <trkpt lat="47.77299" lon="-3.5731">
        <ele>26</ele>
        <time>2018-07-18T09:25:43Z</time>
      </trkpt>
      <trkpt lat="47.773" lon="-3.57311">
        <ele>26</ele>
        <time>2018-07-18T09:25:44Z</time>
      </trkpt>
      <trkpt lat="47.77302" lon="-3.57311">
        <ele>27</ele>
        <time>2018-07-18T09:25:45Z</time>
      </trkpt>
      <trkpt lat="47.77304" lon="-3.57311">
        <ele>27</ele>
        <time>2018-07-18T09:25:46Z</time>
      </trkpt>
      <trkpt lat="47.77305" lon="-3.57312">
        <ele>27</ele>
        <time>2018-07-18T09:25:47Z</time>
      </trkpt>
      <trkpt lat="47.77306" lon="-3.57313">
        <ele>27</ele>
        <time>2018-07-18T09:25:48Z</time>
      </trkpt>
      <trkpt lat="47.77307" lon="-3.57314">
        <ele>27</ele>
        <time>2018-07-18T09:25:49Z</time>
      </trkpt>
      <trkpt lat="47.77309" lon="-3.57315">
        <ele>27</ele>
        <time>2018-07-18T09:25:50Z</time>
      </trkpt>
      <trkpt lat="47.7731" lon="-3.57317">
        <ele>27</ele>
        <time>2018-07-18T09:25:51Z</time>
      </trkpt>
      <trkpt lat="47.77312" lon="-3.57318">
        <ele>27</ele>
        <time>2018-07-18T09:25:52Z</time>
      </trkpt>
      <trkpt lat="47.77314" lon="-3.57319">
        <ele>27</ele>
        <time>2018-07-18T09:25:53Z</time>
      </trkpt>
      <trkpt lat="47.77316" lon="-3.5732">
        <ele>27</ele>
        <time>2018-07-18T09:25:54Z</time>
      </trkpt>
      <trkpt lat="47.77319" lon="-3.5732">
        <ele>28</ele>
        <time>2018-07-18T09:25:55Z</time>
      </trkpt>
      <trkpt lat="47.77321" lon="-3.5732">
        <ele>28</ele>
        <time>2018-07-18T09:25:56Z</time>
      </trkpt>
      <trkpt lat="47.77323" lon="-3.5732">
        <ele>28</ele>
        <time>2018-07-18T09:25:57Z</time>
      </trkpt>
      <trkpt lat="47.77324" lon="-3.5732">
        <ele>28</ele>
        <time>2018-07-18T09:25:58Z</time>
      </trkpt>
      <trkpt lat="47.77326" lon="-3.5732">
        <ele>28</ele>
        <time>2018-07-18T09:25:59Z</time>
      </trkpt>
      <trkpt lat="47.77329" lon="-3.5732">
        <ele>28</ele>
        <time>2018-07-18T09:26:00Z</time>
      </trkpt>
      <trkpt lat="47.77331" lon="-3.5732">
        <ele>28</ele>
        <time>2018-07-18T09:26:01Z</time>
      </trkpt>
      <trkpt lat="47.77333" lon="-3.5732">
        <ele>28</ele>
        <time>2018-07-18T09:26:02Z</time>
      </trkpt>
      <trkpt lat="47.77335" lon="-3.5732">
        <ele>29</ele>
        <time>2018-07-18T09:26:03Z</time>
      </trkpt>
      <trkpt lat="47.77337" lon="-3.5732">
        <ele>29</ele>
        <time>2018-07-18T09:26:04Z</time>
      </trkpt>
      <trkpt lat="47.77339" lon="-3.5732">
        <ele>29</ele>
        <time>2018-07-18T09:26:05Z</time>
      </trkpt>
      <trkpt lat="47.77342" lon="-3.5732">
        <ele>29</ele>
        <time>2018-07-18T09:26:06Z</time>
      </trkpt>
      <trkpt lat="47.77344" lon="-3.5732">
        <ele>29</ele>
        <time>2018-07-18T09:26:07Z</time>
      </trkpt>
      <trkpt lat="47.77347" lon="-3.57319">
        <ele>30</ele>
        <time>2018-07-18T09:26:08Z</time>
      </trkpt>
      <trkpt lat="47.7735" lon="-3.57319">
        <ele>30</ele>
        <time>2018-07-18T09:26:09Z</time>
      </trkpt>
      <trkpt lat="47.77352" lon="-3.57319">
        <ele>30</ele>
        <time>2018-07-18T09:26:10Z</time>
      </trkpt>
      <trkpt lat="47.77355" lon="-3.57318">
        <ele>30</ele>
        <time>2018-07-18T09:26:11Z</time>
      </trkpt>
      <trkpt lat="47.77358" lon="-3.57317">
        <ele>30</ele>
        <time>2018-07-18T09:26:12Z</time>
      </trkpt>
      <trkpt lat="47.7736" lon="-3.57317">
        <ele>30</ele>
        <time>2018-07-18T09:26:13Z</time>
      </trkpt>
      <trkpt lat="47.77363" lon="-3.57316">
        <ele>31</ele>
        <time>2018-07-18T09:26:14Z</time>
      </trkpt>
      <trkpt lat="47.77366" lon="-3.57315">
        <ele>31</ele>
        <time>2018-07-18T09:26:15Z</time>
      </trkpt>
      <trkpt lat="47.77369" lon="-3.57314">
        <ele>31</ele>
        <time>2018-07-18T09:26:16Z</time>
      </trkpt>
      <trkpt lat="47.77372" lon="-3.57314">
        <ele>31</ele>
        <time>2018-07-18T09:26:17Z</time>
      </trkpt>
      <trkpt lat="47.77374" lon="-3.57314">
        <ele>32</ele>
        <time>2018-07-18T09:26:18Z</time>
      </trkpt>
      <trkpt lat="47.77377" lon="-3.57313">
        <ele>32</ele>
        <time>2018-07-18T09:26:19Z</time>
      </trkpt>
      <trkpt lat="47.77379" lon="-3.57313">
        <ele>32</ele>
        <time>2018-07-18T09:26:20Z</time>
      </trkpt>
      <trkpt lat="47.77382" lon="-3.57311">
        <ele>32</ele>
        <time>2018-07-18T09:26:21Z</time>
      </trkpt>
      <trkpt lat="47.77385" lon="-3.5731">
        <ele>32</ele>
        <time>2018-07-18T09:26:22Z</time>
      </trkpt>
      <trkpt lat="47.77387" lon="-3.57309">
        <ele>32</ele>
        <time>2018-07-18T09:26:23Z</time>
      </trkpt>
      <trkpt lat="47.77389" lon="-3.57309">
        <ele>33</ele>
        <time>2018-07-18T09:26:24Z</time>
      </trkpt>
      <trkpt lat="47.77391" lon="-3.57307">
        <ele>33</ele>
        <time>2018-07-18T09:26:25Z</time>
      </trkpt>
      <trkpt lat="47.77394" lon="-3.57306">
        <ele>33</ele>
        <time>2018-07-18T09:26:26Z</time>
      </trkpt>
      <trkpt lat="47.77397" lon="-3.57304">
        <ele>33</ele>
        <time>2018-07-18T09:26:27Z</time>
      </trkpt>
      <trkpt lat="47.774" lon="-3.57303">
        <ele>33</ele>
        <time>2018-07-18T09:26:28Z</time>
      </trkpt>
      <trkpt lat="47.77403" lon="-3.57301">
        <ele>33</ele>
        <time>2018-07-18T09:26:29Z</time>
      </trkpt>
      <trkpt lat="47.77405" lon="-3.573">
        <ele>33</ele>
        <time>2018-07-18T09:26:30Z</time>
      </trkpt>
      <trkpt lat="47.77408" lon="-3.57298">
        <ele>33</ele>
        <time>2018-07-18T09:26:31Z</time>
      </trkpt>
      <trkpt lat="47.77411" lon="-3.57296">
        <ele>33</ele>
        <time>2018-07-18T09:26:32Z</time>
      </trkpt>
      <trkpt lat="47.77414" lon="-3.57295">
        <ele>33</ele>
        <time>2018-07-18T09:26:33Z</time>
      </trkpt>
      <trkpt lat="47.77418" lon="-3.57294">
        <ele>34</ele>
        <time>2018-07-18T09:26:34Z</time>
      </trkpt>
      <trkpt lat="47.77421" lon="-3.57293">
        <ele>34</ele>
        <time>2018-07-18T09:26:35Z</time>
      </trkpt>
      <trkpt lat="47.77424" lon="-3.57292">
        <ele>34</ele>
        <time>2018-07-18T09:26:36Z</time>
      </trkpt>
      <trkpt lat="47.77427" lon="-3.57292">
        <ele>34</ele>
        <time>2018-07-18T09:26:37Z</time>
      </trkpt>
      <trkpt lat="47.7743" lon="-3.57292">
        <ele>34</ele>
        <time>2018-07-18T09:26:38Z</time>
      </trkpt>
      <trkpt lat="47.77434" lon="-3.57291">
        <ele>34</ele>
        <time>2018-07-18T09:26:39Z</time>
      </trkpt>
      <trkpt lat="47.77437" lon="-3.57291">
        <ele>34</ele>
        <time>2018-07-18T09:26:40Z</time>
      </trkpt>
      <trkpt lat="47.77441" lon="-3.5729">
        <ele>34</ele>
        <time>2018-07-18T09:26:41Z</time>
      </trkpt>
      <trkpt lat="47.77444" lon="-3.57287">
        <ele>34</ele>
        <time>2018-07-18T09:26:42Z</time>
      </trkpt>
      <trkpt lat="47.77447" lon="-3.57285">
        <ele>34</ele>
        <time>2018-07-18T09:26:43Z</time>
      </trkpt>
      <trkpt lat="47.77451" lon="-3.57283">
        <ele>34</ele>
        <time>2018-07-18T09:26:44Z</time>
      </trkpt>
      <trkpt lat="47.77454" lon="-3.57281">
        <ele>34</ele>
        <time>2018-07-18T09:26:45Z</time>
      </trkpt>
      <trkpt lat="47.77457" lon="-3.57279">
        <ele>34</ele>
        <time>2018-07-18T09:26:46Z</time>
      </trkpt>
      <trkpt lat="47.7746" lon="-3.57276">
        <ele>35</ele>
        <time>2018-07-18T09:26:47Z</time>
      </trkpt>
      <trkpt lat="47.77462" lon="-3.57274">
        <ele>35</ele>
        <time>2018-07-18T09:26:48Z</time>
      </trkpt>
      <trkpt lat="47.77465" lon="-3.57273">
        <ele>35</ele>
        <time>2018-07-18T09:26:49Z</time>
      </trkpt>
      <trkpt lat="47.77468" lon="-3.57271">
        <ele>35</ele>
        <time>2018-07-18T09:26:50Z</time>
      </trkpt>
      <trkpt lat="47.77471" lon="-3.57268">
        <ele>35</ele>
        <time>2018-07-18T09:26:51Z</time>
      </trkpt>
      <trkpt lat="47.77475" lon="-3.57267">
        <ele>35</ele>
        <time>2018-07-18T09:26:52Z</time>
      </trkpt>
      <trkpt lat="47.77478" lon="-3.57265">
        <ele>35</ele>
        <time>2018-07-18T09:26:53Z</time>
      </trkpt>
      <trkpt lat="47.77481" lon="-3.57262">
        <ele>35</ele>
        <time>2018-07-18T09:26:54Z</time>
      </trkpt>
      <trkpt lat="47.77484" lon="-3.5726">
        <ele>35</ele>
        <time>2018-07-18T09:26:55Z</time>
      </trkpt>
      <trkpt lat="47.77487" lon="-3.57258">
        <ele>35</ele>
        <time>2018-07-18T09:26:56Z</time>
      </trkpt>
      <trkpt lat="47.77489" lon="-3.57255">
        <ele>35</ele>
        <time>2018-07-18T09:26:57Z</time>
      </trkpt>
      <trkpt lat="47.77491" lon="-3.57254">
        <ele>36</ele>
        <time>2018-07-18T09:26:58Z</time>
      </trkpt>
      <trkpt lat="47.77495" lon="-3.57252">
        <ele>36</ele>
        <time>2018-07-18T09:26:59Z</time>
      </trkpt>
      <trkpt lat="47.77498" lon="-3.57251">
        <ele>36</ele>
        <time>2018-07-18T09:27:00Z</time>
      </trkpt>
      <trkpt lat="47.77501" lon="-3.5725">
        <ele>36</ele>
        <time>2018-07-18T09:27:01Z</time>
      </trkpt>
      <trkpt lat="47.77504" lon="-3.57249">
        <ele>36</ele>
        <time>2018-07-18T09:27:02Z</time>
      </trkpt>
      <trkpt lat="47.77507" lon="-3.57248">
        <ele>36</ele>
        <time>2018-07-18T09:27:03Z</time>
      </trkpt>
      <trkpt lat="47.7751" lon="-3.57247">
        <ele>36</ele>
        <time>2018-07-18T09:27:04Z</time>
      </trkpt>
      <trkpt lat="47.77513" lon="-3.57247">
        <ele>37</ele>
        <time>2018-07-18T09:27:05Z</time>
      </trkpt>
      <trkpt lat="47.77516" lon="-3.57248">
        <ele>37</ele>
        <time>2018-07-18T09:27:06Z</time>
      </trkpt>
      <trkpt lat="47.77519" lon="-3.57248">
        <ele>37</ele>
        <time>2018-07-18T09:27:07Z</time>
      </trkpt>
      <trkpt lat="47.77522" lon="-3.57249">
        <ele>37</ele>
        <time>2018-07-18T09:27:08Z</time>
      </trkpt>
      <trkpt lat="47.77526" lon="-3.57249">
        <ele>37</ele>
        <time>2018-07-18T09:27:09Z</time>
      </trkpt>
      <trkpt lat="47.77529" lon="-3.57251">
        <ele>37</ele>
        <time>2018-07-18T09:27:10Z</time>
      </trkpt>
      <trkpt lat="47.77532" lon="-3.57252">
        <ele>37</ele>
        <time>2018-07-18T09:27:11Z</time>
      </trkpt>
      <trkpt lat="47.77534" lon="-3.57254">
        <ele>37</ele>
        <time>2018-07-18T09:27:12Z</time>
      </trkpt>
      <trkpt lat="47.77537" lon="-3.57256">
        <ele>37</ele>
        <time>2018-07-18T09:27:13Z</time>
      </trkpt>
      <trkpt lat="47.7754" lon="-3.57257">
        <ele>37</ele>
        <time>2018-07-18T09:27:14Z</time>
      </trkpt>
      <trkpt lat="47.77544" lon="-3.57258">
        <ele>37</ele>
        <time>2018-07-18T09:27:15Z</time>
      </trkpt>
      <trkpt lat="47.77547" lon="-3.57259">
        <ele>37</ele>
        <time>2018-07-18T09:27:16Z</time>
      </trkpt>
      <trkpt lat="47.77551" lon="-3.5726">
        <ele>37</ele>
        <time>2018-07-18T09:27:17Z</time>
      </trkpt>
      <trkpt lat="47.77554" lon="-3.57261">
        <ele>37</ele>
        <time>2018-07-18T09:27:18Z</time>
      </trkpt>
      <trkpt lat="47.77558" lon="-3.57261">
        <ele>37</ele>
        <time>2018-07-18T09:27:19Z</time>
      </trkpt>
      <trkpt lat="47.77562" lon="-3.57262">
        <ele>37</ele>
        <time>2018-07-18T09:27:20Z</time>
      </trkpt>
      <trkpt lat="47.77565" lon="-3.57263">
        <ele>37</ele>
        <time>2018-07-18T09:27:21Z</time>
      </trkpt>
      <trkpt lat="47.77569" lon="-3.57264">
        <ele>37</ele>
        <time>2018-07-18T09:27:22Z</time>
      </trkpt>
      <trkpt lat="47.77572" lon="-3.57265">
        <ele>37</ele>
        <time>2018-07-18T09:27:23Z</time>
      </trkpt>
      <trkpt lat="47.77576" lon="-3.57266">
        <ele>37</ele>
        <time>2018-07-18T09:27:24Z</time>
      </trkpt>
      <trkpt lat="47.7758" lon="-3.57267">
        <ele>37</ele>
        <time>2018-07-18T09:27:25Z</time>
      </trkpt>
      <trkpt lat="47.77584" lon="-3.57267">
        <ele>37</ele>
        <time>2018-07-18T09:27:26Z</time>
      </trkpt>
      <trkpt lat="47.77587" lon="-3.57267">
        <ele>37</ele>
        <time>2018-07-18T09:27:27Z</time>
      </trkpt>
      <trkpt lat="47.77591" lon="-3.57267">
        <ele>37</ele>
        <time>2018-07-18T09:27:28Z</time>
      </trkpt>
      <trkpt lat="47.77594" lon="-3.57268">
        <ele>37</ele>
        <time>2018-07-18T09:27:29Z</time>
      </trkpt>
      <trkpt lat="47.77597" lon="-3.57268">
        <ele>37</ele>
        <time>2018-07-18T09:27:30Z</time>
      </trkpt>
      <trkpt lat="47.77601" lon="-3.57269">
        <ele>37</ele>
        <time>2018-07-18T09:27:31Z</time>
      </trkpt>
      <trkpt lat="47.77604" lon="-3.5727">
        <ele>37</ele>
        <time>2018-07-18T09:27:32Z</time>
      </trkpt>
      <trkpt lat="47.77608" lon="-3.57271">
        <ele>37</ele>
        <time>2018-07-18T09:27:33Z</time>
      </trkpt>
      <trkpt lat="47.77611" lon="-3.57272">
        <ele>37</ele>
        <time>2018-07-18T09:27:34Z</time>
      </trkpt>
      <trkpt lat="47.77615" lon="-3.57273">
        <ele>37</ele>
        <time>2018-07-18T09:27:35Z</time>
      </trkpt>
      <trkpt lat="47.77618" lon="-3.57273">
        <ele>37</ele>
        <time>2018-07-18T09:27:36Z</time>
      </trkpt>
      <trkpt lat="47.77622" lon="-3.57274">
        <ele>37</ele>
        <time>2018-07-18T09:27:37Z</time>
      </trkpt>
      <trkpt lat="47.77625" lon="-3.57274">
        <ele>37</ele>
        <time>2018-07-18T09:27:38Z</time>
      </trkpt>
      <trkpt lat="47.77628" lon="-3.57274">
        <ele>37</ele>
        <time>2018-07-18T09:27:39Z</time>
      </trkpt>
      <trkpt lat="47.77632" lon="-3.57275">
        <ele>37</ele>
        <time>2018-07-18T09:27:40Z</time>
      </trkpt>
      <trkpt lat="47.77634" lon="-3.57278">
        <ele>37</ele>
        <time>2018-07-18T09:27:41Z</time>
      </trkpt>
      <trkpt lat="47.77637" lon="-3.57282">
        <ele>38</ele>
        <time>2018-07-18T09:27:42Z</time>
      </trkpt>
      <trkpt lat="47.77638" lon="-3.57286">
        <ele>38</ele>
        <time>2018-07-18T09:27:43Z</time>
      </trkpt>
      <trkpt lat="47.77638" lon="-3.57292">
        <ele>38</ele>
        <time>2018-07-18T09:27:44Z</time>
      </trkpt>
      <trkpt lat="47.77637" lon="-3.57297">
        <ele>38</ele>
        <time>2018-07-18T09:27:45Z</time>
      </trkpt>
      <trkpt lat="47.77636" lon="-3.57302">
        <ele>38</ele>
        <time>2018-07-18T09:27:46Z</time>
      </trkpt>
      <trkpt lat="47.77635" lon="-3.57308">
        <ele>38</ele>
        <time>2018-07-18T09:27:47Z</time>
      </trkpt>
      <trkpt lat="47.77635" lon="-3.57314">
        <ele>38</ele>
        <time>2018-07-18T09:27:48Z</time>
      </trkpt>
      <trkpt lat="47.77634" lon="-3.57319">
        <ele>38</ele>
        <time>2018-07-18T09:27:49Z</time>
      </trkpt>
      <trkpt lat="47.77633" lon="-3.57324">
        <ele>38</ele>
        <time>2018-07-18T09:27:50Z</time>
      </trkpt>
      <trkpt lat="47.77632" lon="-3.57329">
        <ele>39</ele>
        <time>2018-07-18T09:27:51Z</time>
      </trkpt>
      <trkpt lat="47.77631" lon="-3.57334">
        <ele>39</ele>
        <time>2018-07-18T09:27:52Z</time>
      </trkpt>
      <trkpt lat="47.77631" lon="-3.57339">
        <ele>39</ele>
        <time>2018-07-18T09:27:53Z</time>
      </trkpt>
      <trkpt lat="47.77631" lon="-3.57344">
        <ele>39</ele>
        <time>2018-07-18T09:27:54Z</time>
      </trkpt>
      <trkpt lat="47.77631" lon="-3.5735">
        <ele>39</ele>
        <time>2018-07-18T09:27:55Z</time>
      </trkpt>
      <trkpt lat="47.77631" lon="-3.57355">
        <ele>39</ele>
        <time>2018-07-18T09:27:56Z</time>
      </trkpt>
      <trkpt lat="47.77631" lon="-3.57359">
        <ele>39</ele>
        <time>2018-07-18T09:27:57Z</time>
      </trkpt>
      <trkpt lat="47.77631" lon="-3.57364">
        <ele>39</ele>
        <time>2018-07-18T09:27:58Z</time>
      </trkpt>
      <trkpt lat="47.7763" lon="-3.57369">
        <ele>40</ele>
        <time>2018-07-18T09:27:59Z</time>
      </trkpt>
      <trkpt lat="47.7763" lon="-3.57374">
        <ele>40</ele>
        <time>2018-07-18T09:28:00Z</time>
      </trkpt>
      <trkpt lat="47.7763" lon="-3.57379">
        <ele>40</ele>
        <time>2018-07-18T09:28:01Z</time>
      </trkpt>
      <trkpt lat="47.7763" lon="-3.57385">
        <ele>40</ele>
        <time>2018-07-18T09:28:02Z</time>
      </trkpt>
      <trkpt lat="47.7763" lon="-3.5739">
        <ele>40</ele>
        <time>2018-07-18T09:28:03Z</time>
      </trkpt>
      <trkpt lat="47.7763" lon="-3.57395">
        <ele>40</ele>
        <time>2018-07-18T09:28:04Z</time>
      </trkpt>
      <trkpt lat="47.7763" lon="-3.57397">
        <ele>40</ele>
        <time>2018-07-18T09:28:05Z</time>
      </trkpt>
      <trkpt lat="47.7763" lon="-3.57399">
        <ele>40</ele>
        <time>2018-07-18T09:28:06Z</time>
      </trkpt>
      <trkpt lat="47.7763" lon="-3.57399">
        <ele>40</ele>
        <time>2018-07-18T09:28:07Z</time>
      </trkpt>
      <trkpt lat="47.7763" lon="-3.57399">
        <ele>40</ele>
        <time>2018-07-18T09:28:08Z</time>
      </trkpt>
      <trkpt lat="47.7763" lon="-3.57399">
        <ele>40</ele>
        <time>2018-07-18T09:28:09Z</time>
      </trkpt>
      <trkpt lat="47.77629" lon="-3.57402">
        <ele>41</ele>
        <time>2018-07-18T09:28:10Z</time>
      </trkpt>
      <trkpt lat="47.77629" lon="-3.57405">
        <ele>40</ele>
        <time>2018-07-18T09:28:11Z</time>
      </trkpt>
      <trkpt lat="47.77629" lon="-3.57409">
        <ele>40</ele>
        <time>2018-07-18T09:28:12Z</time>
      </trkpt>
      <trkpt lat="47.77628" lon="-3.57414">
        <ele>40</ele>
        <time>2018-07-18T09:28:13Z</time>
      </trkpt>
      <trkpt lat="47.77628" lon="-3.57419">
        <ele>40</ele>
        <time>2018-07-18T09:28:14Z</time>
      </trkpt>
      <trkpt lat="47.77628" lon="-3.57424">
        <ele>40</ele>
        <time>2018-07-18T09:28:15Z</time>
      </trkpt>
      <trkpt lat="47.77628" lon="-3.57427">
        <ele>40</ele>
        <time>2018-07-18T09:28:16Z</time>
      </trkpt>
      <trkpt lat="47.77628" lon="-3.5743">
        <ele>40</ele>
        <time>2018-07-18T09:28:17Z</time>
      </trkpt>
      <trkpt lat="47.77628" lon="-3.57434">
        <ele>40</ele>
        <time>2018-07-18T09:28:18Z</time>
      </trkpt>
      <trkpt lat="47.77628" lon="-3.57437">
        <ele>40</ele>
        <time>2018-07-18T09:28:19Z</time>
      </trkpt>
      <trkpt lat="47.77627" lon="-3.57441">
        <ele>40</ele>
        <time>2018-07-18T09:28:20Z</time>
      </trkpt>
      <trkpt lat="47.77628" lon="-3.57444">
        <ele>40</ele>
        <time>2018-07-18T09:28:21Z</time>
      </trkpt>
      <trkpt lat="47.7763" lon="-3.57447">
        <ele>40</ele>
        <time>2018-07-18T09:28:22Z</time>
      </trkpt>
      <trkpt lat="47.77633" lon="-3.57448">
        <ele>40</ele>
        <time>2018-07-18T09:28:23Z</time>
      </trkpt>
      <trkpt lat="47.77635" lon="-3.57447">
        <ele>40</ele>
        <time>2018-07-18T09:28:24Z</time>
      </trkpt>
      <trkpt lat="47.77637" lon="-3.57445">
        <ele>40</ele>
        <time>2018-07-18T09:28:25Z</time>
      </trkpt>
      <trkpt lat="47.7764" lon="-3.57443">
        <ele>40</ele>
        <time>2018-07-18T09:28:26Z</time>
      </trkpt>
      <trkpt lat="47.77642" lon="-3.57442">
        <ele>40</ele>
        <time>2018-07-18T09:28:27Z</time>
      </trkpt>
      <trkpt lat="47.77644" lon="-3.5744">
        <ele>40</ele>
        <time>2018-07-18T09:28:28Z</time>
      </trkpt>
      <trkpt lat="47.77647" lon="-3.57438">
        <ele>40</ele>
        <time>2018-07-18T09:28:29Z</time>
      </trkpt>
      <trkpt lat="47.77649" lon="-3.57436">
        <ele>40</ele>
        <time>2018-07-18T09:28:30Z</time>
      </trkpt>
      <trkpt lat="47.77651" lon="-3.57435">
        <ele>40</ele>
        <time>2018-07-18T09:28:31Z</time>
      </trkpt>
      <trkpt lat="47.77653" lon="-3.57434">
        <ele>41</ele>
        <time>2018-07-18T09:28:32Z</time>
      </trkpt>
      <trkpt lat="47.77656" lon="-3.57433">
        <ele>41</ele>
        <time>2018-07-18T09:28:33Z</time>
      </trkpt>
      <trkpt lat="47.77658" lon="-3.57432">
        <ele>41</ele>
        <time>2018-07-18T09:28:34Z</time>
      </trkpt>
      <trkpt lat="47.77661" lon="-3.57431">
        <ele>41</ele>
        <time>2018-07-18T09:28:35Z</time>
      </trkpt>
      <trkpt lat="47.77663" lon="-3.5743">
        <ele>41</ele>
        <time>2018-07-18T09:28:36Z</time>
      </trkpt>
      <trkpt lat="47.77665" lon="-3.57429">
        <ele>41</ele>
        <time>2018-07-18T09:28:37Z</time>
      </trkpt>
      <trkpt lat="47.77668" lon="-3.57428">
        <ele>41</ele>
        <time>2018-07-18T09:28:38Z</time>
      </trkpt>
      <trkpt lat="47.7767" lon="-3.57426">
        <ele>41</ele>
        <time>2018-07-18T09:28:39Z</time>
      </trkpt>
      <trkpt lat="47.77673" lon="-3.57424">
        <ele>41</ele>
        <time>2018-07-18T09:28:40Z</time>
      </trkpt>
      <trkpt lat="47.77676" lon="-3.57424">
        <ele>41</ele>
        <time>2018-07-18T09:28:41Z</time>
      </trkpt>
      <trkpt lat="47.77679" lon="-3.57422">
        <ele>41</ele>
        <time>2018-07-18T09:28:42Z</time>
      </trkpt>
      <trkpt lat="47.77681" lon="-3.57421">
        <ele>41</ele>
        <time>2018-07-18T09:28:43Z</time>
      </trkpt>
      <trkpt lat="47.77685" lon="-3.5742">
        <ele>41</ele>
        <time>2018-07-18T09:28:44Z</time>
      </trkpt>
      <trkpt lat="47.7769" lon="-3.57419">
        <ele>41</ele>
        <time>2018-07-18T09:28:45Z</time>
      </trkpt>
      <trkpt lat="47.77694" lon="-3.57418">
        <ele>41</ele>
        <time>2018-07-18T09:28:46Z</time>
      </trkpt>
      <trkpt lat="47.77699" lon="-3.57416">
        <ele>41</ele>
        <time>2018-07-18T09:28:47Z</time>
      </trkpt>
      <trkpt lat="47.77704" lon="-3.57415">
        <ele>40</ele>
        <time>2018-07-18T09:28:48Z</time>
      </trkpt>
      <trkpt lat="47.77709" lon="-3.57414">
        <ele>40</ele>
        <time>2018-07-18T09:28:49Z</time>
      </trkpt>
      <trkpt lat="47.77713" lon="-3.57414">
        <ele>40</ele>
        <time>2018-07-18T09:28:50Z</time>
      </trkpt>
      <trkpt lat="47.77717" lon="-3.57413">
        <ele>40</ele>
        <time>2018-07-18T09:28:51Z</time>
      </trkpt>
      <trkpt lat="47.77722" lon="-3.57412">
        <ele>40</ele>
        <time>2018-07-18T09:28:52Z</time>
      </trkpt>
      <trkpt lat="47.77727" lon="-3.5741">
        <ele>41</ele>
        <time>2018-07-18T09:28:53Z</time>
      </trkpt>
      <trkpt lat="47.77732" lon="-3.57409">
        <ele>41</ele>
        <time>2018-07-18T09:28:54Z</time>
      </trkpt>
      <trkpt lat="47.77736" lon="-3.57407">
        <ele>41</ele>
        <time>2018-07-18T09:28:55Z</time>
      </trkpt>
      <trkpt lat="47.77742" lon="-3.57405">
        <ele>41</ele>
        <time>2018-07-18T09:28:56Z</time>
      </trkpt>
      <trkpt lat="47.77747" lon="-3.57404">
        <ele>41</ele>
        <time>2018-07-18T09:28:57Z</time>
      </trkpt>
      <trkpt lat="47.77752" lon="-3.57402">
        <ele>41</ele>
        <time>2018-07-18T09:28:58Z</time>
      </trkpt>
      <trkpt lat="47.77757" lon="-3.574">
        <ele>41</ele>
        <time>2018-07-18T09:28:59Z</time>
      </trkpt>
      <trkpt lat="47.77762" lon="-3.57398">
        <ele>41</ele>
        <time>2018-07-18T09:29:00Z</time>
      </trkpt>
      <trkpt lat="47.77766" lon="-3.57396">
        <ele>42</ele>
        <time>2018-07-18T09:29:01Z</time>
      </trkpt>
      <trkpt lat="47.7777" lon="-3.57395">
        <ele>42</ele>
        <time>2018-07-18T09:29:02Z</time>
      </trkpt>
      <trkpt lat="47.77775" lon="-3.57395">
        <ele>42</ele>
        <time>2018-07-18T09:29:03Z</time>
      </trkpt>
      <trkpt lat="47.77779" lon="-3.57395">
        <ele>42</ele>
        <time>2018-07-18T09:29:04Z</time>
      </trkpt>
      <trkpt lat="47.77784" lon="-3.57394">
        <ele>42</ele>
        <time>2018-07-18T09:29:05Z</time>
      </trkpt>
      <trkpt lat="47.77789" lon="-3.57392">
        <ele>42</ele>
        <time>2018-07-18T09:29:06Z</time>
      </trkpt>
      <trkpt lat="47.77793" lon="-3.57391">
        <ele>42</ele>
        <time>2018-07-18T09:29:07Z</time>
      </trkpt>
      <trkpt lat="47.77798" lon="-3.5739">
        <ele>42</ele>
        <time>2018-07-18T09:29:08Z</time>
      </trkpt>
      <trkpt lat="47.77803" lon="-3.57389">
        <ele>42</ele>
        <time>2018-07-18T09:29:09Z</time>
      </trkpt>
      <trkpt lat="47.77808" lon="-3.57387">
        <ele>42</ele>
        <time>2018-07-18T09:29:10Z</time>
      </trkpt>
      <trkpt lat="47.77813" lon="-3.57386">
        <ele>43</ele>
        <time>2018-07-18T09:29:11Z</time>
      </trkpt>
      <trkpt lat="47.77817" lon="-3.57385">
        <ele>43</ele>
        <time>2018-07-18T09:29:12Z</time>
      </trkpt>
      <trkpt lat="47.77822" lon="-3.57383">
        <ele>43</ele>
        <time>2018-07-18T09:29:13Z</time>
      </trkpt>
      <trkpt lat="47.77827" lon="-3.57382">
        <ele>43</ele>
        <time>2018-07-18T09:29:14Z</time>
      </trkpt>
      <trkpt lat="47.77831" lon="-3.57379">
        <ele>43</ele>
        <time>2018-07-18T09:29:15Z</time>
      </trkpt>
      <trkpt lat="47.77835" lon="-3.57377">
        <ele>43</ele>
        <time>2018-07-18T09:29:16Z</time>
      </trkpt>
      <trkpt lat="47.77839" lon="-3.57375">
        <ele>43</ele>
        <time>2018-07-18T09:29:17Z</time>
      </trkpt>
      <trkpt lat="47.77843" lon="-3.57373">
        <ele>43</ele>
        <time>2018-07-18T09:29:18Z</time>
      </trkpt>
      <trkpt lat="47.77848" lon="-3.57372">
        <ele>43</ele>
        <time>2018-07-18T09:29:19Z</time>
      </trkpt>
      <trkpt lat="47.77852" lon="-3.57372">
        <ele>44</ele>
        <time>2018-07-18T09:29:20Z</time>
      </trkpt>
      <trkpt lat="47.77857" lon="-3.57371">
        <ele>44</ele>
        <time>2018-07-18T09:29:21Z</time>
      </trkpt>
      <trkpt lat="47.77861" lon="-3.5737">
        <ele>44</ele>
        <time>2018-07-18T09:29:22Z</time>
      </trkpt>
      <trkpt lat="47.77866" lon="-3.57369">
        <ele>44</ele>
        <time>2018-07-18T09:29:23Z</time>
      </trkpt>
      <trkpt lat="47.7787" lon="-3.57367">
        <ele>44</ele>
        <time>2018-07-18T09:29:24Z</time>
      </trkpt>
      <trkpt lat="47.77875" lon="-3.57366">
        <ele>44</ele>
        <time>2018-07-18T09:29:25Z</time>
      </trkpt>
      <trkpt lat="47.77879" lon="-3.57366">
        <ele>44</ele>
        <time>2018-07-18T09:29:26Z</time>
      </trkpt>
      <trkpt lat="47.77884" lon="-3.57365">
        <ele>44</ele>
        <time>2018-07-18T09:29:27Z</time>
      </trkpt>
      <trkpt lat="47.77888" lon="-3.57363">
        <ele>44</ele>
        <time>2018-07-18T09:29:28Z</time>
      </trkpt>
      <trkpt lat="47.77893" lon="-3.57362">
        <ele>44</ele>
        <time>2018-07-18T09:29:29Z</time>
      </trkpt>
      <trkpt lat="47.77898" lon="-3.57362">
        <ele>44</ele>
        <time>2018-07-18T09:29:30Z</time>
      </trkpt>
      <trkpt lat="47.77903" lon="-3.57361">
        <ele>44</ele>
        <time>2018-07-18T09:29:31Z</time>
      </trkpt>
      <trkpt lat="47.77907" lon="-3.5736">
        <ele>44</ele>
        <time>2018-07-18T09:29:32Z</time>
      </trkpt>
      <trkpt lat="47.77912" lon="-3.5736">
        <ele>44</ele>
        <time>2018-07-18T09:29:33Z</time>
      </trkpt>
      <trkpt lat="47.77916" lon="-3.5736">
        <ele>44</ele>
        <time>2018-07-18T09:29:34Z</time>
      </trkpt>
      <trkpt lat="47.7792" lon="-3.5736">
        <ele>45</ele>
        <time>2018-07-18T09:29:35Z</time>
      </trkpt>
      <trkpt lat="47.77925" lon="-3.57359">
        <ele>45</ele>
        <time>2018-07-18T09:29:36Z</time>
      </trkpt>
      <trkpt lat="47.7793" lon="-3.57359">
        <ele>45</ele>
        <time>2018-07-18T09:29:37Z</time>
      </trkpt>
      <trkpt lat="47.77934" lon="-3.57359">
        <ele>45</ele>
        <time>2018-07-18T09:29:38Z</time>
      </trkpt>
      <trkpt lat="47.77939" lon="-3.57359">
        <ele>45</ele>
        <time>2018-07-18T09:29:39Z</time>
      </trkpt>
      <trkpt lat="47.77943" lon="-3.57359">
        <ele>45</ele>
        <time>2018-07-18T09:29:40Z</time>
      </trkpt>
      <trkpt lat="47.77948" lon="-3.57359">
        <ele>45</ele>
        <time>2018-07-18T09:29:41Z</time>
      </trkpt>
      <trkpt lat="47.77953" lon="-3.57359">
        <ele>45</ele>
        <time>2018-07-18T09:29:42Z</time>
      </trkpt>
      <trkpt lat="47.77958" lon="-3.57358">
        <ele>46</ele>
        <time>2018-07-18T09:29:43Z</time>
      </trkpt>
      <trkpt lat="47.77963" lon="-3.57357">
        <ele>46</ele>
        <time>2018-07-18T09:29:44Z</time>
      </trkpt>
      <trkpt lat="47.77969" lon="-3.57357">
        <ele>46</ele>
        <time>2018-07-18T09:29:45Z</time>
      </trkpt>
      <trkpt lat="47.77974" lon="-3.57357">
        <ele>46</ele>
        <time>2018-07-18T09:29:46Z</time>
      </trkpt>
      <trkpt lat="47.77978" lon="-3.57358">
        <ele>46</ele>
        <time>2018-07-18T09:29:47Z</time>
      </trkpt>
      <trkpt lat="47.77983" lon="-3.57358">
        <ele>46</ele>
        <time>2018-07-18T09:29:48Z</time>
      </trkpt>
      <trkpt lat="47.77987" lon="-3.57357">
        <ele>46</ele>
        <time>2018-07-18T09:29:49Z</time>
      </trkpt>
      <trkpt lat="47.77992" lon="-3.57357">
        <ele>46</ele>
        <time>2018-07-18T09:29:50Z</time>
      </trkpt>
      <trkpt lat="47.77997" lon="-3.57358">
        <ele>46</ele>
        <time>2018-07-18T09:29:51Z</time>
      </trkpt>
      <trkpt lat="47.78001" lon="-3.57361">
        <ele>46</ele>
        <time>2018-07-18T09:29:52Z</time>
      </trkpt>
      <trkpt lat="47.78003" lon="-3.57366">
        <ele>46</ele>
        <time>2018-07-18T09:29:53Z</time>
      </trkpt>
      <trkpt lat="47.78006" lon="-3.57371">
        <ele>46</ele>
        <time>2018-07-18T09:29:54Z</time>
      </trkpt>
      <trkpt lat="47.78009" lon="-3.57376">
        <ele>46</ele>
        <time>2018-07-18T09:29:55Z</time>
      </trkpt>
      <trkpt lat="47.78011" lon="-3.57383">
        <ele>46</ele>
        <time>2018-07-18T09:29:56Z</time>
      </trkpt>
      <trkpt lat="47.78014" lon="-3.57391">
        <ele>46</ele>
        <time>2018-07-18T09:29:57Z</time>
      </trkpt>
      <trkpt lat="47.78015" lon="-3.57397">
        <ele>46</ele>
        <time>2018-07-18T09:29:58Z</time>
      </trkpt>
      <trkpt lat="47.78018" lon="-3.57403">
        <ele>46</ele>
        <time>2018-07-18T09:29:59Z</time>
      </trkpt>
      <trkpt lat="47.78021" lon="-3.57409">
        <ele>46</ele>
        <time>2018-07-18T09:30:00Z</time>
      </trkpt>
      <trkpt lat="47.78024" lon="-3.57413">
        <ele>47</ele>
        <time>2018-07-18T09:30:01Z</time>
      </trkpt>
      <trkpt lat="47.78027" lon="-3.57417">
        <ele>47</ele>
        <time>2018-07-18T09:30:02Z</time>
      </trkpt>
      <trkpt lat="47.7803" lon="-3.57421">
        <ele>47</ele>
        <time>2018-07-18T09:30:03Z</time>
      </trkpt>
      <trkpt lat="47.78032" lon="-3.57424">
        <ele>47</ele>
        <time>2018-07-18T09:30:04Z</time>
      </trkpt>
      <trkpt lat="47.78035" lon="-3.57428">
        <ele>47</ele>
        <time>2018-07-18T09:30:05Z</time>
      </trkpt>
      <trkpt lat="47.78038" lon="-3.57431">
        <ele>47</ele>
        <time>2018-07-18T09:30:06Z</time>
      </trkpt>
      <trkpt lat="47.78039" lon="-3.57433">
        <ele>47</ele>
        <time>2018-07-18T09:30:07Z</time>
      </trkpt>
      <trkpt lat="47.78041" lon="-3.57436">
        <ele>47</ele>
        <time>2018-07-18T09:30:08Z</time>
      </trkpt>
      <trkpt lat="47.78043" lon="-3.57438">
        <ele>47</ele>
        <time>2018-07-18T09:30:09Z</time>
      </trkpt>
      <trkpt lat="47.78045" lon="-3.57441">
        <ele>47</ele>
        <time>2018-07-18T09:30:10Z</time>
      </trkpt>
      <trkpt lat="47.78046" lon="-3.57443">
        <ele>46</ele>
        <time>2018-07-18T09:30:11Z</time>
      </trkpt>
      <trkpt lat="47.78048" lon="-3.57446">
        <ele>46</ele>
        <time>2018-07-18T09:30:12Z</time>
      </trkpt>
      <trkpt lat="47.78051" lon="-3.57449">
        <ele>46</ele>
        <time>2018-07-18T09:30:13Z</time>
      </trkpt>
      <trkpt lat="47.78054" lon="-3.57453">
        <ele>46</ele>
        <time>2018-07-18T09:30:14Z</time>
      </trkpt>
      <trkpt lat="47.78056" lon="-3.57456">
        <ele>46</ele>
        <time>2018-07-18T09:30:15Z</time>
      </trkpt>
      <trkpt lat="47.78057" lon="-3.57459">
        <ele>46</ele>
        <time>2018-07-18T09:30:16Z</time>
      </trkpt>
      <trkpt lat="47.78057" lon="-3.57462">
        <ele>46</ele>
        <time>2018-07-18T09:30:17Z</time>
      </trkpt>
      <trkpt lat="47.78056" lon="-3.57467">
        <ele>46</ele>
        <time>2018-07-18T09:30:18Z</time>
      </trkpt>
      <trkpt lat="47.78056" lon="-3.57472">
        <ele>47</ele>
        <time>2018-07-18T09:30:19Z</time>
      </trkpt>
      <trkpt lat="47.78057" lon="-3.57477">
        <ele>47</ele>
        <time>2018-07-18T09:30:20Z</time>
      </trkpt>
      <trkpt lat="47.7806" lon="-3.57481">
        <ele>46</ele>
        <time>2018-07-18T09:30:21Z</time>
      </trkpt>
      <trkpt lat="47.78063" lon="-3.57486">
        <ele>46</ele>
        <time>2018-07-18T09:30:22Z</time>
      </trkpt>
      <trkpt lat="47.78067" lon="-3.5749">
        <ele>46</ele>
        <time>2018-07-18T09:30:23Z</time>
      </trkpt>
      <trkpt lat="47.78071" lon="-3.57493">
        <ele>45</ele>
        <time>2018-07-18T09:30:24Z</time>
      </trkpt>
      <trkpt lat="47.78075" lon="-3.57496">
        <ele>45</ele>
        <time>2018-07-18T09:30:25Z</time>
      </trkpt>
      <trkpt lat="47.78079" lon="-3.575">
        <ele>45</ele>
        <time>2018-07-18T09:30:26Z</time>
      </trkpt>
      <trkpt lat="47.78083" lon="-3.57504">
        <ele>44</ele>
        <time>2018-07-18T09:30:27Z</time>
      </trkpt>
      <trkpt lat="47.78087" lon="-3.57507">
        <ele>44</ele>
        <time>2018-07-18T09:30:28Z</time>
      </trkpt>
      <trkpt lat="47.78091" lon="-3.5751">
        <ele>44</ele>
        <time>2018-07-18T09:30:29Z</time>
      </trkpt>
      <trkpt lat="47.78095" lon="-3.57514">
        <ele>44</ele>
        <time>2018-07-18T09:30:30Z</time>
      </trkpt>
      <trkpt lat="47.781" lon="-3.57517">
        <ele>43</ele>
        <time>2018-07-18T09:30:31Z</time>
      </trkpt>
      <trkpt lat="47.78104" lon="-3.5752">
        <ele>43</ele>
        <time>2018-07-18T09:30:32Z</time>
      </trkpt>
      <trkpt lat="47.78107" lon="-3.57524">
        <ele>43</ele>
        <time>2018-07-18T09:30:33Z</time>
      </trkpt>
      <trkpt lat="47.78111" lon="-3.57527">
        <ele>43</ele>
        <time>2018-07-18T09:30:34Z</time>
      </trkpt>
      <trkpt lat="47.78115" lon="-3.57531">
        <ele>43</ele>
        <time>2018-07-18T09:30:35Z</time>
      </trkpt>
      <trkpt lat="47.78119" lon="-3.57534">
        <ele>43</ele>
        <time>2018-07-18T09:30:36Z</time>
      </trkpt>
      <trkpt lat="47.78123" lon="-3.57537">
        <ele>42</ele>
        <time>2018-07-18T09:30:37Z</time>
      </trkpt>
      <trkpt lat="47.78126" lon="-3.57541">
        <ele>42</ele>
        <time>2018-07-18T09:30:38Z</time>
      </trkpt>
      <trkpt lat="47.78129" lon="-3.57546">
        <ele>42</ele>
        <time>2018-07-18T09:30:39Z</time>
      </trkpt>
      <trkpt lat="47.7813" lon="-3.57551">
        <ele>43</ele>
        <time>2018-07-18T09:30:40Z</time>
      </trkpt>
      <trkpt lat="47.78131" lon="-3.57557">
        <ele>43</ele>
        <time>2018-07-18T09:30:41Z</time>
      </trkpt>
      <trkpt lat="47.78131" lon="-3.57564">
        <ele>43</ele>
        <time>2018-07-18T09:30:42Z</time>
      </trkpt>
      <trkpt lat="47.7813" lon="-3.57571">
        <ele>43</ele>
        <time>2018-07-18T09:30:43Z</time>
      </trkpt>
      <trkpt lat="47.7813" lon="-3.57577">
        <ele>43</ele>
        <time>2018-07-18T09:30:44Z</time>
      </trkpt>
      <trkpt lat="47.7813" lon="-3.57584">
        <ele>43</ele>
        <time>2018-07-18T09:30:45Z</time>
      </trkpt>
      <trkpt lat="47.7813" lon="-3.5759">
        <ele>43</ele>
        <time>2018-07-18T09:30:46Z</time>
      </trkpt>
      <trkpt lat="47.7813" lon="-3.57597">
        <ele>44</ele>
        <time>2018-07-18T09:30:47Z</time>
      </trkpt>
      <trkpt lat="47.78129" lon="-3.57603">
        <ele>44</ele>
        <time>2018-07-18T09:30:48Z</time>
      </trkpt>
      <trkpt lat="47.78129" lon="-3.5761">
        <ele>44</ele>
        <time>2018-07-18T09:30:49Z</time>
      </trkpt>
      <trkpt lat="47.78129" lon="-3.57617">
        <ele>44</ele>
        <time>2018-07-18T09:30:50Z</time>
      </trkpt>
      <trkpt lat="47.78129" lon="-3.57623">
        <ele>44</ele>
        <time>2018-07-18T09:30:51Z</time>
      </trkpt>
      <trkpt lat="47.78129" lon="-3.5763">
        <ele>44</ele>
        <time>2018-07-18T09:30:52Z</time>
      </trkpt>
      <trkpt lat="47.78129" lon="-3.57636">
        <ele>45</ele>
        <time>2018-07-18T09:30:53Z</time>
      </trkpt>
      <trkpt lat="47.7813" lon="-3.57643">
        <ele>45</ele>
        <time>2018-07-18T09:30:54Z</time>
      </trkpt>
      <trkpt lat="47.78131" lon="-3.57649">
        <ele>45</ele>
        <time>2018-07-18T09:30:55Z</time>
      </trkpt>
      <trkpt lat="47.78132" lon="-3.57655">
        <ele>45</ele>
        <time>2018-07-18T09:30:56Z</time>
      </trkpt>
      <trkpt lat="47.78133" lon="-3.57661">
        <ele>45</ele>
        <time>2018-07-18T09:30:57Z</time>
      </trkpt>
      <trkpt lat="47.78135" lon="-3.57668">
        <ele>45</ele>
        <time>2018-07-18T09:30:58Z</time>
      </trkpt>
      <trkpt lat="47.78136" lon="-3.57674">
        <ele>45</ele>
        <time>2018-07-18T09:30:59Z</time>
      </trkpt>
      <trkpt lat="47.78137" lon="-3.57679">
        <ele>45</ele>
        <time>2018-07-18T09:31:00Z</time>
      </trkpt>
      <trkpt lat="47.78138" lon="-3.57684">
        <ele>45</ele>
        <time>2018-07-18T09:31:01Z</time>
      </trkpt>
      <trkpt lat="47.78138" lon="-3.57691">
        <ele>45</ele>
        <time>2018-07-18T09:31:02Z</time>
      </trkpt>
      <trkpt lat="47.78139" lon="-3.57697">
        <ele>45</ele>
        <time>2018-07-18T09:31:03Z</time>
      </trkpt>
      <trkpt lat="47.7814" lon="-3.57702">
        <ele>45</ele>
        <time>2018-07-18T09:31:04Z</time>
      </trkpt>
      <trkpt lat="47.78141" lon="-3.57707">
        <ele>45</ele>
        <time>2018-07-18T09:31:05Z</time>
      </trkpt>
      <trkpt lat="47.78141" lon="-3.57713">
        <ele>45</ele>
        <time>2018-07-18T09:31:06Z</time>
      </trkpt>
      <trkpt lat="47.7814" lon="-3.5772">
        <ele>45</ele>
        <time>2018-07-18T09:31:07Z</time>
      </trkpt>
      <trkpt lat="47.78138" lon="-3.57726">
        <ele>45</ele>
        <time>2018-07-18T09:31:08Z</time>
      </trkpt>
      <trkpt lat="47.78138" lon="-3.57733">
        <ele>45</ele>
        <time>2018-07-18T09:31:09Z</time>
      </trkpt>
      <trkpt lat="47.78138" lon="-3.5774">
        <ele>45</ele>
        <time>2018-07-18T09:31:10Z</time>
      </trkpt>
      <trkpt lat="47.7814" lon="-3.57747">
        <ele>45</ele>
        <time>2018-07-18T09:31:11Z</time>
      </trkpt>
      <trkpt lat="47.78141" lon="-3.57753">
        <ele>45</ele>
        <time>2018-07-18T09:31:12Z</time>
      </trkpt>
      <trkpt lat="47.78142" lon="-3.5776">
        <ele>45</ele>
        <time>2018-07-18T09:31:13Z</time>
      </trkpt>
      <trkpt lat="47.78141" lon="-3.57766">
        <ele>44</ele>
        <time>2018-07-18T09:31:14Z</time>
      </trkpt>
      <trkpt lat="47.7814" lon="-3.57771">
        <ele>44</ele>
        <time>2018-07-18T09:31:15Z</time>
      </trkpt>
      <trkpt lat="47.78139" lon="-3.57777">
        <ele>44</ele>
        <time>2018-07-18T09:31:16Z</time>
      </trkpt>
      <trkpt lat="47.78138" lon="-3.57782">
        <ele>44</ele>
        <time>2018-07-18T09:31:17Z</time>
      </trkpt>
      <trkpt lat="47.78137" lon="-3.57787">
        <ele>44</ele>
        <time>2018-07-18T09:31:18Z</time>
      </trkpt>
      <trkpt lat="47.78136" lon="-3.57792">
        <ele>44</ele>
        <time>2018-07-18T09:31:19Z</time>
      </trkpt>
      <trkpt lat="47.78135" lon="-3.57797">
        <ele>44</ele>
        <time>2018-07-18T09:31:20Z</time>
      </trkpt>
      <trkpt lat="47.78135" lon="-3.57802">
        <ele>44</ele>
        <time>2018-07-18T09:31:21Z</time>
      </trkpt>
      <trkpt lat="47.78135" lon="-3.57806">
        <ele>44</ele>
        <time>2018-07-18T09:31:22Z</time>
      </trkpt>
      <trkpt lat="47.78135" lon="-3.57808">
        <ele>44</ele>
        <time>2018-07-18T09:31:23Z</time>
      </trkpt>
      <trkpt lat="47.78135" lon="-3.57809">
        <ele>44</ele>
        <time>2018-07-18T09:31:24Z</time>
      </trkpt>
      <trkpt lat="47.78135" lon="-3.5781">
        <ele>44</ele>
        <time>2018-07-18T09:31:25Z</time>
      </trkpt>
      <trkpt lat="47.78134" lon="-3.57811">
        <ele>44</ele>
        <time>2018-07-18T09:31:26Z</time>
      </trkpt>
      <trkpt lat="47.78134" lon="-3.57812">
        <ele>44</ele>
        <time>2018-07-18T09:31:27Z</time>
      </trkpt>
      <trkpt lat="47.78134" lon="-3.57813">
        <ele>44</ele>
        <time>2018-07-18T09:31:28Z</time>
      </trkpt>
      <trkpt lat="47.78134" lon="-3.57814">
        <ele>44</ele>
        <time>2018-07-18T09:31:29Z</time>
      </trkpt>
      <trkpt lat="47.78134" lon="-3.57815">
        <ele>44</ele>
        <time>2018-07-18T09:31:30Z</time>
      </trkpt>
      <trkpt lat="47.78134" lon="-3.57815">
        <ele>44</ele>
        <time>2018-07-18T09:31:31Z</time>
      </trkpt>
      <trkpt lat="47.78134" lon="-3.57816">
        <ele>44</ele>
        <time>2018-07-18T09:31:32Z</time>
      </trkpt>
      <trkpt lat="47.78133" lon="-3.57822">
        <ele>44</ele>
        <time>2018-07-18T09:31:33Z</time>
      </trkpt>
      <trkpt lat="47.78132" lon="-3.57824">
        <ele>44</ele>
        <time>2018-07-18T09:31:34Z</time>
      </trkpt>
      <trkpt lat="47.78131" lon="-3.57826">
        <ele>43</ele>
        <time>2018-07-18T09:31:35Z</time>
      </trkpt>
      <trkpt lat="47.78129" lon="-3.57829">
        <ele>43</ele>
        <time>2018-07-18T09:31:36Z</time>
      </trkpt>
      <trkpt lat="47.78127" lon="-3.57831">
        <ele>43</ele>
        <time>2018-07-18T09:31:37Z</time>
      </trkpt>
      <trkpt lat="47.78125" lon="-3.57834">
        <ele>43</ele>
        <time>2018-07-18T09:31:38Z</time>
      </trkpt>
      <trkpt lat="47.78123" lon="-3.57836">
        <ele>43</ele>
        <time>2018-07-18T09:31:39Z</time>
      </trkpt>
      <trkpt lat="47.7812" lon="-3.57838">
        <ele>43</ele>
        <time>2018-07-18T09:31:40Z</time>
      </trkpt>
      <trkpt lat="47.78116" lon="-3.57839">
        <ele>43</ele>
        <time>2018-07-18T09:31:41Z</time>
      </trkpt>
      <trkpt lat="47.78113" lon="-3.57839">
        <ele>43</ele>
        <time>2018-07-18T09:31:42Z</time>
      </trkpt>
      <trkpt lat="47.7811" lon="-3.5784">
        <ele>42</ele>
        <time>2018-07-18T09:31:43Z</time>
      </trkpt>
      <trkpt lat="47.78106" lon="-3.57841">
        <ele>42</ele>
        <time>2018-07-18T09:31:44Z</time>
      </trkpt>
      <trkpt lat="47.78103" lon="-3.57841">
        <ele>42</ele>
        <time>2018-07-18T09:31:45Z</time>
      </trkpt>
      <trkpt lat="47.78099" lon="-3.57841">
        <ele>42</ele>
        <time>2018-07-18T09:31:46Z</time>
      </trkpt>
      <trkpt lat="47.78095" lon="-3.57842">
        <ele>42</ele>
        <time>2018-07-18T09:31:47Z</time>
      </trkpt>
      <trkpt lat="47.78092" lon="-3.57842">
        <ele>42</ele>
        <time>2018-07-18T09:31:48Z</time>
      </trkpt>
      <trkpt lat="47.78089" lon="-3.57842">
        <ele>42</ele>
        <time>2018-07-18T09:31:49Z</time>
      </trkpt>
      <trkpt lat="47.78085" lon="-3.57842">
        <ele>42</ele>
        <time>2018-07-18T09:31:50Z</time>
      </trkpt>
      <trkpt lat="47.7808" lon="-3.57842">
        <ele>42</ele>
        <time>2018-07-18T09:31:51Z</time>
      </trkpt>
      <trkpt lat="47.78075" lon="-3.57842">
        <ele>42</ele>
        <time>2018-07-18T09:31:52Z</time>
      </trkpt>
      <trkpt lat="47.78071" lon="-3.57842">
        <ele>42</ele>
        <time>2018-07-18T09:31:53Z</time>
      </trkpt>
      <trkpt lat="47.78065" lon="-3.57842">
        <ele>42</ele>
        <time>2018-07-18T09:31:54Z</time>
      </trkpt>
      <trkpt lat="47.7806" lon="-3.57841">
        <ele>42</ele>
        <time>2018-07-18T09:31:55Z</time>
      </trkpt>
      <trkpt lat="47.78056" lon="-3.57841">
        <ele>41</ele>
        <time>2018-07-18T09:31:56Z</time>
      </trkpt>
      <trkpt lat="47.78052" lon="-3.5784">
        <ele>41</ele>
        <time>2018-07-18T09:31:57Z</time>
      </trkpt>
      <trkpt lat="47.78047" lon="-3.57838">
        <ele>41</ele>
        <time>2018-07-18T09:31:58Z</time>
      </trkpt>
      <trkpt lat="47.78042" lon="-3.57835">
        <ele>41</ele>
        <time>2018-07-18T09:31:59Z</time>
      </trkpt>
      <trkpt lat="47.78037" lon="-3.57832">
        <ele>41</ele>
        <time>2018-07-18T09:32:00Z</time>
      </trkpt>
      <trkpt lat="47.78033" lon="-3.57828">
        <ele>41</ele>
        <time>2018-07-18T09:32:01Z</time>
      </trkpt>
      <trkpt lat="47.78028" lon="-3.57825">
        <ele>40</ele>
        <time>2018-07-18T09:32:02Z</time>
      </trkpt>
      <trkpt lat="47.78023" lon="-3.57822">
        <ele>40</ele>
        <time>2018-07-18T09:32:03Z</time>
      </trkpt>
      <trkpt lat="47.78018" lon="-3.57819">
        <ele>40</ele>
        <time>2018-07-18T09:32:04Z</time>
      </trkpt>
      <trkpt lat="47.78014" lon="-3.57817">
        <ele>40</ele>
        <time>2018-07-18T09:32:05Z</time>
      </trkpt>
      <trkpt lat="47.78009" lon="-3.57814">
        <ele>39</ele>
        <time>2018-07-18T09:32:06Z</time>
      </trkpt>
      <trkpt lat="47.78003" lon="-3.57813">
        <ele>39</ele>
        <time>2018-07-18T09:32:07Z</time>
      </trkpt>
      <trkpt lat="47.77998" lon="-3.57811">
        <ele>39</ele>
        <time>2018-07-18T09:32:08Z</time>
      </trkpt>
      <trkpt lat="47.77993" lon="-3.57809">
        <ele>38</ele>
        <time>2018-07-18T09:32:09Z</time>
      </trkpt>
      <trkpt lat="47.77988" lon="-3.57808">
        <ele>38</ele>
        <time>2018-07-18T09:32:10Z</time>
      </trkpt>
      <trkpt lat="47.77983" lon="-3.57807">
        <ele>38</ele>
        <time>2018-07-18T09:32:11Z</time>
      </trkpt>
      <trkpt lat="47.77978" lon="-3.57805">
        <ele>38</ele>
        <time>2018-07-18T09:32:12Z</time>
      </trkpt>
      <trkpt lat="47.77973" lon="-3.57804">
        <ele>37</ele>
        <time>2018-07-18T09:32:13Z</time>
      </trkpt>
      <trkpt lat="47.77967" lon="-3.57802">
        <ele>37</ele>
        <time>2018-07-18T09:32:14Z</time>
      </trkpt>
      <trkpt lat="47.7796" lon="-3.57803">
        <ele>37</ele>
        <time>2018-07-18T09:32:15Z</time>
      </trkpt>
      <trkpt lat="47.77954" lon="-3.57804">
        <ele>37</ele>
        <time>2018-07-18T09:32:16Z</time>
      </trkpt>
      <trkpt lat="47.77948" lon="-3.57806">
        <ele>37</ele>
        <time>2018-07-18T09:32:17Z</time>
      </trkpt>
      <trkpt lat="47.77942" lon="-3.57806">
        <ele>37</ele>
        <time>2018-07-18T09:32:18Z</time>
      </trkpt>
      <trkpt lat="47.77937" lon="-3.57807">
        <ele>37</ele>
        <time>2018-07-18T09:32:19Z</time>
      </trkpt>
      <trkpt lat="47.77931" lon="-3.57806">
        <ele>37</ele>
        <time>2018-07-18T09:32:20Z</time>
      </trkpt>
      <trkpt lat="47.77925" lon="-3.57806">
        <ele>37</ele>
        <time>2018-07-18T09:32:21Z</time>
      </trkpt>
      <trkpt lat="47.77919" lon="-3.57808">
        <ele>37</ele>
        <time>2018-07-18T09:32:22Z</time>
      </trkpt>
      <trkpt lat="47.77914" lon="-3.5781">
        <ele>36</ele>
        <time>2018-07-18T09:32:23Z</time>
      </trkpt>
      <trkpt lat="47.7791" lon="-3.57813">
        <ele>36</ele>
        <time>2018-07-18T09:32:24Z</time>
      </trkpt>
      <trkpt lat="47.77908" lon="-3.57816">
        <ele>36</ele>
        <time>2018-07-18T09:32:25Z</time>
      </trkpt>
      <trkpt lat="47.77908" lon="-3.57821">
        <ele>36</ele>
        <time>2018-07-18T09:32:26Z</time>
      </trkpt>
      <trkpt lat="47.77909" lon="-3.57826">
        <ele>36</ele>
        <time>2018-07-18T09:32:27Z</time>
      </trkpt>
      <trkpt lat="47.7791" lon="-3.57831">
        <ele>36</ele>
        <time>2018-07-18T09:32:28Z</time>
      </trkpt>
      <trkpt lat="47.77911" lon="-3.57836">
        <ele>36</ele>
        <time>2018-07-18T09:32:29Z</time>
      </trkpt>
      <trkpt lat="47.77912" lon="-3.57842">
        <ele>36</ele>
        <time>2018-07-18T09:32:30Z</time>
      </trkpt>
      <trkpt lat="47.77913" lon="-3.57846">
        <ele>36</ele>
        <time>2018-07-18T09:32:31Z</time>
      </trkpt>
      <trkpt lat="47.77914" lon="-3.57852">
        <ele>36</ele>
        <time>2018-07-18T09:32:32Z</time>
      </trkpt>
      <trkpt lat="47.77915" lon="-3.57856">
        <ele>36</ele>
        <time>2018-07-18T09:32:33Z</time>
      </trkpt>
      <trkpt lat="47.77917" lon="-3.57861">
        <ele>36</ele>
        <time>2018-07-18T09:32:34Z</time>
      </trkpt>
      <trkpt lat="47.77918" lon="-3.57866">
        <ele>36</ele>
        <time>2018-07-18T09:32:35Z</time>
      </trkpt>
      <trkpt lat="47.77919" lon="-3.57871">
        <ele>36</ele>
        <time>2018-07-18T09:32:36Z</time>
      </trkpt>
      <trkpt lat="47.7792" lon="-3.57876">
        <ele>36</ele>
        <time>2018-07-18T09:32:37Z</time>
      </trkpt>
      <trkpt lat="47.77921" lon="-3.57881">
        <ele>36</ele>
        <time>2018-07-18T09:32:38Z</time>
      </trkpt>
      <trkpt lat="47.77922" lon="-3.57887">
        <ele>36</ele>
        <time>2018-07-18T09:32:39Z</time>
      </trkpt>
      <trkpt lat="47.77923" lon="-3.57892">
        <ele>36</ele>
        <time>2018-07-18T09:32:40Z</time>
      </trkpt>
      <trkpt lat="47.77923" lon="-3.57898">
        <ele>36</ele>
        <time>2018-07-18T09:32:41Z</time>
      </trkpt>
      <trkpt lat="47.77923" lon="-3.57903">
        <ele>36</ele>
        <time>2018-07-18T09:32:42Z</time>
      </trkpt>
      <trkpt lat="47.77924" lon="-3.5791">
        <ele>36</ele>
        <time>2018-07-18T09:32:43Z</time>
      </trkpt>
      <trkpt lat="47.77924" lon="-3.57915">
        <ele>36</ele>
        <time>2018-07-18T09:32:44Z</time>
      </trkpt>
      <trkpt lat="47.77924" lon="-3.57921">
        <ele>36</ele>
        <time>2018-07-18T09:32:45Z</time>
      </trkpt>
      <trkpt lat="47.77925" lon="-3.57927">
        <ele>36</ele>
        <time>2018-07-18T09:32:46Z</time>
      </trkpt>
      <trkpt lat="47.77925" lon="-3.57934">
        <ele>36</ele>
        <time>2018-07-18T09:32:47Z</time>
      </trkpt>
      <trkpt lat="47.77925" lon="-3.5794">
        <ele>36</ele>
        <time>2018-07-18T09:32:48Z</time>
      </trkpt>
      <trkpt lat="47.77926" lon="-3.57947">
        <ele>36</ele>
        <time>2018-07-18T09:32:49Z</time>
      </trkpt>
      <trkpt lat="47.77926" lon="-3.57951">
        <ele>36</ele>
        <time>2018-07-18T09:32:50Z</time>
      </trkpt>
      <trkpt lat="47.77926" lon="-3.57956">
        <ele>36</ele>
        <time>2018-07-18T09:32:51Z</time>
      </trkpt>
      <trkpt lat="47.77926" lon="-3.5796">
        <ele>36</ele>
        <time>2018-07-18T09:32:52Z</time>
      </trkpt>
      <trkpt lat="47.77926" lon="-3.57965">
        <ele>36</ele>
        <time>2018-07-18T09:32:53Z</time>
      </trkpt>
      <trkpt lat="47.77926" lon="-3.57971">
        <ele>36</ele>
        <time>2018-07-18T09:32:54Z</time>
      </trkpt>
      <trkpt lat="47.77926" lon="-3.57976">
        <ele>36</ele>
        <time>2018-07-18T09:32:55Z</time>
      </trkpt>
      <trkpt lat="47.77926" lon="-3.57982">
        <ele>36</ele>
        <time>2018-07-18T09:32:56Z</time>
      </trkpt>
      <trkpt lat="47.77926" lon="-3.57986">
        <ele>37</ele>
        <time>2018-07-18T09:32:57Z</time>
      </trkpt>
      <trkpt lat="47.77925" lon="-3.57992">
        <ele>37</ele>
        <time>2018-07-18T09:32:58Z</time>
      </trkpt>
      <trkpt lat="47.77923" lon="-3.57997">
        <ele>37</ele>
        <time>2018-07-18T09:32:59Z</time>
      </trkpt>
      <trkpt lat="47.77922" lon="-3.58002">
        <ele>37</ele>
        <time>2018-07-18T09:33:00Z</time>
      </trkpt>
      <trkpt lat="47.77922" lon="-3.58004">
        <ele>37</ele>
        <time>2018-07-18T09:33:01Z</time>
      </trkpt>
      <trkpt lat="47.77921" lon="-3.58006">
        <ele>37</ele>
        <time>2018-07-18T09:33:02Z</time>
      </trkpt>
      <trkpt lat="47.77921" lon="-3.58008">
        <ele>37</ele>
        <time>2018-07-18T09:33:03Z</time>
      </trkpt>
      <trkpt lat="47.7792" lon="-3.5801">
        <ele>37</ele>
        <time>2018-07-18T09:33:04Z</time>
      </trkpt>
      <trkpt lat="47.7792" lon="-3.58012">
        <ele>37</ele>
        <time>2018-07-18T09:33:05Z</time>
      </trkpt>
      <trkpt lat="47.7792" lon="-3.58013">
        <ele>37</ele>
        <time>2018-07-18T09:33:06Z</time>
      </trkpt>
      <trkpt lat="47.7792" lon="-3.58015">
        <ele>37</ele>
        <time>2018-07-18T09:33:07Z</time>
      </trkpt>
      <trkpt lat="47.77919" lon="-3.58016">
        <ele>37</ele>
        <time>2018-07-18T09:33:08Z</time>
      </trkpt>
      <trkpt lat="47.77919" lon="-3.58017">
        <ele>37</ele>
        <time>2018-07-18T09:33:09Z</time>
      </trkpt>
      <trkpt lat="47.77919" lon="-3.58018">
        <ele>37</ele>
        <time>2018-07-18T09:33:10Z</time>
      </trkpt>
      <trkpt lat="47.77919" lon="-3.58019">
        <ele>37</ele>
        <time>2018-07-18T09:33:11Z</time>
      </trkpt>
      <trkpt lat="47.77918" lon="-3.5802">
        <ele>38</ele>
        <time>2018-07-18T09:33:12Z</time>
      </trkpt>
      <trkpt lat="47.77918" lon="-3.58021">
        <ele>38</ele>
        <time>2018-07-18T09:33:13Z</time>
      </trkpt>
      <trkpt lat="47.77918" lon="-3.58022">
        <ele>38</ele>
        <time>2018-07-18T09:33:14Z</time>
      </trkpt>
      <trkpt lat="47.77918" lon="-3.58022">
        <ele>38</ele>
        <time>2018-07-18T09:33:15Z</time>
      </trkpt>
      <trkpt lat="47.77918" lon="-3.58023">
        <ele>38</ele>
        <time>2018-07-18T09:33:16Z</time>
      </trkpt>
      <trkpt lat="47.77916" lon="-3.58029">
        <ele>38</ele>
        <time>2018-07-18T09:33:17Z</time>
      </trkpt>
      <trkpt lat="47.77915" lon="-3.58029">
        <ele>38</ele>
        <time>2018-07-18T09:33:18Z</time>
      </trkpt>
      <trkpt lat="47.77914" lon="-3.58028">
        <ele>38</ele>
        <time>2018-07-18T09:33:19Z</time>
      </trkpt>
      <trkpt lat="47.77913" lon="-3.58027">
        <ele>38</ele>
        <time>2018-07-18T09:33:20Z</time>
      </trkpt>
      <trkpt lat="47.77911" lon="-3.58026">
        <ele>38</ele>
        <time>2018-07-18T09:33:21Z</time>
      </trkpt>
      <trkpt lat="47.7791" lon="-3.58026">
        <ele>38</ele>
        <time>2018-07-18T09:33:22Z</time>
      </trkpt>
      <trkpt lat="47.77909" lon="-3.58025">
        <ele>38</ele>
        <time>2018-07-18T09:33:23Z</time>
      </trkpt>
      <trkpt lat="47.77907" lon="-3.58024">
        <ele>38</ele>
        <time>2018-07-18T09:33:24Z</time>
      </trkpt>
      <trkpt lat="47.77904" lon="-3.58024">
        <ele>38</ele>
        <time>2018-07-18T09:33:25Z</time>
      </trkpt>
      <trkpt lat="47.77902" lon="-3.58022">
        <ele>38</ele>
        <time>2018-07-18T09:33:26Z</time>
      </trkpt>
      <trkpt lat="47.779" lon="-3.58022">
        <ele>38</ele>
        <time>2018-07-18T09:33:27Z</time>
      </trkpt>
      <trkpt lat="47.77898" lon="-3.58021">
        <ele>38</ele>
        <time>2018-07-18T09:33:28Z</time>
      </trkpt>
      <trkpt lat="47.77897" lon="-3.58021">
        <ele>38</ele>
        <time>2018-07-18T09:33:29Z</time>
      </trkpt>
      <trkpt lat="47.77897" lon="-3.58021">
        <ele>38</ele>
        <time>2018-07-18T09:33:30Z</time>
      </trkpt>
      <trkpt lat="47.77897" lon="-3.58021">
        <ele>38</ele>
        <time>2018-07-18T09:33:31Z</time>
      </trkpt>
      <trkpt lat="47.77896" lon="-3.58021">
        <ele>38</ele>
        <time>2018-07-18T09:33:32Z</time>
      </trkpt>
      <trkpt lat="47.77895" lon="-3.58021">
        <ele>38</ele>
        <time>2018-07-18T09:33:33Z</time>
      </trkpt>
      <trkpt lat="47.77894" lon="-3.5802">
        <ele>38</ele>
        <time>2018-07-18T09:33:34Z</time>
      </trkpt>
      <trkpt lat="47.77892" lon="-3.5802">
        <ele>38</ele>
        <time>2018-07-18T09:33:35Z</time>
      </trkpt>
      <trkpt lat="47.7789" lon="-3.5802">
        <ele>38</ele>
        <time>2018-07-18T09:33:36Z</time>
      </trkpt>
      <trkpt lat="47.77887" lon="-3.58019">
        <ele>38</ele>
        <time>2018-07-18T09:33:37Z</time>
      </trkpt>
      <trkpt lat="47.77883" lon="-3.58019">
        <ele>38</ele>
        <time>2018-07-18T09:33:38Z</time>
      </trkpt>
      <trkpt lat="47.7788" lon="-3.58017">
        <ele>38</ele>
        <time>2018-07-18T09:33:39Z</time>
      </trkpt>
      <trkpt lat="47.77876" lon="-3.58016">
        <ele>38</ele>
        <time>2018-07-18T09:33:40Z</time>
      </trkpt>
      <trkpt lat="47.77873" lon="-3.58016">
        <ele>38</ele>
        <time>2018-07-18T09:33:41Z</time>
      </trkpt>
      <trkpt lat="47.77869" lon="-3.58015">
        <ele>38</ele>
        <time>2018-07-18T09:33:42Z</time>
      </trkpt>
      <trkpt lat="47.77865" lon="-3.58013">
        <ele>38</ele>
        <time>2018-07-18T09:33:43Z</time>
      </trkpt>
      <trkpt lat="47.77861" lon="-3.58011">
        <ele>38</ele>
        <time>2018-07-18T09:33:44Z</time>
      </trkpt>
      <trkpt lat="47.77857" lon="-3.58009">
        <ele>38</ele>
        <time>2018-07-18T09:33:45Z</time>
      </trkpt>
      <trkpt lat="47.77853" lon="-3.58006">
        <ele>38</ele>
        <time>2018-07-18T09:33:46Z</time>
      </trkpt>
      <trkpt lat="47.77848" lon="-3.58004">
        <ele>38</ele>
        <time>2018-07-18T09:33:47Z</time>
      </trkpt>
      <trkpt lat="47.77844" lon="-3.58001">
        <ele>37</ele>
        <time>2018-07-18T09:33:48Z</time>
      </trkpt>
      <trkpt lat="47.77839" lon="-3.57998">
        <ele>38</ele>
        <time>2018-07-18T09:33:49Z</time>
      </trkpt>
      <trkpt lat="47.77835" lon="-3.57994">
        <ele>37</ele>
        <time>2018-07-18T09:33:50Z</time>
      </trkpt>
      <trkpt lat="47.7783" lon="-3.5799">
        <ele>37</ele>
        <time>2018-07-18T09:33:51Z</time>
      </trkpt>
      <trkpt lat="47.77826" lon="-3.57985">
        <ele>37</ele>
        <time>2018-07-18T09:33:52Z</time>
      </trkpt>
      <trkpt lat="47.77822" lon="-3.57981">
        <ele>37</ele>
        <time>2018-07-18T09:33:53Z</time>
      </trkpt>
      <trkpt lat="47.77818" lon="-3.57977">
        <ele>37</ele>
        <time>2018-07-18T09:33:54Z</time>
      </trkpt>
      <trkpt lat="47.77815" lon="-3.57974">
        <ele>37</ele>
        <time>2018-07-18T09:33:55Z</time>
      </trkpt>
      <trkpt lat="47.77812" lon="-3.57971">
        <ele>37</ele>
        <time>2018-07-18T09:33:56Z</time>
      </trkpt>
      <trkpt lat="47.77809" lon="-3.57967">
        <ele>37</ele>
        <time>2018-07-18T09:33:57Z</time>
      </trkpt>
      <trkpt lat="47.77805" lon="-3.57964">
        <ele>37</ele>
        <time>2018-07-18T09:33:58Z</time>
      </trkpt>
      <trkpt lat="47.77802" lon="-3.57961">
        <ele>36</ele>
        <time>2018-07-18T09:33:59Z</time>
      </trkpt>
      <trkpt lat="47.77798" lon="-3.57957">
        <ele>36</ele>
        <time>2018-07-18T09:34:00Z</time>
      </trkpt>
      <trkpt lat="47.77794" lon="-3.57952">
        <ele>36</ele>
        <time>2018-07-18T09:34:01Z</time>
      </trkpt>
      <trkpt lat="47.7779" lon="-3.57948">
        <ele>36</ele>
        <time>2018-07-18T09:34:02Z</time>
      </trkpt>
      <trkpt lat="47.77786" lon="-3.57944">
        <ele>36</ele>
        <time>2018-07-18T09:34:03Z</time>
      </trkpt>
      <trkpt lat="47.77782" lon="-3.5794">
        <ele>36</ele>
        <time>2018-07-18T09:34:04Z</time>
      </trkpt>
      <trkpt lat="47.77778" lon="-3.57938">
        <ele>35</ele>
        <time>2018-07-18T09:34:05Z</time>
      </trkpt>
      <trkpt lat="47.77773" lon="-3.57936">
        <ele>35</ele>
        <time>2018-07-18T09:34:06Z</time>
      </trkpt>
      <trkpt lat="47.77769" lon="-3.57935">
        <ele>35</ele>
        <time>2018-07-18T09:34:07Z</time>
      </trkpt>
      <trkpt lat="47.77764" lon="-3.57934">
        <ele>35</ele>
        <time>2018-07-18T09:34:08Z</time>
      </trkpt>
      <trkpt lat="47.77759" lon="-3.57934">
        <ele>34</ele>
        <time>2018-07-18T09:34:09Z</time>
      </trkpt>
      <trkpt lat="47.77754" lon="-3.57934">
        <ele>34</ele>
        <time>2018-07-18T09:34:10Z</time>
      </trkpt>
      <trkpt lat="47.77749" lon="-3.57934">
        <ele>34</ele>
        <time>2018-07-18T09:34:11Z</time>
      </trkpt>
      <trkpt lat="47.77744" lon="-3.57932">
        <ele>34</ele>
        <time>2018-07-18T09:34:12Z</time>
      </trkpt>
      <trkpt lat="47.77738" lon="-3.57931">
        <ele>33</ele>
        <time>2018-07-18T09:34:13Z</time>
      </trkpt>
      <trkpt lat="47.77733" lon="-3.57929">
        <ele>33</ele>
        <time>2018-07-18T09:34:14Z</time>
      </trkpt>
      <trkpt lat="47.77728" lon="-3.57926">
        <ele>33</ele>
        <time>2018-07-18T09:34:15Z</time>
      </trkpt>
      <trkpt lat="47.77723" lon="-3.57923">
        <ele>33</ele>
        <time>2018-07-18T09:34:16Z</time>
      </trkpt>
      <trkpt lat="47.77718" lon="-3.5792">
        <ele>32</ele>
        <time>2018-07-18T09:34:17Z</time>
      </trkpt>
      <trkpt lat="47.77713" lon="-3.57915">
        <ele>32</ele>
        <time>2018-07-18T09:34:18Z</time>
      </trkpt>
      <trkpt lat="47.77709" lon="-3.57911">
        <ele>32</ele>
        <time>2018-07-18T09:34:19Z</time>
      </trkpt>
      <trkpt lat="47.77705" lon="-3.57907">
        <ele>32</ele>
        <time>2018-07-18T09:34:20Z</time>
      </trkpt>
      <trkpt lat="47.77701" lon="-3.57905">
        <ele>32</ele>
        <time>2018-07-18T09:34:21Z</time>
      </trkpt>
      <trkpt lat="47.77697" lon="-3.57904">
        <ele>32</ele>
        <time>2018-07-18T09:34:22Z</time>
      </trkpt>
      <trkpt lat="47.77694" lon="-3.57908">
        <ele>32</ele>
        <time>2018-07-18T09:34:23Z</time>
      </trkpt>
      <trkpt lat="47.77692" lon="-3.57911">
        <ele>32</ele>
        <time>2018-07-18T09:34:24Z</time>
      </trkpt>
      <trkpt lat="47.77689" lon="-3.57915">
        <ele>32</ele>
        <time>2018-07-18T09:34:25Z</time>
      </trkpt>
      <trkpt lat="47.77687" lon="-3.57919">
        <ele>32</ele>
        <time>2018-07-18T09:34:26Z</time>
      </trkpt>
      <trkpt lat="47.77684" lon="-3.57922">
        <ele>33</ele>
        <time>2018-07-18T09:34:27Z</time>
      </trkpt>
      <trkpt lat="47.77682" lon="-3.57926">
        <ele>33</ele>
        <time>2018-07-18T09:34:28Z</time>
      </trkpt>
      <trkpt lat="47.77679" lon="-3.5793">
        <ele>33</ele>
        <time>2018-07-18T09:34:29Z</time>
      </trkpt>
      <trkpt lat="47.77677" lon="-3.57935">
        <ele>34</ele>
        <time>2018-07-18T09:34:30Z</time>
      </trkpt>
      <trkpt lat="47.77675" lon="-3.5794">
        <ele>34</ele>
        <time>2018-07-18T09:34:31Z</time>
      </trkpt>
      <trkpt lat="47.77674" lon="-3.57946">
        <ele>34</ele>
        <time>2018-07-18T09:34:32Z</time>
      </trkpt>
      <trkpt lat="47.77673" lon="-3.57951">
        <ele>35</ele>
        <time>2018-07-18T09:34:33Z</time>
      </trkpt>
      <trkpt lat="47.77672" lon="-3.57957">
        <ele>35</ele>
        <time>2018-07-18T09:34:34Z</time>
      </trkpt>
      <trkpt lat="47.77672" lon="-3.57963">
        <ele>35</ele>
        <time>2018-07-18T09:34:35Z</time>
      </trkpt>
      <trkpt lat="47.77671" lon="-3.57969">
        <ele>36</ele>
        <time>2018-07-18T09:34:36Z</time>
      </trkpt>
      <trkpt lat="47.77671" lon="-3.57974">
        <ele>36</ele>
        <time>2018-07-18T09:34:37Z</time>
      </trkpt>
      <trkpt lat="47.77671" lon="-3.5798">
        <ele>36</ele>
        <time>2018-07-18T09:34:38Z</time>
      </trkpt>
      <trkpt lat="47.77671" lon="-3.57986">
        <ele>36</ele>
        <time>2018-07-18T09:34:39Z</time>
      </trkpt>
      <trkpt lat="47.7767" lon="-3.57992">
        <ele>37</ele>
        <time>2018-07-18T09:34:40Z</time>
      </trkpt>
      <trkpt lat="47.7767" lon="-3.57998">
        <ele>37</ele>
        <time>2018-07-18T09:34:41Z</time>
      </trkpt>
      <trkpt lat="47.7767" lon="-3.58005">
        <ele>37</ele>
        <time>2018-07-18T09:34:42Z</time>
      </trkpt>
      <trkpt lat="47.77671" lon="-3.58011">
        <ele>37</ele>
        <time>2018-07-18T09:34:43Z</time>
      </trkpt>
      <trkpt lat="47.77672" lon="-3.58018">
        <ele>37</ele>
        <time>2018-07-18T09:34:44Z</time>
      </trkpt>
      <trkpt lat="47.77674" lon="-3.58024">
        <ele>37</ele>
        <time>2018-07-18T09:34:45Z</time>
      </trkpt>
      <trkpt lat="47.77677" lon="-3.5803">
        <ele>37</ele>
        <time>2018-07-18T09:34:46Z</time>
      </trkpt>
      <trkpt lat="47.77679" lon="-3.58036">
        <ele>37</ele>
        <time>2018-07-18T09:34:47Z</time>
      </trkpt>
      <trkpt lat="47.77681" lon="-3.58041">
        <ele>37</ele>
        <time>2018-07-18T09:34:48Z</time>
      </trkpt>
      <trkpt lat="47.77684" lon="-3.58046">
        <ele>37</ele>
        <time>2018-07-18T09:34:49Z</time>
      </trkpt>
      <trkpt lat="47.77686" lon="-3.58051">
        <ele>37</ele>
        <time>2018-07-18T09:34:50Z</time>
      </trkpt>
      <trkpt lat="47.77686" lon="-3.58058">
        <ele>37</ele>
        <time>2018-07-18T09:34:51Z</time>
      </trkpt>
      <trkpt lat="47.77687" lon="-3.58065">
        <ele>37</ele>
        <time>2018-07-18T09:34:52Z</time>
      </trkpt>
      <trkpt lat="47.77687" lon="-3.58072">
        <ele>37</ele>
        <time>2018-07-18T09:34:53Z</time>
      </trkpt>
      <trkpt lat="47.77687" lon="-3.5808">
        <ele>36</ele>
        <time>2018-07-18T09:34:54Z</time>
      </trkpt>
      <trkpt lat="47.77687" lon="-3.58088">
        <ele>36</ele>
        <time>2018-07-18T09:34:55Z</time>
      </trkpt>
      <trkpt lat="47.77686" lon="-3.58095">
        <ele>36</ele>
        <time>2018-07-18T09:34:56Z</time>
      </trkpt>
      <trkpt lat="47.77686" lon="-3.58103">
        <ele>36</ele>
        <time>2018-07-18T09:34:57Z</time>
      </trkpt>
      <trkpt lat="47.77685" lon="-3.58111">
        <ele>36</ele>
        <time>2018-07-18T09:34:58Z</time>
      </trkpt>
      <trkpt lat="47.77685" lon="-3.58118">
        <ele>36</ele>
        <time>2018-07-18T09:34:59Z</time>
      </trkpt>
      <trkpt lat="47.77684" lon="-3.58126">
        <ele>36</ele>
        <time>2018-07-18T09:35:00Z</time>
      </trkpt>
      <trkpt lat="47.77684" lon="-3.58134">
        <ele>36</ele>
        <time>2018-07-18T09:35:01Z</time>
      </trkpt>
      <trkpt lat="47.77684" lon="-3.58141">
        <ele>36</ele>
        <time>2018-07-18T09:35:02Z</time>
      </trkpt>
      <trkpt lat="47.77684" lon="-3.58149">
        <ele>36</ele>
        <time>2018-07-18T09:35:03Z</time>
      </trkpt>
      <trkpt lat="47.77683" lon="-3.58156">
        <ele>36</ele>
        <time>2018-07-18T09:35:04Z</time>
      </trkpt>
      <trkpt lat="47.77683" lon="-3.58164">
        <ele>36</ele>
        <time>2018-07-18T09:35:05Z</time>
      </trkpt>
      <trkpt lat="47.77683" lon="-3.58171">
        <ele>36</ele>
        <time>2018-07-18T09:35:06Z</time>
      </trkpt>
      <trkpt lat="47.77683" lon="-3.58178">
        <ele>37</ele>
        <time>2018-07-18T09:35:07Z</time>
      </trkpt>
      <trkpt lat="47.77683" lon="-3.58186">
        <ele>37</ele>
        <time>2018-07-18T09:35:08Z</time>
      </trkpt>
      <trkpt lat="47.77683" lon="-3.58193">
        <ele>37</ele>
        <time>2018-07-18T09:35:09Z</time>
      </trkpt>
      <trkpt lat="47.77683" lon="-3.582">
        <ele>37</ele>
        <time>2018-07-18T09:35:10Z</time>
      </trkpt>
      <trkpt lat="47.77683" lon="-3.58208">
        <ele>37</ele>
        <time>2018-07-18T09:35:11Z</time>
      </trkpt>
      <trkpt lat="47.77683" lon="-3.58216">
        <ele>37</ele>
        <time>2018-07-18T09:35:12Z</time>
      </trkpt>
      <trkpt lat="47.77683" lon="-3.58223">
        <ele>37</ele>
        <time>2018-07-18T09:35:13Z</time>
      </trkpt>
      <trkpt lat="47.77683" lon="-3.58231">
        <ele>37</ele>
        <time>2018-07-18T09:35:14Z</time>
      </trkpt>
      <trkpt lat="47.77684" lon="-3.58239">
        <ele>37</ele>
        <time>2018-07-18T09:35:15Z</time>
      </trkpt>
      <trkpt lat="47.77684" lon="-3.58246">
        <ele>37</ele>
        <time>2018-07-18T09:35:16Z</time>
      </trkpt>
      <trkpt lat="47.77684" lon="-3.58254">
        <ele>38</ele>
        <time>2018-07-18T09:35:17Z</time>
      </trkpt>
      <trkpt lat="47.77685" lon="-3.58262">
        <ele>38</ele>
        <time>2018-07-18T09:35:18Z</time>
      </trkpt>
      <trkpt lat="47.77685" lon="-3.58269">
        <ele>38</ele>
        <time>2018-07-18T09:35:19Z</time>
      </trkpt>
      <trkpt lat="47.77685" lon="-3.58276">
        <ele>38</ele>
        <time>2018-07-18T09:35:20Z</time>
      </trkpt>
      <trkpt lat="47.77685" lon="-3.58284">
        <ele>38</ele>
        <time>2018-07-18T09:35:21Z</time>
      </trkpt>
      <trkpt lat="47.77686" lon="-3.58292">
        <ele>38</ele>
        <time>2018-07-18T09:35:22Z</time>
      </trkpt>
      <trkpt lat="47.77686" lon="-3.58299">
        <ele>38</ele>
        <time>2018-07-18T09:35:23Z</time>
      </trkpt>
      <trkpt lat="47.77686" lon="-3.58305">
        <ele>38</ele>
        <time>2018-07-18T09:35:24Z</time>
      </trkpt>
      <trkpt lat="47.77687" lon="-3.58311">
        <ele>38</ele>
        <time>2018-07-18T09:35:25Z</time>
      </trkpt>
      <trkpt lat="47.77688" lon="-3.58317">
        <ele>38</ele>
        <time>2018-07-18T09:35:26Z</time>
      </trkpt>
      <trkpt lat="47.77691" lon="-3.5832">
        <ele>39</ele>
        <time>2018-07-18T09:35:27Z</time>
      </trkpt>
      <trkpt lat="47.77694" lon="-3.58322">
        <ele>39</ele>
        <time>2018-07-18T09:35:28Z</time>
      </trkpt>
      <trkpt lat="47.77698" lon="-3.58323">
        <ele>39</ele>
        <time>2018-07-18T09:35:29Z</time>
      </trkpt>
      <trkpt lat="47.77703" lon="-3.58323">
        <ele>39</ele>
        <time>2018-07-18T09:35:30Z</time>
      </trkpt>
      <trkpt lat="47.77707" lon="-3.58323">
        <ele>39</ele>
        <time>2018-07-18T09:35:31Z</time>
      </trkpt>
      <trkpt lat="47.77712" lon="-3.58322">
        <ele>39</ele>
        <time>2018-07-18T09:35:32Z</time>
      </trkpt>
      <trkpt lat="47.77717" lon="-3.58322">
        <ele>39</ele>
        <time>2018-07-18T09:35:33Z</time>
      </trkpt>
      <trkpt lat="47.77722" lon="-3.58321">
        <ele>39</ele>
        <time>2018-07-18T09:35:34Z</time>
      </trkpt>
      <trkpt lat="47.77726" lon="-3.5832">
        <ele>39</ele>
        <time>2018-07-18T09:35:35Z</time>
      </trkpt>
      <trkpt lat="47.77731" lon="-3.58318">
        <ele>38</ele>
        <time>2018-07-18T09:35:36Z</time>
      </trkpt>
      <trkpt lat="47.77736" lon="-3.58317">
        <ele>38</ele>
        <time>2018-07-18T09:35:37Z</time>
      </trkpt>
      <trkpt lat="47.77741" lon="-3.58316">
        <ele>38</ele>
        <time>2018-07-18T09:35:38Z</time>
      </trkpt>
      <trkpt lat="47.77746" lon="-3.58315">
        <ele>38</ele>
        <time>2018-07-18T09:35:39Z</time>
      </trkpt>
      <trkpt lat="47.77751" lon="-3.58314">
        <ele>38</ele>
        <time>2018-07-18T09:35:40Z</time>
      </trkpt>
      <trkpt lat="47.77756" lon="-3.58312">
        <ele>38</ele>
        <time>2018-07-18T09:35:41Z</time>
      </trkpt>
      <trkpt lat="47.77761" lon="-3.58311">
        <ele>38</ele>
        <time>2018-07-18T09:35:42Z</time>
      </trkpt>
      <trkpt lat="47.77766" lon="-3.58309">
        <ele>38</ele>
        <time>2018-07-18T09:35:43Z</time>
      </trkpt>
      <trkpt lat="47.77771" lon="-3.58308">
        <ele>38</ele>
        <time>2018-07-18T09:35:44Z</time>
      </trkpt>
      <trkpt lat="47.77776" lon="-3.58307">
        <ele>38</ele>
        <time>2018-07-18T09:35:45Z</time>
      </trkpt>
      <trkpt lat="47.77781" lon="-3.58305">
        <ele>38</ele>
        <time>2018-07-18T09:35:46Z</time>
      </trkpt>
      <trkpt lat="47.77786" lon="-3.58304">
        <ele>38</ele>
        <time>2018-07-18T09:35:47Z</time>
      </trkpt>
      <trkpt lat="47.77791" lon="-3.58303">
        <ele>38</ele>
        <time>2018-07-18T09:35:48Z</time>
      </trkpt>
      <trkpt lat="47.77796" lon="-3.58302">
        <ele>38</ele>
        <time>2018-07-18T09:35:49Z</time>
      </trkpt>
      <trkpt lat="47.77801" lon="-3.58302">
        <ele>38</ele>
        <time>2018-07-18T09:35:50Z</time>
      </trkpt>
      <trkpt lat="47.77806" lon="-3.58301">
        <ele>38</ele>
        <time>2018-07-18T09:35:51Z</time>
      </trkpt>
      <trkpt lat="47.77811" lon="-3.583">
        <ele>38</ele>
        <time>2018-07-18T09:35:52Z</time>
      </trkpt>
      <trkpt lat="47.77816" lon="-3.58299">
        <ele>38</ele>
        <time>2018-07-18T09:35:53Z</time>
      </trkpt>
      <trkpt lat="47.77821" lon="-3.58298">
        <ele>38</ele>
        <time>2018-07-18T09:35:54Z</time>
      </trkpt>
      <trkpt lat="47.77826" lon="-3.58297">
        <ele>38</ele>
        <time>2018-07-18T09:35:55Z</time>
      </trkpt>
      <trkpt lat="47.7783" lon="-3.58297">
        <ele>38</ele>
        <time>2018-07-18T09:35:56Z</time>
      </trkpt>
      <trkpt lat="47.77834" lon="-3.583">
        <ele>38</ele>
        <time>2018-07-18T09:35:57Z</time>
      </trkpt>
      <trkpt lat="47.77837" lon="-3.58305">
        <ele>38</ele>
        <time>2018-07-18T09:35:58Z</time>
      </trkpt>
      <trkpt lat="47.77838" lon="-3.5831">
        <ele>38</ele>
        <time>2018-07-18T09:35:59Z</time>
      </trkpt>
      <trkpt lat="47.77839" lon="-3.58317">
        <ele>38</ele>
        <time>2018-07-18T09:36:00Z</time>
      </trkpt>
      <trkpt lat="47.77839" lon="-3.58323">
        <ele>38</ele>
        <time>2018-07-18T09:36:01Z</time>
      </trkpt>
      <trkpt lat="47.77839" lon="-3.5833">
        <ele>38</ele>
        <time>2018-07-18T09:36:02Z</time>
      </trkpt>
      <trkpt lat="47.77839" lon="-3.58337">
        <ele>38</ele>
        <time>2018-07-18T09:36:03Z</time>
      </trkpt>
      <trkpt lat="47.7784" lon="-3.58345">
        <ele>38</ele>
        <time>2018-07-18T09:36:04Z</time>
      </trkpt>
      <trkpt lat="47.7784" lon="-3.58352">
        <ele>39</ele>
        <time>2018-07-18T09:36:05Z</time>
      </trkpt>
      <trkpt lat="47.7784" lon="-3.5836">
        <ele>39</ele>
        <time>2018-07-18T09:36:06Z</time>
      </trkpt>
      <trkpt lat="47.77841" lon="-3.58367">
        <ele>39</ele>
        <time>2018-07-18T09:36:07Z</time>
      </trkpt>
      <trkpt lat="47.77841" lon="-3.58375">
        <ele>39</ele>
        <time>2018-07-18T09:36:08Z</time>
      </trkpt>
      <trkpt lat="47.77841" lon="-3.58382">
        <ele>39</ele>
        <time>2018-07-18T09:36:09Z</time>
      </trkpt>
      <trkpt lat="47.77842" lon="-3.5839">
        <ele>39</ele>
        <time>2018-07-18T09:36:10Z</time>
      </trkpt>
      <trkpt lat="47.77843" lon="-3.58397">
        <ele>39</ele>
        <time>2018-07-18T09:36:11Z</time>
      </trkpt>
      <trkpt lat="47.77844" lon="-3.58405">
        <ele>40</ele>
        <time>2018-07-18T09:36:12Z</time>
      </trkpt>
      <trkpt lat="47.77844" lon="-3.58412">
        <ele>40</ele>
        <time>2018-07-18T09:36:13Z</time>
      </trkpt>
      <trkpt lat="47.77845" lon="-3.58421">
        <ele>40</ele>
        <time>2018-07-18T09:36:14Z</time>
      </trkpt>
      <trkpt lat="47.77846" lon="-3.58429">
        <ele>40</ele>
        <time>2018-07-18T09:36:15Z</time>
      </trkpt>
      <trkpt lat="47.77846" lon="-3.58438">
        <ele>40</ele>
        <time>2018-07-18T09:36:16Z</time>
      </trkpt>
      <trkpt lat="47.77847" lon="-3.58447">
        <ele>40</ele>
        <time>2018-07-18T09:36:17Z</time>
      </trkpt>
      <trkpt lat="47.77848" lon="-3.58456">
        <ele>40</ele>
        <time>2018-07-18T09:36:18Z</time>
      </trkpt>
      <trkpt lat="47.77849" lon="-3.58465">
        <ele>41</ele>
        <time>2018-07-18T09:36:19Z</time>
      </trkpt>
      <trkpt lat="47.77851" lon="-3.58474">
        <ele>41</ele>
        <time>2018-07-18T09:36:20Z</time>
      </trkpt>
      <trkpt lat="47.77852" lon="-3.58483">
        <ele>41</ele>
        <time>2018-07-18T09:36:21Z</time>
      </trkpt>
      <trkpt lat="47.77855" lon="-3.58492">
        <ele>41</ele>
        <time>2018-07-18T09:36:22Z</time>
      </trkpt>
      <trkpt lat="47.77857" lon="-3.58501">
        <ele>41</ele>
        <time>2018-07-18T09:36:23Z</time>
      </trkpt>
      <trkpt lat="47.77859" lon="-3.58511">
        <ele>40</ele>
        <time>2018-07-18T09:36:24Z</time>
      </trkpt>
      <trkpt lat="47.77861" lon="-3.58522">
        <ele>40</ele>
        <time>2018-07-18T09:36:25Z</time>
      </trkpt>
      <trkpt lat="47.77863" lon="-3.58532">
        <ele>40</ele>
        <time>2018-07-18T09:36:26Z</time>
      </trkpt>
      <trkpt lat="47.77865" lon="-3.58543">
        <ele>40</ele>
        <time>2018-07-18T09:36:27Z</time>
      </trkpt>
      <trkpt lat="47.77867" lon="-3.58554">
        <ele>40</ele>
        <time>2018-07-18T09:36:28Z</time>
      </trkpt>
      <trkpt lat="47.77868" lon="-3.58563">
        <ele>39</ele>
        <time>2018-07-18T09:36:29Z</time>
      </trkpt>
      <trkpt lat="47.77869" lon="-3.58571">
        <ele>39</ele>
        <time>2018-07-18T09:36:30Z</time>
      </trkpt>
      <trkpt lat="47.77869" lon="-3.5858">
        <ele>39</ele>
        <time>2018-07-18T09:36:31Z</time>
      </trkpt>
      <trkpt lat="47.77868" lon="-3.58587">
        <ele>39</ele>
        <time>2018-07-18T09:36:32Z</time>
      </trkpt>
      <trkpt lat="47.77866" lon="-3.58594">
        <ele>38</ele>
        <time>2018-07-18T09:36:33Z</time>
      </trkpt>
      <trkpt lat="47.77862" lon="-3.58598">
        <ele>38</ele>
        <time>2018-07-18T09:36:34Z</time>
      </trkpt>
      <trkpt lat="47.77857" lon="-3.586">
        <ele>38</ele>
        <time>2018-07-18T09:36:35Z</time>
      </trkpt>
      <trkpt lat="47.77852" lon="-3.58602">
        <ele>38</ele>
        <time>2018-07-18T09:36:36Z</time>
      </trkpt>
      <trkpt lat="47.77846" lon="-3.58603">
        <ele>38</ele>
        <time>2018-07-18T09:36:37Z</time>
      </trkpt>
      <trkpt lat="47.77841" lon="-3.58606">
        <ele>38</ele>
        <time>2018-07-18T09:36:38Z</time>
      </trkpt>
      <trkpt lat="47.77835" lon="-3.58607">
        <ele>37</ele>
        <time>2018-07-18T09:36:39Z</time>
      </trkpt>
      <trkpt lat="47.77829" lon="-3.5861">
        <ele>37</ele>
        <time>2018-07-18T09:36:40Z</time>
      </trkpt>
      <trkpt lat="47.77824" lon="-3.58611">
        <ele>37</ele>
        <time>2018-07-18T09:36:41Z</time>
      </trkpt>
      <trkpt lat="47.77818" lon="-3.58611">
        <ele>36</ele>
        <time>2018-07-18T09:36:42Z</time>
      </trkpt>
      <trkpt lat="47.77813" lon="-3.5861">
        <ele>36</ele>
        <time>2018-07-18T09:36:43Z</time>
      </trkpt>
      <trkpt lat="47.77807" lon="-3.5861">
        <ele>36</ele>
        <time>2018-07-18T09:36:44Z</time>
      </trkpt>
      <trkpt lat="47.77802" lon="-3.58609">
        <ele>36</ele>
        <time>2018-07-18T09:36:45Z</time>
      </trkpt>
      <trkpt lat="47.77797" lon="-3.58608">
        <ele>36</ele>
        <time>2018-07-18T09:36:46Z</time>
      </trkpt>
      <trkpt lat="47.77795" lon="-3.58608">
        <ele>35</ele>
        <time>2018-07-18T09:36:47Z</time>
      </trkpt>
      <trkpt lat="47.77794" lon="-3.58607">
        <ele>35</ele>
        <time>2018-07-18T09:36:48Z</time>
      </trkpt>
      <trkpt lat="47.77793" lon="-3.58606">
        <ele>35</ele>
        <time>2018-07-18T09:36:49Z</time>
      </trkpt>
      <trkpt lat="47.77792" lon="-3.58603">
        <ele>35</ele>
        <time>2018-07-18T09:36:50Z</time>
      </trkpt>
      <trkpt lat="47.77791" lon="-3.586">
        <ele>35</ele>
        <time>2018-07-18T09:36:51Z</time>
      </trkpt>
      <trkpt lat="47.77789" lon="-3.58597">
        <ele>35</ele>
        <time>2018-07-18T09:36:52Z</time>
      </trkpt>
      <trkpt lat="47.77786" lon="-3.58594">
        <ele>35</ele>
        <time>2018-07-18T09:36:53Z</time>
      </trkpt>
      <trkpt lat="47.77783" lon="-3.58591">
        <ele>35</ele>
        <time>2018-07-18T09:36:54Z</time>
      </trkpt>
      <trkpt lat="47.7778" lon="-3.5859">
        <ele>35</ele>
        <time>2018-07-18T09:36:55Z</time>
      </trkpt>
      <trkpt lat="47.77777" lon="-3.58588">
        <ele>35</ele>
        <time>2018-07-18T09:36:56Z</time>
      </trkpt>
      <trkpt lat="47.77773" lon="-3.58587">
        <ele>35</ele>
        <time>2018-07-18T09:36:57Z</time>
      </trkpt>
      <trkpt lat="47.7777" lon="-3.58585">
        <ele>35</ele>
        <time>2018-07-18T09:36:58Z</time>
      </trkpt>
      <trkpt lat="47.77766" lon="-3.58583">
        <ele>35</ele>
        <time>2018-07-18T09:36:59Z</time>
      </trkpt>
      <trkpt lat="47.77762" lon="-3.5858">
        <ele>35</ele>
        <time>2018-07-18T09:37:00Z</time>
      </trkpt>
      <trkpt lat="47.77758" lon="-3.58578">
        <ele>34</ele>
        <time>2018-07-18T09:37:01Z</time>
      </trkpt>
      <trkpt lat="47.77753" lon="-3.58577">
        <ele>34</ele>
        <time>2018-07-18T09:37:02Z</time>
      </trkpt>
      <trkpt lat="47.77749" lon="-3.58576">
        <ele>34</ele>
        <time>2018-07-18T09:37:03Z</time>
      </trkpt>
      <trkpt lat="47.77744" lon="-3.58575">
        <ele>34</ele>
        <time>2018-07-18T09:37:04Z</time>
      </trkpt>
      <trkpt lat="47.7774" lon="-3.58574">
        <ele>34</ele>
        <time>2018-07-18T09:37:05Z</time>
      </trkpt>
      <trkpt lat="47.77735" lon="-3.58572">
        <ele>34</ele>
        <time>2018-07-18T09:37:06Z</time>
      </trkpt>
      <trkpt lat="47.7773" lon="-3.58571">
        <ele>34</ele>
        <time>2018-07-18T09:37:07Z</time>
      </trkpt>
      <trkpt lat="47.77726" lon="-3.58571">
        <ele>34</ele>
        <time>2018-07-18T09:37:08Z</time>
      </trkpt>
      <trkpt lat="47.77721" lon="-3.5857">
        <ele>34</ele>
        <time>2018-07-18T09:37:09Z</time>
      </trkpt>
      <trkpt lat="47.77717" lon="-3.58569">
        <ele>34</ele>
        <time>2018-07-18T09:37:10Z</time>
      </trkpt>
      <trkpt lat="47.77713" lon="-3.58568">
        <ele>34</ele>
        <time>2018-07-18T09:37:11Z</time>
      </trkpt>
      <trkpt lat="47.77708" lon="-3.58567">
        <ele>34</ele>
        <time>2018-07-18T09:37:12Z</time>
      </trkpt>
      <trkpt lat="47.77704" lon="-3.58568">
        <ele>34</ele>
        <time>2018-07-18T09:37:13Z</time>
      </trkpt>
      <trkpt lat="47.77699" lon="-3.58568">
        <ele>35</ele>
        <time>2018-07-18T09:37:14Z</time>
      </trkpt>
      <trkpt lat="47.77695" lon="-3.58569">
        <ele>35</ele>
        <time>2018-07-18T09:37:15Z</time>
      </trkpt>
      <trkpt lat="47.7769" lon="-3.58569">
        <ele>35</ele>
        <time>2018-07-18T09:37:16Z</time>
      </trkpt>
      <trkpt lat="47.77686" lon="-3.5857">
        <ele>35</ele>
        <time>2018-07-18T09:37:17Z</time>
      </trkpt>
      <trkpt lat="47.77681" lon="-3.58571">
        <ele>35</ele>
        <time>2018-07-18T09:37:18Z</time>
      </trkpt>
      <trkpt lat="47.77676" lon="-3.58571">
        <ele>36</ele>
        <time>2018-07-18T09:37:19Z</time>
      </trkpt>
      <trkpt lat="47.77672" lon="-3.58573">
        <ele>36</ele>
        <time>2018-07-18T09:37:20Z</time>
      </trkpt>
      <trkpt lat="47.77667" lon="-3.58573">
        <ele>36</ele>
        <time>2018-07-18T09:37:21Z</time>
      </trkpt>
      <trkpt lat="47.77662" lon="-3.58574">
        <ele>36</ele>
        <time>2018-07-18T09:37:22Z</time>
      </trkpt>
      <trkpt lat="47.77657" lon="-3.58574">
        <ele>37</ele>
        <time>2018-07-18T09:37:23Z</time>
      </trkpt>
      <trkpt lat="47.77653" lon="-3.58574">
        <ele>37</ele>
        <time>2018-07-18T09:37:24Z</time>
      </trkpt>
      <trkpt lat="47.77648" lon="-3.58574">
        <ele>37</ele>
        <time>2018-07-18T09:37:25Z</time>
      </trkpt>
      <trkpt lat="47.77643" lon="-3.58575">
        <ele>37</ele>
        <time>2018-07-18T09:37:26Z</time>
      </trkpt>
      <trkpt lat="47.77638" lon="-3.58576">
        <ele>37</ele>
        <time>2018-07-18T09:37:27Z</time>
      </trkpt>
      <trkpt lat="47.77634" lon="-3.58577">
        <ele>38</ele>
        <time>2018-07-18T09:37:28Z</time>
      </trkpt>
      <trkpt lat="47.77629" lon="-3.58577">
        <ele>38</ele>
        <time>2018-07-18T09:37:29Z</time>
      </trkpt>
      <trkpt lat="47.77624" lon="-3.58578">
        <ele>38</ele>
        <time>2018-07-18T09:37:30Z</time>
      </trkpt>
      <trkpt lat="47.77619" lon="-3.58579">
        <ele>38</ele>
        <time>2018-07-18T09:37:31Z</time>
      </trkpt>
      <trkpt lat="47.77615" lon="-3.5858">
        <ele>38</ele>
        <time>2018-07-18T09:37:32Z</time>
      </trkpt>
      <trkpt lat="47.7761" lon="-3.5858">
        <ele>38</ele>
        <time>2018-07-18T09:37:33Z</time>
      </trkpt>
      <trkpt lat="47.77605" lon="-3.58581">
        <ele>39</ele>
        <time>2018-07-18T09:37:34Z</time>
      </trkpt>
      <trkpt lat="47.776" lon="-3.58582">
        <ele>39</ele>
        <time>2018-07-18T09:37:35Z</time>
      </trkpt>
      <trkpt lat="47.77596" lon="-3.58582">
        <ele>39</ele>
        <time>2018-07-18T09:37:36Z</time>
      </trkpt>
      <trkpt lat="47.77591" lon="-3.58583">
        <ele>39</ele>
        <time>2018-07-18T09:37:37Z</time>
      </trkpt>
      <trkpt lat="47.77586" lon="-3.58584">
        <ele>40</ele>
        <time>2018-07-18T09:37:38Z</time>
      </trkpt>
      <trkpt lat="47.77582" lon="-3.58584">
        <ele>40</ele>
        <time>2018-07-18T09:37:39Z</time>
      </trkpt>
      <trkpt lat="47.77578" lon="-3.58585">
        <ele>40</ele>
        <time>2018-07-18T09:37:40Z</time>
      </trkpt>
      <trkpt lat="47.77573" lon="-3.58586">
        <ele>40</ele>
        <time>2018-07-18T09:37:41Z</time>
      </trkpt>
      <trkpt lat="47.77569" lon="-3.58586">
        <ele>40</ele>
        <time>2018-07-18T09:37:42Z</time>
      </trkpt>
      <trkpt lat="47.77564" lon="-3.58586">
        <ele>40</ele>
        <time>2018-07-18T09:37:43Z</time>
      </trkpt>
      <trkpt lat="47.77559" lon="-3.58587">
        <ele>40</ele>
        <time>2018-07-18T09:37:44Z</time>
      </trkpt>
      <trkpt lat="47.77555" lon="-3.58587">
        <ele>40</ele>
        <time>2018-07-18T09:37:45Z</time>
      </trkpt>
      <trkpt lat="47.7755" lon="-3.58587">
        <ele>40</ele>
        <time>2018-07-18T09:37:46Z</time>
      </trkpt>
      <trkpt lat="47.77545" lon="-3.58587">
        <ele>40</ele>
        <time>2018-07-18T09:37:47Z</time>
      </trkpt>
      <trkpt lat="47.77541" lon="-3.58587">
        <ele>40</ele>
        <time>2018-07-18T09:37:48Z</time>
      </trkpt>
      <trkpt lat="47.77536" lon="-3.58586">
        <ele>40</ele>
        <time>2018-07-18T09:37:49Z</time>
      </trkpt>
      <trkpt lat="47.77532" lon="-3.58586">
        <ele>40</ele>
        <time>2018-07-18T09:37:50Z</time>
      </trkpt>
      <trkpt lat="47.77527" lon="-3.58587">
        <ele>40</ele>
        <time>2018-07-18T09:37:51Z</time>
      </trkpt>
      <trkpt lat="47.77522" lon="-3.58587">
        <ele>40</ele>
        <time>2018-07-18T09:37:52Z</time>
      </trkpt>
      <trkpt lat="47.77516" lon="-3.58587">
        <ele>40</ele>
        <time>2018-07-18T09:37:53Z</time>
      </trkpt>
      <trkpt lat="47.77511" lon="-3.58587">
        <ele>39</ele>
        <time>2018-07-18T09:37:54Z</time>
      </trkpt>
      <trkpt lat="47.77505" lon="-3.58587">
        <ele>39</ele>
        <time>2018-07-18T09:37:55Z</time>
      </trkpt>
      <trkpt lat="47.775" lon="-3.58587">
        <ele>39</ele>
        <time>2018-07-18T09:37:56Z</time>
      </trkpt>
      <trkpt lat="47.77494" lon="-3.58586">
        <ele>39</ele>
        <time>2018-07-18T09:37:57Z</time>
      </trkpt>
      <trkpt lat="47.77488" lon="-3.58585">
        <ele>38</ele>
        <time>2018-07-18T09:37:58Z</time>
      </trkpt>
      <trkpt lat="47.77483" lon="-3.58585">
        <ele>38</ele>
        <time>2018-07-18T09:37:59Z</time>
      </trkpt>
      <trkpt lat="47.77477" lon="-3.58583">
        <ele>38</ele>
        <time>2018-07-18T09:38:00Z</time>
      </trkpt>
      <trkpt lat="47.77472" lon="-3.58582">
        <ele>37</ele>
        <time>2018-07-18T09:38:01Z</time>
      </trkpt>
      <trkpt lat="47.77467" lon="-3.5858">
        <ele>37</ele>
        <time>2018-07-18T09:38:02Z</time>
      </trkpt>
      <trkpt lat="47.77465" lon="-3.58579">
        <ele>37</ele>
        <time>2018-07-18T09:38:03Z</time>
      </trkpt>
      <trkpt lat="47.77464" lon="-3.58579">
        <ele>36</ele>
        <time>2018-07-18T09:38:04Z</time>
      </trkpt>
      <trkpt lat="47.77464" lon="-3.58579">
        <ele>36</ele>
        <time>2018-07-18T09:38:05Z</time>
      </trkpt>
      <trkpt lat="47.77464" lon="-3.58579">
        <ele>36</ele>
        <time>2018-07-18T09:38:06Z</time>
      </trkpt>
      <trkpt lat="47.77464" lon="-3.58579">
        <ele>36</ele>
        <time>2018-07-18T09:38:07Z</time>
      </trkpt>
      <trkpt lat="47.77463" lon="-3.58579">
        <ele>36</ele>
        <time>2018-07-18T09:38:08Z</time>
      </trkpt>
      <trkpt lat="47.77462" lon="-3.58578">
        <ele>36</ele>
        <time>2018-07-18T09:38:09Z</time>
      </trkpt>
      <trkpt lat="47.7746" lon="-3.58578">
        <ele>36</ele>
        <time>2018-07-18T09:38:10Z</time>
      </trkpt>
      <trkpt lat="47.77458" lon="-3.58578">
        <ele>36</ele>
        <time>2018-07-18T09:38:11Z</time>
      </trkpt>
      <trkpt lat="47.77455" lon="-3.58577">
        <ele>36</ele>
        <time>2018-07-18T09:38:12Z</time>
      </trkpt>
      <trkpt lat="47.77452" lon="-3.58575">
        <ele>36</ele>
        <time>2018-07-18T09:38:13Z</time>
      </trkpt>
      <trkpt lat="47.77448" lon="-3.58574">
        <ele>36</ele>
        <time>2018-07-18T09:38:14Z</time>
      </trkpt>
      <trkpt lat="47.77444" lon="-3.58572">
        <ele>36</ele>
        <time>2018-07-18T09:38:15Z</time>
      </trkpt>
      <trkpt lat="47.7744" lon="-3.58571">
        <ele>36</ele>
        <time>2018-07-18T09:38:16Z</time>
      </trkpt>
      <trkpt lat="47.77435" lon="-3.58569">
        <ele>36</ele>
        <time>2018-07-18T09:38:17Z</time>
      </trkpt>
      <trkpt lat="47.77431" lon="-3.58567">
        <ele>36</ele>
        <time>2018-07-18T09:38:18Z</time>
      </trkpt>
      <trkpt lat="47.77426" lon="-3.58565">
        <ele>35</ele>
        <time>2018-07-18T09:38:19Z</time>
      </trkpt>
      <trkpt lat="47.77421" lon="-3.58563">
        <ele>35</ele>
        <time>2018-07-18T09:38:20Z</time>
      </trkpt>
      <trkpt lat="47.77416" lon="-3.58562">
        <ele>35</ele>
        <time>2018-07-18T09:38:21Z</time>
      </trkpt>
      <trkpt lat="47.77411" lon="-3.58562">
        <ele>35</ele>
        <time>2018-07-18T09:38:22Z</time>
      </trkpt>
      <trkpt lat="47.77405" lon="-3.58563">
        <ele>35</ele>
        <time>2018-07-18T09:38:23Z</time>
      </trkpt>
      <trkpt lat="47.774" lon="-3.58564">
        <ele>35</ele>
        <time>2018-07-18T09:38:24Z</time>
      </trkpt>
      <trkpt lat="47.77394" lon="-3.58564">
        <ele>35</ele>
        <time>2018-07-18T09:38:25Z</time>
      </trkpt>
      <trkpt lat="47.77388" lon="-3.58563">
        <ele>35</ele>
        <time>2018-07-18T09:38:26Z</time>
      </trkpt>
      <trkpt lat="47.77382" lon="-3.58563">
        <ele>35</ele>
        <time>2018-07-18T09:38:27Z</time>
      </trkpt>
      <trkpt lat="47.77377" lon="-3.58562">
        <ele>35</ele>
        <time>2018-07-18T09:38:28Z</time>
      </trkpt>
      <trkpt lat="47.77371" lon="-3.58562">
        <ele>36</ele>
        <time>2018-07-18T09:38:29Z</time>
      </trkpt>
      <trkpt lat="47.77365" lon="-3.58561">
        <ele>36</ele>
        <time>2018-07-18T09:38:30Z</time>
      </trkpt>
      <trkpt lat="47.77359" lon="-3.5856">
        <ele>36</ele>
        <time>2018-07-18T09:38:31Z</time>
      </trkpt>
      <trkpt lat="47.77353" lon="-3.5856">
        <ele>36</ele>
        <time>2018-07-18T09:38:32Z</time>
      </trkpt>
      <trkpt lat="47.77348" lon="-3.5856">
        <ele>36</ele>
        <time>2018-07-18T09:38:33Z</time>
      </trkpt>
      <trkpt lat="47.77342" lon="-3.5856">
        <ele>36</ele>
        <time>2018-07-18T09:38:34Z</time>
      </trkpt>
      <trkpt lat="47.77337" lon="-3.58559">
        <ele>36</ele>
        <time>2018-07-18T09:38:35Z</time>
      </trkpt>
      <trkpt lat="47.77333" lon="-3.58558">
        <ele>36</ele>
        <time>2018-07-18T09:38:36Z</time>
      </trkpt>
      <trkpt lat="47.77328" lon="-3.58557">
        <ele>36</ele>
        <time>2018-07-18T09:38:37Z</time>
      </trkpt>
      <trkpt lat="47.77325" lon="-3.58556">
        <ele>36</ele>
        <time>2018-07-18T09:38:38Z</time>
      </trkpt>
      <trkpt lat="47.77321" lon="-3.58555">
        <ele>36</ele>
        <time>2018-07-18T09:38:39Z</time>
      </trkpt>
      <trkpt lat="47.77319" lon="-3.58555">
        <ele>36</ele>
        <time>2018-07-18T09:38:40Z</time>
      </trkpt>
      <trkpt lat="47.77317" lon="-3.58555">
        <ele>36</ele>
        <time>2018-07-18T09:38:41Z</time>
      </trkpt>
      <trkpt lat="47.77317" lon="-3.58555">
        <ele>36</ele>
        <time>2018-07-18T09:38:42Z</time>
      </trkpt>
      <trkpt lat="47.77316" lon="-3.58555">
        <ele>36</ele>
        <time>2018-07-18T09:38:43Z</time>
      </trkpt>
      <trkpt lat="47.77316" lon="-3.58554">
        <ele>36</ele>
        <time>2018-07-18T09:38:44Z</time>
      </trkpt>
      <trkpt lat="47.77316" lon="-3.58554">
        <ele>36</ele>
        <time>2018-07-18T09:38:45Z</time>
      </trkpt>
      <trkpt lat="47.77318" lon="-3.58559">
        <ele>36</ele>
        <time>2018-07-18T09:38:46Z</time>
      </trkpt>
      <trkpt lat="47.77318" lon="-3.58562">
        <ele>37</ele>
        <time>2018-07-18T09:38:47Z</time>
      </trkpt>
      <trkpt lat="47.7732" lon="-3.58565">
        <ele>37</ele>
        <time>2018-07-18T09:38:48Z</time>
      </trkpt>
      <trkpt lat="47.77321" lon="-3.58568">
        <ele>37</ele>
        <time>2018-07-18T09:38:49Z</time>
      </trkpt>
      <trkpt lat="47.77323" lon="-3.58572">
        <ele>37</ele>
        <time>2018-07-18T09:38:50Z</time>
      </trkpt>
      <trkpt lat="47.77325" lon="-3.58577">
        <ele>37</ele>
        <time>2018-07-18T09:38:51Z</time>
      </trkpt>
      <trkpt lat="47.77326" lon="-3.58582">
        <ele>38</ele>
        <time>2018-07-18T09:38:52Z</time>
      </trkpt>
      <trkpt lat="47.77326" lon="-3.58586">
        <ele>38</ele>
        <time>2018-07-18T09:38:53Z</time>
      </trkpt>
      <trkpt lat="47.77325" lon="-3.58589">
        <ele>38</ele>
        <time>2018-07-18T09:38:54Z</time>
      </trkpt>
      <trkpt lat="47.77323" lon="-3.58592">
        <ele>38</ele>
        <time>2018-07-18T09:38:55Z</time>
      </trkpt>
      <trkpt lat="47.77321" lon="-3.58596">
        <ele>38</ele>
        <time>2018-07-18T09:38:56Z</time>
      </trkpt>
      <trkpt lat="47.77318" lon="-3.58598">
        <ele>39</ele>
        <time>2018-07-18T09:38:57Z</time>
      </trkpt>
      <trkpt lat="47.77315" lon="-3.58601">
        <ele>39</ele>
        <time>2018-07-18T09:38:58Z</time>
      </trkpt>
      <trkpt lat="47.77311" lon="-3.58603">
        <ele>39</ele>
        <time>2018-07-18T09:38:59Z</time>
      </trkpt>
      <trkpt lat="47.77307" lon="-3.58605">
        <ele>38</ele>
        <time>2018-07-18T09:39:00Z</time>
      </trkpt>
      <trkpt lat="47.77303" lon="-3.58607">
        <ele>38</ele>
        <time>2018-07-18T09:39:01Z</time>
      </trkpt>
      <trkpt lat="47.773" lon="-3.5861">
        <ele>38</ele>
        <time>2018-07-18T09:39:02Z</time>
      </trkpt>
      <trkpt lat="47.77296" lon="-3.58612">
        <ele>38</ele>
        <time>2018-07-18T09:39:03Z</time>
      </trkpt>
      <trkpt lat="47.77292" lon="-3.58615">
        <ele>38</ele>
        <time>2018-07-18T09:39:04Z</time>
      </trkpt>
      <trkpt lat="47.77287" lon="-3.58618">
        <ele>38</ele>
        <time>2018-07-18T09:39:05Z</time>
      </trkpt>
      <trkpt lat="47.77284" lon="-3.58621">
        <ele>37</ele>
        <time>2018-07-18T09:39:06Z</time>
      </trkpt>
      <trkpt lat="47.7728" lon="-3.58624">
        <ele>37</ele>
        <time>2018-07-18T09:39:07Z</time>
      </trkpt>
      <trkpt lat="47.77276" lon="-3.58627">
        <ele>37</ele>
        <time>2018-07-18T09:39:08Z</time>
      </trkpt>
      <trkpt lat="47.77272" lon="-3.5863">
        <ele>37</ele>
        <time>2018-07-18T09:39:09Z</time>
      </trkpt>
      <trkpt lat="47.77268" lon="-3.58633">
        <ele>37</ele>
        <time>2018-07-18T09:39:10Z</time>
      </trkpt>
      <trkpt lat="47.77263" lon="-3.58636">
        <ele>37</ele>
        <time>2018-07-18T09:39:11Z</time>
      </trkpt>
      <trkpt lat="47.77259" lon="-3.5864">
        <ele>37</ele>
        <time>2018-07-18T09:39:12Z</time>
      </trkpt>
      <trkpt lat="47.77254" lon="-3.58644">
        <ele>37</ele>
        <time>2018-07-18T09:39:13Z</time>
      </trkpt>
      <trkpt lat="47.7725" lon="-3.58648">
        <ele>37</ele>
        <time>2018-07-18T09:39:14Z</time>
      </trkpt>
      <trkpt lat="47.77248" lon="-3.58652">
        <ele>37</ele>
        <time>2018-07-18T09:39:15Z</time>
      </trkpt>
      <trkpt lat="47.77246" lon="-3.58656">
        <ele>37</ele>
        <time>2018-07-18T09:39:16Z</time>
      </trkpt>
      <trkpt lat="47.77244" lon="-3.58662">
        <ele>37</ele>
        <time>2018-07-18T09:39:17Z</time>
      </trkpt>
      <trkpt lat="47.77243" lon="-3.58667">
        <ele>37</ele>
        <time>2018-07-18T09:39:18Z</time>
      </trkpt>
      <trkpt lat="47.77241" lon="-3.58671">
        <ele>37</ele>
        <time>2018-07-18T09:39:19Z</time>
      </trkpt>
      <trkpt lat="47.7724" lon="-3.58675">
        <ele>37</ele>
        <time>2018-07-18T09:39:20Z</time>
      </trkpt>
      <trkpt lat="47.77239" lon="-3.58676">
        <ele>37</ele>
        <time>2018-07-18T09:39:21Z</time>
      </trkpt>
      <trkpt lat="47.77239" lon="-3.58678">
        <ele>37</ele>
        <time>2018-07-18T09:39:22Z</time>
      </trkpt>
      <trkpt lat="47.77238" lon="-3.58679">
        <ele>37</ele>
        <time>2018-07-18T09:39:23Z</time>
      </trkpt>
      <trkpt lat="47.77238" lon="-3.58679">
        <ele>37</ele>
        <time>2018-07-18T09:39:24Z</time>
      </trkpt>
      <trkpt lat="47.77237" lon="-3.5868">
        <ele>36</ele>
        <time>2018-07-18T09:39:25Z</time>
      </trkpt>
      <trkpt lat="47.77237" lon="-3.58681">
        <ele>36</ele>
        <time>2018-07-18T09:39:26Z</time>
      </trkpt>
      <trkpt lat="47.77237" lon="-3.58681">
        <ele>36</ele>
        <time>2018-07-18T09:39:27Z</time>
      </trkpt>
      <trkpt lat="47.77236" lon="-3.58682">
        <ele>36</ele>
        <time>2018-07-18T09:39:28Z</time>
      </trkpt>
      <trkpt lat="47.77236" lon="-3.58682">
        <ele>36</ele>
        <time>2018-07-18T09:39:29Z</time>
      </trkpt>
      <trkpt lat="47.77235" lon="-3.58683">
        <ele>36</ele>
        <time>2018-07-18T09:39:30Z</time>
      </trkpt>
      <trkpt lat="47.77233" lon="-3.58683">
        <ele>35</ele>
        <time>2018-07-18T09:39:31Z</time>
      </trkpt>
      <trkpt lat="47.77231" lon="-3.58682">
        <ele>35</ele>
        <time>2018-07-18T09:39:32Z</time>
      </trkpt>
      <trkpt lat="47.77229" lon="-3.58679">
        <ele>35</ele>
        <time>2018-07-18T09:39:33Z</time>
      </trkpt>
      <trkpt lat="47.77227" lon="-3.58676">
        <ele>35</ele>
        <time>2018-07-18T09:39:34Z</time>
      </trkpt>
      <trkpt lat="47.77224" lon="-3.58672">
        <ele>35</ele>
        <time>2018-07-18T09:39:35Z</time>
      </trkpt>
      <trkpt lat="47.77221" lon="-3.58669">
        <ele>35</ele>
        <time>2018-07-18T09:39:36Z</time>
      </trkpt>
      <trkpt lat="47.77218" lon="-3.58665">
        <ele>34</ele>
        <time>2018-07-18T09:39:37Z</time>
      </trkpt>
      <trkpt lat="47.77214" lon="-3.5866">
        <ele>34</ele>
        <time>2018-07-18T09:39:38Z</time>
      </trkpt>
      <trkpt lat="47.77211" lon="-3.58656">
        <ele>34</ele>
        <time>2018-07-18T09:39:39Z</time>
      </trkpt>
      <trkpt lat="47.77208" lon="-3.58651">
        <ele>34</ele>
        <time>2018-07-18T09:39:40Z</time>
      </trkpt>
      <trkpt lat="47.77205" lon="-3.58648">
        <ele>33</ele>
        <time>2018-07-18T09:39:41Z</time>
      </trkpt>
      <trkpt lat="47.77201" lon="-3.58647">
        <ele>33</ele>
        <time>2018-07-18T09:39:42Z</time>
      </trkpt>
      <trkpt lat="47.77198" lon="-3.58649">
        <ele>33</ele>
        <time>2018-07-18T09:39:43Z</time>
      </trkpt>
      <trkpt lat="47.77196" lon="-3.58651">
        <ele>33</ele>
        <time>2018-07-18T09:39:44Z</time>
      </trkpt>
      <trkpt lat="47.77193" lon="-3.58653">
        <ele>32</ele>
        <time>2018-07-18T09:39:45Z</time>
      </trkpt>
      <trkpt lat="47.77191" lon="-3.58655">
        <ele>32</ele>
        <time>2018-07-18T09:39:46Z</time>
      </trkpt>
      <trkpt lat="47.77189" lon="-3.58657">
        <ele>31</ele>
        <time>2018-07-18T09:39:47Z</time>
      </trkpt>
      <trkpt lat="47.77185" lon="-3.58659">
        <ele>31</ele>
        <time>2018-07-18T09:39:48Z</time>
      </trkpt>
      <trkpt lat="47.77182" lon="-3.58662">
        <ele>30</ele>
        <time>2018-07-18T09:39:49Z</time>
      </trkpt>
      <trkpt lat="47.77178" lon="-3.58664">
        <ele>30</ele>
        <time>2018-07-18T09:39:50Z</time>
      </trkpt>
      <trkpt lat="47.77174" lon="-3.58667">
        <ele>30</ele>
        <time>2018-07-18T09:39:51Z</time>
      </trkpt>
      <trkpt lat="47.77169" lon="-3.5867">
        <ele>29</ele>
        <time>2018-07-18T09:39:52Z</time>
      </trkpt>
      <trkpt lat="47.77165" lon="-3.58673">
        <ele>29</ele>
        <time>2018-07-18T09:39:53Z</time>
      </trkpt>
      <trkpt lat="47.7716" lon="-3.58676">
        <ele>29</ele>
        <time>2018-07-18T09:39:54Z</time>
      </trkpt>
      <trkpt lat="47.77155" lon="-3.58679">
        <ele>28</ele>
        <time>2018-07-18T09:39:55Z</time>
      </trkpt>
      <trkpt lat="47.77151" lon="-3.58683">
        <ele>28</ele>
        <time>2018-07-18T09:39:56Z</time>
      </trkpt>
      <trkpt lat="47.77147" lon="-3.58687">
        <ele>28</ele>
        <time>2018-07-18T09:39:57Z</time>
      </trkpt>
      <trkpt lat="47.77144" lon="-3.58692">
        <ele>28</ele>
        <time>2018-07-18T09:39:58Z</time>
      </trkpt>
      <trkpt lat="47.77143" lon="-3.58698">
        <ele>28</ele>
        <time>2018-07-18T09:39:59Z</time>
      </trkpt>
      <trkpt lat="47.77141" lon="-3.58703">
        <ele>28</ele>
        <time>2018-07-18T09:40:00Z</time>
      </trkpt>
      <trkpt lat="47.77139" lon="-3.58708">
        <ele>28</ele>
        <time>2018-07-18T09:40:01Z</time>
      </trkpt>
      <trkpt lat="47.77136" lon="-3.58711">
        <ele>28</ele>
        <time>2018-07-18T09:40:02Z</time>
      </trkpt>
      <trkpt lat="47.77133" lon="-3.58713">
        <ele>28</ele>
        <time>2018-07-18T09:40:03Z</time>
      </trkpt>
      <trkpt lat="47.77129" lon="-3.58714">
        <ele>28</ele>
        <time>2018-07-18T09:40:04Z</time>
      </trkpt>
      <trkpt lat="47.77125" lon="-3.58715">
        <ele>28</ele>
        <time>2018-07-18T09:40:05Z</time>
      </trkpt>
      <trkpt lat="47.7712" lon="-3.58715">
        <ele>28</ele>
        <time>2018-07-18T09:40:06Z</time>
      </trkpt>
      <trkpt lat="47.77115" lon="-3.58715">
        <ele>27</ele>
        <time>2018-07-18T09:40:07Z</time>
      </trkpt>
      <trkpt lat="47.7711" lon="-3.58714">
        <ele>27</ele>
        <time>2018-07-18T09:40:08Z</time>
      </trkpt>
      <trkpt lat="47.77106" lon="-3.58713">
        <ele>27</ele>
        <time>2018-07-18T09:40:09Z</time>
      </trkpt>
      <trkpt lat="47.77101" lon="-3.58711">
        <ele>27</ele>
        <time>2018-07-18T09:40:10Z</time>
      </trkpt>
      <trkpt lat="47.77096" lon="-3.58708">
        <ele>27</ele>
        <time>2018-07-18T09:40:11Z</time>
      </trkpt>
      <trkpt lat="47.77092" lon="-3.58704">
        <ele>26</ele>
        <time>2018-07-18T09:40:12Z</time>
      </trkpt>
      <trkpt lat="47.77088" lon="-3.58701">
        <ele>26</ele>
        <time>2018-07-18T09:40:13Z</time>
      </trkpt>
      <trkpt lat="47.77083" lon="-3.58698">
        <ele>26</ele>
        <time>2018-07-18T09:40:14Z</time>
      </trkpt>
      <trkpt lat="47.77079" lon="-3.58696">
        <ele>26</ele>
        <time>2018-07-18T09:40:15Z</time>
      </trkpt>
      <trkpt lat="47.77074" lon="-3.58695">
        <ele>25</ele>
        <time>2018-07-18T09:40:16Z</time>
      </trkpt>
      <trkpt lat="47.77069" lon="-3.58695">
        <ele>25</ele>
        <time>2018-07-18T09:40:17Z</time>
      </trkpt>
      <trkpt lat="47.77065" lon="-3.58695">
        <ele>25</ele>
        <time>2018-07-18T09:40:18Z</time>
      </trkpt>
      <trkpt lat="47.7706" lon="-3.58695">
        <ele>25</ele>
        <time>2018-07-18T09:40:19Z</time>
      </trkpt>
      <trkpt lat="47.77055" lon="-3.58695">
        <ele>24</ele>
        <time>2018-07-18T09:40:20Z</time>
      </trkpt>
      <trkpt lat="47.7705" lon="-3.58695">
        <ele>24</ele>
        <time>2018-07-18T09:40:21Z</time>
      </trkpt>
      <trkpt lat="47.77045" lon="-3.58694">
        <ele>24</ele>
        <time>2018-07-18T09:40:22Z</time>
      </trkpt>
      <trkpt lat="47.77041" lon="-3.58693">
        <ele>23</ele>
        <time>2018-07-18T09:40:23Z</time>
      </trkpt>
      <trkpt lat="47.77038" lon="-3.58692">
        <ele>23</ele>
        <time>2018-07-18T09:40:24Z</time>
      </trkpt>
      <trkpt lat="47.77036" lon="-3.5869">
        <ele>23</ele>
        <time>2018-07-18T09:40:25Z</time>
      </trkpt>
      <trkpt lat="47.77033" lon="-3.5869">
        <ele>22</ele>
        <time>2018-07-18T09:40:26Z</time>
      </trkpt>
      <trkpt lat="47.77032" lon="-3.58689">
        <ele>22</ele>
        <time>2018-07-18T09:40:27Z</time>
      </trkpt>
      <trkpt lat="47.77032" lon="-3.58689">
        <ele>22</ele>
        <time>2018-07-18T09:40:28Z</time>
      </trkpt>
      <trkpt lat="47.77032" lon="-3.58689">
        <ele>22</ele>
        <time>2018-07-18T09:40:29Z</time>
      </trkpt>
      <trkpt lat="47.77032" lon="-3.58689">
        <ele>22</ele>
        <time>2018-07-18T09:40:30Z</time>
      </trkpt>
      <trkpt lat="47.77032" lon="-3.58689">
        <ele>21</ele>
        <time>2018-07-18T09:40:31Z</time>
      </trkpt>
      <trkpt lat="47.77033" lon="-3.58691">
        <ele>21</ele>
        <time>2018-07-18T09:40:32Z</time>
      </trkpt>
      <trkpt lat="47.77033" lon="-3.58691">
        <ele>21</ele>
        <time>2018-07-18T09:40:33Z</time>
      </trkpt>
      <trkpt lat="47.77034" lon="-3.58691">
        <ele>21</ele>
        <time>2018-07-18T09:40:34Z</time>
      </trkpt>
      <trkpt lat="47.77035" lon="-3.58691">
        <ele>21</ele>
        <time>2018-07-18T09:40:35Z</time>
      </trkpt>
      <trkpt lat="47.77037" lon="-3.58692">
        <ele>21</ele>
        <time>2018-07-18T09:40:36Z</time>
      </trkpt>
      <trkpt lat="47.77038" lon="-3.58693">
        <ele>21</ele>
        <time>2018-07-18T09:40:37Z</time>
      </trkpt>
      <trkpt lat="47.7704" lon="-3.58693">
        <ele>21</ele>
        <time>2018-07-18T09:40:38Z</time>
      </trkpt>
      <trkpt lat="47.77042" lon="-3.58694">
        <ele>21</ele>
        <time>2018-07-18T09:40:39Z</time>
      </trkpt>
      <trkpt lat="47.77045" lon="-3.58695">
        <ele>21</ele>
        <time>2018-07-18T09:40:40Z</time>
      </trkpt>
      <trkpt lat="47.77047" lon="-3.58696">
        <ele>21</ele>
        <time>2018-07-18T09:40:41Z</time>
      </trkpt>
      <trkpt lat="47.7705" lon="-3.58696">
        <ele>21</ele>
        <time>2018-07-18T09:40:42Z</time>
      </trkpt>
      <trkpt lat="47.77053" lon="-3.58696">
        <ele>21</ele>
        <time>2018-07-18T09:40:43Z</time>
      </trkpt>
      <trkpt lat="47.77056" lon="-3.58697">
        <ele>21</ele>
        <time>2018-07-18T09:40:44Z</time>
      </trkpt>
      <trkpt lat="47.77059" lon="-3.58696">
        <ele>22</ele>
        <time>2018-07-18T09:40:45Z</time>
      </trkpt>
      <trkpt lat="47.77062" lon="-3.58696">
        <ele>22</ele>
        <time>2018-07-18T09:40:46Z</time>
      </trkpt>
      <trkpt lat="47.77064" lon="-3.58697">
        <ele>22</ele>
        <time>2018-07-18T09:40:47Z</time>
      </trkpt>
      <trkpt lat="47.77067" lon="-3.58697">
        <ele>22</ele>
        <time>2018-07-18T09:40:48Z</time>
      </trkpt>
      <trkpt lat="47.7707" lon="-3.58698">
        <ele>22</ele>
        <time>2018-07-18T09:40:49Z</time>
      </trkpt>
      <trkpt lat="47.77073" lon="-3.58699">
        <ele>22</ele>
        <time>2018-07-18T09:40:50Z</time>
      </trkpt>
      <trkpt lat="47.77074" lon="-3.58701">
        <ele>23</ele>
        <time>2018-07-18T09:40:51Z</time>
      </trkpt>
      <trkpt lat="47.77073" lon="-3.58703">
        <ele>23</ele>
        <time>2018-07-18T09:40:52Z</time>
      </trkpt>
      <trkpt lat="47.77073" lon="-3.58705">
        <ele>23</ele>
        <time>2018-07-18T09:40:53Z</time>
      </trkpt>
      <trkpt lat="47.77072" lon="-3.58709">
        <ele>23</ele>
        <time>2018-07-18T09:40:54Z</time>
      </trkpt>
      <trkpt lat="47.77071" lon="-3.58714">
        <ele>23</ele>
        <time>2018-07-18T09:40:55Z</time>
      </trkpt>
      <trkpt lat="47.77069" lon="-3.58718">
        <ele>23</ele>
        <time>2018-07-18T09:40:56Z</time>
      </trkpt>
      <trkpt lat="47.77067" lon="-3.58723">
        <ele>23</ele>
        <time>2018-07-18T09:40:57Z</time>
      </trkpt>
      <trkpt lat="47.77065" lon="-3.58728">
        <ele>23</ele>
        <time>2018-07-18T09:40:58Z</time>
      </trkpt>
      <trkpt lat="47.77063" lon="-3.58732">
        <ele>23</ele>
        <time>2018-07-18T09:40:59Z</time>
      </trkpt>
      <trkpt lat="47.77061" lon="-3.58736">
        <ele>24</ele>
        <time>2018-07-18T09:41:00Z</time>
      </trkpt>
      <trkpt lat="47.77059" lon="-3.5874">
        <ele>24</ele>
        <time>2018-07-18T09:41:01Z</time>
      </trkpt>
      <trkpt lat="47.77056" lon="-3.58743">
        <ele>24</ele>
        <time>2018-07-18T09:41:02Z</time>
      </trkpt>
      <trkpt lat="47.77053" lon="-3.58747">
        <ele>24</ele>
        <time>2018-07-18T09:41:03Z</time>
      </trkpt>
      <trkpt lat="47.77051" lon="-3.58751">
        <ele>24</ele>
        <time>2018-07-18T09:41:04Z</time>
      </trkpt>
      <trkpt lat="47.77049" lon="-3.58756">
        <ele>25</ele>
        <time>2018-07-18T09:41:05Z</time>
      </trkpt>
      <trkpt lat="47.77046" lon="-3.58762">
        <ele>25</ele>
        <time>2018-07-18T09:41:06Z</time>
      </trkpt>
      <trkpt lat="47.77044" lon="-3.58767">
        <ele>25</ele>
        <time>2018-07-18T09:41:07Z</time>
      </trkpt>
      <trkpt lat="47.77042" lon="-3.58773">
        <ele>25</ele>
        <time>2018-07-18T09:41:08Z</time>
      </trkpt>
      <trkpt lat="47.77039" lon="-3.58778">
        <ele>25</ele>
        <time>2018-07-18T09:41:09Z</time>
      </trkpt>
      <trkpt lat="47.77037" lon="-3.58783">
        <ele>25</ele>
        <time>2018-07-18T09:41:10Z</time>
      </trkpt>
      <trkpt lat="47.77034" lon="-3.58787">
        <ele>25</ele>
        <time>2018-07-18T09:41:11Z</time>
      </trkpt>
      <trkpt lat="47.77032" lon="-3.58791">
        <ele>25</ele>
        <time>2018-07-18T09:41:12Z</time>
      </trkpt>
      <trkpt lat="47.77029" lon="-3.58796">
        <ele>25</ele>
        <time>2018-07-18T09:41:13Z</time>
      </trkpt>
      <trkpt lat="47.77026" lon="-3.58801">
        <ele>25</ele>
        <time>2018-07-18T09:41:14Z</time>
      </trkpt>
      <trkpt lat="47.77023" lon="-3.58805">
        <ele>25</ele>
        <time>2018-07-18T09:41:15Z</time>
      </trkpt>
      <trkpt lat="47.77021" lon="-3.58808">
        <ele>25</ele>
        <time>2018-07-18T09:41:16Z</time>
      </trkpt>
      <trkpt lat="47.77017" lon="-3.5881">
        <ele>25</ele>
        <time>2018-07-18T09:41:17Z</time>
      </trkpt>
      <trkpt lat="47.77014" lon="-3.58808">
        <ele>25</ele>
        <time>2018-07-18T09:41:18Z</time>
      </trkpt>
      <trkpt lat="47.7701" lon="-3.58804">
        <ele>25</ele>
        <time>2018-07-18T09:41:19Z</time>
      </trkpt>
      <trkpt lat="47.77006" lon="-3.58801">
        <ele>25</ele>
        <time>2018-07-18T09:41:20Z</time>
      </trkpt>
      <trkpt lat="47.77002" lon="-3.58797">
        <ele>24</ele>
        <time>2018-07-18T09:41:21Z</time>
      </trkpt>
      <trkpt lat="47.76997" lon="-3.58794">
        <ele>24</ele>
        <time>2018-07-18T09:41:22Z</time>
      </trkpt>
      <trkpt lat="47.76992" lon="-3.58791">
        <ele>24</ele>
        <time>2018-07-18T09:41:23Z</time>
      </trkpt>
      <trkpt lat="47.76986" lon="-3.58787">
        <ele>23</ele>
        <time>2018-07-18T09:41:24Z</time>
      </trkpt>
      <trkpt lat="47.76981" lon="-3.58784">
        <ele>23</ele>
        <time>2018-07-18T09:41:25Z</time>
      </trkpt>
      <trkpt lat="47.76975" lon="-3.58782">
        <ele>23</ele>
        <time>2018-07-18T09:41:26Z</time>
      </trkpt>
      <trkpt lat="47.76968" lon="-3.58779">
        <ele>22</ele>
        <time>2018-07-18T09:41:27Z</time>
      </trkpt>
      <trkpt lat="47.76962" lon="-3.58777">
        <ele>21</ele>
        <time>2018-07-18T09:41:28Z</time>
      </trkpt>
      <trkpt lat="47.76955" lon="-3.58774">
        <ele>21</ele>
        <time>2018-07-18T09:41:29Z</time>
      </trkpt>
      <trkpt lat="47.76948" lon="-3.58772">
        <ele>20</ele>
        <time>2018-07-18T09:41:30Z</time>
      </trkpt>
      <trkpt lat="47.76941" lon="-3.58771">
        <ele>19</ele>
        <time>2018-07-18T09:41:31Z</time>
      </trkpt>
      <trkpt lat="47.76936" lon="-3.5877">
        <ele>19</ele>
        <time>2018-07-18T09:41:32Z</time>
      </trkpt>
      <trkpt lat="47.76932" lon="-3.58771">
        <ele>18</ele>
        <time>2018-07-18T09:41:33Z</time>
      </trkpt>
      <trkpt lat="47.7693" lon="-3.58772">
        <ele>18</ele>
        <time>2018-07-18T09:41:34Z</time>
      </trkpt>
      <trkpt lat="47.76928" lon="-3.58774">
        <ele>17</ele>
        <time>2018-07-18T09:41:35Z</time>
      </trkpt>
      <trkpt lat="47.76926" lon="-3.58776">
        <ele>17</ele>
        <time>2018-07-18T09:41:36Z</time>
      </trkpt>
      <trkpt lat="47.76923" lon="-3.58778">
        <ele>16</ele>
        <time>2018-07-18T09:41:37Z</time>
      </trkpt>
      <trkpt lat="47.7692" lon="-3.5878">
        <ele>16</ele>
        <time>2018-07-18T09:41:38Z</time>
      </trkpt>
      <trkpt lat="47.76916" lon="-3.58781">
        <ele>15</ele>
        <time>2018-07-18T09:41:39Z</time>
      </trkpt>
      <trkpt lat="47.76912" lon="-3.58781">
        <ele>15</ele>
        <time>2018-07-18T09:41:40Z</time>
      </trkpt>
      <trkpt lat="47.76909" lon="-3.5878">
        <ele>15</ele>
        <time>2018-07-18T09:41:41Z</time>
      </trkpt>
      <trkpt lat="47.76906" lon="-3.58779">
        <ele>14</ele>
        <time>2018-07-18T09:41:42Z</time>
      </trkpt>
      <trkpt lat="47.76903" lon="-3.58779">
        <ele>14</ele>
        <time>2018-07-18T09:41:43Z</time>
      </trkpt>
      <trkpt lat="47.76901" lon="-3.58779">
        <ele>14</ele>
        <time>2018-07-18T09:41:44Z</time>
      </trkpt>
      <trkpt lat="47.76898" lon="-3.5878">
        <ele>14</ele>
        <time>2018-07-18T09:41:45Z</time>
      </trkpt>
      <trkpt lat="47.76896" lon="-3.58781">
        <ele>13</ele>
        <time>2018-07-18T09:41:46Z</time>
      </trkpt>
      <trkpt lat="47.76894" lon="-3.58783">
        <ele>13</ele>
        <time>2018-07-18T09:41:47Z</time>
      </trkpt>
      <trkpt lat="47.76892" lon="-3.58784">
        <ele>13</ele>
        <time>2018-07-18T09:41:48Z</time>
      </trkpt>
      <trkpt lat="47.76891" lon="-3.58784">
        <ele>13</ele>
        <time>2018-07-18T09:41:49Z</time>
      </trkpt>
      <trkpt lat="47.76891" lon="-3.58784">
        <ele>13</ele>
        <time>2018-07-18T09:41:50Z</time>
      </trkpt>
      <trkpt lat="47.76891" lon="-3.58784">
        <ele>13</ele>
        <time>2018-07-18T09:41:51Z</time>
      </trkpt>
      <trkpt lat="47.76891" lon="-3.58784">
        <ele>13</ele>
        <time>2018-07-18T09:41:52Z</time>
      </trkpt>
      <trkpt lat="47.76891" lon="-3.58784">
        <ele>13</ele>
        <time>2018-07-18T09:41:53Z</time>
      </trkpt>
      <trkpt lat="47.76889" lon="-3.58785">
        <ele>13</ele>
        <time>2018-07-18T09:41:54Z</time>
      </trkpt>
      <trkpt lat="47.76889" lon="-3.58786">
        <ele>13</ele>
        <time>2018-07-18T09:41:55Z</time>
      </trkpt>
      <trkpt lat="47.76888" lon="-3.58787">
        <ele>13</ele>
        <time>2018-07-18T09:41:56Z</time>
      </trkpt>
      <trkpt lat="47.76887" lon="-3.58787">
        <ele>13</ele>
        <time>2018-07-18T09:41:57Z</time>
      </trkpt>
      <trkpt lat="47.76887" lon="-3.58788">
        <ele>13</ele>
        <time>2018-07-18T09:41:58Z</time>
      </trkpt>
      <trkpt lat="47.76886" lon="-3.58789">
        <ele>13</ele>
        <time>2018-07-18T09:41:59Z</time>
      </trkpt>
      <trkpt lat="47.76885" lon="-3.58789">
        <ele>13</ele>
        <time>2018-07-18T09:42:00Z</time>
      </trkpt>
      <trkpt lat="47.76884" lon="-3.58789">
        <ele>13</ele>
        <time>2018-07-18T09:42:01Z</time>
      </trkpt>
      <trkpt lat="47.76883" lon="-3.5879">
        <ele>13</ele>
        <time>2018-07-18T09:42:02Z</time>
      </trkpt>
      <trkpt lat="47.76881" lon="-3.58791">
        <ele>13</ele>
        <time>2018-07-18T09:42:03Z</time>
      </trkpt>
      <trkpt lat="47.76879" lon="-3.58791">
        <ele>13</ele>
        <time>2018-07-18T09:42:04Z</time>
      </trkpt>
      <trkpt lat="47.76877" lon="-3.5879">
        <ele>13</ele>
        <time>2018-07-18T09:42:05Z</time>
      </trkpt>
      <trkpt lat="47.76875" lon="-3.5879">
        <ele>13</ele>
        <time>2018-07-18T09:42:06Z</time>
      </trkpt>
      <trkpt lat="47.76873" lon="-3.5879">
        <ele>13</ele>
        <time>2018-07-18T09:42:07Z</time>
      </trkpt>
      <trkpt lat="47.76872" lon="-3.5879">
        <ele>13</ele>
        <time>2018-07-18T09:42:08Z</time>
      </trkpt>
      <trkpt lat="47.7687" lon="-3.58791">
        <ele>12</ele>
        <time>2018-07-18T09:42:09Z</time>
      </trkpt>
      <trkpt lat="47.76868" lon="-3.58792">
        <ele>12</ele>
        <time>2018-07-18T09:42:10Z</time>
      </trkpt>
      <trkpt lat="47.76866" lon="-3.58794">
        <ele>13</ele>
        <time>2018-07-18T09:42:11Z</time>
      </trkpt>
      <trkpt lat="47.76865" lon="-3.58797">
        <ele>13</ele>
        <time>2018-07-18T09:42:12Z</time>
      </trkpt>
      <trkpt lat="47.76863" lon="-3.588">
        <ele>13</ele>
        <time>2018-07-18T09:42:13Z</time>
      </trkpt>
      <trkpt lat="47.76862" lon="-3.58802">
        <ele>13</ele>
        <time>2018-07-18T09:42:14Z</time>
      </trkpt>
      <trkpt lat="47.76859" lon="-3.58805">
        <ele>13</ele>
        <time>2018-07-18T09:42:15Z</time>
      </trkpt>
      <trkpt lat="47.76856" lon="-3.58806">
        <ele>13</ele>
        <time>2018-07-18T09:42:16Z</time>
      </trkpt>
      <trkpt lat="47.76853" lon="-3.58806">
        <ele>13</ele>
        <time>2018-07-18T09:42:17Z</time>
      </trkpt>
      <trkpt lat="47.7685" lon="-3.58806">
        <ele>13</ele>
        <time>2018-07-18T09:42:18Z</time>
      </trkpt>
      <trkpt lat="47.76847" lon="-3.58805">
        <ele>13</ele>
        <time>2018-07-18T09:42:19Z</time>
      </trkpt>
      <trkpt lat="47.76844" lon="-3.58806">
        <ele>13</ele>
        <time>2018-07-18T09:42:20Z</time>
      </trkpt>
      <trkpt lat="47.76841" lon="-3.58808">
        <ele>13</ele>
        <time>2018-07-18T09:42:21Z</time>
      </trkpt>
      <trkpt lat="47.76838" lon="-3.58807">
        <ele>13</ele>
        <time>2018-07-18T09:42:22Z</time>
      </trkpt>
      <trkpt lat="47.76835" lon="-3.58807">
        <ele>13</ele>
        <time>2018-07-18T09:42:23Z</time>
      </trkpt>
      <trkpt lat="47.76832" lon="-3.58807">
        <ele>13</ele>
        <time>2018-07-18T09:42:24Z</time>
      </trkpt>
      <trkpt lat="47.76831" lon="-3.58808">
        <ele>13</ele>
        <time>2018-07-18T09:42:25Z</time>
      </trkpt>
      <trkpt lat="47.7683" lon="-3.5881">
        <ele>13</ele>
        <time>2018-07-18T09:42:26Z</time>
      </trkpt>
      <trkpt lat="47.7683" lon="-3.58813">
        <ele>13</ele>
        <time>2018-07-18T09:42:27Z</time>
      </trkpt>
      <trkpt lat="47.7683" lon="-3.58817">
        <ele>13</ele>
        <time>2018-07-18T09:42:28Z</time>
      </trkpt>
      <trkpt lat="47.76829" lon="-3.58821">
        <ele>13</ele>
        <time>2018-07-18T09:42:29Z</time>
      </trkpt>
      <trkpt lat="47.76829" lon="-3.58826">
        <ele>13</ele>
        <time>2018-07-18T09:42:30Z</time>
      </trkpt>
      <trkpt lat="47.76828" lon="-3.58831">
        <ele>13</ele>
        <time>2018-07-18T09:42:31Z</time>
      </trkpt>
      <trkpt lat="47.76828" lon="-3.58836">
        <ele>13</ele>
        <time>2018-07-18T09:42:32Z</time>
      </trkpt>
      <trkpt lat="47.76827" lon="-3.58842">
        <ele>13</ele>
        <time>2018-07-18T09:42:33Z</time>
      </trkpt>
      <trkpt lat="47.76826" lon="-3.58846">
        <ele>13</ele>
        <time>2018-07-18T09:42:34Z</time>
      </trkpt>
      <trkpt lat="47.76824" lon="-3.58851">
        <ele>13</ele>
        <time>2018-07-18T09:42:35Z</time>
      </trkpt>
      <trkpt lat="47.76822" lon="-3.58855">
        <ele>13</ele>
        <time>2018-07-18T09:42:36Z</time>
      </trkpt>
      <trkpt lat="47.7682" lon="-3.5886">
        <ele>13</ele>
        <time>2018-07-18T09:42:37Z</time>
      </trkpt>
      <trkpt lat="47.76819" lon="-3.58864">
        <ele>13</ele>
        <time>2018-07-18T09:42:38Z</time>
      </trkpt>
      <trkpt lat="47.76818" lon="-3.58867">
        <ele>13</ele>
        <time>2018-07-18T09:42:39Z</time>
      </trkpt>
      <trkpt lat="47.76818" lon="-3.58871">
        <ele>13</ele>
        <time>2018-07-18T09:42:40Z</time>
      </trkpt>
      <trkpt lat="47.76818" lon="-3.58876">
        <ele>13</ele>
        <time>2018-07-18T09:42:41Z</time>
      </trkpt>
      <trkpt lat="47.76818" lon="-3.5888">
        <ele>13</ele>
        <time>2018-07-18T09:42:42Z</time>
      </trkpt>
      <trkpt lat="47.76819" lon="-3.58885">
        <ele>13</ele>
        <time>2018-07-18T09:42:43Z</time>
      </trkpt>
      <trkpt lat="47.7682" lon="-3.58889">
        <ele>13</ele>
        <time>2018-07-18T09:42:44Z</time>
      </trkpt>
      <trkpt lat="47.76822" lon="-3.58894">
        <ele>13</ele>
        <time>2018-07-18T09:42:45Z</time>
      </trkpt>
      <trkpt lat="47.76823" lon="-3.58899">
        <ele>13</ele>
        <time>2018-07-18T09:42:46Z</time>
      </trkpt>
      <trkpt lat="47.76824" lon="-3.58905">
        <ele>13</ele>
        <time>2018-07-18T09:42:47Z</time>
      </trkpt>
      <trkpt lat="47.76824" lon="-3.5891">
        <ele>13</ele>
        <time>2018-07-18T09:42:48Z</time>
      </trkpt>
      <trkpt lat="47.76824" lon="-3.58916">
        <ele>13</ele>
        <time>2018-07-18T09:42:49Z</time>
      </trkpt>
      <trkpt lat="47.76823" lon="-3.58922">
        <ele>12</ele>
        <time>2018-07-18T09:42:50Z</time>
      </trkpt>
      <trkpt lat="47.76823" lon="-3.58928">
        <ele>12</ele>
        <time>2018-07-18T09:42:51Z</time>
      </trkpt>
      <trkpt lat="47.76823" lon="-3.58934">
        <ele>12</ele>
        <time>2018-07-18T09:42:52Z</time>
      </trkpt>
      <trkpt lat="47.76824" lon="-3.5894">
        <ele>12</ele>
        <time>2018-07-18T09:42:53Z</time>
      </trkpt>
      <trkpt lat="47.76825" lon="-3.58945">
        <ele>12</ele>
        <time>2018-07-18T09:42:54Z</time>
      </trkpt>
      <trkpt lat="47.76828" lon="-3.58949">
        <ele>12</ele>
        <time>2018-07-18T09:42:55Z</time>
      </trkpt>
      <trkpt lat="47.76831" lon="-3.58953">
        <ele>12</ele>
        <time>2018-07-18T09:42:56Z</time>
      </trkpt>
      <trkpt lat="47.76834" lon="-3.58954">
        <ele>12</ele>
        <time>2018-07-18T09:42:57Z</time>
      </trkpt>
      <trkpt lat="47.76838" lon="-3.58955">
        <ele>12</ele>
        <time>2018-07-18T09:42:58Z</time>
      </trkpt>
      <trkpt lat="47.76841" lon="-3.58958">
        <ele>12</ele>
        <time>2018-07-18T09:42:59Z</time>
      </trkpt>
      <trkpt lat="47.76844" lon="-3.58961">
        <ele>11</ele>
        <time>2018-07-18T09:43:00Z</time>
      </trkpt>
      <trkpt lat="47.76846" lon="-3.58965">
        <ele>11</ele>
        <time>2018-07-18T09:43:01Z</time>
      </trkpt>
      <trkpt lat="47.76848" lon="-3.58971">
        <ele>11</ele>
        <time>2018-07-18T09:43:02Z</time>
      </trkpt>
      <trkpt lat="47.76849" lon="-3.58977">
        <ele>11</ele>
        <time>2018-07-18T09:43:03Z</time>
      </trkpt>
      <trkpt lat="47.76851" lon="-3.58984">
        <ele>10</ele>
        <time>2018-07-18T09:43:04Z</time>
      </trkpt>
      <trkpt lat="47.76853" lon="-3.58991">
        <ele>10</ele>
        <time>2018-07-18T09:43:05Z</time>
      </trkpt>
      <trkpt lat="47.76857" lon="-3.58995">
        <ele>10</ele>
        <time>2018-07-18T09:43:06Z</time>
      </trkpt>
      <trkpt lat="47.76861" lon="-3.58997">
        <ele>10</ele>
        <time>2018-07-18T09:43:07Z</time>
      </trkpt>
      <trkpt lat="47.76864" lon="-3.58999">
        <ele>10</ele>
        <time>2018-07-18T09:43:08Z</time>
      </trkpt>
      <trkpt lat="47.76868" lon="-3.59001">
        <ele>11</ele>
        <time>2018-07-18T09:43:09Z</time>
      </trkpt>
      <trkpt lat="47.76871" lon="-3.59002">
        <ele>11</ele>
        <time>2018-07-18T09:43:10Z</time>
      </trkpt>
      <trkpt lat="47.76875" lon="-3.59003">
        <ele>11</ele>
        <time>2018-07-18T09:43:11Z</time>
      </trkpt>
      <trkpt lat="47.76879" lon="-3.59005">
        <ele>11</ele>
        <time>2018-07-18T09:43:12Z</time>
      </trkpt>
      <trkpt lat="47.76882" lon="-3.59007">
        <ele>11</ele>
        <time>2018-07-18T09:43:13Z</time>
      </trkpt>
      <trkpt lat="47.76886" lon="-3.5901">
        <ele>11</ele>
        <time>2018-07-18T09:43:14Z</time>
      </trkpt>
      <trkpt lat="47.76889" lon="-3.59014">
        <ele>11</ele>
        <time>2018-07-18T09:43:15Z</time>
      </trkpt>
      <trkpt lat="47.76893" lon="-3.59017">
        <ele>11</ele>
        <time>2018-07-18T09:43:16Z</time>
      </trkpt>
      <trkpt lat="47.76896" lon="-3.59021">
        <ele>11</ele>
        <time>2018-07-18T09:43:17Z</time>
      </trkpt>
      <trkpt lat="47.76899" lon="-3.59024">
        <ele>11</ele>
        <time>2018-07-18T09:43:18Z</time>
      </trkpt>
      <trkpt lat="47.76902" lon="-3.59026">
        <ele>10</ele>
        <time>2018-07-18T09:43:19Z</time>
      </trkpt>
      <trkpt lat="47.76906" lon="-3.59029">
        <ele>10</ele>
        <time>2018-07-18T09:43:20Z</time>
      </trkpt>
      <trkpt lat="47.76909" lon="-3.59032">
        <ele>10</ele>
        <time>2018-07-18T09:43:21Z</time>
      </trkpt>
      <trkpt lat="47.76912" lon="-3.59036">
        <ele>9</ele>
        <time>2018-07-18T09:43:22Z</time>
      </trkpt>
      <trkpt lat="47.76914" lon="-3.59041">
        <ele>9</ele>
        <time>2018-07-18T09:43:23Z</time>
      </trkpt>
      <trkpt lat="47.76915" lon="-3.59047">
        <ele>9</ele>
        <time>2018-07-18T09:43:24Z</time>
      </trkpt>
      <trkpt lat="47.76915" lon="-3.59053">
        <ele>9</ele>
        <time>2018-07-18T09:43:25Z</time>
      </trkpt>
      <trkpt lat="47.76916" lon="-3.59059">
        <ele>9</ele>
        <time>2018-07-18T09:43:26Z</time>
      </trkpt>
      <trkpt lat="47.76918" lon="-3.59064">
        <ele>9</ele>
        <time>2018-07-18T09:43:27Z</time>
      </trkpt>
      <trkpt lat="47.76919" lon="-3.59068">
        <ele>9</ele>
        <time>2018-07-18T09:43:28Z</time>
      </trkpt>
      <trkpt lat="47.76921" lon="-3.59072">
        <ele>9</ele>
        <time>2018-07-18T09:43:29Z</time>
      </trkpt>
      <trkpt lat="47.76923" lon="-3.59075">
        <ele>9</ele>
        <time>2018-07-18T09:43:30Z</time>
      </trkpt>
      <trkpt lat="47.76926" lon="-3.59078">
        <ele>9</ele>
        <time>2018-07-18T09:43:31Z</time>
      </trkpt>
      <trkpt lat="47.76928" lon="-3.59082">
        <ele>9</ele>
        <time>2018-07-18T09:43:32Z</time>
      </trkpt>
      <trkpt lat="47.7693" lon="-3.59085">
        <ele>9</ele>
        <time>2018-07-18T09:43:33Z</time>
      </trkpt>
      <trkpt lat="47.76932" lon="-3.59087">
        <ele>9</ele>
        <time>2018-07-18T09:43:34Z</time>
      </trkpt>
      <trkpt lat="47.76934" lon="-3.5909">
        <ele>9</ele>
        <time>2018-07-18T09:43:35Z</time>
      </trkpt>
      <trkpt lat="47.76935" lon="-3.59093">
        <ele>9</ele>
        <time>2018-07-18T09:43:36Z</time>
      </trkpt>
      <trkpt lat="47.76936" lon="-3.59096">
        <ele>9</ele>
        <time>2018-07-18T09:43:37Z</time>
      </trkpt>
      <trkpt lat="47.76937" lon="-3.59098">
        <ele>9</ele>
        <time>2018-07-18T09:43:38Z</time>
      </trkpt>
      <trkpt lat="47.76938" lon="-3.59098">
        <ele>9</ele>
        <time>2018-07-18T09:43:39Z</time>
      </trkpt>
      <trkpt lat="47.7694" lon="-3.59099">
        <ele>9</ele>
        <time>2018-07-18T09:43:40Z</time>
      </trkpt>
      <trkpt lat="47.76941" lon="-3.591">
        <ele>9</ele>
        <time>2018-07-18T09:43:41Z</time>
      </trkpt>
      <trkpt lat="47.76941" lon="-3.591">
        <ele>9</ele>
        <time>2018-07-18T09:43:42Z</time>
      </trkpt>
      <trkpt lat="47.76941" lon="-3.59101">
        <ele>8</ele>
        <time>2018-07-18T09:43:43Z</time>
      </trkpt>
      <trkpt lat="47.76941" lon="-3.59101">
        <ele>8</ele>
        <time>2018-07-18T09:43:44Z</time>
      </trkpt>
      <trkpt lat="47.76941" lon="-3.59101">
        <ele>8</ele>
        <time>2018-07-18T09:43:45Z</time>
      </trkpt>
      <trkpt lat="47.76942" lon="-3.59101">
        <ele>8</ele>
        <time>2018-07-18T09:43:46Z</time>
      </trkpt>
      <trkpt lat="47.76942" lon="-3.59102">
        <ele>8</ele>
        <time>2018-07-18T09:43:47Z</time>
      </trkpt>
      <trkpt lat="47.76942" lon="-3.59104">
        <ele>7</ele>
        <time>2018-07-18T09:43:48Z</time>
      </trkpt>
      <trkpt lat="47.76941" lon="-3.59105">
        <ele>7</ele>
        <time>2018-07-18T09:43:49Z</time>
      </trkpt>
      <trkpt lat="47.76941" lon="-3.59106">
        <ele>7</ele>
        <time>2018-07-18T09:43:50Z</time>
      </trkpt>
      <trkpt lat="47.76941" lon="-3.59106">
        <ele>7</ele>
        <time>2018-07-18T09:43:51Z</time>
      </trkpt>
      <trkpt lat="47.76941" lon="-3.59108">
        <ele>7</ele>
        <time>2018-07-18T09:43:52Z</time>
      </trkpt>
      <trkpt lat="47.76941" lon="-3.5911">
        <ele>7</ele>
        <time>2018-07-18T09:43:53Z</time>
      </trkpt>
      <trkpt lat="47.76941" lon="-3.59113">
        <ele>7</ele>
        <time>2018-07-18T09:43:54Z</time>
      </trkpt>
      <trkpt lat="47.76941" lon="-3.59114">
        <ele>7</ele>
        <time>2018-07-18T09:43:55Z</time>
      </trkpt>
      <trkpt lat="47.76941" lon="-3.59114">
        <ele>7</ele>
        <time>2018-07-18T09:43:56Z</time>
      </trkpt>
      <trkpt lat="47.76941" lon="-3.59114">
        <ele>7</ele>
        <time>2018-07-18T09:43:57Z</time>
      </trkpt>
      <trkpt lat="47.76942" lon="-3.59114">
        <ele>7</ele>
        <time>2018-07-18T09:43:58Z</time>
      </trkpt>
      <trkpt lat="47.76941" lon="-3.59114">
        <ele>7</ele>
        <time>2018-07-18T09:43:59Z</time>
      </trkpt>
      <trkpt lat="47.76941" lon="-3.59115">
        <ele>7</ele>
        <time>2018-07-18T09:44:00Z</time>
      </trkpt>
      <trkpt lat="47.76941" lon="-3.59117">
        <ele>7</ele>
        <time>2018-07-18T09:44:01Z</time>
      </trkpt>
      <trkpt lat="47.76941" lon="-3.59119">
        <ele>7</ele>
        <time>2018-07-18T09:44:02Z</time>
      </trkpt>
      <trkpt lat="47.76942" lon="-3.5912">
        <ele>7</ele>
        <time>2018-07-18T09:44:03Z</time>
      </trkpt>
      <trkpt lat="47.76941" lon="-3.59122">
        <ele>7</ele>
        <time>2018-07-18T09:44:04Z</time>
      </trkpt>
      <trkpt lat="47.76941" lon="-3.59124">
        <ele>7</ele>
        <time>2018-07-18T09:44:05Z</time>
      </trkpt>
      <trkpt lat="47.7694" lon="-3.59126">
        <ele>7</ele>
        <time>2018-07-18T09:44:06Z</time>
      </trkpt>
      <trkpt lat="47.7694" lon="-3.59127">
        <ele>7</ele>
        <time>2018-07-18T09:44:07Z</time>
      </trkpt>
      <trkpt lat="47.76939" lon="-3.59128">
        <ele>7</ele>
        <time>2018-07-18T09:44:08Z</time>
      </trkpt>
      <trkpt lat="47.76939" lon="-3.59129">
        <ele>7</ele>
        <time>2018-07-18T09:44:09Z</time>
      </trkpt>
      <trkpt lat="47.76938" lon="-3.59131">
        <ele>7</ele>
        <time>2018-07-18T09:44:10Z</time>
      </trkpt>
      <trkpt lat="47.76938" lon="-3.59132">
        <ele>7</ele>
        <time>2018-07-18T09:44:11Z</time>
      </trkpt>
      <trkpt lat="47.76938" lon="-3.59134">
        <ele>7</ele>
        <time>2018-07-18T09:44:12Z</time>
      </trkpt>
      <trkpt lat="47.76938" lon="-3.59135">
        <ele>7</ele>
        <time>2018-07-18T09:44:13Z</time>
      </trkpt>
      <trkpt lat="47.76938" lon="-3.59136">
        <ele>7</ele>
        <time>2018-07-18T09:44:14Z</time>
      </trkpt>
      <trkpt lat="47.76938" lon="-3.59138">
        <ele>8</ele>
        <time>2018-07-18T09:44:15Z</time>
      </trkpt>
      <trkpt lat="47.76938" lon="-3.59138">
        <ele>8</ele>
        <time>2018-07-18T09:44:16Z</time>
      </trkpt>
      <trkpt lat="47.76938" lon="-3.59139">
        <ele>8</ele>
        <time>2018-07-18T09:44:17Z</time>
      </trkpt>
      <trkpt lat="47.76938" lon="-3.59139">
        <ele>8</ele>
        <time>2018-07-18T09:44:18Z</time>
      </trkpt>
      <trkpt lat="47.76938" lon="-3.5914">
        <ele>8</ele>
        <time>2018-07-18T09:44:19Z</time>
      </trkpt>
      <trkpt lat="47.76938" lon="-3.59141">
        <ele>8</ele>
        <time>2018-07-18T09:44:20Z</time>
      </trkpt>
      <trkpt lat="47.76938" lon="-3.59142">
        <ele>8</ele>
        <time>2018-07-18T09:44:21Z</time>
      </trkpt>
      <trkpt lat="47.76938" lon="-3.59143">
        <ele>9</ele>
        <time>2018-07-18T09:44:22Z</time>
      </trkpt>
      <trkpt lat="47.76938" lon="-3.59144">
        <ele>9</ele>
        <time>2018-07-18T09:44:23Z</time>
      </trkpt>
      <trkpt lat="47.76938" lon="-3.59145">
        <ele>9</ele>
        <time>2018-07-18T09:44:24Z</time>
      </trkpt>
      <trkpt lat="47.76938" lon="-3.59146">
        <ele>9</ele>
        <time>2018-07-18T09:44:25Z</time>
      </trkpt>
      <trkpt lat="47.76938" lon="-3.59146">
        <ele>9</ele>
        <time>2018-07-18T09:44:26Z</time>
      </trkpt>
      <trkpt lat="47.76937" lon="-3.59147">
        <ele>9</ele>
        <time>2018-07-18T09:44:27Z</time>
      </trkpt>
      <trkpt lat="47.76937" lon="-3.59148">
        <ele>9</ele>
        <time>2018-07-18T09:44:28Z</time>
      </trkpt>
      <trkpt lat="47.76936" lon="-3.59149">
        <ele>9</ele>
        <time>2018-07-18T09:44:29Z</time>
      </trkpt>
      <trkpt lat="47.76936" lon="-3.59149">
        <ele>10</ele>
        <time>2018-07-18T09:44:30Z</time>
      </trkpt>
      <trkpt lat="47.76936" lon="-3.59149">
        <ele>10</ele>
        <time>2018-07-18T09:44:31Z</time>
      </trkpt>
      <trkpt lat="47.76936" lon="-3.59149">
        <ele>10</ele>
        <time>2018-07-18T09:44:32Z</time>
      </trkpt>
      <trkpt lat="47.76936" lon="-3.59156">
        <ele>10</ele>
        <time>2018-07-18T09:44:33Z</time>
      </trkpt>
      <trkpt lat="47.76937" lon="-3.59159">
        <ele>10</ele>
        <time>2018-07-18T09:44:34Z</time>
      </trkpt>
      <trkpt lat="47.76937" lon="-3.59162">
        <ele>10</ele>
        <time>2018-07-18T09:44:35Z</time>
      </trkpt>
      <trkpt lat="47.76938" lon="-3.59164">
        <ele>10</ele>
        <time>2018-07-18T09:44:36Z</time>
      </trkpt>
      <trkpt lat="47.76938" lon="-3.59167">
        <ele>10</ele>
        <time>2018-07-18T09:44:37Z</time>
      </trkpt>
      <trkpt lat="47.76938" lon="-3.5917">
        <ele>10</ele>
        <time>2018-07-18T09:44:38Z</time>
      </trkpt>
      <trkpt lat="47.76938" lon="-3.59174">
        <ele>10</ele>
        <time>2018-07-18T09:44:39Z</time>
      </trkpt>
      <trkpt lat="47.76938" lon="-3.59177">
        <ele>10</ele>
        <time>2018-07-18T09:44:40Z</time>
      </trkpt>
      <trkpt lat="47.76938" lon="-3.5918">
        <ele>10</ele>
        <time>2018-07-18T09:44:41Z</time>
      </trkpt>
      <trkpt lat="47.76937" lon="-3.59182">
        <ele>10</ele>
        <time>2018-07-18T09:44:42Z</time>
      </trkpt>
      <trkpt lat="47.76935" lon="-3.59184">
        <ele>10</ele>
        <time>2018-07-18T09:44:43Z</time>
      </trkpt>
      <trkpt lat="47.76934" lon="-3.59186">
        <ele>10</ele>
        <time>2018-07-18T09:44:44Z</time>
      </trkpt>
      <trkpt lat="47.76932" lon="-3.59188">
        <ele>10</ele>
        <time>2018-07-18T09:44:45Z</time>
      </trkpt>
      <trkpt lat="47.76931" lon="-3.59191">
        <ele>10</ele>
        <time>2018-07-18T09:44:46Z</time>
      </trkpt>
      <trkpt lat="47.7693" lon="-3.59196">
        <ele>10</ele>
        <time>2018-07-18T09:44:47Z</time>
      </trkpt>
      <trkpt lat="47.76928" lon="-3.592">
        <ele>10</ele>
        <time>2018-07-18T09:44:48Z</time>
      </trkpt>
      <trkpt lat="47.76925" lon="-3.59204">
        <ele>10</ele>
        <time>2018-07-18T09:44:49Z</time>
      </trkpt>
      <trkpt lat="47.76922" lon="-3.59207">
        <ele>10</ele>
        <time>2018-07-18T09:44:50Z</time>
      </trkpt>
      <trkpt lat="47.7692" lon="-3.5921">
        <ele>10</ele>
        <time>2018-07-18T09:44:51Z</time>
      </trkpt>
      <trkpt lat="47.76917" lon="-3.59212">
        <ele>9</ele>
        <time>2018-07-18T09:44:52Z</time>
      </trkpt>
      <trkpt lat="47.76914" lon="-3.59215">
        <ele>9</ele>
        <time>2018-07-18T09:44:53Z</time>
      </trkpt>
      <trkpt lat="47.76912" lon="-3.59219">
        <ele>9</ele>
        <time>2018-07-18T09:44:54Z</time>
      </trkpt>
      <trkpt lat="47.76911" lon="-3.59223">
        <ele>10</ele>
        <time>2018-07-18T09:44:55Z</time>
      </trkpt>
      <trkpt lat="47.76909" lon="-3.59225">
        <ele>10</ele>
        <time>2018-07-18T09:44:56Z</time>
      </trkpt>
      <trkpt lat="47.76906" lon="-3.59227">
        <ele>10</ele>
        <time>2018-07-18T09:44:57Z</time>
      </trkpt>
      <trkpt lat="47.76904" lon="-3.59228">
        <ele>10</ele>
        <time>2018-07-18T09:44:58Z</time>
      </trkpt>
      <trkpt lat="47.76903" lon="-3.5923">
        <ele>10</ele>
        <time>2018-07-18T09:44:59Z</time>
      </trkpt>
      <trkpt lat="47.76902" lon="-3.59231">
        <ele>10</ele>
        <time>2018-07-18T09:45:00Z</time>
      </trkpt>
      <trkpt lat="47.76901" lon="-3.59231">
        <ele>10</ele>
        <time>2018-07-18T09:45:01Z</time>
      </trkpt>
      <trkpt lat="47.769" lon="-3.5923">
        <ele>10</ele>
        <time>2018-07-18T09:45:02Z</time>
      </trkpt>
      <trkpt lat="47.76898" lon="-3.5923">
        <ele>10</ele>
        <time>2018-07-18T09:45:03Z</time>
      </trkpt>
      <trkpt lat="47.76896" lon="-3.59228">
        <ele>10</ele>
        <time>2018-07-18T09:45:04Z</time>
      </trkpt>
      <trkpt lat="47.76893" lon="-3.59228">
        <ele>10</ele>
        <time>2018-07-18T09:45:05Z</time>
      </trkpt>
      <trkpt lat="47.76891" lon="-3.59227">
        <ele>10</ele>
        <time>2018-07-18T09:45:06Z</time>
      </trkpt>
      <trkpt lat="47.76888" lon="-3.59227">
        <ele>10</ele>
        <time>2018-07-18T09:45:07Z</time>
      </trkpt>
      <trkpt lat="47.76886" lon="-3.59229">
        <ele>10</ele>
        <time>2018-07-18T09:45:08Z</time>
      </trkpt>
      <trkpt lat="47.76883" lon="-3.59231">
        <ele>10</ele>
        <time>2018-07-18T09:45:09Z</time>
      </trkpt>
      <trkpt lat="47.7688" lon="-3.59232">
        <ele>10</ele>
        <time>2018-07-18T09:45:10Z</time>
      </trkpt>
      <trkpt lat="47.76878" lon="-3.59234">
        <ele>10</ele>
        <time>2018-07-18T09:45:11Z</time>
      </trkpt>
      <trkpt lat="47.76875" lon="-3.59236">
        <ele>10</ele>
        <time>2018-07-18T09:45:12Z</time>
      </trkpt>
      <trkpt lat="47.76872" lon="-3.59237">
        <ele>10</ele>
        <time>2018-07-18T09:45:13Z</time>
      </trkpt>
      <trkpt lat="47.7687" lon="-3.59238">
        <ele>10</ele>
        <time>2018-07-18T09:45:14Z</time>
      </trkpt>
      <trkpt lat="47.76867" lon="-3.5924">
        <ele>10</ele>
        <time>2018-07-18T09:45:15Z</time>
      </trkpt>
      <trkpt lat="47.76864" lon="-3.59242">
        <ele>10</ele>
        <time>2018-07-18T09:45:16Z</time>
      </trkpt>
      <trkpt lat="47.76861" lon="-3.59245">
        <ele>10</ele>
        <time>2018-07-18T09:45:17Z</time>
      </trkpt>
      <trkpt lat="47.76859" lon="-3.59248">
        <ele>11</ele>
        <time>2018-07-18T09:45:18Z</time>
      </trkpt>
      <trkpt lat="47.76856" lon="-3.59251">
        <ele>11</ele>
        <time>2018-07-18T09:45:19Z</time>
      </trkpt>
      <trkpt lat="47.76853" lon="-3.59255">
        <ele>11</ele>
        <time>2018-07-18T09:45:20Z</time>
      </trkpt>
      <trkpt lat="47.7685" lon="-3.59257">
        <ele>11</ele>
        <time>2018-07-18T09:45:21Z</time>
      </trkpt>
      <trkpt lat="47.76847" lon="-3.5926">
        <ele>11</ele>
        <time>2018-07-18T09:45:22Z</time>
      </trkpt>
      <trkpt lat="47.76844" lon="-3.59264">
        <ele>11</ele>
        <time>2018-07-18T09:45:23Z</time>
      </trkpt>
      <trkpt lat="47.76841" lon="-3.59268">
        <ele>11</ele>
        <time>2018-07-18T09:45:24Z</time>
      </trkpt>
      <trkpt lat="47.7684" lon="-3.59273">
        <ele>11</ele>
        <time>2018-07-18T09:45:25Z</time>
      </trkpt>
      <trkpt lat="47.76839" lon="-3.59278">
        <ele>11</ele>
        <time>2018-07-18T09:45:26Z</time>
      </trkpt>
      <trkpt lat="47.76838" lon="-3.59283">
        <ele>11</ele>
        <time>2018-07-18T09:45:27Z</time>
      </trkpt>
      <trkpt lat="47.76838" lon="-3.59289">
        <ele>11</ele>
        <time>2018-07-18T09:45:28Z</time>
      </trkpt>
      <trkpt lat="47.76839" lon="-3.59295">
        <ele>11</ele>
        <time>2018-07-18T09:45:29Z</time>
      </trkpt>
      <trkpt lat="47.7684" lon="-3.59301">
        <ele>11</ele>
        <time>2018-07-18T09:45:30Z</time>
      </trkpt>
      <trkpt lat="47.76841" lon="-3.59307">
        <ele>11</ele>
        <time>2018-07-18T09:45:31Z</time>
      </trkpt>
      <trkpt lat="47.76843" lon="-3.59312">
        <ele>11</ele>
        <time>2018-07-18T09:45:32Z</time>
      </trkpt>
      <trkpt lat="47.76845" lon="-3.59318">
        <ele>11</ele>
        <time>2018-07-18T09:45:33Z</time>
      </trkpt>
      <trkpt lat="47.76847" lon="-3.59323">
        <ele>11</ele>
        <time>2018-07-18T09:45:34Z</time>
      </trkpt>
      <trkpt lat="47.7685" lon="-3.59328">
        <ele>11</ele>
        <time>2018-07-18T09:45:35Z</time>
      </trkpt>
      <trkpt lat="47.76852" lon="-3.59332">
        <ele>11</ele>
        <time>2018-07-18T09:45:36Z</time>
      </trkpt>
      <trkpt lat="47.76854" lon="-3.59338">
        <ele>11</ele>
        <time>2018-07-18T09:45:37Z</time>
      </trkpt>
      <trkpt lat="47.76856" lon="-3.59342">
        <ele>11</ele>
        <time>2018-07-18T09:45:38Z</time>
      </trkpt>
      <trkpt lat="47.76859" lon="-3.59346">
        <ele>12</ele>
        <time>2018-07-18T09:45:39Z</time>
      </trkpt>
      <trkpt lat="47.76862" lon="-3.59351">
        <ele>12</ele>
        <time>2018-07-18T09:45:40Z</time>
      </trkpt>
      <trkpt lat="47.76866" lon="-3.59355">
        <ele>12</ele>
        <time>2018-07-18T09:45:41Z</time>
      </trkpt>
      <trkpt lat="47.76869" lon="-3.59358">
        <ele>12</ele>
        <time>2018-07-18T09:45:42Z</time>
      </trkpt>
      <trkpt lat="47.76872" lon="-3.59362">
        <ele>12</ele>
        <time>2018-07-18T09:45:43Z</time>
      </trkpt>
      <trkpt lat="47.76874" lon="-3.59367">
        <ele>12</ele>
        <time>2018-07-18T09:45:44Z</time>
      </trkpt>
      <trkpt lat="47.76876" lon="-3.59373">
        <ele>12</ele>
        <time>2018-07-18T09:45:45Z</time>
      </trkpt>
      <trkpt lat="47.76878" lon="-3.59378">
        <ele>11</ele>
        <time>2018-07-18T09:45:46Z</time>
      </trkpt>
      <trkpt lat="47.7688" lon="-3.59384">
        <ele>11</ele>
        <time>2018-07-18T09:45:47Z</time>
      </trkpt>
      <trkpt lat="47.76882" lon="-3.59391">
        <ele>11</ele>
        <time>2018-07-18T09:45:48Z</time>
      </trkpt>
      <trkpt lat="47.76883" lon="-3.59398">
        <ele>11</ele>
        <time>2018-07-18T09:45:49Z</time>
      </trkpt>
      <trkpt lat="47.76883" lon="-3.59405">
        <ele>10</ele>
        <time>2018-07-18T09:45:50Z</time>
      </trkpt>
      <trkpt lat="47.76883" lon="-3.59412">
        <ele>10</ele>
        <time>2018-07-18T09:45:51Z</time>
      </trkpt>
      <trkpt lat="47.76883" lon="-3.59419">
        <ele>10</ele>
        <time>2018-07-18T09:45:52Z</time>
      </trkpt>
      <trkpt lat="47.76884" lon="-3.59427">
        <ele>10</ele>
        <time>2018-07-18T09:45:53Z</time>
      </trkpt>
      <trkpt lat="47.76885" lon="-3.59434">
        <ele>10</ele>
        <time>2018-07-18T09:45:54Z</time>
      </trkpt>
      <trkpt lat="47.76887" lon="-3.5944">
        <ele>10</ele>
        <time>2018-07-18T09:45:55Z</time>
      </trkpt>
      <trkpt lat="47.76889" lon="-3.59447">
        <ele>9</ele>
        <time>2018-07-18T09:45:56Z</time>
      </trkpt>
      <trkpt lat="47.76892" lon="-3.59453">
        <ele>9</ele>
        <time>2018-07-18T09:45:57Z</time>
      </trkpt>
      <trkpt lat="47.76895" lon="-3.59459">
        <ele>9</ele>
        <time>2018-07-18T09:45:58Z</time>
      </trkpt>
      <trkpt lat="47.76898" lon="-3.59465">
        <ele>9</ele>
        <time>2018-07-18T09:45:59Z</time>
      </trkpt>
      <trkpt lat="47.769" lon="-3.59471">
        <ele>9</ele>
        <time>2018-07-18T09:46:00Z</time>
      </trkpt>
      <trkpt lat="47.76902" lon="-3.59477">
        <ele>9</ele>
        <time>2018-07-18T09:46:01Z</time>
      </trkpt>
      <trkpt lat="47.76904" lon="-3.59483">
        <ele>9</ele>
        <time>2018-07-18T09:46:02Z</time>
      </trkpt>
      <trkpt lat="47.76906" lon="-3.59488">
        <ele>10</ele>
        <time>2018-07-18T09:46:03Z</time>
      </trkpt>
      <trkpt lat="47.76906" lon="-3.59493">
        <ele>10</ele>
        <time>2018-07-18T09:46:04Z</time>
      </trkpt>
      <trkpt lat="47.76907" lon="-3.59498">
        <ele>10</ele>
        <time>2018-07-18T09:46:05Z</time>
      </trkpt>
      <trkpt lat="47.76908" lon="-3.59503">
        <ele>10</ele>
        <time>2018-07-18T09:46:06Z</time>
      </trkpt>
      <trkpt lat="47.76908" lon="-3.59509">
        <ele>10</ele>
        <time>2018-07-18T09:46:07Z</time>
      </trkpt>
      <trkpt lat="47.76909" lon="-3.59513">
        <ele>10</ele>
        <time>2018-07-18T09:46:08Z</time>
      </trkpt>
      <trkpt lat="47.7691" lon="-3.59516">
        <ele>10</ele>
        <time>2018-07-18T09:46:09Z</time>
      </trkpt>
      <trkpt lat="47.76911" lon="-3.59516">
        <ele>11</ele>
        <time>2018-07-18T09:46:10Z</time>
      </trkpt>
      <trkpt lat="47.76912" lon="-3.59517">
        <ele>11</ele>
        <time>2018-07-18T09:46:11Z</time>
      </trkpt>
      <trkpt lat="47.76914" lon="-3.59517">
        <ele>11</ele>
        <time>2018-07-18T09:46:12Z</time>
      </trkpt>
      <trkpt lat="47.76915" lon="-3.5952">
        <ele>11</ele>
        <time>2018-07-18T09:46:13Z</time>
      </trkpt>
      <trkpt lat="47.76917" lon="-3.59523">
        <ele>11</ele>
        <time>2018-07-18T09:46:14Z</time>
      </trkpt>
      <trkpt lat="47.7692" lon="-3.59527">
        <ele>11</ele>
        <time>2018-07-18T09:46:15Z</time>
      </trkpt>
      <trkpt lat="47.76922" lon="-3.59532">
        <ele>11</ele>
        <time>2018-07-18T09:46:16Z</time>
      </trkpt>
      <trkpt lat="47.76925" lon="-3.59536">
        <ele>11</ele>
        <time>2018-07-18T09:46:17Z</time>
      </trkpt>
      <trkpt lat="47.76927" lon="-3.59541">
        <ele>11</ele>
        <time>2018-07-18T09:46:18Z</time>
      </trkpt>
      <trkpt lat="47.7693" lon="-3.59545">
        <ele>11</ele>
        <time>2018-07-18T09:46:19Z</time>
      </trkpt>
      <trkpt lat="47.76933" lon="-3.5955">
        <ele>11</ele>
        <time>2018-07-18T09:46:20Z</time>
      </trkpt>
      <trkpt lat="47.76935" lon="-3.59554">
        <ele>11</ele>
        <time>2018-07-18T09:46:21Z</time>
      </trkpt>
      <trkpt lat="47.76937" lon="-3.59558">
        <ele>11</ele>
        <time>2018-07-18T09:46:22Z</time>
      </trkpt>
      <trkpt lat="47.7694" lon="-3.59562">
        <ele>11</ele>
        <time>2018-07-18T09:46:23Z</time>
      </trkpt>
      <trkpt lat="47.76942" lon="-3.59567">
        <ele>11</ele>
        <time>2018-07-18T09:46:24Z</time>
      </trkpt>
      <trkpt lat="47.76944" lon="-3.59571">
        <ele>12</ele>
        <time>2018-07-18T09:46:25Z</time>
      </trkpt>
      <trkpt lat="47.76946" lon="-3.59576">
        <ele>12</ele>
        <time>2018-07-18T09:46:26Z</time>
      </trkpt>
      <trkpt lat="47.76948" lon="-3.5958">
        <ele>12</ele>
        <time>2018-07-18T09:46:27Z</time>
      </trkpt>
      <trkpt lat="47.76951" lon="-3.59584">
        <ele>12</ele>
        <time>2018-07-18T09:46:28Z</time>
      </trkpt>
      <trkpt lat="47.76953" lon="-3.59587">
        <ele>12</ele>
        <time>2018-07-18T09:46:29Z</time>
      </trkpt>
      <trkpt lat="47.76956" lon="-3.59588">
        <ele>13</ele>
        <time>2018-07-18T09:46:30Z</time>
      </trkpt>
      <trkpt lat="47.76958" lon="-3.59588">
        <ele>13</ele>
        <time>2018-07-18T09:46:31Z</time>
      </trkpt>
      <trkpt lat="47.7696" lon="-3.59589">
        <ele>13</ele>
        <time>2018-07-18T09:46:32Z</time>
      </trkpt>
      <trkpt lat="47.76962" lon="-3.59591">
        <ele>13</ele>
        <time>2018-07-18T09:46:33Z</time>
      </trkpt>
      <trkpt lat="47.76965" lon="-3.59591">
        <ele>13</ele>
        <time>2018-07-18T09:46:34Z</time>
      </trkpt>
      <trkpt lat="47.76969" lon="-3.59592">
        <ele>13</ele>
        <time>2018-07-18T09:46:35Z</time>
      </trkpt>
      <trkpt lat="47.76971" lon="-3.59592">
        <ele>13</ele>
        <time>2018-07-18T09:46:36Z</time>
      </trkpt>
      <trkpt lat="47.76974" lon="-3.59593">
        <ele>13</ele>
        <time>2018-07-18T09:46:37Z</time>
      </trkpt>
      <trkpt lat="47.76978" lon="-3.59592">
        <ele>13</ele>
        <time>2018-07-18T09:46:38Z</time>
      </trkpt>
      <trkpt lat="47.76981" lon="-3.59592">
        <ele>13</ele>
        <time>2018-07-18T09:46:39Z</time>
      </trkpt>
      <trkpt lat="47.76985" lon="-3.59592">
        <ele>13</ele>
        <time>2018-07-18T09:46:40Z</time>
      </trkpt>
      <trkpt lat="47.76988" lon="-3.59595">
        <ele>13</ele>
        <time>2018-07-18T09:46:41Z</time>
      </trkpt>
      <trkpt lat="47.76991" lon="-3.59598">
        <ele>13</ele>
        <time>2018-07-18T09:46:42Z</time>
      </trkpt>
      <trkpt lat="47.76993" lon="-3.59602">
        <ele>13</ele>
        <time>2018-07-18T09:46:43Z</time>
      </trkpt>
      <trkpt lat="47.76995" lon="-3.59606">
        <ele>13</ele>
        <time>2018-07-18T09:46:44Z</time>
      </trkpt>
      <trkpt lat="47.76996" lon="-3.5961">
        <ele>13</ele>
        <time>2018-07-18T09:46:45Z</time>
      </trkpt>
      <trkpt lat="47.76997" lon="-3.59614">
        <ele>13</ele>
        <time>2018-07-18T09:46:46Z</time>
      </trkpt>
      <trkpt lat="47.76998" lon="-3.59618">
        <ele>13</ele>
        <time>2018-07-18T09:46:47Z</time>
      </trkpt>
      <trkpt lat="47.76998" lon="-3.59622">
        <ele>13</ele>
        <time>2018-07-18T09:46:48Z</time>
      </trkpt>
      <trkpt lat="47.76999" lon="-3.59626">
        <ele>13</ele>
        <time>2018-07-18T09:46:49Z</time>
      </trkpt>
      <trkpt lat="47.77" lon="-3.59631">
        <ele>13</ele>
        <time>2018-07-18T09:46:50Z</time>
      </trkpt>
      <trkpt lat="47.77" lon="-3.59635">
        <ele>12</ele>
        <time>2018-07-18T09:46:51Z</time>
      </trkpt>
      <trkpt lat="47.77" lon="-3.59641">
        <ele>12</ele>
        <time>2018-07-18T09:46:52Z</time>
      </trkpt>
      <trkpt lat="47.77" lon="-3.59646">
        <ele>12</ele>
        <time>2018-07-18T09:46:53Z</time>
      </trkpt>
      <trkpt lat="47.77" lon="-3.5965">
        <ele>12</ele>
        <time>2018-07-18T09:46:54Z</time>
      </trkpt>
      <trkpt lat="47.77" lon="-3.59655">
        <ele>12</ele>
        <time>2018-07-18T09:46:55Z</time>
      </trkpt>
      <trkpt lat="47.77" lon="-3.5966">
        <ele>11</ele>
        <time>2018-07-18T09:46:56Z</time>
      </trkpt>
      <trkpt lat="47.77" lon="-3.59665">
        <ele>11</ele>
        <time>2018-07-18T09:46:57Z</time>
      </trkpt>
      <trkpt lat="47.77001" lon="-3.5967">
        <ele>11</ele>
        <time>2018-07-18T09:46:58Z</time>
      </trkpt>
      <trkpt lat="47.77002" lon="-3.59675">
        <ele>11</ele>
        <time>2018-07-18T09:46:59Z</time>
      </trkpt>
      <trkpt lat="47.77004" lon="-3.5968">
        <ele>11</ele>
        <time>2018-07-18T09:47:00Z</time>
      </trkpt>
      <trkpt lat="47.77006" lon="-3.59684">
        <ele>11</ele>
        <time>2018-07-18T09:47:01Z</time>
      </trkpt>
      <trkpt lat="47.77009" lon="-3.59687">
        <ele>11</ele>
        <time>2018-07-18T09:47:02Z</time>
      </trkpt>
      <trkpt lat="47.77012" lon="-3.5969">
        <ele>10</ele>
        <time>2018-07-18T09:47:03Z</time>
      </trkpt>
      <trkpt lat="47.77015" lon="-3.59691">
        <ele>10</ele>
        <time>2018-07-18T09:47:04Z</time>
      </trkpt>
      <trkpt lat="47.77017" lon="-3.59694">
        <ele>10</ele>
        <time>2018-07-18T09:47:05Z</time>
      </trkpt>
      <trkpt lat="47.77018" lon="-3.59697">
        <ele>10</ele>
        <time>2018-07-18T09:47:06Z</time>
      </trkpt>
      <trkpt lat="47.7702" lon="-3.597">
        <ele>10</ele>
        <time>2018-07-18T09:47:07Z</time>
      </trkpt>
      <trkpt lat="47.77021" lon="-3.59703">
        <ele>10</ele>
        <time>2018-07-18T09:47:08Z</time>
      </trkpt>
      <trkpt lat="47.77022" lon="-3.59706">
        <ele>9</ele>
        <time>2018-07-18T09:47:09Z</time>
      </trkpt>
      <trkpt lat="47.77023" lon="-3.59709">
        <ele>9</ele>
        <time>2018-07-18T09:47:10Z</time>
      </trkpt>
      <trkpt lat="47.77024" lon="-3.59712">
        <ele>9</ele>
        <time>2018-07-18T09:47:11Z</time>
      </trkpt>
      <trkpt lat="47.77024" lon="-3.59716">
        <ele>9</ele>
        <time>2018-07-18T09:47:12Z</time>
      </trkpt>
      <trkpt lat="47.77025" lon="-3.59719">
        <ele>9</ele>
        <time>2018-07-18T09:47:13Z</time>
      </trkpt>
      <trkpt lat="47.77024" lon="-3.59722">
        <ele>9</ele>
        <time>2018-07-18T09:47:14Z</time>
      </trkpt>
      <trkpt lat="47.77023" lon="-3.59724">
        <ele>9</ele>
        <time>2018-07-18T09:47:15Z</time>
      </trkpt>
      <trkpt lat="47.77023" lon="-3.59726">
        <ele>9</ele>
        <time>2018-07-18T09:47:16Z</time>
      </trkpt>
      <trkpt lat="47.77022" lon="-3.59728">
        <ele>10</ele>
        <time>2018-07-18T09:47:17Z</time>
      </trkpt>
      <trkpt lat="47.77021" lon="-3.59731">
        <ele>10</ele>
        <time>2018-07-18T09:47:18Z</time>
      </trkpt>
      <trkpt lat="47.7702" lon="-3.59733">
        <ele>10</ele>
        <time>2018-07-18T09:47:19Z</time>
      </trkpt>
      <trkpt lat="47.77019" lon="-3.59736">
        <ele>10</ele>
        <time>2018-07-18T09:47:20Z</time>
      </trkpt>
      <trkpt lat="47.77018" lon="-3.59738">
        <ele>10</ele>
        <time>2018-07-18T09:47:21Z</time>
      </trkpt>
      <trkpt lat="47.77017" lon="-3.5974">
        <ele>10</ele>
        <time>2018-07-18T09:47:22Z</time>
      </trkpt>
      <trkpt lat="47.77017" lon="-3.59742">
        <ele>10</ele>
        <time>2018-07-18T09:47:23Z</time>
      </trkpt>
      <trkpt lat="47.77016" lon="-3.59744">
        <ele>10</ele>
        <time>2018-07-18T09:47:24Z</time>
      </trkpt>
      <trkpt lat="47.77015" lon="-3.59746">
        <ele>10</ele>
        <time>2018-07-18T09:47:25Z</time>
      </trkpt>
      <trkpt lat="47.77015" lon="-3.59748">
        <ele>11</ele>
        <time>2018-07-18T09:47:26Z</time>
      </trkpt>
      <trkpt lat="47.77014" lon="-3.5975">
        <ele>11</ele>
        <time>2018-07-18T09:47:27Z</time>
      </trkpt>
      <trkpt lat="47.77014" lon="-3.59752">
        <ele>11</ele>
        <time>2018-07-18T09:47:28Z</time>
      </trkpt>
      <trkpt lat="47.77014" lon="-3.59753">
        <ele>11</ele>
        <time>2018-07-18T09:47:29Z</time>
      </trkpt>
      <trkpt lat="47.77014" lon="-3.59754">
        <ele>11</ele>
        <time>2018-07-18T09:47:30Z</time>
      </trkpt>
      <trkpt lat="47.77013" lon="-3.59755">
        <ele>11</ele>
        <time>2018-07-18T09:47:31Z</time>
      </trkpt>
      <trkpt lat="47.77013" lon="-3.59756">
        <ele>11</ele>
        <time>2018-07-18T09:47:32Z</time>
      </trkpt>
      <trkpt lat="47.77013" lon="-3.59758">
        <ele>11</ele>
        <time>2018-07-18T09:47:33Z</time>
      </trkpt>
      <trkpt lat="47.77013" lon="-3.5976">
        <ele>11</ele>
        <time>2018-07-18T09:47:34Z</time>
      </trkpt>
      <trkpt lat="47.77013" lon="-3.59763">
        <ele>11</ele>
        <time>2018-07-18T09:47:35Z</time>
      </trkpt>
      <trkpt lat="47.77013" lon="-3.59766">
        <ele>11</ele>
        <time>2018-07-18T09:47:36Z</time>
      </trkpt>
      <trkpt lat="47.77013" lon="-3.59769">
        <ele>11</ele>
        <time>2018-07-18T09:47:37Z</time>
      </trkpt>
      <trkpt lat="47.77013" lon="-3.59773">
        <ele>12</ele>
        <time>2018-07-18T09:47:38Z</time>
      </trkpt>
      <trkpt lat="47.77012" lon="-3.59776">
        <ele>12</ele>
        <time>2018-07-18T09:47:39Z</time>
      </trkpt>
      <trkpt lat="47.77012" lon="-3.59779">
        <ele>12</ele>
        <time>2018-07-18T09:47:40Z</time>
      </trkpt>
      <trkpt lat="47.77012" lon="-3.59784">
        <ele>11</ele>
        <time>2018-07-18T09:47:41Z</time>
      </trkpt>
      <trkpt lat="47.77012" lon="-3.59789">
        <ele>11</ele>
        <time>2018-07-18T09:47:42Z</time>
      </trkpt>
      <trkpt lat="47.77013" lon="-3.59793">
        <ele>11</ele>
        <time>2018-07-18T09:47:43Z</time>
      </trkpt>
      <trkpt lat="47.77014" lon="-3.59797">
        <ele>11</ele>
        <time>2018-07-18T09:47:44Z</time>
      </trkpt>
      <trkpt lat="47.77016" lon="-3.598">
        <ele>12</ele>
        <time>2018-07-18T09:47:45Z</time>
      </trkpt>
      <trkpt lat="47.77018" lon="-3.59802">
        <ele>12</ele>
        <time>2018-07-18T09:47:46Z</time>
      </trkpt>
      <trkpt lat="47.7702" lon="-3.59805">
        <ele>12</ele>
        <time>2018-07-18T09:47:47Z</time>
      </trkpt>
      <trkpt lat="47.77022" lon="-3.59808">
        <ele>12</ele>
        <time>2018-07-18T09:47:48Z</time>
      </trkpt>
      <trkpt lat="47.77023" lon="-3.59811">
        <ele>12</ele>
        <time>2018-07-18T09:47:49Z</time>
      </trkpt>
      <trkpt lat="47.77025" lon="-3.59814">
        <ele>12</ele>
        <time>2018-07-18T09:47:50Z</time>
      </trkpt>
      <trkpt lat="47.77026" lon="-3.59817">
        <ele>13</ele>
        <time>2018-07-18T09:47:51Z</time>
      </trkpt>
      <trkpt lat="47.77028" lon="-3.5982">
        <ele>13</ele>
        <time>2018-07-18T09:47:52Z</time>
      </trkpt>
      <trkpt lat="47.77029" lon="-3.59823">
        <ele>13</ele>
        <time>2018-07-18T09:47:53Z</time>
      </trkpt>
      <trkpt lat="47.7703" lon="-3.59827">
        <ele>13</ele>
        <time>2018-07-18T09:47:54Z</time>
      </trkpt>
      <trkpt lat="47.77032" lon="-3.5983">
        <ele>13</ele>
        <time>2018-07-18T09:47:55Z</time>
      </trkpt>
      <trkpt lat="47.77033" lon="-3.59832">
        <ele>13</ele>
        <time>2018-07-18T09:47:56Z</time>
      </trkpt>
      <trkpt lat="47.77035" lon="-3.59835">
        <ele>14</ele>
        <time>2018-07-18T09:47:57Z</time>
      </trkpt>
      <trkpt lat="47.77036" lon="-3.59837">
        <ele>14</ele>
        <time>2018-07-18T09:47:58Z</time>
      </trkpt>
      <trkpt lat="47.77037" lon="-3.5984">
        <ele>14</ele>
        <time>2018-07-18T09:47:59Z</time>
      </trkpt>
      <trkpt lat="47.77037" lon="-3.59844">
        <ele>14</ele>
        <time>2018-07-18T09:48:00Z</time>
      </trkpt>
      <trkpt lat="47.77037" lon="-3.59847">
        <ele>14</ele>
        <time>2018-07-18T09:48:01Z</time>
      </trkpt>
      <trkpt lat="47.77038" lon="-3.5985">
        <ele>14</ele>
        <time>2018-07-18T09:48:02Z</time>
      </trkpt>
      <trkpt lat="47.77037" lon="-3.59854">
        <ele>14</ele>
        <time>2018-07-18T09:48:03Z</time>
      </trkpt>
      <trkpt lat="47.77035" lon="-3.59857">
        <ele>14</ele>
        <time>2018-07-18T09:48:04Z</time>
      </trkpt>
      <trkpt lat="47.77033" lon="-3.59859">
        <ele>14</ele>
        <time>2018-07-18T09:48:05Z</time>
      </trkpt>
      <trkpt lat="47.77031" lon="-3.5986">
        <ele>14</ele>
        <time>2018-07-18T09:48:06Z</time>
      </trkpt>
      <trkpt lat="47.77029" lon="-3.59861">
        <ele>14</ele>
        <time>2018-07-18T09:48:07Z</time>
      </trkpt>
      <trkpt lat="47.77028" lon="-3.59862">
        <ele>13</ele>
        <time>2018-07-18T09:48:08Z</time>
      </trkpt>
      <trkpt lat="47.77028" lon="-3.59862">
        <ele>13</ele>
        <time>2018-07-18T09:48:09Z</time>
      </trkpt>
      <trkpt lat="47.77028" lon="-3.59862">
        <ele>13</ele>
        <time>2018-07-18T09:48:10Z</time>
      </trkpt>
      <trkpt lat="47.77028" lon="-3.59862">
        <ele>13</ele>
        <time>2018-07-18T09:48:11Z</time>
      </trkpt>
      <trkpt lat="47.77028" lon="-3.59862">
        <ele>13</ele>
        <time>2018-07-18T09:48:12Z</time>
      </trkpt>
      <trkpt lat="47.77027" lon="-3.59863">
        <ele>12</ele>
        <time>2018-07-18T09:48:13Z</time>
      </trkpt>
      <trkpt lat="47.77026" lon="-3.59864">
        <ele>12</ele>
        <time>2018-07-18T09:48:14Z</time>
      </trkpt>
      <trkpt lat="47.77024" lon="-3.59867">
        <ele>12</ele>
        <time>2018-07-18T09:48:15Z</time>
      </trkpt>
      <trkpt lat="47.77022" lon="-3.59871">
        <ele>12</ele>
        <time>2018-07-18T09:48:16Z</time>
      </trkpt>
      <trkpt lat="47.7702" lon="-3.59875">
        <ele>11</ele>
        <time>2018-07-18T09:48:17Z</time>
      </trkpt>
      <trkpt lat="47.77017" lon="-3.59879">
        <ele>11</ele>
        <time>2018-07-18T09:48:18Z</time>
      </trkpt>
      <trkpt lat="47.77017" lon="-3.59883">
        <ele>11</ele>
        <time>2018-07-18T09:48:19Z</time>
      </trkpt>
      <trkpt lat="47.77016" lon="-3.59888">
        <ele>11</ele>
        <time>2018-07-18T09:48:20Z</time>
      </trkpt>
      <trkpt lat="47.77015" lon="-3.59891">
        <ele>11</ele>
        <time>2018-07-18T09:48:21Z</time>
      </trkpt>
      <trkpt lat="47.77015" lon="-3.59894">
        <ele>11</ele>
        <time>2018-07-18T09:48:22Z</time>
      </trkpt>
      <trkpt lat="47.77014" lon="-3.59896">
        <ele>11</ele>
        <time>2018-07-18T09:48:23Z</time>
      </trkpt>
      <trkpt lat="47.77013" lon="-3.59897">
        <ele>11</ele>
        <time>2018-07-18T09:48:24Z</time>
      </trkpt>
      <trkpt lat="47.7701" lon="-3.59897">
        <ele>11</ele>
        <time>2018-07-18T09:48:25Z</time>
      </trkpt>
      <trkpt lat="47.77008" lon="-3.59897">
        <ele>10</ele>
        <time>2018-07-18T09:48:26Z</time>
      </trkpt>
      <trkpt lat="47.77007" lon="-3.59899">
        <ele>10</ele>
        <time>2018-07-18T09:48:27Z</time>
      </trkpt>
      <trkpt lat="47.77005" lon="-3.59903">
        <ele>10</ele>
        <time>2018-07-18T09:48:28Z</time>
      </trkpt>
      <trkpt lat="47.77004" lon="-3.59907">
        <ele>10</ele>
        <time>2018-07-18T09:48:29Z</time>
      </trkpt>
      <trkpt lat="47.77001" lon="-3.59911">
        <ele>10</ele>
        <time>2018-07-18T09:48:30Z</time>
      </trkpt>
      <trkpt lat="47.76998" lon="-3.59913">
        <ele>10</ele>
        <time>2018-07-18T09:48:31Z</time>
      </trkpt>
      <trkpt lat="47.76995" lon="-3.59913">
        <ele>10</ele>
        <time>2018-07-18T09:48:32Z</time>
      </trkpt>
      <trkpt lat="47.76993" lon="-3.59912">
        <ele>9</ele>
        <time>2018-07-18T09:48:33Z</time>
      </trkpt>
      <trkpt lat="47.76991" lon="-3.5991">
        <ele>9</ele>
        <time>2018-07-18T09:48:34Z</time>
      </trkpt>
      <trkpt lat="47.76989" lon="-3.59909">
        <ele>9</ele>
        <time>2018-07-18T09:48:35Z</time>
      </trkpt>
      <trkpt lat="47.76986" lon="-3.59907">
        <ele>9</ele>
        <time>2018-07-18T09:48:36Z</time>
      </trkpt>
      <trkpt lat="47.76983" lon="-3.59905">
        <ele>9</ele>
        <time>2018-07-18T09:48:37Z</time>
      </trkpt>
      <trkpt lat="47.76981" lon="-3.59903">
        <ele>9</ele>
        <time>2018-07-18T09:48:38Z</time>
      </trkpt>
      <trkpt lat="47.76978" lon="-3.59902">
        <ele>9</ele>
        <time>2018-07-18T09:48:39Z</time>
      </trkpt>
      <trkpt lat="47.76975" lon="-3.59902">
        <ele>9</ele>
        <time>2018-07-18T09:48:40Z</time>
      </trkpt>
      <trkpt lat="47.76973" lon="-3.59901">
        <ele>9</ele>
        <time>2018-07-18T09:48:41Z</time>
      </trkpt>
      <trkpt lat="47.76971" lon="-3.59901">
        <ele>9</ele>
        <time>2018-07-18T09:48:42Z</time>
      </trkpt>
      <trkpt lat="47.76969" lon="-3.599">
        <ele>9</ele>
        <time>2018-07-18T09:48:43Z</time>
      </trkpt>
      <trkpt lat="47.76966" lon="-3.599">
        <ele>9</ele>
        <time>2018-07-18T09:48:44Z</time>
      </trkpt>
      <trkpt lat="47.76963" lon="-3.59901">
        <ele>9</ele>
        <time>2018-07-18T09:48:45Z</time>
      </trkpt>
      <trkpt lat="47.76961" lon="-3.59903">
        <ele>9</ele>
        <time>2018-07-18T09:48:46Z</time>
      </trkpt>
      <trkpt lat="47.76959" lon="-3.59906">
        <ele>9</ele>
        <time>2018-07-18T09:48:47Z</time>
      </trkpt>
      <trkpt lat="47.76958" lon="-3.59909">
        <ele>9</ele>
        <time>2018-07-18T09:48:48Z</time>
      </trkpt>
      <trkpt lat="47.76956" lon="-3.59913">
        <ele>9</ele>
        <time>2018-07-18T09:48:49Z</time>
      </trkpt>
      <trkpt lat="47.76955" lon="-3.59917">
        <ele>9</ele>
        <time>2018-07-18T09:48:50Z</time>
      </trkpt>
      <trkpt lat="47.76953" lon="-3.59921">
        <ele>9</ele>
        <time>2018-07-18T09:48:51Z</time>
      </trkpt>
      <trkpt lat="47.76951" lon="-3.59925">
        <ele>9</ele>
        <time>2018-07-18T09:48:52Z</time>
      </trkpt>
      <trkpt lat="47.76949" lon="-3.59929">
        <ele>9</ele>
        <time>2018-07-18T09:48:53Z</time>
      </trkpt>
      <trkpt lat="47.76946" lon="-3.59932">
        <ele>9</ele>
        <time>2018-07-18T09:48:54Z</time>
      </trkpt>
      <trkpt lat="47.76944" lon="-3.59936">
        <ele>9</ele>
        <time>2018-07-18T09:48:55Z</time>
      </trkpt>
      <trkpt lat="47.76941" lon="-3.59939">
        <ele>9</ele>
        <time>2018-07-18T09:48:56Z</time>
      </trkpt>
      <trkpt lat="47.76937" lon="-3.59942">
        <ele>9</ele>
        <time>2018-07-18T09:48:57Z</time>
      </trkpt>
      <trkpt lat="47.76934" lon="-3.59945">
        <ele>9</ele>
        <time>2018-07-18T09:48:58Z</time>
      </trkpt>
      <trkpt lat="47.76931" lon="-3.59949">
        <ele>9</ele>
        <time>2018-07-18T09:48:59Z</time>
      </trkpt>
      <trkpt lat="47.76929" lon="-3.59953">
        <ele>9</ele>
        <time>2018-07-18T09:49:00Z</time>
      </trkpt>
      <trkpt lat="47.76927" lon="-3.59957">
        <ele>9</ele>
        <time>2018-07-18T09:49:01Z</time>
      </trkpt>
      <trkpt lat="47.76925" lon="-3.5996">
        <ele>9</ele>
        <time>2018-07-18T09:49:02Z</time>
      </trkpt>
      <trkpt lat="47.76922" lon="-3.59964">
        <ele>9</ele>
        <time>2018-07-18T09:49:03Z</time>
      </trkpt>
      <trkpt lat="47.7692" lon="-3.59967">
        <ele>9</ele>
        <time>2018-07-18T09:49:04Z</time>
      </trkpt>
      <trkpt lat="47.76918" lon="-3.59972">
        <ele>9</ele>
        <time>2018-07-18T09:49:05Z</time>
      </trkpt>
      <trkpt lat="47.76916" lon="-3.59976">
        <ele>9</ele>
        <time>2018-07-18T09:49:06Z</time>
      </trkpt>
      <trkpt lat="47.76914" lon="-3.59981">
        <ele>9</ele>
        <time>2018-07-18T09:49:07Z</time>
      </trkpt>
      <trkpt lat="47.76912" lon="-3.59986">
        <ele>9</ele>
        <time>2018-07-18T09:49:08Z</time>
      </trkpt>
      <trkpt lat="47.76911" lon="-3.59992">
        <ele>9</ele>
        <time>2018-07-18T09:49:09Z</time>
      </trkpt>
      <trkpt lat="47.76909" lon="-3.59997">
        <ele>9</ele>
        <time>2018-07-18T09:49:10Z</time>
      </trkpt>
      <trkpt lat="47.76907" lon="-3.60002">
        <ele>9</ele>
        <time>2018-07-18T09:49:11Z</time>
      </trkpt>
      <trkpt lat="47.76906" lon="-3.60007">
        <ele>9</ele>
        <time>2018-07-18T09:49:12Z</time>
      </trkpt>
      <trkpt lat="47.76905" lon="-3.60012">
        <ele>9</ele>
        <time>2018-07-18T09:49:13Z</time>
      </trkpt>
      <trkpt lat="47.76904" lon="-3.60018">
        <ele>9</ele>
        <time>2018-07-18T09:49:14Z</time>
      </trkpt>
      <trkpt lat="47.76903" lon="-3.60024">
        <ele>9</ele>
        <time>2018-07-18T09:49:15Z</time>
      </trkpt>
      <trkpt lat="47.76903" lon="-3.6003">
        <ele>9</ele>
        <time>2018-07-18T09:49:16Z</time>
      </trkpt>
      <trkpt lat="47.76903" lon="-3.60036">
        <ele>9</ele>
        <time>2018-07-18T09:49:17Z</time>
      </trkpt>
      <trkpt lat="47.76903" lon="-3.60042">
        <ele>9</ele>
        <time>2018-07-18T09:49:18Z</time>
      </trkpt>
      <trkpt lat="47.76903" lon="-3.60048">
        <ele>9</ele>
        <time>2018-07-18T09:49:19Z</time>
      </trkpt>
      <trkpt lat="47.76903" lon="-3.60054">
        <ele>9</ele>
        <time>2018-07-18T09:49:20Z</time>
      </trkpt>
      <trkpt lat="47.76903" lon="-3.60059">
        <ele>9</ele>
        <time>2018-07-18T09:49:21Z</time>
      </trkpt>
      <trkpt lat="47.76903" lon="-3.60064">
        <ele>9</ele>
        <time>2018-07-18T09:49:22Z</time>
      </trkpt>
      <trkpt lat="47.76903" lon="-3.60069">
        <ele>9</ele>
        <time>2018-07-18T09:49:23Z</time>
      </trkpt>
      <trkpt lat="47.76902" lon="-3.60074">
        <ele>9</ele>
        <time>2018-07-18T09:49:24Z</time>
      </trkpt>
      <trkpt lat="47.76901" lon="-3.60079">
        <ele>8</ele>
        <time>2018-07-18T09:49:25Z</time>
      </trkpt>
      <trkpt lat="47.76899" lon="-3.60083">
        <ele>8</ele>
        <time>2018-07-18T09:49:26Z</time>
      </trkpt>
      <trkpt lat="47.76898" lon="-3.60087">
        <ele>8</ele>
        <time>2018-07-18T09:49:27Z</time>
      </trkpt>
      <trkpt lat="47.76897" lon="-3.60091">
        <ele>8</ele>
        <time>2018-07-18T09:49:28Z</time>
      </trkpt>
      <trkpt lat="47.76896" lon="-3.60095">
        <ele>8</ele>
        <time>2018-07-18T09:49:29Z</time>
      </trkpt>
      <trkpt lat="47.76896" lon="-3.601">
        <ele>7</ele>
        <time>2018-07-18T09:49:30Z</time>
      </trkpt>
      <trkpt lat="47.76896" lon="-3.60106">
        <ele>7</ele>
        <time>2018-07-18T09:49:31Z</time>
      </trkpt>
      <trkpt lat="47.76896" lon="-3.60111">
        <ele>7</ele>
        <time>2018-07-18T09:49:32Z</time>
      </trkpt>
      <trkpt lat="47.76895" lon="-3.60117">
        <ele>7</ele>
        <time>2018-07-18T09:49:33Z</time>
      </trkpt>
      <trkpt lat="47.76896" lon="-3.60123">
        <ele>7</ele>
        <time>2018-07-18T09:49:34Z</time>
      </trkpt>
      <trkpt lat="47.76896" lon="-3.6013">
        <ele>7</ele>
        <time>2018-07-18T09:49:35Z</time>
      </trkpt>
      <trkpt lat="47.76897" lon="-3.60137">
        <ele>6</ele>
        <time>2018-07-18T09:49:36Z</time>
      </trkpt>
      <trkpt lat="47.76897" lon="-3.60144">
        <ele>6</ele>
        <time>2018-07-18T09:49:37Z</time>
      </trkpt>
      <trkpt lat="47.76898" lon="-3.60152">
        <ele>6</ele>
        <time>2018-07-18T09:49:38Z</time>
      </trkpt>
      <trkpt lat="47.76897" lon="-3.6016">
        <ele>6</ele>
        <time>2018-07-18T09:49:39Z</time>
      </trkpt>
      <trkpt lat="47.76897" lon="-3.60166">
        <ele>6</ele>
        <time>2018-07-18T09:49:40Z</time>
      </trkpt>
      <trkpt lat="47.76898" lon="-3.60173">
        <ele>6</ele>
        <time>2018-07-18T09:49:41Z</time>
      </trkpt>
      <trkpt lat="47.76897" lon="-3.60178">
        <ele>6</ele>
        <time>2018-07-18T09:49:42Z</time>
      </trkpt>
      <trkpt lat="47.76897" lon="-3.60182">
        <ele>6</ele>
        <time>2018-07-18T09:49:43Z</time>
      </trkpt>
      <trkpt lat="47.76896" lon="-3.60186">
        <ele>6</ele>
        <time>2018-07-18T09:49:44Z</time>
      </trkpt>
      <trkpt lat="47.76896" lon="-3.60191">
        <ele>6</ele>
        <time>2018-07-18T09:49:45Z</time>
      </trkpt>
      <trkpt lat="47.76896" lon="-3.60196">
        <ele>6</ele>
        <time>2018-07-18T09:49:46Z</time>
      </trkpt>
      <trkpt lat="47.76897" lon="-3.60202">
        <ele>6</ele>
        <time>2018-07-18T09:49:47Z</time>
      </trkpt>
      <trkpt lat="47.76898" lon="-3.60207">
        <ele>5</ele>
        <time>2018-07-18T09:49:48Z</time>
      </trkpt>
      <trkpt lat="47.76901" lon="-3.60211">
        <ele>5</ele>
        <time>2018-07-18T09:49:49Z</time>
      </trkpt>
      <trkpt lat="47.76904" lon="-3.60213">
        <ele>6</ele>
        <time>2018-07-18T09:49:50Z</time>
      </trkpt>
      <trkpt lat="47.76907" lon="-3.60214">
        <ele>6</ele>
        <time>2018-07-18T09:49:51Z</time>
      </trkpt>
      <trkpt lat="47.76909" lon="-3.60218">
        <ele>6</ele>
        <time>2018-07-18T09:49:52Z</time>
      </trkpt>
      <trkpt lat="47.76911" lon="-3.60222">
        <ele>6</ele>
        <time>2018-07-18T09:49:53Z</time>
      </trkpt>
      <trkpt lat="47.76913" lon="-3.60225">
        <ele>6</ele>
        <time>2018-07-18T09:49:54Z</time>
      </trkpt>
      <trkpt lat="47.76915" lon="-3.60229">
        <ele>7</ele>
        <time>2018-07-18T09:49:55Z</time>
      </trkpt>
      <trkpt lat="47.76918" lon="-3.60234">
        <ele>7</ele>
        <time>2018-07-18T09:49:56Z</time>
      </trkpt>
      <trkpt lat="47.7692" lon="-3.60238">
        <ele>7</ele>
        <time>2018-07-18T09:49:57Z</time>
      </trkpt>
      <trkpt lat="47.76923" lon="-3.60242">
        <ele>7</ele>
        <time>2018-07-18T09:49:58Z</time>
      </trkpt>
      <trkpt lat="47.76925" lon="-3.60247">
        <ele>8</ele>
        <time>2018-07-18T09:49:59Z</time>
      </trkpt>
      <trkpt lat="47.76929" lon="-3.6025">
        <ele>8</ele>
        <time>2018-07-18T09:50:00Z</time>
      </trkpt>
      <trkpt lat="47.76932" lon="-3.60254">
        <ele>8</ele>
        <time>2018-07-18T09:50:01Z</time>
      </trkpt>
      <trkpt lat="47.76935" lon="-3.60256">
        <ele>9</ele>
        <time>2018-07-18T09:50:02Z</time>
      </trkpt>
      <trkpt lat="47.76938" lon="-3.60259">
        <ele>9</ele>
        <time>2018-07-18T09:50:03Z</time>
      </trkpt>
      <trkpt lat="47.76941" lon="-3.60262">
        <ele>9</ele>
        <time>2018-07-18T09:50:04Z</time>
      </trkpt>
      <trkpt lat="47.76944" lon="-3.60267">
        <ele>9</ele>
        <time>2018-07-18T09:50:05Z</time>
      </trkpt>
      <trkpt lat="47.76945" lon="-3.60272">
        <ele>9</ele>
        <time>2018-07-18T09:50:06Z</time>
      </trkpt>
      <trkpt lat="47.76947" lon="-3.60278">
        <ele>9</ele>
        <time>2018-07-18T09:50:07Z</time>
      </trkpt>
      <trkpt lat="47.76948" lon="-3.60284">
        <ele>9</ele>
        <time>2018-07-18T09:50:08Z</time>
      </trkpt>
      <trkpt lat="47.7695" lon="-3.60289">
        <ele>9</ele>
        <time>2018-07-18T09:50:09Z</time>
      </trkpt>
      <trkpt lat="47.76951" lon="-3.60295">
        <ele>9</ele>
        <time>2018-07-18T09:50:10Z</time>
      </trkpt>
      <trkpt lat="47.76953" lon="-3.60301">
        <ele>9</ele>
        <time>2018-07-18T09:50:11Z</time>
      </trkpt>
      <trkpt lat="47.76955" lon="-3.60307">
        <ele>9</ele>
        <time>2018-07-18T09:50:12Z</time>
      </trkpt>
      <trkpt lat="47.76958" lon="-3.60312">
        <ele>9</ele>
        <time>2018-07-18T09:50:13Z</time>
      </trkpt>
      <trkpt lat="47.7696" lon="-3.60317">
        <ele>9</ele>
        <time>2018-07-18T09:50:14Z</time>
      </trkpt>
      <trkpt lat="47.76963" lon="-3.60322">
        <ele>9</ele>
        <time>2018-07-18T09:50:15Z</time>
      </trkpt>
      <trkpt lat="47.76965" lon="-3.60327">
        <ele>9</ele>
        <time>2018-07-18T09:50:16Z</time>
      </trkpt>
      <trkpt lat="47.76968" lon="-3.60333">
        <ele>9</ele>
        <time>2018-07-18T09:50:17Z</time>
      </trkpt>
      <trkpt lat="47.76971" lon="-3.60338">
        <ele>9</ele>
        <time>2018-07-18T09:50:18Z</time>
      </trkpt>
      <trkpt lat="47.76974" lon="-3.60344">
        <ele>9</ele>
        <time>2018-07-18T09:50:19Z</time>
      </trkpt>
      <trkpt lat="47.76976" lon="-3.60349">
        <ele>9</ele>
        <time>2018-07-18T09:50:20Z</time>
      </trkpt>
      <trkpt lat="47.76979" lon="-3.60354">
        <ele>10</ele>
        <time>2018-07-18T09:50:21Z</time>
      </trkpt>
      <trkpt lat="47.76982" lon="-3.6036">
        <ele>10</ele>
        <time>2018-07-18T09:50:22Z</time>
      </trkpt>
      <trkpt lat="47.76986" lon="-3.60364">
        <ele>10</ele>
        <time>2018-07-18T09:50:23Z</time>
      </trkpt>
      <trkpt lat="47.76989" lon="-3.60369">
        <ele>10</ele>
        <time>2018-07-18T09:50:24Z</time>
      </trkpt>
      <trkpt lat="47.76993" lon="-3.60373">
        <ele>10</ele>
        <time>2018-07-18T09:50:25Z</time>
      </trkpt>
      <trkpt lat="47.76996" lon="-3.60377">
        <ele>10</ele>
        <time>2018-07-18T09:50:26Z</time>
      </trkpt>
      <trkpt lat="47.77" lon="-3.6038">
        <ele>10</ele>
        <time>2018-07-18T09:50:27Z</time>
      </trkpt>
      <trkpt lat="47.77004" lon="-3.60383">
        <ele>10</ele>
        <time>2018-07-18T09:50:28Z</time>
      </trkpt>
      <trkpt lat="47.77008" lon="-3.60384">
        <ele>10</ele>
        <time>2018-07-18T09:50:29Z</time>
      </trkpt>
      <trkpt lat="47.77012" lon="-3.60386">
        <ele>10</ele>
        <time>2018-07-18T09:50:30Z</time>
      </trkpt>
      <trkpt lat="47.77017" lon="-3.60388">
        <ele>10</ele>
        <time>2018-07-18T09:50:31Z</time>
      </trkpt>
      <trkpt lat="47.7702" lon="-3.60392">
        <ele>10</ele>
        <time>2018-07-18T09:50:32Z</time>
      </trkpt>
      <trkpt lat="47.77024" lon="-3.60396">
        <ele>9</ele>
        <time>2018-07-18T09:50:33Z</time>
      </trkpt>
      <trkpt lat="47.77028" lon="-3.604">
        <ele>9</ele>
        <time>2018-07-18T09:50:34Z</time>
      </trkpt>
      <trkpt lat="47.77032" lon="-3.60402">
        <ele>8</ele>
        <time>2018-07-18T09:50:35Z</time>
      </trkpt>
      <trkpt lat="47.77036" lon="-3.60404">
        <ele>8</ele>
        <time>2018-07-18T09:50:36Z</time>
      </trkpt>
      <trkpt lat="47.77038" lon="-3.60404">
        <ele>8</ele>
        <time>2018-07-18T09:50:37Z</time>
      </trkpt>
      <trkpt lat="47.77041" lon="-3.60404">
        <ele>8</ele>
        <time>2018-07-18T09:50:38Z</time>
      </trkpt>
      <trkpt lat="47.77043" lon="-3.60405">
        <ele>7</ele>
        <time>2018-07-18T09:50:39Z</time>
      </trkpt>
      <trkpt lat="47.77043" lon="-3.60405">
        <ele>7</ele>
        <time>2018-07-18T09:50:40Z</time>
      </trkpt>
      <trkpt lat="47.77043" lon="-3.60405">
        <ele>7</ele>
        <time>2018-07-18T09:50:41Z</time>
      </trkpt>
      <trkpt lat="47.77043" lon="-3.60405">
        <ele>7</ele>
        <time>2018-07-18T09:50:42Z</time>
      </trkpt>
      <trkpt lat="47.77043" lon="-3.60405">
        <ele>7</ele>
        <time>2018-07-18T09:50:43Z</time>
      </trkpt>
      <trkpt lat="47.77044" lon="-3.60405">
        <ele>7</ele>
        <time>2018-07-18T09:50:44Z</time>
      </trkpt>
      <trkpt lat="47.77045" lon="-3.60405">
        <ele>6</ele>
        <time>2018-07-18T09:50:45Z</time>
      </trkpt>
      <trkpt lat="47.77046" lon="-3.60405">
        <ele>6</ele>
        <time>2018-07-18T09:50:46Z</time>
      </trkpt>
      <trkpt lat="47.77047" lon="-3.60406">
        <ele>6</ele>
        <time>2018-07-18T09:50:47Z</time>
      </trkpt>
      <trkpt lat="47.77047" lon="-3.60406">
        <ele>6</ele>
        <time>2018-07-18T09:50:48Z</time>
      </trkpt>
      <trkpt lat="47.77047" lon="-3.60407">
        <ele>6</ele>
        <time>2018-07-18T09:50:49Z</time>
      </trkpt>
      <trkpt lat="47.77047" lon="-3.60407">
        <ele>6</ele>
        <time>2018-07-18T09:50:50Z</time>
      </trkpt>
      <trkpt lat="47.77047" lon="-3.60407">
        <ele>5</ele>
        <time>2018-07-18T09:50:51Z</time>
      </trkpt>
      <trkpt lat="47.77048" lon="-3.60409">
        <ele>5</ele>
        <time>2018-07-18T09:50:52Z</time>
      </trkpt>
      <trkpt lat="47.7705" lon="-3.60411">
        <ele>5</ele>
        <time>2018-07-18T09:50:53Z</time>
      </trkpt>
      <trkpt lat="47.7705" lon="-3.60415">
        <ele>5</ele>
        <time>2018-07-18T09:50:54Z</time>
      </trkpt>
      <trkpt lat="47.7705" lon="-3.60418">
        <ele>6</ele>
        <time>2018-07-18T09:50:55Z</time>
      </trkpt>
      <trkpt lat="47.7705" lon="-3.60421">
        <ele>6</ele>
        <time>2018-07-18T09:50:56Z</time>
      </trkpt>
      <trkpt lat="47.77049" lon="-3.60425">
        <ele>6</ele>
        <time>2018-07-18T09:50:57Z</time>
      </trkpt>
      <trkpt lat="47.77048" lon="-3.6043">
        <ele>6</ele>
        <time>2018-07-18T09:50:58Z</time>
      </trkpt>
      <trkpt lat="47.77047" lon="-3.60434">
        <ele>6</ele>
        <time>2018-07-18T09:50:59Z</time>
      </trkpt>
      <trkpt lat="47.77046" lon="-3.60439">
        <ele>6</ele>
        <time>2018-07-18T09:51:00Z</time>
      </trkpt>
      <trkpt lat="47.77045" lon="-3.60444">
        <ele>6</ele>
        <time>2018-07-18T09:51:01Z</time>
      </trkpt>
      <trkpt lat="47.77043" lon="-3.60448">
        <ele>6</ele>
        <time>2018-07-18T09:51:02Z</time>
      </trkpt>
      <trkpt lat="47.77042" lon="-3.60453">
        <ele>6</ele>
        <time>2018-07-18T09:51:03Z</time>
      </trkpt>
      <trkpt lat="47.77041" lon="-3.60457">
        <ele>6</ele>
        <time>2018-07-18T09:51:04Z</time>
      </trkpt>
      <trkpt lat="47.77039" lon="-3.60461">
        <ele>6</ele>
        <time>2018-07-18T09:51:05Z</time>
      </trkpt>
      <trkpt lat="47.77037" lon="-3.60465">
        <ele>6</ele>
        <time>2018-07-18T09:51:06Z</time>
      </trkpt>
      <trkpt lat="47.77036" lon="-3.60469">
        <ele>6</ele>
        <time>2018-07-18T09:51:07Z</time>
      </trkpt>
      <trkpt lat="47.77034" lon="-3.60473">
        <ele>6</ele>
        <time>2018-07-18T09:51:08Z</time>
      </trkpt>
      <trkpt lat="47.77033" lon="-3.60478">
        <ele>6</ele>
        <time>2018-07-18T09:51:09Z</time>
      </trkpt>
      <trkpt lat="47.77032" lon="-3.60483">
        <ele>6</ele>
        <time>2018-07-18T09:51:10Z</time>
      </trkpt>
      <trkpt lat="47.77032" lon="-3.60488">
        <ele>7</ele>
        <time>2018-07-18T09:51:11Z</time>
      </trkpt>
      <trkpt lat="47.77031" lon="-3.60493">
        <ele>7</ele>
        <time>2018-07-18T09:51:12Z</time>
      </trkpt>
      <trkpt lat="47.77031" lon="-3.60498">
        <ele>7</ele>
        <time>2018-07-18T09:51:13Z</time>
      </trkpt>
      <trkpt lat="47.7703" lon="-3.60503">
        <ele>7</ele>
        <time>2018-07-18T09:51:14Z</time>
      </trkpt>
      <trkpt lat="47.77029" lon="-3.60507">
        <ele>7</ele>
        <time>2018-07-18T09:51:15Z</time>
      </trkpt>
      <trkpt lat="47.77028" lon="-3.60511">
        <ele>7</ele>
        <time>2018-07-18T09:51:16Z</time>
      </trkpt>
      <trkpt lat="47.77027" lon="-3.60516">
        <ele>7</ele>
        <time>2018-07-18T09:51:17Z</time>
      </trkpt>
      <trkpt lat="47.77026" lon="-3.60521">
        <ele>7</ele>
        <time>2018-07-18T09:51:18Z</time>
      </trkpt>
      <trkpt lat="47.77025" lon="-3.60526">
        <ele>7</ele>
        <time>2018-07-18T09:51:19Z</time>
      </trkpt>
      <trkpt lat="47.77024" lon="-3.60531">
        <ele>7</ele>
        <time>2018-07-18T09:51:20Z</time>
      </trkpt>
      <trkpt lat="47.77024" lon="-3.60536">
        <ele>7</ele>
        <time>2018-07-18T09:51:21Z</time>
      </trkpt>
      <trkpt lat="47.77024" lon="-3.60541">
        <ele>7</ele>
        <time>2018-07-18T09:51:22Z</time>
      </trkpt>
      <trkpt lat="47.77025" lon="-3.60547">
        <ele>6</ele>
        <time>2018-07-18T09:51:23Z</time>
      </trkpt>
      <trkpt lat="47.77026" lon="-3.60551">
        <ele>6</ele>
        <time>2018-07-18T09:51:24Z</time>
      </trkpt>
      <trkpt lat="47.77025" lon="-3.60554">
        <ele>6</ele>
        <time>2018-07-18T09:51:25Z</time>
      </trkpt>
      <trkpt lat="47.77026" lon="-3.60558">
        <ele>6</ele>
        <time>2018-07-18T09:51:26Z</time>
      </trkpt>
      <trkpt lat="47.77027" lon="-3.60562">
        <ele>6</ele>
        <time>2018-07-18T09:51:27Z</time>
      </trkpt>
      <trkpt lat="47.77029" lon="-3.60565">
        <ele>6</ele>
        <time>2018-07-18T09:51:28Z</time>
      </trkpt>
      <trkpt lat="47.77031" lon="-3.60568">
        <ele>6</ele>
        <time>2018-07-18T09:51:29Z</time>
      </trkpt>
      <trkpt lat="47.77033" lon="-3.60572">
        <ele>6</ele>
        <time>2018-07-18T09:51:30Z</time>
      </trkpt>
      <trkpt lat="47.77034" lon="-3.60576">
        <ele>6</ele>
        <time>2018-07-18T09:51:31Z</time>
      </trkpt>
      <trkpt lat="47.77035" lon="-3.60582">
        <ele>6</ele>
        <time>2018-07-18T09:51:32Z</time>
      </trkpt>
      <trkpt lat="47.77035" lon="-3.60587">
        <ele>6</ele>
        <time>2018-07-18T09:51:33Z</time>
      </trkpt>
      <trkpt lat="47.77034" lon="-3.60592">
        <ele>6</ele>
        <time>2018-07-18T09:51:34Z</time>
      </trkpt>
      <trkpt lat="47.77033" lon="-3.60598">
        <ele>6</ele>
        <time>2018-07-18T09:51:35Z</time>
      </trkpt>
      <trkpt lat="47.77032" lon="-3.60603">
        <ele>6</ele>
        <time>2018-07-18T09:51:36Z</time>
      </trkpt>
      <trkpt lat="47.7703" lon="-3.60609">
        <ele>6</ele>
        <time>2018-07-18T09:51:37Z</time>
      </trkpt>
      <trkpt lat="47.77029" lon="-3.60613">
        <ele>6</ele>
        <time>2018-07-18T09:51:38Z</time>
      </trkpt>
      <trkpt lat="47.77028" lon="-3.60618">
        <ele>6</ele>
        <time>2018-07-18T09:51:39Z</time>
      </trkpt>
      <trkpt lat="47.77027" lon="-3.60624">
        <ele>6</ele>
        <time>2018-07-18T09:51:40Z</time>
      </trkpt>
      <trkpt lat="47.77027" lon="-3.60629">
        <ele>6</ele>
        <time>2018-07-18T09:51:41Z</time>
      </trkpt>
      <trkpt lat="47.77028" lon="-3.60635">
        <ele>6</ele>
        <time>2018-07-18T09:51:42Z</time>
      </trkpt>
      <trkpt lat="47.77029" lon="-3.60641">
        <ele>6</ele>
        <time>2018-07-18T09:51:43Z</time>
      </trkpt>
      <trkpt lat="47.7703" lon="-3.60647">
        <ele>6</ele>
        <time>2018-07-18T09:51:44Z</time>
      </trkpt>
      <trkpt lat="47.77032" lon="-3.60653">
        <ele>6</ele>
        <time>2018-07-18T09:51:45Z</time>
      </trkpt>
      <trkpt lat="47.77034" lon="-3.60659">
        <ele>6</ele>
        <time>2018-07-18T09:51:46Z</time>
      </trkpt>
      <trkpt lat="47.77036" lon="-3.60665">
        <ele>6</ele>
        <time>2018-07-18T09:51:47Z</time>
      </trkpt>
      <trkpt lat="47.77037" lon="-3.60671">
        <ele>6</ele>
        <time>2018-07-18T09:51:48Z</time>
      </trkpt>
      <trkpt lat="47.77037" lon="-3.60677">
        <ele>6</ele>
        <time>2018-07-18T09:51:49Z</time>
      </trkpt>
      <trkpt lat="47.77037" lon="-3.60683">
        <ele>6</ele>
        <time>2018-07-18T09:51:50Z</time>
      </trkpt>
      <trkpt lat="47.77036" lon="-3.60689">
        <ele>6</ele>
        <time>2018-07-18T09:51:51Z</time>
      </trkpt>
      <trkpt lat="47.77036" lon="-3.60696">
        <ele>6</ele>
        <time>2018-07-18T09:51:52Z</time>
      </trkpt>
      <trkpt lat="47.77035" lon="-3.60703">
        <ele>6</ele>
        <time>2018-07-18T09:51:53Z</time>
      </trkpt>
      <trkpt lat="47.77034" lon="-3.6071">
        <ele>6</ele>
        <time>2018-07-18T09:51:54Z</time>
      </trkpt>
      <trkpt lat="47.77034" lon="-3.60717">
        <ele>6</ele>
        <time>2018-07-18T09:51:55Z</time>
      </trkpt>
      <trkpt lat="47.77034" lon="-3.60724">
        <ele>6</ele>
        <time>2018-07-18T09:51:56Z</time>
      </trkpt>
      <trkpt lat="47.77035" lon="-3.6073">
        <ele>6</ele>
        <time>2018-07-18T09:51:57Z</time>
      </trkpt>
      <trkpt lat="47.77036" lon="-3.60733">
        <ele>6</ele>
        <time>2018-07-18T09:51:58Z</time>
      </trkpt>
      <trkpt lat="47.77038" lon="-3.60734">
        <ele>6</ele>
        <time>2018-07-18T09:51:59Z</time>
      </trkpt>
      <trkpt lat="47.7704" lon="-3.60733">
        <ele>6</ele>
        <time>2018-07-18T09:52:00Z</time>
      </trkpt>
      <trkpt lat="47.77041" lon="-3.60732">
        <ele>6</ele>
        <time>2018-07-18T09:52:01Z</time>
      </trkpt>
      <trkpt lat="47.77043" lon="-3.6073">
        <ele>6</ele>
        <time>2018-07-18T09:52:02Z</time>
      </trkpt>
      <trkpt lat="47.77046" lon="-3.60729">
        <ele>6</ele>
        <time>2018-07-18T09:52:03Z</time>
      </trkpt>
      <trkpt lat="47.77048" lon="-3.60729">
        <ele>6</ele>
        <time>2018-07-18T09:52:04Z</time>
      </trkpt>
      <trkpt lat="47.7705" lon="-3.60728">
        <ele>6</ele>
        <time>2018-07-18T09:52:05Z</time>
      </trkpt>
      <trkpt lat="47.77053" lon="-3.60729">
        <ele>7</ele>
        <time>2018-07-18T09:52:06Z</time>
      </trkpt>
      <trkpt lat="47.77055" lon="-3.6073">
        <ele>7</ele>
        <time>2018-07-18T09:52:07Z</time>
      </trkpt>
      <trkpt lat="47.77057" lon="-3.60732">
        <ele>7</ele>
        <time>2018-07-18T09:52:08Z</time>
      </trkpt>
      <trkpt lat="47.77059" lon="-3.60733">
        <ele>7</ele>
        <time>2018-07-18T09:52:09Z</time>
      </trkpt>
      <trkpt lat="47.77062" lon="-3.60734">
        <ele>7</ele>
        <time>2018-07-18T09:52:10Z</time>
      </trkpt>
      <trkpt lat="47.77064" lon="-3.60736">
        <ele>7</ele>
        <time>2018-07-18T09:52:11Z</time>
      </trkpt>
      <trkpt lat="47.77066" lon="-3.60737">
        <ele>7</ele>
        <time>2018-07-18T09:52:12Z</time>
      </trkpt>
      <trkpt lat="47.77068" lon="-3.60738">
        <ele>7</ele>
        <time>2018-07-18T09:52:13Z</time>
      </trkpt>
      <trkpt lat="47.77071" lon="-3.6074">
        <ele>8</ele>
        <time>2018-07-18T09:52:14Z</time>
      </trkpt>
      <trkpt lat="47.77073" lon="-3.60741">
        <ele>8</ele>
        <time>2018-07-18T09:52:15Z</time>
      </trkpt>
      <trkpt lat="47.77075" lon="-3.60742">
        <ele>8</ele>
        <time>2018-07-18T09:52:16Z</time>
      </trkpt>
      <trkpt lat="47.77078" lon="-3.60745">
        <ele>8</ele>
        <time>2018-07-18T09:52:17Z</time>
      </trkpt>
      <trkpt lat="47.77082" lon="-3.60747">
        <ele>7</ele>
        <time>2018-07-18T09:52:18Z</time>
      </trkpt>
      <trkpt lat="47.77086" lon="-3.60751">
        <ele>7</ele>
        <time>2018-07-18T09:52:19Z</time>
      </trkpt>
      <trkpt lat="47.77091" lon="-3.60756">
        <ele>7</ele>
        <time>2018-07-18T09:52:20Z</time>
      </trkpt>
      <trkpt lat="47.77097" lon="-3.60761">
        <ele>7</ele>
        <time>2018-07-18T09:52:21Z</time>
      </trkpt>
      <trkpt lat="47.77102" lon="-3.60768">
        <ele>6</ele>
        <time>2018-07-18T09:52:22Z</time>
      </trkpt>
      <trkpt lat="47.77106" lon="-3.60774">
        <ele>6</ele>
        <time>2018-07-18T09:52:23Z</time>
      </trkpt>
      <trkpt lat="47.7711" lon="-3.60781">
        <ele>6</ele>
        <time>2018-07-18T09:52:24Z</time>
      </trkpt>
      <trkpt lat="47.77114" lon="-3.60786">
        <ele>7</ele>
        <time>2018-07-18T09:52:25Z</time>
      </trkpt>
      <trkpt lat="47.77118" lon="-3.60791">
        <ele>7</ele>
        <time>2018-07-18T09:52:26Z</time>
      </trkpt>
      <trkpt lat="47.77121" lon="-3.60796">
        <ele>7</ele>
        <time>2018-07-18T09:52:27Z</time>
      </trkpt>
      <trkpt lat="47.77124" lon="-3.608">
        <ele>7</ele>
        <time>2018-07-18T09:52:28Z</time>
      </trkpt>
      <trkpt lat="47.77127" lon="-3.60805">
        <ele>7</ele>
        <time>2018-07-18T09:52:29Z</time>
      </trkpt>
      <trkpt lat="47.7713" lon="-3.60808">
        <ele>8</ele>
        <time>2018-07-18T09:52:30Z</time>
      </trkpt>
      <trkpt lat="47.77133" lon="-3.60811">
        <ele>8</ele>
        <time>2018-07-18T09:52:31Z</time>
      </trkpt>
      <trkpt lat="47.77136" lon="-3.60813">
        <ele>8</ele>
        <time>2018-07-18T09:52:32Z</time>
      </trkpt>
      <trkpt lat="47.77139" lon="-3.60814">
        <ele>8</ele>
        <time>2018-07-18T09:52:33Z</time>
      </trkpt>
      <trkpt lat="47.77142" lon="-3.60813">
        <ele>8</ele>
        <time>2018-07-18T09:52:34Z</time>
      </trkpt>
      <trkpt lat="47.77146" lon="-3.60813">
        <ele>8</ele>
        <time>2018-07-18T09:52:35Z</time>
      </trkpt>
      <trkpt lat="47.77149" lon="-3.60813">
        <ele>8</ele>
        <time>2018-07-18T09:52:36Z</time>
      </trkpt>
      <trkpt lat="47.77153" lon="-3.60813">
        <ele>8</ele>
        <time>2018-07-18T09:52:37Z</time>
      </trkpt>
      <trkpt lat="47.77156" lon="-3.60813">
        <ele>8</ele>
        <time>2018-07-18T09:52:38Z</time>
      </trkpt>
      <trkpt lat="47.7716" lon="-3.60814">
        <ele>8</ele>
        <time>2018-07-18T09:52:39Z</time>
      </trkpt>
      <trkpt lat="47.77163" lon="-3.60816">
        <ele>8</ele>
        <time>2018-07-18T09:52:40Z</time>
      </trkpt>
      <trkpt lat="47.77167" lon="-3.60817">
        <ele>8</ele>
        <time>2018-07-18T09:52:41Z</time>
      </trkpt>
      <trkpt lat="47.77171" lon="-3.60819">
        <ele>8</ele>
        <time>2018-07-18T09:52:42Z</time>
      </trkpt>
      <trkpt lat="47.77174" lon="-3.6082">
        <ele>8</ele>
        <time>2018-07-18T09:52:43Z</time>
      </trkpt>
      <trkpt lat="47.77177" lon="-3.60822">
        <ele>8</ele>
        <time>2018-07-18T09:52:44Z</time>
      </trkpt>
      <trkpt lat="47.7718" lon="-3.60824">
        <ele>8</ele>
        <time>2018-07-18T09:52:45Z</time>
      </trkpt>
      <trkpt lat="47.77183" lon="-3.60826">
        <ele>9</ele>
        <time>2018-07-18T09:52:46Z</time>
      </trkpt>
      <trkpt lat="47.77187" lon="-3.60828">
        <ele>9</ele>
        <time>2018-07-18T09:52:47Z</time>
      </trkpt>
      <trkpt lat="47.77189" lon="-3.60829">
        <ele>9</ele>
        <time>2018-07-18T09:52:48Z</time>
      </trkpt>
      <trkpt lat="47.77192" lon="-3.60831">
        <ele>9</ele>
        <time>2018-07-18T09:52:49Z</time>
      </trkpt>
      <trkpt lat="47.77196" lon="-3.60833">
        <ele>9</ele>
        <time>2018-07-18T09:52:50Z</time>
      </trkpt>
      <trkpt lat="47.772" lon="-3.60835">
        <ele>9</ele>
        <time>2018-07-18T09:52:51Z</time>
      </trkpt>
      <trkpt lat="47.77204" lon="-3.60837">
        <ele>9</ele>
        <time>2018-07-18T09:52:52Z</time>
      </trkpt>
      <trkpt lat="47.77209" lon="-3.60837">
        <ele>9</ele>
        <time>2018-07-18T09:52:53Z</time>
      </trkpt>
      <trkpt lat="47.77214" lon="-3.60836">
        <ele>9</ele>
        <time>2018-07-18T09:52:54Z</time>
      </trkpt>
      <trkpt lat="47.7722" lon="-3.60834">
        <ele>9</ele>
        <time>2018-07-18T09:52:55Z</time>
      </trkpt>
      <trkpt lat="47.77225" lon="-3.60832">
        <ele>8</ele>
        <time>2018-07-18T09:52:56Z</time>
      </trkpt>
      <trkpt lat="47.77231" lon="-3.6083">
        <ele>8</ele>
        <time>2018-07-18T09:52:57Z</time>
      </trkpt>
      <trkpt lat="47.77235" lon="-3.60829">
        <ele>8</ele>
        <time>2018-07-18T09:52:58Z</time>
      </trkpt>
      <trkpt lat="47.7724" lon="-3.60827">
        <ele>8</ele>
        <time>2018-07-18T09:52:59Z</time>
      </trkpt>
      <trkpt lat="47.77244" lon="-3.60825">
        <ele>8</ele>
        <time>2018-07-18T09:53:00Z</time>
      </trkpt>
      <trkpt lat="47.77249" lon="-3.60824">
        <ele>8</ele>
        <time>2018-07-18T09:53:01Z</time>
      </trkpt>
      <trkpt lat="47.77254" lon="-3.60822">
        <ele>8</ele>
        <time>2018-07-18T09:53:02Z</time>
      </trkpt>
      <trkpt lat="47.77258" lon="-3.60821">
        <ele>8</ele>
        <time>2018-07-18T09:53:03Z</time>
      </trkpt>
      <trkpt lat="47.77263" lon="-3.6082">
        <ele>8</ele>
        <time>2018-07-18T09:53:04Z</time>
      </trkpt>
      <trkpt lat="47.77268" lon="-3.60819">
        <ele>8</ele>
        <time>2018-07-18T09:53:05Z</time>
      </trkpt>
      <trkpt lat="47.77273" lon="-3.60818">
        <ele>7</ele>
        <time>2018-07-18T09:53:06Z</time>
      </trkpt>
      <trkpt lat="47.77279" lon="-3.60816">
        <ele>7</ele>
        <time>2018-07-18T09:53:07Z</time>
      </trkpt>
      <trkpt lat="47.77284" lon="-3.60815">
        <ele>7</ele>
        <time>2018-07-18T09:53:08Z</time>
      </trkpt>
      <trkpt lat="47.7729" lon="-3.60813">
        <ele>7</ele>
        <time>2018-07-18T09:53:09Z</time>
      </trkpt>
      <trkpt lat="47.77295" lon="-3.60812">
        <ele>6</ele>
        <time>2018-07-18T09:53:10Z</time>
      </trkpt>
      <trkpt lat="47.773" lon="-3.60811">
        <ele>6</ele>
        <time>2018-07-18T09:53:11Z</time>
      </trkpt>
      <trkpt lat="47.77305" lon="-3.60809">
        <ele>5</ele>
        <time>2018-07-18T09:53:12Z</time>
      </trkpt>
      <trkpt lat="47.7731" lon="-3.60806">
        <ele>5</ele>
        <time>2018-07-18T09:53:13Z</time>
      </trkpt>
      <trkpt lat="47.77315" lon="-3.60802">
        <ele>5</ele>
        <time>2018-07-18T09:53:14Z</time>
      </trkpt>
      <trkpt lat="47.7732" lon="-3.60799">
        <ele>5</ele>
        <time>2018-07-18T09:53:15Z</time>
      </trkpt>
      <trkpt lat="47.77325" lon="-3.60795">
        <ele>4</ele>
        <time>2018-07-18T09:53:16Z</time>
      </trkpt>
      <trkpt lat="47.7733" lon="-3.60791">
        <ele>4</ele>
        <time>2018-07-18T09:53:17Z</time>
      </trkpt>
      <trkpt lat="47.77335" lon="-3.60788">
        <ele>4</ele>
        <time>2018-07-18T09:53:18Z</time>
      </trkpt>
      <trkpt lat="47.77339" lon="-3.60784">
        <ele>4</ele>
        <time>2018-07-18T09:53:19Z</time>
      </trkpt>
      <trkpt lat="47.77343" lon="-3.6078">
        <ele>4</ele>
        <time>2018-07-18T09:53:20Z</time>
      </trkpt>
      <trkpt lat="47.77346" lon="-3.60776">
        <ele>4</ele>
        <time>2018-07-18T09:53:21Z</time>
      </trkpt>
      <trkpt lat="47.7735" lon="-3.60772">
        <ele>4</ele>
        <time>2018-07-18T09:53:22Z</time>
      </trkpt>
      <trkpt lat="47.77354" lon="-3.60768">
        <ele>4</ele>
        <time>2018-07-18T09:53:23Z</time>
      </trkpt>
      <trkpt lat="47.77357" lon="-3.60764">
        <ele>4</ele>
        <time>2018-07-18T09:53:24Z</time>
      </trkpt>
      <trkpt lat="47.77361" lon="-3.60759">
        <ele>4</ele>
        <time>2018-07-18T09:53:25Z</time>
      </trkpt>
      <trkpt lat="47.77363" lon="-3.60753">
        <ele>4</ele>
        <time>2018-07-18T09:53:26Z</time>
      </trkpt>
      <trkpt lat="47.77366" lon="-3.60747">
        <ele>4</ele>
        <time>2018-07-18T09:53:27Z</time>
      </trkpt>
      <trkpt lat="47.77368" lon="-3.60742">
        <ele>4</ele>
        <time>2018-07-18T09:53:28Z</time>
      </trkpt>
      <trkpt lat="47.77371" lon="-3.60735">
        <ele>4</ele>
        <time>2018-07-18T09:53:29Z</time>
      </trkpt>
      <trkpt lat="47.77373" lon="-3.60728">
        <ele>4</ele>
        <time>2018-07-18T09:53:30Z</time>
      </trkpt>
      <trkpt lat="47.77375" lon="-3.60721">
        <ele>4</ele>
        <time>2018-07-18T09:53:31Z</time>
      </trkpt>
      <trkpt lat="47.77377" lon="-3.60714">
        <ele>4</ele>
        <time>2018-07-18T09:53:32Z</time>
      </trkpt>
      <trkpt lat="47.77378" lon="-3.60707">
        <ele>4</ele>
        <time>2018-07-18T09:53:33Z</time>
      </trkpt>
      <trkpt lat="47.77379" lon="-3.607">
        <ele>4</ele>
        <time>2018-07-18T09:53:34Z</time>
      </trkpt>
      <trkpt lat="47.77381" lon="-3.60694">
        <ele>4</ele>
        <time>2018-07-18T09:53:35Z</time>
      </trkpt>
      <trkpt lat="47.77382" lon="-3.60687">
        <ele>4</ele>
        <time>2018-07-18T09:53:36Z</time>
      </trkpt>
      <trkpt lat="47.77384" lon="-3.6068">
        <ele>4</ele>
        <time>2018-07-18T09:53:37Z</time>
      </trkpt>
      <trkpt lat="47.77385" lon="-3.60673">
        <ele>4</ele>
        <time>2018-07-18T09:53:38Z</time>
      </trkpt>
      <trkpt lat="47.77387" lon="-3.60666">
        <ele>4</ele>
        <time>2018-07-18T09:53:39Z</time>
      </trkpt>
      <trkpt lat="47.77388" lon="-3.60658">
        <ele>4</ele>
        <time>2018-07-18T09:53:40Z</time>
      </trkpt>
      <trkpt lat="47.7739" lon="-3.60651">
        <ele>4</ele>
        <time>2018-07-18T09:53:41Z</time>
      </trkpt>
      <trkpt lat="47.77391" lon="-3.60643">
        <ele>4</ele>
        <time>2018-07-18T09:53:42Z</time>
      </trkpt>
      <trkpt lat="47.77393" lon="-3.60635">
        <ele>4</ele>
        <time>2018-07-18T09:53:43Z</time>
      </trkpt>
      <trkpt lat="47.77394" lon="-3.60628">
        <ele>4</ele>
        <time>2018-07-18T09:53:44Z</time>
      </trkpt>
      <trkpt lat="47.77396" lon="-3.6062">
        <ele>4</ele>
        <time>2018-07-18T09:53:45Z</time>
      </trkpt>
      <trkpt lat="47.77399" lon="-3.60613">
        <ele>4</ele>
        <time>2018-07-18T09:53:46Z</time>
      </trkpt>
      <trkpt lat="47.77401" lon="-3.60606">
        <ele>4</ele>
        <time>2018-07-18T09:53:47Z</time>
      </trkpt>
      <trkpt lat="47.77403" lon="-3.60599">
        <ele>4</ele>
        <time>2018-07-18T09:53:48Z</time>
      </trkpt>
      <trkpt lat="47.77406" lon="-3.60592">
        <ele>4</ele>
        <time>2018-07-18T09:53:49Z</time>
      </trkpt>
      <trkpt lat="47.77408" lon="-3.60585">
        <ele>4</ele>
        <time>2018-07-18T09:53:50Z</time>
      </trkpt>
      <trkpt lat="47.77411" lon="-3.60578">
        <ele>4</ele>
        <time>2018-07-18T09:53:51Z</time>
      </trkpt>
      <trkpt lat="47.77414" lon="-3.60571">
        <ele>4</ele>
        <time>2018-07-18T09:53:52Z</time>
      </trkpt>
      <trkpt lat="47.77416" lon="-3.60564">
        <ele>4</ele>
        <time>2018-07-18T09:53:53Z</time>
      </trkpt>
      <trkpt lat="47.77418" lon="-3.60557">
        <ele>4</ele>
        <time>2018-07-18T09:53:54Z</time>
      </trkpt>
      <trkpt lat="47.7742" lon="-3.6055">
        <ele>4</ele>
        <time>2018-07-18T09:53:55Z</time>
      </trkpt>
      <trkpt lat="47.77422" lon="-3.60543">
        <ele>4</ele>
        <time>2018-07-18T09:53:56Z</time>
      </trkpt>
      <trkpt lat="47.77424" lon="-3.60536">
        <ele>4</ele>
        <time>2018-07-18T09:53:57Z</time>
      </trkpt>
      <trkpt lat="47.77426" lon="-3.6053">
        <ele>4</ele>
        <time>2018-07-18T09:53:58Z</time>
      </trkpt>
      <trkpt lat="47.77428" lon="-3.60523">
        <ele>4</ele>
        <time>2018-07-18T09:53:59Z</time>
      </trkpt>
      <trkpt lat="47.7743" lon="-3.60516">
        <ele>3</ele>
        <time>2018-07-18T09:54:00Z</time>
      </trkpt>
      <trkpt lat="47.77432" lon="-3.6051">
        <ele>3</ele>
        <time>2018-07-18T09:54:01Z</time>
      </trkpt>
      <trkpt lat="47.77435" lon="-3.60504">
        <ele>3</ele>
        <time>2018-07-18T09:54:02Z</time>
      </trkpt>
      <trkpt lat="47.77438" lon="-3.60498">
        <ele>3</ele>
        <time>2018-07-18T09:54:03Z</time>
      </trkpt>
      <trkpt lat="47.77442" lon="-3.60494">
        <ele>3</ele>
        <time>2018-07-18T09:54:04Z</time>
      </trkpt>
      <trkpt lat="47.77447" lon="-3.6049">
        <ele>3</ele>
        <time>2018-07-18T09:54:05Z</time>
      </trkpt>
      <trkpt lat="47.77451" lon="-3.60487">
        <ele>3</ele>
        <time>2018-07-18T09:54:06Z</time>
      </trkpt>
      <trkpt lat="47.77456" lon="-3.60484">
        <ele>2</ele>
        <time>2018-07-18T09:54:07Z</time>
      </trkpt>
      <trkpt lat="47.77461" lon="-3.60482">
        <ele>2</ele>
        <time>2018-07-18T09:54:08Z</time>
      </trkpt>
      <trkpt lat="47.77466" lon="-3.6048">
        <ele>2</ele>
        <time>2018-07-18T09:54:09Z</time>
      </trkpt>
      <trkpt lat="47.77471" lon="-3.60478">
        <ele>2</ele>
        <time>2018-07-18T09:54:10Z</time>
      </trkpt>
      <trkpt lat="47.77476" lon="-3.60476">
        <ele>2</ele>
        <time>2018-07-18T09:54:11Z</time>
      </trkpt>
      <trkpt lat="47.77481" lon="-3.60474">
        <ele>2</ele>
        <time>2018-07-18T09:54:12Z</time>
      </trkpt>
      <trkpt lat="47.77486" lon="-3.60472">
        <ele>2</ele>
        <time>2018-07-18T09:54:13Z</time>
      </trkpt>
      <trkpt lat="47.7749" lon="-3.60469">
        <ele>2</ele>
        <time>2018-07-18T09:54:14Z</time>
      </trkpt>
      <trkpt lat="47.77495" lon="-3.60466">
        <ele>2</ele>
        <time>2018-07-18T09:54:15Z</time>
      </trkpt>
      <trkpt lat="47.77499" lon="-3.60464">
        <ele>2</ele>
        <time>2018-07-18T09:54:16Z</time>
      </trkpt>
      <trkpt lat="47.77503" lon="-3.60461">
        <ele>2</ele>
        <time>2018-07-18T09:54:17Z</time>
      </trkpt>
      <trkpt lat="47.77507" lon="-3.60458">
        <ele>2</ele>
        <time>2018-07-18T09:54:18Z</time>
      </trkpt>
      <trkpt lat="47.77511" lon="-3.60455">
        <ele>2</ele>
        <time>2018-07-18T09:54:19Z</time>
      </trkpt>
      <trkpt lat="47.77514" lon="-3.60452">
        <ele>2</ele>
        <time>2018-07-18T09:54:20Z</time>
      </trkpt>
      <trkpt lat="47.77518" lon="-3.60449">
        <ele>2</ele>
        <time>2018-07-18T09:54:21Z</time>
      </trkpt>
      <trkpt lat="47.77521" lon="-3.60446">
        <ele>2</ele>
        <time>2018-07-18T09:54:22Z</time>
      </trkpt>
      <trkpt lat="47.77525" lon="-3.60442">
        <ele>3</ele>
        <time>2018-07-18T09:54:23Z</time>
      </trkpt>
      <trkpt lat="47.77528" lon="-3.60439">
        <ele>3</ele>
        <time>2018-07-18T09:54:24Z</time>
      </trkpt>
      <trkpt lat="47.7753" lon="-3.60435">
        <ele>3</ele>
        <time>2018-07-18T09:54:25Z</time>
      </trkpt>
      <trkpt lat="47.77532" lon="-3.6043">
        <ele>3</ele>
        <time>2018-07-18T09:54:26Z</time>
      </trkpt>
      <trkpt lat="47.77535" lon="-3.60425">
        <ele>3</ele>
        <time>2018-07-18T09:54:27Z</time>
      </trkpt>
      <trkpt lat="47.77537" lon="-3.60421">
        <ele>3</ele>
        <time>2018-07-18T09:54:28Z</time>
      </trkpt>
      <trkpt lat="47.77539" lon="-3.60416">
        <ele>3</ele>
        <time>2018-07-18T09:54:29Z</time>
      </trkpt>
      <trkpt lat="47.77541" lon="-3.60411">
        <ele>3</ele>
        <time>2018-07-18T09:54:30Z</time>
      </trkpt>
      <trkpt lat="47.77544" lon="-3.60405">
        <ele>3</ele>
        <time>2018-07-18T09:54:31Z</time>
      </trkpt>
      <trkpt lat="47.77547" lon="-3.60399">
        <ele>3</ele>
        <time>2018-07-18T09:54:32Z</time>
      </trkpt>
      <trkpt lat="47.7755" lon="-3.60395">
        <ele>3</ele>
        <time>2018-07-18T09:54:33Z</time>
      </trkpt>
      <trkpt lat="47.77553" lon="-3.6039">
        <ele>3</ele>
        <time>2018-07-18T09:54:34Z</time>
      </trkpt>
      <trkpt lat="47.77557" lon="-3.60387">
        <ele>4</ele>
        <time>2018-07-18T09:54:35Z</time>
      </trkpt>
      <trkpt lat="47.77561" lon="-3.60384">
        <ele>4</ele>
        <time>2018-07-18T09:54:36Z</time>
      </trkpt>
      <trkpt lat="47.77565" lon="-3.60381">
        <ele>4</ele>
        <time>2018-07-18T09:54:37Z</time>
      </trkpt>
      <trkpt lat="47.77569" lon="-3.60378">
        <ele>4</ele>
        <time>2018-07-18T09:54:38Z</time>
      </trkpt>
      <trkpt lat="47.77574" lon="-3.60376">
        <ele>4</ele>
        <time>2018-07-18T09:54:39Z</time>
      </trkpt>
      <trkpt lat="47.77578" lon="-3.60375">
        <ele>4</ele>
        <time>2018-07-18T09:54:40Z</time>
      </trkpt>
      <trkpt lat="47.77583" lon="-3.60373">
        <ele>4</ele>
        <time>2018-07-18T09:54:41Z</time>
      </trkpt>
      <trkpt lat="47.77587" lon="-3.60373">
        <ele>4</ele>
        <time>2018-07-18T09:54:42Z</time>
      </trkpt>
      <trkpt lat="47.77592" lon="-3.60372">
        <ele>4</ele>
        <time>2018-07-18T09:54:43Z</time>
      </trkpt>
      <trkpt lat="47.77597" lon="-3.60372">
        <ele>4</ele>
        <time>2018-07-18T09:54:44Z</time>
      </trkpt>
      <trkpt lat="47.77601" lon="-3.60372">
        <ele>5</ele>
        <time>2018-07-18T09:54:45Z</time>
      </trkpt>
      <trkpt lat="47.77606" lon="-3.60372">
        <ele>5</ele>
        <time>2018-07-18T09:54:46Z</time>
      </trkpt>
      <trkpt lat="47.77611" lon="-3.60371">
        <ele>5</ele>
        <time>2018-07-18T09:54:47Z</time>
      </trkpt>
      <trkpt lat="47.77615" lon="-3.60371">
        <ele>5</ele>
        <time>2018-07-18T09:54:48Z</time>
      </trkpt>
      <trkpt lat="47.7762" lon="-3.6037">
        <ele>5</ele>
        <time>2018-07-18T09:54:49Z</time>
      </trkpt>
      <trkpt lat="47.77624" lon="-3.6037">
        <ele>5</ele>
        <time>2018-07-18T09:54:50Z</time>
      </trkpt>
      <trkpt lat="47.77629" lon="-3.6037">
        <ele>5</ele>
        <time>2018-07-18T09:54:51Z</time>
      </trkpt>
      <trkpt lat="47.77634" lon="-3.60371">
        <ele>5</ele>
        <time>2018-07-18T09:54:52Z</time>
      </trkpt>
      <trkpt lat="47.77638" lon="-3.60373">
        <ele>5</ele>
        <time>2018-07-18T09:54:53Z</time>
      </trkpt>
      <trkpt lat="47.77642" lon="-3.60375">
        <ele>5</ele>
        <time>2018-07-18T09:54:54Z</time>
      </trkpt>
      <trkpt lat="47.77647" lon="-3.60377">
        <ele>5</ele>
        <time>2018-07-18T09:54:55Z</time>
      </trkpt>
      <trkpt lat="47.77652" lon="-3.60381">
        <ele>5</ele>
        <time>2018-07-18T09:54:56Z</time>
      </trkpt>
      <trkpt lat="47.77657" lon="-3.60385">
        <ele>5</ele>
        <time>2018-07-18T09:54:57Z</time>
      </trkpt>
      <trkpt lat="47.77663" lon="-3.60389">
        <ele>4</ele>
        <time>2018-07-18T09:54:58Z</time>
      </trkpt>
      <trkpt lat="47.77669" lon="-3.60393">
        <ele>4</ele>
        <time>2018-07-18T09:54:59Z</time>
      </trkpt>
      <trkpt lat="47.77676" lon="-3.60397">
        <ele>4</ele>
        <time>2018-07-18T09:55:00Z</time>
      </trkpt>
      <trkpt lat="47.77682" lon="-3.60402">
        <ele>3</ele>
        <time>2018-07-18T09:55:01Z</time>
      </trkpt>
      <trkpt lat="47.77689" lon="-3.60406">
        <ele>3</ele>
        <time>2018-07-18T09:55:02Z</time>
      </trkpt>
      <trkpt lat="47.77695" lon="-3.60411">
        <ele>3</ele>
        <time>2018-07-18T09:55:03Z</time>
      </trkpt>
      <trkpt lat="47.77702" lon="-3.60415">
        <ele>3</ele>
        <time>2018-07-18T09:55:04Z</time>
      </trkpt>
      <trkpt lat="47.77708" lon="-3.60419">
        <ele>3</ele>
        <time>2018-07-18T09:55:05Z</time>
      </trkpt>
      <trkpt lat="47.77714" lon="-3.60424">
        <ele>3</ele>
        <time>2018-07-18T09:55:06Z</time>
      </trkpt>
      <trkpt lat="47.77719" lon="-3.60428">
        <ele>3</ele>
        <time>2018-07-18T09:55:07Z</time>
      </trkpt>
      <trkpt lat="47.77725" lon="-3.60431">
        <ele>3</ele>
        <time>2018-07-18T09:55:08Z</time>
      </trkpt>
      <trkpt lat="47.7773" lon="-3.60435">
        <ele>3</ele>
        <time>2018-07-18T09:55:09Z</time>
      </trkpt>
      <trkpt lat="47.77735" lon="-3.60438">
        <ele>3</ele>
        <time>2018-07-18T09:55:10Z</time>
      </trkpt>
      <trkpt lat="47.7774" lon="-3.60441">
        <ele>3</ele>
        <time>2018-07-18T09:55:11Z</time>
      </trkpt>
      <trkpt lat="47.77744" lon="-3.60444">
        <ele>3</ele>
        <time>2018-07-18T09:55:12Z</time>
      </trkpt>
      <trkpt lat="47.77749" lon="-3.60447">
        <ele>3</ele>
        <time>2018-07-18T09:55:13Z</time>
      </trkpt>
      <trkpt lat="47.77753" lon="-3.6045">
        <ele>4</ele>
        <time>2018-07-18T09:55:14Z</time>
      </trkpt>
      <trkpt lat="47.77757" lon="-3.60453">
        <ele>4</ele>
        <time>2018-07-18T09:55:15Z</time>
      </trkpt>
      <trkpt lat="47.7776" lon="-3.60456">
        <ele>4</ele>
        <time>2018-07-18T09:55:16Z</time>
      </trkpt>
      <trkpt lat="47.77765" lon="-3.60459">
        <ele>4</ele>
        <time>2018-07-18T09:55:17Z</time>
      </trkpt>
      <trkpt lat="47.77769" lon="-3.60462">
        <ele>4</ele>
        <time>2018-07-18T09:55:18Z</time>
      </trkpt>
      <trkpt lat="47.77772" lon="-3.60465">
        <ele>5</ele>
        <time>2018-07-18T09:55:19Z</time>
      </trkpt>
      <trkpt lat="47.77776" lon="-3.60468">
        <ele>5</ele>
        <time>2018-07-18T09:55:20Z</time>
      </trkpt>
      <trkpt lat="47.7778" lon="-3.60471">
        <ele>5</ele>
        <time>2018-07-18T09:55:21Z</time>
      </trkpt>
      <trkpt lat="47.77784" lon="-3.60473">
        <ele>5</ele>
        <time>2018-07-18T09:55:22Z</time>
      </trkpt>
      <trkpt lat="47.77788" lon="-3.60476">
        <ele>5</ele>
        <time>2018-07-18T09:55:23Z</time>
      </trkpt>
      <trkpt lat="47.77791" lon="-3.60478">
        <ele>5</ele>
        <time>2018-07-18T09:55:24Z</time>
      </trkpt>
      <trkpt lat="47.77795" lon="-3.60481">
        <ele>5</ele>
        <time>2018-07-18T09:55:25Z</time>
      </trkpt>
      <trkpt lat="47.77798" lon="-3.60484">
        <ele>5</ele>
        <time>2018-07-18T09:55:26Z</time>
      </trkpt>
      <trkpt lat="47.77802" lon="-3.60486">
        <ele>5</ele>
        <time>2018-07-18T09:55:27Z</time>
      </trkpt>
      <trkpt lat="47.77806" lon="-3.60489">
        <ele>6</ele>
        <time>2018-07-18T09:55:28Z</time>
      </trkpt>
      <trkpt lat="47.7781" lon="-3.60491">
        <ele>6</ele>
        <time>2018-07-18T09:55:29Z</time>
      </trkpt>
      <trkpt lat="47.77814" lon="-3.60493">
        <ele>6</ele>
        <time>2018-07-18T09:55:30Z</time>
      </trkpt>
      <trkpt lat="47.77817" lon="-3.60496">
        <ele>6</ele>
        <time>2018-07-18T09:55:31Z</time>
      </trkpt>
      <trkpt lat="47.77821" lon="-3.60498">
        <ele>6</ele>
        <time>2018-07-18T09:55:32Z</time>
      </trkpt>
      <trkpt lat="47.77824" lon="-3.605">
        <ele>6</ele>
        <time>2018-07-18T09:55:33Z</time>
      </trkpt>
      <trkpt lat="47.77827" lon="-3.60502">
        <ele>7</ele>
        <time>2018-07-18T09:55:34Z</time>
      </trkpt>
      <trkpt lat="47.7783" lon="-3.60503">
        <ele>7</ele>
        <time>2018-07-18T09:55:35Z</time>
      </trkpt>
      <trkpt lat="47.77833" lon="-3.60504">
        <ele>7</ele>
        <time>2018-07-18T09:55:36Z</time>
      </trkpt>
      <trkpt lat="47.77836" lon="-3.60505">
        <ele>7</ele>
        <time>2018-07-18T09:55:37Z</time>
      </trkpt>
      <trkpt lat="47.77838" lon="-3.60506">
        <ele>7</ele>
        <time>2018-07-18T09:55:38Z</time>
      </trkpt>
      <trkpt lat="47.7784" lon="-3.60507">
        <ele>7</ele>
        <time>2018-07-18T09:55:39Z</time>
      </trkpt>
      <trkpt lat="47.77841" lon="-3.60507">
        <ele>7</ele>
        <time>2018-07-18T09:55:40Z</time>
      </trkpt>
      <trkpt lat="47.77841" lon="-3.60508">
        <ele>8</ele>
        <time>2018-07-18T09:55:41Z</time>
      </trkpt>
      <trkpt lat="47.77843" lon="-3.6051">
        <ele>8</ele>
        <time>2018-07-18T09:55:42Z</time>
      </trkpt>
      <trkpt lat="47.77845" lon="-3.60512">
        <ele>8</ele>
        <time>2018-07-18T09:55:43Z</time>
      </trkpt>
      <trkpt lat="47.77848" lon="-3.60513">
        <ele>8</ele>
        <time>2018-07-18T09:55:44Z</time>
      </trkpt>
      <trkpt lat="47.7785" lon="-3.60514">
        <ele>8</ele>
        <time>2018-07-18T09:55:45Z</time>
      </trkpt>
      <trkpt lat="47.77852" lon="-3.60515">
        <ele>9</ele>
        <time>2018-07-18T09:55:46Z</time>
      </trkpt>
      <trkpt lat="47.77855" lon="-3.60516">
        <ele>9</ele>
        <time>2018-07-18T09:55:47Z</time>
      </trkpt>
      <trkpt lat="47.77858" lon="-3.60517">
        <ele>9</ele>
        <time>2018-07-18T09:55:48Z</time>
      </trkpt>
      <trkpt lat="47.77861" lon="-3.60518">
        <ele>9</ele>
        <time>2018-07-18T09:55:49Z</time>
      </trkpt>
      <trkpt lat="47.77865" lon="-3.6052">
        <ele>9</ele>
        <time>2018-07-18T09:55:50Z</time>
      </trkpt>
      <trkpt lat="47.77868" lon="-3.60523">
        <ele>9</ele>
        <time>2018-07-18T09:55:51Z</time>
      </trkpt>
      <trkpt lat="47.77871" lon="-3.60526">
        <ele>10</ele>
        <time>2018-07-18T09:55:52Z</time>
      </trkpt>
      <trkpt lat="47.77874" lon="-3.6053">
        <ele>10</ele>
        <time>2018-07-18T09:55:53Z</time>
      </trkpt>
      <trkpt lat="47.77877" lon="-3.60535">
        <ele>10</ele>
        <time>2018-07-18T09:55:54Z</time>
      </trkpt>
      <trkpt lat="47.7788" lon="-3.6054">
        <ele>10</ele>
        <time>2018-07-18T09:55:55Z</time>
      </trkpt>
      <trkpt lat="47.77882" lon="-3.60544">
        <ele>10</ele>
        <time>2018-07-18T09:55:56Z</time>
      </trkpt>
      <trkpt lat="47.77884" lon="-3.60549">
        <ele>10</ele>
        <time>2018-07-18T09:55:57Z</time>
      </trkpt>
      <trkpt lat="47.77887" lon="-3.60553">
        <ele>11</ele>
        <time>2018-07-18T09:55:58Z</time>
      </trkpt>
      <trkpt lat="47.77889" lon="-3.60558">
        <ele>11</ele>
        <time>2018-07-18T09:55:59Z</time>
      </trkpt>
      <trkpt lat="47.77891" lon="-3.60562">
        <ele>11</ele>
        <time>2018-07-18T09:56:00Z</time>
      </trkpt>
      <trkpt lat="47.77894" lon="-3.60566">
        <ele>11</ele>
        <time>2018-07-18T09:56:01Z</time>
      </trkpt>
      <trkpt lat="47.77895" lon="-3.6057">
        <ele>12</ele>
        <time>2018-07-18T09:56:02Z</time>
      </trkpt>
      <trkpt lat="47.77897" lon="-3.60573">
        <ele>12</ele>
        <time>2018-07-18T09:56:03Z</time>
      </trkpt>
      <trkpt lat="47.77898" lon="-3.60578">
        <ele>12</ele>
        <time>2018-07-18T09:56:04Z</time>
      </trkpt>
      <trkpt lat="47.77898" lon="-3.60582">
        <ele>12</ele>
        <time>2018-07-18T09:56:05Z</time>
      </trkpt>
      <trkpt lat="47.77899" lon="-3.60586">
        <ele>12</ele>
        <time>2018-07-18T09:56:06Z</time>
      </trkpt>
      <trkpt lat="47.77899" lon="-3.60588">
        <ele>13</ele>
        <time>2018-07-18T09:56:07Z</time>
      </trkpt>
      <trkpt lat="47.779" lon="-3.60591">
        <ele>13</ele>
        <time>2018-07-18T09:56:08Z</time>
      </trkpt>
      <trkpt lat="47.779" lon="-3.60594">
        <ele>13</ele>
        <time>2018-07-18T09:56:09Z</time>
      </trkpt>
      <trkpt lat="47.779" lon="-3.60597">
        <ele>13</ele>
        <time>2018-07-18T09:56:10Z</time>
      </trkpt>
      <trkpt lat="47.779" lon="-3.60599">
        <ele>14</ele>
        <time>2018-07-18T09:56:11Z</time>
      </trkpt>
      <trkpt lat="47.779" lon="-3.60603">
        <ele>14</ele>
        <time>2018-07-18T09:56:12Z</time>
      </trkpt>
      <trkpt lat="47.779" lon="-3.60606">
        <ele>14</ele>
        <time>2018-07-18T09:56:13Z</time>
      </trkpt>
      <trkpt lat="47.77901" lon="-3.6061">
        <ele>14</ele>
        <time>2018-07-18T09:56:14Z</time>
      </trkpt>
      <trkpt lat="47.77902" lon="-3.60614">
        <ele>15</ele>
        <time>2018-07-18T09:56:15Z</time>
      </trkpt>
      <trkpt lat="47.77902" lon="-3.60618">
        <ele>15</ele>
        <time>2018-07-18T09:56:16Z</time>
      </trkpt>
      <trkpt lat="47.77902" lon="-3.60622">
        <ele>15</ele>
        <time>2018-07-18T09:56:17Z</time>
      </trkpt>
      <trkpt lat="47.77902" lon="-3.60625">
        <ele>15</ele>
        <time>2018-07-18T09:56:18Z</time>
      </trkpt>
      <trkpt lat="47.77902" lon="-3.60629">
        <ele>15</ele>
        <time>2018-07-18T09:56:19Z</time>
      </trkpt>
      <trkpt lat="47.77902" lon="-3.60633">
        <ele>15</ele>
        <time>2018-07-18T09:56:20Z</time>
      </trkpt>
      <trkpt lat="47.77903" lon="-3.60637">
        <ele>15</ele>
        <time>2018-07-18T09:56:21Z</time>
      </trkpt>
      <trkpt lat="47.77903" lon="-3.60641">
        <ele>16</ele>
        <time>2018-07-18T09:56:22Z</time>
      </trkpt>
      <trkpt lat="47.77903" lon="-3.60645">
        <ele>16</ele>
        <time>2018-07-18T09:56:23Z</time>
      </trkpt>
      <trkpt lat="47.77903" lon="-3.60649">
        <ele>16</ele>
        <time>2018-07-18T09:56:24Z</time>
      </trkpt>
      <trkpt lat="47.77903" lon="-3.60653">
        <ele>16</ele>
        <time>2018-07-18T09:56:25Z</time>
      </trkpt>
      <trkpt lat="47.77903" lon="-3.60658">
        <ele>16</ele>
        <time>2018-07-18T09:56:26Z</time>
      </trkpt>
      <trkpt lat="47.77903" lon="-3.60662">
        <ele>16</ele>
        <time>2018-07-18T09:56:27Z</time>
      </trkpt>
      <trkpt lat="47.77904" lon="-3.60666">
        <ele>16</ele>
        <time>2018-07-18T09:56:28Z</time>
      </trkpt>
      <trkpt lat="47.77904" lon="-3.60671">
        <ele>16</ele>
        <time>2018-07-18T09:56:29Z</time>
      </trkpt>
      <trkpt lat="47.77904" lon="-3.60675">
        <ele>16</ele>
        <time>2018-07-18T09:56:30Z</time>
      </trkpt>
      <trkpt lat="47.77904" lon="-3.6068">
        <ele>16</ele>
        <time>2018-07-18T09:56:31Z</time>
      </trkpt>
      <trkpt lat="47.77903" lon="-3.60685">
        <ele>16</ele>
        <time>2018-07-18T09:56:32Z</time>
      </trkpt>
      <trkpt lat="47.77903" lon="-3.60691">
        <ele>17</ele>
        <time>2018-07-18T09:56:33Z</time>
      </trkpt>
      <trkpt lat="47.77903" lon="-3.60695">
        <ele>17</ele>
        <time>2018-07-18T09:56:34Z</time>
      </trkpt>
      <trkpt lat="47.77903" lon="-3.607">
        <ele>17</ele>
        <time>2018-07-18T09:56:35Z</time>
      </trkpt>
      <trkpt lat="47.77902" lon="-3.60705">
        <ele>17</ele>
        <time>2018-07-18T09:56:36Z</time>
      </trkpt>
      <trkpt lat="47.77901" lon="-3.6071">
        <ele>17</ele>
        <time>2018-07-18T09:56:37Z</time>
      </trkpt>
      <trkpt lat="47.779" lon="-3.60713">
        <ele>17</ele>
        <time>2018-07-18T09:56:38Z</time>
      </trkpt>
      <trkpt lat="47.779" lon="-3.60715">
        <ele>17</ele>
        <time>2018-07-18T09:56:39Z</time>
      </trkpt>
      <trkpt lat="47.779" lon="-3.60717">
        <ele>17</ele>
        <time>2018-07-18T09:56:40Z</time>
      </trkpt>
      <trkpt lat="47.779" lon="-3.60719">
        <ele>17</ele>
        <time>2018-07-18T09:56:41Z</time>
      </trkpt>
      <trkpt lat="47.77899" lon="-3.60721">
        <ele>17</ele>
        <time>2018-07-18T09:56:42Z</time>
      </trkpt>
      <trkpt lat="47.77899" lon="-3.60722">
        <ele>17</ele>
        <time>2018-07-18T09:56:43Z</time>
      </trkpt>
      <trkpt lat="47.77899" lon="-3.60723">
        <ele>17</ele>
        <time>2018-07-18T09:56:44Z</time>
      </trkpt>
      <trkpt lat="47.77899" lon="-3.60725">
        <ele>17</ele>
        <time>2018-07-18T09:56:45Z</time>
      </trkpt>
      <trkpt lat="47.77898" lon="-3.60726">
        <ele>17</ele>
        <time>2018-07-18T09:56:46Z</time>
      </trkpt>
      <trkpt lat="47.77898" lon="-3.60727">
        <ele>18</ele>
        <time>2018-07-18T09:56:47Z</time>
      </trkpt>
      <trkpt lat="47.77898" lon="-3.60728">
        <ele>18</ele>
        <time>2018-07-18T09:56:48Z</time>
      </trkpt>
      <trkpt lat="47.77898" lon="-3.60729">
        <ele>18</ele>
        <time>2018-07-18T09:56:49Z</time>
      </trkpt>
      <trkpt lat="47.77898" lon="-3.6073">
        <ele>18</ele>
        <time>2018-07-18T09:56:50Z</time>
      </trkpt>
      <trkpt lat="47.77898" lon="-3.6073">
        <ele>18</ele>
        <time>2018-07-18T09:56:51Z</time>
      </trkpt>
      <trkpt lat="47.77898" lon="-3.60731">
        <ele>18</ele>
        <time>2018-07-18T09:56:52Z</time>
      </trkpt>
      <trkpt lat="47.77898" lon="-3.60732">
        <ele>18</ele>
        <time>2018-07-18T09:56:53Z</time>
      </trkpt>
      <trkpt lat="47.77897" lon="-3.60738">
        <ele>18</ele>
        <time>2018-07-18T09:56:54Z</time>
      </trkpt>
      <trkpt lat="47.77897" lon="-3.6074">
        <ele>18</ele>
        <time>2018-07-18T09:56:55Z</time>
      </trkpt>
      <trkpt lat="47.77898" lon="-3.6074">
        <ele>18</ele>
        <time>2018-07-18T09:56:56Z</time>
      </trkpt>
      <trkpt lat="47.77899" lon="-3.6074">
        <ele>18</ele>
        <time>2018-07-18T09:56:57Z</time>
      </trkpt>
      <trkpt lat="47.779" lon="-3.60739">
        <ele>18</ele>
        <time>2018-07-18T09:56:58Z</time>
      </trkpt>
      <trkpt lat="47.77901" lon="-3.60738">
        <ele>19</ele>
        <time>2018-07-18T09:56:59Z</time>
      </trkpt>
      <trkpt lat="47.77904" lon="-3.60737">
        <ele>19</ele>
        <time>2018-07-18T09:57:00Z</time>
      </trkpt>
      <trkpt lat="47.77906" lon="-3.60737">
        <ele>19</ele>
        <time>2018-07-18T09:57:01Z</time>
      </trkpt>
      <trkpt lat="47.77908" lon="-3.60737">
        <ele>19</ele>
        <time>2018-07-18T09:57:02Z</time>
      </trkpt>
      <trkpt lat="47.77911" lon="-3.60737">
        <ele>19</ele>
        <time>2018-07-18T09:57:03Z</time>
      </trkpt>
      <trkpt lat="47.77915" lon="-3.60737">
        <ele>19</ele>
        <time>2018-07-18T09:57:04Z</time>
      </trkpt>
      <trkpt lat="47.77919" lon="-3.60738">
        <ele>19</ele>
        <time>2018-07-18T09:57:05Z</time>
      </trkpt>
      <trkpt lat="47.77922" lon="-3.60739">
        <ele>19</ele>
        <time>2018-07-18T09:57:06Z</time>
      </trkpt>
      <trkpt lat="47.77926" lon="-3.60739">
        <ele>19</ele>
        <time>2018-07-18T09:57:07Z</time>
      </trkpt>
      <trkpt lat="47.77929" lon="-3.60739">
        <ele>19</ele>
        <time>2018-07-18T09:57:08Z</time>
      </trkpt>
      <trkpt lat="47.77931" lon="-3.6074">
        <ele>19</ele>
        <time>2018-07-18T09:57:09Z</time>
      </trkpt>
      <trkpt lat="47.77932" lon="-3.6074">
        <ele>19</ele>
        <time>2018-07-18T09:57:10Z</time>
      </trkpt>
      <trkpt lat="47.77933" lon="-3.6074">
        <ele>19</ele>
        <time>2018-07-18T09:57:11Z</time>
      </trkpt>
      <trkpt lat="47.77934" lon="-3.60741">
        <ele>19</ele>
        <time>2018-07-18T09:57:12Z</time>
      </trkpt>
      <trkpt lat="47.77934" lon="-3.60741">
        <ele>19</ele>
        <time>2018-07-18T09:57:13Z</time>
      </trkpt>
      <trkpt lat="47.77935" lon="-3.60741">
        <ele>19</ele>
        <time>2018-07-18T09:57:14Z</time>
      </trkpt>
      <trkpt lat="47.77936" lon="-3.60742">
        <ele>19</ele>
        <time>2018-07-18T09:57:15Z</time>
      </trkpt>
      <trkpt lat="47.77938" lon="-3.60742">
        <ele>19</ele>
        <time>2018-07-18T09:57:16Z</time>
      </trkpt>
      <trkpt lat="47.7794" lon="-3.60743">
        <ele>19</ele>
        <time>2018-07-18T09:57:17Z</time>
      </trkpt>
      <trkpt lat="47.77942" lon="-3.60743">
        <ele>19</ele>
        <time>2018-07-18T09:57:18Z</time>
      </trkpt>
      <trkpt lat="47.77944" lon="-3.60743">
        <ele>19</ele>
        <time>2018-07-18T09:57:19Z</time>
      </trkpt>
      <trkpt lat="47.77946" lon="-3.60744">
        <ele>19</ele>
        <time>2018-07-18T09:57:20Z</time>
      </trkpt>
      <trkpt lat="47.77947" lon="-3.60744">
        <ele>19</ele>
        <time>2018-07-18T09:57:21Z</time>
      </trkpt>
      <trkpt lat="47.77949" lon="-3.60745">
        <ele>19</ele>
        <time>2018-07-18T09:57:22Z</time>
      </trkpt>
      <trkpt lat="47.77951" lon="-3.60746">
        <ele>19</ele>
        <time>2018-07-18T09:57:23Z</time>
      </trkpt>
      <trkpt lat="47.77953" lon="-3.60746">
        <ele>19</ele>
        <time>2018-07-18T09:57:24Z</time>
      </trkpt>
      <trkpt lat="47.77955" lon="-3.60747">
        <ele>19</ele>
        <time>2018-07-18T09:57:25Z</time>
      </trkpt>
      <trkpt lat="47.77956" lon="-3.60748">
        <ele>19</ele>
        <time>2018-07-18T09:57:26Z</time>
      </trkpt>
      <trkpt lat="47.77958" lon="-3.6075">
        <ele>18</ele>
        <time>2018-07-18T09:57:27Z</time>
      </trkpt>
      <trkpt lat="47.7796" lon="-3.6075">
        <ele>19</ele>
        <time>2018-07-18T09:57:28Z</time>
      </trkpt>
      <trkpt lat="47.77962" lon="-3.60751">
        <ele>19</ele>
        <time>2018-07-18T09:57:29Z</time>
      </trkpt>
      <trkpt lat="47.77965" lon="-3.60751">
        <ele>18</ele>
        <time>2018-07-18T09:57:30Z</time>
      </trkpt>
      <trkpt lat="47.77966" lon="-3.60751">
        <ele>18</ele>
        <time>2018-07-18T09:57:31Z</time>
      </trkpt>
      <trkpt lat="47.77968" lon="-3.60751">
        <ele>18</ele>
        <time>2018-07-18T09:57:32Z</time>
      </trkpt>
      <trkpt lat="47.7797" lon="-3.60751">
        <ele>18</ele>
        <time>2018-07-18T09:57:33Z</time>
      </trkpt>
      <trkpt lat="47.77972" lon="-3.60751">
        <ele>18</ele>
        <time>2018-07-18T09:57:34Z</time>
      </trkpt>
      <trkpt lat="47.77975" lon="-3.60751">
        <ele>18</ele>
        <time>2018-07-18T09:57:35Z</time>
      </trkpt>
      <trkpt lat="47.77978" lon="-3.6075">
        <ele>19</ele>
        <time>2018-07-18T09:57:36Z</time>
      </trkpt>
      <trkpt lat="47.7798" lon="-3.6075">
        <ele>19</ele>
        <time>2018-07-18T09:57:37Z</time>
      </trkpt>
      <trkpt lat="47.77983" lon="-3.6075">
        <ele>19</ele>
        <time>2018-07-18T09:57:38Z</time>
      </trkpt>
      <trkpt lat="47.77985" lon="-3.60749">
        <ele>19</ele>
        <time>2018-07-18T09:57:39Z</time>
      </trkpt>
      <trkpt lat="47.77988" lon="-3.60748">
        <ele>19</ele>
        <time>2018-07-18T09:57:40Z</time>
      </trkpt>
      <trkpt lat="47.77989" lon="-3.60748">
        <ele>19</ele>
        <time>2018-07-18T09:57:41Z</time>
      </trkpt>
      <trkpt lat="47.77992" lon="-3.60747">
        <ele>19</ele>
        <time>2018-07-18T09:57:42Z</time>
      </trkpt>
      <trkpt lat="47.77993" lon="-3.60748">
        <ele>19</ele>
        <time>2018-07-18T09:57:43Z</time>
      </trkpt>
      <trkpt lat="47.77996" lon="-3.60748">
        <ele>19</ele>
        <time>2018-07-18T09:57:44Z</time>
      </trkpt>
      <trkpt lat="47.77998" lon="-3.60748">
        <ele>19</ele>
        <time>2018-07-18T09:57:45Z</time>
      </trkpt>
      <trkpt lat="47.78001" lon="-3.60748">
        <ele>19</ele>
        <time>2018-07-18T09:57:46Z</time>
      </trkpt>
      <trkpt lat="47.78003" lon="-3.60749">
        <ele>19</ele>
        <time>2018-07-18T09:57:47Z</time>
      </trkpt>
      <trkpt lat="47.78005" lon="-3.60751">
        <ele>19</ele>
        <time>2018-07-18T09:57:48Z</time>
      </trkpt>
      <trkpt lat="47.78005" lon="-3.60753">
        <ele>20</ele>
        <time>2018-07-18T09:57:49Z</time>
      </trkpt>
      <trkpt lat="47.78006" lon="-3.60757">
        <ele>20</ele>
        <time>2018-07-18T09:57:50Z</time>
      </trkpt>
      <trkpt lat="47.78006" lon="-3.6076">
        <ele>20</ele>
        <time>2018-07-18T09:57:51Z</time>
      </trkpt>
      <trkpt lat="47.78006" lon="-3.60764">
        <ele>20</ele>
        <time>2018-07-18T09:57:52Z</time>
      </trkpt>
      <trkpt lat="47.78006" lon="-3.60769">
        <ele>20</ele>
        <time>2018-07-18T09:57:53Z</time>
      </trkpt>
      <trkpt lat="47.78007" lon="-3.60772">
        <ele>20</ele>
        <time>2018-07-18T09:57:54Z</time>
      </trkpt>
      <trkpt lat="47.78007" lon="-3.60774">
        <ele>20</ele>
        <time>2018-07-18T09:57:55Z</time>
      </trkpt>
      <trkpt lat="47.78008" lon="-3.60777">
        <ele>20</ele>
        <time>2018-07-18T09:57:56Z</time>
      </trkpt>
      <trkpt lat="47.78009" lon="-3.60779">
        <ele>20</ele>
        <time>2018-07-18T09:57:57Z</time>
      </trkpt>
      <trkpt lat="47.7801" lon="-3.60782">
        <ele>21</ele>
        <time>2018-07-18T09:57:58Z</time>
      </trkpt>
      <trkpt lat="47.78011" lon="-3.60784">
        <ele>21</ele>
        <time>2018-07-18T09:57:59Z</time>
      </trkpt>
      <trkpt lat="47.78012" lon="-3.60786">
        <ele>21</ele>
        <time>2018-07-18T09:58:00Z</time>
      </trkpt>
      <trkpt lat="47.78012" lon="-3.60789">
        <ele>21</ele>
        <time>2018-07-18T09:58:01Z</time>
      </trkpt>
      <trkpt lat="47.78014" lon="-3.6079">
        <ele>21</ele>
        <time>2018-07-18T09:58:02Z</time>
      </trkpt>
      <trkpt lat="47.78015" lon="-3.60792">
        <ele>21</ele>
        <time>2018-07-18T09:58:03Z</time>
      </trkpt>
      <trkpt lat="47.78016" lon="-3.60794">
        <ele>22</ele>
        <time>2018-07-18T09:58:04Z</time>
      </trkpt>
      <trkpt lat="47.78017" lon="-3.60796">
        <ele>22</ele>
        <time>2018-07-18T09:58:05Z</time>
      </trkpt>
      <trkpt lat="47.78019" lon="-3.60797">
        <ele>22</ele>
        <time>2018-07-18T09:58:06Z</time>
      </trkpt>
      <trkpt lat="47.7802" lon="-3.60799">
        <ele>22</ele>
        <time>2018-07-18T09:58:07Z</time>
      </trkpt>
      <trkpt lat="47.78022" lon="-3.60802">
        <ele>23</ele>
        <time>2018-07-18T09:58:08Z</time>
      </trkpt>
      <trkpt lat="47.78024" lon="-3.60804">
        <ele>23</ele>
        <time>2018-07-18T09:58:09Z</time>
      </trkpt>
      <trkpt lat="47.78025" lon="-3.60806">
        <ele>23</ele>
        <time>2018-07-18T09:58:10Z</time>
      </trkpt>
      <trkpt lat="47.78028" lon="-3.60809">
        <ele>23</ele>
        <time>2018-07-18T09:58:11Z</time>
      </trkpt>
      <trkpt lat="47.78029" lon="-3.60811">
        <ele>23</ele>
        <time>2018-07-18T09:58:12Z</time>
      </trkpt>
      <trkpt lat="47.78031" lon="-3.60814">
        <ele>24</ele>
        <time>2018-07-18T09:58:13Z</time>
      </trkpt>
      <trkpt lat="47.78033" lon="-3.60817">
        <ele>24</ele>
        <time>2018-07-18T09:58:14Z</time>
      </trkpt>
      <trkpt lat="47.78034" lon="-3.60819">
        <ele>24</ele>
        <time>2018-07-18T09:58:15Z</time>
      </trkpt>
      <trkpt lat="47.78036" lon="-3.60822">
        <ele>24</ele>
        <time>2018-07-18T09:58:16Z</time>
      </trkpt>
      <trkpt lat="47.78038" lon="-3.60825">
        <ele>25</ele>
        <time>2018-07-18T09:58:17Z</time>
      </trkpt>
      <trkpt lat="47.78039" lon="-3.60828">
        <ele>25</ele>
        <time>2018-07-18T09:58:18Z</time>
      </trkpt>
      <trkpt lat="47.7804" lon="-3.6083">
        <ele>25</ele>
        <time>2018-07-18T09:58:19Z</time>
      </trkpt>
      <trkpt lat="47.78041" lon="-3.60833">
        <ele>25</ele>
        <time>2018-07-18T09:58:20Z</time>
      </trkpt>
      <trkpt lat="47.78042" lon="-3.60836">
        <ele>25</ele>
        <time>2018-07-18T09:58:21Z</time>
      </trkpt>
      <trkpt lat="47.78042" lon="-3.6084">
        <ele>25</ele>
        <time>2018-07-18T09:58:22Z</time>
      </trkpt>
      <trkpt lat="47.78043" lon="-3.60843">
        <ele>25</ele>
        <time>2018-07-18T09:58:23Z</time>
      </trkpt>
      <trkpt lat="47.78044" lon="-3.60848">
        <ele>25</ele>
        <time>2018-07-18T09:58:24Z</time>
      </trkpt>
      <trkpt lat="47.78045" lon="-3.60854">
        <ele>25</ele>
        <time>2018-07-18T09:58:25Z</time>
      </trkpt>
      <trkpt lat="47.78046" lon="-3.60859">
        <ele>25</ele>
        <time>2018-07-18T09:58:26Z</time>
      </trkpt>
      <trkpt lat="47.78047" lon="-3.60863">
        <ele>25</ele>
        <time>2018-07-18T09:58:27Z</time>
      </trkpt>
      <trkpt lat="47.78047" lon="-3.60868">
        <ele>25</ele>
        <time>2018-07-18T09:58:28Z</time>
      </trkpt>
      <trkpt lat="47.78047" lon="-3.60872">
        <ele>26</ele>
        <time>2018-07-18T09:58:29Z</time>
      </trkpt>
      <trkpt lat="47.78048" lon="-3.60876">
        <ele>26</ele>
        <time>2018-07-18T09:58:30Z</time>
      </trkpt>
      <trkpt lat="47.78048" lon="-3.6088">
        <ele>26</ele>
        <time>2018-07-18T09:58:31Z</time>
      </trkpt>
      <trkpt lat="47.78049" lon="-3.60886">
        <ele>26</ele>
        <time>2018-07-18T09:58:32Z</time>
      </trkpt>
      <trkpt lat="47.7805" lon="-3.60892">
        <ele>26</ele>
        <time>2018-07-18T09:58:33Z</time>
      </trkpt>
      <trkpt lat="47.78051" lon="-3.60897">
        <ele>26</ele>
        <time>2018-07-18T09:58:34Z</time>
      </trkpt>
      <trkpt lat="47.78053" lon="-3.609">
        <ele>26</ele>
        <time>2018-07-18T09:58:35Z</time>
      </trkpt>
      <trkpt lat="47.78055" lon="-3.60903">
        <ele>26</ele>
        <time>2018-07-18T09:58:36Z</time>
      </trkpt>
      <trkpt lat="47.78057" lon="-3.60904">
        <ele>26</ele>
        <time>2018-07-18T09:58:37Z</time>
      </trkpt>
      <trkpt lat="47.7806" lon="-3.60906">
        <ele>26</ele>
        <time>2018-07-18T09:58:38Z</time>
      </trkpt>
      <trkpt lat="47.78062" lon="-3.60908">
        <ele>26</ele>
        <time>2018-07-18T09:58:39Z</time>
      </trkpt>
      <trkpt lat="47.78063" lon="-3.6091">
        <ele>26</ele>
        <time>2018-07-18T09:58:40Z</time>
      </trkpt>
      <trkpt lat="47.78065" lon="-3.60912">
        <ele>26</ele>
        <time>2018-07-18T09:58:41Z</time>
      </trkpt>
      <trkpt lat="47.78067" lon="-3.60914">
        <ele>26</ele>
        <time>2018-07-18T09:58:42Z</time>
      </trkpt>
      <trkpt lat="47.78069" lon="-3.60914">
        <ele>27</ele>
        <time>2018-07-18T09:58:43Z</time>
      </trkpt>
      <trkpt lat="47.78071" lon="-3.60916">
        <ele>27</ele>
        <time>2018-07-18T09:58:44Z</time>
      </trkpt>
      <trkpt lat="47.78073" lon="-3.60917">
        <ele>27</ele>
        <time>2018-07-18T09:58:45Z</time>
      </trkpt>
      <trkpt lat="47.78075" lon="-3.60919">
        <ele>27</ele>
        <time>2018-07-18T09:58:46Z</time>
      </trkpt>
      <trkpt lat="47.78077" lon="-3.6092">
        <ele>27</ele>
        <time>2018-07-18T09:58:47Z</time>
      </trkpt>
      <trkpt lat="47.7808" lon="-3.60922">
        <ele>27</ele>
        <time>2018-07-18T09:58:48Z</time>
      </trkpt>
      <trkpt lat="47.78082" lon="-3.60923">
        <ele>27</ele>
        <time>2018-07-18T09:58:49Z</time>
      </trkpt>
      <trkpt lat="47.78085" lon="-3.60924">
        <ele>28</ele>
        <time>2018-07-18T09:58:50Z</time>
      </trkpt>
      <trkpt lat="47.78087" lon="-3.60925">
        <ele>28</ele>
        <time>2018-07-18T09:58:51Z</time>
      </trkpt>
      <trkpt lat="47.7809" lon="-3.60927">
        <ele>28</ele>
        <time>2018-07-18T09:58:52Z</time>
      </trkpt>
      <trkpt lat="47.78092" lon="-3.60927">
        <ele>28</ele>
        <time>2018-07-18T09:58:53Z</time>
      </trkpt>
      <trkpt lat="47.78094" lon="-3.60929">
        <ele>29</ele>
        <time>2018-07-18T09:58:54Z</time>
      </trkpt>
      <trkpt lat="47.78097" lon="-3.60931">
        <ele>29</ele>
        <time>2018-07-18T09:58:55Z</time>
      </trkpt>
      <trkpt lat="47.781" lon="-3.60933">
        <ele>29</ele>
        <time>2018-07-18T09:58:56Z</time>
      </trkpt>
      <trkpt lat="47.78103" lon="-3.60935">
        <ele>30</ele>
        <time>2018-07-18T09:58:57Z</time>
      </trkpt>
      <trkpt lat="47.78106" lon="-3.60935">
        <ele>30</ele>
        <time>2018-07-18T09:58:58Z</time>
      </trkpt>
      <trkpt lat="47.78108" lon="-3.60937">
        <ele>30</ele>
        <time>2018-07-18T09:58:59Z</time>
      </trkpt>
      <trkpt lat="47.78111" lon="-3.60938">
        <ele>31</ele>
        <time>2018-07-18T09:59:00Z</time>
      </trkpt>
      <trkpt lat="47.78113" lon="-3.60939">
        <ele>31</ele>
        <time>2018-07-18T09:59:01Z</time>
      </trkpt>
      <trkpt lat="47.78115" lon="-3.6094">
        <ele>31</ele>
        <time>2018-07-18T09:59:02Z</time>
      </trkpt>
      <trkpt lat="47.78118" lon="-3.60941">
        <ele>32</ele>
        <time>2018-07-18T09:59:03Z</time>
      </trkpt>
      <trkpt lat="47.78121" lon="-3.60942">
        <ele>32</ele>
        <time>2018-07-18T09:59:04Z</time>
      </trkpt>
      <trkpt lat="47.78124" lon="-3.60943">
        <ele>32</ele>
        <time>2018-07-18T09:59:05Z</time>
      </trkpt>
      <trkpt lat="47.78127" lon="-3.60944">
        <ele>33</ele>
        <time>2018-07-18T09:59:06Z</time>
      </trkpt>
      <trkpt lat="47.78131" lon="-3.60946">
        <ele>33</ele>
        <time>2018-07-18T09:59:07Z</time>
      </trkpt>
      <trkpt lat="47.78135" lon="-3.60947">
        <ele>33</ele>
        <time>2018-07-18T09:59:08Z</time>
      </trkpt>
      <trkpt lat="47.78139" lon="-3.60948">
        <ele>34</ele>
        <time>2018-07-18T09:59:09Z</time>
      </trkpt>
      <trkpt lat="47.78142" lon="-3.6095">
        <ele>34</ele>
        <time>2018-07-18T09:59:10Z</time>
      </trkpt>
      <trkpt lat="47.78146" lon="-3.60951">
        <ele>35</ele>
        <time>2018-07-18T09:59:11Z</time>
      </trkpt>
      <trkpt lat="47.78149" lon="-3.60952">
        <ele>35</ele>
        <time>2018-07-18T09:59:12Z</time>
      </trkpt>
      <trkpt lat="47.78152" lon="-3.60954">
        <ele>36</ele>
        <time>2018-07-18T09:59:13Z</time>
      </trkpt>
      <trkpt lat="47.78156" lon="-3.60955">
        <ele>36</ele>
        <time>2018-07-18T09:59:14Z</time>
      </trkpt>
      <trkpt lat="47.78159" lon="-3.60957">
        <ele>37</ele>
        <time>2018-07-18T09:59:15Z</time>
      </trkpt>
      <trkpt lat="47.78162" lon="-3.60958">
        <ele>37</ele>
        <time>2018-07-18T09:59:16Z</time>
      </trkpt>
      <trkpt lat="47.78166" lon="-3.60959">
        <ele>38</ele>
        <time>2018-07-18T09:59:17Z</time>
      </trkpt>
      <trkpt lat="47.78169" lon="-3.60961">
        <ele>38</ele>
        <time>2018-07-18T09:59:18Z</time>
      </trkpt>
      <trkpt lat="47.78173" lon="-3.60962">
        <ele>38</ele>
        <time>2018-07-18T09:59:19Z</time>
      </trkpt>
      <trkpt lat="47.78176" lon="-3.60963">
        <ele>39</ele>
        <time>2018-07-18T09:59:20Z</time>
      </trkpt>
      <trkpt lat="47.78179" lon="-3.60964">
        <ele>39</ele>
        <time>2018-07-18T09:59:21Z</time>
      </trkpt>
      <trkpt lat="47.78183" lon="-3.60966">
        <ele>39</ele>
        <time>2018-07-18T09:59:22Z</time>
      </trkpt>
      <trkpt lat="47.78186" lon="-3.60967">
        <ele>39</ele>
        <time>2018-07-18T09:59:23Z</time>
      </trkpt>
      <trkpt lat="47.78189" lon="-3.60969">
        <ele>40</ele>
        <time>2018-07-18T09:59:24Z</time>
      </trkpt>
      <trkpt lat="47.78193" lon="-3.6097">
        <ele>40</ele>
        <time>2018-07-18T09:59:25Z</time>
      </trkpt>
      <trkpt lat="47.78197" lon="-3.6097">
        <ele>40</ele>
        <time>2018-07-18T09:59:26Z</time>
      </trkpt>
      <trkpt lat="47.782" lon="-3.60971">
        <ele>40</ele>
        <time>2018-07-18T09:59:27Z</time>
      </trkpt>
      <trkpt lat="47.78204" lon="-3.60973">
        <ele>40</ele>
        <time>2018-07-18T09:59:28Z</time>
      </trkpt>
      <trkpt lat="47.78208" lon="-3.60974">
        <ele>41</ele>
        <time>2018-07-18T09:59:29Z</time>
      </trkpt>
      <trkpt lat="47.78211" lon="-3.60976">
        <ele>41</ele>
        <time>2018-07-18T09:59:30Z</time>
      </trkpt>
      <trkpt lat="47.78214" lon="-3.60978">
        <ele>41</ele>
        <time>2018-07-18T09:59:31Z</time>
      </trkpt>
      <trkpt lat="47.78218" lon="-3.60979">
        <ele>41</ele>
        <time>2018-07-18T09:59:32Z</time>
      </trkpt>
      <trkpt lat="47.78222" lon="-3.60981">
        <ele>41</ele>
        <time>2018-07-18T09:59:33Z</time>
      </trkpt>
      <trkpt lat="47.78225" lon="-3.60983">
        <ele>41</ele>
        <time>2018-07-18T09:59:34Z</time>
      </trkpt>
      <trkpt lat="47.78229" lon="-3.60984">
        <ele>41</ele>
        <time>2018-07-18T09:59:35Z</time>
      </trkpt>
      <trkpt lat="47.78233" lon="-3.60986">
        <ele>41</ele>
        <time>2018-07-18T09:59:36Z</time>
      </trkpt>
      <trkpt lat="47.78237" lon="-3.60988">
        <ele>41</ele>
        <time>2018-07-18T09:59:37Z</time>
      </trkpt>
      <trkpt lat="47.78241" lon="-3.6099">
        <ele>41</ele>
        <time>2018-07-18T09:59:38Z</time>
      </trkpt>
      <trkpt lat="47.78245" lon="-3.60992">
        <ele>41</ele>
        <time>2018-07-18T09:59:39Z</time>
      </trkpt>
      <trkpt lat="47.78249" lon="-3.60993">
        <ele>41</ele>
        <time>2018-07-18T09:59:40Z</time>
      </trkpt>
      <trkpt lat="47.78253" lon="-3.60994">
        <ele>41</ele>
        <time>2018-07-18T09:59:41Z</time>
      </trkpt>
      <trkpt lat="47.78257" lon="-3.60996">
        <ele>41</ele>
        <time>2018-07-18T09:59:42Z</time>
      </trkpt>
      <trkpt lat="47.78261" lon="-3.60997">
        <ele>41</ele>
        <time>2018-07-18T09:59:43Z</time>
      </trkpt>
      <trkpt lat="47.78265" lon="-3.60999">
        <ele>41</ele>
        <time>2018-07-18T09:59:44Z</time>
      </trkpt>
      <trkpt lat="47.78269" lon="-3.61001">
        <ele>41</ele>
        <time>2018-07-18T09:59:45Z</time>
      </trkpt>
      <trkpt lat="47.78272" lon="-3.61003">
        <ele>41</ele>
        <time>2018-07-18T09:59:46Z</time>
      </trkpt>
      <trkpt lat="47.78276" lon="-3.61005">
        <ele>41</ele>
        <time>2018-07-18T09:59:47Z</time>
      </trkpt>
      <trkpt lat="47.7828" lon="-3.61007">
        <ele>41</ele>
        <time>2018-07-18T09:59:48Z</time>
      </trkpt>
      <trkpt lat="47.78283" lon="-3.61009">
        <ele>41</ele>
        <time>2018-07-18T09:59:49Z</time>
      </trkpt>
      <trkpt lat="47.78286" lon="-3.6101">
        <ele>41</ele>
        <time>2018-07-18T09:59:50Z</time>
      </trkpt>
      <trkpt lat="47.78289" lon="-3.61012">
        <ele>41</ele>
        <time>2018-07-18T09:59:51Z</time>
      </trkpt>
      <trkpt lat="47.78293" lon="-3.61014">
        <ele>41</ele>
        <time>2018-07-18T09:59:52Z</time>
      </trkpt>
      <trkpt lat="47.78296" lon="-3.61016">
        <ele>41</ele>
        <time>2018-07-18T09:59:53Z</time>
      </trkpt>
      <trkpt lat="47.783" lon="-3.61017">
        <ele>41</ele>
        <time>2018-07-18T09:59:54Z</time>
      </trkpt>
      <trkpt lat="47.78303" lon="-3.61019">
        <ele>41</ele>
        <time>2018-07-18T09:59:55Z</time>
      </trkpt>
      <trkpt lat="47.78307" lon="-3.61021">
        <ele>41</ele>
        <time>2018-07-18T09:59:56Z</time>
      </trkpt>
      <trkpt lat="47.78311" lon="-3.61023">
        <ele>41</ele>
        <time>2018-07-18T09:59:57Z</time>
      </trkpt>
      <trkpt lat="47.78315" lon="-3.61025">
        <ele>41</ele>
        <time>2018-07-18T09:59:58Z</time>
      </trkpt>
      <trkpt lat="47.78318" lon="-3.61026">
        <ele>41</ele>
        <time>2018-07-18T09:59:59Z</time>
      </trkpt>
      <trkpt lat="47.78322" lon="-3.61028">
        <ele>41</ele>
        <time>2018-07-18T10:00:00Z</time>
      </trkpt>
      <trkpt lat="47.78326" lon="-3.6103">
        <ele>41</ele>
        <time>2018-07-18T10:00:01Z</time>
      </trkpt>
      <trkpt lat="47.78329" lon="-3.61032">
        <ele>41</ele>
        <time>2018-07-18T10:00:02Z</time>
      </trkpt>
      <trkpt lat="47.78333" lon="-3.61034">
        <ele>41</ele>
        <time>2018-07-18T10:00:03Z</time>
      </trkpt>
      <trkpt lat="47.78337" lon="-3.61036">
        <ele>42</ele>
        <time>2018-07-18T10:00:04Z</time>
      </trkpt>
      <trkpt lat="47.7834" lon="-3.61038">
        <ele>42</ele>
        <time>2018-07-18T10:00:05Z</time>
      </trkpt>
      <trkpt lat="47.78344" lon="-3.6104">
        <ele>42</ele>
        <time>2018-07-18T10:00:06Z</time>
      </trkpt>
      <trkpt lat="47.78348" lon="-3.61043">
        <ele>42</ele>
        <time>2018-07-18T10:00:07Z</time>
      </trkpt>
      <trkpt lat="47.78351" lon="-3.61045">
        <ele>42</ele>
        <time>2018-07-18T10:00:08Z</time>
      </trkpt>
      <trkpt lat="47.78355" lon="-3.61047">
        <ele>42</ele>
        <time>2018-07-18T10:00:09Z</time>
      </trkpt>
      <trkpt lat="47.78359" lon="-3.61049">
        <ele>42</ele>
        <time>2018-07-18T10:00:10Z</time>
      </trkpt>
      <trkpt lat="47.78363" lon="-3.61051">
        <ele>42</ele>
        <time>2018-07-18T10:00:11Z</time>
      </trkpt>
      <trkpt lat="47.78367" lon="-3.61053">
        <ele>42</ele>
        <time>2018-07-18T10:00:12Z</time>
      </trkpt>
      <trkpt lat="47.78371" lon="-3.61055">
        <ele>42</ele>
        <time>2018-07-18T10:00:13Z</time>
      </trkpt>
      <trkpt lat="47.78375" lon="-3.61058">
        <ele>42</ele>
        <time>2018-07-18T10:00:14Z</time>
      </trkpt>
      <trkpt lat="47.78379" lon="-3.61059">
        <ele>42</ele>
        <time>2018-07-18T10:00:15Z</time>
      </trkpt>
      <trkpt lat="47.78383" lon="-3.61062">
        <ele>42</ele>
        <time>2018-07-18T10:00:16Z</time>
      </trkpt>
      <trkpt lat="47.78387" lon="-3.61064">
        <ele>42</ele>
        <time>2018-07-18T10:00:17Z</time>
      </trkpt>
      <trkpt lat="47.78392" lon="-3.61065">
        <ele>42</ele>
        <time>2018-07-18T10:00:18Z</time>
      </trkpt>
      <trkpt lat="47.78396" lon="-3.61067">
        <ele>42</ele>
        <time>2018-07-18T10:00:19Z</time>
      </trkpt>
      <trkpt lat="47.784" lon="-3.61069">
        <ele>42</ele>
        <time>2018-07-18T10:00:20Z</time>
      </trkpt>
      <trkpt lat="47.78402" lon="-3.61071">
        <ele>42</ele>
        <time>2018-07-18T10:00:21Z</time>
      </trkpt>
      <trkpt lat="47.78404" lon="-3.61071">
        <ele>42</ele>
        <time>2018-07-18T10:00:22Z</time>
      </trkpt>
      <trkpt lat="47.78404" lon="-3.61071">
        <ele>42</ele>
        <time>2018-07-18T10:00:23Z</time>
      </trkpt>
      <trkpt lat="47.78405" lon="-3.61072">
        <ele>42</ele>
        <time>2018-07-18T10:00:24Z</time>
      </trkpt>
      <trkpt lat="47.78405" lon="-3.61072">
        <ele>42</ele>
        <time>2018-07-18T10:00:25Z</time>
      </trkpt>
      <trkpt lat="47.78405" lon="-3.61072">
        <ele>42</ele>
        <time>2018-07-18T10:00:26Z</time>
      </trkpt>
      <trkpt lat="47.78406" lon="-3.61072">
        <ele>42</ele>
        <time>2018-07-18T10:00:27Z</time>
      </trkpt>
      <trkpt lat="47.78408" lon="-3.61074">
        <ele>42</ele>
        <time>2018-07-18T10:00:28Z</time>
      </trkpt>
      <trkpt lat="47.7841" lon="-3.61075">
        <ele>42</ele>
        <time>2018-07-18T10:00:29Z</time>
      </trkpt>
      <trkpt lat="47.78413" lon="-3.61077">
        <ele>42</ele>
        <time>2018-07-18T10:00:30Z</time>
      </trkpt>
      <trkpt lat="47.78416" lon="-3.61079">
        <ele>42</ele>
        <time>2018-07-18T10:00:31Z</time>
      </trkpt>
      <trkpt lat="47.78419" lon="-3.61082">
        <ele>42</ele>
        <time>2018-07-18T10:00:32Z</time>
      </trkpt>
      <trkpt lat="47.78422" lon="-3.61084">
        <ele>42</ele>
        <time>2018-07-18T10:00:33Z</time>
      </trkpt>
      <trkpt lat="47.78426" lon="-3.61087">
        <ele>42</ele>
        <time>2018-07-18T10:00:34Z</time>
      </trkpt>
      <trkpt lat="47.78429" lon="-3.61089">
        <ele>42</ele>
        <time>2018-07-18T10:00:35Z</time>
      </trkpt>
      <trkpt lat="47.78432" lon="-3.61091">
        <ele>42</ele>
        <time>2018-07-18T10:00:36Z</time>
      </trkpt>
      <trkpt lat="47.78436" lon="-3.61092">
        <ele>42</ele>
        <time>2018-07-18T10:00:37Z</time>
      </trkpt>
      <trkpt lat="47.78441" lon="-3.61091">
        <ele>42</ele>
        <time>2018-07-18T10:00:38Z</time>
      </trkpt>
      <trkpt lat="47.78445" lon="-3.61091">
        <ele>42</ele>
        <time>2018-07-18T10:00:39Z</time>
      </trkpt>
      <trkpt lat="47.78449" lon="-3.6109">
        <ele>42</ele>
        <time>2018-07-18T10:00:40Z</time>
      </trkpt>
      <trkpt lat="47.78453" lon="-3.61089">
        <ele>42</ele>
        <time>2018-07-18T10:00:41Z</time>
      </trkpt>
      <trkpt lat="47.78457" lon="-3.61089">
        <ele>42</ele>
        <time>2018-07-18T10:00:42Z</time>
      </trkpt>
      <trkpt lat="47.78462" lon="-3.61087">
        <ele>42</ele>
        <time>2018-07-18T10:00:43Z</time>
      </trkpt>
      <trkpt lat="47.78465" lon="-3.61086">
        <ele>42</ele>
        <time>2018-07-18T10:00:44Z</time>
      </trkpt>
      <trkpt lat="47.7847" lon="-3.61087">
        <ele>42</ele>
        <time>2018-07-18T10:00:45Z</time>
      </trkpt>
      <trkpt lat="47.78474" lon="-3.61086">
        <ele>42</ele>
        <time>2018-07-18T10:00:46Z</time>
      </trkpt>
      <trkpt lat="47.78478" lon="-3.61086">
        <ele>42</ele>
        <time>2018-07-18T10:00:47Z</time>
      </trkpt>
      <trkpt lat="47.78482" lon="-3.61085">
        <ele>43</ele>
        <time>2018-07-18T10:00:48Z</time>
      </trkpt>
      <trkpt lat="47.78486" lon="-3.61085">
        <ele>42</ele>
        <time>2018-07-18T10:00:49Z</time>
      </trkpt>
      <trkpt lat="47.78491" lon="-3.61084">
        <ele>42</ele>
        <time>2018-07-18T10:00:50Z</time>
      </trkpt>
      <trkpt lat="47.78496" lon="-3.61084">
        <ele>42</ele>
        <time>2018-07-18T10:00:51Z</time>
      </trkpt>
      <trkpt lat="47.78501" lon="-3.61082">
        <ele>42</ele>
        <time>2018-07-18T10:00:52Z</time>
      </trkpt>
      <trkpt lat="47.78505" lon="-3.61082">
        <ele>42</ele>
        <time>2018-07-18T10:00:53Z</time>
      </trkpt>
      <trkpt lat="47.78511" lon="-3.61081">
        <ele>42</ele>
        <time>2018-07-18T10:00:54Z</time>
      </trkpt>
      <trkpt lat="47.78516" lon="-3.6108">
        <ele>42</ele>
        <time>2018-07-18T10:00:55Z</time>
      </trkpt>
      <trkpt lat="47.78521" lon="-3.61079">
        <ele>42</ele>
        <time>2018-07-18T10:00:56Z</time>
      </trkpt>
      <trkpt lat="47.78526" lon="-3.61077">
        <ele>42</ele>
        <time>2018-07-18T10:00:57Z</time>
      </trkpt>
      <trkpt lat="47.78531" lon="-3.61076">
        <ele>42</ele>
        <time>2018-07-18T10:00:58Z</time>
      </trkpt>
      <trkpt lat="47.78537" lon="-3.61074">
        <ele>41</ele>
        <time>2018-07-18T10:00:59Z</time>
      </trkpt>
      <trkpt lat="47.78542" lon="-3.61072">
        <ele>41</ele>
        <time>2018-07-18T10:01:00Z</time>
      </trkpt>
      <trkpt lat="47.78548" lon="-3.6107">
        <ele>41</ele>
        <time>2018-07-18T10:01:01Z</time>
      </trkpt>
      <trkpt lat="47.78553" lon="-3.61068">
        <ele>41</ele>
        <time>2018-07-18T10:01:02Z</time>
      </trkpt>
      <trkpt lat="47.78559" lon="-3.61066">
        <ele>41</ele>
        <time>2018-07-18T10:01:03Z</time>
      </trkpt>
      <trkpt lat="47.78565" lon="-3.61064">
        <ele>40</ele>
        <time>2018-07-18T10:01:04Z</time>
      </trkpt>
      <trkpt lat="47.78571" lon="-3.61061">
        <ele>40</ele>
        <time>2018-07-18T10:01:05Z</time>
      </trkpt>
      <trkpt lat="47.78577" lon="-3.61059">
        <ele>40</ele>
        <time>2018-07-18T10:01:06Z</time>
      </trkpt>
      <trkpt lat="47.78583" lon="-3.61056">
        <ele>40</ele>
        <time>2018-07-18T10:01:07Z</time>
      </trkpt>
      <trkpt lat="47.78589" lon="-3.61054">
        <ele>39</ele>
        <time>2018-07-18T10:01:08Z</time>
      </trkpt>
      <trkpt lat="47.78595" lon="-3.61052">
        <ele>39</ele>
        <time>2018-07-18T10:01:09Z</time>
      </trkpt>
      <trkpt lat="47.78601" lon="-3.6105">
        <ele>39</ele>
        <time>2018-07-18T10:01:10Z</time>
      </trkpt>
      <trkpt lat="47.78608" lon="-3.61048">
        <ele>39</ele>
        <time>2018-07-18T10:01:11Z</time>
      </trkpt>
      <trkpt lat="47.78614" lon="-3.61046">
        <ele>39</ele>
        <time>2018-07-18T10:01:12Z</time>
      </trkpt>
      <trkpt lat="47.7862" lon="-3.61043">
        <ele>38</ele>
        <time>2018-07-18T10:01:13Z</time>
      </trkpt>
      <trkpt lat="47.78626" lon="-3.61041">
        <ele>38</ele>
        <time>2018-07-18T10:01:14Z</time>
      </trkpt>
      <trkpt lat="47.78632" lon="-3.61038">
        <ele>38</ele>
        <time>2018-07-18T10:01:15Z</time>
      </trkpt>
      <trkpt lat="47.78639" lon="-3.61035">
        <ele>38</ele>
        <time>2018-07-18T10:01:16Z</time>
      </trkpt>
      <trkpt lat="47.78645" lon="-3.61032">
        <ele>38</ele>
        <time>2018-07-18T10:01:17Z</time>
      </trkpt>
      <trkpt lat="47.78651" lon="-3.61029">
        <ele>38</ele>
        <time>2018-07-18T10:01:18Z</time>
      </trkpt>
      <trkpt lat="47.78657" lon="-3.61026">
        <ele>37</ele>
        <time>2018-07-18T10:01:19Z</time>
      </trkpt>
      <trkpt lat="47.78664" lon="-3.61022">
        <ele>37</ele>
        <time>2018-07-18T10:01:20Z</time>
      </trkpt>
      <trkpt lat="47.78669" lon="-3.61018">
        <ele>37</ele>
        <time>2018-07-18T10:01:21Z</time>
      </trkpt>
      <trkpt lat="47.78676" lon="-3.61015">
        <ele>37</ele>
        <time>2018-07-18T10:01:22Z</time>
      </trkpt>
      <trkpt lat="47.78682" lon="-3.61011">
        <ele>37</ele>
        <time>2018-07-18T10:01:23Z</time>
      </trkpt>
      <trkpt lat="47.78688" lon="-3.61007">
        <ele>37</ele>
        <time>2018-07-18T10:01:24Z</time>
      </trkpt>
      <trkpt lat="47.78693" lon="-3.61004">
        <ele>37</ele>
        <time>2018-07-18T10:01:25Z</time>
      </trkpt>
      <trkpt lat="47.78699" lon="-3.61">
        <ele>37</ele>
        <time>2018-07-18T10:01:26Z</time>
      </trkpt>
      <trkpt lat="47.78703" lon="-3.60997">
        <ele>37</ele>
        <time>2018-07-18T10:01:27Z</time>
      </trkpt>
      <trkpt lat="47.78706" lon="-3.60995">
        <ele>37</ele>
        <time>2018-07-18T10:01:28Z</time>
      </trkpt>
      <trkpt lat="47.78708" lon="-3.60994">
        <ele>37</ele>
        <time>2018-07-18T10:01:29Z</time>
      </trkpt>
      <trkpt lat="47.7871" lon="-3.60993">
        <ele>37</ele>
        <time>2018-07-18T10:01:30Z</time>
      </trkpt>
      <trkpt lat="47.78711" lon="-3.60991">
        <ele>37</ele>
        <time>2018-07-18T10:01:31Z</time>
      </trkpt>
      <trkpt lat="47.78712" lon="-3.6099">
        <ele>37</ele>
        <time>2018-07-18T10:01:32Z</time>
      </trkpt>
      <trkpt lat="47.78714" lon="-3.60989">
        <ele>37</ele>
        <time>2018-07-18T10:01:33Z</time>
      </trkpt>
      <trkpt lat="47.78715" lon="-3.60989">
        <ele>37</ele>
        <time>2018-07-18T10:01:34Z</time>
      </trkpt>
      <trkpt lat="47.78716" lon="-3.60991">
        <ele>37</ele>
        <time>2018-07-18T10:01:35Z</time>
      </trkpt>
      <trkpt lat="47.78716" lon="-3.60994">
        <ele>37</ele>
        <time>2018-07-18T10:01:36Z</time>
      </trkpt>
      <trkpt lat="47.78714" lon="-3.60996">
        <ele>37</ele>
        <time>2018-07-18T10:01:37Z</time>
      </trkpt>
      <trkpt lat="47.78712" lon="-3.60999">
        <ele>37</ele>
        <time>2018-07-18T10:01:38Z</time>
      </trkpt>
      <trkpt lat="47.78712" lon="-3.61004">
        <ele>37</ele>
        <time>2018-07-18T10:01:39Z</time>
      </trkpt>
      <trkpt lat="47.78712" lon="-3.61008">
        <ele>37</ele>
        <time>2018-07-18T10:01:40Z</time>
      </trkpt>
      <trkpt lat="47.78713" lon="-3.61012">
        <ele>37</ele>
        <time>2018-07-18T10:01:41Z</time>
      </trkpt>
      <trkpt lat="47.78714" lon="-3.61017">
        <ele>37</ele>
        <time>2018-07-18T10:01:42Z</time>
      </trkpt>
      <trkpt lat="47.78714" lon="-3.61022">
        <ele>37</ele>
        <time>2018-07-18T10:01:43Z</time>
      </trkpt>
      <trkpt lat="47.78715" lon="-3.61026">
        <ele>37</ele>
        <time>2018-07-18T10:01:44Z</time>
      </trkpt>
      <trkpt lat="47.78715" lon="-3.61031">
        <ele>37</ele>
        <time>2018-07-18T10:01:45Z</time>
      </trkpt>
      <trkpt lat="47.78716" lon="-3.61035">
        <ele>37</ele>
        <time>2018-07-18T10:01:46Z</time>
      </trkpt>
      <trkpt lat="47.78716" lon="-3.61039">
        <ele>37</ele>
        <time>2018-07-18T10:01:47Z</time>
      </trkpt>
      <trkpt lat="47.78717" lon="-3.61043">
        <ele>37</ele>
        <time>2018-07-18T10:01:48Z</time>
      </trkpt>
      <trkpt lat="47.78717" lon="-3.61048">
        <ele>37</ele>
        <time>2018-07-18T10:01:49Z</time>
      </trkpt>
      <trkpt lat="47.78718" lon="-3.61053">
        <ele>37</ele>
        <time>2018-07-18T10:01:50Z</time>
      </trkpt>
      <trkpt lat="47.78718" lon="-3.61059">
        <ele>37</ele>
        <time>2018-07-18T10:01:51Z</time>
      </trkpt>
      <trkpt lat="47.78719" lon="-3.61065">
        <ele>37</ele>
        <time>2018-07-18T10:01:52Z</time>
      </trkpt>
      <trkpt lat="47.78719" lon="-3.61071">
        <ele>37</ele>
        <time>2018-07-18T10:01:53Z</time>
      </trkpt>
      <trkpt lat="47.7872" lon="-3.61078">
        <ele>37</ele>
        <time>2018-07-18T10:01:54Z</time>
      </trkpt>
      <trkpt lat="47.7872" lon="-3.61085">
        <ele>37</ele>
        <time>2018-07-18T10:01:55Z</time>
      </trkpt>
      <trkpt lat="47.78721" lon="-3.61092">
        <ele>37</ele>
        <time>2018-07-18T10:01:56Z</time>
      </trkpt>
      <trkpt lat="47.78721" lon="-3.61099">
        <ele>37</ele>
        <time>2018-07-18T10:01:57Z</time>
      </trkpt>
      <trkpt lat="47.78722" lon="-3.61107">
        <ele>37</ele>
        <time>2018-07-18T10:01:58Z</time>
      </trkpt>
      <trkpt lat="47.78723" lon="-3.61114">
        <ele>37</ele>
        <time>2018-07-18T10:01:59Z</time>
      </trkpt>
      <trkpt lat="47.78724" lon="-3.61122">
        <ele>36</ele>
        <time>2018-07-18T10:02:00Z</time>
      </trkpt>
      <trkpt lat="47.78724" lon="-3.6113">
        <ele>36</ele>
        <time>2018-07-18T10:02:01Z</time>
      </trkpt>
      <trkpt lat="47.78725" lon="-3.61137">
        <ele>36</ele>
        <time>2018-07-18T10:02:02Z</time>
      </trkpt>
      <trkpt lat="47.78725" lon="-3.61145">
        <ele>36</ele>
        <time>2018-07-18T10:02:03Z</time>
      </trkpt>
      <trkpt lat="47.78726" lon="-3.61153">
        <ele>36</ele>
        <time>2018-07-18T10:02:04Z</time>
      </trkpt>
      <trkpt lat="47.78726" lon="-3.61161">
        <ele>36</ele>
        <time>2018-07-18T10:02:05Z</time>
      </trkpt>
      <trkpt lat="47.78727" lon="-3.61169">
        <ele>35</ele>
        <time>2018-07-18T10:02:06Z</time>
      </trkpt>
      <trkpt lat="47.78727" lon="-3.61177">
        <ele>35</ele>
        <time>2018-07-18T10:02:07Z</time>
      </trkpt>
      <trkpt lat="47.78728" lon="-3.61186">
        <ele>35</ele>
        <time>2018-07-18T10:02:08Z</time>
      </trkpt>
      <trkpt lat="47.78728" lon="-3.61195">
        <ele>35</ele>
        <time>2018-07-18T10:02:09Z</time>
      </trkpt>
      <trkpt lat="47.78729" lon="-3.61204">
        <ele>35</ele>
        <time>2018-07-18T10:02:10Z</time>
      </trkpt>
      <trkpt lat="47.7873" lon="-3.61213">
        <ele>34</ele>
        <time>2018-07-18T10:02:11Z</time>
      </trkpt>
      <trkpt lat="47.7873" lon="-3.61222">
        <ele>34</ele>
        <time>2018-07-18T10:02:12Z</time>
      </trkpt>
      <trkpt lat="47.78731" lon="-3.61232">
        <ele>34</ele>
        <time>2018-07-18T10:02:13Z</time>
      </trkpt>
      <trkpt lat="47.78731" lon="-3.61241">
        <ele>34</ele>
        <time>2018-07-18T10:02:14Z</time>
      </trkpt>
      <trkpt lat="47.78732" lon="-3.6125">
        <ele>34</ele>
        <time>2018-07-18T10:02:15Z</time>
      </trkpt>
      <trkpt lat="47.78733" lon="-3.61259">
        <ele>33</ele>
        <time>2018-07-18T10:02:16Z</time>
      </trkpt>
      <trkpt lat="47.78733" lon="-3.61267">
        <ele>33</ele>
        <time>2018-07-18T10:02:17Z</time>
      </trkpt>
      <trkpt lat="47.78734" lon="-3.61275">
        <ele>33</ele>
        <time>2018-07-18T10:02:18Z</time>
      </trkpt>
      <trkpt lat="47.78734" lon="-3.61284">
        <ele>33</ele>
        <time>2018-07-18T10:02:19Z</time>
      </trkpt>
      <trkpt lat="47.78734" lon="-3.61292">
        <ele>33</ele>
        <time>2018-07-18T10:02:20Z</time>
      </trkpt>
      <trkpt lat="47.78735" lon="-3.61299">
        <ele>33</ele>
        <time>2018-07-18T10:02:21Z</time>
      </trkpt>
      <trkpt lat="47.78735" lon="-3.61307">
        <ele>33</ele>
        <time>2018-07-18T10:02:22Z</time>
      </trkpt>
      <trkpt lat="47.78736" lon="-3.61314">
        <ele>33</ele>
        <time>2018-07-18T10:02:23Z</time>
      </trkpt>
      <trkpt lat="47.78737" lon="-3.61322">
        <ele>33</ele>
        <time>2018-07-18T10:02:24Z</time>
      </trkpt>
      <trkpt lat="47.78738" lon="-3.61329">
        <ele>33</ele>
        <time>2018-07-18T10:02:25Z</time>
      </trkpt>
      <trkpt lat="47.78739" lon="-3.61336">
        <ele>33</ele>
        <time>2018-07-18T10:02:26Z</time>
      </trkpt>
      <trkpt lat="47.7874" lon="-3.61343">
        <ele>33</ele>
        <time>2018-07-18T10:02:27Z</time>
      </trkpt>
      <trkpt lat="47.7874" lon="-3.61349">
        <ele>33</ele>
        <time>2018-07-18T10:02:28Z</time>
      </trkpt>
      <trkpt lat="47.78741" lon="-3.61356">
        <ele>33</ele>
        <time>2018-07-18T10:02:29Z</time>
      </trkpt>
      <trkpt lat="47.78741" lon="-3.61362">
        <ele>33</ele>
        <time>2018-07-18T10:02:30Z</time>
      </trkpt>
      <trkpt lat="47.78742" lon="-3.61369">
        <ele>33</ele>
        <time>2018-07-18T10:02:31Z</time>
      </trkpt>
      <trkpt lat="47.78743" lon="-3.61375">
        <ele>33</ele>
        <time>2018-07-18T10:02:32Z</time>
      </trkpt>
      <trkpt lat="47.78744" lon="-3.6138">
        <ele>33</ele>
        <time>2018-07-18T10:02:33Z</time>
      </trkpt>
      <trkpt lat="47.78744" lon="-3.61387">
        <ele>32</ele>
        <time>2018-07-18T10:02:34Z</time>
      </trkpt>
      <trkpt lat="47.78745" lon="-3.61393">
        <ele>32</ele>
        <time>2018-07-18T10:02:35Z</time>
      </trkpt>
      <trkpt lat="47.78746" lon="-3.614">
        <ele>32</ele>
        <time>2018-07-18T10:02:36Z</time>
      </trkpt>
      <trkpt lat="47.78747" lon="-3.61407">
        <ele>32</ele>
        <time>2018-07-18T10:02:37Z</time>
      </trkpt>
      <trkpt lat="47.78748" lon="-3.61413">
        <ele>32</ele>
        <time>2018-07-18T10:02:38Z</time>
      </trkpt>
      <trkpt lat="47.7875" lon="-3.61419">
        <ele>32</ele>
        <time>2018-07-18T10:02:39Z</time>
      </trkpt>
      <trkpt lat="47.78753" lon="-3.61423">
        <ele>32</ele>
        <time>2018-07-18T10:02:40Z</time>
      </trkpt>
      <trkpt lat="47.78757" lon="-3.61425">
        <ele>32</ele>
        <time>2018-07-18T10:02:41Z</time>
      </trkpt>
      <trkpt lat="47.7876" lon="-3.61427">
        <ele>32</ele>
        <time>2018-07-18T10:02:42Z</time>
      </trkpt>
      <trkpt lat="47.78764" lon="-3.6143">
        <ele>32</ele>
        <time>2018-07-18T10:02:43Z</time>
      </trkpt>
      <trkpt lat="47.78767" lon="-3.61432">
        <ele>32</ele>
        <time>2018-07-18T10:02:44Z</time>
      </trkpt>
      <trkpt lat="47.78771" lon="-3.61434">
        <ele>31</ele>
        <time>2018-07-18T10:02:45Z</time>
      </trkpt>
      <trkpt lat="47.78775" lon="-3.61434">
        <ele>31</ele>
        <time>2018-07-18T10:02:46Z</time>
      </trkpt>
      <trkpt lat="47.78779" lon="-3.61435">
        <ele>31</ele>
        <time>2018-07-18T10:02:47Z</time>
      </trkpt>
      <trkpt lat="47.78783" lon="-3.61435">
        <ele>31</ele>
        <time>2018-07-18T10:02:48Z</time>
      </trkpt>
      <trkpt lat="47.78786" lon="-3.61436">
        <ele>31</ele>
        <time>2018-07-18T10:02:49Z</time>
      </trkpt>
      <trkpt lat="47.78789" lon="-3.61437">
        <ele>31</ele>
        <time>2018-07-18T10:02:50Z</time>
      </trkpt>
      <trkpt lat="47.78793" lon="-3.61438">
        <ele>31</ele>
        <time>2018-07-18T10:02:51Z</time>
      </trkpt>
      <trkpt lat="47.78796" lon="-3.61439">
        <ele>31</ele>
        <time>2018-07-18T10:02:52Z</time>
      </trkpt>
      <trkpt lat="47.78799" lon="-3.6144">
        <ele>31</ele>
        <time>2018-07-18T10:02:53Z</time>
      </trkpt>
      <trkpt lat="47.78802" lon="-3.61442">
        <ele>31</ele>
        <time>2018-07-18T10:02:54Z</time>
      </trkpt>
      <trkpt lat="47.78806" lon="-3.61442">
        <ele>31</ele>
        <time>2018-07-18T10:02:55Z</time>
      </trkpt>
      <trkpt lat="47.78809" lon="-3.61442">
        <ele>31</ele>
        <time>2018-07-18T10:02:56Z</time>
      </trkpt>
      <trkpt lat="47.78812" lon="-3.61442">
        <ele>31</ele>
        <time>2018-07-18T10:02:57Z</time>
      </trkpt>
      <trkpt lat="47.78815" lon="-3.61443">
        <ele>31</ele>
        <time>2018-07-18T10:02:58Z</time>
      </trkpt>
      <trkpt lat="47.78819" lon="-3.61444">
        <ele>31</ele>
        <time>2018-07-18T10:02:59Z</time>
      </trkpt>
      <trkpt lat="47.78822" lon="-3.61446">
        <ele>31</ele>
        <time>2018-07-18T10:03:00Z</time>
      </trkpt>
      <trkpt lat="47.78826" lon="-3.61447">
        <ele>31</ele>
        <time>2018-07-18T10:03:01Z</time>
      </trkpt>
      <trkpt lat="47.7883" lon="-3.61449">
        <ele>31</ele>
        <time>2018-07-18T10:03:02Z</time>
      </trkpt>
      <trkpt lat="47.78834" lon="-3.6145">
        <ele>31</ele>
        <time>2018-07-18T10:03:03Z</time>
      </trkpt>
      <trkpt lat="47.78837" lon="-3.61452">
        <ele>31</ele>
        <time>2018-07-18T10:03:04Z</time>
      </trkpt>
      <trkpt lat="47.78841" lon="-3.61453">
        <ele>31</ele>
        <time>2018-07-18T10:03:05Z</time>
      </trkpt>
      <trkpt lat="47.78845" lon="-3.61454">
        <ele>31</ele>
        <time>2018-07-18T10:03:06Z</time>
      </trkpt>
      <trkpt lat="47.78848" lon="-3.61456">
        <ele>31</ele>
        <time>2018-07-18T10:03:07Z</time>
      </trkpt>
      <trkpt lat="47.78852" lon="-3.61457">
        <ele>31</ele>
        <time>2018-07-18T10:03:08Z</time>
      </trkpt>
      <trkpt lat="47.78856" lon="-3.61458">
        <ele>31</ele>
        <time>2018-07-18T10:03:09Z</time>
      </trkpt>
      <trkpt lat="47.78859" lon="-3.61459">
        <ele>31</ele>
        <time>2018-07-18T10:03:10Z</time>
      </trkpt>
      <trkpt lat="47.78863" lon="-3.61459">
        <ele>31</ele>
        <time>2018-07-18T10:03:11Z</time>
      </trkpt>
      <trkpt lat="47.78867" lon="-3.61458">
        <ele>31</ele>
        <time>2018-07-18T10:03:12Z</time>
      </trkpt>
      <trkpt lat="47.78871" lon="-3.61457">
        <ele>32</ele>
        <time>2018-07-18T10:03:13Z</time>
      </trkpt>
      <trkpt lat="47.78875" lon="-3.61456">
        <ele>32</ele>
        <time>2018-07-18T10:03:14Z</time>
      </trkpt>
      <trkpt lat="47.78879" lon="-3.61456">
        <ele>31</ele>
        <time>2018-07-18T10:03:15Z</time>
      </trkpt>
      <trkpt lat="47.78883" lon="-3.61456">
        <ele>31</ele>
        <time>2018-07-18T10:03:16Z</time>
      </trkpt>
      <trkpt lat="47.78887" lon="-3.61455">
        <ele>31</ele>
        <time>2018-07-18T10:03:17Z</time>
      </trkpt>
      <trkpt lat="47.78892" lon="-3.61455">
        <ele>31</ele>
        <time>2018-07-18T10:03:18Z</time>
      </trkpt>
      <trkpt lat="47.78896" lon="-3.61454">
        <ele>31</ele>
        <time>2018-07-18T10:03:19Z</time>
      </trkpt>
      <trkpt lat="47.789" lon="-3.61453">
        <ele>31</ele>
        <time>2018-07-18T10:03:20Z</time>
      </trkpt>
      <trkpt lat="47.78905" lon="-3.61453">
        <ele>31</ele>
        <time>2018-07-18T10:03:21Z</time>
      </trkpt>
      <trkpt lat="47.78908" lon="-3.61453">
        <ele>31</ele>
        <time>2018-07-18T10:03:22Z</time>
      </trkpt>
      <trkpt lat="47.78913" lon="-3.61451">
        <ele>31</ele>
        <time>2018-07-18T10:03:23Z</time>
      </trkpt>
      <trkpt lat="47.78917" lon="-3.6145">
        <ele>32</ele>
        <time>2018-07-18T10:03:24Z</time>
      </trkpt>
      <trkpt lat="47.78922" lon="-3.61448">
        <ele>32</ele>
        <time>2018-07-18T10:03:25Z</time>
      </trkpt>
      <trkpt lat="47.78927" lon="-3.61445">
        <ele>32</ele>
        <time>2018-07-18T10:03:26Z</time>
      </trkpt>
      <trkpt lat="47.78932" lon="-3.61443">
        <ele>32</ele>
        <time>2018-07-18T10:03:27Z</time>
      </trkpt>
      <trkpt lat="47.78937" lon="-3.6144">
        <ele>32</ele>
        <time>2018-07-18T10:03:28Z</time>
      </trkpt>
      <trkpt lat="47.78942" lon="-3.61437">
        <ele>32</ele>
        <time>2018-07-18T10:03:29Z</time>
      </trkpt>
      <trkpt lat="47.78947" lon="-3.61434">
        <ele>32</ele>
        <time>2018-07-18T10:03:30Z</time>
      </trkpt>
      <trkpt lat="47.78952" lon="-3.61432">
        <ele>32</ele>
        <time>2018-07-18T10:03:31Z</time>
      </trkpt>
      <trkpt lat="47.78956" lon="-3.6143">
        <ele>32</ele>
        <time>2018-07-18T10:03:32Z</time>
      </trkpt>
      <trkpt lat="47.78961" lon="-3.61427">
        <ele>32</ele>
        <time>2018-07-18T10:03:33Z</time>
      </trkpt>
      <trkpt lat="47.78965" lon="-3.61425">
        <ele>32</ele>
        <time>2018-07-18T10:03:34Z</time>
      </trkpt>
      <trkpt lat="47.7897" lon="-3.61423">
        <ele>32</ele>
        <time>2018-07-18T10:03:35Z</time>
      </trkpt>
      <trkpt lat="47.78974" lon="-3.6142">
        <ele>32</ele>
        <time>2018-07-18T10:03:36Z</time>
      </trkpt>
      <trkpt lat="47.78977" lon="-3.61419">
        <ele>32</ele>
        <time>2018-07-18T10:03:37Z</time>
      </trkpt>
      <trkpt lat="47.7898" lon="-3.61417">
        <ele>32</ele>
        <time>2018-07-18T10:03:38Z</time>
      </trkpt>
      <trkpt lat="47.78983" lon="-3.61415">
        <ele>32</ele>
        <time>2018-07-18T10:03:39Z</time>
      </trkpt>
      <trkpt lat="47.78986" lon="-3.61413">
        <ele>32</ele>
        <time>2018-07-18T10:03:40Z</time>
      </trkpt>
      <trkpt lat="47.78989" lon="-3.61413">
        <ele>32</ele>
        <time>2018-07-18T10:03:41Z</time>
      </trkpt>
      <trkpt lat="47.78993" lon="-3.61413">
        <ele>32</ele>
        <time>2018-07-18T10:03:42Z</time>
      </trkpt>
      <trkpt lat="47.78996" lon="-3.61414">
        <ele>32</ele>
        <time>2018-07-18T10:03:43Z</time>
      </trkpt>
      <trkpt lat="47.78997" lon="-3.61416">
        <ele>32</ele>
        <time>2018-07-18T10:03:44Z</time>
      </trkpt>
      <trkpt lat="47.78998" lon="-3.61417">
        <ele>32</ele>
        <time>2018-07-18T10:03:45Z</time>
      </trkpt>
      <trkpt lat="47.79" lon="-3.61419">
        <ele>32</ele>
        <time>2018-07-18T10:03:46Z</time>
      </trkpt>
      <trkpt lat="47.79001" lon="-3.61422">
        <ele>32</ele>
        <time>2018-07-18T10:03:47Z</time>
      </trkpt>
      <trkpt lat="47.79003" lon="-3.61426">
        <ele>33</ele>
        <time>2018-07-18T10:03:48Z</time>
      </trkpt>
      <trkpt lat="47.79006" lon="-3.6143">
        <ele>33</ele>
        <time>2018-07-18T10:03:49Z</time>
      </trkpt>
      <trkpt lat="47.79007" lon="-3.61435">
        <ele>33</ele>
        <time>2018-07-18T10:03:50Z</time>
      </trkpt>
      <trkpt lat="47.79009" lon="-3.61439">
        <ele>33</ele>
        <time>2018-07-18T10:03:51Z</time>
      </trkpt>
      <trkpt lat="47.7901" lon="-3.61443">
        <ele>33</ele>
        <time>2018-07-18T10:03:52Z</time>
      </trkpt>
      <trkpt lat="47.7901" lon="-3.61446">
        <ele>34</ele>
        <time>2018-07-18T10:03:53Z</time>
      </trkpt>
      <trkpt lat="47.79011" lon="-3.61452">
        <ele>34</ele>
        <time>2018-07-18T10:03:54Z</time>
      </trkpt>
      <trkpt lat="47.79013" lon="-3.61458">
        <ele>34</ele>
        <time>2018-07-18T10:03:55Z</time>
      </trkpt>
      <trkpt lat="47.79014" lon="-3.61465">
        <ele>34</ele>
        <time>2018-07-18T10:03:56Z</time>
      </trkpt>
      <trkpt lat="47.79016" lon="-3.61471">
        <ele>34</ele>
        <time>2018-07-18T10:03:57Z</time>
      </trkpt>
      <trkpt lat="47.79017" lon="-3.61477">
        <ele>34</ele>
        <time>2018-07-18T10:03:58Z</time>
      </trkpt>
      <trkpt lat="47.79019" lon="-3.61484">
        <ele>34</ele>
        <time>2018-07-18T10:03:59Z</time>
      </trkpt>
      <trkpt lat="47.7902" lon="-3.61492">
        <ele>34</ele>
        <time>2018-07-18T10:04:00Z</time>
      </trkpt>
      <trkpt lat="47.79021" lon="-3.61499">
        <ele>34</ele>
        <time>2018-07-18T10:04:01Z</time>
      </trkpt>
      <trkpt lat="47.79022" lon="-3.61506">
        <ele>34</ele>
        <time>2018-07-18T10:04:02Z</time>
      </trkpt>
      <trkpt lat="47.79023" lon="-3.61514">
        <ele>34</ele>
        <time>2018-07-18T10:04:03Z</time>
      </trkpt>
      <trkpt lat="47.79023" lon="-3.61522">
        <ele>34</ele>
        <time>2018-07-18T10:04:04Z</time>
      </trkpt>
      <trkpt lat="47.79024" lon="-3.61529">
        <ele>34</ele>
        <time>2018-07-18T10:04:05Z</time>
      </trkpt>
      <trkpt lat="47.79025" lon="-3.61537">
        <ele>34</ele>
        <time>2018-07-18T10:04:06Z</time>
      </trkpt>
      <trkpt lat="47.79025" lon="-3.61545">
        <ele>34</ele>
        <time>2018-07-18T10:04:07Z</time>
      </trkpt>
      <trkpt lat="47.79026" lon="-3.61552">
        <ele>34</ele>
        <time>2018-07-18T10:04:08Z</time>
      </trkpt>
      <trkpt lat="47.79026" lon="-3.6156">
        <ele>34</ele>
        <time>2018-07-18T10:04:09Z</time>
      </trkpt>
      <trkpt lat="47.79026" lon="-3.61568">
        <ele>34</ele>
        <time>2018-07-18T10:04:10Z</time>
      </trkpt>
      <trkpt lat="47.79026" lon="-3.61576">
        <ele>35</ele>
        <time>2018-07-18T10:04:11Z</time>
      </trkpt>
      <trkpt lat="47.79027" lon="-3.61584">
        <ele>35</ele>
        <time>2018-07-18T10:04:12Z</time>
      </trkpt>
      <trkpt lat="47.79028" lon="-3.61591">
        <ele>35</ele>
        <time>2018-07-18T10:04:13Z</time>
      </trkpt>
      <trkpt lat="47.79028" lon="-3.61598">
        <ele>35</ele>
        <time>2018-07-18T10:04:14Z</time>
      </trkpt>
      <trkpt lat="47.79029" lon="-3.61604">
        <ele>35</ele>
        <time>2018-07-18T10:04:15Z</time>
      </trkpt>
      <trkpt lat="47.7903" lon="-3.6161">
        <ele>35</ele>
        <time>2018-07-18T10:04:16Z</time>
      </trkpt>
      <trkpt lat="47.7903" lon="-3.61617">
        <ele>35</ele>
        <time>2018-07-18T10:04:17Z</time>
      </trkpt>
      <trkpt lat="47.79031" lon="-3.61623">
        <ele>36</ele>
        <time>2018-07-18T10:04:18Z</time>
      </trkpt>
      <trkpt lat="47.79032" lon="-3.6163">
        <ele>36</ele>
        <time>2018-07-18T10:04:19Z</time>
      </trkpt>
      <trkpt lat="47.79033" lon="-3.61636">
        <ele>36</ele>
        <time>2018-07-18T10:04:20Z</time>
      </trkpt>
      <trkpt lat="47.79034" lon="-3.61643">
        <ele>36</ele>
        <time>2018-07-18T10:04:21Z</time>
      </trkpt>
      <trkpt lat="47.79035" lon="-3.6165">
        <ele>36</ele>
        <time>2018-07-18T10:04:22Z</time>
      </trkpt>
      <trkpt lat="47.79035" lon="-3.61656">
        <ele>36</ele>
        <time>2018-07-18T10:04:23Z</time>
      </trkpt>
      <trkpt lat="47.79036" lon="-3.61662">
        <ele>36</ele>
        <time>2018-07-18T10:04:24Z</time>
      </trkpt>
      <trkpt lat="47.79037" lon="-3.61669">
        <ele>36</ele>
        <time>2018-07-18T10:04:25Z</time>
      </trkpt>
      <trkpt lat="47.79037" lon="-3.61675">
        <ele>37</ele>
        <time>2018-07-18T10:04:26Z</time>
      </trkpt>
      <trkpt lat="47.79039" lon="-3.61682">
        <ele>37</ele>
        <time>2018-07-18T10:04:27Z</time>
      </trkpt>
      <trkpt lat="47.79039" lon="-3.61689">
        <ele>37</ele>
        <time>2018-07-18T10:04:28Z</time>
      </trkpt>
      <trkpt lat="47.7904" lon="-3.61697">
        <ele>37</ele>
        <time>2018-07-18T10:04:29Z</time>
      </trkpt>
      <trkpt lat="47.79041" lon="-3.61704">
        <ele>37</ele>
        <time>2018-07-18T10:04:30Z</time>
      </trkpt>
      <trkpt lat="47.79043" lon="-3.61712">
        <ele>37</ele>
        <time>2018-07-18T10:04:31Z</time>
      </trkpt>
      <trkpt lat="47.79043" lon="-3.61719">
        <ele>36</ele>
        <time>2018-07-18T10:04:32Z</time>
      </trkpt>
      <trkpt lat="47.79045" lon="-3.61727">
        <ele>36</ele>
        <time>2018-07-18T10:04:33Z</time>
      </trkpt>
      <trkpt lat="47.79046" lon="-3.61735">
        <ele>36</ele>
        <time>2018-07-18T10:04:34Z</time>
      </trkpt>
      <trkpt lat="47.79047" lon="-3.61743">
        <ele>36</ele>
        <time>2018-07-18T10:04:35Z</time>
      </trkpt>
      <trkpt lat="47.79048" lon="-3.61751">
        <ele>36</ele>
        <time>2018-07-18T10:04:36Z</time>
      </trkpt>
      <trkpt lat="47.79049" lon="-3.61758">
        <ele>36</ele>
        <time>2018-07-18T10:04:37Z</time>
      </trkpt>
      <trkpt lat="47.79051" lon="-3.61766">
        <ele>37</ele>
        <time>2018-07-18T10:04:38Z</time>
      </trkpt>
      <trkpt lat="47.79052" lon="-3.61774">
        <ele>37</ele>
        <time>2018-07-18T10:04:39Z</time>
      </trkpt>
      <trkpt lat="47.79053" lon="-3.61781">
        <ele>37</ele>
        <time>2018-07-18T10:04:40Z</time>
      </trkpt>
      <trkpt lat="47.79055" lon="-3.61789">
        <ele>37</ele>
        <time>2018-07-18T10:04:41Z</time>
      </trkpt>
      <trkpt lat="47.79056" lon="-3.61796">
        <ele>37</ele>
        <time>2018-07-18T10:04:42Z</time>
      </trkpt>
      <trkpt lat="47.79058" lon="-3.61804">
        <ele>37</ele>
        <time>2018-07-18T10:04:43Z</time>
      </trkpt>
      <trkpt lat="47.79059" lon="-3.61811">
        <ele>37</ele>
        <time>2018-07-18T10:04:44Z</time>
      </trkpt>
      <trkpt lat="47.7906" lon="-3.61819">
        <ele>37</ele>
        <time>2018-07-18T10:04:45Z</time>
      </trkpt>
      <trkpt lat="47.79061" lon="-3.61827">
        <ele>37</ele>
        <time>2018-07-18T10:04:46Z</time>
      </trkpt>
      <trkpt lat="47.79061" lon="-3.61835">
        <ele>37</ele>
        <time>2018-07-18T10:04:47Z</time>
      </trkpt>
      <trkpt lat="47.79061" lon="-3.61843">
        <ele>37</ele>
        <time>2018-07-18T10:04:48Z</time>
      </trkpt>
      <trkpt lat="47.79061" lon="-3.61851">
        <ele>36</ele>
        <time>2018-07-18T10:04:49Z</time>
      </trkpt>
      <trkpt lat="47.7906" lon="-3.61859">
        <ele>36</ele>
        <time>2018-07-18T10:04:50Z</time>
      </trkpt>
      <trkpt lat="47.79059" lon="-3.61867">
        <ele>37</ele>
        <time>2018-07-18T10:04:51Z</time>
      </trkpt>
      <trkpt lat="47.79056" lon="-3.61874">
        <ele>37</ele>
        <time>2018-07-18T10:04:52Z</time>
      </trkpt>
      <trkpt lat="47.79053" lon="-3.61881">
        <ele>37</ele>
        <time>2018-07-18T10:04:53Z</time>
      </trkpt>
      <trkpt lat="47.79049" lon="-3.61886">
        <ele>37</ele>
        <time>2018-07-18T10:04:54Z</time>
      </trkpt>
      <trkpt lat="47.79045" lon="-3.6189">
        <ele>37</ele>
        <time>2018-07-18T10:04:55Z</time>
      </trkpt>
      <trkpt lat="47.7904" lon="-3.61895">
        <ele>37</ele>
        <time>2018-07-18T10:04:56Z</time>
      </trkpt>
      <trkpt lat="47.79036" lon="-3.61899">
        <ele>37</ele>
        <time>2018-07-18T10:04:57Z</time>
      </trkpt>
      <trkpt lat="47.79031" lon="-3.61903">
        <ele>37</ele>
        <time>2018-07-18T10:04:58Z</time>
      </trkpt>
      <trkpt lat="47.79027" lon="-3.61907">
        <ele>37</ele>
        <time>2018-07-18T10:04:59Z</time>
      </trkpt>
      <trkpt lat="47.79022" lon="-3.61911">
        <ele>37</ele>
        <time>2018-07-18T10:05:00Z</time>
      </trkpt>
      <trkpt lat="47.79018" lon="-3.61915">
        <ele>37</ele>
        <time>2018-07-18T10:05:01Z</time>
      </trkpt>
      <trkpt lat="47.79013" lon="-3.61918">
        <ele>38</ele>
        <time>2018-07-18T10:05:02Z</time>
      </trkpt>
      <trkpt lat="47.79009" lon="-3.61921">
        <ele>38</ele>
        <time>2018-07-18T10:05:03Z</time>
      </trkpt>
      <trkpt lat="47.79005" lon="-3.61924">
        <ele>38</ele>
        <time>2018-07-18T10:05:04Z</time>
      </trkpt>
      <trkpt lat="47.79002" lon="-3.61928">
        <ele>38</ele>
        <time>2018-07-18T10:05:05Z</time>
      </trkpt>
      <trkpt lat="47.79002" lon="-3.61934">
        <ele>38</ele>
        <time>2018-07-18T10:05:06Z</time>
      </trkpt>
      <trkpt lat="47.79002" lon="-3.6194">
        <ele>38</ele>
        <time>2018-07-18T10:05:07Z</time>
      </trkpt>
      <trkpt lat="47.79003" lon="-3.61948">
        <ele>38</ele>
        <time>2018-07-18T10:05:08Z</time>
      </trkpt>
      <trkpt lat="47.79003" lon="-3.61955">
        <ele>38</ele>
        <time>2018-07-18T10:05:09Z</time>
      </trkpt>
      <trkpt lat="47.79004" lon="-3.61963">
        <ele>38</ele>
        <time>2018-07-18T10:05:10Z</time>
      </trkpt>
      <trkpt lat="47.79004" lon="-3.61971">
        <ele>38</ele>
        <time>2018-07-18T10:05:11Z</time>
      </trkpt>
      <trkpt lat="47.79004" lon="-3.6198">
        <ele>37</ele>
        <time>2018-07-18T10:05:12Z</time>
      </trkpt>
      <trkpt lat="47.79004" lon="-3.61988">
        <ele>37</ele>
        <time>2018-07-18T10:05:13Z</time>
      </trkpt>
      <trkpt lat="47.79004" lon="-3.61996">
        <ele>37</ele>
        <time>2018-07-18T10:05:14Z</time>
      </trkpt>
      <trkpt lat="47.79004" lon="-3.62004">
        <ele>37</ele>
        <time>2018-07-18T10:05:15Z</time>
      </trkpt>
      <trkpt lat="47.79004" lon="-3.62013">
        <ele>36</ele>
        <time>2018-07-18T10:05:16Z</time>
      </trkpt>
      <trkpt lat="47.79005" lon="-3.62021">
        <ele>36</ele>
        <time>2018-07-18T10:05:17Z</time>
      </trkpt>
      <trkpt lat="47.79005" lon="-3.6203">
        <ele>36</ele>
        <time>2018-07-18T10:05:18Z</time>
      </trkpt>
      <trkpt lat="47.79005" lon="-3.62039">
        <ele>36</ele>
        <time>2018-07-18T10:05:19Z</time>
      </trkpt>
      <trkpt lat="47.79005" lon="-3.62049">
        <ele>36</ele>
        <time>2018-07-18T10:05:20Z</time>
      </trkpt>
      <trkpt lat="47.79005" lon="-3.62059">
        <ele>36</ele>
        <time>2018-07-18T10:05:21Z</time>
      </trkpt>
      <trkpt lat="47.79004" lon="-3.62069">
        <ele>36</ele>
        <time>2018-07-18T10:05:22Z</time>
      </trkpt>
      <trkpt lat="47.79004" lon="-3.62078">
        <ele>36</ele>
        <time>2018-07-18T10:05:23Z</time>
      </trkpt>
      <trkpt lat="47.79005" lon="-3.62089">
        <ele>36</ele>
        <time>2018-07-18T10:05:24Z</time>
      </trkpt>
      <trkpt lat="47.79005" lon="-3.62098">
        <ele>36</ele>
        <time>2018-07-18T10:05:25Z</time>
      </trkpt>
      <trkpt lat="47.79005" lon="-3.62107">
        <ele>36</ele>
        <time>2018-07-18T10:05:26Z</time>
      </trkpt>
      <trkpt lat="47.79006" lon="-3.62116">
        <ele>36</ele>
        <time>2018-07-18T10:05:27Z</time>
      </trkpt>
      <trkpt lat="47.79007" lon="-3.62127">
        <ele>36</ele>
        <time>2018-07-18T10:05:28Z</time>
      </trkpt>
      <trkpt lat="47.79009" lon="-3.62137">
        <ele>36</ele>
        <time>2018-07-18T10:05:29Z</time>
      </trkpt>
      <trkpt lat="47.79011" lon="-3.62147">
        <ele>36</ele>
        <time>2018-07-18T10:05:30Z</time>
      </trkpt>
      <trkpt lat="47.79013" lon="-3.62156">
        <ele>36</ele>
        <time>2018-07-18T10:05:31Z</time>
      </trkpt>
      <trkpt lat="47.79015" lon="-3.62165">
        <ele>36</ele>
        <time>2018-07-18T10:05:32Z</time>
      </trkpt>
      <trkpt lat="47.79017" lon="-3.62173">
        <ele>36</ele>
        <time>2018-07-18T10:05:33Z</time>
      </trkpt>
      <trkpt lat="47.79019" lon="-3.62181">
        <ele>36</ele>
        <time>2018-07-18T10:05:34Z</time>
      </trkpt>
      <trkpt lat="47.79021" lon="-3.62189">
        <ele>36</ele>
        <time>2018-07-18T10:05:35Z</time>
      </trkpt>
      <trkpt lat="47.79023" lon="-3.62198">
        <ele>36</ele>
        <time>2018-07-18T10:05:36Z</time>
      </trkpt>
      <trkpt lat="47.79025" lon="-3.62206">
        <ele>36</ele>
        <time>2018-07-18T10:05:37Z</time>
      </trkpt>
      <trkpt lat="47.79027" lon="-3.62214">
        <ele>36</ele>
        <time>2018-07-18T10:05:38Z</time>
      </trkpt>
      <trkpt lat="47.79028" lon="-3.62222">
        <ele>36</ele>
        <time>2018-07-18T10:05:39Z</time>
      </trkpt>
      <trkpt lat="47.7903" lon="-3.62231">
        <ele>36</ele>
        <time>2018-07-18T10:05:40Z</time>
      </trkpt>
      <trkpt lat="47.79031" lon="-3.62239">
        <ele>36</ele>
        <time>2018-07-18T10:05:41Z</time>
      </trkpt>
      <trkpt lat="47.79032" lon="-3.62247">
        <ele>36</ele>
        <time>2018-07-18T10:05:42Z</time>
      </trkpt>
      <trkpt lat="47.79033" lon="-3.62254">
        <ele>36</ele>
        <time>2018-07-18T10:05:43Z</time>
      </trkpt>
      <trkpt lat="47.79035" lon="-3.62262">
        <ele>36</ele>
        <time>2018-07-18T10:05:44Z</time>
      </trkpt>
      <trkpt lat="47.79038" lon="-3.62267">
        <ele>36</ele>
        <time>2018-07-18T10:05:45Z</time>
      </trkpt>
      <trkpt lat="47.79042" lon="-3.62269">
        <ele>36</ele>
        <time>2018-07-18T10:05:46Z</time>
      </trkpt>
      <trkpt lat="47.79046" lon="-3.6227">
        <ele>36</ele>
        <time>2018-07-18T10:05:47Z</time>
      </trkpt>
      <trkpt lat="47.79051" lon="-3.62269">
        <ele>35</ele>
        <time>2018-07-18T10:05:48Z</time>
      </trkpt>
      <trkpt lat="47.79056" lon="-3.62267">
        <ele>35</ele>
        <time>2018-07-18T10:05:49Z</time>
      </trkpt>
      <trkpt lat="47.79061" lon="-3.62265">
        <ele>35</ele>
        <time>2018-07-18T10:05:50Z</time>
      </trkpt>
      <trkpt lat="47.79067" lon="-3.62263">
        <ele>35</ele>
        <time>2018-07-18T10:05:51Z</time>
      </trkpt>
      <trkpt lat="47.79072" lon="-3.62262">
        <ele>35</ele>
        <time>2018-07-18T10:05:52Z</time>
      </trkpt>
      <trkpt lat="47.79078" lon="-3.6226">
        <ele>34</ele>
        <time>2018-07-18T10:05:53Z</time>
      </trkpt>
      <trkpt lat="47.79084" lon="-3.62259">
        <ele>34</ele>
        <time>2018-07-18T10:05:54Z</time>
      </trkpt>
      <trkpt lat="47.79089" lon="-3.62259">
        <ele>34</ele>
        <time>2018-07-18T10:05:55Z</time>
      </trkpt>
      <trkpt lat="47.79095" lon="-3.6226">
        <ele>34</ele>
        <time>2018-07-18T10:05:56Z</time>
      </trkpt>
      <trkpt lat="47.79099" lon="-3.62263">
        <ele>34</ele>
        <time>2018-07-18T10:05:57Z</time>
      </trkpt>
      <trkpt lat="47.79103" lon="-3.62266">
        <ele>34</ele>
        <time>2018-07-18T10:05:58Z</time>
      </trkpt>
      <trkpt lat="47.79106" lon="-3.6227">
        <ele>34</ele>
        <time>2018-07-18T10:05:59Z</time>
      </trkpt>
      <trkpt lat="47.79109" lon="-3.62274">
        <ele>34</ele>
        <time>2018-07-18T10:06:00Z</time>
      </trkpt>
      <trkpt lat="47.79111" lon="-3.6228">
        <ele>34</ele>
        <time>2018-07-18T10:06:01Z</time>
      </trkpt>
      <trkpt lat="47.79113" lon="-3.62286">
        <ele>34</ele>
        <time>2018-07-18T10:06:02Z</time>
      </trkpt>
      <trkpt lat="47.79115" lon="-3.62293">
        <ele>34</ele>
        <time>2018-07-18T10:06:03Z</time>
      </trkpt>
      <trkpt lat="47.79117" lon="-3.623">
        <ele>34</ele>
        <time>2018-07-18T10:06:04Z</time>
      </trkpt>
      <trkpt lat="47.79119" lon="-3.62306">
        <ele>34</ele>
        <time>2018-07-18T10:06:05Z</time>
      </trkpt>
      <trkpt lat="47.79121" lon="-3.62311">
        <ele>34</ele>
        <time>2018-07-18T10:06:06Z</time>
      </trkpt>
      <trkpt lat="47.79125" lon="-3.62315">
        <ele>34</ele>
        <time>2018-07-18T10:06:07Z</time>
      </trkpt>
      <trkpt lat="47.79129" lon="-3.62317">
        <ele>34</ele>
        <time>2018-07-18T10:06:08Z</time>
      </trkpt>
      <trkpt lat="47.79133" lon="-3.62318">
        <ele>34</ele>
        <time>2018-07-18T10:06:09Z</time>
      </trkpt>
      <trkpt lat="47.79138" lon="-3.62319">
        <ele>34</ele>
        <time>2018-07-18T10:06:10Z</time>
      </trkpt>
      <trkpt lat="47.79142" lon="-3.62319">
        <ele>34</ele>
        <time>2018-07-18T10:06:11Z</time>
      </trkpt>
      <trkpt lat="47.79146" lon="-3.62319">
        <ele>34</ele>
        <time>2018-07-18T10:06:12Z</time>
      </trkpt>
      <trkpt lat="47.7915" lon="-3.62319">
        <ele>34</ele>
        <time>2018-07-18T10:06:13Z</time>
      </trkpt>
      <trkpt lat="47.79153" lon="-3.6232">
        <ele>34</ele>
        <time>2018-07-18T10:06:14Z</time>
      </trkpt>
      <trkpt lat="47.79154" lon="-3.62322">
        <ele>34</ele>
        <time>2018-07-18T10:06:15Z</time>
      </trkpt>
      <trkpt lat="47.79154" lon="-3.62326">
        <ele>34</ele>
        <time>2018-07-18T10:06:16Z</time>
      </trkpt>
      <trkpt lat="47.79154" lon="-3.62328">
        <ele>34</ele>
        <time>2018-07-18T10:06:17Z</time>
      </trkpt>
      <trkpt lat="47.79153" lon="-3.62331">
        <ele>35</ele>
        <time>2018-07-18T10:06:18Z</time>
      </trkpt>
      <trkpt lat="47.79151" lon="-3.62334">
        <ele>35</ele>
        <time>2018-07-18T10:06:19Z</time>
      </trkpt>
      <trkpt lat="47.7915" lon="-3.62338">
        <ele>35</ele>
        <time>2018-07-18T10:06:20Z</time>
      </trkpt>
      <trkpt lat="47.79149" lon="-3.62342">
        <ele>35</ele>
        <time>2018-07-18T10:06:21Z</time>
      </trkpt>
      <trkpt lat="47.79147" lon="-3.62347">
        <ele>35</ele>
        <time>2018-07-18T10:06:22Z</time>
      </trkpt>
      <trkpt lat="47.79145" lon="-3.62353">
        <ele>35</ele>
        <time>2018-07-18T10:06:23Z</time>
      </trkpt>
      <trkpt lat="47.79145" lon="-3.6236">
        <ele>35</ele>
        <time>2018-07-18T10:06:24Z</time>
      </trkpt>
      <trkpt lat="47.79145" lon="-3.62366">
        <ele>35</ele>
        <time>2018-07-18T10:06:25Z</time>
      </trkpt>
      <trkpt lat="47.79145" lon="-3.62372">
        <ele>35</ele>
        <time>2018-07-18T10:06:26Z</time>
      </trkpt>
      <trkpt lat="47.79146" lon="-3.62379">
        <ele>36</ele>
        <time>2018-07-18T10:06:27Z</time>
      </trkpt>
      <trkpt lat="47.79146" lon="-3.62386">
        <ele>36</ele>
        <time>2018-07-18T10:06:28Z</time>
      </trkpt>
      <trkpt lat="47.79146" lon="-3.62392">
        <ele>36</ele>
        <time>2018-07-18T10:06:29Z</time>
      </trkpt>
      <trkpt lat="47.79146" lon="-3.62399">
        <ele>36</ele>
        <time>2018-07-18T10:06:30Z</time>
      </trkpt>
      <trkpt lat="47.79145" lon="-3.62405">
        <ele>37</ele>
        <time>2018-07-18T10:06:31Z</time>
      </trkpt>
      <trkpt lat="47.79144" lon="-3.62411">
        <ele>37</ele>
        <time>2018-07-18T10:06:32Z</time>
      </trkpt>
      <trkpt lat="47.79142" lon="-3.62418">
        <ele>37</ele>
        <time>2018-07-18T10:06:33Z</time>
      </trkpt>
      <trkpt lat="47.79141" lon="-3.62425">
        <ele>37</ele>
        <time>2018-07-18T10:06:34Z</time>
      </trkpt>
      <trkpt lat="47.7914" lon="-3.62431">
        <ele>37</ele>
        <time>2018-07-18T10:06:35Z</time>
      </trkpt>
      <trkpt lat="47.79139" lon="-3.62437">
        <ele>37</ele>
        <time>2018-07-18T10:06:36Z</time>
      </trkpt>
      <trkpt lat="47.79137" lon="-3.62444">
        <ele>38</ele>
        <time>2018-07-18T10:06:37Z</time>
      </trkpt>
      <trkpt lat="47.79136" lon="-3.62451">
        <ele>38</ele>
        <time>2018-07-18T10:06:38Z</time>
      </trkpt>
      <trkpt lat="47.79134" lon="-3.62458">
        <ele>38</ele>
        <time>2018-07-18T10:06:39Z</time>
      </trkpt>
      <trkpt lat="47.79134" lon="-3.62464">
        <ele>38</ele>
        <time>2018-07-18T10:06:40Z</time>
      </trkpt>
      <trkpt lat="47.79135" lon="-3.62471">
        <ele>38</ele>
        <time>2018-07-18T10:06:41Z</time>
      </trkpt>
      <trkpt lat="47.79136" lon="-3.62476">
        <ele>38</ele>
        <time>2018-07-18T10:06:42Z</time>
      </trkpt>
      <trkpt lat="47.79139" lon="-3.62478">
        <ele>38</ele>
        <time>2018-07-18T10:06:43Z</time>
      </trkpt>
      <trkpt lat="47.79143" lon="-3.6248">
        <ele>38</ele>
        <time>2018-07-18T10:06:44Z</time>
      </trkpt>
      <trkpt lat="47.79147" lon="-3.62481">
        <ele>38</ele>
        <time>2018-07-18T10:06:45Z</time>
      </trkpt>
      <trkpt lat="47.79151" lon="-3.62481">
        <ele>38</ele>
        <time>2018-07-18T10:06:46Z</time>
      </trkpt>
      <trkpt lat="47.79155" lon="-3.62482">
        <ele>38</ele>
        <time>2018-07-18T10:06:47Z</time>
      </trkpt>
      <trkpt lat="47.7916" lon="-3.62483">
        <ele>38</ele>
        <time>2018-07-18T10:06:48Z</time>
      </trkpt>
      <trkpt lat="47.79164" lon="-3.62483">
        <ele>38</ele>
        <time>2018-07-18T10:06:49Z</time>
      </trkpt>
      <trkpt lat="47.79168" lon="-3.62484">
        <ele>38</ele>
        <time>2018-07-18T10:06:50Z</time>
      </trkpt>
      <trkpt lat="47.79173" lon="-3.62484">
        <ele>38</ele>
        <time>2018-07-18T10:06:51Z</time>
      </trkpt>
      <trkpt lat="47.79178" lon="-3.62484">
        <ele>38</ele>
        <time>2018-07-18T10:06:52Z</time>
      </trkpt>
      <trkpt lat="47.79183" lon="-3.62484">
        <ele>38</ele>
        <time>2018-07-18T10:06:53Z</time>
      </trkpt>
      <trkpt lat="47.79187" lon="-3.62484">
        <ele>38</ele>
        <time>2018-07-18T10:06:54Z</time>
      </trkpt>
      <trkpt lat="47.79192" lon="-3.62483">
        <ele>38</ele>
        <time>2018-07-18T10:06:55Z</time>
      </trkpt>
      <trkpt lat="47.79197" lon="-3.62483">
        <ele>39</ele>
        <time>2018-07-18T10:06:56Z</time>
      </trkpt>
      <trkpt lat="47.79202" lon="-3.62482">
        <ele>39</ele>
        <time>2018-07-18T10:06:57Z</time>
      </trkpt>
      <trkpt lat="47.79207" lon="-3.62481">
        <ele>39</ele>
        <time>2018-07-18T10:06:58Z</time>
      </trkpt>
      <trkpt lat="47.79211" lon="-3.6248">
        <ele>39</ele>
        <time>2018-07-18T10:06:59Z</time>
      </trkpt>
      <trkpt lat="47.79216" lon="-3.62479">
        <ele>39</ele>
        <time>2018-07-18T10:07:00Z</time>
      </trkpt>
      <trkpt lat="47.79221" lon="-3.62478">
        <ele>39</ele>
        <time>2018-07-18T10:07:01Z</time>
      </trkpt>
      <trkpt lat="47.79226" lon="-3.62477">
        <ele>39</ele>
        <time>2018-07-18T10:07:02Z</time>
      </trkpt>
      <trkpt lat="47.7923" lon="-3.62477">
        <ele>39</ele>
        <time>2018-07-18T10:07:03Z</time>
      </trkpt>
      <trkpt lat="47.79235" lon="-3.62476">
        <ele>40</ele>
        <time>2018-07-18T10:07:04Z</time>
      </trkpt>
      <trkpt lat="47.79239" lon="-3.62476">
        <ele>40</ele>
        <time>2018-07-18T10:07:05Z</time>
      </trkpt>
      <trkpt lat="47.79243" lon="-3.62475">
        <ele>40</ele>
        <time>2018-07-18T10:07:06Z</time>
      </trkpt>
      <trkpt lat="47.79247" lon="-3.62474">
        <ele>41</ele>
        <time>2018-07-18T10:07:07Z</time>
      </trkpt>
      <trkpt lat="47.79251" lon="-3.62473">
        <ele>41</ele>
        <time>2018-07-18T10:07:08Z</time>
      </trkpt>
      <trkpt lat="47.79253" lon="-3.62471">
        <ele>41</ele>
        <time>2018-07-18T10:07:09Z</time>
      </trkpt>
      <trkpt lat="47.79257" lon="-3.6247">
        <ele>41</ele>
        <time>2018-07-18T10:07:10Z</time>
      </trkpt>
      <trkpt lat="47.7926" lon="-3.62471">
        <ele>42</ele>
        <time>2018-07-18T10:07:11Z</time>
      </trkpt>
      <trkpt lat="47.79264" lon="-3.62472">
        <ele>42</ele>
        <time>2018-07-18T10:07:12Z</time>
      </trkpt>
      <trkpt lat="47.79267" lon="-3.62473">
        <ele>42</ele>
        <time>2018-07-18T10:07:13Z</time>
      </trkpt>
      <trkpt lat="47.7927" lon="-3.62473">
        <ele>42</ele>
        <time>2018-07-18T10:07:14Z</time>
      </trkpt>
      <trkpt lat="47.79274" lon="-3.62475">
        <ele>42</ele>
        <time>2018-07-18T10:07:15Z</time>
      </trkpt>
      <trkpt lat="47.79276" lon="-3.62478">
        <ele>43</ele>
        <time>2018-07-18T10:07:16Z</time>
      </trkpt>
      <trkpt lat="47.79277" lon="-3.62482">
        <ele>43</ele>
        <time>2018-07-18T10:07:17Z</time>
      </trkpt>
      <trkpt lat="47.79277" lon="-3.62487">
        <ele>43</ele>
        <time>2018-07-18T10:07:18Z</time>
      </trkpt>
      <trkpt lat="47.79276" lon="-3.62494">
        <ele>43</ele>
        <time>2018-07-18T10:07:19Z</time>
      </trkpt>
      <trkpt lat="47.79276" lon="-3.62501">
        <ele>43</ele>
        <time>2018-07-18T10:07:20Z</time>
      </trkpt>
      <trkpt lat="47.79276" lon="-3.62508">
        <ele>43</ele>
        <time>2018-07-18T10:07:21Z</time>
      </trkpt>
      <trkpt lat="47.79276" lon="-3.62515">
        <ele>44</ele>
        <time>2018-07-18T10:07:22Z</time>
      </trkpt>
      <trkpt lat="47.79276" lon="-3.62523">
        <ele>44</ele>
        <time>2018-07-18T10:07:23Z</time>
      </trkpt>
      <trkpt lat="47.79275" lon="-3.6253">
        <ele>44</ele>
        <time>2018-07-18T10:07:24Z</time>
      </trkpt>
      <trkpt lat="47.79275" lon="-3.62537">
        <ele>44</ele>
        <time>2018-07-18T10:07:25Z</time>
      </trkpt>
      <trkpt lat="47.79274" lon="-3.62545">
        <ele>44</ele>
        <time>2018-07-18T10:07:26Z</time>
      </trkpt>
      <trkpt lat="47.79274" lon="-3.62553">
        <ele>44</ele>
        <time>2018-07-18T10:07:27Z</time>
      </trkpt>
      <trkpt lat="47.79274" lon="-3.62561">
        <ele>44</ele>
        <time>2018-07-18T10:07:28Z</time>
      </trkpt>
      <trkpt lat="47.79273" lon="-3.62568">
        <ele>44</ele>
        <time>2018-07-18T10:07:29Z</time>
      </trkpt>
      <trkpt lat="47.79273" lon="-3.62575">
        <ele>44</ele>
        <time>2018-07-18T10:07:30Z</time>
      </trkpt>
      <trkpt lat="47.79274" lon="-3.62582">
        <ele>44</ele>
        <time>2018-07-18T10:07:31Z</time>
      </trkpt>
      <trkpt lat="47.79275" lon="-3.62589">
        <ele>43</ele>
        <time>2018-07-18T10:07:32Z</time>
      </trkpt>
      <trkpt lat="47.79276" lon="-3.62598">
        <ele>43</ele>
        <time>2018-07-18T10:07:33Z</time>
      </trkpt>
      <trkpt lat="47.79277" lon="-3.62606">
        <ele>43</ele>
        <time>2018-07-18T10:07:34Z</time>
      </trkpt>
      <trkpt lat="47.79279" lon="-3.62614">
        <ele>43</ele>
        <time>2018-07-18T10:07:35Z</time>
      </trkpt>
      <trkpt lat="47.7928" lon="-3.62622">
        <ele>43</ele>
        <time>2018-07-18T10:07:36Z</time>
      </trkpt>
      <trkpt lat="47.79282" lon="-3.6263">
        <ele>43</ele>
        <time>2018-07-18T10:07:37Z</time>
      </trkpt>
      <trkpt lat="47.79285" lon="-3.62638">
        <ele>43</ele>
        <time>2018-07-18T10:07:38Z</time>
      </trkpt>
      <trkpt lat="47.79287" lon="-3.62647">
        <ele>43</ele>
        <time>2018-07-18T10:07:39Z</time>
      </trkpt>
      <trkpt lat="47.79288" lon="-3.62655">
        <ele>43</ele>
        <time>2018-07-18T10:07:40Z</time>
      </trkpt>
      <trkpt lat="47.79289" lon="-3.62664">
        <ele>42</ele>
        <time>2018-07-18T10:07:41Z</time>
      </trkpt>
      <trkpt lat="47.7929" lon="-3.62673">
        <ele>42</ele>
        <time>2018-07-18T10:07:42Z</time>
      </trkpt>
      <trkpt lat="47.79291" lon="-3.62681">
        <ele>42</ele>
        <time>2018-07-18T10:07:43Z</time>
      </trkpt>
      <trkpt lat="47.79291" lon="-3.6269">
        <ele>42</ele>
        <time>2018-07-18T10:07:44Z</time>
      </trkpt>
      <trkpt lat="47.79291" lon="-3.62699">
        <ele>42</ele>
        <time>2018-07-18T10:07:45Z</time>
      </trkpt>
      <trkpt lat="47.7929" lon="-3.62707">
        <ele>42</ele>
        <time>2018-07-18T10:07:46Z</time>
      </trkpt>
      <trkpt lat="47.79291" lon="-3.62715">
        <ele>42</ele>
        <time>2018-07-18T10:07:47Z</time>
      </trkpt>
      <trkpt lat="47.79292" lon="-3.62723">
        <ele>42</ele>
        <time>2018-07-18T10:07:48Z</time>
      </trkpt>
      <trkpt lat="47.79294" lon="-3.62731">
        <ele>42</ele>
        <time>2018-07-18T10:07:49Z</time>
      </trkpt>
      <trkpt lat="47.79295" lon="-3.62739">
        <ele>42</ele>
        <time>2018-07-18T10:07:50Z</time>
      </trkpt>
      <trkpt lat="47.79296" lon="-3.62747">
        <ele>42</ele>
        <time>2018-07-18T10:07:51Z</time>
      </trkpt>
      <trkpt lat="47.79297" lon="-3.62755">
        <ele>42</ele>
        <time>2018-07-18T10:07:52Z</time>
      </trkpt>
      <trkpt lat="47.79297" lon="-3.62763">
        <ele>42</ele>
        <time>2018-07-18T10:07:53Z</time>
      </trkpt>
      <trkpt lat="47.79296" lon="-3.62772">
        <ele>42</ele>
        <time>2018-07-18T10:07:54Z</time>
      </trkpt>
      <trkpt lat="47.79296" lon="-3.6278">
        <ele>42</ele>
        <time>2018-07-18T10:07:55Z</time>
      </trkpt>
      <trkpt lat="47.79295" lon="-3.62789">
        <ele>42</ele>
        <time>2018-07-18T10:07:56Z</time>
      </trkpt>
      <trkpt lat="47.79295" lon="-3.62797">
        <ele>42</ele>
        <time>2018-07-18T10:07:57Z</time>
      </trkpt>
      <trkpt lat="47.79294" lon="-3.62805">
        <ele>42</ele>
        <time>2018-07-18T10:07:58Z</time>
      </trkpt>
      <trkpt lat="47.79293" lon="-3.62813">
        <ele>41</ele>
        <time>2018-07-18T10:07:59Z</time>
      </trkpt>
      <trkpt lat="47.79292" lon="-3.62821">
        <ele>41</ele>
        <time>2018-07-18T10:08:00Z</time>
      </trkpt>
      <trkpt lat="47.79292" lon="-3.6283">
        <ele>41</ele>
        <time>2018-07-18T10:08:01Z</time>
      </trkpt>
      <trkpt lat="47.79291" lon="-3.62838">
        <ele>41</ele>
        <time>2018-07-18T10:08:02Z</time>
      </trkpt>
      <trkpt lat="47.79291" lon="-3.62846">
        <ele>41</ele>
        <time>2018-07-18T10:08:03Z</time>
      </trkpt>
      <trkpt lat="47.7929" lon="-3.62854">
        <ele>41</ele>
        <time>2018-07-18T10:08:04Z</time>
      </trkpt>
      <trkpt lat="47.79289" lon="-3.62862">
        <ele>41</ele>
        <time>2018-07-18T10:08:05Z</time>
      </trkpt>
      <trkpt lat="47.79288" lon="-3.6287">
        <ele>41</ele>
        <time>2018-07-18T10:08:06Z</time>
      </trkpt>
      <trkpt lat="47.79287" lon="-3.62877">
        <ele>41</ele>
        <time>2018-07-18T10:08:07Z</time>
      </trkpt>
      <trkpt lat="47.79286" lon="-3.62884">
        <ele>41</ele>
        <time>2018-07-18T10:08:08Z</time>
      </trkpt>
      <trkpt lat="47.79285" lon="-3.62891">
        <ele>42</ele>
        <time>2018-07-18T10:08:09Z</time>
      </trkpt>
      <trkpt lat="47.79283" lon="-3.62897">
        <ele>42</ele>
        <time>2018-07-18T10:08:10Z</time>
      </trkpt>
      <trkpt lat="47.79281" lon="-3.62904">
        <ele>42</ele>
        <time>2018-07-18T10:08:11Z</time>
      </trkpt>
      <trkpt lat="47.79279" lon="-3.62913">
        <ele>42</ele>
        <time>2018-07-18T10:08:12Z</time>
      </trkpt>
      <trkpt lat="47.79278" lon="-3.62924">
        <ele>42</ele>
        <time>2018-07-18T10:08:13Z</time>
      </trkpt>
      <trkpt lat="47.79278" lon="-3.62936">
        <ele>41</ele>
        <time>2018-07-18T10:08:14Z</time>
      </trkpt>
      <trkpt lat="47.79278" lon="-3.62948">
        <ele>42</ele>
        <time>2018-07-18T10:08:15Z</time>
      </trkpt>
      <trkpt lat="47.79279" lon="-3.6296">
        <ele>42</ele>
        <time>2018-07-18T10:08:16Z</time>
      </trkpt>
      <trkpt lat="47.7928" lon="-3.62973">
        <ele>42</ele>
        <time>2018-07-18T10:08:17Z</time>
      </trkpt>
      <trkpt lat="47.7928" lon="-3.62986">
        <ele>42</ele>
        <time>2018-07-18T10:08:18Z</time>
      </trkpt>
      <trkpt lat="47.7928" lon="-3.62999">
        <ele>42</ele>
        <time>2018-07-18T10:08:19Z</time>
      </trkpt>
      <trkpt lat="47.79279" lon="-3.63012">
        <ele>42</ele>
        <time>2018-07-18T10:08:20Z</time>
      </trkpt>
      <trkpt lat="47.79278" lon="-3.63026">
        <ele>42</ele>
        <time>2018-07-18T10:08:21Z</time>
      </trkpt>
      <trkpt lat="47.79278" lon="-3.6304">
        <ele>41</ele>
        <time>2018-07-18T10:08:22Z</time>
      </trkpt>
      <trkpt lat="47.79278" lon="-3.63053">
        <ele>41</ele>
        <time>2018-07-18T10:08:23Z</time>
      </trkpt>
      <trkpt lat="47.79278" lon="-3.63066">
        <ele>41</ele>
        <time>2018-07-18T10:08:24Z</time>
      </trkpt>
      <trkpt lat="47.79278" lon="-3.63079">
        <ele>40</ele>
        <time>2018-07-18T10:08:25Z</time>
      </trkpt>
      <trkpt lat="47.79279" lon="-3.63091">
        <ele>40</ele>
        <time>2018-07-18T10:08:26Z</time>
      </trkpt>
      <trkpt lat="47.7928" lon="-3.63103">
        <ele>40</ele>
        <time>2018-07-18T10:08:27Z</time>
      </trkpt>
      <trkpt lat="47.79281" lon="-3.63115">
        <ele>40</ele>
        <time>2018-07-18T10:08:28Z</time>
      </trkpt>
      <trkpt lat="47.79281" lon="-3.63126">
        <ele>39</ele>
        <time>2018-07-18T10:08:29Z</time>
      </trkpt>
      <trkpt lat="47.79282" lon="-3.63136">
        <ele>39</ele>
        <time>2018-07-18T10:08:30Z</time>
      </trkpt>
      <trkpt lat="47.79283" lon="-3.63144">
        <ele>39</ele>
        <time>2018-07-18T10:08:31Z</time>
      </trkpt>
      <trkpt lat="47.79287" lon="-3.63152">
        <ele>39</ele>
        <time>2018-07-18T10:08:32Z</time>
      </trkpt>
      <trkpt lat="47.79292" lon="-3.63157">
        <ele>39</ele>
        <time>2018-07-18T10:08:33Z</time>
      </trkpt>
      <trkpt lat="47.79297" lon="-3.63161">
        <ele>38</ele>
        <time>2018-07-18T10:08:34Z</time>
      </trkpt>
      <trkpt lat="47.79302" lon="-3.63163">
        <ele>38</ele>
        <time>2018-07-18T10:08:35Z</time>
      </trkpt>
      <trkpt lat="47.79307" lon="-3.63167">
        <ele>38</ele>
        <time>2018-07-18T10:08:36Z</time>
      </trkpt>
      <trkpt lat="47.79312" lon="-3.6317">
        <ele>37</ele>
        <time>2018-07-18T10:08:37Z</time>
      </trkpt>
      <trkpt lat="47.79316" lon="-3.63174">
        <ele>37</ele>
        <time>2018-07-18T10:08:38Z</time>
      </trkpt>
      <trkpt lat="47.79321" lon="-3.63179">
        <ele>37</ele>
        <time>2018-07-18T10:08:39Z</time>
      </trkpt>
      <trkpt lat="47.79326" lon="-3.63183">
        <ele>36</ele>
        <time>2018-07-18T10:08:40Z</time>
      </trkpt>
      <trkpt lat="47.79331" lon="-3.63186">
        <ele>36</ele>
        <time>2018-07-18T10:08:41Z</time>
      </trkpt>
      <trkpt lat="47.79334" lon="-3.6319">
        <ele>36</ele>
        <time>2018-07-18T10:08:42Z</time>
      </trkpt>
      <trkpt lat="47.79336" lon="-3.63191">
        <ele>36</ele>
        <time>2018-07-18T10:08:43Z</time>
      </trkpt>
      <trkpt lat="47.79338" lon="-3.63193">
        <ele>35</ele>
        <time>2018-07-18T10:08:44Z</time>
      </trkpt>
      <trkpt lat="47.7934" lon="-3.63195">
        <ele>35</ele>
        <time>2018-07-18T10:08:45Z</time>
      </trkpt>
      <trkpt lat="47.79342" lon="-3.63198">
        <ele>35</ele>
        <time>2018-07-18T10:08:46Z</time>
      </trkpt>
      <trkpt lat="47.79344" lon="-3.632">
        <ele>35</ele>
        <time>2018-07-18T10:08:47Z</time>
      </trkpt>
      <trkpt lat="47.79344" lon="-3.63202">
        <ele>35</ele>
        <time>2018-07-18T10:08:48Z</time>
      </trkpt>
      <trkpt lat="47.79344" lon="-3.63204">
        <ele>35</ele>
        <time>2018-07-18T10:08:49Z</time>
      </trkpt>
      <trkpt lat="47.79342" lon="-3.63205">
        <ele>35</ele>
        <time>2018-07-18T10:08:50Z</time>
      </trkpt>
      <trkpt lat="47.79341" lon="-3.63203">
        <ele>35</ele>
        <time>2018-07-18T10:08:51Z</time>
      </trkpt>
      <trkpt lat="47.7934" lon="-3.63201">
        <ele>35</ele>
        <time>2018-07-18T10:08:52Z</time>
      </trkpt>
      <trkpt lat="47.79339" lon="-3.63199">
        <ele>35</ele>
        <time>2018-07-18T10:08:53Z</time>
      </trkpt>
      <trkpt lat="47.79339" lon="-3.63195">
        <ele>35</ele>
        <time>2018-07-18T10:08:54Z</time>
      </trkpt>
      <trkpt lat="47.79337" lon="-3.63193">
        <ele>35</ele>
        <time>2018-07-18T10:08:55Z</time>
      </trkpt>
      <trkpt lat="47.79335" lon="-3.63191">
        <ele>34</ele>
        <time>2018-07-18T10:08:56Z</time>
      </trkpt>
      <trkpt lat="47.79334" lon="-3.6319">
        <ele>34</ele>
        <time>2018-07-18T10:08:57Z</time>
      </trkpt>
      <trkpt lat="47.79332" lon="-3.63192">
        <ele>34</ele>
        <time>2018-07-18T10:08:58Z</time>
      </trkpt>
      <trkpt lat="47.79332" lon="-3.63195">
        <ele>34</ele>
        <time>2018-07-18T10:08:59Z</time>
      </trkpt>
      <trkpt lat="47.79334" lon="-3.63199">
        <ele>34</ele>
        <time>2018-07-18T10:09:00Z</time>
      </trkpt>
      <trkpt lat="47.79335" lon="-3.63205">
        <ele>35</ele>
        <time>2018-07-18T10:09:01Z</time>
      </trkpt>
      <trkpt lat="47.79336" lon="-3.63211">
        <ele>35</ele>
        <time>2018-07-18T10:09:02Z</time>
      </trkpt>
      <trkpt lat="47.79336" lon="-3.63217">
        <ele>35</ele>
        <time>2018-07-18T10:09:03Z</time>
      </trkpt>
      <trkpt lat="47.79335" lon="-3.63225">
        <ele>34</ele>
        <time>2018-07-18T10:09:04Z</time>
      </trkpt>
      <trkpt lat="47.79334" lon="-3.63232">
        <ele>34</ele>
        <time>2018-07-18T10:09:05Z</time>
      </trkpt>
      <trkpt lat="47.79332" lon="-3.63238">
        <ele>34</ele>
        <time>2018-07-18T10:09:06Z</time>
      </trkpt>
      <trkpt lat="47.7933" lon="-3.63245">
        <ele>34</ele>
        <time>2018-07-18T10:09:07Z</time>
      </trkpt>
      <trkpt lat="47.79329" lon="-3.63251">
        <ele>33</ele>
        <time>2018-07-18T10:09:08Z</time>
      </trkpt>
      <trkpt lat="47.79328" lon="-3.63256">
        <ele>33</ele>
        <time>2018-07-18T10:09:09Z</time>
      </trkpt>
      <trkpt lat="47.79328" lon="-3.63261">
        <ele>32</ele>
        <time>2018-07-18T10:09:10Z</time>
      </trkpt>
      <trkpt lat="47.79329" lon="-3.63264">
        <ele>32</ele>
        <time>2018-07-18T10:09:11Z</time>
      </trkpt>
      <trkpt lat="47.79331" lon="-3.63266">
        <ele>32</ele>
        <time>2018-07-18T10:09:12Z</time>
      </trkpt>
      <trkpt lat="47.79334" lon="-3.63268">
        <ele>31</ele>
        <time>2018-07-18T10:09:13Z</time>
      </trkpt>
      <trkpt lat="47.79336" lon="-3.6327">
        <ele>31</ele>
        <time>2018-07-18T10:09:14Z</time>
      </trkpt>
      <trkpt lat="47.79339" lon="-3.63271">
        <ele>31</ele>
        <time>2018-07-18T10:09:15Z</time>
      </trkpt>
      <trkpt lat="47.79342" lon="-3.63272">
        <ele>31</ele>
        <time>2018-07-18T10:09:16Z</time>
      </trkpt>
      <trkpt lat="47.79345" lon="-3.63273">
        <ele>31</ele>
        <time>2018-07-18T10:09:17Z</time>
      </trkpt>
      <trkpt lat="47.79347" lon="-3.63274">
        <ele>30</ele>
        <time>2018-07-18T10:09:18Z</time>
      </trkpt>
      <trkpt lat="47.7935" lon="-3.63275">
        <ele>30</ele>
        <time>2018-07-18T10:09:19Z</time>
      </trkpt>
      <trkpt lat="47.79352" lon="-3.63275">
        <ele>30</ele>
        <time>2018-07-18T10:09:20Z</time>
      </trkpt>
      <trkpt lat="47.79354" lon="-3.63275">
        <ele>30</ele>
        <time>2018-07-18T10:09:21Z</time>
      </trkpt>
      <trkpt lat="47.79355" lon="-3.63276">
        <ele>30</ele>
        <time>2018-07-18T10:09:22Z</time>
      </trkpt>
      <trkpt lat="47.79358" lon="-3.63277">
        <ele>30</ele>
        <time>2018-07-18T10:09:23Z</time>
      </trkpt>
      <trkpt lat="47.79361" lon="-3.63277">
        <ele>30</ele>
        <time>2018-07-18T10:09:24Z</time>
      </trkpt>
      <trkpt lat="47.79363" lon="-3.63278">
        <ele>30</ele>
        <time>2018-07-18T10:09:25Z</time>
      </trkpt>
      <trkpt lat="47.79365" lon="-3.63279">
        <ele>30</ele>
        <time>2018-07-18T10:09:26Z</time>
      </trkpt>
      <trkpt lat="47.79367" lon="-3.6328">
        <ele>30</ele>
        <time>2018-07-18T10:09:27Z</time>
      </trkpt>
      <trkpt lat="47.7937" lon="-3.6328">
        <ele>30</ele>
        <time>2018-07-18T10:09:28Z</time>
      </trkpt>
      <trkpt lat="47.79372" lon="-3.63279">
        <ele>30</ele>
        <time>2018-07-18T10:09:29Z</time>
      </trkpt>
      <trkpt lat="47.79373" lon="-3.63277">
        <ele>30</ele>
        <time>2018-07-18T10:09:30Z</time>
      </trkpt>
      <trkpt lat="47.79374" lon="-3.63273">
        <ele>30</ele>
        <time>2018-07-18T10:09:31Z</time>
      </trkpt>
      <trkpt lat="47.79374" lon="-3.63269">
        <ele>30</ele>
        <time>2018-07-18T10:09:32Z</time>
      </trkpt>
      <trkpt lat="47.79375" lon="-3.63265">
        <ele>30</ele>
        <time>2018-07-18T10:09:33Z</time>
      </trkpt>
      <trkpt lat="47.79376" lon="-3.6326">
        <ele>30</ele>
        <time>2018-07-18T10:09:34Z</time>
      </trkpt>
      <trkpt lat="47.79377" lon="-3.63255">
        <ele>30</ele>
        <time>2018-07-18T10:09:35Z</time>
      </trkpt>
      <trkpt lat="47.79378" lon="-3.63249">
        <ele>30</ele>
        <time>2018-07-18T10:09:36Z</time>
      </trkpt>
      <trkpt lat="47.79378" lon="-3.63244">
        <ele>30</ele>
        <time>2018-07-18T10:09:37Z</time>
      </trkpt>
      <trkpt lat="47.79379" lon="-3.63238">
        <ele>30</ele>
        <time>2018-07-18T10:09:38Z</time>
      </trkpt>
      <trkpt lat="47.79379" lon="-3.63233">
        <ele>30</ele>
        <time>2018-07-18T10:09:39Z</time>
      </trkpt>
      <trkpt lat="47.7938" lon="-3.63228">
        <ele>30</ele>
        <time>2018-07-18T10:09:40Z</time>
      </trkpt>
      <trkpt lat="47.7938" lon="-3.63222">
        <ele>30</ele>
        <time>2018-07-18T10:09:41Z</time>
      </trkpt>
      <trkpt lat="47.7938" lon="-3.63216">
        <ele>30</ele>
        <time>2018-07-18T10:09:42Z</time>
      </trkpt>
      <trkpt lat="47.7938" lon="-3.6321">
        <ele>30</ele>
        <time>2018-07-18T10:09:43Z</time>
      </trkpt>
      <trkpt lat="47.7938" lon="-3.63205">
        <ele>31</ele>
        <time>2018-07-18T10:09:44Z</time>
      </trkpt>
      <trkpt lat="47.79381" lon="-3.63199">
        <ele>31</ele>
        <time>2018-07-18T10:09:45Z</time>
      </trkpt>
      <trkpt lat="47.79381" lon="-3.63195">
        <ele>31</ele>
        <time>2018-07-18T10:09:46Z</time>
      </trkpt>
      <trkpt lat="47.79381" lon="-3.63189">
        <ele>31</ele>
        <time>2018-07-18T10:09:47Z</time>
      </trkpt>
      <trkpt lat="47.79381" lon="-3.63185">
        <ele>31</ele>
        <time>2018-07-18T10:09:48Z</time>
      </trkpt>
      <trkpt lat="47.79381" lon="-3.6318">
        <ele>31</ele>
        <time>2018-07-18T10:09:49Z</time>
      </trkpt>
      <trkpt lat="47.79381" lon="-3.63176">
        <ele>32</ele>
        <time>2018-07-18T10:09:50Z</time>
      </trkpt>
      <trkpt lat="47.79381" lon="-3.63172">
        <ele>32</ele>
        <time>2018-07-18T10:09:51Z</time>
      </trkpt>
      <trkpt lat="47.7938" lon="-3.63167">
        <ele>32</ele>
        <time>2018-07-18T10:09:52Z</time>
      </trkpt>
      <trkpt lat="47.7938" lon="-3.63162">
        <ele>32</ele>
        <time>2018-07-18T10:09:53Z</time>
      </trkpt>
      <trkpt lat="47.7938" lon="-3.63157">
        <ele>32</ele>
        <time>2018-07-18T10:09:54Z</time>
      </trkpt>
      <trkpt lat="47.7938" lon="-3.63152">
        <ele>33</ele>
        <time>2018-07-18T10:09:55Z</time>
      </trkpt>
      <trkpt lat="47.79379" lon="-3.63148">
        <ele>33</ele>
        <time>2018-07-18T10:09:56Z</time>
      </trkpt>
      <trkpt lat="47.79379" lon="-3.63144">
        <ele>33</ele>
        <time>2018-07-18T10:09:57Z</time>
      </trkpt>
      <trkpt lat="47.79379" lon="-3.63139">
        <ele>33</ele>
        <time>2018-07-18T10:09:58Z</time>
      </trkpt>
      <trkpt lat="47.79379" lon="-3.63135">
        <ele>34</ele>
        <time>2018-07-18T10:09:59Z</time>
      </trkpt>
      <trkpt lat="47.79379" lon="-3.6313">
        <ele>34</ele>
        <time>2018-07-18T10:10:00Z</time>
      </trkpt>
      <trkpt lat="47.79379" lon="-3.63125">
        <ele>34</ele>
        <time>2018-07-18T10:10:01Z</time>
      </trkpt>
      <trkpt lat="47.79379" lon="-3.63119">
        <ele>34</ele>
        <time>2018-07-18T10:10:02Z</time>
      </trkpt>
      <trkpt lat="47.79379" lon="-3.63113">
        <ele>35</ele>
        <time>2018-07-18T10:10:03Z</time>
      </trkpt>
      <trkpt lat="47.79379" lon="-3.63108">
        <ele>35</ele>
        <time>2018-07-18T10:10:04Z</time>
      </trkpt>
      <trkpt lat="47.7938" lon="-3.63103">
        <ele>35</ele>
        <time>2018-07-18T10:10:05Z</time>
      </trkpt>
      <trkpt lat="47.7938" lon="-3.63098">
        <ele>35</ele>
        <time>2018-07-18T10:10:06Z</time>
      </trkpt>
      <trkpt lat="47.79381" lon="-3.63093">
        <ele>36</ele>
        <time>2018-07-18T10:10:07Z</time>
      </trkpt>
      <trkpt lat="47.79382" lon="-3.63088">
        <ele>36</ele>
        <time>2018-07-18T10:10:08Z</time>
      </trkpt>
      <trkpt lat="47.79383" lon="-3.63084">
        <ele>36</ele>
        <time>2018-07-18T10:10:09Z</time>
      </trkpt>
      <trkpt lat="47.79383" lon="-3.63079">
        <ele>37</ele>
        <time>2018-07-18T10:10:10Z</time>
      </trkpt>
      <trkpt lat="47.79384" lon="-3.63074">
        <ele>37</ele>
        <time>2018-07-18T10:10:11Z</time>
      </trkpt>
      <trkpt lat="47.79385" lon="-3.63069">
        <ele>37</ele>
        <time>2018-07-18T10:10:12Z</time>
      </trkpt>
      <trkpt lat="47.79387" lon="-3.63064">
        <ele>38</ele>
        <time>2018-07-18T10:10:13Z</time>
      </trkpt>
      <trkpt lat="47.79388" lon="-3.63059">
        <ele>38</ele>
        <time>2018-07-18T10:10:14Z</time>
      </trkpt>
      <trkpt lat="47.7939" lon="-3.63054">
        <ele>38</ele>
        <time>2018-07-18T10:10:15Z</time>
      </trkpt>
      <trkpt lat="47.79392" lon="-3.63049">
        <ele>38</ele>
        <time>2018-07-18T10:10:16Z</time>
      </trkpt>
      <trkpt lat="47.79395" lon="-3.63044">
        <ele>38</ele>
        <time>2018-07-18T10:10:17Z</time>
      </trkpt>
      <trkpt lat="47.79397" lon="-3.63038">
        <ele>39</ele>
        <time>2018-07-18T10:10:18Z</time>
      </trkpt>
      <trkpt lat="47.79399" lon="-3.63033">
        <ele>39</ele>
        <time>2018-07-18T10:10:19Z</time>
      </trkpt>
      <trkpt lat="47.79401" lon="-3.63028">
        <ele>39</ele>
        <time>2018-07-18T10:10:20Z</time>
      </trkpt>
      <trkpt lat="47.79404" lon="-3.63022">
        <ele>39</ele>
        <time>2018-07-18T10:10:21Z</time>
      </trkpt>
      <trkpt lat="47.79406" lon="-3.63017">
        <ele>39</ele>
        <time>2018-07-18T10:10:22Z</time>
      </trkpt>
      <trkpt lat="47.79409" lon="-3.63011">
        <ele>39</ele>
        <time>2018-07-18T10:10:23Z</time>
      </trkpt>
      <trkpt lat="47.79411" lon="-3.63006">
        <ele>39</ele>
        <time>2018-07-18T10:10:24Z</time>
      </trkpt>
      <trkpt lat="47.79413" lon="-3.63">
        <ele>39</ele>
        <time>2018-07-18T10:10:25Z</time>
      </trkpt>
      <trkpt lat="47.79415" lon="-3.62994">
        <ele>40</ele>
        <time>2018-07-18T10:10:26Z</time>
      </trkpt>
      <trkpt lat="47.79417" lon="-3.62988">
        <ele>40</ele>
        <time>2018-07-18T10:10:27Z</time>
      </trkpt>
      <trkpt lat="47.7942" lon="-3.62983">
        <ele>40</ele>
        <time>2018-07-18T10:10:28Z</time>
      </trkpt>
      <trkpt lat="47.79422" lon="-3.62978">
        <ele>40</ele>
        <time>2018-07-18T10:10:29Z</time>
      </trkpt>
      <trkpt lat="47.79425" lon="-3.62975">
        <ele>40</ele>
        <time>2018-07-18T10:10:30Z</time>
      </trkpt>
      <trkpt lat="47.7943" lon="-3.62974">
        <ele>40</ele>
        <time>2018-07-18T10:10:31Z</time>
      </trkpt>
      <trkpt lat="47.79434" lon="-3.62975">
        <ele>40</ele>
        <time>2018-07-18T10:10:32Z</time>
      </trkpt>
      <trkpt lat="47.79439" lon="-3.62975">
        <ele>40</ele>
        <time>2018-07-18T10:10:33Z</time>
      </trkpt>
      <trkpt lat="47.79444" lon="-3.62975">
        <ele>40</ele>
        <time>2018-07-18T10:10:34Z</time>
      </trkpt>
      <trkpt lat="47.79449" lon="-3.62976">
        <ele>40</ele>
        <time>2018-07-18T10:10:35Z</time>
      </trkpt>
      <trkpt lat="47.79455" lon="-3.62976">
        <ele>40</ele>
        <time>2018-07-18T10:10:36Z</time>
      </trkpt>
      <trkpt lat="47.7946" lon="-3.62976">
        <ele>40</ele>
        <time>2018-07-18T10:10:37Z</time>
      </trkpt>
      <trkpt lat="47.79466" lon="-3.62977">
        <ele>39</ele>
        <time>2018-07-18T10:10:38Z</time>
      </trkpt>
      <trkpt lat="47.79472" lon="-3.62978">
        <ele>39</ele>
        <time>2018-07-18T10:10:39Z</time>
      </trkpt>
      <trkpt lat="47.79478" lon="-3.62979">
        <ele>39</ele>
        <time>2018-07-18T10:10:40Z</time>
      </trkpt>
      <trkpt lat="47.79482" lon="-3.62979">
        <ele>38</ele>
        <time>2018-07-18T10:10:41Z</time>
      </trkpt>
      <trkpt lat="47.79487" lon="-3.62978">
        <ele>38</ele>
        <time>2018-07-18T10:10:42Z</time>
      </trkpt>
      <trkpt lat="47.7949" lon="-3.62976">
        <ele>38</ele>
        <time>2018-07-18T10:10:43Z</time>
      </trkpt>
      <trkpt lat="47.79492" lon="-3.62975">
        <ele>38</ele>
        <time>2018-07-18T10:10:44Z</time>
      </trkpt>
      <trkpt lat="47.79493" lon="-3.62975">
        <ele>38</ele>
        <time>2018-07-18T10:10:45Z</time>
      </trkpt>
      <trkpt lat="47.79493" lon="-3.62975">
        <ele>38</ele>
        <time>2018-07-18T10:10:46Z</time>
      </trkpt>
      <trkpt lat="47.79493" lon="-3.62974">
        <ele>38</ele>
        <time>2018-07-18T10:10:47Z</time>
      </trkpt>
      <trkpt lat="47.79494" lon="-3.62974">
        <ele>38</ele>
        <time>2018-07-18T10:10:48Z</time>
      </trkpt>
      <trkpt lat="47.79495" lon="-3.62974">
        <ele>38</ele>
        <time>2018-07-18T10:10:49Z</time>
      </trkpt>
      <trkpt lat="47.79496" lon="-3.62972">
        <ele>38</ele>
        <time>2018-07-18T10:10:50Z</time>
      </trkpt>
      <trkpt lat="47.79499" lon="-3.62971">
        <ele>38</ele>
        <time>2018-07-18T10:10:51Z</time>
      </trkpt>
      <trkpt lat="47.79502" lon="-3.62971">
        <ele>38</ele>
        <time>2018-07-18T10:10:52Z</time>
      </trkpt>
      <trkpt lat="47.79506" lon="-3.62972">
        <ele>38</ele>
        <time>2018-07-18T10:10:53Z</time>
      </trkpt>
      <trkpt lat="47.7951" lon="-3.62973">
        <ele>37</ele>
        <time>2018-07-18T10:10:54Z</time>
      </trkpt>
      <trkpt lat="47.79514" lon="-3.62976">
        <ele>37</ele>
        <time>2018-07-18T10:10:55Z</time>
      </trkpt>
      <trkpt lat="47.79518" lon="-3.62978">
        <ele>37</ele>
        <time>2018-07-18T10:10:56Z</time>
      </trkpt>
      <trkpt lat="47.79523" lon="-3.62979">
        <ele>37</ele>
        <time>2018-07-18T10:10:57Z</time>
      </trkpt>
      <trkpt lat="47.79529" lon="-3.62981">
        <ele>37</ele>
        <time>2018-07-18T10:10:58Z</time>
      </trkpt>
      <trkpt lat="47.79534" lon="-3.62983">
        <ele>37</ele>
        <time>2018-07-18T10:10:59Z</time>
      </trkpt>
      <trkpt lat="47.79539" lon="-3.62985">
        <ele>37</ele>
        <time>2018-07-18T10:11:00Z</time>
      </trkpt>
      <trkpt lat="47.79545" lon="-3.62988">
        <ele>37</ele>
        <time>2018-07-18T10:11:01Z</time>
      </trkpt>
      <trkpt lat="47.79548" lon="-3.6299">
        <ele>37</ele>
        <time>2018-07-18T10:11:02Z</time>
      </trkpt>
      <trkpt lat="47.79552" lon="-3.62991">
        <ele>37</ele>
        <time>2018-07-18T10:11:03Z</time>
      </trkpt>
      <trkpt lat="47.79555" lon="-3.62992">
        <ele>37</ele>
        <time>2018-07-18T10:11:04Z</time>
      </trkpt>
      <trkpt lat="47.79559" lon="-3.62993">
        <ele>37</ele>
        <time>2018-07-18T10:11:05Z</time>
      </trkpt>
      <trkpt lat="47.79563" lon="-3.62994">
        <ele>37</ele>
        <time>2018-07-18T10:11:06Z</time>
      </trkpt>
      <trkpt lat="47.79567" lon="-3.62996">
        <ele>37</ele>
        <time>2018-07-18T10:11:07Z</time>
      </trkpt>
      <trkpt lat="47.79571" lon="-3.62998">
        <ele>37</ele>
        <time>2018-07-18T10:11:08Z</time>
      </trkpt>
      <trkpt lat="47.79576" lon="-3.63">
        <ele>37</ele>
        <time>2018-07-18T10:11:09Z</time>
      </trkpt>
      <trkpt lat="47.79581" lon="-3.63001">
        <ele>37</ele>
        <time>2018-07-18T10:11:10Z</time>
      </trkpt>
      <trkpt lat="47.79586" lon="-3.63003">
        <ele>37</ele>
        <time>2018-07-18T10:11:11Z</time>
      </trkpt>
      <trkpt lat="47.79591" lon="-3.63005">
        <ele>37</ele>
        <time>2018-07-18T10:11:12Z</time>
      </trkpt>
      <trkpt lat="47.79595" lon="-3.63006">
        <ele>37</ele>
        <time>2018-07-18T10:11:13Z</time>
      </trkpt>
      <trkpt lat="47.796" lon="-3.63007">
        <ele>36</ele>
        <time>2018-07-18T10:11:14Z</time>
      </trkpt>
      <trkpt lat="47.79605" lon="-3.63008">
        <ele>36</ele>
        <time>2018-07-18T10:11:15Z</time>
      </trkpt>
      <trkpt lat="47.79609" lon="-3.63007">
        <ele>36</ele>
        <time>2018-07-18T10:11:16Z</time>
      </trkpt>
      <trkpt lat="47.79614" lon="-3.63007">
        <ele>36</ele>
        <time>2018-07-18T10:11:17Z</time>
      </trkpt>
      <trkpt lat="47.79619" lon="-3.63007">
        <ele>36</ele>
        <time>2018-07-18T10:11:18Z</time>
      </trkpt>
      <trkpt lat="47.79625" lon="-3.63008">
        <ele>36</ele>
        <time>2018-07-18T10:11:19Z</time>
      </trkpt>
      <trkpt lat="47.7963" lon="-3.63009">
        <ele>36</ele>
        <time>2018-07-18T10:11:20Z</time>
      </trkpt>
      <trkpt lat="47.79636" lon="-3.63012">
        <ele>36</ele>
        <time>2018-07-18T10:11:21Z</time>
      </trkpt>
      <trkpt lat="47.79641" lon="-3.63016">
        <ele>36</ele>
        <time>2018-07-18T10:11:22Z</time>
      </trkpt>
      <trkpt lat="47.79647" lon="-3.63022">
        <ele>36</ele>
        <time>2018-07-18T10:11:23Z</time>
      </trkpt>
      <trkpt lat="47.79651" lon="-3.63028">
        <ele>36</ele>
        <time>2018-07-18T10:11:24Z</time>
      </trkpt>
      <trkpt lat="47.79654" lon="-3.63035">
        <ele>36</ele>
        <time>2018-07-18T10:11:25Z</time>
      </trkpt>
      <trkpt lat="47.79656" lon="-3.63041">
        <ele>36</ele>
        <time>2018-07-18T10:11:26Z</time>
      </trkpt>
      <trkpt lat="47.7966" lon="-3.63045">
        <ele>37</ele>
        <time>2018-07-18T10:11:27Z</time>
      </trkpt>
      <trkpt lat="47.79663" lon="-3.63048">
        <ele>37</ele>
        <time>2018-07-18T10:11:28Z</time>
      </trkpt>
      <trkpt lat="47.79668" lon="-3.6305">
        <ele>37</ele>
        <time>2018-07-18T10:11:29Z</time>
      </trkpt>
      <trkpt lat="47.79672" lon="-3.6305">
        <ele>37</ele>
        <time>2018-07-18T10:11:30Z</time>
      </trkpt>
      <trkpt lat="47.79675" lon="-3.6305">
        <ele>37</ele>
        <time>2018-07-18T10:11:31Z</time>
      </trkpt>
      <trkpt lat="47.79679" lon="-3.6305">
        <ele>37</ele>
        <time>2018-07-18T10:11:32Z</time>
      </trkpt>
      <trkpt lat="47.79682" lon="-3.6305">
        <ele>37</ele>
        <time>2018-07-18T10:11:33Z</time>
      </trkpt>
      <trkpt lat="47.79685" lon="-3.63051">
        <ele>37</ele>
        <time>2018-07-18T10:11:34Z</time>
      </trkpt>
      <trkpt lat="47.79689" lon="-3.63051">
        <ele>37</ele>
        <time>2018-07-18T10:11:35Z</time>
      </trkpt>
      <trkpt lat="47.79692" lon="-3.63051">
        <ele>37</ele>
        <time>2018-07-18T10:11:36Z</time>
      </trkpt>
      <trkpt lat="47.79695" lon="-3.63051">
        <ele>37</ele>
        <time>2018-07-18T10:11:37Z</time>
      </trkpt>
      <trkpt lat="47.79697" lon="-3.6305">
        <ele>37</ele>
        <time>2018-07-18T10:11:38Z</time>
      </trkpt>
      <trkpt lat="47.797" lon="-3.6305">
        <ele>37</ele>
        <time>2018-07-18T10:11:39Z</time>
      </trkpt>
      <trkpt lat="47.79702" lon="-3.63049">
        <ele>37</ele>
        <time>2018-07-18T10:11:40Z</time>
      </trkpt>
      <trkpt lat="47.79705" lon="-3.63049">
        <ele>37</ele>
        <time>2018-07-18T10:11:41Z</time>
      </trkpt>
      <trkpt lat="47.79709" lon="-3.63049">
        <ele>37</ele>
        <time>2018-07-18T10:11:42Z</time>
      </trkpt>
      <trkpt lat="47.79711" lon="-3.63049">
        <ele>37</ele>
        <time>2018-07-18T10:11:43Z</time>
      </trkpt>
      <trkpt lat="47.79714" lon="-3.63049">
        <ele>37</ele>
        <time>2018-07-18T10:11:44Z</time>
      </trkpt>
      <trkpt lat="47.79716" lon="-3.63048">
        <ele>37</ele>
        <time>2018-07-18T10:11:45Z</time>
      </trkpt>
      <trkpt lat="47.79719" lon="-3.63048">
        <ele>37</ele>
        <time>2018-07-18T10:11:46Z</time>
      </trkpt>
      <trkpt lat="47.79722" lon="-3.63048">
        <ele>37</ele>
        <time>2018-07-18T10:11:47Z</time>
      </trkpt>
      <trkpt lat="47.79724" lon="-3.63049">
        <ele>37</ele>
        <time>2018-07-18T10:11:48Z</time>
      </trkpt>
      <trkpt lat="47.79726" lon="-3.63048">
        <ele>37</ele>
        <time>2018-07-18T10:11:49Z</time>
      </trkpt>
      <trkpt lat="47.79727" lon="-3.63048">
        <ele>37</ele>
        <time>2018-07-18T10:11:50Z</time>
      </trkpt>
      <trkpt lat="47.79728" lon="-3.63048">
        <ele>37</ele>
        <time>2018-07-18T10:11:51Z</time>
      </trkpt>
      <trkpt lat="47.79729" lon="-3.63048">
        <ele>37</ele>
        <time>2018-07-18T10:11:52Z</time>
      </trkpt>
      <trkpt lat="47.79729" lon="-3.63048">
        <ele>37</ele>
        <time>2018-07-18T10:11:53Z</time>
      </trkpt>
      <trkpt lat="47.7973" lon="-3.63048">
        <ele>37</ele>
        <time>2018-07-18T10:11:54Z</time>
      </trkpt>
      <trkpt lat="47.79731" lon="-3.63048">
        <ele>37</ele>
        <time>2018-07-18T10:11:55Z</time>
      </trkpt>
      <trkpt lat="47.79732" lon="-3.63048">
        <ele>37</ele>
        <time>2018-07-18T10:11:56Z</time>
      </trkpt>
      <trkpt lat="47.79733" lon="-3.63048">
        <ele>37</ele>
        <time>2018-07-18T10:11:57Z</time>
      </trkpt>
      <trkpt lat="47.79734" lon="-3.63047">
        <ele>37</ele>
        <time>2018-07-18T10:11:58Z</time>
      </trkpt>
      <trkpt lat="47.79735" lon="-3.63046">
        <ele>37</ele>
        <time>2018-07-18T10:11:59Z</time>
      </trkpt>
      <trkpt lat="47.79735" lon="-3.63045">
        <ele>36</ele>
        <time>2018-07-18T10:12:00Z</time>
      </trkpt>
      <trkpt lat="47.79736" lon="-3.63045">
        <ele>36</ele>
        <time>2018-07-18T10:12:01Z</time>
      </trkpt>
      <trkpt lat="47.79737" lon="-3.63044">
        <ele>36</ele>
        <time>2018-07-18T10:12:02Z</time>
      </trkpt>
      <trkpt lat="47.79738" lon="-3.63044">
        <ele>36</ele>
        <time>2018-07-18T10:12:03Z</time>
      </trkpt>
      <trkpt lat="47.79738" lon="-3.63043">
        <ele>36</ele>
        <time>2018-07-18T10:12:04Z</time>
      </trkpt>
      <trkpt lat="47.79738" lon="-3.63043">
        <ele>36</ele>
        <time>2018-07-18T10:12:05Z</time>
      </trkpt>
      <trkpt lat="47.79738" lon="-3.63042">
        <ele>36</ele>
        <time>2018-07-18T10:12:06Z</time>
      </trkpt>
      <trkpt lat="47.79739" lon="-3.63041">
        <ele>36</ele>
        <time>2018-07-18T10:12:07Z</time>
      </trkpt>
      <trkpt lat="47.79739" lon="-3.63041">
        <ele>36</ele>
        <time>2018-07-18T10:12:08Z</time>
      </trkpt>
      <trkpt lat="47.79739" lon="-3.6304">
        <ele>36</ele>
        <time>2018-07-18T10:12:09Z</time>
      </trkpt>
      <trkpt lat="47.79739" lon="-3.63039">
        <ele>36</ele>
        <time>2018-07-18T10:12:10Z</time>
      </trkpt>
      <trkpt lat="47.79739" lon="-3.63038">
        <ele>36</ele>
        <time>2018-07-18T10:12:11Z</time>
      </trkpt>
      <trkpt lat="47.79739" lon="-3.63038">
        <ele>36</ele>
        <time>2018-07-18T10:12:12Z</time>
      </trkpt>
      <trkpt lat="47.79739" lon="-3.63037">
        <ele>36</ele>
        <time>2018-07-18T10:12:13Z</time>
      </trkpt>
      <trkpt lat="47.79738" lon="-3.63037">
        <ele>36</ele>
        <time>2018-07-18T10:12:14Z</time>
      </trkpt>
      <trkpt lat="47.79738" lon="-3.63035">
        <ele>36</ele>
        <time>2018-07-18T10:12:15Z</time>
      </trkpt>
      <trkpt lat="47.79738" lon="-3.63034">
        <ele>36</ele>
        <time>2018-07-18T10:12:16Z</time>
      </trkpt>
      <trkpt lat="47.79738" lon="-3.63033">
        <ele>36</ele>
        <time>2018-07-18T10:12:17Z</time>
      </trkpt>
      <trkpt lat="47.79738" lon="-3.63032">
        <ele>36</ele>
        <time>2018-07-18T10:12:18Z</time>
      </trkpt>
      <trkpt lat="47.79738" lon="-3.63032">
        <ele>36</ele>
        <time>2018-07-18T10:12:19Z</time>
      </trkpt>
      <trkpt lat="47.79738" lon="-3.63032">
        <ele>36</ele>
        <time>2018-07-18T10:12:20Z</time>
      </trkpt>
      <trkpt lat="47.79739" lon="-3.63031">
        <ele>36</ele>
        <time>2018-07-18T10:12:21Z</time>
      </trkpt>
      <trkpt lat="47.79738" lon="-3.63028">
        <ele>36</ele>
        <time>2018-07-18T10:12:22Z</time>
      </trkpt>
      <trkpt lat="47.79737" lon="-3.63027">
        <ele>36</ele>
        <time>2018-07-18T10:12:23Z</time>
      </trkpt>
      <trkpt lat="47.79735" lon="-3.63025">
        <ele>36</ele>
        <time>2018-07-18T10:12:24Z</time>
      </trkpt>
      <trkpt lat="47.79734" lon="-3.63025">
        <ele>36</ele>
        <time>2018-07-18T10:12:25Z</time>
      </trkpt>
      <trkpt lat="47.79733" lon="-3.63024">
        <ele>36</ele>
        <time>2018-07-18T10:12:26Z</time>
      </trkpt>
      <trkpt lat="47.79733" lon="-3.63022">
        <ele>36</ele>
        <time>2018-07-18T10:12:27Z</time>
      </trkpt>
      <trkpt lat="47.79732" lon="-3.63021">
        <ele>36</ele>
        <time>2018-07-18T10:12:28Z</time>
      </trkpt>
      <trkpt lat="47.79732" lon="-3.63019">
        <ele>36</ele>
        <time>2018-07-18T10:12:29Z</time>
      </trkpt>
      <trkpt lat="47.79732" lon="-3.63016">
        <ele>36</ele>
        <time>2018-07-18T10:12:30Z</time>
      </trkpt>
      <trkpt lat="47.79733" lon="-3.63014">
        <ele>36</ele>
        <time>2018-07-18T10:12:31Z</time>
      </trkpt>
      <trkpt lat="47.79732" lon="-3.63012">
        <ele>36</ele>
        <time>2018-07-18T10:12:32Z</time>
      </trkpt>
      <trkpt lat="47.79732" lon="-3.63009">
        <ele>36</ele>
        <time>2018-07-18T10:12:33Z</time>
      </trkpt>
      <trkpt lat="47.79731" lon="-3.63006">
        <ele>36</ele>
        <time>2018-07-18T10:12:34Z</time>
      </trkpt>
      <trkpt lat="47.79731" lon="-3.63004">
        <ele>36</ele>
        <time>2018-07-18T10:12:35Z</time>
      </trkpt>
      <trkpt lat="47.79731" lon="-3.63001">
        <ele>36</ele>
        <time>2018-07-18T10:12:36Z</time>
      </trkpt>
      <trkpt lat="47.7973" lon="-3.62999">
        <ele>36</ele>
        <time>2018-07-18T10:12:37Z</time>
      </trkpt>
      <trkpt lat="47.79729" lon="-3.62996">
        <ele>36</ele>
        <time>2018-07-18T10:12:38Z</time>
      </trkpt>
      <trkpt lat="47.79728" lon="-3.62993">
        <ele>36</ele>
        <time>2018-07-18T10:12:39Z</time>
      </trkpt>
      <trkpt lat="47.79728" lon="-3.6299">
        <ele>36</ele>
        <time>2018-07-18T10:12:40Z</time>
      </trkpt>
      <trkpt lat="47.79727" lon="-3.62986">
        <ele>35</ele>
        <time>2018-07-18T10:12:41Z</time>
      </trkpt>
      <trkpt lat="47.79727" lon="-3.62984">
        <ele>35</ele>
        <time>2018-07-18T10:12:42Z</time>
      </trkpt>
      <trkpt lat="47.79727" lon="-3.62981">
        <ele>35</ele>
        <time>2018-07-18T10:12:43Z</time>
      </trkpt>
      <trkpt lat="47.79727" lon="-3.62978">
        <ele>35</ele>
        <time>2018-07-18T10:12:44Z</time>
      </trkpt>
      <trkpt lat="47.79728" lon="-3.62976">
        <ele>35</ele>
        <time>2018-07-18T10:12:45Z</time>
      </trkpt>
      <trkpt lat="47.79729" lon="-3.62973">
        <ele>35</ele>
        <time>2018-07-18T10:12:46Z</time>
      </trkpt>
      <trkpt lat="47.7973" lon="-3.6297">
        <ele>35</ele>
        <time>2018-07-18T10:12:47Z</time>
      </trkpt>
      <trkpt lat="47.79731" lon="-3.62967">
        <ele>35</ele>
        <time>2018-07-18T10:12:48Z</time>
      </trkpt>
      <trkpt lat="47.79731" lon="-3.62963">
        <ele>35</ele>
        <time>2018-07-18T10:12:49Z</time>
      </trkpt>
      <trkpt lat="47.79732" lon="-3.6296">
        <ele>35</ele>
        <time>2018-07-18T10:12:50Z</time>
      </trkpt>
      <trkpt lat="47.79733" lon="-3.62956">
        <ele>35</ele>
        <time>2018-07-18T10:12:51Z</time>
      </trkpt>
      <trkpt lat="47.79735" lon="-3.62953">
        <ele>35</ele>
        <time>2018-07-18T10:12:52Z</time>
      </trkpt>
      <trkpt lat="47.79736" lon="-3.62951">
        <ele>35</ele>
        <time>2018-07-18T10:12:53Z</time>
      </trkpt>
      <trkpt lat="47.79737" lon="-3.62947">
        <ele>35</ele>
        <time>2018-07-18T10:12:54Z</time>
      </trkpt>
      <trkpt lat="47.79739" lon="-3.62944">
        <ele>35</ele>
        <time>2018-07-18T10:12:55Z</time>
      </trkpt>
      <trkpt lat="47.7974" lon="-3.6294">
        <ele>35</ele>
        <time>2018-07-18T10:12:56Z</time>
      </trkpt>
      <trkpt lat="47.79742" lon="-3.62936">
        <ele>36</ele>
        <time>2018-07-18T10:12:57Z</time>
      </trkpt>
      <trkpt lat="47.79743" lon="-3.62932">
        <ele>36</ele>
        <time>2018-07-18T10:12:58Z</time>
      </trkpt>
      <trkpt lat="47.79745" lon="-3.62928">
        <ele>36</ele>
        <time>2018-07-18T10:12:59Z</time>
      </trkpt>
      <trkpt lat="47.79746" lon="-3.62924">
        <ele>36</ele>
        <time>2018-07-18T10:13:00Z</time>
      </trkpt>
      <trkpt lat="47.79748" lon="-3.62921">
        <ele>36</ele>
        <time>2018-07-18T10:13:01Z</time>
      </trkpt>
      <trkpt lat="47.79749" lon="-3.62918">
        <ele>36</ele>
        <time>2018-07-18T10:13:02Z</time>
      </trkpt>
      <trkpt lat="47.79749" lon="-3.62915">
        <ele>36</ele>
        <time>2018-07-18T10:13:03Z</time>
      </trkpt>
      <trkpt lat="47.7975" lon="-3.62912">
        <ele>37</ele>
        <time>2018-07-18T10:13:04Z</time>
      </trkpt>
      <trkpt lat="47.79752" lon="-3.62909">
        <ele>37</ele>
        <time>2018-07-18T10:13:05Z</time>
      </trkpt>
      <trkpt lat="47.79753" lon="-3.62904">
        <ele>37</ele>
        <time>2018-07-18T10:13:06Z</time>
      </trkpt>
      <trkpt lat="47.79755" lon="-3.629">
        <ele>37</ele>
        <time>2018-07-18T10:13:07Z</time>
      </trkpt>
      <trkpt lat="47.79757" lon="-3.62896">
        <ele>37</ele>
        <time>2018-07-18T10:13:08Z</time>
      </trkpt>
      <trkpt lat="47.79758" lon="-3.62892">
        <ele>37</ele>
        <time>2018-07-18T10:13:09Z</time>
      </trkpt>
      <trkpt lat="47.7976" lon="-3.62887">
        <ele>37</ele>
        <time>2018-07-18T10:13:10Z</time>
      </trkpt>
      <trkpt lat="47.79762" lon="-3.62882">
        <ele>37</ele>
        <time>2018-07-18T10:13:11Z</time>
      </trkpt>
      <trkpt lat="47.79763" lon="-3.62877">
        <ele>37</ele>
        <time>2018-07-18T10:13:12Z</time>
      </trkpt>
      <trkpt lat="47.79764" lon="-3.62873">
        <ele>38</ele>
        <time>2018-07-18T10:13:13Z</time>
      </trkpt>
      <trkpt lat="47.79765" lon="-3.62869">
        <ele>38</ele>
        <time>2018-07-18T10:13:14Z</time>
      </trkpt>
      <trkpt lat="47.79767" lon="-3.62864">
        <ele>38</ele>
        <time>2018-07-18T10:13:15Z</time>
      </trkpt>
      <trkpt lat="47.79769" lon="-3.62859">
        <ele>38</ele>
        <time>2018-07-18T10:13:16Z</time>
      </trkpt>
      <trkpt lat="47.79771" lon="-3.62855">
        <ele>38</ele>
        <time>2018-07-18T10:13:17Z</time>
      </trkpt>
      <trkpt lat="47.79774" lon="-3.62851">
        <ele>39</ele>
        <time>2018-07-18T10:13:18Z</time>
      </trkpt>
      <trkpt lat="47.79776" lon="-3.62846">
        <ele>39</ele>
        <time>2018-07-18T10:13:19Z</time>
      </trkpt>
      <trkpt lat="47.79778" lon="-3.62841">
        <ele>39</ele>
        <time>2018-07-18T10:13:20Z</time>
      </trkpt>
      <trkpt lat="47.7978" lon="-3.62838">
        <ele>39</ele>
        <time>2018-07-18T10:13:21Z</time>
      </trkpt>
      <trkpt lat="47.79781" lon="-3.62834">
        <ele>39</ele>
        <time>2018-07-18T10:13:22Z</time>
      </trkpt>
      <trkpt lat="47.79783" lon="-3.6283">
        <ele>39</ele>
        <time>2018-07-18T10:13:23Z</time>
      </trkpt>
      <trkpt lat="47.79784" lon="-3.62825">
        <ele>39</ele>
        <time>2018-07-18T10:13:24Z</time>
      </trkpt>
      <trkpt lat="47.79786" lon="-3.6282">
        <ele>39</ele>
        <time>2018-07-18T10:13:25Z</time>
      </trkpt>
      <trkpt lat="47.79787" lon="-3.62815">
        <ele>39</ele>
        <time>2018-07-18T10:13:26Z</time>
      </trkpt>
      <trkpt lat="47.79788" lon="-3.62809">
        <ele>39</ele>
        <time>2018-07-18T10:13:27Z</time>
      </trkpt>
      <trkpt lat="47.79788" lon="-3.62805">
        <ele>39</ele>
        <time>2018-07-18T10:13:28Z</time>
      </trkpt>
      <trkpt lat="47.7979" lon="-3.62798">
        <ele>39</ele>
        <time>2018-07-18T10:13:29Z</time>
      </trkpt>
      <trkpt lat="47.7979" lon="-3.62791">
        <ele>39</ele>
        <time>2018-07-18T10:13:30Z</time>
      </trkpt>
      <trkpt lat="47.7979" lon="-3.62783">
        <ele>39</ele>
        <time>2018-07-18T10:13:31Z</time>
      </trkpt>
      <trkpt lat="47.7979" lon="-3.62774">
        <ele>40</ele>
        <time>2018-07-18T10:13:32Z</time>
      </trkpt>
      <trkpt lat="47.79791" lon="-3.62765">
        <ele>40</ele>
        <time>2018-07-18T10:13:33Z</time>
      </trkpt>
      <trkpt lat="47.7979" lon="-3.62757">
        <ele>40</ele>
        <time>2018-07-18T10:13:34Z</time>
      </trkpt>
      <trkpt lat="47.79789" lon="-3.6275">
        <ele>40</ele>
        <time>2018-07-18T10:13:35Z</time>
      </trkpt>
      <trkpt lat="47.79788" lon="-3.62744">
        <ele>40</ele>
        <time>2018-07-18T10:13:36Z</time>
      </trkpt>
      <trkpt lat="47.79787" lon="-3.62739">
        <ele>40</ele>
        <time>2018-07-18T10:13:37Z</time>
      </trkpt>
      <trkpt lat="47.79786" lon="-3.62735">
        <ele>40</ele>
        <time>2018-07-18T10:13:38Z</time>
      </trkpt>
      <trkpt lat="47.79786" lon="-3.6273">
        <ele>40</ele>
        <time>2018-07-18T10:13:39Z</time>
      </trkpt>
      <trkpt lat="47.79785" lon="-3.62726">
        <ele>40</ele>
        <time>2018-07-18T10:13:40Z</time>
      </trkpt>
      <trkpt lat="47.79785" lon="-3.62721">
        <ele>40</ele>
        <time>2018-07-18T10:13:41Z</time>
      </trkpt>
      <trkpt lat="47.79786" lon="-3.62716">
        <ele>40</ele>
        <time>2018-07-18T10:13:42Z</time>
      </trkpt>
      <trkpt lat="47.79786" lon="-3.62711">
        <ele>40</ele>
        <time>2018-07-18T10:13:43Z</time>
      </trkpt>
      <trkpt lat="47.79787" lon="-3.62706">
        <ele>40</ele>
        <time>2018-07-18T10:13:44Z</time>
      </trkpt>
      <trkpt lat="47.79787" lon="-3.627">
        <ele>40</ele>
        <time>2018-07-18T10:13:45Z</time>
      </trkpt>
      <trkpt lat="47.79788" lon="-3.62694">
        <ele>40</ele>
        <time>2018-07-18T10:13:46Z</time>
      </trkpt>
      <trkpt lat="47.79788" lon="-3.62689">
        <ele>40</ele>
        <time>2018-07-18T10:13:47Z</time>
      </trkpt>
      <trkpt lat="47.79788" lon="-3.62684">
        <ele>40</ele>
        <time>2018-07-18T10:13:48Z</time>
      </trkpt>
      <trkpt lat="47.79789" lon="-3.62678">
        <ele>40</ele>
        <time>2018-07-18T10:13:49Z</time>
      </trkpt>
      <trkpt lat="47.79789" lon="-3.62674">
        <ele>40</ele>
        <time>2018-07-18T10:13:50Z</time>
      </trkpt>
      <trkpt lat="47.79788" lon="-3.6267">
        <ele>40</ele>
        <time>2018-07-18T10:13:51Z</time>
      </trkpt>
      <trkpt lat="47.79789" lon="-3.62666">
        <ele>40</ele>
        <time>2018-07-18T10:13:52Z</time>
      </trkpt>
      <trkpt lat="47.79791" lon="-3.62663">
        <ele>40</ele>
        <time>2018-07-18T10:13:53Z</time>
      </trkpt>
      <trkpt lat="47.79793" lon="-3.62658">
        <ele>40</ele>
        <time>2018-07-18T10:13:54Z</time>
      </trkpt>
      <trkpt lat="47.79796" lon="-3.62653">
        <ele>40</ele>
        <time>2018-07-18T10:13:55Z</time>
      </trkpt>
      <trkpt lat="47.79798" lon="-3.62647">
        <ele>40</ele>
        <time>2018-07-18T10:13:56Z</time>
      </trkpt>
      <trkpt lat="47.798" lon="-3.6264">
        <ele>40</ele>
        <time>2018-07-18T10:13:57Z</time>
      </trkpt>
      <trkpt lat="47.79801" lon="-3.62634">
        <ele>40</ele>
        <time>2018-07-18T10:13:58Z</time>
      </trkpt>
      <trkpt lat="47.79804" lon="-3.62628">
        <ele>40</ele>
        <time>2018-07-18T10:13:59Z</time>
      </trkpt>
      <trkpt lat="47.79805" lon="-3.62622">
        <ele>40</ele>
        <time>2018-07-18T10:14:00Z</time>
      </trkpt>
      <trkpt lat="47.79807" lon="-3.62617">
        <ele>40</ele>
        <time>2018-07-18T10:14:01Z</time>
      </trkpt>
      <trkpt lat="47.79808" lon="-3.62614">
        <ele>40</ele>
        <time>2018-07-18T10:14:02Z</time>
      </trkpt>
      <trkpt lat="47.7981" lon="-3.62612">
        <ele>40</ele>
        <time>2018-07-18T10:14:03Z</time>
      </trkpt>
      <trkpt lat="47.7981" lon="-3.62611">
        <ele>40</ele>
        <time>2018-07-18T10:14:04Z</time>
      </trkpt>
      <trkpt lat="47.79811" lon="-3.6261">
        <ele>40</ele>
        <time>2018-07-18T10:14:05Z</time>
      </trkpt>
      <trkpt lat="47.79813" lon="-3.62608">
        <ele>40</ele>
        <time>2018-07-18T10:14:06Z</time>
      </trkpt>
      <trkpt lat="47.79814" lon="-3.62607">
        <ele>40</ele>
        <time>2018-07-18T10:14:07Z</time>
      </trkpt>
      <trkpt lat="47.79816" lon="-3.62606">
        <ele>40</ele>
        <time>2018-07-18T10:14:08Z</time>
      </trkpt>
      <trkpt lat="47.79817" lon="-3.62604">
        <ele>40</ele>
        <time>2018-07-18T10:14:09Z</time>
      </trkpt>
      <trkpt lat="47.79818" lon="-3.62601">
        <ele>40</ele>
        <time>2018-07-18T10:14:10Z</time>
      </trkpt>
      <trkpt lat="47.7982" lon="-3.62597">
        <ele>40</ele>
        <time>2018-07-18T10:14:11Z</time>
      </trkpt>
      <trkpt lat="47.79821" lon="-3.62595">
        <ele>40</ele>
        <time>2018-07-18T10:14:12Z</time>
      </trkpt>
      <trkpt lat="47.79823" lon="-3.62591">
        <ele>40</ele>
        <time>2018-07-18T10:14:13Z</time>
      </trkpt>
      <trkpt lat="47.79824" lon="-3.62588">
        <ele>39</ele>
        <time>2018-07-18T10:14:14Z</time>
      </trkpt>
      <trkpt lat="47.79826" lon="-3.62584">
        <ele>39</ele>
        <time>2018-07-18T10:14:15Z</time>
      </trkpt>
      <trkpt lat="47.79827" lon="-3.6258">
        <ele>39</ele>
        <time>2018-07-18T10:14:16Z</time>
      </trkpt>
      <trkpt lat="47.79829" lon="-3.62576">
        <ele>39</ele>
        <time>2018-07-18T10:14:17Z</time>
      </trkpt>
      <trkpt lat="47.7983" lon="-3.62573">
        <ele>39</ele>
        <time>2018-07-18T10:14:18Z</time>
      </trkpt>
      <trkpt lat="47.79832" lon="-3.62569">
        <ele>39</ele>
        <time>2018-07-18T10:14:19Z</time>
      </trkpt>
      <trkpt lat="47.79834" lon="-3.62565">
        <ele>39</ele>
        <time>2018-07-18T10:14:20Z</time>
      </trkpt>
      <trkpt lat="47.79835" lon="-3.62561">
        <ele>39</ele>
        <time>2018-07-18T10:14:21Z</time>
      </trkpt>
      <trkpt lat="47.79837" lon="-3.62557">
        <ele>39</ele>
        <time>2018-07-18T10:14:22Z</time>
      </trkpt>
      <trkpt lat="47.79838" lon="-3.62553">
        <ele>38</ele>
        <time>2018-07-18T10:14:23Z</time>
      </trkpt>
      <trkpt lat="47.7984" lon="-3.62551">
        <ele>38</ele>
        <time>2018-07-18T10:14:24Z</time>
      </trkpt>
      <trkpt lat="47.79842" lon="-3.62548">
        <ele>38</ele>
        <time>2018-07-18T10:14:25Z</time>
      </trkpt>
      <trkpt lat="47.79844" lon="-3.62544">
        <ele>38</ele>
        <time>2018-07-18T10:14:26Z</time>
      </trkpt>
      <trkpt lat="47.79847" lon="-3.6254">
        <ele>38</ele>
        <time>2018-07-18T10:14:27Z</time>
      </trkpt>
      <trkpt lat="47.79849" lon="-3.62536">
        <ele>38</ele>
        <time>2018-07-18T10:14:28Z</time>
      </trkpt>
      <trkpt lat="47.79851" lon="-3.62533">
        <ele>39</ele>
        <time>2018-07-18T10:14:29Z</time>
      </trkpt>
      <trkpt lat="47.79853" lon="-3.62531">
        <ele>39</ele>
        <time>2018-07-18T10:14:30Z</time>
      </trkpt>
      <trkpt lat="47.79856" lon="-3.62529">
        <ele>39</ele>
        <time>2018-07-18T10:14:31Z</time>
      </trkpt>
      <trkpt lat="47.79858" lon="-3.62527">
        <ele>39</ele>
        <time>2018-07-18T10:14:32Z</time>
      </trkpt>
      <trkpt lat="47.79861" lon="-3.62524">
        <ele>39</ele>
        <time>2018-07-18T10:14:33Z</time>
      </trkpt>
      <trkpt lat="47.79864" lon="-3.62521">
        <ele>39</ele>
        <time>2018-07-18T10:14:34Z</time>
      </trkpt>
      <trkpt lat="47.79867" lon="-3.62517">
        <ele>39</ele>
        <time>2018-07-18T10:14:35Z</time>
      </trkpt>
      <trkpt lat="47.7987" lon="-3.62515">
        <ele>39</ele>
        <time>2018-07-18T10:14:36Z</time>
      </trkpt>
      <trkpt lat="47.79873" lon="-3.62513">
        <ele>39</ele>
        <time>2018-07-18T10:14:37Z</time>
      </trkpt>
      <trkpt lat="47.79876" lon="-3.62511">
        <ele>39</ele>
        <time>2018-07-18T10:14:38Z</time>
      </trkpt>
      <trkpt lat="47.79879" lon="-3.6251">
        <ele>39</ele>
        <time>2018-07-18T10:14:39Z</time>
      </trkpt>
      <trkpt lat="47.79882" lon="-3.62509">
        <ele>39</ele>
        <time>2018-07-18T10:14:40Z</time>
      </trkpt>
      <trkpt lat="47.79884" lon="-3.62508">
        <ele>40</ele>
        <time>2018-07-18T10:14:41Z</time>
      </trkpt>
      <trkpt lat="47.79887" lon="-3.62507">
        <ele>40</ele>
        <time>2018-07-18T10:14:42Z</time>
      </trkpt>
      <trkpt lat="47.7989" lon="-3.62505">
        <ele>40</ele>
        <time>2018-07-18T10:14:43Z</time>
      </trkpt>
      <trkpt lat="47.79894" lon="-3.62502">
        <ele>40</ele>
        <time>2018-07-18T10:14:44Z</time>
      </trkpt>
      <trkpt lat="47.79896" lon="-3.62499">
        <ele>40</ele>
        <time>2018-07-18T10:14:45Z</time>
      </trkpt>
      <trkpt lat="47.79899" lon="-3.62495">
        <ele>40</ele>
        <time>2018-07-18T10:14:46Z</time>
      </trkpt>
      <trkpt lat="47.79901" lon="-3.62491">
        <ele>41</ele>
        <time>2018-07-18T10:14:47Z</time>
      </trkpt>
      <trkpt lat="47.79903" lon="-3.62487">
        <ele>41</ele>
        <time>2018-07-18T10:14:48Z</time>
      </trkpt>
      <trkpt lat="47.79903" lon="-3.62483">
        <ele>41</ele>
        <time>2018-07-18T10:14:49Z</time>
      </trkpt>
      <trkpt lat="47.79903" lon="-3.6248">
        <ele>41</ele>
        <time>2018-07-18T10:14:50Z</time>
      </trkpt>
      <trkpt lat="47.799" lon="-3.62478">
        <ele>41</ele>
        <time>2018-07-18T10:14:51Z</time>
      </trkpt>
      <trkpt lat="47.79898" lon="-3.62477">
        <ele>41</ele>
        <time>2018-07-18T10:14:52Z</time>
      </trkpt>
      <trkpt lat="47.79894" lon="-3.62476">
        <ele>41</ele>
        <time>2018-07-18T10:14:53Z</time>
      </trkpt>
      <trkpt lat="47.7989" lon="-3.62475">
        <ele>41</ele>
        <time>2018-07-18T10:14:54Z</time>
      </trkpt>
      <trkpt lat="47.79886" lon="-3.62474">
        <ele>40</ele>
        <time>2018-07-18T10:14:55Z</time>
      </trkpt>
      <trkpt lat="47.79882" lon="-3.62474">
        <ele>40</ele>
        <time>2018-07-18T10:14:56Z</time>
      </trkpt>
      <trkpt lat="47.79878" lon="-3.62473">
        <ele>40</ele>
        <time>2018-07-18T10:14:57Z</time>
      </trkpt>
      <trkpt lat="47.79873" lon="-3.62472">
        <ele>40</ele>
        <time>2018-07-18T10:14:58Z</time>
      </trkpt>
      <trkpt lat="47.79868" lon="-3.62472">
        <ele>40</ele>
        <time>2018-07-18T10:14:59Z</time>
      </trkpt>
      <trkpt lat="47.79863" lon="-3.62471">
        <ele>40</ele>
        <time>2018-07-18T10:15:00Z</time>
      </trkpt>
      <trkpt lat="47.79859" lon="-3.6247">
        <ele>40</ele>
        <time>2018-07-18T10:15:01Z</time>
      </trkpt>
      <trkpt lat="47.79854" lon="-3.6247">
        <ele>40</ele>
        <time>2018-07-18T10:15:02Z</time>
      </trkpt>
      <trkpt lat="47.7985" lon="-3.62469">
        <ele>40</ele>
        <time>2018-07-18T10:15:03Z</time>
      </trkpt>
      <trkpt lat="47.79845" lon="-3.62469">
        <ele>40</ele>
        <time>2018-07-18T10:15:04Z</time>
      </trkpt>
      <trkpt lat="47.79841" lon="-3.62468">
        <ele>40</ele>
        <time>2018-07-18T10:15:05Z</time>
      </trkpt>
      <trkpt lat="47.79837" lon="-3.62466">
        <ele>40</ele>
        <time>2018-07-18T10:15:06Z</time>
      </trkpt>
      <trkpt lat="47.79835" lon="-3.62464">
        <ele>40</ele>
        <time>2018-07-18T10:15:07Z</time>
      </trkpt>
      <trkpt lat="47.79834" lon="-3.6246">
        <ele>40</ele>
        <time>2018-07-18T10:15:08Z</time>
      </trkpt>
      <trkpt lat="47.79835" lon="-3.62458">
        <ele>40</ele>
        <time>2018-07-18T10:15:09Z</time>
      </trkpt>
      <trkpt lat="47.79836" lon="-3.62454">
        <ele>40</ele>
        <time>2018-07-18T10:15:10Z</time>
      </trkpt>
      <trkpt lat="47.79837" lon="-3.62451">
        <ele>40</ele>
        <time>2018-07-18T10:15:11Z</time>
      </trkpt>
      <trkpt lat="47.79839" lon="-3.62447">
        <ele>40</ele>
        <time>2018-07-18T10:15:12Z</time>
      </trkpt>
      <trkpt lat="47.79841" lon="-3.62444">
        <ele>40</ele>
        <time>2018-07-18T10:15:13Z</time>
      </trkpt>
      <trkpt lat="47.79844" lon="-3.6244">
        <ele>40</ele>
        <time>2018-07-18T10:15:14Z</time>
      </trkpt>
      <trkpt lat="47.79847" lon="-3.62436">
        <ele>40</ele>
        <time>2018-07-18T10:15:15Z</time>
      </trkpt>
      <trkpt lat="47.79849" lon="-3.62434">
        <ele>40</ele>
        <time>2018-07-18T10:15:16Z</time>
      </trkpt>
      <trkpt lat="47.79852" lon="-3.62431">
        <ele>40</ele>
        <time>2018-07-18T10:15:17Z</time>
      </trkpt>
      <trkpt lat="47.79855" lon="-3.62427">
        <ele>40</ele>
        <time>2018-07-18T10:15:18Z</time>
      </trkpt>
      <trkpt lat="47.79859" lon="-3.62422">
        <ele>41</ele>
        <time>2018-07-18T10:15:19Z</time>
      </trkpt>
      <trkpt lat="47.79862" lon="-3.62417">
        <ele>41</ele>
        <time>2018-07-18T10:15:20Z</time>
      </trkpt>
      <trkpt lat="47.79864" lon="-3.62413">
        <ele>41</ele>
        <time>2018-07-18T10:15:21Z</time>
      </trkpt>
      <trkpt lat="47.79866" lon="-3.6241">
        <ele>41</ele>
        <time>2018-07-18T10:15:22Z</time>
      </trkpt>
      <trkpt lat="47.79869" lon="-3.62405">
        <ele>41</ele>
        <time>2018-07-18T10:15:23Z</time>
      </trkpt>
      <trkpt lat="47.79871" lon="-3.62402">
        <ele>41</ele>
        <time>2018-07-18T10:15:24Z</time>
      </trkpt>
      <trkpt lat="47.79873" lon="-3.62398">
        <ele>41</ele>
        <time>2018-07-18T10:15:25Z</time>
      </trkpt>
      <trkpt lat="47.79875" lon="-3.62395">
        <ele>41</ele>
        <time>2018-07-18T10:15:26Z</time>
      </trkpt>
      <trkpt lat="47.79876" lon="-3.62391">
        <ele>41</ele>
        <time>2018-07-18T10:15:27Z</time>
      </trkpt>
      <trkpt lat="47.79879" lon="-3.62387">
        <ele>41</ele>
        <time>2018-07-18T10:15:28Z</time>
      </trkpt>
      <trkpt lat="47.79881" lon="-3.62384">
        <ele>41</ele>
        <time>2018-07-18T10:15:29Z</time>
      </trkpt>
      <trkpt lat="47.79883" lon="-3.62381">
        <ele>41</ele>
        <time>2018-07-18T10:15:30Z</time>
      </trkpt>
      <trkpt lat="47.79886" lon="-3.62377">
        <ele>41</ele>
        <time>2018-07-18T10:15:31Z</time>
      </trkpt>
      <trkpt lat="47.79889" lon="-3.62373">
        <ele>41</ele>
        <time>2018-07-18T10:15:32Z</time>
      </trkpt>
      <trkpt lat="47.79892" lon="-3.6237">
        <ele>42</ele>
        <time>2018-07-18T10:15:33Z</time>
      </trkpt>
      <trkpt lat="47.79894" lon="-3.62366">
        <ele>42</ele>
        <time>2018-07-18T10:15:34Z</time>
      </trkpt>
      <trkpt lat="47.79896" lon="-3.62363">
        <ele>42</ele>
        <time>2018-07-18T10:15:35Z</time>
      </trkpt>
      <trkpt lat="47.799" lon="-3.62359">
        <ele>42</ele>
        <time>2018-07-18T10:15:36Z</time>
      </trkpt>
      <trkpt lat="47.79903" lon="-3.62355">
        <ele>42</ele>
        <time>2018-07-18T10:15:37Z</time>
      </trkpt>
      <trkpt lat="47.79907" lon="-3.62351">
        <ele>42</ele>
        <time>2018-07-18T10:15:38Z</time>
      </trkpt>
      <trkpt lat="47.7991" lon="-3.62347">
        <ele>42</ele>
        <time>2018-07-18T10:15:39Z</time>
      </trkpt>
      <trkpt lat="47.79913" lon="-3.62343">
        <ele>42</ele>
        <time>2018-07-18T10:15:40Z</time>
      </trkpt>
      <trkpt lat="47.79916" lon="-3.6234">
        <ele>42</ele>
        <time>2018-07-18T10:15:41Z</time>
      </trkpt>
      <trkpt lat="47.7992" lon="-3.62336">
        <ele>42</ele>
        <time>2018-07-18T10:15:42Z</time>
      </trkpt>
      <trkpt lat="47.79923" lon="-3.62331">
        <ele>42</ele>
        <time>2018-07-18T10:15:43Z</time>
      </trkpt>
      <trkpt lat="47.79927" lon="-3.62327">
        <ele>43</ele>
        <time>2018-07-18T10:15:44Z</time>
      </trkpt>
      <trkpt lat="47.7993" lon="-3.62323">
        <ele>43</ele>
        <time>2018-07-18T10:15:45Z</time>
      </trkpt>
      <trkpt lat="47.79933" lon="-3.62319">
        <ele>43</ele>
        <time>2018-07-18T10:15:46Z</time>
      </trkpt>
      <trkpt lat="47.79936" lon="-3.62316">
        <ele>43</ele>
        <time>2018-07-18T10:15:47Z</time>
      </trkpt>
      <trkpt lat="47.79939" lon="-3.62311">
        <ele>43</ele>
        <time>2018-07-18T10:15:48Z</time>
      </trkpt>
      <trkpt lat="47.79942" lon="-3.62307">
        <ele>43</ele>
        <time>2018-07-18T10:15:49Z</time>
      </trkpt>
      <trkpt lat="47.79946" lon="-3.62303">
        <ele>43</ele>
        <time>2018-07-18T10:15:50Z</time>
      </trkpt>
      <trkpt lat="47.79949" lon="-3.62297">
        <ele>43</ele>
        <time>2018-07-18T10:15:51Z</time>
      </trkpt>
      <trkpt lat="47.79953" lon="-3.62293">
        <ele>43</ele>
        <time>2018-07-18T10:15:52Z</time>
      </trkpt>
      <trkpt lat="47.79957" lon="-3.62288">
        <ele>43</ele>
        <time>2018-07-18T10:15:53Z</time>
      </trkpt>
      <trkpt lat="47.7996" lon="-3.62284">
        <ele>44</ele>
        <time>2018-07-18T10:15:54Z</time>
      </trkpt>
      <trkpt lat="47.79963" lon="-3.6228">
        <ele>44</ele>
        <time>2018-07-18T10:15:55Z</time>
      </trkpt>
      <trkpt lat="47.79965" lon="-3.62276">
        <ele>44</ele>
        <time>2018-07-18T10:15:56Z</time>
      </trkpt>
      <trkpt lat="47.79968" lon="-3.62274">
        <ele>44</ele>
        <time>2018-07-18T10:15:57Z</time>
      </trkpt>
      <trkpt lat="47.79971" lon="-3.62272">
        <ele>44</ele>
        <time>2018-07-18T10:15:58Z</time>
      </trkpt>
      <trkpt lat="47.79975" lon="-3.6227">
        <ele>44</ele>
        <time>2018-07-18T10:15:59Z</time>
      </trkpt>
      <trkpt lat="47.79978" lon="-3.62265">
        <ele>44</ele>
        <time>2018-07-18T10:16:00Z</time>
      </trkpt>
      <trkpt lat="47.79981" lon="-3.62258">
        <ele>44</ele>
        <time>2018-07-18T10:16:01Z</time>
      </trkpt>
      <trkpt lat="47.79984" lon="-3.62251">
        <ele>44</ele>
        <time>2018-07-18T10:16:02Z</time>
      </trkpt>
      <trkpt lat="47.79986" lon="-3.62244">
        <ele>44</ele>
        <time>2018-07-18T10:16:03Z</time>
      </trkpt>
      <trkpt lat="47.79989" lon="-3.62238">
        <ele>44</ele>
        <time>2018-07-18T10:16:04Z</time>
      </trkpt>
      <trkpt lat="47.79991" lon="-3.62233">
        <ele>44</ele>
        <time>2018-07-18T10:16:05Z</time>
      </trkpt>
      <trkpt lat="47.79994" lon="-3.62228">
        <ele>44</ele>
        <time>2018-07-18T10:16:06Z</time>
      </trkpt>
      <trkpt lat="47.79995" lon="-3.62224">
        <ele>45</ele>
        <time>2018-07-18T10:16:07Z</time>
      </trkpt>
      <trkpt lat="47.79998" lon="-3.6222">
        <ele>45</ele>
        <time>2018-07-18T10:16:08Z</time>
      </trkpt>
      <trkpt lat="47.80001" lon="-3.62216">
        <ele>45</ele>
        <time>2018-07-18T10:16:09Z</time>
      </trkpt>
      <trkpt lat="47.80004" lon="-3.62212">
        <ele>45</ele>
        <time>2018-07-18T10:16:10Z</time>
      </trkpt>
      <trkpt lat="47.80006" lon="-3.6221">
        <ele>45</ele>
        <time>2018-07-18T10:16:11Z</time>
      </trkpt>
      <trkpt lat="47.80008" lon="-3.62207">
        <ele>45</ele>
        <time>2018-07-18T10:16:12Z</time>
      </trkpt>
      <trkpt lat="47.8001" lon="-3.62205">
        <ele>45</ele>
        <time>2018-07-18T10:16:13Z</time>
      </trkpt>
      <trkpt lat="47.80012" lon="-3.62204">
        <ele>45</ele>
        <time>2018-07-18T10:16:14Z</time>
      </trkpt>
      <trkpt lat="47.80013" lon="-3.62202">
        <ele>45</ele>
        <time>2018-07-18T10:16:15Z</time>
      </trkpt>
      <trkpt lat="47.80014" lon="-3.62201">
        <ele>45</ele>
        <time>2018-07-18T10:16:16Z</time>
      </trkpt>
      <trkpt lat="47.80015" lon="-3.622">
        <ele>46</ele>
        <time>2018-07-18T10:16:17Z</time>
      </trkpt>
      <trkpt lat="47.80016" lon="-3.62199">
        <ele>46</ele>
        <time>2018-07-18T10:16:18Z</time>
      </trkpt>
      <trkpt lat="47.80016" lon="-3.62198">
        <ele>46</ele>
        <time>2018-07-18T10:16:19Z</time>
      </trkpt>
      <trkpt lat="47.80017" lon="-3.62196">
        <ele>46</ele>
        <time>2018-07-18T10:16:20Z</time>
      </trkpt>
      <trkpt lat="47.80018" lon="-3.62194">
        <ele>46</ele>
        <time>2018-07-18T10:16:21Z</time>
      </trkpt>
      <trkpt lat="47.80019" lon="-3.62194">
        <ele>46</ele>
        <time>2018-07-18T10:16:22Z</time>
      </trkpt>
      <trkpt lat="47.8002" lon="-3.62192">
        <ele>46</ele>
        <time>2018-07-18T10:16:23Z</time>
      </trkpt>
      <trkpt lat="47.80021" lon="-3.62192">
        <ele>46</ele>
        <time>2018-07-18T10:16:24Z</time>
      </trkpt>
      <trkpt lat="47.80021" lon="-3.62191">
        <ele>46</ele>
        <time>2018-07-18T10:16:25Z</time>
      </trkpt>
      <trkpt lat="47.80022" lon="-3.6219">
        <ele>46</ele>
        <time>2018-07-18T10:16:26Z</time>
      </trkpt>
      <trkpt lat="47.80022" lon="-3.62189">
        <ele>47</ele>
        <time>2018-07-18T10:16:27Z</time>
      </trkpt>
      <trkpt lat="47.80023" lon="-3.62189">
        <ele>47</ele>
        <time>2018-07-18T10:16:28Z</time>
      </trkpt>
      <trkpt lat="47.80023" lon="-3.62188">
        <ele>47</ele>
        <time>2018-07-18T10:16:29Z</time>
      </trkpt>
      <trkpt lat="47.80024" lon="-3.62188">
        <ele>47</ele>
        <time>2018-07-18T10:16:30Z</time>
      </trkpt>
      <trkpt lat="47.80024" lon="-3.62187">
        <ele>47</ele>
        <time>2018-07-18T10:16:31Z</time>
      </trkpt>
      <trkpt lat="47.80029" lon="-3.62181">
        <ele>47</ele>
        <time>2018-07-18T10:16:32Z</time>
      </trkpt>
      <trkpt lat="47.8003" lon="-3.62178">
        <ele>47</ele>
        <time>2018-07-18T10:16:33Z</time>
      </trkpt>
      <trkpt lat="47.80032" lon="-3.62175">
        <ele>47</ele>
        <time>2018-07-18T10:16:34Z</time>
      </trkpt>
      <trkpt lat="47.80034" lon="-3.6217">
        <ele>47</ele>
        <time>2018-07-18T10:16:35Z</time>
      </trkpt>
      <trkpt lat="47.80037" lon="-3.62165">
        <ele>47</ele>
        <time>2018-07-18T10:16:36Z</time>
      </trkpt>
      <trkpt lat="47.80039" lon="-3.62158">
        <ele>47</ele>
        <time>2018-07-18T10:16:37Z</time>
      </trkpt>
      <trkpt lat="47.80041" lon="-3.62153">
        <ele>47</ele>
        <time>2018-07-18T10:16:38Z</time>
      </trkpt>
      <trkpt lat="47.80043" lon="-3.62148">
        <ele>47</ele>
        <time>2018-07-18T10:16:39Z</time>
      </trkpt>
      <trkpt lat="47.80045" lon="-3.62143">
        <ele>47</ele>
        <time>2018-07-18T10:16:40Z</time>
      </trkpt>
      <trkpt lat="47.80047" lon="-3.62138">
        <ele>47</ele>
        <time>2018-07-18T10:16:41Z</time>
      </trkpt>
      <trkpt lat="47.8005" lon="-3.62133">
        <ele>47</ele>
        <time>2018-07-18T10:16:42Z</time>
      </trkpt>
      <trkpt lat="47.80052" lon="-3.62128">
        <ele>47</ele>
        <time>2018-07-18T10:16:43Z</time>
      </trkpt>
      <trkpt lat="47.80054" lon="-3.62123">
        <ele>47</ele>
        <time>2018-07-18T10:16:44Z</time>
      </trkpt>
      <trkpt lat="47.80057" lon="-3.62117">
        <ele>47</ele>
        <time>2018-07-18T10:16:45Z</time>
      </trkpt>
      <trkpt lat="47.80059" lon="-3.62112">
        <ele>47</ele>
        <time>2018-07-18T10:16:46Z</time>
      </trkpt>
      <trkpt lat="47.80061" lon="-3.62106">
        <ele>47</ele>
        <time>2018-07-18T10:16:47Z</time>
      </trkpt>
      <trkpt lat="47.80064" lon="-3.62101">
        <ele>47</ele>
        <time>2018-07-18T10:16:48Z</time>
      </trkpt>
      <trkpt lat="47.80066" lon="-3.62096">
        <ele>47</ele>
        <time>2018-07-18T10:16:49Z</time>
      </trkpt>
      <trkpt lat="47.80069" lon="-3.6209">
        <ele>47</ele>
        <time>2018-07-18T10:16:50Z</time>
      </trkpt>
      <trkpt lat="47.80072" lon="-3.62084">
        <ele>48</ele>
        <time>2018-07-18T10:16:51Z</time>
      </trkpt>
      <trkpt lat="47.80075" lon="-3.62079">
        <ele>48</ele>
        <time>2018-07-18T10:16:52Z</time>
      </trkpt>
      <trkpt lat="47.80077" lon="-3.62073">
        <ele>48</ele>
        <time>2018-07-18T10:16:53Z</time>
      </trkpt>
      <trkpt lat="47.80079" lon="-3.62067">
        <ele>48</ele>
        <time>2018-07-18T10:16:54Z</time>
      </trkpt>
      <trkpt lat="47.8008" lon="-3.62061">
        <ele>48</ele>
        <time>2018-07-18T10:16:55Z</time>
      </trkpt>
      <trkpt lat="47.80081" lon="-3.62054">
        <ele>48</ele>
        <time>2018-07-18T10:16:56Z</time>
      </trkpt>
      <trkpt lat="47.80082" lon="-3.62048">
        <ele>49</ele>
        <time>2018-07-18T10:16:57Z</time>
      </trkpt>
      <trkpt lat="47.80083" lon="-3.62041">
        <ele>49</ele>
        <time>2018-07-18T10:16:58Z</time>
      </trkpt>
      <trkpt lat="47.80084" lon="-3.62035">
        <ele>49</ele>
        <time>2018-07-18T10:16:59Z</time>
      </trkpt>
      <trkpt lat="47.80085" lon="-3.62029">
        <ele>49</ele>
        <time>2018-07-18T10:17:00Z</time>
      </trkpt>
      <trkpt lat="47.80086" lon="-3.62022">
        <ele>49</ele>
        <time>2018-07-18T10:17:01Z</time>
      </trkpt>
      <trkpt lat="47.80087" lon="-3.62016">
        <ele>49</ele>
        <time>2018-07-18T10:17:02Z</time>
      </trkpt>
      <trkpt lat="47.80088" lon="-3.6201">
        <ele>49</ele>
        <time>2018-07-18T10:17:03Z</time>
      </trkpt>
      <trkpt lat="47.80091" lon="-3.62004">
        <ele>50</ele>
        <time>2018-07-18T10:17:04Z</time>
      </trkpt>
      <trkpt lat="47.80093" lon="-3.61999">
        <ele>50</ele>
        <time>2018-07-18T10:17:05Z</time>
      </trkpt>
      <trkpt lat="47.80095" lon="-3.61993">
        <ele>50</ele>
        <time>2018-07-18T10:17:06Z</time>
      </trkpt>
      <trkpt lat="47.80097" lon="-3.61987">
        <ele>50</ele>
        <time>2018-07-18T10:17:07Z</time>
      </trkpt>
      <trkpt lat="47.80099" lon="-3.61981">
        <ele>50</ele>
        <time>2018-07-18T10:17:08Z</time>
      </trkpt>
      <trkpt lat="47.80101" lon="-3.61975">
        <ele>50</ele>
        <time>2018-07-18T10:17:09Z</time>
      </trkpt>
      <trkpt lat="47.80102" lon="-3.61969">
        <ele>51</ele>
        <time>2018-07-18T10:17:10Z</time>
      </trkpt>
      <trkpt lat="47.80102" lon="-3.61965">
        <ele>51</ele>
        <time>2018-07-18T10:17:11Z</time>
      </trkpt>
      <trkpt lat="47.80103" lon="-3.61961">
        <ele>51</ele>
        <time>2018-07-18T10:17:12Z</time>
      </trkpt>
      <trkpt lat="47.80104" lon="-3.61955">
        <ele>51</ele>
        <time>2018-07-18T10:17:13Z</time>
      </trkpt>
      <trkpt lat="47.80105" lon="-3.61949">
        <ele>51</ele>
        <time>2018-07-18T10:17:14Z</time>
      </trkpt>
      <trkpt lat="47.80107" lon="-3.61944">
        <ele>51</ele>
        <time>2018-07-18T10:17:15Z</time>
      </trkpt>
      <trkpt lat="47.80108" lon="-3.61939">
        <ele>51</ele>
        <time>2018-07-18T10:17:16Z</time>
      </trkpt>
      <trkpt lat="47.80109" lon="-3.61934">
        <ele>51</ele>
        <time>2018-07-18T10:17:17Z</time>
      </trkpt>
      <trkpt lat="47.80112" lon="-3.61927">
        <ele>51</ele>
        <time>2018-07-18T10:17:18Z</time>
      </trkpt>
      <trkpt lat="47.80114" lon="-3.61922">
        <ele>51</ele>
        <time>2018-07-18T10:17:19Z</time>
      </trkpt>
      <trkpt lat="47.80116" lon="-3.61918">
        <ele>51</ele>
        <time>2018-07-18T10:17:20Z</time>
      </trkpt>
      <trkpt lat="47.80118" lon="-3.61915">
        <ele>51</ele>
        <time>2018-07-18T10:17:21Z</time>
      </trkpt>
      <trkpt lat="47.80121" lon="-3.61911">
        <ele>51</ele>
        <time>2018-07-18T10:17:22Z</time>
      </trkpt>
      <trkpt lat="47.80123" lon="-3.61908">
        <ele>51</ele>
        <time>2018-07-18T10:17:23Z</time>
      </trkpt>
      <trkpt lat="47.80125" lon="-3.61903">
        <ele>51</ele>
        <time>2018-07-18T10:17:24Z</time>
      </trkpt>
      <trkpt lat="47.80127" lon="-3.61898">
        <ele>51</ele>
        <time>2018-07-18T10:17:25Z</time>
      </trkpt>
      <trkpt lat="47.80129" lon="-3.61893">
        <ele>51</ele>
        <time>2018-07-18T10:17:26Z</time>
      </trkpt>
      <trkpt lat="47.80131" lon="-3.61888">
        <ele>51</ele>
        <time>2018-07-18T10:17:27Z</time>
      </trkpt>
      <trkpt lat="47.80131" lon="-3.61883">
        <ele>51</ele>
        <time>2018-07-18T10:17:28Z</time>
      </trkpt>
      <trkpt lat="47.80129" lon="-3.61877">
        <ele>52</ele>
        <time>2018-07-18T10:17:29Z</time>
      </trkpt>
      <trkpt lat="47.80127" lon="-3.61873">
        <ele>52</ele>
        <time>2018-07-18T10:17:30Z</time>
      </trkpt>
      <trkpt lat="47.80125" lon="-3.61869">
        <ele>52</ele>
        <time>2018-07-18T10:17:31Z</time>
      </trkpt>
      <trkpt lat="47.80123" lon="-3.61865">
        <ele>52</ele>
        <time>2018-07-18T10:17:32Z</time>
      </trkpt>
      <trkpt lat="47.8012" lon="-3.6186">
        <ele>52</ele>
        <time>2018-07-18T10:17:33Z</time>
      </trkpt>
      <trkpt lat="47.80117" lon="-3.61854">
        <ele>52</ele>
        <time>2018-07-18T10:17:34Z</time>
      </trkpt>
      <trkpt lat="47.80114" lon="-3.61849">
        <ele>53</ele>
        <time>2018-07-18T10:17:35Z</time>
      </trkpt>
      <trkpt lat="47.80112" lon="-3.61843">
        <ele>53</ele>
        <time>2018-07-18T10:17:36Z</time>
      </trkpt>
      <trkpt lat="47.80109" lon="-3.61837">
        <ele>53</ele>
        <time>2018-07-18T10:17:37Z</time>
      </trkpt>
      <trkpt lat="47.80106" lon="-3.61832">
        <ele>53</ele>
        <time>2018-07-18T10:17:38Z</time>
      </trkpt>
      <trkpt lat="47.80103" lon="-3.61826">
        <ele>53</ele>
        <time>2018-07-18T10:17:39Z</time>
      </trkpt>
      <trkpt lat="47.801" lon="-3.6182">
        <ele>53</ele>
        <time>2018-07-18T10:17:40Z</time>
      </trkpt>
      <trkpt lat="47.80098" lon="-3.61816">
        <ele>54</ele>
        <time>2018-07-18T10:17:41Z</time>
      </trkpt>
      <trkpt lat="47.80095" lon="-3.61811">
        <ele>54</ele>
        <time>2018-07-18T10:17:42Z</time>
      </trkpt>
      <trkpt lat="47.80093" lon="-3.61806">
        <ele>54</ele>
        <time>2018-07-18T10:17:43Z</time>
      </trkpt>
      <trkpt lat="47.8009" lon="-3.61802">
        <ele>54</ele>
        <time>2018-07-18T10:17:44Z</time>
      </trkpt>
      <trkpt lat="47.80088" lon="-3.61798">
        <ele>54</ele>
        <time>2018-07-18T10:17:45Z</time>
      </trkpt>
      <trkpt lat="47.80086" lon="-3.61794">
        <ele>55</ele>
        <time>2018-07-18T10:17:46Z</time>
      </trkpt>
      <trkpt lat="47.80083" lon="-3.61791">
        <ele>55</ele>
        <time>2018-07-18T10:17:47Z</time>
      </trkpt>
      <trkpt lat="47.8008" lon="-3.61787">
        <ele>55</ele>
        <time>2018-07-18T10:17:48Z</time>
      </trkpt>
      <trkpt lat="47.80076" lon="-3.61783">
        <ele>55</ele>
        <time>2018-07-18T10:17:49Z</time>
      </trkpt>
      <trkpt lat="47.80072" lon="-3.61779">
        <ele>55</ele>
        <time>2018-07-18T10:17:50Z</time>
      </trkpt>
      <trkpt lat="47.80067" lon="-3.61776">
        <ele>55</ele>
        <time>2018-07-18T10:17:51Z</time>
      </trkpt>
      <trkpt lat="47.80061" lon="-3.61772">
        <ele>55</ele>
        <time>2018-07-18T10:17:52Z</time>
      </trkpt>
      <trkpt lat="47.80056" lon="-3.61769">
        <ele>54</ele>
        <time>2018-07-18T10:17:53Z</time>
      </trkpt>
      <trkpt lat="47.80051" lon="-3.61765">
        <ele>54</ele>
        <time>2018-07-18T10:17:54Z</time>
      </trkpt>
      <trkpt lat="47.80046" lon="-3.61761">
        <ele>53</ele>
        <time>2018-07-18T10:17:55Z</time>
      </trkpt>
      <trkpt lat="47.80041" lon="-3.61758">
        <ele>53</ele>
        <time>2018-07-18T10:17:56Z</time>
      </trkpt>
      <trkpt lat="47.80036" lon="-3.61755">
        <ele>53</ele>
        <time>2018-07-18T10:17:57Z</time>
      </trkpt>
      <trkpt lat="47.80031" lon="-3.61752">
        <ele>52</ele>
        <time>2018-07-18T10:17:58Z</time>
      </trkpt>
      <trkpt lat="47.80027" lon="-3.6175">
        <ele>52</ele>
        <time>2018-07-18T10:17:59Z</time>
      </trkpt>
      <trkpt lat="47.80023" lon="-3.61748">
        <ele>52</ele>
        <time>2018-07-18T10:18:00Z</time>
      </trkpt>
      <trkpt lat="47.80018" lon="-3.61746">
        <ele>51</ele>
        <time>2018-07-18T10:18:01Z</time>
      </trkpt>
      <trkpt lat="47.80013" lon="-3.61744">
        <ele>51</ele>
        <time>2018-07-18T10:18:02Z</time>
      </trkpt>
      <trkpt lat="47.80008" lon="-3.61741">
        <ele>51</ele>
        <time>2018-07-18T10:18:03Z</time>
      </trkpt>
      <trkpt lat="47.80004" lon="-3.61739">
        <ele>51</ele>
        <time>2018-07-18T10:18:04Z</time>
      </trkpt>
      <trkpt lat="47.79999" lon="-3.61738">
        <ele>51</ele>
        <time>2018-07-18T10:18:05Z</time>
      </trkpt>
      <trkpt lat="47.79996" lon="-3.61736">
        <ele>51</ele>
        <time>2018-07-18T10:18:06Z</time>
      </trkpt>
      <trkpt lat="47.79994" lon="-3.61734">
        <ele>51</ele>
        <time>2018-07-18T10:18:07Z</time>
      </trkpt>
      <trkpt lat="47.79993" lon="-3.61732">
        <ele>51</ele>
        <time>2018-07-18T10:18:08Z</time>
      </trkpt>
      <trkpt lat="47.79992" lon="-3.61729">
        <ele>51</ele>
        <time>2018-07-18T10:18:09Z</time>
      </trkpt>
      <trkpt lat="47.79991" lon="-3.61726">
        <ele>51</ele>
        <time>2018-07-18T10:18:10Z</time>
      </trkpt>
      <trkpt lat="47.79991" lon="-3.61721">
        <ele>52</ele>
        <time>2018-07-18T10:18:11Z</time>
      </trkpt>
      <trkpt lat="47.7999" lon="-3.61715">
        <ele>52</ele>
        <time>2018-07-18T10:18:12Z</time>
      </trkpt>
      <trkpt lat="47.7999" lon="-3.6171">
        <ele>52</ele>
        <time>2018-07-18T10:18:13Z</time>
      </trkpt>
      <trkpt lat="47.7999" lon="-3.61705">
        <ele>52</ele>
        <time>2018-07-18T10:18:14Z</time>
      </trkpt>
      <trkpt lat="47.7999" lon="-3.617">
        <ele>52</ele>
        <time>2018-07-18T10:18:15Z</time>
      </trkpt>
      <trkpt lat="47.7999" lon="-3.61694">
        <ele>52</ele>
        <time>2018-07-18T10:18:16Z</time>
      </trkpt>
      <trkpt lat="47.79989" lon="-3.61688">
        <ele>53</ele>
        <time>2018-07-18T10:18:17Z</time>
      </trkpt>
      <trkpt lat="47.79989" lon="-3.61682">
        <ele>53</ele>
        <time>2018-07-18T10:18:18Z</time>
      </trkpt>
      <trkpt lat="47.79989" lon="-3.61676">
        <ele>53</ele>
        <time>2018-07-18T10:18:19Z</time>
      </trkpt>
      <trkpt lat="47.79988" lon="-3.61669">
        <ele>53</ele>
        <time>2018-07-18T10:18:20Z</time>
      </trkpt>
      <trkpt lat="47.79987" lon="-3.61664">
        <ele>53</ele>
        <time>2018-07-18T10:18:21Z</time>
      </trkpt>
      <trkpt lat="47.79985" lon="-3.6166">
        <ele>53</ele>
        <time>2018-07-18T10:18:22Z</time>
      </trkpt>
      <trkpt lat="47.79985" lon="-3.61656">
        <ele>53</ele>
        <time>2018-07-18T10:18:23Z</time>
      </trkpt>
      <trkpt lat="47.79984" lon="-3.61651">
        <ele>53</ele>
        <time>2018-07-18T10:18:24Z</time>
      </trkpt>
      <trkpt lat="47.79984" lon="-3.61647">
        <ele>53</ele>
        <time>2018-07-18T10:18:25Z</time>
      </trkpt>
      <trkpt lat="47.79984" lon="-3.61643">
        <ele>53</ele>
        <time>2018-07-18T10:18:26Z</time>
      </trkpt>
      <trkpt lat="47.79984" lon="-3.61638">
        <ele>53</ele>
        <time>2018-07-18T10:18:27Z</time>
      </trkpt>
      <trkpt lat="47.79984" lon="-3.61633">
        <ele>54</ele>
        <time>2018-07-18T10:18:28Z</time>
      </trkpt>
      <trkpt lat="47.79984" lon="-3.61629">
        <ele>54</ele>
        <time>2018-07-18T10:18:29Z</time>
      </trkpt>
      <trkpt lat="47.79984" lon="-3.61626">
        <ele>54</ele>
        <time>2018-07-18T10:18:30Z</time>
      </trkpt>
      <trkpt lat="47.79984" lon="-3.61623">
        <ele>54</ele>
        <time>2018-07-18T10:18:31Z</time>
      </trkpt>
      <trkpt lat="47.79984" lon="-3.61619">
        <ele>54</ele>
        <time>2018-07-18T10:18:32Z</time>
      </trkpt>
      <trkpt lat="47.79984" lon="-3.61614">
        <ele>55</ele>
        <time>2018-07-18T10:18:33Z</time>
      </trkpt>
      <trkpt lat="47.79983" lon="-3.6161">
        <ele>55</ele>
        <time>2018-07-18T10:18:34Z</time>
      </trkpt>
      <trkpt lat="47.79983" lon="-3.61607">
        <ele>55</ele>
        <time>2018-07-18T10:18:35Z</time>
      </trkpt>
      <trkpt lat="47.79985" lon="-3.61606">
        <ele>55</ele>
        <time>2018-07-18T10:18:36Z</time>
      </trkpt>
      <trkpt lat="47.79987" lon="-3.61604">
        <ele>55</ele>
        <time>2018-07-18T10:18:37Z</time>
      </trkpt>
      <trkpt lat="47.79989" lon="-3.61603">
        <ele>55</ele>
        <time>2018-07-18T10:18:38Z</time>
      </trkpt>
      <trkpt lat="47.79991" lon="-3.61601">
        <ele>55</ele>
        <time>2018-07-18T10:18:39Z</time>
      </trkpt>
      <trkpt lat="47.79994" lon="-3.616">
        <ele>54</ele>
        <time>2018-07-18T10:18:40Z</time>
      </trkpt>
      <trkpt lat="47.79997" lon="-3.61598">
        <ele>54</ele>
        <time>2018-07-18T10:18:41Z</time>
      </trkpt>
      <trkpt lat="47.80001" lon="-3.61598">
        <ele>54</ele>
        <time>2018-07-18T10:18:42Z</time>
      </trkpt>
      <trkpt lat="47.80004" lon="-3.61597">
        <ele>54</ele>
        <time>2018-07-18T10:18:43Z</time>
      </trkpt>
      <trkpt lat="47.80005" lon="-3.61596">
        <ele>54</ele>
        <time>2018-07-18T10:18:44Z</time>
      </trkpt>
      <trkpt lat="47.80007" lon="-3.61595">
        <ele>54</ele>
        <time>2018-07-18T10:18:45Z</time>
      </trkpt>
      <trkpt lat="47.80008" lon="-3.61593">
        <ele>54</ele>
        <time>2018-07-18T10:18:46Z</time>
      </trkpt>
      <trkpt lat="47.8001" lon="-3.61591">
        <ele>55</ele>
        <time>2018-07-18T10:18:47Z</time>
      </trkpt>
      <trkpt lat="47.80013" lon="-3.61588">
        <ele>55</ele>
        <time>2018-07-18T10:18:48Z</time>
      </trkpt>
      <trkpt lat="47.80015" lon="-3.61585">
        <ele>55</ele>
        <time>2018-07-18T10:18:49Z</time>
      </trkpt>
      <trkpt lat="47.80018" lon="-3.61583">
        <ele>55</ele>
        <time>2018-07-18T10:18:50Z</time>
      </trkpt>
      <trkpt lat="47.8002" lon="-3.6158">
        <ele>56</ele>
        <time>2018-07-18T10:18:51Z</time>
      </trkpt>
      <trkpt lat="47.80023" lon="-3.61576">
        <ele>56</ele>
        <time>2018-07-18T10:18:52Z</time>
      </trkpt>
      <trkpt lat="47.80026" lon="-3.61571">
        <ele>56</ele>
        <time>2018-07-18T10:18:53Z</time>
      </trkpt>
      <trkpt lat="47.8003" lon="-3.61566">
        <ele>57</ele>
        <time>2018-07-18T10:18:54Z</time>
      </trkpt>
      <trkpt lat="47.80033" lon="-3.6156">
        <ele>57</ele>
        <time>2018-07-18T10:18:55Z</time>
      </trkpt>
      <trkpt lat="47.80036" lon="-3.61554">
        <ele>57</ele>
        <time>2018-07-18T10:18:56Z</time>
      </trkpt>
      <trkpt lat="47.80038" lon="-3.6155">
        <ele>57</ele>
        <time>2018-07-18T10:18:57Z</time>
      </trkpt>
      <trkpt lat="47.80042" lon="-3.61545">
        <ele>57</ele>
        <time>2018-07-18T10:18:58Z</time>
      </trkpt>
      <trkpt lat="47.80044" lon="-3.61541">
        <ele>57</ele>
        <time>2018-07-18T10:18:59Z</time>
      </trkpt>
      <trkpt lat="47.80046" lon="-3.61538">
        <ele>57</ele>
        <time>2018-07-18T10:19:00Z</time>
      </trkpt>
      <trkpt lat="47.80048" lon="-3.61533">
        <ele>57</ele>
        <time>2018-07-18T10:19:01Z</time>
      </trkpt>
      <trkpt lat="47.80049" lon="-3.61528">
        <ele>58</ele>
        <time>2018-07-18T10:19:02Z</time>
      </trkpt>
      <trkpt lat="47.8005" lon="-3.61522">
        <ele>58</ele>
        <time>2018-07-18T10:19:03Z</time>
      </trkpt>
      <trkpt lat="47.8005" lon="-3.61516">
        <ele>58</ele>
        <time>2018-07-18T10:19:04Z</time>
      </trkpt>
      <trkpt lat="47.80052" lon="-3.6151">
        <ele>58</ele>
        <time>2018-07-18T10:19:05Z</time>
      </trkpt>
      <trkpt lat="47.80054" lon="-3.61503">
        <ele>58</ele>
        <time>2018-07-18T10:19:06Z</time>
      </trkpt>
      <trkpt lat="47.80054" lon="-3.61498">
        <ele>58</ele>
        <time>2018-07-18T10:19:07Z</time>
      </trkpt>
      <trkpt lat="47.80055" lon="-3.61492">
        <ele>58</ele>
        <time>2018-07-18T10:19:08Z</time>
      </trkpt>
      <trkpt lat="47.80056" lon="-3.61487">
        <ele>58</ele>
        <time>2018-07-18T10:19:09Z</time>
      </trkpt>
      <trkpt lat="47.80056" lon="-3.61482">
        <ele>58</ele>
        <time>2018-07-18T10:19:10Z</time>
      </trkpt>
      <trkpt lat="47.80058" lon="-3.61476">
        <ele>58</ele>
        <time>2018-07-18T10:19:11Z</time>
      </trkpt>
      <trkpt lat="47.80059" lon="-3.61472">
        <ele>58</ele>
        <time>2018-07-18T10:19:12Z</time>
      </trkpt>
      <trkpt lat="47.8006" lon="-3.61467">
        <ele>58</ele>
        <time>2018-07-18T10:19:13Z</time>
      </trkpt>
      <trkpt lat="47.80062" lon="-3.61463">
        <ele>58</ele>
        <time>2018-07-18T10:19:14Z</time>
      </trkpt>
      <trkpt lat="47.80063" lon="-3.6146">
        <ele>58</ele>
        <time>2018-07-18T10:19:15Z</time>
      </trkpt>
      <trkpt lat="47.80064" lon="-3.61456">
        <ele>58</ele>
        <time>2018-07-18T10:19:16Z</time>
      </trkpt>
      <trkpt lat="47.80066" lon="-3.6145">
        <ele>59</ele>
        <time>2018-07-18T10:19:17Z</time>
      </trkpt>
      <trkpt lat="47.80068" lon="-3.61444">
        <ele>59</ele>
        <time>2018-07-18T10:19:18Z</time>
      </trkpt>
      <trkpt lat="47.8007" lon="-3.61438">
        <ele>59</ele>
        <time>2018-07-18T10:19:19Z</time>
      </trkpt>
      <trkpt lat="47.80073" lon="-3.6143">
        <ele>59</ele>
        <time>2018-07-18T10:19:20Z</time>
      </trkpt>
      <trkpt lat="47.80075" lon="-3.61423">
        <ele>59</ele>
        <time>2018-07-18T10:19:21Z</time>
      </trkpt>
      <trkpt lat="47.80076" lon="-3.61416">
        <ele>59</ele>
        <time>2018-07-18T10:19:22Z</time>
      </trkpt>
      <trkpt lat="47.80077" lon="-3.61409">
        <ele>59</ele>
        <time>2018-07-18T10:19:23Z</time>
      </trkpt>
      <trkpt lat="47.80077" lon="-3.61401">
        <ele>59</ele>
        <time>2018-07-18T10:19:24Z</time>
      </trkpt>
      <trkpt lat="47.80077" lon="-3.61394">
        <ele>59</ele>
        <time>2018-07-18T10:19:25Z</time>
      </trkpt>
      <trkpt lat="47.80076" lon="-3.61388">
        <ele>59</ele>
        <time>2018-07-18T10:19:26Z</time>
      </trkpt>
      <trkpt lat="47.80076" lon="-3.61381">
        <ele>59</ele>
        <time>2018-07-18T10:19:27Z</time>
      </trkpt>
      <trkpt lat="47.80075" lon="-3.61374">
        <ele>59</ele>
        <time>2018-07-18T10:19:28Z</time>
      </trkpt>
      <trkpt lat="47.80073" lon="-3.61368">
        <ele>59</ele>
        <time>2018-07-18T10:19:29Z</time>
      </trkpt>
      <trkpt lat="47.80073" lon="-3.61364">
        <ele>58</ele>
        <time>2018-07-18T10:19:30Z</time>
      </trkpt>
      <trkpt lat="47.80072" lon="-3.6136">
        <ele>58</ele>
        <time>2018-07-18T10:19:31Z</time>
      </trkpt>
      <trkpt lat="47.80071" lon="-3.61356">
        <ele>58</ele>
        <time>2018-07-18T10:19:32Z</time>
      </trkpt>
      <trkpt lat="47.80069" lon="-3.61352">
        <ele>58</ele>
        <time>2018-07-18T10:19:33Z</time>
      </trkpt>
      <trkpt lat="47.80067" lon="-3.61347">
        <ele>58</ele>
        <time>2018-07-18T10:19:34Z</time>
      </trkpt>
      <trkpt lat="47.80065" lon="-3.61343">
        <ele>58</ele>
        <time>2018-07-18T10:19:35Z</time>
      </trkpt>
      <trkpt lat="47.80063" lon="-3.61339">
        <ele>58</ele>
        <time>2018-07-18T10:19:36Z</time>
      </trkpt>
      <trkpt lat="47.8006" lon="-3.61336">
        <ele>58</ele>
        <time>2018-07-18T10:19:37Z</time>
      </trkpt>
      <trkpt lat="47.80057" lon="-3.61332">
        <ele>57</ele>
        <time>2018-07-18T10:19:38Z</time>
      </trkpt>
      <trkpt lat="47.80055" lon="-3.61328">
        <ele>57</ele>
        <time>2018-07-18T10:19:39Z</time>
      </trkpt>
      <trkpt lat="47.80053" lon="-3.61325">
        <ele>57</ele>
        <time>2018-07-18T10:19:40Z</time>
      </trkpt>
      <trkpt lat="47.80051" lon="-3.61322">
        <ele>57</ele>
        <time>2018-07-18T10:19:41Z</time>
      </trkpt>
      <trkpt lat="47.8005" lon="-3.61318">
        <ele>57</ele>
        <time>2018-07-18T10:19:42Z</time>
      </trkpt>
      <trkpt lat="47.80048" lon="-3.61314">
        <ele>57</ele>
        <time>2018-07-18T10:19:43Z</time>
      </trkpt>
      <trkpt lat="47.80047" lon="-3.61308">
        <ele>57</ele>
        <time>2018-07-18T10:19:44Z</time>
      </trkpt>
      <trkpt lat="47.80046" lon="-3.61303">
        <ele>57</ele>
        <time>2018-07-18T10:19:45Z</time>
      </trkpt>
      <trkpt lat="47.80044" lon="-3.61297">
        <ele>57</ele>
        <time>2018-07-18T10:19:46Z</time>
      </trkpt>
      <trkpt lat="47.80044" lon="-3.61291">
        <ele>57</ele>
        <time>2018-07-18T10:19:47Z</time>
      </trkpt>
      <trkpt lat="47.80043" lon="-3.61285">
        <ele>57</ele>
        <time>2018-07-18T10:19:48Z</time>
      </trkpt>
      <trkpt lat="47.80042" lon="-3.61279">
        <ele>57</ele>
        <time>2018-07-18T10:19:49Z</time>
      </trkpt>
      <trkpt lat="47.80041" lon="-3.61273">
        <ele>57</ele>
        <time>2018-07-18T10:19:50Z</time>
      </trkpt>
      <trkpt lat="47.8004" lon="-3.61267">
        <ele>57</ele>
        <time>2018-07-18T10:19:51Z</time>
      </trkpt>
      <trkpt lat="47.80038" lon="-3.61261">
        <ele>57</ele>
        <time>2018-07-18T10:19:52Z</time>
      </trkpt>
      <trkpt lat="47.80037" lon="-3.61256">
        <ele>57</ele>
        <time>2018-07-18T10:19:53Z</time>
      </trkpt>
      <trkpt lat="47.80036" lon="-3.61249">
        <ele>57</ele>
        <time>2018-07-18T10:19:54Z</time>
      </trkpt>
      <trkpt lat="47.80036" lon="-3.61245">
        <ele>57</ele>
        <time>2018-07-18T10:19:55Z</time>
      </trkpt>
      <trkpt lat="47.80036" lon="-3.61243">
        <ele>56</ele>
        <time>2018-07-18T10:19:56Z</time>
      </trkpt>
      <trkpt lat="47.80036" lon="-3.61242">
        <ele>56</ele>
        <time>2018-07-18T10:19:57Z</time>
      </trkpt>
      <trkpt lat="47.80035" lon="-3.61241">
        <ele>56</ele>
        <time>2018-07-18T10:19:58Z</time>
      </trkpt>
      <trkpt lat="47.80034" lon="-3.6124">
        <ele>56</ele>
        <time>2018-07-18T10:19:59Z</time>
      </trkpt>
      <trkpt lat="47.80034" lon="-3.61238">
        <ele>56</ele>
        <time>2018-07-18T10:20:00Z</time>
      </trkpt>
      <trkpt lat="47.80033" lon="-3.61236">
        <ele>56</ele>
        <time>2018-07-18T10:20:01Z</time>
      </trkpt>
      <trkpt lat="47.80033" lon="-3.61233">
        <ele>56</ele>
        <time>2018-07-18T10:20:02Z</time>
      </trkpt>
      <trkpt lat="47.80033" lon="-3.61229">
        <ele>56</ele>
        <time>2018-07-18T10:20:03Z</time>
      </trkpt>
      <trkpt lat="47.80032" lon="-3.61226">
        <ele>56</ele>
        <time>2018-07-18T10:20:04Z</time>
      </trkpt>
      <trkpt lat="47.80031" lon="-3.61224">
        <ele>57</ele>
        <time>2018-07-18T10:20:05Z</time>
      </trkpt>
      <trkpt lat="47.80031" lon="-3.61221">
        <ele>57</ele>
        <time>2018-07-18T10:20:06Z</time>
      </trkpt>
      <trkpt lat="47.8003" lon="-3.61218">
        <ele>57</ele>
        <time>2018-07-18T10:20:07Z</time>
      </trkpt>
      <trkpt lat="47.80029" lon="-3.61214">
        <ele>57</ele>
        <time>2018-07-18T10:20:08Z</time>
      </trkpt>
      <trkpt lat="47.80029" lon="-3.61211">
        <ele>57</ele>
        <time>2018-07-18T10:20:09Z</time>
      </trkpt>
      <trkpt lat="47.80028" lon="-3.61207">
        <ele>57</ele>
        <time>2018-07-18T10:20:10Z</time>
      </trkpt>
      <trkpt lat="47.80027" lon="-3.61203">
        <ele>57</ele>
        <time>2018-07-18T10:20:11Z</time>
      </trkpt>
      <trkpt lat="47.80026" lon="-3.61199">
        <ele>57</ele>
        <time>2018-07-18T10:20:12Z</time>
      </trkpt>
      <trkpt lat="47.80024" lon="-3.61195">
        <ele>57</ele>
        <time>2018-07-18T10:20:13Z</time>
      </trkpt>
      <trkpt lat="47.80023" lon="-3.61193">
        <ele>57</ele>
        <time>2018-07-18T10:20:14Z</time>
      </trkpt>
      <trkpt lat="47.80021" lon="-3.6119">
        <ele>57</ele>
        <time>2018-07-18T10:20:15Z</time>
      </trkpt>
      <trkpt lat="47.80019" lon="-3.61188">
        <ele>57</ele>
        <time>2018-07-18T10:20:16Z</time>
      </trkpt>
      <trkpt lat="47.80017" lon="-3.61187">
        <ele>57</ele>
        <time>2018-07-18T10:20:17Z</time>
      </trkpt>
      <trkpt lat="47.80016" lon="-3.61186">
        <ele>57</ele>
        <time>2018-07-18T10:20:18Z</time>
      </trkpt>
      <trkpt lat="47.80014" lon="-3.61185">
        <ele>57</ele>
        <time>2018-07-18T10:20:19Z</time>
      </trkpt>
      <trkpt lat="47.80011" lon="-3.61186">
        <ele>58</ele>
        <time>2018-07-18T10:20:20Z</time>
      </trkpt>
      <trkpt lat="47.80008" lon="-3.61187">
        <ele>58</ele>
        <time>2018-07-18T10:20:21Z</time>
      </trkpt>
      <trkpt lat="47.80005" lon="-3.61188">
        <ele>58</ele>
        <time>2018-07-18T10:20:22Z</time>
      </trkpt>
      <trkpt lat="47.80002" lon="-3.61188">
        <ele>58</ele>
        <time>2018-07-18T10:20:23Z</time>
      </trkpt>
      <trkpt lat="47.79999" lon="-3.61188">
        <ele>58</ele>
        <time>2018-07-18T10:20:24Z</time>
      </trkpt>
      <trkpt lat="47.79996" lon="-3.61188">
        <ele>58</ele>
        <time>2018-07-18T10:20:25Z</time>
      </trkpt>
      <trkpt lat="47.79994" lon="-3.61187">
        <ele>58</ele>
        <time>2018-07-18T10:20:26Z</time>
      </trkpt>
      <trkpt lat="47.79992" lon="-3.61186">
        <ele>58</ele>
        <time>2018-07-18T10:20:27Z</time>
      </trkpt>
      <trkpt lat="47.79991" lon="-3.61184">
        <ele>58</ele>
        <time>2018-07-18T10:20:28Z</time>
      </trkpt>
      <trkpt lat="47.79989" lon="-3.61183">
        <ele>59</ele>
        <time>2018-07-18T10:20:29Z</time>
      </trkpt>
      <trkpt lat="47.79988" lon="-3.61183">
        <ele>59</ele>
        <time>2018-07-18T10:20:30Z</time>
      </trkpt>
      <trkpt lat="47.79985" lon="-3.61183">
        <ele>59</ele>
        <time>2018-07-18T10:20:31Z</time>
      </trkpt>
      <trkpt lat="47.79982" lon="-3.61183">
        <ele>59</ele>
        <time>2018-07-18T10:20:32Z</time>
      </trkpt>
      <trkpt lat="47.79981" lon="-3.61183">
        <ele>59</ele>
        <time>2018-07-18T10:20:33Z</time>
      </trkpt>
      <trkpt lat="47.7998" lon="-3.61182">
        <ele>59</ele>
        <time>2018-07-18T10:20:34Z</time>
      </trkpt>
      <trkpt lat="47.7998" lon="-3.61182">
        <ele>59</ele>
        <time>2018-07-18T10:20:35Z</time>
      </trkpt>
      <trkpt lat="47.79979" lon="-3.61182">
        <ele>59</ele>
        <time>2018-07-18T10:20:36Z</time>
      </trkpt>
      <trkpt lat="47.79979" lon="-3.61181">
        <ele>59</ele>
        <time>2018-07-18T10:20:37Z</time>
      </trkpt>
      <trkpt lat="47.79976" lon="-3.61181">
        <ele>59</ele>
        <time>2018-07-18T10:20:38Z</time>
      </trkpt>
      <trkpt lat="47.79975" lon="-3.61182">
        <ele>59</ele>
        <time>2018-07-18T10:20:39Z</time>
      </trkpt>
      <trkpt lat="47.79972" lon="-3.61183">
        <ele>59</ele>
        <time>2018-07-18T10:20:40Z</time>
      </trkpt>
      <trkpt lat="47.7997" lon="-3.61184">
        <ele>59</ele>
        <time>2018-07-18T10:20:41Z</time>
      </trkpt>
      <trkpt lat="47.79968" lon="-3.61185">
        <ele>59</ele>
        <time>2018-07-18T10:20:42Z</time>
      </trkpt>
      <trkpt lat="47.79965" lon="-3.61186">
        <ele>60</ele>
        <time>2018-07-18T10:20:43Z</time>
      </trkpt>
      <trkpt lat="47.79962" lon="-3.61187">
        <ele>60</ele>
        <time>2018-07-18T10:20:44Z</time>
      </trkpt>
      <trkpt lat="47.79958" lon="-3.61188">
        <ele>60</ele>
        <time>2018-07-18T10:20:45Z</time>
      </trkpt>
      <trkpt lat="47.79955" lon="-3.6119">
        <ele>60</ele>
        <time>2018-07-18T10:20:46Z</time>
      </trkpt>
      <trkpt lat="47.79952" lon="-3.61191">
        <ele>60</ele>
        <time>2018-07-18T10:20:47Z</time>
      </trkpt>
      <trkpt lat="47.79949" lon="-3.61192">
        <ele>60</ele>
        <time>2018-07-18T10:20:48Z</time>
      </trkpt>
      <trkpt lat="47.79946" lon="-3.61193">
        <ele>60</ele>
        <time>2018-07-18T10:20:49Z</time>
      </trkpt>
      <trkpt lat="47.79943" lon="-3.61193">
        <ele>60</ele>
        <time>2018-07-18T10:20:50Z</time>
      </trkpt>
      <trkpt lat="47.79939" lon="-3.61194">
        <ele>60</ele>
        <time>2018-07-18T10:20:51Z</time>
      </trkpt>
      <trkpt lat="47.79936" lon="-3.61197">
        <ele>60</ele>
        <time>2018-07-18T10:20:52Z</time>
      </trkpt>
      <trkpt lat="47.79932" lon="-3.612">
        <ele>60</ele>
        <time>2018-07-18T10:20:53Z</time>
      </trkpt>
      <trkpt lat="47.79929" lon="-3.61203">
        <ele>60</ele>
        <time>2018-07-18T10:20:54Z</time>
      </trkpt>
      <trkpt lat="47.79926" lon="-3.61206">
        <ele>60</ele>
        <time>2018-07-18T10:20:55Z</time>
      </trkpt>
      <trkpt lat="47.79923" lon="-3.6121">
        <ele>61</ele>
        <time>2018-07-18T10:20:56Z</time>
      </trkpt>
      <trkpt lat="47.7992" lon="-3.61213">
        <ele>61</ele>
        <time>2018-07-18T10:20:57Z</time>
      </trkpt>
      <trkpt lat="47.79918" lon="-3.61215">
        <ele>61</ele>
        <time>2018-07-18T10:20:58Z</time>
      </trkpt>
      <trkpt lat="47.79915" lon="-3.61218">
        <ele>61</ele>
        <time>2018-07-18T10:20:59Z</time>
      </trkpt>
      <trkpt lat="47.79911" lon="-3.61222">
        <ele>61</ele>
        <time>2018-07-18T10:21:00Z</time>
      </trkpt>
      <trkpt lat="47.79908" lon="-3.61225">
        <ele>61</ele>
        <time>2018-07-18T10:21:01Z</time>
      </trkpt>
      <trkpt lat="47.79905" lon="-3.61228">
        <ele>61</ele>
        <time>2018-07-18T10:21:02Z</time>
      </trkpt>
      <trkpt lat="47.79902" lon="-3.61231">
        <ele>62</ele>
        <time>2018-07-18T10:21:03Z</time>
      </trkpt>
      <trkpt lat="47.79899" lon="-3.61235">
        <ele>62</ele>
        <time>2018-07-18T10:21:04Z</time>
      </trkpt>
      <trkpt lat="47.79896" lon="-3.61239">
        <ele>62</ele>
        <time>2018-07-18T10:21:05Z</time>
      </trkpt>
      <trkpt lat="47.79893" lon="-3.61243">
        <ele>62</ele>
        <time>2018-07-18T10:21:06Z</time>
      </trkpt>
      <trkpt lat="47.79889" lon="-3.61248">
        <ele>62</ele>
        <time>2018-07-18T10:21:07Z</time>
      </trkpt>
      <trkpt lat="47.79886" lon="-3.61252">
        <ele>62</ele>
        <time>2018-07-18T10:21:08Z</time>
      </trkpt>
      <trkpt lat="47.79885" lon="-3.61253">
        <ele>62</ele>
        <time>2018-07-18T10:21:09Z</time>
      </trkpt>
      <trkpt lat="47.79884" lon="-3.61255">
        <ele>62</ele>
        <time>2018-07-18T10:21:10Z</time>
      </trkpt>
      <trkpt lat="47.79884" lon="-3.61255">
        <ele>61</ele>
        <time>2018-07-18T10:21:11Z</time>
      </trkpt>
      <trkpt lat="47.79883" lon="-3.61256">
        <ele>61</ele>
        <time>2018-07-18T10:21:12Z</time>
      </trkpt>
      <trkpt lat="47.79883" lon="-3.61256">
        <ele>61</ele>
        <time>2018-07-18T10:21:13Z</time>
      </trkpt>
      <trkpt lat="47.79883" lon="-3.61257">
        <ele>61</ele>
        <time>2018-07-18T10:21:14Z</time>
      </trkpt>
      <trkpt lat="47.79881" lon="-3.61259">
        <ele>60</ele>
        <time>2018-07-18T10:21:15Z</time>
      </trkpt>
      <trkpt lat="47.79882" lon="-3.61258">
        <ele>60</ele>
        <time>2018-07-18T10:21:16Z</time>
      </trkpt>
      <trkpt lat="47.79883" lon="-3.61258">
        <ele>59</ele>
        <time>2018-07-18T10:21:17Z</time>
      </trkpt>
      <trkpt lat="47.79884" lon="-3.61256">
        <ele>59</ele>
        <time>2018-07-18T10:21:18Z</time>
      </trkpt>
      <trkpt lat="47.79884" lon="-3.61256">
        <ele>59</ele>
        <time>2018-07-18T10:21:19Z</time>
      </trkpt>
      <trkpt lat="47.79885" lon="-3.61255">
        <ele>59</ele>
        <time>2018-07-18T10:21:20Z</time>
      </trkpt>
      <trkpt lat="47.79885" lon="-3.61255">
        <ele>59</ele>
        <time>2018-07-18T10:21:21Z</time>
      </trkpt>
      <trkpt lat="47.79886" lon="-3.61254">
        <ele>59</ele>
        <time>2018-07-18T10:21:22Z</time>
      </trkpt>
      <trkpt lat="47.79887" lon="-3.61254">
        <ele>59</ele>
        <time>2018-07-18T10:21:23Z</time>
      </trkpt>
      <trkpt lat="47.79888" lon="-3.61253">
        <ele>59</ele>
        <time>2018-07-18T10:21:24Z</time>
      </trkpt>
      <trkpt lat="47.79889" lon="-3.61252">
        <ele>59</ele>
        <time>2018-07-18T10:21:25Z</time>
      </trkpt>
      <trkpt lat="47.7989" lon="-3.6125">
        <ele>59</ele>
        <time>2018-07-18T10:21:26Z</time>
      </trkpt>
      <trkpt lat="47.79891" lon="-3.61249">
        <ele>59</ele>
        <time>2018-07-18T10:21:27Z</time>
      </trkpt>
      <trkpt lat="47.79892" lon="-3.61249">
        <ele>59</ele>
        <time>2018-07-18T10:21:28Z</time>
      </trkpt>
      <trkpt lat="47.79893" lon="-3.61248">
        <ele>59</ele>
        <time>2018-07-18T10:21:29Z</time>
      </trkpt>
      <trkpt lat="47.79894" lon="-3.61247">
        <ele>59</ele>
        <time>2018-07-18T10:21:30Z</time>
      </trkpt>
      <trkpt lat="47.79895" lon="-3.61246">
        <ele>59</ele>
        <time>2018-07-18T10:21:31Z</time>
      </trkpt>
      <trkpt lat="47.79896" lon="-3.61244">
        <ele>59</ele>
        <time>2018-07-18T10:21:32Z</time>
      </trkpt>
      <trkpt lat="47.79898" lon="-3.61242">
        <ele>59</ele>
        <time>2018-07-18T10:21:33Z</time>
      </trkpt>
      <trkpt lat="47.79899" lon="-3.6124">
        <ele>60</ele>
        <time>2018-07-18T10:21:34Z</time>
      </trkpt>
      <trkpt lat="47.79901" lon="-3.61237">
        <ele>60</ele>
        <time>2018-07-18T10:21:35Z</time>
      </trkpt>
      <trkpt lat="47.79902" lon="-3.61235">
        <ele>60</ele>
        <time>2018-07-18T10:21:36Z</time>
      </trkpt>
      <trkpt lat="47.79904" lon="-3.61233">
        <ele>60</ele>
        <time>2018-07-18T10:21:37Z</time>
      </trkpt>
      <trkpt lat="47.79905" lon="-3.6123">
        <ele>60</ele>
        <time>2018-07-18T10:21:38Z</time>
      </trkpt>
      <trkpt lat="47.79907" lon="-3.61228">
        <ele>60</ele>
        <time>2018-07-18T10:21:39Z</time>
      </trkpt>
      <trkpt lat="47.79909" lon="-3.61225">
        <ele>60</ele>
        <time>2018-07-18T10:21:40Z</time>
      </trkpt>
      <trkpt lat="47.79911" lon="-3.61224">
        <ele>60</ele>
        <time>2018-07-18T10:21:41Z</time>
      </trkpt>
      <trkpt lat="47.79912" lon="-3.61223">
        <ele>60</ele>
        <time>2018-07-18T10:21:42Z</time>
      </trkpt>
      <trkpt lat="47.79914" lon="-3.61223">
        <ele>60</ele>
        <time>2018-07-18T10:21:43Z</time>
      </trkpt>
      <trkpt lat="47.79916" lon="-3.61222">
        <ele>60</ele>
        <time>2018-07-18T10:21:44Z</time>
      </trkpt>
      <trkpt lat="47.79918" lon="-3.61221">
        <ele>60</ele>
        <time>2018-07-18T10:21:45Z</time>
      </trkpt>
      <trkpt lat="47.7992" lon="-3.61221">
        <ele>60</ele>
        <time>2018-07-18T10:21:46Z</time>
      </trkpt>
      <trkpt lat="47.79922" lon="-3.61221">
        <ele>60</ele>
        <time>2018-07-18T10:21:47Z</time>
      </trkpt>
      <trkpt lat="47.79923" lon="-3.6122">
        <ele>61</ele>
        <time>2018-07-18T10:21:48Z</time>
      </trkpt>
      <trkpt lat="47.79925" lon="-3.61219">
        <ele>61</ele>
        <time>2018-07-18T10:21:49Z</time>
      </trkpt>
      <trkpt lat="47.79927" lon="-3.61218">
        <ele>61</ele>
        <time>2018-07-18T10:21:50Z</time>
      </trkpt>
      <trkpt lat="47.7993" lon="-3.61216">
        <ele>61</ele>
        <time>2018-07-18T10:21:51Z</time>
      </trkpt>
      <trkpt lat="47.79932" lon="-3.61215">
        <ele>61</ele>
        <time>2018-07-18T10:21:52Z</time>
      </trkpt>
      <trkpt lat="47.79934" lon="-3.61214">
        <ele>61</ele>
        <time>2018-07-18T10:21:53Z</time>
      </trkpt>
      <trkpt lat="47.79936" lon="-3.61214">
        <ele>61</ele>
        <time>2018-07-18T10:21:54Z</time>
      </trkpt>
      <trkpt lat="47.79939" lon="-3.61213">
        <ele>61</ele>
        <time>2018-07-18T10:21:55Z</time>
      </trkpt>
      <trkpt lat="47.7994" lon="-3.61211">
        <ele>61</ele>
        <time>2018-07-18T10:21:56Z</time>
      </trkpt>
      <trkpt lat="47.79941" lon="-3.61209">
        <ele>61</ele>
        <time>2018-07-18T10:21:57Z</time>
      </trkpt>
      <trkpt lat="47.79942" lon="-3.61206">
        <ele>61</ele>
        <time>2018-07-18T10:21:58Z</time>
      </trkpt>
      <trkpt lat="47.79944" lon="-3.61202">
        <ele>61</ele>
        <time>2018-07-18T10:21:59Z</time>
      </trkpt>
      <trkpt lat="47.79945" lon="-3.61199">
        <ele>62</ele>
        <time>2018-07-18T10:22:00Z</time>
      </trkpt>
      <trkpt lat="47.79947" lon="-3.61197">
        <ele>62</ele>
        <time>2018-07-18T10:22:01Z</time>
      </trkpt>
      <trkpt lat="47.79947" lon="-3.61195">
        <ele>62</ele>
        <time>2018-07-18T10:22:02Z</time>
      </trkpt>
      <trkpt lat="47.79947" lon="-3.61193">
        <ele>62</ele>
        <time>2018-07-18T10:22:03Z</time>
      </trkpt>
      <trkpt lat="47.79947" lon="-3.6119">
        <ele>62</ele>
        <time>2018-07-18T10:22:04Z</time>
      </trkpt>
      <trkpt lat="47.79947" lon="-3.61188">
        <ele>62</ele>
        <time>2018-07-18T10:22:05Z</time>
      </trkpt>
      <trkpt lat="47.79946" lon="-3.61186">
        <ele>62</ele>
        <time>2018-07-18T10:22:06Z</time>
      </trkpt>
      <trkpt lat="47.79946" lon="-3.61183">
        <ele>62</ele>
        <time>2018-07-18T10:22:07Z</time>
      </trkpt>
      <trkpt lat="47.79945" lon="-3.61181">
        <ele>62</ele>
        <time>2018-07-18T10:22:08Z</time>
      </trkpt>
      <trkpt lat="47.79945" lon="-3.61178">
        <ele>62</ele>
        <time>2018-07-18T10:22:09Z</time>
      </trkpt>
      <trkpt lat="47.79945" lon="-3.61174">
        <ele>62</ele>
        <time>2018-07-18T10:22:10Z</time>
      </trkpt>
      <trkpt lat="47.79945" lon="-3.6117">
        <ele>62</ele>
        <time>2018-07-18T10:22:11Z</time>
      </trkpt>
      <trkpt lat="47.79945" lon="-3.61164">
        <ele>62</ele>
        <time>2018-07-18T10:22:12Z</time>
      </trkpt>
      <trkpt lat="47.79945" lon="-3.61159">
        <ele>62</ele>
        <time>2018-07-18T10:22:13Z</time>
      </trkpt>
      <trkpt lat="47.79945" lon="-3.61153">
        <ele>62</ele>
        <time>2018-07-18T10:22:14Z</time>
      </trkpt>
      <trkpt lat="47.79945" lon="-3.61148">
        <ele>61</ele>
        <time>2018-07-18T10:22:15Z</time>
      </trkpt>
      <trkpt lat="47.79945" lon="-3.61141">
        <ele>62</ele>
        <time>2018-07-18T10:22:16Z</time>
      </trkpt>
      <trkpt lat="47.79945" lon="-3.61135">
        <ele>62</ele>
        <time>2018-07-18T10:22:17Z</time>
      </trkpt>
      <trkpt lat="47.79945" lon="-3.61129">
        <ele>62</ele>
        <time>2018-07-18T10:22:18Z</time>
      </trkpt>
      <trkpt lat="47.79945" lon="-3.61124">
        <ele>62</ele>
        <time>2018-07-18T10:22:19Z</time>
      </trkpt>
      <trkpt lat="47.79945" lon="-3.61119">
        <ele>62</ele>
        <time>2018-07-18T10:22:20Z</time>
      </trkpt>
      <trkpt lat="47.79945" lon="-3.61113">
        <ele>62</ele>
        <time>2018-07-18T10:22:21Z</time>
      </trkpt>
      <trkpt lat="47.79946" lon="-3.61107">
        <ele>62</ele>
        <time>2018-07-18T10:22:22Z</time>
      </trkpt>
      <trkpt lat="47.79946" lon="-3.61101">
        <ele>62</ele>
        <time>2018-07-18T10:22:23Z</time>
      </trkpt>
      <trkpt lat="47.79946" lon="-3.61096">
        <ele>62</ele>
        <time>2018-07-18T10:22:24Z</time>
      </trkpt>
      <trkpt lat="47.79946" lon="-3.61091">
        <ele>62</ele>
        <time>2018-07-18T10:22:25Z</time>
      </trkpt>
      <trkpt lat="47.79946" lon="-3.61085">
        <ele>62</ele>
        <time>2018-07-18T10:22:26Z</time>
      </trkpt>
      <trkpt lat="47.79946" lon="-3.61081">
        <ele>63</ele>
        <time>2018-07-18T10:22:27Z</time>
      </trkpt>
      <trkpt lat="47.79946" lon="-3.61075">
        <ele>63</ele>
        <time>2018-07-18T10:22:28Z</time>
      </trkpt>
      <trkpt lat="47.79945" lon="-3.61071">
        <ele>63</ele>
        <time>2018-07-18T10:22:29Z</time>
      </trkpt>
      <trkpt lat="47.79944" lon="-3.61066">
        <ele>63</ele>
        <time>2018-07-18T10:22:30Z</time>
      </trkpt>
      <trkpt lat="47.79942" lon="-3.61062">
        <ele>63</ele>
        <time>2018-07-18T10:22:31Z</time>
      </trkpt>
      <trkpt lat="47.79941" lon="-3.61057">
        <ele>63</ele>
        <time>2018-07-18T10:22:32Z</time>
      </trkpt>
      <trkpt lat="47.7994" lon="-3.61052">
        <ele>63</ele>
        <time>2018-07-18T10:22:33Z</time>
      </trkpt>
      <trkpt lat="47.7994" lon="-3.61048">
        <ele>63</ele>
        <time>2018-07-18T10:22:34Z</time>
      </trkpt>
      <trkpt lat="47.7994" lon="-3.61046">
        <ele>63</ele>
        <time>2018-07-18T10:22:35Z</time>
      </trkpt>
      <trkpt lat="47.7994" lon="-3.61044">
        <ele>63</ele>
        <time>2018-07-18T10:22:36Z</time>
      </trkpt>
      <trkpt lat="47.79941" lon="-3.61042">
        <ele>63</ele>
        <time>2018-07-18T10:22:37Z</time>
      </trkpt>
      <trkpt lat="47.79942" lon="-3.61039">
        <ele>63</ele>
        <time>2018-07-18T10:22:38Z</time>
      </trkpt>
      <trkpt lat="47.79942" lon="-3.61036">
        <ele>63</ele>
        <time>2018-07-18T10:22:39Z</time>
      </trkpt>
      <trkpt lat="47.79943" lon="-3.61033">
        <ele>63</ele>
        <time>2018-07-18T10:22:40Z</time>
      </trkpt>
      <trkpt lat="47.79944" lon="-3.6103">
        <ele>63</ele>
        <time>2018-07-18T10:22:41Z</time>
      </trkpt>
      <trkpt lat="47.79945" lon="-3.61025">
        <ele>63</ele>
        <time>2018-07-18T10:22:42Z</time>
      </trkpt>
      <trkpt lat="47.79946" lon="-3.61019">
        <ele>63</ele>
        <time>2018-07-18T10:22:43Z</time>
      </trkpt>
      <trkpt lat="47.79948" lon="-3.61015">
        <ele>63</ele>
        <time>2018-07-18T10:22:44Z</time>
      </trkpt>
      <trkpt lat="47.7995" lon="-3.61012">
        <ele>63</ele>
        <time>2018-07-18T10:22:45Z</time>
      </trkpt>
      <trkpt lat="47.79952" lon="-3.61009">
        <ele>63</ele>
        <time>2018-07-18T10:22:46Z</time>
      </trkpt>
      <trkpt lat="47.79952" lon="-3.61006">
        <ele>63</ele>
        <time>2018-07-18T10:22:47Z</time>
      </trkpt>
      <trkpt lat="47.79953" lon="-3.61003">
        <ele>63</ele>
        <time>2018-07-18T10:22:48Z</time>
      </trkpt>
      <trkpt lat="47.79953" lon="-3.60999">
        <ele>63</ele>
        <time>2018-07-18T10:22:49Z</time>
      </trkpt>
      <trkpt lat="47.79953" lon="-3.60995">
        <ele>63</ele>
        <time>2018-07-18T10:22:50Z</time>
      </trkpt>
      <trkpt lat="47.79953" lon="-3.60993">
        <ele>63</ele>
        <time>2018-07-18T10:22:51Z</time>
      </trkpt>
      <trkpt lat="47.79953" lon="-3.60991">
        <ele>63</ele>
        <time>2018-07-18T10:22:52Z</time>
      </trkpt>
      <trkpt lat="47.79953" lon="-3.60989">
        <ele>62</ele>
        <time>2018-07-18T10:22:53Z</time>
      </trkpt>
      <trkpt lat="47.79953" lon="-3.60988">
        <ele>62</ele>
        <time>2018-07-18T10:22:54Z</time>
      </trkpt>
      <trkpt lat="47.79953" lon="-3.60987">
        <ele>62</ele>
        <time>2018-07-18T10:22:55Z</time>
      </trkpt>
      <trkpt lat="47.79953" lon="-3.60984">
        <ele>62</ele>
        <time>2018-07-18T10:22:56Z</time>
      </trkpt>
      <trkpt lat="47.79953" lon="-3.60983">
        <ele>62</ele>
        <time>2018-07-18T10:22:57Z</time>
      </trkpt>
      <trkpt lat="47.79953" lon="-3.60981">
        <ele>62</ele>
        <time>2018-07-18T10:22:58Z</time>
      </trkpt>
      <trkpt lat="47.79954" lon="-3.6098">
        <ele>62</ele>
        <time>2018-07-18T10:22:59Z</time>
      </trkpt>
      <trkpt lat="47.79954" lon="-3.60978">
        <ele>61</ele>
        <time>2018-07-18T10:23:00Z</time>
      </trkpt>
      <trkpt lat="47.79954" lon="-3.60977">
        <ele>61</ele>
        <time>2018-07-18T10:23:01Z</time>
      </trkpt>
      <trkpt lat="47.79955" lon="-3.60976">
        <ele>61</ele>
        <time>2018-07-18T10:23:02Z</time>
      </trkpt>
      <trkpt lat="47.79956" lon="-3.60975">
        <ele>61</ele>
        <time>2018-07-18T10:23:03Z</time>
      </trkpt>
      <trkpt lat="47.79957" lon="-3.60974">
        <ele>61</ele>
        <time>2018-07-18T10:23:04Z</time>
      </trkpt>
      <trkpt lat="47.79959" lon="-3.60972">
        <ele>60</ele>
        <time>2018-07-18T10:23:05Z</time>
      </trkpt>
      <trkpt lat="47.79961" lon="-3.6097">
        <ele>60</ele>
        <time>2018-07-18T10:23:06Z</time>
      </trkpt>
      <trkpt lat="47.79964" lon="-3.60969">
        <ele>60</ele>
        <time>2018-07-18T10:23:07Z</time>
      </trkpt>
      <trkpt lat="47.79966" lon="-3.60967">
        <ele>60</ele>
        <time>2018-07-18T10:23:08Z</time>
      </trkpt>
      <trkpt lat="47.79968" lon="-3.60964">
        <ele>60</ele>
        <time>2018-07-18T10:23:09Z</time>
      </trkpt>
      <trkpt lat="47.79971" lon="-3.60962">
        <ele>59</ele>
        <time>2018-07-18T10:23:10Z</time>
      </trkpt>
      <trkpt lat="47.79972" lon="-3.60959">
        <ele>59</ele>
        <time>2018-07-18T10:23:11Z</time>
      </trkpt>
      <trkpt lat="47.79975" lon="-3.60956">
        <ele>59</ele>
        <time>2018-07-18T10:23:12Z</time>
      </trkpt>
      <trkpt lat="47.79979" lon="-3.60953">
        <ele>59</ele>
        <time>2018-07-18T10:23:13Z</time>
      </trkpt>
      <trkpt lat="47.79981" lon="-3.60949">
        <ele>58</ele>
        <time>2018-07-18T10:23:14Z</time>
      </trkpt>
      <trkpt lat="47.79984" lon="-3.60946">
        <ele>58</ele>
        <time>2018-07-18T10:23:15Z</time>
      </trkpt>
      <trkpt lat="47.79987" lon="-3.60943">
        <ele>58</ele>
        <time>2018-07-18T10:23:16Z</time>
      </trkpt>
      <trkpt lat="47.79991" lon="-3.60939">
        <ele>58</ele>
        <time>2018-07-18T10:23:17Z</time>
      </trkpt>
      <trkpt lat="47.79995" lon="-3.60935">
        <ele>58</ele>
        <time>2018-07-18T10:23:18Z</time>
      </trkpt>
      <trkpt lat="47.79999" lon="-3.60931">
        <ele>57</ele>
        <time>2018-07-18T10:23:19Z</time>
      </trkpt>
      <trkpt lat="47.80003" lon="-3.60927">
        <ele>57</ele>
        <time>2018-07-18T10:23:20Z</time>
      </trkpt>
      <trkpt lat="47.80008" lon="-3.60924">
        <ele>57</ele>
        <time>2018-07-18T10:23:21Z</time>
      </trkpt>
      <trkpt lat="47.80012" lon="-3.6092">
        <ele>57</ele>
        <time>2018-07-18T10:23:22Z</time>
      </trkpt>
      <trkpt lat="47.80016" lon="-3.60917">
        <ele>57</ele>
        <time>2018-07-18T10:23:23Z</time>
      </trkpt>
      <trkpt lat="47.8002" lon="-3.60914">
        <ele>57</ele>
        <time>2018-07-18T10:23:24Z</time>
      </trkpt>
      <trkpt lat="47.80024" lon="-3.6091">
        <ele>57</ele>
        <time>2018-07-18T10:23:25Z</time>
      </trkpt>
      <trkpt lat="47.80028" lon="-3.60907">
        <ele>57</ele>
        <time>2018-07-18T10:23:26Z</time>
      </trkpt>
      <trkpt lat="47.80032" lon="-3.60903">
        <ele>57</ele>
        <time>2018-07-18T10:23:27Z</time>
      </trkpt>
      <trkpt lat="47.80037" lon="-3.60899">
        <ele>56</ele>
        <time>2018-07-18T10:23:28Z</time>
      </trkpt>
      <trkpt lat="47.80041" lon="-3.60895">
        <ele>56</ele>
        <time>2018-07-18T10:23:29Z</time>
      </trkpt>
      <trkpt lat="47.80045" lon="-3.60893">
        <ele>57</ele>
        <time>2018-07-18T10:23:30Z</time>
      </trkpt>
      <trkpt lat="47.8005" lon="-3.60889">
        <ele>57</ele>
        <time>2018-07-18T10:23:31Z</time>
      </trkpt>
      <trkpt lat="47.80054" lon="-3.60884">
        <ele>57</ele>
        <time>2018-07-18T10:23:32Z</time>
      </trkpt>
      <trkpt lat="47.80059" lon="-3.6088">
        <ele>57</ele>
        <time>2018-07-18T10:23:33Z</time>
      </trkpt>
      <trkpt lat="47.80064" lon="-3.60875">
        <ele>57</ele>
        <time>2018-07-18T10:23:34Z</time>
      </trkpt>
      <trkpt lat="47.80069" lon="-3.60871">
        <ele>57</ele>
        <time>2018-07-18T10:23:35Z</time>
      </trkpt>
      <trkpt lat="47.80074" lon="-3.60866">
        <ele>57</ele>
        <time>2018-07-18T10:23:36Z</time>
      </trkpt>
      <trkpt lat="47.8008" lon="-3.60861">
        <ele>57</ele>
        <time>2018-07-18T10:23:37Z</time>
      </trkpt>
      <trkpt lat="47.80085" lon="-3.60857">
        <ele>58</ele>
        <time>2018-07-18T10:23:38Z</time>
      </trkpt>
      <trkpt lat="47.80091" lon="-3.60852">
        <ele>58</ele>
        <time>2018-07-18T10:23:39Z</time>
      </trkpt>
      <trkpt lat="47.80096" lon="-3.60848">
        <ele>58</ele>
        <time>2018-07-18T10:23:40Z</time>
      </trkpt>
      <trkpt lat="47.80102" lon="-3.60844">
        <ele>58</ele>
        <time>2018-07-18T10:23:41Z</time>
      </trkpt>
      <trkpt lat="47.80107" lon="-3.6084">
        <ele>58</ele>
        <time>2018-07-18T10:23:42Z</time>
      </trkpt>
      <trkpt lat="47.80112" lon="-3.60836">
        <ele>58</ele>
        <time>2018-07-18T10:23:43Z</time>
      </trkpt>
      <trkpt lat="47.80118" lon="-3.60832">
        <ele>58</ele>
        <time>2018-07-18T10:23:44Z</time>
      </trkpt>
      <trkpt lat="47.80123" lon="-3.60828">
        <ele>58</ele>
        <time>2018-07-18T10:23:45Z</time>
      </trkpt>
      <trkpt lat="47.80129" lon="-3.60824">
        <ele>58</ele>
        <time>2018-07-18T10:23:46Z</time>
      </trkpt>
      <trkpt lat="47.80134" lon="-3.60819">
        <ele>58</ele>
        <time>2018-07-18T10:23:47Z</time>
      </trkpt>
      <trkpt lat="47.80139" lon="-3.60816">
        <ele>58</ele>
        <time>2018-07-18T10:23:48Z</time>
      </trkpt>
      <trkpt lat="47.80143" lon="-3.60812">
        <ele>58</ele>
        <time>2018-07-18T10:23:49Z</time>
      </trkpt>
      <trkpt lat="47.80148" lon="-3.60809">
        <ele>58</ele>
        <time>2018-07-18T10:23:50Z</time>
      </trkpt>
      <trkpt lat="47.80153" lon="-3.60806">
        <ele>58</ele>
        <time>2018-07-18T10:23:51Z</time>
      </trkpt>
      <trkpt lat="47.80157" lon="-3.60803">
        <ele>59</ele>
        <time>2018-07-18T10:23:52Z</time>
      </trkpt>
      <trkpt lat="47.80162" lon="-3.60802">
        <ele>59</ele>
        <time>2018-07-18T10:23:53Z</time>
      </trkpt>
      <trkpt lat="47.80165" lon="-3.60802">
        <ele>59</ele>
        <time>2018-07-18T10:23:54Z</time>
      </trkpt>
      <trkpt lat="47.80167" lon="-3.60802">
        <ele>59</ele>
        <time>2018-07-18T10:23:55Z</time>
      </trkpt>
      <trkpt lat="47.80168" lon="-3.60803">
        <ele>59</ele>
        <time>2018-07-18T10:23:56Z</time>
      </trkpt>
      <trkpt lat="47.80169" lon="-3.60805">
        <ele>59</ele>
        <time>2018-07-18T10:23:57Z</time>
      </trkpt>
      <trkpt lat="47.80171" lon="-3.60807">
        <ele>59</ele>
        <time>2018-07-18T10:23:58Z</time>
      </trkpt>
      <trkpt lat="47.80173" lon="-3.60812">
        <ele>59</ele>
        <time>2018-07-18T10:23:59Z</time>
      </trkpt>
      <trkpt lat="47.80175" lon="-3.60817">
        <ele>59</ele>
        <time>2018-07-18T10:24:00Z</time>
      </trkpt>
      <trkpt lat="47.80175" lon="-3.60823">
        <ele>59</ele>
        <time>2018-07-18T10:24:01Z</time>
      </trkpt>
      <trkpt lat="47.80176" lon="-3.60829">
        <ele>59</ele>
        <time>2018-07-18T10:24:02Z</time>
      </trkpt>
      <trkpt lat="47.80176" lon="-3.60836">
        <ele>59</ele>
        <time>2018-07-18T10:24:03Z</time>
      </trkpt>
      <trkpt lat="47.80176" lon="-3.60843">
        <ele>59</ele>
        <time>2018-07-18T10:24:04Z</time>
      </trkpt>
      <trkpt lat="47.80176" lon="-3.60851">
        <ele>59</ele>
        <time>2018-07-18T10:24:05Z</time>
      </trkpt>
      <trkpt lat="47.80176" lon="-3.60858">
        <ele>59</ele>
        <time>2018-07-18T10:24:06Z</time>
      </trkpt>
      <trkpt lat="47.80176" lon="-3.60866">
        <ele>59</ele>
        <time>2018-07-18T10:24:07Z</time>
      </trkpt>
      <trkpt lat="47.80177" lon="-3.60874">
        <ele>59</ele>
        <time>2018-07-18T10:24:08Z</time>
      </trkpt>
      <trkpt lat="47.80177" lon="-3.60882">
        <ele>59</ele>
        <time>2018-07-18T10:24:09Z</time>
      </trkpt>
      <trkpt lat="47.80177" lon="-3.6089">
        <ele>59</ele>
        <time>2018-07-18T10:24:10Z</time>
      </trkpt>
      <trkpt lat="47.80177" lon="-3.60899">
        <ele>59</ele>
        <time>2018-07-18T10:24:11Z</time>
      </trkpt>
      <trkpt lat="47.80177" lon="-3.60907">
        <ele>59</ele>
        <time>2018-07-18T10:24:12Z</time>
      </trkpt>
      <trkpt lat="47.80177" lon="-3.60916">
        <ele>59</ele>
        <time>2018-07-18T10:24:13Z</time>
      </trkpt>
      <trkpt lat="47.80177" lon="-3.60925">
        <ele>59</ele>
        <time>2018-07-18T10:24:14Z</time>
      </trkpt>
      <trkpt lat="47.80177" lon="-3.60934">
        <ele>59</ele>
        <time>2018-07-18T10:24:15Z</time>
      </trkpt>
      <trkpt lat="47.80177" lon="-3.60942">
        <ele>59</ele>
        <time>2018-07-18T10:24:16Z</time>
      </trkpt>
      <trkpt lat="47.80177" lon="-3.60951">
        <ele>58</ele>
        <time>2018-07-18T10:24:17Z</time>
      </trkpt>
      <trkpt lat="47.80177" lon="-3.6096">
        <ele>58</ele>
        <time>2018-07-18T10:24:18Z</time>
      </trkpt>
      <trkpt lat="47.80177" lon="-3.60969">
        <ele>58</ele>
        <time>2018-07-18T10:24:19Z</time>
      </trkpt>
      <trkpt lat="47.80177" lon="-3.60978">
        <ele>58</ele>
        <time>2018-07-18T10:24:20Z</time>
      </trkpt>
      <trkpt lat="47.80177" lon="-3.60987">
        <ele>58</ele>
        <time>2018-07-18T10:24:21Z</time>
      </trkpt>
      <trkpt lat="47.80177" lon="-3.60996">
        <ele>58</ele>
        <time>2018-07-18T10:24:22Z</time>
      </trkpt>
      <trkpt lat="47.80177" lon="-3.61005">
        <ele>58</ele>
        <time>2018-07-18T10:24:23Z</time>
      </trkpt>
      <trkpt lat="47.80177" lon="-3.61014">
        <ele>58</ele>
        <time>2018-07-18T10:24:24Z</time>
      </trkpt>
      <trkpt lat="47.80177" lon="-3.61023">
        <ele>58</ele>
        <time>2018-07-18T10:24:25Z</time>
      </trkpt>
      <trkpt lat="47.80177" lon="-3.61032">
        <ele>58</ele>
        <time>2018-07-18T10:24:26Z</time>
      </trkpt>
      <trkpt lat="47.80177" lon="-3.6104">
        <ele>58</ele>
        <time>2018-07-18T10:24:27Z</time>
      </trkpt>
      <trkpt lat="47.80177" lon="-3.61049">
        <ele>58</ele>
        <time>2018-07-18T10:24:28Z</time>
      </trkpt>
      <trkpt lat="47.80177" lon="-3.61057">
        <ele>58</ele>
        <time>2018-07-18T10:24:29Z</time>
      </trkpt>
      <trkpt lat="47.80177" lon="-3.61065">
        <ele>58</ele>
        <time>2018-07-18T10:24:30Z</time>
      </trkpt>
      <trkpt lat="47.80177" lon="-3.61073">
        <ele>58</ele>
        <time>2018-07-18T10:24:31Z</time>
      </trkpt>
      <trkpt lat="47.80177" lon="-3.6108">
        <ele>58</ele>
        <time>2018-07-18T10:24:32Z</time>
      </trkpt>
      <trkpt lat="47.80177" lon="-3.61086">
        <ele>58</ele>
        <time>2018-07-18T10:24:33Z</time>
      </trkpt>
      <trkpt lat="47.80178" lon="-3.61091">
        <ele>58</ele>
        <time>2018-07-18T10:24:34Z</time>
      </trkpt>
      <trkpt lat="47.80179" lon="-3.61093">
        <ele>58</ele>
        <time>2018-07-18T10:24:35Z</time>
      </trkpt>
      <trkpt lat="47.80179" lon="-3.61094">
        <ele>58</ele>
        <time>2018-07-18T10:24:36Z</time>
      </trkpt>
      <trkpt lat="47.80179" lon="-3.61094">
        <ele>58</ele>
        <time>2018-07-18T10:24:37Z</time>
      </trkpt>
      <trkpt lat="47.80179" lon="-3.61095">
        <ele>58</ele>
        <time>2018-07-18T10:24:38Z</time>
      </trkpt>
      <trkpt lat="47.80179" lon="-3.61095">
        <ele>58</ele>
        <time>2018-07-18T10:24:39Z</time>
      </trkpt>
      <trkpt lat="47.80178" lon="-3.61099">
        <ele>59</ele>
        <time>2018-07-18T10:24:40Z</time>
      </trkpt>
      <trkpt lat="47.80178" lon="-3.61101">
        <ele>59</ele>
        <time>2018-07-18T10:24:41Z</time>
      </trkpt>
      <trkpt lat="47.80178" lon="-3.61104">
        <ele>59</ele>
        <time>2018-07-18T10:24:42Z</time>
      </trkpt>
      <trkpt lat="47.80177" lon="-3.61108">
        <ele>59</ele>
        <time>2018-07-18T10:24:43Z</time>
      </trkpt>
      <trkpt lat="47.80177" lon="-3.61113">
        <ele>59</ele>
        <time>2018-07-18T10:24:44Z</time>
      </trkpt>
      <trkpt lat="47.80176" lon="-3.61117">
        <ele>59</ele>
        <time>2018-07-18T10:24:45Z</time>
      </trkpt>
      <trkpt lat="47.80176" lon="-3.61122">
        <ele>59</ele>
        <time>2018-07-18T10:24:46Z</time>
      </trkpt>
      <trkpt lat="47.80175" lon="-3.61129">
        <ele>59</ele>
        <time>2018-07-18T10:24:47Z</time>
      </trkpt>
      <trkpt lat="47.80176" lon="-3.61135">
        <ele>59</ele>
        <time>2018-07-18T10:24:48Z</time>
      </trkpt>
      <trkpt lat="47.80176" lon="-3.61142">
        <ele>59</ele>
        <time>2018-07-18T10:24:49Z</time>
      </trkpt>
      <trkpt lat="47.80175" lon="-3.61149">
        <ele>59</ele>
        <time>2018-07-18T10:24:50Z</time>
      </trkpt>
      <trkpt lat="47.80175" lon="-3.61157">
        <ele>59</ele>
        <time>2018-07-18T10:24:51Z</time>
      </trkpt>
      <trkpt lat="47.80175" lon="-3.61164">
        <ele>59</ele>
        <time>2018-07-18T10:24:52Z</time>
      </trkpt>
      <trkpt lat="47.80175" lon="-3.61172">
        <ele>59</ele>
        <time>2018-07-18T10:24:53Z</time>
      </trkpt>
      <trkpt lat="47.80175" lon="-3.6118">
        <ele>59</ele>
        <time>2018-07-18T10:24:54Z</time>
      </trkpt>
      <trkpt lat="47.80175" lon="-3.61187">
        <ele>60</ele>
        <time>2018-07-18T10:24:55Z</time>
      </trkpt>
      <trkpt lat="47.80175" lon="-3.61195">
        <ele>60</ele>
        <time>2018-07-18T10:24:56Z</time>
      </trkpt>
      <trkpt lat="47.80176" lon="-3.61202">
        <ele>60</ele>
        <time>2018-07-18T10:24:57Z</time>
      </trkpt>
      <trkpt lat="47.80176" lon="-3.6121">
        <ele>59</ele>
        <time>2018-07-18T10:24:58Z</time>
      </trkpt>
      <trkpt lat="47.80175" lon="-3.61218">
        <ele>60</ele>
        <time>2018-07-18T10:24:59Z</time>
      </trkpt>
      <trkpt lat="47.80175" lon="-3.61226">
        <ele>60</ele>
        <time>2018-07-18T10:25:00Z</time>
      </trkpt>
      <trkpt lat="47.80176" lon="-3.61235">
        <ele>60</ele>
        <time>2018-07-18T10:25:01Z</time>
      </trkpt>
      <trkpt lat="47.80176" lon="-3.61244">
        <ele>60</ele>
        <time>2018-07-18T10:25:02Z</time>
      </trkpt>
      <trkpt lat="47.80176" lon="-3.61253">
        <ele>59</ele>
        <time>2018-07-18T10:25:03Z</time>
      </trkpt>
      <trkpt lat="47.80176" lon="-3.61262">
        <ele>59</ele>
        <time>2018-07-18T10:25:04Z</time>
      </trkpt>
      <trkpt lat="47.80176" lon="-3.61272">
        <ele>59</ele>
        <time>2018-07-18T10:25:05Z</time>
      </trkpt>
      <trkpt lat="47.80177" lon="-3.61281">
        <ele>59</ele>
        <time>2018-07-18T10:25:06Z</time>
      </trkpt>
      <trkpt lat="47.80177" lon="-3.6129">
        <ele>59</ele>
        <time>2018-07-18T10:25:07Z</time>
      </trkpt>
      <trkpt lat="47.80178" lon="-3.61299">
        <ele>58</ele>
        <time>2018-07-18T10:25:08Z</time>
      </trkpt>
      <trkpt lat="47.80178" lon="-3.61308">
        <ele>58</ele>
        <time>2018-07-18T10:25:09Z</time>
      </trkpt>
      <trkpt lat="47.80178" lon="-3.61317">
        <ele>58</ele>
        <time>2018-07-18T10:25:10Z</time>
      </trkpt>
      <trkpt lat="47.80179" lon="-3.61326">
        <ele>58</ele>
        <time>2018-07-18T10:25:11Z</time>
      </trkpt>
      <trkpt lat="47.80179" lon="-3.61335">
        <ele>57</ele>
        <time>2018-07-18T10:25:12Z</time>
      </trkpt>
      <trkpt lat="47.80179" lon="-3.61344">
        <ele>57</ele>
        <time>2018-07-18T10:25:13Z</time>
      </trkpt>
      <trkpt lat="47.8018" lon="-3.61352">
        <ele>57</ele>
        <time>2018-07-18T10:25:14Z</time>
      </trkpt>
      <trkpt lat="47.80181" lon="-3.61361">
        <ele>57</ele>
        <time>2018-07-18T10:25:15Z</time>
      </trkpt>
      <trkpt lat="47.80182" lon="-3.6137">
        <ele>57</ele>
        <time>2018-07-18T10:25:16Z</time>
      </trkpt>
      <trkpt lat="47.80185" lon="-3.61377">
        <ele>56</ele>
        <time>2018-07-18T10:25:17Z</time>
      </trkpt>
      <trkpt lat="47.80189" lon="-3.61383">
        <ele>56</ele>
        <time>2018-07-18T10:25:18Z</time>
      </trkpt>
      <trkpt lat="47.80195" lon="-3.61387">
        <ele>56</ele>
        <time>2018-07-18T10:25:19Z</time>
      </trkpt>
      <trkpt lat="47.802" lon="-3.61389">
        <ele>56</ele>
        <time>2018-07-18T10:25:20Z</time>
      </trkpt>
      <trkpt lat="47.80205" lon="-3.6139">
        <ele>56</ele>
        <time>2018-07-18T10:25:21Z</time>
      </trkpt>
      <trkpt lat="47.80211" lon="-3.6139">
        <ele>56</ele>
        <time>2018-07-18T10:25:22Z</time>
      </trkpt>
      <trkpt lat="47.80217" lon="-3.61391">
        <ele>56</ele>
        <time>2018-07-18T10:25:23Z</time>
      </trkpt>
      <trkpt lat="47.80222" lon="-3.61391">
        <ele>56</ele>
        <time>2018-07-18T10:25:24Z</time>
      </trkpt>
      <trkpt lat="47.80228" lon="-3.61392">
        <ele>57</ele>
        <time>2018-07-18T10:25:25Z</time>
      </trkpt>
      <trkpt lat="47.80234" lon="-3.61393">
        <ele>57</ele>
        <time>2018-07-18T10:25:26Z</time>
      </trkpt>
      <trkpt lat="47.8024" lon="-3.61393">
        <ele>57</ele>
        <time>2018-07-18T10:25:27Z</time>
      </trkpt>
      <trkpt lat="47.80246" lon="-3.61394">
        <ele>56</ele>
        <time>2018-07-18T10:25:28Z</time>
      </trkpt>
      <trkpt lat="47.80252" lon="-3.61394">
        <ele>56</ele>
        <time>2018-07-18T10:25:29Z</time>
      </trkpt>
      <trkpt lat="47.80258" lon="-3.61394">
        <ele>56</ele>
        <time>2018-07-18T10:25:30Z</time>
      </trkpt>
      <trkpt lat="47.80264" lon="-3.61395">
        <ele>56</ele>
        <time>2018-07-18T10:25:31Z</time>
      </trkpt>
      <trkpt lat="47.80271" lon="-3.61395">
        <ele>56</ele>
        <time>2018-07-18T10:25:32Z</time>
      </trkpt>
      <trkpt lat="47.80277" lon="-3.61396">
        <ele>56</ele>
        <time>2018-07-18T10:25:33Z</time>
      </trkpt>
      <trkpt lat="47.80283" lon="-3.61396">
        <ele>56</ele>
        <time>2018-07-18T10:25:34Z</time>
      </trkpt>
      <trkpt lat="47.8029" lon="-3.61396">
        <ele>56</ele>
        <time>2018-07-18T10:25:35Z</time>
      </trkpt>
      <trkpt lat="47.80296" lon="-3.61397">
        <ele>56</ele>
        <time>2018-07-18T10:25:36Z</time>
      </trkpt>
      <trkpt lat="47.80302" lon="-3.61397">
        <ele>55</ele>
        <time>2018-07-18T10:25:37Z</time>
      </trkpt>
      <trkpt lat="47.80308" lon="-3.61397">
        <ele>55</ele>
        <time>2018-07-18T10:25:38Z</time>
      </trkpt>
      <trkpt lat="47.80315" lon="-3.61398">
        <ele>55</ele>
        <time>2018-07-18T10:25:39Z</time>
      </trkpt>
      <trkpt lat="47.80321" lon="-3.61399">
        <ele>55</ele>
        <time>2018-07-18T10:25:40Z</time>
      </trkpt>
      <trkpt lat="47.80327" lon="-3.61399">
        <ele>55</ele>
        <time>2018-07-18T10:25:41Z</time>
      </trkpt>
      <trkpt lat="47.80334" lon="-3.61399">
        <ele>55</ele>
        <time>2018-07-18T10:25:42Z</time>
      </trkpt>
      <trkpt lat="47.8034" lon="-3.61399">
        <ele>55</ele>
        <time>2018-07-18T10:25:43Z</time>
      </trkpt>
      <trkpt lat="47.80347" lon="-3.61399">
        <ele>54</ele>
        <time>2018-07-18T10:25:44Z</time>
      </trkpt>
      <trkpt lat="47.80353" lon="-3.61399">
        <ele>54</ele>
        <time>2018-07-18T10:25:45Z</time>
      </trkpt>
      <trkpt lat="47.8036" lon="-3.61399">
        <ele>54</ele>
        <time>2018-07-18T10:25:46Z</time>
      </trkpt>
      <trkpt lat="47.80366" lon="-3.61399">
        <ele>54</ele>
        <time>2018-07-18T10:25:47Z</time>
      </trkpt>
      <trkpt lat="47.80373" lon="-3.61398">
        <ele>54</ele>
        <time>2018-07-18T10:25:48Z</time>
      </trkpt>
      <trkpt lat="47.8038" lon="-3.61397">
        <ele>54</ele>
        <time>2018-07-18T10:25:49Z</time>
      </trkpt>
      <trkpt lat="47.80386" lon="-3.61396">
        <ele>54</ele>
        <time>2018-07-18T10:25:50Z</time>
      </trkpt>
      <trkpt lat="47.80393" lon="-3.61395">
        <ele>54</ele>
        <time>2018-07-18T10:25:51Z</time>
      </trkpt>
      <trkpt lat="47.80399" lon="-3.61393">
        <ele>54</ele>
        <time>2018-07-18T10:25:52Z</time>
      </trkpt>
      <trkpt lat="47.80405" lon="-3.61391">
        <ele>54</ele>
        <time>2018-07-18T10:25:53Z</time>
      </trkpt>
      <trkpt lat="47.80412" lon="-3.61389">
        <ele>53</ele>
        <time>2018-07-18T10:25:54Z</time>
      </trkpt>
      <trkpt lat="47.80418" lon="-3.61387">
        <ele>53</ele>
        <time>2018-07-18T10:25:55Z</time>
      </trkpt>
      <trkpt lat="47.80424" lon="-3.61384">
        <ele>53</ele>
        <time>2018-07-18T10:25:56Z</time>
      </trkpt>
      <trkpt lat="47.8043" lon="-3.6138">
        <ele>53</ele>
        <time>2018-07-18T10:25:57Z</time>
      </trkpt>
      <trkpt lat="47.80437" lon="-3.61377">
        <ele>53</ele>
        <time>2018-07-18T10:25:58Z</time>
      </trkpt>
      <trkpt lat="47.80443" lon="-3.61373">
        <ele>52</ele>
        <time>2018-07-18T10:25:59Z</time>
      </trkpt>
      <trkpt lat="47.8045" lon="-3.61369">
        <ele>52</ele>
        <time>2018-07-18T10:26:00Z</time>
      </trkpt>
      <trkpt lat="47.80456" lon="-3.61366">
        <ele>52</ele>
        <time>2018-07-18T10:26:01Z</time>
      </trkpt>
      <trkpt lat="47.80463" lon="-3.61362">
        <ele>52</ele>
        <time>2018-07-18T10:26:02Z</time>
      </trkpt>
      <trkpt lat="47.80469" lon="-3.61358">
        <ele>52</ele>
        <time>2018-07-18T10:26:03Z</time>
      </trkpt>
      <trkpt lat="47.80476" lon="-3.61355">
        <ele>52</ele>
        <time>2018-07-18T10:26:04Z</time>
      </trkpt>
      <trkpt lat="47.80482" lon="-3.61352">
        <ele>52</ele>
        <time>2018-07-18T10:26:05Z</time>
      </trkpt>
      <trkpt lat="47.80489" lon="-3.61348">
        <ele>52</ele>
        <time>2018-07-18T10:26:06Z</time>
      </trkpt>
      <trkpt lat="47.80495" lon="-3.61345">
        <ele>52</ele>
        <time>2018-07-18T10:26:07Z</time>
      </trkpt>
      <trkpt lat="47.80502" lon="-3.61342">
        <ele>52</ele>
        <time>2018-07-18T10:26:08Z</time>
      </trkpt>
      <trkpt lat="47.80508" lon="-3.61338">
        <ele>52</ele>
        <time>2018-07-18T10:26:09Z</time>
      </trkpt>
      <trkpt lat="47.80515" lon="-3.61334">
        <ele>53</ele>
        <time>2018-07-18T10:26:10Z</time>
      </trkpt>
      <trkpt lat="47.80521" lon="-3.6133">
        <ele>53</ele>
        <time>2018-07-18T10:26:11Z</time>
      </trkpt>
      <trkpt lat="47.80528" lon="-3.61326">
        <ele>53</ele>
        <time>2018-07-18T10:26:12Z</time>
      </trkpt>
      <trkpt lat="47.80535" lon="-3.61322">
        <ele>52</ele>
        <time>2018-07-18T10:26:13Z</time>
      </trkpt>
      <trkpt lat="47.80542" lon="-3.61318">
        <ele>52</ele>
        <time>2018-07-18T10:26:14Z</time>
      </trkpt>
      <trkpt lat="47.80548" lon="-3.61315">
        <ele>52</ele>
        <time>2018-07-18T10:26:15Z</time>
      </trkpt>
      <trkpt lat="47.80554" lon="-3.61312">
        <ele>52</ele>
        <time>2018-07-18T10:26:16Z</time>
      </trkpt>
      <trkpt lat="47.80561" lon="-3.61309">
        <ele>52</ele>
        <time>2018-07-18T10:26:17Z</time>
      </trkpt>
      <trkpt lat="47.80567" lon="-3.61306">
        <ele>52</ele>
        <time>2018-07-18T10:26:18Z</time>
      </trkpt>
      <trkpt lat="47.80573" lon="-3.61303">
        <ele>52</ele>
        <time>2018-07-18T10:26:19Z</time>
      </trkpt>
      <trkpt lat="47.80579" lon="-3.613">
        <ele>52</ele>
        <time>2018-07-18T10:26:20Z</time>
      </trkpt>
      <trkpt lat="47.80585" lon="-3.61297">
        <ele>51</ele>
        <time>2018-07-18T10:26:21Z</time>
      </trkpt>
      <trkpt lat="47.80592" lon="-3.61294">
        <ele>51</ele>
        <time>2018-07-18T10:26:22Z</time>
      </trkpt>
      <trkpt lat="47.80598" lon="-3.6129">
        <ele>51</ele>
        <time>2018-07-18T10:26:23Z</time>
      </trkpt>
      <trkpt lat="47.80605" lon="-3.61287">
        <ele>50</ele>
        <time>2018-07-18T10:26:24Z</time>
      </trkpt>
      <trkpt lat="47.80612" lon="-3.61283">
        <ele>50</ele>
        <time>2018-07-18T10:26:25Z</time>
      </trkpt>
      <trkpt lat="47.80619" lon="-3.61279">
        <ele>49</ele>
        <time>2018-07-18T10:26:26Z</time>
      </trkpt>
      <trkpt lat="47.80627" lon="-3.61275">
        <ele>49</ele>
        <time>2018-07-18T10:26:27Z</time>
      </trkpt>
      <trkpt lat="47.80635" lon="-3.61271">
        <ele>48</ele>
        <time>2018-07-18T10:26:28Z</time>
      </trkpt>
      <trkpt lat="47.80643" lon="-3.61267">
        <ele>48</ele>
        <time>2018-07-18T10:26:29Z</time>
      </trkpt>
      <trkpt lat="47.80652" lon="-3.61263">
        <ele>47</ele>
        <time>2018-07-18T10:26:30Z</time>
      </trkpt>
      <trkpt lat="47.8066" lon="-3.6126">
        <ele>47</ele>
        <time>2018-07-18T10:26:31Z</time>
      </trkpt>
      <trkpt lat="47.80668" lon="-3.61257">
        <ele>46</ele>
        <time>2018-07-18T10:26:32Z</time>
      </trkpt>
      <trkpt lat="47.80677" lon="-3.61255">
        <ele>46</ele>
        <time>2018-07-18T10:26:33Z</time>
      </trkpt>
      <trkpt lat="47.80685" lon="-3.61253">
        <ele>46</ele>
        <time>2018-07-18T10:26:34Z</time>
      </trkpt>
      <trkpt lat="47.80692" lon="-3.61252">
        <ele>45</ele>
        <time>2018-07-18T10:26:35Z</time>
      </trkpt>
      <trkpt lat="47.807" lon="-3.61252">
        <ele>45</ele>
        <time>2018-07-18T10:26:36Z</time>
      </trkpt>
      <trkpt lat="47.80707" lon="-3.61252">
        <ele>45</ele>
        <time>2018-07-18T10:26:37Z</time>
      </trkpt>
      <trkpt lat="47.80714" lon="-3.61252">
        <ele>45</ele>
        <time>2018-07-18T10:26:38Z</time>
      </trkpt>
      <trkpt lat="47.80721" lon="-3.61252">
        <ele>45</ele>
        <time>2018-07-18T10:26:39Z</time>
      </trkpt>
      <trkpt lat="47.80728" lon="-3.61252">
        <ele>45</ele>
        <time>2018-07-18T10:26:40Z</time>
      </trkpt>
      <trkpt lat="47.80736" lon="-3.61252">
        <ele>45</ele>
        <time>2018-07-18T10:26:41Z</time>
      </trkpt>
      <trkpt lat="47.80743" lon="-3.61252">
        <ele>45</ele>
        <time>2018-07-18T10:26:42Z</time>
      </trkpt>
      <trkpt lat="47.80751" lon="-3.61252">
        <ele>45</ele>
        <time>2018-07-18T10:26:43Z</time>
      </trkpt>
      <trkpt lat="47.80758" lon="-3.61252">
        <ele>45</ele>
        <time>2018-07-18T10:26:44Z</time>
      </trkpt>
      <trkpt lat="47.80765" lon="-3.61252">
        <ele>45</ele>
        <time>2018-07-18T10:26:45Z</time>
      </trkpt>
      <trkpt lat="47.80772" lon="-3.61252">
        <ele>45</ele>
        <time>2018-07-18T10:26:46Z</time>
      </trkpt>
      <trkpt lat="47.80779" lon="-3.61252">
        <ele>45</ele>
        <time>2018-07-18T10:26:47Z</time>
      </trkpt>
      <trkpt lat="47.80786" lon="-3.61252">
        <ele>45</ele>
        <time>2018-07-18T10:26:48Z</time>
      </trkpt>
      <trkpt lat="47.80793" lon="-3.61253">
        <ele>45</ele>
        <time>2018-07-18T10:26:49Z</time>
      </trkpt>
      <trkpt lat="47.808" lon="-3.61253">
        <ele>46</ele>
        <time>2018-07-18T10:26:50Z</time>
      </trkpt>
      <trkpt lat="47.80807" lon="-3.61253">
        <ele>46</ele>
        <time>2018-07-18T10:26:51Z</time>
      </trkpt>
      <trkpt lat="47.80814" lon="-3.61253">
        <ele>46</ele>
        <time>2018-07-18T10:26:52Z</time>
      </trkpt>
      <trkpt lat="47.8082" lon="-3.61253">
        <ele>46</ele>
        <time>2018-07-18T10:26:53Z</time>
      </trkpt>
      <trkpt lat="47.80826" lon="-3.61253">
        <ele>46</ele>
        <time>2018-07-18T10:26:54Z</time>
      </trkpt>
      <trkpt lat="47.80832" lon="-3.61253">
        <ele>47</ele>
        <time>2018-07-18T10:26:55Z</time>
      </trkpt>
      <trkpt lat="47.80838" lon="-3.61253">
        <ele>47</ele>
        <time>2018-07-18T10:26:56Z</time>
      </trkpt>
      <trkpt lat="47.80844" lon="-3.61253">
        <ele>47</ele>
        <time>2018-07-18T10:26:57Z</time>
      </trkpt>
      <trkpt lat="47.80851" lon="-3.61253">
        <ele>47</ele>
        <time>2018-07-18T10:26:58Z</time>
      </trkpt>
      <trkpt lat="47.80859" lon="-3.61252">
        <ele>47</ele>
        <time>2018-07-18T10:26:59Z</time>
      </trkpt>
      <trkpt lat="47.80867" lon="-3.61252">
        <ele>47</ele>
        <time>2018-07-18T10:27:00Z</time>
      </trkpt>
      <trkpt lat="47.80874" lon="-3.61252">
        <ele>47</ele>
        <time>2018-07-18T10:27:01Z</time>
      </trkpt>
      <trkpt lat="47.80881" lon="-3.61251">
        <ele>47</ele>
        <time>2018-07-18T10:27:02Z</time>
      </trkpt>
      <trkpt lat="47.80888" lon="-3.61251">
        <ele>47</ele>
        <time>2018-07-18T10:27:03Z</time>
      </trkpt>
      <trkpt lat="47.80895" lon="-3.6125">
        <ele>47</ele>
        <time>2018-07-18T10:27:04Z</time>
      </trkpt>
      <trkpt lat="47.80902" lon="-3.6125">
        <ele>48</ele>
        <time>2018-07-18T10:27:05Z</time>
      </trkpt>
      <trkpt lat="47.80908" lon="-3.61249">
        <ele>47</ele>
        <time>2018-07-18T10:27:06Z</time>
      </trkpt>
      <trkpt lat="47.80915" lon="-3.61249">
        <ele>47</ele>
        <time>2018-07-18T10:27:07Z</time>
      </trkpt>
      <trkpt lat="47.80921" lon="-3.61248">
        <ele>47</ele>
        <time>2018-07-18T10:27:08Z</time>
      </trkpt>
      <trkpt lat="47.80928" lon="-3.61247">
        <ele>47</ele>
        <time>2018-07-18T10:27:09Z</time>
      </trkpt>
      <trkpt lat="47.80934" lon="-3.61247">
        <ele>47</ele>
        <time>2018-07-18T10:27:10Z</time>
      </trkpt>
      <trkpt lat="47.80941" lon="-3.61247">
        <ele>47</ele>
        <time>2018-07-18T10:27:11Z</time>
      </trkpt>
      <trkpt lat="47.80947" lon="-3.61246">
        <ele>47</ele>
        <time>2018-07-18T10:27:12Z</time>
      </trkpt>
      <trkpt lat="47.80953" lon="-3.61245">
        <ele>47</ele>
        <time>2018-07-18T10:27:13Z</time>
      </trkpt>
      <trkpt lat="47.80959" lon="-3.61245">
        <ele>47</ele>
        <time>2018-07-18T10:27:14Z</time>
      </trkpt>
      <trkpt lat="47.80965" lon="-3.61245">
        <ele>47</ele>
        <time>2018-07-18T10:27:15Z</time>
      </trkpt>
      <trkpt lat="47.8097" lon="-3.61245">
        <ele>47</ele>
        <time>2018-07-18T10:27:16Z</time>
      </trkpt>
      <trkpt lat="47.80976" lon="-3.61245">
        <ele>47</ele>
        <time>2018-07-18T10:27:17Z</time>
      </trkpt>
      <trkpt lat="47.80982" lon="-3.61245">
        <ele>48</ele>
        <time>2018-07-18T10:27:18Z</time>
      </trkpt>
      <trkpt lat="47.80988" lon="-3.61246">
        <ele>48</ele>
        <time>2018-07-18T10:27:19Z</time>
      </trkpt>
      <trkpt lat="47.80993" lon="-3.61246">
        <ele>48</ele>
        <time>2018-07-18T10:27:20Z</time>
      </trkpt>
      <trkpt lat="47.80999" lon="-3.61247">
        <ele>48</ele>
        <time>2018-07-18T10:27:21Z</time>
      </trkpt>
      <trkpt lat="47.81004" lon="-3.61249">
        <ele>48</ele>
        <time>2018-07-18T10:27:22Z</time>
      </trkpt>
      <trkpt lat="47.8101" lon="-3.6125">
        <ele>48</ele>
        <time>2018-07-18T10:27:23Z</time>
      </trkpt>
      <trkpt lat="47.81016" lon="-3.61252">
        <ele>48</ele>
        <time>2018-07-18T10:27:24Z</time>
      </trkpt>
      <trkpt lat="47.81021" lon="-3.61253">
        <ele>48</ele>
        <time>2018-07-18T10:27:25Z</time>
      </trkpt>
      <trkpt lat="47.81026" lon="-3.61256">
        <ele>48</ele>
        <time>2018-07-18T10:27:26Z</time>
      </trkpt>
      <trkpt lat="47.81032" lon="-3.61258">
        <ele>48</ele>
        <time>2018-07-18T10:27:27Z</time>
      </trkpt>
      <trkpt lat="47.81037" lon="-3.61261">
        <ele>48</ele>
        <time>2018-07-18T10:27:28Z</time>
      </trkpt>
      <trkpt lat="47.81042" lon="-3.61264">
        <ele>49</ele>
        <time>2018-07-18T10:27:29Z</time>
      </trkpt>
      <trkpt lat="47.81048" lon="-3.61266">
        <ele>49</ele>
        <time>2018-07-18T10:27:30Z</time>
      </trkpt>
      <trkpt lat="47.81053" lon="-3.61269">
        <ele>49</ele>
        <time>2018-07-18T10:27:31Z</time>
      </trkpt>
      <trkpt lat="47.81058" lon="-3.61272">
        <ele>49</ele>
        <time>2018-07-18T10:27:32Z</time>
      </trkpt>
      <trkpt lat="47.81064" lon="-3.61275">
        <ele>49</ele>
        <time>2018-07-18T10:27:33Z</time>
      </trkpt>
      <trkpt lat="47.81069" lon="-3.61279">
        <ele>49</ele>
        <time>2018-07-18T10:27:34Z</time>
      </trkpt>
      <trkpt lat="47.81074" lon="-3.61282">
        <ele>49</ele>
        <time>2018-07-18T10:27:35Z</time>
      </trkpt>
      <trkpt lat="47.81079" lon="-3.61285">
        <ele>50</ele>
        <time>2018-07-18T10:27:36Z</time>
      </trkpt>
      <trkpt lat="47.81085" lon="-3.61289">
        <ele>50</ele>
        <time>2018-07-18T10:27:37Z</time>
      </trkpt>
      <trkpt lat="47.8109" lon="-3.61292">
        <ele>50</ele>
        <time>2018-07-18T10:27:38Z</time>
      </trkpt>
      <trkpt lat="47.81095" lon="-3.61295">
        <ele>50</ele>
        <time>2018-07-18T10:27:39Z</time>
      </trkpt>
      <trkpt lat="47.811" lon="-3.61299">
        <ele>50</ele>
        <time>2018-07-18T10:27:40Z</time>
      </trkpt>
      <trkpt lat="47.81105" lon="-3.61302">
        <ele>50</ele>
        <time>2018-07-18T10:27:41Z</time>
      </trkpt>
      <trkpt lat="47.8111" lon="-3.61305">
        <ele>51</ele>
        <time>2018-07-18T10:27:42Z</time>
      </trkpt>
      <trkpt lat="47.81116" lon="-3.61308">
        <ele>51</ele>
        <time>2018-07-18T10:27:43Z</time>
      </trkpt>
      <trkpt lat="47.81121" lon="-3.61312">
        <ele>51</ele>
        <time>2018-07-18T10:27:44Z</time>
      </trkpt>
      <trkpt lat="47.81126" lon="-3.61315">
        <ele>51</ele>
        <time>2018-07-18T10:27:45Z</time>
      </trkpt>
      <trkpt lat="47.81131" lon="-3.61319">
        <ele>52</ele>
        <time>2018-07-18T10:27:46Z</time>
      </trkpt>
      <trkpt lat="47.81136" lon="-3.61322">
        <ele>52</ele>
        <time>2018-07-18T10:27:47Z</time>
      </trkpt>
      <trkpt lat="47.81141" lon="-3.61326">
        <ele>52</ele>
        <time>2018-07-18T10:27:48Z</time>
      </trkpt>
      <trkpt lat="47.81146" lon="-3.61329">
        <ele>52</ele>
        <time>2018-07-18T10:27:49Z</time>
      </trkpt>
      <trkpt lat="47.81151" lon="-3.61332">
        <ele>52</ele>
        <time>2018-07-18T10:27:50Z</time>
      </trkpt>
      <trkpt lat="47.81156" lon="-3.61336">
        <ele>52</ele>
        <time>2018-07-18T10:27:51Z</time>
      </trkpt>
      <trkpt lat="47.81162" lon="-3.61339">
        <ele>52</ele>
        <time>2018-07-18T10:27:52Z</time>
      </trkpt>
      <trkpt lat="47.81167" lon="-3.61342">
        <ele>52</ele>
        <time>2018-07-18T10:27:53Z</time>
      </trkpt>
      <trkpt lat="47.81172" lon="-3.61346">
        <ele>53</ele>
        <time>2018-07-18T10:27:54Z</time>
      </trkpt>
      <trkpt lat="47.81177" lon="-3.61349">
        <ele>53</ele>
        <time>2018-07-18T10:27:55Z</time>
      </trkpt>
      <trkpt lat="47.81183" lon="-3.61353">
        <ele>53</ele>
        <time>2018-07-18T10:27:56Z</time>
      </trkpt>
      <trkpt lat="47.81188" lon="-3.61356">
        <ele>53</ele>
        <time>2018-07-18T10:27:57Z</time>
      </trkpt>
      <trkpt lat="47.81193" lon="-3.61359">
        <ele>53</ele>
        <time>2018-07-18T10:27:58Z</time>
      </trkpt>
      <trkpt lat="47.81198" lon="-3.61363">
        <ele>53</ele>
        <time>2018-07-18T10:27:59Z</time>
      </trkpt>
      <trkpt lat="47.81203" lon="-3.61366">
        <ele>54</ele>
        <time>2018-07-18T10:28:00Z</time>
      </trkpt>
      <trkpt lat="47.81209" lon="-3.6137">
        <ele>54</ele>
        <time>2018-07-18T10:28:01Z</time>
      </trkpt>
      <trkpt lat="47.81214" lon="-3.61373">
        <ele>54</ele>
        <time>2018-07-18T10:28:02Z</time>
      </trkpt>
      <trkpt lat="47.81219" lon="-3.61377">
        <ele>54</ele>
        <time>2018-07-18T10:28:03Z</time>
      </trkpt>
      <trkpt lat="47.81225" lon="-3.6138">
        <ele>54</ele>
        <time>2018-07-18T10:28:04Z</time>
      </trkpt>
      <trkpt lat="47.8123" lon="-3.61384">
        <ele>54</ele>
        <time>2018-07-18T10:28:05Z</time>
      </trkpt>
      <trkpt lat="47.81236" lon="-3.61387">
        <ele>54</ele>
        <time>2018-07-18T10:28:06Z</time>
      </trkpt>
      <trkpt lat="47.81241" lon="-3.61391">
        <ele>54</ele>
        <time>2018-07-18T10:28:07Z</time>
      </trkpt>
      <trkpt lat="47.81247" lon="-3.61394">
        <ele>54</ele>
        <time>2018-07-18T10:28:08Z</time>
      </trkpt>
      <trkpt lat="47.81253" lon="-3.61397">
        <ele>54</ele>
        <time>2018-07-18T10:28:09Z</time>
      </trkpt>
      <trkpt lat="47.81259" lon="-3.614">
        <ele>54</ele>
        <time>2018-07-18T10:28:10Z</time>
      </trkpt>
      <trkpt lat="47.81265" lon="-3.61403">
        <ele>54</ele>
        <time>2018-07-18T10:28:11Z</time>
      </trkpt>
      <trkpt lat="47.81271" lon="-3.61405">
        <ele>54</ele>
        <time>2018-07-18T10:28:12Z</time>
      </trkpt>
      <trkpt lat="47.81277" lon="-3.61407">
        <ele>54</ele>
        <time>2018-07-18T10:28:13Z</time>
      </trkpt>
      <trkpt lat="47.81283" lon="-3.61409">
        <ele>54</ele>
        <time>2018-07-18T10:28:14Z</time>
      </trkpt>
      <trkpt lat="47.81289" lon="-3.6141">
        <ele>54</ele>
        <time>2018-07-18T10:28:15Z</time>
      </trkpt>
      <trkpt lat="47.81295" lon="-3.6141">
        <ele>54</ele>
        <time>2018-07-18T10:28:16Z</time>
      </trkpt>
      <trkpt lat="47.81301" lon="-3.61411">
        <ele>54</ele>
        <time>2018-07-18T10:28:17Z</time>
      </trkpt>
      <trkpt lat="47.81307" lon="-3.61411">
        <ele>54</ele>
        <time>2018-07-18T10:28:18Z</time>
      </trkpt>
      <trkpt lat="47.81313" lon="-3.61411">
        <ele>54</ele>
        <time>2018-07-18T10:28:19Z</time>
      </trkpt>
      <trkpt lat="47.81318" lon="-3.61411">
        <ele>54</ele>
        <time>2018-07-18T10:28:20Z</time>
      </trkpt>
      <trkpt lat="47.81324" lon="-3.61411">
        <ele>54</ele>
        <time>2018-07-18T10:28:21Z</time>
      </trkpt>
      <trkpt lat="47.81331" lon="-3.61411">
        <ele>54</ele>
        <time>2018-07-18T10:28:22Z</time>
      </trkpt>
      <trkpt lat="47.81337" lon="-3.61411">
        <ele>53</ele>
        <time>2018-07-18T10:28:23Z</time>
      </trkpt>
      <trkpt lat="47.81343" lon="-3.6141">
        <ele>53</ele>
        <time>2018-07-18T10:28:24Z</time>
      </trkpt>
      <trkpt lat="47.81349" lon="-3.6141">
        <ele>53</ele>
        <time>2018-07-18T10:28:25Z</time>
      </trkpt>
      <trkpt lat="47.81355" lon="-3.6141">
        <ele>53</ele>
        <time>2018-07-18T10:28:26Z</time>
      </trkpt>
      <trkpt lat="47.81361" lon="-3.61409">
        <ele>53</ele>
        <time>2018-07-18T10:28:27Z</time>
      </trkpt>
      <trkpt lat="47.81367" lon="-3.61409">
        <ele>53</ele>
        <time>2018-07-18T10:28:28Z</time>
      </trkpt>
      <trkpt lat="47.81373" lon="-3.61408">
        <ele>53</ele>
        <time>2018-07-18T10:28:29Z</time>
      </trkpt>
      <trkpt lat="47.81379" lon="-3.61408">
        <ele>52</ele>
        <time>2018-07-18T10:28:30Z</time>
      </trkpt>
      <trkpt lat="47.81383" lon="-3.61408">
        <ele>52</ele>
        <time>2018-07-18T10:28:31Z</time>
      </trkpt>
      <trkpt lat="47.81386" lon="-3.6141">
        <ele>52</ele>
        <time>2018-07-18T10:28:32Z</time>
      </trkpt>
      <trkpt lat="47.81389" lon="-3.61414">
        <ele>52</ele>
        <time>2018-07-18T10:28:33Z</time>
      </trkpt>
      <trkpt lat="47.81391" lon="-3.6142">
        <ele>52</ele>
        <time>2018-07-18T10:28:34Z</time>
      </trkpt>
      <trkpt lat="47.81393" lon="-3.61426">
        <ele>52</ele>
        <time>2018-07-18T10:28:35Z</time>
      </trkpt>
      <trkpt lat="47.81395" lon="-3.61433">
        <ele>52</ele>
        <time>2018-07-18T10:28:36Z</time>
      </trkpt>
      <trkpt lat="47.81396" lon="-3.61442">
        <ele>51</ele>
        <time>2018-07-18T10:28:37Z</time>
      </trkpt>
      <trkpt lat="47.81396" lon="-3.6145">
        <ele>51</ele>
        <time>2018-07-18T10:28:38Z</time>
      </trkpt>
      <trkpt lat="47.81397" lon="-3.61459">
        <ele>51</ele>
        <time>2018-07-18T10:28:39Z</time>
      </trkpt>
      <trkpt lat="47.81397" lon="-3.61468">
        <ele>51</ele>
        <time>2018-07-18T10:28:40Z</time>
      </trkpt>
      <trkpt lat="47.81399" lon="-3.61476">
        <ele>51</ele>
        <time>2018-07-18T10:28:41Z</time>
      </trkpt>
      <trkpt lat="47.81399" lon="-3.61485">
        <ele>50</ele>
        <time>2018-07-18T10:28:42Z</time>
      </trkpt>
      <trkpt lat="47.814" lon="-3.61494">
        <ele>50</ele>
        <time>2018-07-18T10:28:43Z</time>
      </trkpt>
      <trkpt lat="47.814" lon="-3.61503">
        <ele>50</ele>
        <time>2018-07-18T10:28:44Z</time>
      </trkpt>
      <trkpt lat="47.81401" lon="-3.61512">
        <ele>50</ele>
        <time>2018-07-18T10:28:45Z</time>
      </trkpt>
      <trkpt lat="47.81402" lon="-3.61521">
        <ele>50</ele>
        <time>2018-07-18T10:28:46Z</time>
      </trkpt>
      <trkpt lat="47.81402" lon="-3.6153">
        <ele>50</ele>
        <time>2018-07-18T10:28:47Z</time>
      </trkpt>
      <trkpt lat="47.81402" lon="-3.6154">
        <ele>49</ele>
        <time>2018-07-18T10:28:48Z</time>
      </trkpt>
      <trkpt lat="47.81403" lon="-3.6155">
        <ele>49</ele>
        <time>2018-07-18T10:28:49Z</time>
      </trkpt>
      <trkpt lat="47.81402" lon="-3.6156">
        <ele>49</ele>
        <time>2018-07-18T10:28:50Z</time>
      </trkpt>
      <trkpt lat="47.81402" lon="-3.6157">
        <ele>49</ele>
        <time>2018-07-18T10:28:51Z</time>
      </trkpt>
      <trkpt lat="47.81401" lon="-3.6158">
        <ele>49</ele>
        <time>2018-07-18T10:28:52Z</time>
      </trkpt>
      <trkpt lat="47.81401" lon="-3.61589">
        <ele>48</ele>
        <time>2018-07-18T10:28:53Z</time>
      </trkpt>
      <trkpt lat="47.814" lon="-3.61599">
        <ele>48</ele>
        <time>2018-07-18T10:28:54Z</time>
      </trkpt>
      <trkpt lat="47.81399" lon="-3.61609">
        <ele>48</ele>
        <time>2018-07-18T10:28:55Z</time>
      </trkpt>
      <trkpt lat="47.81399" lon="-3.61619">
        <ele>48</ele>
        <time>2018-07-18T10:28:56Z</time>
      </trkpt>
      <trkpt lat="47.81399" lon="-3.61629">
        <ele>48</ele>
        <time>2018-07-18T10:28:57Z</time>
      </trkpt>
      <trkpt lat="47.81398" lon="-3.61639">
        <ele>48</ele>
        <time>2018-07-18T10:28:58Z</time>
      </trkpt>
      <trkpt lat="47.81398" lon="-3.61649">
        <ele>48</ele>
        <time>2018-07-18T10:28:59Z</time>
      </trkpt>
      <trkpt lat="47.81397" lon="-3.61659">
        <ele>48</ele>
        <time>2018-07-18T10:29:00Z</time>
      </trkpt>
      <trkpt lat="47.81397" lon="-3.61669">
        <ele>47</ele>
        <time>2018-07-18T10:29:01Z</time>
      </trkpt>
      <trkpt lat="47.81397" lon="-3.61679">
        <ele>47</ele>
        <time>2018-07-18T10:29:02Z</time>
      </trkpt>
      <trkpt lat="47.81396" lon="-3.61689">
        <ele>47</ele>
        <time>2018-07-18T10:29:03Z</time>
      </trkpt>
      <trkpt lat="47.81396" lon="-3.61699">
        <ele>47</ele>
        <time>2018-07-18T10:29:04Z</time>
      </trkpt>
      <trkpt lat="47.81396" lon="-3.61709">
        <ele>47</ele>
        <time>2018-07-18T10:29:05Z</time>
      </trkpt>
      <trkpt lat="47.81395" lon="-3.61719">
        <ele>47</ele>
        <time>2018-07-18T10:29:06Z</time>
      </trkpt>
      <trkpt lat="47.81395" lon="-3.6173">
        <ele>47</ele>
        <time>2018-07-18T10:29:07Z</time>
      </trkpt>
      <trkpt lat="47.81395" lon="-3.6174">
        <ele>47</ele>
        <time>2018-07-18T10:29:08Z</time>
      </trkpt>
      <trkpt lat="47.81396" lon="-3.6175">
        <ele>47</ele>
        <time>2018-07-18T10:29:09Z</time>
      </trkpt>
      <trkpt lat="47.81396" lon="-3.6176">
        <ele>47</ele>
        <time>2018-07-18T10:29:10Z</time>
      </trkpt>
      <trkpt lat="47.81397" lon="-3.6177">
        <ele>47</ele>
        <time>2018-07-18T10:29:11Z</time>
      </trkpt>
      <trkpt lat="47.81398" lon="-3.6178">
        <ele>47</ele>
        <time>2018-07-18T10:29:12Z</time>
      </trkpt>
      <trkpt lat="47.81399" lon="-3.6179">
        <ele>47</ele>
        <time>2018-07-18T10:29:13Z</time>
      </trkpt>
      <trkpt lat="47.81401" lon="-3.61799">
        <ele>47</ele>
        <time>2018-07-18T10:29:14Z</time>
      </trkpt>
      <trkpt lat="47.81402" lon="-3.61808">
        <ele>47</ele>
        <time>2018-07-18T10:29:15Z</time>
      </trkpt>
      <trkpt lat="47.81403" lon="-3.61818">
        <ele>47</ele>
        <time>2018-07-18T10:29:16Z</time>
      </trkpt>
      <trkpt lat="47.81405" lon="-3.61827">
        <ele>48</ele>
        <time>2018-07-18T10:29:17Z</time>
      </trkpt>
      <trkpt lat="47.81406" lon="-3.61835">
        <ele>48</ele>
        <time>2018-07-18T10:29:18Z</time>
      </trkpt>
      <trkpt lat="47.81407" lon="-3.61844">
        <ele>48</ele>
        <time>2018-07-18T10:29:19Z</time>
      </trkpt>
      <trkpt lat="47.81409" lon="-3.61853">
        <ele>48</ele>
        <time>2018-07-18T10:29:20Z</time>
      </trkpt>
      <trkpt lat="47.8141" lon="-3.61862">
        <ele>48</ele>
        <time>2018-07-18T10:29:21Z</time>
      </trkpt>
      <trkpt lat="47.81412" lon="-3.6187">
        <ele>48</ele>
        <time>2018-07-18T10:29:22Z</time>
      </trkpt>
      <trkpt lat="47.81413" lon="-3.61879">
        <ele>48</ele>
        <time>2018-07-18T10:29:23Z</time>
      </trkpt>
      <trkpt lat="47.81415" lon="-3.61888">
        <ele>48</ele>
        <time>2018-07-18T10:29:24Z</time>
      </trkpt>
      <trkpt lat="47.81416" lon="-3.61897">
        <ele>48</ele>
        <time>2018-07-18T10:29:25Z</time>
      </trkpt>
      <trkpt lat="47.81417" lon="-3.61906">
        <ele>48</ele>
        <time>2018-07-18T10:29:26Z</time>
      </trkpt>
      <trkpt lat="47.81418" lon="-3.61915">
        <ele>48</ele>
        <time>2018-07-18T10:29:27Z</time>
      </trkpt>
      <trkpt lat="47.81419" lon="-3.61924">
        <ele>48</ele>
        <time>2018-07-18T10:29:28Z</time>
      </trkpt>
      <trkpt lat="47.8142" lon="-3.61933">
        <ele>48</ele>
        <time>2018-07-18T10:29:29Z</time>
      </trkpt>
      <trkpt lat="47.8142" lon="-3.61942">
        <ele>49</ele>
        <time>2018-07-18T10:29:30Z</time>
      </trkpt>
      <trkpt lat="47.8142" lon="-3.61952">
        <ele>49</ele>
        <time>2018-07-18T10:29:31Z</time>
      </trkpt>
      <trkpt lat="47.8142" lon="-3.61961">
        <ele>49</ele>
        <time>2018-07-18T10:29:32Z</time>
      </trkpt>
      <trkpt lat="47.8142" lon="-3.6197">
        <ele>49</ele>
        <time>2018-07-18T10:29:33Z</time>
      </trkpt>
      <trkpt lat="47.8142" lon="-3.61979">
        <ele>49</ele>
        <time>2018-07-18T10:29:34Z</time>
      </trkpt>
      <trkpt lat="47.81419" lon="-3.61988">
        <ele>49</ele>
        <time>2018-07-18T10:29:35Z</time>
      </trkpt>
      <trkpt lat="47.81419" lon="-3.61997">
        <ele>49</ele>
        <time>2018-07-18T10:29:36Z</time>
      </trkpt>
      <trkpt lat="47.81418" lon="-3.62006">
        <ele>49</ele>
        <time>2018-07-18T10:29:37Z</time>
      </trkpt>
      <trkpt lat="47.81417" lon="-3.62015">
        <ele>49</ele>
        <time>2018-07-18T10:29:38Z</time>
      </trkpt>
      <trkpt lat="47.81416" lon="-3.62024">
        <ele>49</ele>
        <time>2018-07-18T10:29:39Z</time>
      </trkpt>
      <trkpt lat="47.81415" lon="-3.62033">
        <ele>49</ele>
        <time>2018-07-18T10:29:40Z</time>
      </trkpt>
      <trkpt lat="47.81414" lon="-3.62042">
        <ele>50</ele>
        <time>2018-07-18T10:29:41Z</time>
      </trkpt>
      <trkpt lat="47.81413" lon="-3.62051">
        <ele>50</ele>
        <time>2018-07-18T10:29:42Z</time>
      </trkpt>
      <trkpt lat="47.81412" lon="-3.6206">
        <ele>50</ele>
        <time>2018-07-18T10:29:43Z</time>
      </trkpt>
      <trkpt lat="47.81411" lon="-3.62069">
        <ele>50</ele>
        <time>2018-07-18T10:29:44Z</time>
      </trkpt>
      <trkpt lat="47.8141" lon="-3.62078">
        <ele>50</ele>
        <time>2018-07-18T10:29:45Z</time>
      </trkpt>
      <trkpt lat="47.81409" lon="-3.62087">
        <ele>50</ele>
        <time>2018-07-18T10:29:46Z</time>
      </trkpt>
      <trkpt lat="47.81409" lon="-3.62096">
        <ele>50</ele>
        <time>2018-07-18T10:29:47Z</time>
      </trkpt>
      <trkpt lat="47.81408" lon="-3.62105">
        <ele>51</ele>
        <time>2018-07-18T10:29:48Z</time>
      </trkpt>
      <trkpt lat="47.81408" lon="-3.62113">
        <ele>51</ele>
        <time>2018-07-18T10:29:49Z</time>
      </trkpt>
      <trkpt lat="47.81408" lon="-3.62122">
        <ele>51</ele>
        <time>2018-07-18T10:29:50Z</time>
      </trkpt>
      <trkpt lat="47.81408" lon="-3.62131">
        <ele>51</ele>
        <time>2018-07-18T10:29:51Z</time>
      </trkpt>
      <trkpt lat="47.81408" lon="-3.6214">
        <ele>51</ele>
        <time>2018-07-18T10:29:52Z</time>
      </trkpt>
      <trkpt lat="47.81409" lon="-3.62149">
        <ele>51</ele>
        <time>2018-07-18T10:29:53Z</time>
      </trkpt>
      <trkpt lat="47.81409" lon="-3.62158">
        <ele>51</ele>
        <time>2018-07-18T10:29:54Z</time>
      </trkpt>
      <trkpt lat="47.8141" lon="-3.62167">
        <ele>51</ele>
        <time>2018-07-18T10:29:55Z</time>
      </trkpt>
      <trkpt lat="47.81411" lon="-3.62176">
        <ele>51</ele>
        <time>2018-07-18T10:29:56Z</time>
      </trkpt>
      <trkpt lat="47.81412" lon="-3.62185">
        <ele>51</ele>
        <time>2018-07-18T10:29:57Z</time>
      </trkpt>
      <trkpt lat="47.81414" lon="-3.62194">
        <ele>51</ele>
        <time>2018-07-18T10:29:58Z</time>
      </trkpt>
      <trkpt lat="47.81416" lon="-3.62202">
        <ele>51</ele>
        <time>2018-07-18T10:29:59Z</time>
      </trkpt>
      <trkpt lat="47.81418" lon="-3.62211">
        <ele>51</ele>
        <time>2018-07-18T10:30:00Z</time>
      </trkpt>
      <trkpt lat="47.8142" lon="-3.6222">
        <ele>51</ele>
        <time>2018-07-18T10:30:01Z</time>
      </trkpt>
      <trkpt lat="47.81422" lon="-3.62228">
        <ele>51</ele>
        <time>2018-07-18T10:30:02Z</time>
      </trkpt>
      <trkpt lat="47.81425" lon="-3.62237">
        <ele>51</ele>
        <time>2018-07-18T10:30:03Z</time>
      </trkpt>
      <trkpt lat="47.81427" lon="-3.62245">
        <ele>51</ele>
        <time>2018-07-18T10:30:04Z</time>
      </trkpt>
      <trkpt lat="47.8143" lon="-3.62254">
        <ele>51</ele>
        <time>2018-07-18T10:30:05Z</time>
      </trkpt>
      <trkpt lat="47.81432" lon="-3.62262">
        <ele>50</ele>
        <time>2018-07-18T10:30:06Z</time>
      </trkpt>
      <trkpt lat="47.81435" lon="-3.62271">
        <ele>50</ele>
        <time>2018-07-18T10:30:07Z</time>
      </trkpt>
      <trkpt lat="47.81438" lon="-3.62279">
        <ele>50</ele>
        <time>2018-07-18T10:30:08Z</time>
      </trkpt>
      <trkpt lat="47.8144" lon="-3.62287">
        <ele>50</ele>
        <time>2018-07-18T10:30:09Z</time>
      </trkpt>
      <trkpt lat="47.81443" lon="-3.62294">
        <ele>50</ele>
        <time>2018-07-18T10:30:10Z</time>
      </trkpt>
      <trkpt lat="47.81445" lon="-3.623">
        <ele>50</ele>
        <time>2018-07-18T10:30:11Z</time>
      </trkpt>
      <trkpt lat="47.81445" lon="-3.62306">
        <ele>50</ele>
        <time>2018-07-18T10:30:12Z</time>
      </trkpt>
      <trkpt lat="47.81445" lon="-3.6231">
        <ele>50</ele>
        <time>2018-07-18T10:30:13Z</time>
      </trkpt>
      <trkpt lat="47.81442" lon="-3.62314">
        <ele>50</ele>
        <time>2018-07-18T10:30:14Z</time>
      </trkpt>
      <trkpt lat="47.81439" lon="-3.62315">
        <ele>50</ele>
        <time>2018-07-18T10:30:15Z</time>
      </trkpt>
      <trkpt lat="47.81435" lon="-3.62316">
        <ele>50</ele>
        <time>2018-07-18T10:30:16Z</time>
      </trkpt>
      <trkpt lat="47.81431" lon="-3.62316">
        <ele>50</ele>
        <time>2018-07-18T10:30:17Z</time>
      </trkpt>
      <trkpt lat="47.81426" lon="-3.62316">
        <ele>50</ele>
        <time>2018-07-18T10:30:18Z</time>
      </trkpt>
      <trkpt lat="47.81421" lon="-3.62316">
        <ele>50</ele>
        <time>2018-07-18T10:30:19Z</time>
      </trkpt>
      <trkpt lat="47.81415" lon="-3.62316">
        <ele>50</ele>
        <time>2018-07-18T10:30:20Z</time>
      </trkpt>
      <trkpt lat="47.8141" lon="-3.62319">
        <ele>50</ele>
        <time>2018-07-18T10:30:21Z</time>
      </trkpt>
      <trkpt lat="47.81405" lon="-3.62323">
        <ele>49</ele>
        <time>2018-07-18T10:30:22Z</time>
      </trkpt>
      <trkpt lat="47.814" lon="-3.62327">
        <ele>49</ele>
        <time>2018-07-18T10:30:23Z</time>
      </trkpt>
      <trkpt lat="47.81396" lon="-3.62333">
        <ele>49</ele>
        <time>2018-07-18T10:30:24Z</time>
      </trkpt>
      <trkpt lat="47.8139" lon="-3.62339">
        <ele>49</ele>
        <time>2018-07-18T10:30:25Z</time>
      </trkpt>
      <trkpt lat="47.81386" lon="-3.62345">
        <ele>49</ele>
        <time>2018-07-18T10:30:26Z</time>
      </trkpt>
      <trkpt lat="47.8138" lon="-3.6235">
        <ele>49</ele>
        <time>2018-07-18T10:30:27Z</time>
      </trkpt>
      <trkpt lat="47.81375" lon="-3.62356">
        <ele>48</ele>
        <time>2018-07-18T10:30:28Z</time>
      </trkpt>
      <trkpt lat="47.8137" lon="-3.62362">
        <ele>48</ele>
        <time>2018-07-18T10:30:29Z</time>
      </trkpt>
      <trkpt lat="47.81366" lon="-3.62369">
        <ele>48</ele>
        <time>2018-07-18T10:30:30Z</time>
      </trkpt>
      <trkpt lat="47.81361" lon="-3.62376">
        <ele>48</ele>
        <time>2018-07-18T10:30:31Z</time>
      </trkpt>
      <trkpt lat="47.81357" lon="-3.62383">
        <ele>48</ele>
        <time>2018-07-18T10:30:32Z</time>
      </trkpt>
      <trkpt lat="47.81352" lon="-3.6239">
        <ele>48</ele>
        <time>2018-07-18T10:30:33Z</time>
      </trkpt>
      <trkpt lat="47.81348" lon="-3.62398">
        <ele>48</ele>
        <time>2018-07-18T10:30:34Z</time>
      </trkpt>
      <trkpt lat="47.81344" lon="-3.62405">
        <ele>48</ele>
        <time>2018-07-18T10:30:35Z</time>
      </trkpt>
      <trkpt lat="47.8134" lon="-3.62413">
        <ele>48</ele>
        <time>2018-07-18T10:30:36Z</time>
      </trkpt>
      <trkpt lat="47.81336" lon="-3.62421">
        <ele>48</ele>
        <time>2018-07-18T10:30:37Z</time>
      </trkpt>
      <trkpt lat="47.81333" lon="-3.6243">
        <ele>48</ele>
        <time>2018-07-18T10:30:38Z</time>
      </trkpt>
      <trkpt lat="47.81329" lon="-3.62438">
        <ele>48</ele>
        <time>2018-07-18T10:30:39Z</time>
      </trkpt>
      <trkpt lat="47.81326" lon="-3.62447">
        <ele>48</ele>
        <time>2018-07-18T10:30:40Z</time>
      </trkpt>
      <trkpt lat="47.81322" lon="-3.62455">
        <ele>48</ele>
        <time>2018-07-18T10:30:41Z</time>
      </trkpt>
      <trkpt lat="47.81318" lon="-3.62463">
        <ele>47</ele>
        <time>2018-07-18T10:30:42Z</time>
      </trkpt>
      <trkpt lat="47.81315" lon="-3.62471">
        <ele>47</ele>
        <time>2018-07-18T10:30:43Z</time>
      </trkpt>
      <trkpt lat="47.81311" lon="-3.62479">
        <ele>47</ele>
        <time>2018-07-18T10:30:44Z</time>
      </trkpt>
      <trkpt lat="47.81308" lon="-3.62486">
        <ele>47</ele>
        <time>2018-07-18T10:30:45Z</time>
      </trkpt>
      <trkpt lat="47.81304" lon="-3.62493">
        <ele>47</ele>
        <time>2018-07-18T10:30:46Z</time>
      </trkpt>
      <trkpt lat="47.81301" lon="-3.62501">
        <ele>47</ele>
        <time>2018-07-18T10:30:47Z</time>
      </trkpt>
      <trkpt lat="47.81297" lon="-3.62509">
        <ele>47</ele>
        <time>2018-07-18T10:30:48Z</time>
      </trkpt>
      <trkpt lat="47.81293" lon="-3.62517">
        <ele>47</ele>
        <time>2018-07-18T10:30:49Z</time>
      </trkpt>
      <trkpt lat="47.81289" lon="-3.62525">
        <ele>47</ele>
        <time>2018-07-18T10:30:50Z</time>
      </trkpt>
      <trkpt lat="47.81284" lon="-3.62533">
        <ele>47</ele>
        <time>2018-07-18T10:30:51Z</time>
      </trkpt>
      <trkpt lat="47.8128" lon="-3.62541">
        <ele>47</ele>
        <time>2018-07-18T10:30:52Z</time>
      </trkpt>
      <trkpt lat="47.81276" lon="-3.62549">
        <ele>46</ele>
        <time>2018-07-18T10:30:53Z</time>
      </trkpt>
      <trkpt lat="47.81272" lon="-3.62558">
        <ele>46</ele>
        <time>2018-07-18T10:30:54Z</time>
      </trkpt>
      <trkpt lat="47.81268" lon="-3.62566">
        <ele>46</ele>
        <time>2018-07-18T10:30:55Z</time>
      </trkpt>
      <trkpt lat="47.81264" lon="-3.62575">
        <ele>46</ele>
        <time>2018-07-18T10:30:56Z</time>
      </trkpt>
      <trkpt lat="47.81259" lon="-3.62583">
        <ele>46</ele>
        <time>2018-07-18T10:30:57Z</time>
      </trkpt>
      <trkpt lat="47.81255" lon="-3.62591">
        <ele>46</ele>
        <time>2018-07-18T10:30:58Z</time>
      </trkpt>
      <trkpt lat="47.8125" lon="-3.62599">
        <ele>46</ele>
        <time>2018-07-18T10:30:59Z</time>
      </trkpt>
      <trkpt lat="47.81246" lon="-3.62607">
        <ele>46</ele>
        <time>2018-07-18T10:31:00Z</time>
      </trkpt>
      <trkpt lat="47.81242" lon="-3.62615">
        <ele>46</ele>
        <time>2018-07-18T10:31:01Z</time>
      </trkpt>
      <trkpt lat="47.81242" lon="-3.62624">
        <ele>46</ele>
        <time>2018-07-18T10:31:02Z</time>
      </trkpt>
      <trkpt lat="47.81243" lon="-3.62633">
        <ele>46</ele>
        <time>2018-07-18T10:31:03Z</time>
      </trkpt>
      <trkpt lat="47.81245" lon="-3.62639">
        <ele>46</ele>
        <time>2018-07-18T10:31:04Z</time>
      </trkpt>
      <trkpt lat="47.81249" lon="-3.62644">
        <ele>46</ele>
        <time>2018-07-18T10:31:05Z</time>
      </trkpt>
      <trkpt lat="47.81254" lon="-3.62649">
        <ele>46</ele>
        <time>2018-07-18T10:31:06Z</time>
      </trkpt>
      <trkpt lat="47.81258" lon="-3.62653">
        <ele>46</ele>
        <time>2018-07-18T10:31:07Z</time>
      </trkpt>
      <trkpt lat="47.81262" lon="-3.62657">
        <ele>46</ele>
        <time>2018-07-18T10:31:08Z</time>
      </trkpt>
      <trkpt lat="47.81267" lon="-3.62661">
        <ele>46</ele>
        <time>2018-07-18T10:31:09Z</time>
      </trkpt>
      <trkpt lat="47.81271" lon="-3.62665">
        <ele>46</ele>
        <time>2018-07-18T10:31:10Z</time>
      </trkpt>
      <trkpt lat="47.81276" lon="-3.62668">
        <ele>46</ele>
        <time>2018-07-18T10:31:11Z</time>
      </trkpt>
      <trkpt lat="47.81281" lon="-3.62672">
        <ele>46</ele>
        <time>2018-07-18T10:31:12Z</time>
      </trkpt>
      <trkpt lat="47.81285" lon="-3.62676">
        <ele>46</ele>
        <time>2018-07-18T10:31:13Z</time>
      </trkpt>
      <trkpt lat="47.8129" lon="-3.62679">
        <ele>46</ele>
        <time>2018-07-18T10:31:14Z</time>
      </trkpt>
      <trkpt lat="47.81294" lon="-3.62683">
        <ele>46</ele>
        <time>2018-07-18T10:31:15Z</time>
      </trkpt>
      <trkpt lat="47.81298" lon="-3.62687">
        <ele>46</ele>
        <time>2018-07-18T10:31:16Z</time>
      </trkpt>
      <trkpt lat="47.81302" lon="-3.62691">
        <ele>46</ele>
        <time>2018-07-18T10:31:17Z</time>
      </trkpt>
      <trkpt lat="47.81305" lon="-3.62696">
        <ele>46</ele>
        <time>2018-07-18T10:31:18Z</time>
      </trkpt>
      <trkpt lat="47.81305" lon="-3.62702">
        <ele>46</ele>
        <time>2018-07-18T10:31:19Z</time>
      </trkpt>
      <trkpt lat="47.81304" lon="-3.62708">
        <ele>46</ele>
        <time>2018-07-18T10:31:20Z</time>
      </trkpt>
      <trkpt lat="47.81301" lon="-3.62713">
        <ele>46</ele>
        <time>2018-07-18T10:31:21Z</time>
      </trkpt>
      <trkpt lat="47.81297" lon="-3.62718">
        <ele>46</ele>
        <time>2018-07-18T10:31:22Z</time>
      </trkpt>
      <trkpt lat="47.81295" lon="-3.62724">
        <ele>46</ele>
        <time>2018-07-18T10:31:23Z</time>
      </trkpt>
      <trkpt lat="47.81295" lon="-3.62729">
        <ele>46</ele>
        <time>2018-07-18T10:31:24Z</time>
      </trkpt>
      <trkpt lat="47.81297" lon="-3.62732">
        <ele>46</ele>
        <time>2018-07-18T10:31:25Z</time>
      </trkpt>
      <trkpt lat="47.813" lon="-3.62734">
        <ele>46</ele>
        <time>2018-07-18T10:31:26Z</time>
      </trkpt>
      <trkpt lat="47.81302" lon="-3.62736">
        <ele>46</ele>
        <time>2018-07-18T10:31:27Z</time>
      </trkpt>
      <trkpt lat="47.81305" lon="-3.62739">
        <ele>46</ele>
        <time>2018-07-18T10:31:28Z</time>
      </trkpt>
      <trkpt lat="47.81308" lon="-3.62743">
        <ele>46</ele>
        <time>2018-07-18T10:31:29Z</time>
      </trkpt>
      <trkpt lat="47.81311" lon="-3.62746">
        <ele>46</ele>
        <time>2018-07-18T10:31:30Z</time>
      </trkpt>
      <trkpt lat="47.81315" lon="-3.62749">
        <ele>46</ele>
        <time>2018-07-18T10:31:31Z</time>
      </trkpt>
      <trkpt lat="47.81318" lon="-3.62752">
        <ele>47</ele>
        <time>2018-07-18T10:31:32Z</time>
      </trkpt>
      <trkpt lat="47.81322" lon="-3.62756">
        <ele>47</ele>
        <time>2018-07-18T10:31:33Z</time>
      </trkpt>
      <trkpt lat="47.81325" lon="-3.62761">
        <ele>47</ele>
        <time>2018-07-18T10:31:34Z</time>
      </trkpt>
      <trkpt lat="47.81328" lon="-3.62765">
        <ele>47</ele>
        <time>2018-07-18T10:31:35Z</time>
      </trkpt>
      <trkpt lat="47.81332" lon="-3.6277">
        <ele>47</ele>
        <time>2018-07-18T10:31:36Z</time>
      </trkpt>
      <trkpt lat="47.81335" lon="-3.62774">
        <ele>47</ele>
        <time>2018-07-18T10:31:37Z</time>
      </trkpt>
      <trkpt lat="47.81339" lon="-3.62779">
        <ele>47</ele>
        <time>2018-07-18T10:31:38Z</time>
      </trkpt>
      <trkpt lat="47.81343" lon="-3.62783">
        <ele>47</ele>
        <time>2018-07-18T10:31:39Z</time>
      </trkpt>
      <trkpt lat="47.81346" lon="-3.62788">
        <ele>47</ele>
        <time>2018-07-18T10:31:40Z</time>
      </trkpt>
      <trkpt lat="47.8135" lon="-3.62792">
        <ele>47</ele>
        <time>2018-07-18T10:31:41Z</time>
      </trkpt>
      <trkpt lat="47.81354" lon="-3.62797">
        <ele>48</ele>
        <time>2018-07-18T10:31:42Z</time>
      </trkpt>
      <trkpt lat="47.81357" lon="-3.62801">
        <ele>48</ele>
        <time>2018-07-18T10:31:43Z</time>
      </trkpt>
      <trkpt lat="47.81361" lon="-3.62806">
        <ele>48</ele>
        <time>2018-07-18T10:31:44Z</time>
      </trkpt>
      <trkpt lat="47.81364" lon="-3.6281">
        <ele>48</ele>
        <time>2018-07-18T10:31:45Z</time>
      </trkpt>
      <trkpt lat="47.81368" lon="-3.62815">
        <ele>49</ele>
        <time>2018-07-18T10:31:46Z</time>
      </trkpt>
      <trkpt lat="47.81371" lon="-3.62818">
        <ele>49</ele>
        <time>2018-07-18T10:31:47Z</time>
      </trkpt>
      <trkpt lat="47.81374" lon="-3.62822">
        <ele>49</ele>
        <time>2018-07-18T10:31:48Z</time>
      </trkpt>
      <trkpt lat="47.81377" lon="-3.62827">
        <ele>49</ele>
        <time>2018-07-18T10:31:49Z</time>
      </trkpt>
      <trkpt lat="47.8138" lon="-3.62831">
        <ele>50</ele>
        <time>2018-07-18T10:31:50Z</time>
      </trkpt>
      <trkpt lat="47.81383" lon="-3.62835">
        <ele>50</ele>
        <time>2018-07-18T10:31:51Z</time>
      </trkpt>
      <trkpt lat="47.81387" lon="-3.62838">
        <ele>50</ele>
        <time>2018-07-18T10:31:52Z</time>
      </trkpt>
      <trkpt lat="47.8139" lon="-3.62842">
        <ele>50</ele>
        <time>2018-07-18T10:31:53Z</time>
      </trkpt>
      <trkpt lat="47.81393" lon="-3.62845">
        <ele>50</ele>
        <time>2018-07-18T10:31:54Z</time>
      </trkpt>
      <trkpt lat="47.81396" lon="-3.62847">
        <ele>51</ele>
        <time>2018-07-18T10:31:55Z</time>
      </trkpt>
      <trkpt lat="47.81397" lon="-3.62847">
        <ele>51</ele>
        <time>2018-07-18T10:31:56Z</time>
      </trkpt>
      <trkpt lat="47.814" lon="-3.62847">
        <ele>51</ele>
        <time>2018-07-18T10:31:57Z</time>
      </trkpt>
      <trkpt lat="47.81403" lon="-3.62847">
        <ele>51</ele>
        <time>2018-07-18T10:31:58Z</time>
      </trkpt>
      <trkpt lat="47.81406" lon="-3.62848">
        <ele>52</ele>
        <time>2018-07-18T10:31:59Z</time>
      </trkpt>
      <trkpt lat="47.8141" lon="-3.62848">
        <ele>52</ele>
        <time>2018-07-18T10:32:00Z</time>
      </trkpt>
      <trkpt lat="47.81414" lon="-3.62849">
        <ele>52</ele>
        <time>2018-07-18T10:32:01Z</time>
      </trkpt>
      <trkpt lat="47.81418" lon="-3.62851">
        <ele>52</ele>
        <time>2018-07-18T10:32:02Z</time>
      </trkpt>
      <trkpt lat="47.81422" lon="-3.62854">
        <ele>52</ele>
        <time>2018-07-18T10:32:03Z</time>
      </trkpt>
      <trkpt lat="47.81426" lon="-3.62857">
        <ele>52</ele>
        <time>2018-07-18T10:32:04Z</time>
      </trkpt>
      <trkpt lat="47.81429" lon="-3.62859">
        <ele>53</ele>
        <time>2018-07-18T10:32:05Z</time>
      </trkpt>
      <trkpt lat="47.81433" lon="-3.62863">
        <ele>53</ele>
        <time>2018-07-18T10:32:06Z</time>
      </trkpt>
      <trkpt lat="47.81436" lon="-3.62866">
        <ele>53</ele>
        <time>2018-07-18T10:32:07Z</time>
      </trkpt>
      <trkpt lat="47.81438" lon="-3.62871">
        <ele>53</ele>
        <time>2018-07-18T10:32:08Z</time>
      </trkpt>
      <trkpt lat="47.81439" lon="-3.62876">
        <ele>53</ele>
        <time>2018-07-18T10:32:09Z</time>
      </trkpt>
      <trkpt lat="47.8144" lon="-3.62882">
        <ele>53</ele>
        <time>2018-07-18T10:32:10Z</time>
      </trkpt>
      <trkpt lat="47.8144" lon="-3.62888">
        <ele>53</ele>
        <time>2018-07-18T10:32:11Z</time>
      </trkpt>
      <trkpt lat="47.81439" lon="-3.62894">
        <ele>53</ele>
        <time>2018-07-18T10:32:12Z</time>
      </trkpt>
      <trkpt lat="47.81437" lon="-3.629">
        <ele>53</ele>
        <time>2018-07-18T10:32:13Z</time>
      </trkpt>
      <trkpt lat="47.81435" lon="-3.62906">
        <ele>53</ele>
        <time>2018-07-18T10:32:14Z</time>
      </trkpt>
      <trkpt lat="47.81433" lon="-3.62912">
        <ele>53</ele>
        <time>2018-07-18T10:32:15Z</time>
      </trkpt>
      <trkpt lat="47.81432" lon="-3.6292">
        <ele>53</ele>
        <time>2018-07-18T10:32:16Z</time>
      </trkpt>
      <trkpt lat="47.81431" lon="-3.62927">
        <ele>53</ele>
        <time>2018-07-18T10:32:17Z</time>
      </trkpt>
      <trkpt lat="47.8143" lon="-3.62935">
        <ele>53</ele>
        <time>2018-07-18T10:32:18Z</time>
      </trkpt>
      <trkpt lat="47.81429" lon="-3.62943">
        <ele>53</ele>
        <time>2018-07-18T10:32:19Z</time>
      </trkpt>
      <trkpt lat="47.81429" lon="-3.6295">
        <ele>53</ele>
        <time>2018-07-18T10:32:20Z</time>
      </trkpt>
      <trkpt lat="47.81429" lon="-3.62957">
        <ele>53</ele>
        <time>2018-07-18T10:32:21Z</time>
      </trkpt>
      <trkpt lat="47.81428" lon="-3.62965">
        <ele>53</ele>
        <time>2018-07-18T10:32:22Z</time>
      </trkpt>
      <trkpt lat="47.81428" lon="-3.62972">
        <ele>53</ele>
        <time>2018-07-18T10:32:23Z</time>
      </trkpt>
      <trkpt lat="47.81428" lon="-3.62978">
        <ele>54</ele>
        <time>2018-07-18T10:32:24Z</time>
      </trkpt>
      <trkpt lat="47.81427" lon="-3.62985">
        <ele>54</ele>
        <time>2018-07-18T10:32:25Z</time>
      </trkpt>
      <trkpt lat="47.81427" lon="-3.62992">
        <ele>54</ele>
        <time>2018-07-18T10:32:26Z</time>
      </trkpt>
      <trkpt lat="47.81426" lon="-3.63">
        <ele>54</ele>
        <time>2018-07-18T10:32:27Z</time>
      </trkpt>
      <trkpt lat="47.81425" lon="-3.63008">
        <ele>54</ele>
        <time>2018-07-18T10:32:28Z</time>
      </trkpt>
      <trkpt lat="47.81424" lon="-3.63016">
        <ele>54</ele>
        <time>2018-07-18T10:32:29Z</time>
      </trkpt>
      <trkpt lat="47.81423" lon="-3.63024">
        <ele>54</ele>
        <time>2018-07-18T10:32:30Z</time>
      </trkpt>
      <trkpt lat="47.81422" lon="-3.63032">
        <ele>54</ele>
        <time>2018-07-18T10:32:31Z</time>
      </trkpt>
      <trkpt lat="47.8142" lon="-3.6304">
        <ele>54</ele>
        <time>2018-07-18T10:32:32Z</time>
      </trkpt>
      <trkpt lat="47.81419" lon="-3.63048">
        <ele>54</ele>
        <time>2018-07-18T10:32:33Z</time>
      </trkpt>
      <trkpt lat="47.81417" lon="-3.63057">
        <ele>54</ele>
        <time>2018-07-18T10:32:34Z</time>
      </trkpt>
      <trkpt lat="47.81416" lon="-3.63065">
        <ele>54</ele>
        <time>2018-07-18T10:32:35Z</time>
      </trkpt>
      <trkpt lat="47.81415" lon="-3.63074">
        <ele>54</ele>
        <time>2018-07-18T10:32:36Z</time>
      </trkpt>
      <trkpt lat="47.81414" lon="-3.63082">
        <ele>54</ele>
        <time>2018-07-18T10:32:37Z</time>
      </trkpt>
      <trkpt lat="47.81413" lon="-3.63091">
        <ele>54</ele>
        <time>2018-07-18T10:32:38Z</time>
      </trkpt>
      <trkpt lat="47.81412" lon="-3.63099">
        <ele>54</ele>
        <time>2018-07-18T10:32:39Z</time>
      </trkpt>
      <trkpt lat="47.81412" lon="-3.63108">
        <ele>54</ele>
        <time>2018-07-18T10:32:40Z</time>
      </trkpt>
      <trkpt lat="47.8141" lon="-3.63116">
        <ele>54</ele>
        <time>2018-07-18T10:32:41Z</time>
      </trkpt>
      <trkpt lat="47.8141" lon="-3.63124">
        <ele>54</ele>
        <time>2018-07-18T10:32:42Z</time>
      </trkpt>
      <trkpt lat="47.81409" lon="-3.63133">
        <ele>54</ele>
        <time>2018-07-18T10:32:43Z</time>
      </trkpt>
      <trkpt lat="47.81408" lon="-3.63142">
        <ele>54</ele>
        <time>2018-07-18T10:32:44Z</time>
      </trkpt>
      <trkpt lat="47.81407" lon="-3.6315">
        <ele>54</ele>
        <time>2018-07-18T10:32:45Z</time>
      </trkpt>
      <trkpt lat="47.81406" lon="-3.63159">
        <ele>54</ele>
        <time>2018-07-18T10:32:46Z</time>
      </trkpt>
      <trkpt lat="47.81405" lon="-3.63168">
        <ele>54</ele>
        <time>2018-07-18T10:32:47Z</time>
      </trkpt>
      <trkpt lat="47.81403" lon="-3.63176">
        <ele>54</ele>
        <time>2018-07-18T10:32:48Z</time>
      </trkpt>
      <trkpt lat="47.81402" lon="-3.63185">
        <ele>54</ele>
        <time>2018-07-18T10:32:49Z</time>
      </trkpt>
      <trkpt lat="47.81401" lon="-3.63194">
        <ele>54</ele>
        <time>2018-07-18T10:32:50Z</time>
      </trkpt>
      <trkpt lat="47.814" lon="-3.63202">
        <ele>54</ele>
        <time>2018-07-18T10:32:51Z</time>
      </trkpt>
      <trkpt lat="47.81399" lon="-3.6321">
        <ele>54</ele>
        <time>2018-07-18T10:32:52Z</time>
      </trkpt>
      <trkpt lat="47.81397" lon="-3.63218">
        <ele>54</ele>
        <time>2018-07-18T10:32:53Z</time>
      </trkpt>
      <trkpt lat="47.81396" lon="-3.63226">
        <ele>54</ele>
        <time>2018-07-18T10:32:54Z</time>
      </trkpt>
      <trkpt lat="47.81394" lon="-3.63234">
        <ele>54</ele>
        <time>2018-07-18T10:32:55Z</time>
      </trkpt>
      <trkpt lat="47.81393" lon="-3.63243">
        <ele>54</ele>
        <time>2018-07-18T10:32:56Z</time>
      </trkpt>
      <trkpt lat="47.81391" lon="-3.63251">
        <ele>54</ele>
        <time>2018-07-18T10:32:57Z</time>
      </trkpt>
      <trkpt lat="47.8139" lon="-3.6326">
        <ele>54</ele>
        <time>2018-07-18T10:32:58Z</time>
      </trkpt>
      <trkpt lat="47.81388" lon="-3.6327">
        <ele>54</ele>
        <time>2018-07-18T10:32:59Z</time>
      </trkpt>
      <trkpt lat="47.81387" lon="-3.63279">
        <ele>54</ele>
        <time>2018-07-18T10:33:00Z</time>
      </trkpt>
      <trkpt lat="47.81386" lon="-3.63288">
        <ele>54</ele>
        <time>2018-07-18T10:33:01Z</time>
      </trkpt>
      <trkpt lat="47.81384" lon="-3.63297">
        <ele>54</ele>
        <time>2018-07-18T10:33:02Z</time>
      </trkpt>
      <trkpt lat="47.81383" lon="-3.63306">
        <ele>54</ele>
        <time>2018-07-18T10:33:03Z</time>
      </trkpt>
      <trkpt lat="47.81381" lon="-3.63315">
        <ele>53</ele>
        <time>2018-07-18T10:33:04Z</time>
      </trkpt>
      <trkpt lat="47.8138" lon="-3.63324">
        <ele>53</ele>
        <time>2018-07-18T10:33:05Z</time>
      </trkpt>
      <trkpt lat="47.81378" lon="-3.63334">
        <ele>53</ele>
        <time>2018-07-18T10:33:06Z</time>
      </trkpt>
      <trkpt lat="47.81377" lon="-3.63343">
        <ele>53</ele>
        <time>2018-07-18T10:33:07Z</time>
      </trkpt>
      <trkpt lat="47.81376" lon="-3.63352">
        <ele>53</ele>
        <time>2018-07-18T10:33:08Z</time>
      </trkpt>
      <trkpt lat="47.81374" lon="-3.63361">
        <ele>53</ele>
        <time>2018-07-18T10:33:09Z</time>
      </trkpt>
      <trkpt lat="47.81373" lon="-3.6337">
        <ele>53</ele>
        <time>2018-07-18T10:33:10Z</time>
      </trkpt>
      <trkpt lat="47.81372" lon="-3.63379">
        <ele>53</ele>
        <time>2018-07-18T10:33:11Z</time>
      </trkpt>
      <trkpt lat="47.81372" lon="-3.63387">
        <ele>53</ele>
        <time>2018-07-18T10:33:12Z</time>
      </trkpt>
      <trkpt lat="47.81371" lon="-3.63396">
        <ele>53</ele>
        <time>2018-07-18T10:33:13Z</time>
      </trkpt>
      <trkpt lat="47.8137" lon="-3.63404">
        <ele>53</ele>
        <time>2018-07-18T10:33:14Z</time>
      </trkpt>
      <trkpt lat="47.81369" lon="-3.63412">
        <ele>53</ele>
        <time>2018-07-18T10:33:15Z</time>
      </trkpt>
      <trkpt lat="47.81368" lon="-3.6342">
        <ele>53</ele>
        <time>2018-07-18T10:33:16Z</time>
      </trkpt>
      <trkpt lat="47.81367" lon="-3.63428">
        <ele>53</ele>
        <time>2018-07-18T10:33:17Z</time>
      </trkpt>
      <trkpt lat="47.81367" lon="-3.63436">
        <ele>53</ele>
        <time>2018-07-18T10:33:18Z</time>
      </trkpt>
      <trkpt lat="47.81366" lon="-3.63445">
        <ele>53</ele>
        <time>2018-07-18T10:33:19Z</time>
      </trkpt>
      <trkpt lat="47.81365" lon="-3.63454">
        <ele>53</ele>
        <time>2018-07-18T10:33:20Z</time>
      </trkpt>
      <trkpt lat="47.81364" lon="-3.63462">
        <ele>52</ele>
        <time>2018-07-18T10:33:21Z</time>
      </trkpt>
      <trkpt lat="47.81363" lon="-3.63471">
        <ele>52</ele>
        <time>2018-07-18T10:33:22Z</time>
      </trkpt>
      <trkpt lat="47.81362" lon="-3.63481">
        <ele>52</ele>
        <time>2018-07-18T10:33:23Z</time>
      </trkpt>
      <trkpt lat="47.81361" lon="-3.6349">
        <ele>52</ele>
        <time>2018-07-18T10:33:24Z</time>
      </trkpt>
      <trkpt lat="47.8136" lon="-3.63499">
        <ele>52</ele>
        <time>2018-07-18T10:33:25Z</time>
      </trkpt>
      <trkpt lat="47.81359" lon="-3.63508">
        <ele>52</ele>
        <time>2018-07-18T10:33:26Z</time>
      </trkpt>
      <trkpt lat="47.81358" lon="-3.63518">
        <ele>52</ele>
        <time>2018-07-18T10:33:27Z</time>
      </trkpt>
      <trkpt lat="47.81356" lon="-3.63527">
        <ele>52</ele>
        <time>2018-07-18T10:33:28Z</time>
      </trkpt>
      <trkpt lat="47.81355" lon="-3.63537">
        <ele>51</ele>
        <time>2018-07-18T10:33:29Z</time>
      </trkpt>
      <trkpt lat="47.81353" lon="-3.63546">
        <ele>51</ele>
        <time>2018-07-18T10:33:30Z</time>
      </trkpt>
      <trkpt lat="47.81351" lon="-3.63555">
        <ele>51</ele>
        <time>2018-07-18T10:33:31Z</time>
      </trkpt>
      <trkpt lat="47.8135" lon="-3.63564">
        <ele>51</ele>
        <time>2018-07-18T10:33:32Z</time>
      </trkpt>
      <trkpt lat="47.81348" lon="-3.63574">
        <ele>51</ele>
        <time>2018-07-18T10:33:33Z</time>
      </trkpt>
      <trkpt lat="47.81346" lon="-3.63583">
        <ele>51</ele>
        <time>2018-07-18T10:33:34Z</time>
      </trkpt>
      <trkpt lat="47.81345" lon="-3.63592">
        <ele>51</ele>
        <time>2018-07-18T10:33:35Z</time>
      </trkpt>
      <trkpt lat="47.81343" lon="-3.63602">
        <ele>51</ele>
        <time>2018-07-18T10:33:36Z</time>
      </trkpt>
      <trkpt lat="47.81341" lon="-3.63611">
        <ele>51</ele>
        <time>2018-07-18T10:33:37Z</time>
      </trkpt>
      <trkpt lat="47.81339" lon="-3.6362">
        <ele>51</ele>
        <time>2018-07-18T10:33:38Z</time>
      </trkpt>
      <trkpt lat="47.81337" lon="-3.63629">
        <ele>51</ele>
        <time>2018-07-18T10:33:39Z</time>
      </trkpt>
      <trkpt lat="47.81335" lon="-3.63638">
        <ele>51</ele>
        <time>2018-07-18T10:33:40Z</time>
      </trkpt>
      <trkpt lat="47.81333" lon="-3.63648">
        <ele>51</ele>
        <time>2018-07-18T10:33:41Z</time>
      </trkpt>
      <trkpt lat="47.81331" lon="-3.63657">
        <ele>51</ele>
        <time>2018-07-18T10:33:42Z</time>
      </trkpt>
      <trkpt lat="47.81329" lon="-3.63666">
        <ele>50</ele>
        <time>2018-07-18T10:33:43Z</time>
      </trkpt>
      <trkpt lat="47.81327" lon="-3.63676">
        <ele>50</ele>
        <time>2018-07-18T10:33:44Z</time>
      </trkpt>
      <trkpt lat="47.81326" lon="-3.63685">
        <ele>50</ele>
        <time>2018-07-18T10:33:45Z</time>
      </trkpt>
      <trkpt lat="47.81324" lon="-3.63695">
        <ele>50</ele>
        <time>2018-07-18T10:33:46Z</time>
      </trkpt>
      <trkpt lat="47.81321" lon="-3.63704">
        <ele>50</ele>
        <time>2018-07-18T10:33:47Z</time>
      </trkpt>
      <trkpt lat="47.81319" lon="-3.63713">
        <ele>51</ele>
        <time>2018-07-18T10:33:48Z</time>
      </trkpt>
      <trkpt lat="47.81317" lon="-3.63722">
        <ele>51</ele>
        <time>2018-07-18T10:33:49Z</time>
      </trkpt>
      <trkpt lat="47.81315" lon="-3.63731">
        <ele>51</ele>
        <time>2018-07-18T10:33:50Z</time>
      </trkpt>
      <trkpt lat="47.81313" lon="-3.6374">
        <ele>51</ele>
        <time>2018-07-18T10:33:51Z</time>
      </trkpt>
      <trkpt lat="47.81311" lon="-3.63749">
        <ele>51</ele>
        <time>2018-07-18T10:33:52Z</time>
      </trkpt>
      <trkpt lat="47.81309" lon="-3.63758">
        <ele>51</ele>
        <time>2018-07-18T10:33:53Z</time>
      </trkpt>
      <trkpt lat="47.81307" lon="-3.63767">
        <ele>51</ele>
        <time>2018-07-18T10:33:54Z</time>
      </trkpt>
      <trkpt lat="47.81305" lon="-3.63775">
        <ele>51</ele>
        <time>2018-07-18T10:33:55Z</time>
      </trkpt>
      <trkpt lat="47.81303" lon="-3.63784">
        <ele>51</ele>
        <time>2018-07-18T10:33:56Z</time>
      </trkpt>
      <trkpt lat="47.81302" lon="-3.63792">
        <ele>51</ele>
        <time>2018-07-18T10:33:57Z</time>
      </trkpt>
      <trkpt lat="47.813" lon="-3.63799">
        <ele>51</ele>
        <time>2018-07-18T10:33:58Z</time>
      </trkpt>
      <trkpt lat="47.81298" lon="-3.63807">
        <ele>51</ele>
        <time>2018-07-18T10:33:59Z</time>
      </trkpt>
      <trkpt lat="47.81296" lon="-3.63814">
        <ele>51</ele>
        <time>2018-07-18T10:34:00Z</time>
      </trkpt>
      <trkpt lat="47.81294" lon="-3.63822">
        <ele>51</ele>
        <time>2018-07-18T10:34:01Z</time>
      </trkpt>
      <trkpt lat="47.81292" lon="-3.63829">
        <ele>51</ele>
        <time>2018-07-18T10:34:02Z</time>
      </trkpt>
      <trkpt lat="47.81291" lon="-3.63836">
        <ele>51</ele>
        <time>2018-07-18T10:34:03Z</time>
      </trkpt>
      <trkpt lat="47.81289" lon="-3.63844">
        <ele>51</ele>
        <time>2018-07-18T10:34:04Z</time>
      </trkpt>
      <trkpt lat="47.81287" lon="-3.63851">
        <ele>51</ele>
        <time>2018-07-18T10:34:05Z</time>
      </trkpt>
      <trkpt lat="47.81285" lon="-3.63858">
        <ele>51</ele>
        <time>2018-07-18T10:34:06Z</time>
      </trkpt>
      <trkpt lat="47.81284" lon="-3.63866">
        <ele>51</ele>
        <time>2018-07-18T10:34:07Z</time>
      </trkpt>
      <trkpt lat="47.81282" lon="-3.63873">
        <ele>51</ele>
        <time>2018-07-18T10:34:08Z</time>
      </trkpt>
      <trkpt lat="47.81281" lon="-3.63881">
        <ele>51</ele>
        <time>2018-07-18T10:34:09Z</time>
      </trkpt>
      <trkpt lat="47.81279" lon="-3.63889">
        <ele>51</ele>
        <time>2018-07-18T10:34:10Z</time>
      </trkpt>
      <trkpt lat="47.81277" lon="-3.63898">
        <ele>51</ele>
        <time>2018-07-18T10:34:11Z</time>
      </trkpt>
      <trkpt lat="47.81275" lon="-3.63906">
        <ele>50</ele>
        <time>2018-07-18T10:34:12Z</time>
      </trkpt>
      <trkpt lat="47.81274" lon="-3.63915">
        <ele>50</ele>
        <time>2018-07-18T10:34:13Z</time>
      </trkpt>
      <trkpt lat="47.81272" lon="-3.63924">
        <ele>50</ele>
        <time>2018-07-18T10:34:14Z</time>
      </trkpt>
      <trkpt lat="47.81271" lon="-3.63934">
        <ele>49</ele>
        <time>2018-07-18T10:34:15Z</time>
      </trkpt>
      <trkpt lat="47.81269" lon="-3.63943">
        <ele>49</ele>
        <time>2018-07-18T10:34:16Z</time>
      </trkpt>
      <trkpt lat="47.81268" lon="-3.63953">
        <ele>49</ele>
        <time>2018-07-18T10:34:17Z</time>
      </trkpt>
      <trkpt lat="47.81267" lon="-3.63964">
        <ele>49</ele>
        <time>2018-07-18T10:34:18Z</time>
      </trkpt>
      <trkpt lat="47.81267" lon="-3.63975">
        <ele>48</ele>
        <time>2018-07-18T10:34:19Z</time>
      </trkpt>
      <trkpt lat="47.81266" lon="-3.63987">
        <ele>48</ele>
        <time>2018-07-18T10:34:20Z</time>
      </trkpt>
      <trkpt lat="47.81265" lon="-3.63998">
        <ele>48</ele>
        <time>2018-07-18T10:34:21Z</time>
      </trkpt>
      <trkpt lat="47.81265" lon="-3.6401">
        <ele>47</ele>
        <time>2018-07-18T10:34:22Z</time>
      </trkpt>
      <trkpt lat="47.81265" lon="-3.64022">
        <ele>47</ele>
        <time>2018-07-18T10:34:23Z</time>
      </trkpt>
      <trkpt lat="47.81265" lon="-3.64034">
        <ele>46</ele>
        <time>2018-07-18T10:34:24Z</time>
      </trkpt>
      <trkpt lat="47.81266" lon="-3.64046">
        <ele>46</ele>
        <time>2018-07-18T10:34:25Z</time>
      </trkpt>
      <trkpt lat="47.81267" lon="-3.64058">
        <ele>45</ele>
        <time>2018-07-18T10:34:26Z</time>
      </trkpt>
      <trkpt lat="47.81268" lon="-3.64069">
        <ele>45</ele>
        <time>2018-07-18T10:34:27Z</time>
      </trkpt>
      <trkpt lat="47.8127" lon="-3.64081">
        <ele>45</ele>
        <time>2018-07-18T10:34:28Z</time>
      </trkpt>
      <trkpt lat="47.81271" lon="-3.64092">
        <ele>44</ele>
        <time>2018-07-18T10:34:29Z</time>
      </trkpt>
      <trkpt lat="47.81273" lon="-3.64102">
        <ele>44</ele>
        <time>2018-07-18T10:34:30Z</time>
      </trkpt>
      <trkpt lat="47.81275" lon="-3.64113">
        <ele>43</ele>
        <time>2018-07-18T10:34:31Z</time>
      </trkpt>
      <trkpt lat="47.81277" lon="-3.64124">
        <ele>43</ele>
        <time>2018-07-18T10:34:32Z</time>
      </trkpt>
      <trkpt lat="47.81279" lon="-3.64134">
        <ele>43</ele>
        <time>2018-07-18T10:34:33Z</time>
      </trkpt>
      <trkpt lat="47.81281" lon="-3.64145">
        <ele>43</ele>
        <time>2018-07-18T10:34:34Z</time>
      </trkpt>
      <trkpt lat="47.81284" lon="-3.64155">
        <ele>42</ele>
        <time>2018-07-18T10:34:35Z</time>
      </trkpt>
      <trkpt lat="47.81287" lon="-3.64166">
        <ele>42</ele>
        <time>2018-07-18T10:34:36Z</time>
      </trkpt>
      <trkpt lat="47.8129" lon="-3.64176">
        <ele>42</ele>
        <time>2018-07-18T10:34:37Z</time>
      </trkpt>
      <trkpt lat="47.81293" lon="-3.64186">
        <ele>42</ele>
        <time>2018-07-18T10:34:38Z</time>
      </trkpt>
      <trkpt lat="47.81296" lon="-3.64196">
        <ele>42</ele>
        <time>2018-07-18T10:34:39Z</time>
      </trkpt>
      <trkpt lat="47.81299" lon="-3.64206">
        <ele>41</ele>
        <time>2018-07-18T10:34:40Z</time>
      </trkpt>
      <trkpt lat="47.81303" lon="-3.64216">
        <ele>41</ele>
        <time>2018-07-18T10:34:41Z</time>
      </trkpt>
      <trkpt lat="47.81307" lon="-3.64226">
        <ele>41</ele>
        <time>2018-07-18T10:34:42Z</time>
      </trkpt>
      <trkpt lat="47.81311" lon="-3.64236">
        <ele>41</ele>
        <time>2018-07-18T10:34:43Z</time>
      </trkpt>
      <trkpt lat="47.81315" lon="-3.64246">
        <ele>40</ele>
        <time>2018-07-18T10:34:44Z</time>
      </trkpt>
      <trkpt lat="47.81319" lon="-3.64255">
        <ele>40</ele>
        <time>2018-07-18T10:34:45Z</time>
      </trkpt>
      <trkpt lat="47.81324" lon="-3.64265">
        <ele>40</ele>
        <time>2018-07-18T10:34:46Z</time>
      </trkpt>
      <trkpt lat="47.81328" lon="-3.64274">
        <ele>40</ele>
        <time>2018-07-18T10:34:47Z</time>
      </trkpt>
      <trkpt lat="47.81332" lon="-3.64284">
        <ele>39</ele>
        <time>2018-07-18T10:34:48Z</time>
      </trkpt>
      <trkpt lat="47.81337" lon="-3.64293">
        <ele>39</ele>
        <time>2018-07-18T10:34:49Z</time>
      </trkpt>
      <trkpt lat="47.81341" lon="-3.64302">
        <ele>39</ele>
        <time>2018-07-18T10:34:50Z</time>
      </trkpt>
      <trkpt lat="47.81345" lon="-3.64311">
        <ele>39</ele>
        <time>2018-07-18T10:34:51Z</time>
      </trkpt>
      <trkpt lat="47.81349" lon="-3.6432">
        <ele>38</ele>
        <time>2018-07-18T10:34:52Z</time>
      </trkpt>
      <trkpt lat="47.81353" lon="-3.64329">
        <ele>38</ele>
        <time>2018-07-18T10:34:53Z</time>
      </trkpt>
      <trkpt lat="47.81358" lon="-3.64338">
        <ele>38</ele>
        <time>2018-07-18T10:34:54Z</time>
      </trkpt>
      <trkpt lat="47.81361" lon="-3.64345">
        <ele>38</ele>
        <time>2018-07-18T10:34:55Z</time>
      </trkpt>
      <trkpt lat="47.81364" lon="-3.6435">
        <ele>37</ele>
        <time>2018-07-18T10:34:56Z</time>
      </trkpt>
      <trkpt lat="47.81366" lon="-3.64351">
        <ele>37</ele>
        <time>2018-07-18T10:34:57Z</time>
      </trkpt>
      <trkpt lat="47.81368" lon="-3.6435">
        <ele>37</ele>
        <time>2018-07-18T10:34:58Z</time>
      </trkpt>
      <trkpt lat="47.8137" lon="-3.64347">
        <ele>37</ele>
        <time>2018-07-18T10:34:59Z</time>
      </trkpt>
      <trkpt lat="47.81373" lon="-3.64344">
        <ele>37</ele>
        <time>2018-07-18T10:35:00Z</time>
      </trkpt>
      <trkpt lat="47.81376" lon="-3.64341">
        <ele>37</ele>
        <time>2018-07-18T10:35:01Z</time>
      </trkpt>
      <trkpt lat="47.8138" lon="-3.64337">
        <ele>37</ele>
        <time>2018-07-18T10:35:02Z</time>
      </trkpt>
      <trkpt lat="47.81383" lon="-3.64334">
        <ele>36</ele>
        <time>2018-07-18T10:35:03Z</time>
      </trkpt>
      <trkpt lat="47.81387" lon="-3.6433">
        <ele>36</ele>
        <time>2018-07-18T10:35:04Z</time>
      </trkpt>
      <trkpt lat="47.81392" lon="-3.64327">
        <ele>36</ele>
        <time>2018-07-18T10:35:05Z</time>
      </trkpt>
      <trkpt lat="47.81396" lon="-3.64324">
        <ele>36</ele>
        <time>2018-07-18T10:35:06Z</time>
      </trkpt>
      <trkpt lat="47.814" lon="-3.64321">
        <ele>36</ele>
        <time>2018-07-18T10:35:07Z</time>
      </trkpt>
      <trkpt lat="47.81405" lon="-3.64318">
        <ele>36</ele>
        <time>2018-07-18T10:35:08Z</time>
      </trkpt>
      <trkpt lat="47.8141" lon="-3.64315">
        <ele>36</ele>
        <time>2018-07-18T10:35:09Z</time>
      </trkpt>
      <trkpt lat="47.81416" lon="-3.64313">
        <ele>36</ele>
        <time>2018-07-18T10:35:10Z</time>
      </trkpt>
      <trkpt lat="47.8142" lon="-3.64312">
        <ele>36</ele>
        <time>2018-07-18T10:35:11Z</time>
      </trkpt>
      <trkpt lat="47.81424" lon="-3.6431">
        <ele>36</ele>
        <time>2018-07-18T10:35:12Z</time>
      </trkpt>
      <trkpt lat="47.81429" lon="-3.64309">
        <ele>36</ele>
        <time>2018-07-18T10:35:13Z</time>
      </trkpt>
      <trkpt lat="47.81434" lon="-3.64308">
        <ele>36</ele>
        <time>2018-07-18T10:35:14Z</time>
      </trkpt>
      <trkpt lat="47.81439" lon="-3.64309">
        <ele>36</ele>
        <time>2018-07-18T10:35:15Z</time>
      </trkpt>
      <trkpt lat="47.81442" lon="-3.64309">
        <ele>36</ele>
        <time>2018-07-18T10:35:16Z</time>
      </trkpt>
      <trkpt lat="47.81446" lon="-3.64309">
        <ele>37</ele>
        <time>2018-07-18T10:35:17Z</time>
      </trkpt>
      <trkpt lat="47.8145" lon="-3.64309">
        <ele>37</ele>
        <time>2018-07-18T10:35:18Z</time>
      </trkpt>
      <trkpt lat="47.81455" lon="-3.64309">
        <ele>37</ele>
        <time>2018-07-18T10:35:19Z</time>
      </trkpt>
      <trkpt lat="47.81459" lon="-3.64308">
        <ele>37</ele>
        <time>2018-07-18T10:35:20Z</time>
      </trkpt>
      <trkpt lat="47.81464" lon="-3.64308">
        <ele>38</ele>
        <time>2018-07-18T10:35:21Z</time>
      </trkpt>
      <trkpt lat="47.81469" lon="-3.64309">
        <ele>38</ele>
        <time>2018-07-18T10:35:22Z</time>
      </trkpt>
      <trkpt lat="47.81474" lon="-3.6431">
        <ele>38</ele>
        <time>2018-07-18T10:35:23Z</time>
      </trkpt>
      <trkpt lat="47.8148" lon="-3.64311">
        <ele>38</ele>
        <time>2018-07-18T10:35:24Z</time>
      </trkpt>
      <trkpt lat="47.81484" lon="-3.64311">
        <ele>38</ele>
        <time>2018-07-18T10:35:25Z</time>
      </trkpt>
      <trkpt lat="47.81489" lon="-3.64311">
        <ele>38</ele>
        <time>2018-07-18T10:35:26Z</time>
      </trkpt>
      <trkpt lat="47.81493" lon="-3.64311">
        <ele>38</ele>
        <time>2018-07-18T10:35:27Z</time>
      </trkpt>
      <trkpt lat="47.81498" lon="-3.64312">
        <ele>39</ele>
        <time>2018-07-18T10:35:28Z</time>
      </trkpt>
      <trkpt lat="47.81504" lon="-3.64312">
        <ele>39</ele>
        <time>2018-07-18T10:35:29Z</time>
      </trkpt>
      <trkpt lat="47.8151" lon="-3.64312">
        <ele>39</ele>
        <time>2018-07-18T10:35:30Z</time>
      </trkpt>
      <trkpt lat="47.81516" lon="-3.64312">
        <ele>39</ele>
        <time>2018-07-18T10:35:31Z</time>
      </trkpt>
      <trkpt lat="47.81522" lon="-3.64313">
        <ele>39</ele>
        <time>2018-07-18T10:35:32Z</time>
      </trkpt>
      <trkpt lat="47.81527" lon="-3.64313">
        <ele>40</ele>
        <time>2018-07-18T10:35:33Z</time>
      </trkpt>
      <trkpt lat="47.81532" lon="-3.64312">
        <ele>40</ele>
        <time>2018-07-18T10:35:34Z</time>
      </trkpt>
      <trkpt lat="47.81536" lon="-3.64312">
        <ele>40</ele>
        <time>2018-07-18T10:35:35Z</time>
      </trkpt>
      <trkpt lat="47.81541" lon="-3.64311">
        <ele>40</ele>
        <time>2018-07-18T10:35:36Z</time>
      </trkpt>
      <trkpt lat="47.81546" lon="-3.64312">
        <ele>40</ele>
        <time>2018-07-18T10:35:37Z</time>
      </trkpt>
      <trkpt lat="47.8155" lon="-3.64312">
        <ele>40</ele>
        <time>2018-07-18T10:35:38Z</time>
      </trkpt>
      <trkpt lat="47.81555" lon="-3.64312">
        <ele>41</ele>
        <time>2018-07-18T10:35:39Z</time>
      </trkpt>
      <trkpt lat="47.81561" lon="-3.64311">
        <ele>41</ele>
        <time>2018-07-18T10:35:40Z</time>
      </trkpt>
      <trkpt lat="47.81567" lon="-3.64311">
        <ele>41</ele>
        <time>2018-07-18T10:35:41Z</time>
      </trkpt>
      <trkpt lat="47.81572" lon="-3.64311">
        <ele>41</ele>
        <time>2018-07-18T10:35:42Z</time>
      </trkpt>
      <trkpt lat="47.81577" lon="-3.64311">
        <ele>41</ele>
        <time>2018-07-18T10:35:43Z</time>
      </trkpt>
      <trkpt lat="47.81581" lon="-3.64311">
        <ele>42</ele>
        <time>2018-07-18T10:35:44Z</time>
      </trkpt>
      <trkpt lat="47.81585" lon="-3.64311">
        <ele>42</ele>
        <time>2018-07-18T10:35:45Z</time>
      </trkpt>
      <trkpt lat="47.8159" lon="-3.64311">
        <ele>42</ele>
        <time>2018-07-18T10:35:46Z</time>
      </trkpt>
      <trkpt lat="47.81595" lon="-3.64309">
        <ele>42</ele>
        <time>2018-07-18T10:35:47Z</time>
      </trkpt>
      <trkpt lat="47.816" lon="-3.64307">
        <ele>42</ele>
        <time>2018-07-18T10:35:48Z</time>
      </trkpt>
      <trkpt lat="47.81606" lon="-3.64306">
        <ele>42</ele>
        <time>2018-07-18T10:35:49Z</time>
      </trkpt>
      <trkpt lat="47.81611" lon="-3.64305">
        <ele>42</ele>
        <time>2018-07-18T10:35:50Z</time>
      </trkpt>
      <trkpt lat="47.81616" lon="-3.64304">
        <ele>42</ele>
        <time>2018-07-18T10:35:51Z</time>
      </trkpt>
      <trkpt lat="47.81622" lon="-3.64303">
        <ele>42</ele>
        <time>2018-07-18T10:35:52Z</time>
      </trkpt>
      <trkpt lat="47.81627" lon="-3.64302">
        <ele>42</ele>
        <time>2018-07-18T10:35:53Z</time>
      </trkpt>
      <trkpt lat="47.81633" lon="-3.64301">
        <ele>42</ele>
        <time>2018-07-18T10:35:54Z</time>
      </trkpt>
      <trkpt lat="47.81639" lon="-3.64299">
        <ele>42</ele>
        <time>2018-07-18T10:35:55Z</time>
      </trkpt>
      <trkpt lat="47.81645" lon="-3.64297">
        <ele>42</ele>
        <time>2018-07-18T10:35:56Z</time>
      </trkpt>
      <trkpt lat="47.81651" lon="-3.64298">
        <ele>42</ele>
        <time>2018-07-18T10:35:57Z</time>
      </trkpt>
      <trkpt lat="47.81657" lon="-3.64298">
        <ele>42</ele>
        <time>2018-07-18T10:35:58Z</time>
      </trkpt>
      <trkpt lat="47.81662" lon="-3.64298">
        <ele>42</ele>
        <time>2018-07-18T10:35:59Z</time>
      </trkpt>
      <trkpt lat="47.81667" lon="-3.64297">
        <ele>42</ele>
        <time>2018-07-18T10:36:00Z</time>
      </trkpt>
      <trkpt lat="47.81673" lon="-3.64295">
        <ele>42</ele>
        <time>2018-07-18T10:36:01Z</time>
      </trkpt>
      <trkpt lat="47.81679" lon="-3.64294">
        <ele>42</ele>
        <time>2018-07-18T10:36:02Z</time>
      </trkpt>
      <trkpt lat="47.81685" lon="-3.64294">
        <ele>42</ele>
        <time>2018-07-18T10:36:03Z</time>
      </trkpt>
      <trkpt lat="47.8169" lon="-3.64294">
        <ele>42</ele>
        <time>2018-07-18T10:36:04Z</time>
      </trkpt>
      <trkpt lat="47.81694" lon="-3.64295">
        <ele>42</ele>
        <time>2018-07-18T10:36:05Z</time>
      </trkpt>
      <trkpt lat="47.81698" lon="-3.64297">
        <ele>42</ele>
        <time>2018-07-18T10:36:06Z</time>
      </trkpt>
      <trkpt lat="47.81701" lon="-3.64299">
        <ele>42</ele>
        <time>2018-07-18T10:36:07Z</time>
      </trkpt>
      <trkpt lat="47.81703" lon="-3.64302">
        <ele>42</ele>
        <time>2018-07-18T10:36:08Z</time>
      </trkpt>
      <trkpt lat="47.81704" lon="-3.64305">
        <ele>42</ele>
        <time>2018-07-18T10:36:09Z</time>
      </trkpt>
      <trkpt lat="47.81705" lon="-3.64309">
        <ele>42</ele>
        <time>2018-07-18T10:36:10Z</time>
      </trkpt>
      <trkpt lat="47.81706" lon="-3.64313">
        <ele>42</ele>
        <time>2018-07-18T10:36:11Z</time>
      </trkpt>
      <trkpt lat="47.81708" lon="-3.64319">
        <ele>42</ele>
        <time>2018-07-18T10:36:12Z</time>
      </trkpt>
      <trkpt lat="47.81708" lon="-3.64325">
        <ele>42</ele>
        <time>2018-07-18T10:36:13Z</time>
      </trkpt>
      <trkpt lat="47.8171" lon="-3.64331">
        <ele>42</ele>
        <time>2018-07-18T10:36:14Z</time>
      </trkpt>
      <trkpt lat="47.81711" lon="-3.64337">
        <ele>42</ele>
        <time>2018-07-18T10:36:15Z</time>
      </trkpt>
      <trkpt lat="47.81712" lon="-3.64343">
        <ele>42</ele>
        <time>2018-07-18T10:36:16Z</time>
      </trkpt>
      <trkpt lat="47.81714" lon="-3.6435">
        <ele>42</ele>
        <time>2018-07-18T10:36:17Z</time>
      </trkpt>
      <trkpt lat="47.81715" lon="-3.64355">
        <ele>42</ele>
        <time>2018-07-18T10:36:18Z</time>
      </trkpt>
      <trkpt lat="47.81717" lon="-3.64362">
        <ele>42</ele>
        <time>2018-07-18T10:36:19Z</time>
      </trkpt>
      <trkpt lat="47.81718" lon="-3.64368">
        <ele>42</ele>
        <time>2018-07-18T10:36:20Z</time>
      </trkpt>
      <trkpt lat="47.81721" lon="-3.64375">
        <ele>42</ele>
        <time>2018-07-18T10:36:21Z</time>
      </trkpt>
      <trkpt lat="47.81722" lon="-3.64381">
        <ele>42</ele>
        <time>2018-07-18T10:36:22Z</time>
      </trkpt>
      <trkpt lat="47.81724" lon="-3.64387">
        <ele>42</ele>
        <time>2018-07-18T10:36:23Z</time>
      </trkpt>
      <trkpt lat="47.81725" lon="-3.64393">
        <ele>41</ele>
        <time>2018-07-18T10:36:24Z</time>
      </trkpt>
      <trkpt lat="47.81727" lon="-3.64398">
        <ele>41</ele>
        <time>2018-07-18T10:36:25Z</time>
      </trkpt>
      <trkpt lat="47.81729" lon="-3.64404">
        <ele>41</ele>
        <time>2018-07-18T10:36:26Z</time>
      </trkpt>
      <trkpt lat="47.8173" lon="-3.6441">
        <ele>41</ele>
        <time>2018-07-18T10:36:27Z</time>
      </trkpt>
      <trkpt lat="47.81732" lon="-3.64414">
        <ele>41</ele>
        <time>2018-07-18T10:36:28Z</time>
      </trkpt>
      <trkpt lat="47.81734" lon="-3.64419">
        <ele>41</ele>
        <time>2018-07-18T10:36:29Z</time>
      </trkpt>
      <trkpt lat="47.81735" lon="-3.64424">
        <ele>41</ele>
        <time>2018-07-18T10:36:30Z</time>
      </trkpt>
      <trkpt lat="47.81736" lon="-3.6443">
        <ele>41</ele>
        <time>2018-07-18T10:36:31Z</time>
      </trkpt>
      <trkpt lat="47.81737" lon="-3.64436">
        <ele>41</ele>
        <time>2018-07-18T10:36:32Z</time>
      </trkpt>
      <trkpt lat="47.81739" lon="-3.64443">
        <ele>41</ele>
        <time>2018-07-18T10:36:33Z</time>
      </trkpt>
      <trkpt lat="47.8174" lon="-3.6445">
        <ele>41</ele>
        <time>2018-07-18T10:36:34Z</time>
      </trkpt>
      <trkpt lat="47.81741" lon="-3.64458">
        <ele>41</ele>
        <time>2018-07-18T10:36:35Z</time>
      </trkpt>
      <trkpt lat="47.81741" lon="-3.64464">
        <ele>41</ele>
        <time>2018-07-18T10:36:36Z</time>
      </trkpt>
      <trkpt lat="47.81743" lon="-3.6447">
        <ele>41</ele>
        <time>2018-07-18T10:36:37Z</time>
      </trkpt>
      <trkpt lat="47.81744" lon="-3.64476">
        <ele>41</ele>
        <time>2018-07-18T10:36:38Z</time>
      </trkpt>
      <trkpt lat="47.81745" lon="-3.64482">
        <ele>41</ele>
        <time>2018-07-18T10:36:39Z</time>
      </trkpt>
      <trkpt lat="47.81745" lon="-3.64487">
        <ele>41</ele>
        <time>2018-07-18T10:36:40Z</time>
      </trkpt>
      <trkpt lat="47.81746" lon="-3.64494">
        <ele>41</ele>
        <time>2018-07-18T10:36:41Z</time>
      </trkpt>
      <trkpt lat="47.81747" lon="-3.64501">
        <ele>41</ele>
        <time>2018-07-18T10:36:42Z</time>
      </trkpt>
      <trkpt lat="47.81749" lon="-3.64508">
        <ele>41</ele>
        <time>2018-07-18T10:36:43Z</time>
      </trkpt>
      <trkpt lat="47.81751" lon="-3.64515">
        <ele>41</ele>
        <time>2018-07-18T10:36:44Z</time>
      </trkpt>
      <trkpt lat="47.81753" lon="-3.64521">
        <ele>41</ele>
        <time>2018-07-18T10:36:45Z</time>
      </trkpt>
      <trkpt lat="47.81755" lon="-3.64528">
        <ele>41</ele>
        <time>2018-07-18T10:36:46Z</time>
      </trkpt>
      <trkpt lat="47.81757" lon="-3.64535">
        <ele>41</ele>
        <time>2018-07-18T10:36:47Z</time>
      </trkpt>
      <trkpt lat="47.81759" lon="-3.64542">
        <ele>41</ele>
        <time>2018-07-18T10:36:48Z</time>
      </trkpt>
      <trkpt lat="47.81761" lon="-3.64548">
        <ele>41</ele>
        <time>2018-07-18T10:36:49Z</time>
      </trkpt>
      <trkpt lat="47.81762" lon="-3.64553">
        <ele>41</ele>
        <time>2018-07-18T10:36:50Z</time>
      </trkpt>
      <trkpt lat="47.81764" lon="-3.64559">
        <ele>41</ele>
        <time>2018-07-18T10:36:51Z</time>
      </trkpt>
      <trkpt lat="47.81766" lon="-3.64565">
        <ele>41</ele>
        <time>2018-07-18T10:36:52Z</time>
      </trkpt>
      <trkpt lat="47.81767" lon="-3.64571">
        <ele>41</ele>
        <time>2018-07-18T10:36:53Z</time>
      </trkpt>
      <trkpt lat="47.81769" lon="-3.64577">
        <ele>42</ele>
        <time>2018-07-18T10:36:54Z</time>
      </trkpt>
      <trkpt lat="47.8177" lon="-3.64583">
        <ele>42</ele>
        <time>2018-07-18T10:36:55Z</time>
      </trkpt>
      <trkpt lat="47.81772" lon="-3.64589">
        <ele>42</ele>
        <time>2018-07-18T10:36:56Z</time>
      </trkpt>
      <trkpt lat="47.81773" lon="-3.64594">
        <ele>42</ele>
        <time>2018-07-18T10:36:57Z</time>
      </trkpt>
      <trkpt lat="47.81774" lon="-3.64599">
        <ele>42</ele>
        <time>2018-07-18T10:36:58Z</time>
      </trkpt>
      <trkpt lat="47.81774" lon="-3.64604">
        <ele>42</ele>
        <time>2018-07-18T10:36:59Z</time>
      </trkpt>
      <trkpt lat="47.81774" lon="-3.64609">
        <ele>43</ele>
        <time>2018-07-18T10:37:00Z</time>
      </trkpt>
      <trkpt lat="47.81775" lon="-3.64615">
        <ele>43</ele>
        <time>2018-07-18T10:37:01Z</time>
      </trkpt>
      <trkpt lat="47.81776" lon="-3.64621">
        <ele>43</ele>
        <time>2018-07-18T10:37:02Z</time>
      </trkpt>
      <trkpt lat="47.81777" lon="-3.64629">
        <ele>43</ele>
        <time>2018-07-18T10:37:03Z</time>
      </trkpt>
      <trkpt lat="47.81777" lon="-3.64635">
        <ele>43</ele>
        <time>2018-07-18T10:37:04Z</time>
      </trkpt>
      <trkpt lat="47.81777" lon="-3.64643">
        <ele>44</ele>
        <time>2018-07-18T10:37:05Z</time>
      </trkpt>
      <trkpt lat="47.81777" lon="-3.6465">
        <ele>44</ele>
        <time>2018-07-18T10:37:06Z</time>
      </trkpt>
      <trkpt lat="47.81777" lon="-3.64658">
        <ele>44</ele>
        <time>2018-07-18T10:37:07Z</time>
      </trkpt>
      <trkpt lat="47.81776" lon="-3.64667">
        <ele>44</ele>
        <time>2018-07-18T10:37:08Z</time>
      </trkpt>
      <trkpt lat="47.81776" lon="-3.64676">
        <ele>44</ele>
        <time>2018-07-18T10:37:09Z</time>
      </trkpt>
      <trkpt lat="47.81777" lon="-3.64685">
        <ele>45</ele>
        <time>2018-07-18T10:37:10Z</time>
      </trkpt>
      <trkpt lat="47.81779" lon="-3.64693">
        <ele>45</ele>
        <time>2018-07-18T10:37:11Z</time>
      </trkpt>
      <trkpt lat="47.81781" lon="-3.64701">
        <ele>45</ele>
        <time>2018-07-18T10:37:12Z</time>
      </trkpt>
      <trkpt lat="47.81784" lon="-3.64708">
        <ele>45</ele>
        <time>2018-07-18T10:37:13Z</time>
      </trkpt>
      <trkpt lat="47.81787" lon="-3.64715">
        <ele>45</ele>
        <time>2018-07-18T10:37:14Z</time>
      </trkpt>
      <trkpt lat="47.8179" lon="-3.64722">
        <ele>46</ele>
        <time>2018-07-18T10:37:15Z</time>
      </trkpt>
      <trkpt lat="47.81792" lon="-3.64729">
        <ele>46</ele>
        <time>2018-07-18T10:37:16Z</time>
      </trkpt>
      <trkpt lat="47.81795" lon="-3.64736">
        <ele>46</ele>
        <time>2018-07-18T10:37:17Z</time>
      </trkpt>
      <trkpt lat="47.81799" lon="-3.64743">
        <ele>46</ele>
        <time>2018-07-18T10:37:18Z</time>
      </trkpt>
      <trkpt lat="47.81804" lon="-3.64749">
        <ele>46</ele>
        <time>2018-07-18T10:37:19Z</time>
      </trkpt>
      <trkpt lat="47.81809" lon="-3.64756">
        <ele>46</ele>
        <time>2018-07-18T10:37:20Z</time>
      </trkpt>
      <trkpt lat="47.81814" lon="-3.64764">
        <ele>47</ele>
        <time>2018-07-18T10:37:21Z</time>
      </trkpt>
      <trkpt lat="47.81819" lon="-3.64771">
        <ele>47</ele>
        <time>2018-07-18T10:37:22Z</time>
      </trkpt>
      <trkpt lat="47.81824" lon="-3.64779">
        <ele>46</ele>
        <time>2018-07-18T10:37:23Z</time>
      </trkpt>
      <trkpt lat="47.81828" lon="-3.64788">
        <ele>46</ele>
        <time>2018-07-18T10:37:24Z</time>
      </trkpt>
      <trkpt lat="47.81833" lon="-3.64796">
        <ele>46</ele>
        <time>2018-07-18T10:37:25Z</time>
      </trkpt>
      <trkpt lat="47.81837" lon="-3.64805">
        <ele>46</ele>
        <time>2018-07-18T10:37:26Z</time>
      </trkpt>
      <trkpt lat="47.81842" lon="-3.64814">
        <ele>46</ele>
        <time>2018-07-18T10:37:27Z</time>
      </trkpt>
      <trkpt lat="47.81845" lon="-3.64824">
        <ele>46</ele>
        <time>2018-07-18T10:37:28Z</time>
      </trkpt>
      <trkpt lat="47.81849" lon="-3.64834">
        <ele>45</ele>
        <time>2018-07-18T10:37:29Z</time>
      </trkpt>
      <trkpt lat="47.81851" lon="-3.64843">
        <ele>45</ele>
        <time>2018-07-18T10:37:30Z</time>
      </trkpt>
      <trkpt lat="47.81852" lon="-3.64851">
        <ele>45</ele>
        <time>2018-07-18T10:37:31Z</time>
      </trkpt>
      <trkpt lat="47.81853" lon="-3.64858">
        <ele>44</ele>
        <time>2018-07-18T10:37:32Z</time>
      </trkpt>
      <trkpt lat="47.81852" lon="-3.64864">
        <ele>44</ele>
        <time>2018-07-18T10:37:33Z</time>
      </trkpt>
      <trkpt lat="47.8185" lon="-3.64871">
        <ele>43</ele>
        <time>2018-07-18T10:37:34Z</time>
      </trkpt>
      <trkpt lat="47.81848" lon="-3.64878">
        <ele>43</ele>
        <time>2018-07-18T10:37:35Z</time>
      </trkpt>
      <trkpt lat="47.81846" lon="-3.64886">
        <ele>43</ele>
        <time>2018-07-18T10:37:36Z</time>
      </trkpt>
      <trkpt lat="47.81845" lon="-3.64894">
        <ele>43</ele>
        <time>2018-07-18T10:37:37Z</time>
      </trkpt>
      <trkpt lat="47.81842" lon="-3.64901">
        <ele>42</ele>
        <time>2018-07-18T10:37:38Z</time>
      </trkpt>
      <trkpt lat="47.81839" lon="-3.64906">
        <ele>42</ele>
        <time>2018-07-18T10:37:39Z</time>
      </trkpt>
      <trkpt lat="47.81835" lon="-3.64911">
        <ele>42</ele>
        <time>2018-07-18T10:37:40Z</time>
      </trkpt>
      <trkpt lat="47.81832" lon="-3.64916">
        <ele>42</ele>
        <time>2018-07-18T10:37:41Z</time>
      </trkpt>
      <trkpt lat="47.81829" lon="-3.64921">
        <ele>41</ele>
        <time>2018-07-18T10:37:42Z</time>
      </trkpt>
      <trkpt lat="47.81827" lon="-3.64927">
        <ele>41</ele>
        <time>2018-07-18T10:37:43Z</time>
      </trkpt>
      <trkpt lat="47.81825" lon="-3.64933">
        <ele>41</ele>
        <time>2018-07-18T10:37:44Z</time>
      </trkpt>
      <trkpt lat="47.81823" lon="-3.64939">
        <ele>41</ele>
        <time>2018-07-18T10:37:45Z</time>
      </trkpt>
      <trkpt lat="47.81822" lon="-3.64945">
        <ele>40</ele>
        <time>2018-07-18T10:37:46Z</time>
      </trkpt>
      <trkpt lat="47.81821" lon="-3.64951">
        <ele>40</ele>
        <time>2018-07-18T10:37:47Z</time>
      </trkpt>
      <trkpt lat="47.8182" lon="-3.64958">
        <ele>40</ele>
        <time>2018-07-18T10:37:48Z</time>
      </trkpt>
      <trkpt lat="47.81819" lon="-3.64964">
        <ele>39</ele>
        <time>2018-07-18T10:37:49Z</time>
      </trkpt>
      <trkpt lat="47.81818" lon="-3.6497">
        <ele>39</ele>
        <time>2018-07-18T10:37:50Z</time>
      </trkpt>
      <trkpt lat="47.81816" lon="-3.64977">
        <ele>39</ele>
        <time>2018-07-18T10:37:51Z</time>
      </trkpt>
      <trkpt lat="47.81815" lon="-3.64985">
        <ele>39</ele>
        <time>2018-07-18T10:37:52Z</time>
      </trkpt>
      <trkpt lat="47.81814" lon="-3.64991">
        <ele>39</ele>
        <time>2018-07-18T10:37:53Z</time>
      </trkpt>
      <trkpt lat="47.81813" lon="-3.64999">
        <ele>39</ele>
        <time>2018-07-18T10:37:54Z</time>
      </trkpt>
      <trkpt lat="47.81812" lon="-3.65005">
        <ele>39</ele>
        <time>2018-07-18T10:37:55Z</time>
      </trkpt>
      <trkpt lat="47.8181" lon="-3.65009">
        <ele>39</ele>
        <time>2018-07-18T10:37:56Z</time>
      </trkpt>
      <trkpt lat="47.81808" lon="-3.65014">
        <ele>39</ele>
        <time>2018-07-18T10:37:57Z</time>
      </trkpt>
      <trkpt lat="47.81805" lon="-3.65017">
        <ele>39</ele>
        <time>2018-07-18T10:37:58Z</time>
      </trkpt>
      <trkpt lat="47.81801" lon="-3.6502">
        <ele>39</ele>
        <time>2018-07-18T10:37:59Z</time>
      </trkpt>
      <trkpt lat="47.81797" lon="-3.65023">
        <ele>39</ele>
        <time>2018-07-18T10:38:00Z</time>
      </trkpt>
      <trkpt lat="47.81793" lon="-3.65026">
        <ele>39</ele>
        <time>2018-07-18T10:38:01Z</time>
      </trkpt>
      <trkpt lat="47.81789" lon="-3.65029">
        <ele>39</ele>
        <time>2018-07-18T10:38:02Z</time>
      </trkpt>
      <trkpt lat="47.81785" lon="-3.65034">
        <ele>38</ele>
        <time>2018-07-18T10:38:03Z</time>
      </trkpt>
      <trkpt lat="47.8178" lon="-3.65037">
        <ele>38</ele>
        <time>2018-07-18T10:38:04Z</time>
      </trkpt>
      <trkpt lat="47.81776" lon="-3.6504">
        <ele>38</ele>
        <time>2018-07-18T10:38:05Z</time>
      </trkpt>
      <trkpt lat="47.81772" lon="-3.65043">
        <ele>38</ele>
        <time>2018-07-18T10:38:06Z</time>
      </trkpt>
      <trkpt lat="47.81769" lon="-3.65047">
        <ele>38</ele>
        <time>2018-07-18T10:38:07Z</time>
      </trkpt>
      <trkpt lat="47.81766" lon="-3.65052">
        <ele>37</ele>
        <time>2018-07-18T10:38:08Z</time>
      </trkpt>
      <trkpt lat="47.81764" lon="-3.65058">
        <ele>37</ele>
        <time>2018-07-18T10:38:09Z</time>
      </trkpt>
      <trkpt lat="47.81764" lon="-3.65063">
        <ele>37</ele>
        <time>2018-07-18T10:38:10Z</time>
      </trkpt>
      <trkpt lat="47.81764" lon="-3.65069">
        <ele>37</ele>
        <time>2018-07-18T10:38:11Z</time>
      </trkpt>
      <trkpt lat="47.81764" lon="-3.65075">
        <ele>37</ele>
        <time>2018-07-18T10:38:12Z</time>
      </trkpt>
      <trkpt lat="47.81764" lon="-3.65081">
        <ele>37</ele>
        <time>2018-07-18T10:38:13Z</time>
      </trkpt>
      <trkpt lat="47.81763" lon="-3.65087">
        <ele>37</ele>
        <time>2018-07-18T10:38:14Z</time>
      </trkpt>
      <trkpt lat="47.81763" lon="-3.65093">
        <ele>37</ele>
        <time>2018-07-18T10:38:15Z</time>
      </trkpt>
      <trkpt lat="47.81764" lon="-3.65102">
        <ele>36</ele>
        <time>2018-07-18T10:38:16Z</time>
      </trkpt>
      <trkpt lat="47.81768" lon="-3.6511">
        <ele>36</ele>
        <time>2018-07-18T10:38:17Z</time>
      </trkpt>
      <trkpt lat="47.81772" lon="-3.65117">
        <ele>36</ele>
        <time>2018-07-18T10:38:18Z</time>
      </trkpt>
      <trkpt lat="47.81775" lon="-3.65124">
        <ele>36</ele>
        <time>2018-07-18T10:38:19Z</time>
      </trkpt>
      <trkpt lat="47.81778" lon="-3.6513">
        <ele>35</ele>
        <time>2018-07-18T10:38:20Z</time>
      </trkpt>
      <trkpt lat="47.81779" lon="-3.65136">
        <ele>35</ele>
        <time>2018-07-18T10:38:21Z</time>
      </trkpt>
      <trkpt lat="47.81779" lon="-3.65141">
        <ele>35</ele>
        <time>2018-07-18T10:38:22Z</time>
      </trkpt>
      <trkpt lat="47.81779" lon="-3.65147">
        <ele>34</ele>
        <time>2018-07-18T10:38:23Z</time>
      </trkpt>
      <trkpt lat="47.81778" lon="-3.65152">
        <ele>34</ele>
        <time>2018-07-18T10:38:24Z</time>
      </trkpt>
      <trkpt lat="47.81775" lon="-3.65159">
        <ele>34</ele>
        <time>2018-07-18T10:38:25Z</time>
      </trkpt>
      <trkpt lat="47.81771" lon="-3.65165">
        <ele>34</ele>
        <time>2018-07-18T10:38:26Z</time>
      </trkpt>
      <trkpt lat="47.81767" lon="-3.65171">
        <ele>34</ele>
        <time>2018-07-18T10:38:27Z</time>
      </trkpt>
      <trkpt lat="47.81764" lon="-3.65176">
        <ele>33</ele>
        <time>2018-07-18T10:38:28Z</time>
      </trkpt>
      <trkpt lat="47.81762" lon="-3.65181">
        <ele>33</ele>
        <time>2018-07-18T10:38:29Z</time>
      </trkpt>
      <trkpt lat="47.8176" lon="-3.65187">
        <ele>33</ele>
        <time>2018-07-18T10:38:30Z</time>
      </trkpt>
      <trkpt lat="47.8176" lon="-3.65193">
        <ele>32</ele>
        <time>2018-07-18T10:38:31Z</time>
      </trkpt>
      <trkpt lat="47.81761" lon="-3.652">
        <ele>32</ele>
        <time>2018-07-18T10:38:32Z</time>
      </trkpt>
      <trkpt lat="47.81763" lon="-3.65207">
        <ele>32</ele>
        <time>2018-07-18T10:38:33Z</time>
      </trkpt>
      <trkpt lat="47.81764" lon="-3.65214">
        <ele>31</ele>
        <time>2018-07-18T10:38:34Z</time>
      </trkpt>
      <trkpt lat="47.81764" lon="-3.6522">
        <ele>31</ele>
        <time>2018-07-18T10:38:35Z</time>
      </trkpt>
      <trkpt lat="47.81765" lon="-3.65225">
        <ele>31</ele>
        <time>2018-07-18T10:38:36Z</time>
      </trkpt>
      <trkpt lat="47.81764" lon="-3.6523">
        <ele>31</ele>
        <time>2018-07-18T10:38:37Z</time>
      </trkpt>
      <trkpt lat="47.81763" lon="-3.65236">
        <ele>31</ele>
        <time>2018-07-18T10:38:38Z</time>
      </trkpt>
      <trkpt lat="47.81762" lon="-3.65241">
        <ele>31</ele>
        <time>2018-07-18T10:38:39Z</time>
      </trkpt>
      <trkpt lat="47.81761" lon="-3.65247">
        <ele>31</ele>
        <time>2018-07-18T10:38:40Z</time>
      </trkpt>
      <trkpt lat="47.8176" lon="-3.65253">
        <ele>31</ele>
        <time>2018-07-18T10:38:41Z</time>
      </trkpt>
      <trkpt lat="47.81758" lon="-3.65258">
        <ele>31</ele>
        <time>2018-07-18T10:38:42Z</time>
      </trkpt>
      <trkpt lat="47.81757" lon="-3.65262">
        <ele>30</ele>
        <time>2018-07-18T10:38:43Z</time>
      </trkpt>
      <trkpt lat="47.81757" lon="-3.65266">
        <ele>30</ele>
        <time>2018-07-18T10:38:44Z</time>
      </trkpt>
      <trkpt lat="47.81756" lon="-3.65269">
        <ele>30</ele>
        <time>2018-07-18T10:38:45Z</time>
      </trkpt>
      <trkpt lat="47.81755" lon="-3.65272">
        <ele>30</ele>
        <time>2018-07-18T10:38:46Z</time>
      </trkpt>
      <trkpt lat="47.81755" lon="-3.65276">
        <ele>30</ele>
        <time>2018-07-18T10:38:47Z</time>
      </trkpt>
      <trkpt lat="47.81754" lon="-3.65279">
        <ele>30</ele>
        <time>2018-07-18T10:38:48Z</time>
      </trkpt>
      <trkpt lat="47.81754" lon="-3.65283">
        <ele>30</ele>
        <time>2018-07-18T10:38:49Z</time>
      </trkpt>
      <trkpt lat="47.81755" lon="-3.65288">
        <ele>30</ele>
        <time>2018-07-18T10:38:50Z</time>
      </trkpt>
      <trkpt lat="47.81755" lon="-3.65294">
        <ele>30</ele>
        <time>2018-07-18T10:38:51Z</time>
      </trkpt>
      <trkpt lat="47.81756" lon="-3.653">
        <ele>30</ele>
        <time>2018-07-18T10:38:52Z</time>
      </trkpt>
      <trkpt lat="47.81757" lon="-3.65305">
        <ele>30</ele>
        <time>2018-07-18T10:38:53Z</time>
      </trkpt>
      <trkpt lat="47.81758" lon="-3.6531">
        <ele>30</ele>
        <time>2018-07-18T10:38:54Z</time>
      </trkpt>
      <trkpt lat="47.81759" lon="-3.65316">
        <ele>30</ele>
        <time>2018-07-18T10:38:55Z</time>
      </trkpt>
      <trkpt lat="47.8176" lon="-3.6532">
        <ele>29</ele>
        <time>2018-07-18T10:38:56Z</time>
      </trkpt>
      <trkpt lat="47.8176" lon="-3.65325">
        <ele>29</ele>
        <time>2018-07-18T10:38:57Z</time>
      </trkpt>
      <trkpt lat="47.81761" lon="-3.6533">
        <ele>29</ele>
        <time>2018-07-18T10:38:58Z</time>
      </trkpt>
      <trkpt lat="47.81762" lon="-3.65334">
        <ele>29</ele>
        <time>2018-07-18T10:38:59Z</time>
      </trkpt>
      <trkpt lat="47.81762" lon="-3.65339">
        <ele>29</ele>
        <time>2018-07-18T10:39:00Z</time>
      </trkpt>
      <trkpt lat="47.81762" lon="-3.65344">
        <ele>29</ele>
        <time>2018-07-18T10:39:01Z</time>
      </trkpt>
      <trkpt lat="47.81762" lon="-3.65349">
        <ele>29</ele>
        <time>2018-07-18T10:39:02Z</time>
      </trkpt>
      <trkpt lat="47.81762" lon="-3.65355">
        <ele>28</ele>
        <time>2018-07-18T10:39:03Z</time>
      </trkpt>
      <trkpt lat="47.81762" lon="-3.6536">
        <ele>28</ele>
        <time>2018-07-18T10:39:04Z</time>
      </trkpt>
      <trkpt lat="47.81761" lon="-3.65366">
        <ele>28</ele>
        <time>2018-07-18T10:39:05Z</time>
      </trkpt>
      <trkpt lat="47.81761" lon="-3.65372">
        <ele>28</ele>
        <time>2018-07-18T10:39:06Z</time>
      </trkpt>
      <trkpt lat="47.8176" lon="-3.65377">
        <ele>28</ele>
        <time>2018-07-18T10:39:07Z</time>
      </trkpt>
      <trkpt lat="47.81759" lon="-3.65381">
        <ele>28</ele>
        <time>2018-07-18T10:39:08Z</time>
      </trkpt>
      <trkpt lat="47.81758" lon="-3.65387">
        <ele>28</ele>
        <time>2018-07-18T10:39:09Z</time>
      </trkpt>
      <trkpt lat="47.81757" lon="-3.65392">
        <ele>29</ele>
        <time>2018-07-18T10:39:10Z</time>
      </trkpt>
      <trkpt lat="47.81756" lon="-3.65398">
        <ele>29</ele>
        <time>2018-07-18T10:39:11Z</time>
      </trkpt>
      <trkpt lat="47.81756" lon="-3.65404">
        <ele>29</ele>
        <time>2018-07-18T10:39:12Z</time>
      </trkpt>
      <trkpt lat="47.81755" lon="-3.6541">
        <ele>29</ele>
        <time>2018-07-18T10:39:13Z</time>
      </trkpt>
      <trkpt lat="47.81755" lon="-3.65416">
        <ele>29</ele>
        <time>2018-07-18T10:39:14Z</time>
      </trkpt>
      <trkpt lat="47.81755" lon="-3.65422">
        <ele>29</ele>
        <time>2018-07-18T10:39:15Z</time>
      </trkpt>
      <trkpt lat="47.81754" lon="-3.65428">
        <ele>30</ele>
        <time>2018-07-18T10:39:16Z</time>
      </trkpt>
      <trkpt lat="47.81754" lon="-3.65432">
        <ele>30</ele>
        <time>2018-07-18T10:39:17Z</time>
      </trkpt>
      <trkpt lat="47.81754" lon="-3.65436">
        <ele>30</ele>
        <time>2018-07-18T10:39:18Z</time>
      </trkpt>
      <trkpt lat="47.81753" lon="-3.65439">
        <ele>30</ele>
        <time>2018-07-18T10:39:19Z</time>
      </trkpt>
      <trkpt lat="47.81751" lon="-3.65441">
        <ele>30</ele>
        <time>2018-07-18T10:39:20Z</time>
      </trkpt>
      <trkpt lat="47.8175" lon="-3.65441">
        <ele>30</ele>
        <time>2018-07-18T10:39:21Z</time>
      </trkpt>
      <trkpt lat="47.81749" lon="-3.6544">
        <ele>30</ele>
        <time>2018-07-18T10:39:22Z</time>
      </trkpt>
      <trkpt lat="47.81748" lon="-3.65438">
        <ele>30</ele>
        <time>2018-07-18T10:39:23Z</time>
      </trkpt>
      <trkpt lat="47.81747" lon="-3.65436">
        <ele>30</ele>
        <time>2018-07-18T10:39:24Z</time>
      </trkpt>
      <trkpt lat="47.81746" lon="-3.65434">
        <ele>30</ele>
        <time>2018-07-18T10:39:25Z</time>
      </trkpt>
      <trkpt lat="47.81745" lon="-3.65431">
        <ele>30</ele>
        <time>2018-07-18T10:39:26Z</time>
      </trkpt>
      <trkpt lat="47.81743" lon="-3.65428">
        <ele>31</ele>
        <time>2018-07-18T10:39:27Z</time>
      </trkpt>
      <trkpt lat="47.81741" lon="-3.65425">
        <ele>31</ele>
        <time>2018-07-18T10:39:28Z</time>
      </trkpt>
      <trkpt lat="47.81738" lon="-3.65423">
        <ele>31</ele>
        <time>2018-07-18T10:39:29Z</time>
      </trkpt>
      <trkpt lat="47.81736" lon="-3.6542">
        <ele>31</ele>
        <time>2018-07-18T10:39:30Z</time>
      </trkpt>
      <trkpt lat="47.81733" lon="-3.65417">
        <ele>31</ele>
        <time>2018-07-18T10:39:31Z</time>
      </trkpt>
      <trkpt lat="47.81731" lon="-3.65415">
        <ele>31</ele>
        <time>2018-07-18T10:39:32Z</time>
      </trkpt>
      <trkpt lat="47.81728" lon="-3.65412">
        <ele>32</ele>
        <time>2018-07-18T10:39:33Z</time>
      </trkpt>
      <trkpt lat="47.81725" lon="-3.65409">
        <ele>32</ele>
        <time>2018-07-18T10:39:34Z</time>
      </trkpt>
      <trkpt lat="47.81723" lon="-3.65405">
        <ele>32</ele>
        <time>2018-07-18T10:39:35Z</time>
      </trkpt>
      <trkpt lat="47.81721" lon="-3.654">
        <ele>32</ele>
        <time>2018-07-18T10:39:36Z</time>
      </trkpt>
      <trkpt lat="47.81719" lon="-3.65395">
        <ele>32</ele>
        <time>2018-07-18T10:39:37Z</time>
      </trkpt>
      <trkpt lat="47.81717" lon="-3.65391">
        <ele>33</ele>
        <time>2018-07-18T10:39:38Z</time>
      </trkpt>
      <trkpt lat="47.81715" lon="-3.65387">
        <ele>33</ele>
        <time>2018-07-18T10:39:39Z</time>
      </trkpt>
      <trkpt lat="47.81712" lon="-3.65382">
        <ele>33</ele>
        <time>2018-07-18T10:39:40Z</time>
      </trkpt>
      <trkpt lat="47.8171" lon="-3.65377">
        <ele>33</ele>
        <time>2018-07-18T10:39:41Z</time>
      </trkpt>
      <trkpt lat="47.81706" lon="-3.65371">
        <ele>34</ele>
        <time>2018-07-18T10:39:42Z</time>
      </trkpt>
      <trkpt lat="47.81702" lon="-3.65366">
        <ele>34</ele>
        <time>2018-07-18T10:39:43Z</time>
      </trkpt>
      <trkpt lat="47.81698" lon="-3.65362">
        <ele>35</ele>
        <time>2018-07-18T10:39:44Z</time>
      </trkpt>
      <trkpt lat="47.81693" lon="-3.65359">
        <ele>35</ele>
        <time>2018-07-18T10:39:45Z</time>
      </trkpt>
      <trkpt lat="47.81688" lon="-3.65358">
        <ele>35</ele>
        <time>2018-07-18T10:39:46Z</time>
      </trkpt>
      <trkpt lat="47.81684" lon="-3.65357">
        <ele>35</ele>
        <time>2018-07-18T10:39:47Z</time>
      </trkpt>
      <trkpt lat="47.81679" lon="-3.65357">
        <ele>36</ele>
        <time>2018-07-18T10:39:48Z</time>
      </trkpt>
      <trkpt lat="47.81675" lon="-3.65356">
        <ele>36</ele>
        <time>2018-07-18T10:39:49Z</time>
      </trkpt>
      <trkpt lat="47.81671" lon="-3.65356">
        <ele>36</ele>
        <time>2018-07-18T10:39:50Z</time>
      </trkpt>
      <trkpt lat="47.81667" lon="-3.65355">
        <ele>36</ele>
        <time>2018-07-18T10:39:51Z</time>
      </trkpt>
      <trkpt lat="47.81662" lon="-3.65353">
        <ele>36</ele>
        <time>2018-07-18T10:39:52Z</time>
      </trkpt>
      <trkpt lat="47.81657" lon="-3.6535">
        <ele>36</ele>
        <time>2018-07-18T10:39:53Z</time>
      </trkpt>
      <trkpt lat="47.81652" lon="-3.65349">
        <ele>37</ele>
        <time>2018-07-18T10:39:54Z</time>
      </trkpt>
      <trkpt lat="47.81646" lon="-3.65349">
        <ele>37</ele>
        <time>2018-07-18T10:39:55Z</time>
      </trkpt>
      <trkpt lat="47.81641" lon="-3.65349">
        <ele>37</ele>
        <time>2018-07-18T10:39:56Z</time>
      </trkpt>
      <trkpt lat="47.81636" lon="-3.65349">
        <ele>37</ele>
        <time>2018-07-18T10:39:57Z</time>
      </trkpt>
      <trkpt lat="47.8163" lon="-3.65349">
        <ele>38</ele>
        <time>2018-07-18T10:39:58Z</time>
      </trkpt>
      <trkpt lat="47.81625" lon="-3.65349">
        <ele>38</ele>
        <time>2018-07-18T10:39:59Z</time>
      </trkpt>
      <trkpt lat="47.8162" lon="-3.65348">
        <ele>38</ele>
        <time>2018-07-18T10:40:00Z</time>
      </trkpt>
      <trkpt lat="47.81616" lon="-3.65346">
        <ele>38</ele>
        <time>2018-07-18T10:40:01Z</time>
      </trkpt>
      <trkpt lat="47.81611" lon="-3.65345">
        <ele>38</ele>
        <time>2018-07-18T10:40:02Z</time>
      </trkpt>
      <trkpt lat="47.81606" lon="-3.65345">
        <ele>38</ele>
        <time>2018-07-18T10:40:03Z</time>
      </trkpt>
      <trkpt lat="47.816" lon="-3.65344">
        <ele>38</ele>
        <time>2018-07-18T10:40:04Z</time>
      </trkpt>
      <trkpt lat="47.81595" lon="-3.65342">
        <ele>38</ele>
        <time>2018-07-18T10:40:05Z</time>
      </trkpt>
      <trkpt lat="47.8159" lon="-3.65341">
        <ele>38</ele>
        <time>2018-07-18T10:40:06Z</time>
      </trkpt>
      <trkpt lat="47.81584" lon="-3.6534">
        <ele>38</ele>
        <time>2018-07-18T10:40:07Z</time>
      </trkpt>
      <trkpt lat="47.81579" lon="-3.65339">
        <ele>38</ele>
        <time>2018-07-18T10:40:08Z</time>
      </trkpt>
      <trkpt lat="47.81573" lon="-3.65338">
        <ele>38</ele>
        <time>2018-07-18T10:40:09Z</time>
      </trkpt>
      <trkpt lat="47.81568" lon="-3.65338">
        <ele>38</ele>
        <time>2018-07-18T10:40:10Z</time>
      </trkpt>
      <trkpt lat="47.81562" lon="-3.65337">
        <ele>38</ele>
        <time>2018-07-18T10:40:11Z</time>
      </trkpt>
      <trkpt lat="47.81557" lon="-3.65336">
        <ele>38</ele>
        <time>2018-07-18T10:40:12Z</time>
      </trkpt>
      <trkpt lat="47.81551" lon="-3.65336">
        <ele>38</ele>
        <time>2018-07-18T10:40:13Z</time>
      </trkpt>
      <trkpt lat="47.81546" lon="-3.65335">
        <ele>38</ele>
        <time>2018-07-18T10:40:14Z</time>
      </trkpt>
      <trkpt lat="47.81541" lon="-3.65334">
        <ele>38</ele>
        <time>2018-07-18T10:40:15Z</time>
      </trkpt>
      <trkpt lat="47.81535" lon="-3.65333">
        <ele>38</ele>
        <time>2018-07-18T10:40:16Z</time>
      </trkpt>
      <trkpt lat="47.8153" lon="-3.65333">
        <ele>38</ele>
        <time>2018-07-18T10:40:17Z</time>
      </trkpt>
      <trkpt lat="47.81524" lon="-3.65332">
        <ele>38</ele>
        <time>2018-07-18T10:40:18Z</time>
      </trkpt>
      <trkpt lat="47.81519" lon="-3.6533">
        <ele>38</ele>
        <time>2018-07-18T10:40:19Z</time>
      </trkpt>
      <trkpt lat="47.81514" lon="-3.65329">
        <ele>39</ele>
        <time>2018-07-18T10:40:20Z</time>
      </trkpt>
      <trkpt lat="47.81509" lon="-3.65327">
        <ele>39</ele>
        <time>2018-07-18T10:40:21Z</time>
      </trkpt>
      <trkpt lat="47.81503" lon="-3.65325">
        <ele>39</ele>
        <time>2018-07-18T10:40:22Z</time>
      </trkpt>
      <trkpt lat="47.81498" lon="-3.65324">
        <ele>39</ele>
        <time>2018-07-18T10:40:23Z</time>
      </trkpt>
      <trkpt lat="47.81493" lon="-3.65322">
        <ele>39</ele>
        <time>2018-07-18T10:40:24Z</time>
      </trkpt>
      <trkpt lat="47.81488" lon="-3.65319">
        <ele>39</ele>
        <time>2018-07-18T10:40:25Z</time>
      </trkpt>
      <trkpt lat="47.81483" lon="-3.65317">
        <ele>39</ele>
        <time>2018-07-18T10:40:26Z</time>
      </trkpt>
      <trkpt lat="47.81478" lon="-3.65315">
        <ele>40</ele>
        <time>2018-07-18T10:40:27Z</time>
      </trkpt>
      <trkpt lat="47.81472" lon="-3.65313">
        <ele>40</ele>
        <time>2018-07-18T10:40:28Z</time>
      </trkpt>
      <trkpt lat="47.81467" lon="-3.65311">
        <ele>40</ele>
        <time>2018-07-18T10:40:29Z</time>
      </trkpt>
      <trkpt lat="47.81461" lon="-3.65309">
        <ele>40</ele>
        <time>2018-07-18T10:40:30Z</time>
      </trkpt>
      <trkpt lat="47.81456" lon="-3.65306">
        <ele>40</ele>
        <time>2018-07-18T10:40:31Z</time>
      </trkpt>
      <trkpt lat="47.81451" lon="-3.65303">
        <ele>40</ele>
        <time>2018-07-18T10:40:32Z</time>
      </trkpt>
      <trkpt lat="47.81446" lon="-3.65301">
        <ele>40</ele>
        <time>2018-07-18T10:40:33Z</time>
      </trkpt>
      <trkpt lat="47.81441" lon="-3.65299">
        <ele>40</ele>
        <time>2018-07-18T10:40:34Z</time>
      </trkpt>
      <trkpt lat="47.81436" lon="-3.65297">
        <ele>40</ele>
        <time>2018-07-18T10:40:35Z</time>
      </trkpt>
      <trkpt lat="47.81431" lon="-3.65295">
        <ele>40</ele>
        <time>2018-07-18T10:40:36Z</time>
      </trkpt>
      <trkpt lat="47.81426" lon="-3.65293">
        <ele>40</ele>
        <time>2018-07-18T10:40:37Z</time>
      </trkpt>
      <trkpt lat="47.81421" lon="-3.6529">
        <ele>40</ele>
        <time>2018-07-18T10:40:38Z</time>
      </trkpt>
      <trkpt lat="47.81416" lon="-3.65287">
        <ele>40</ele>
        <time>2018-07-18T10:40:39Z</time>
      </trkpt>
      <trkpt lat="47.81411" lon="-3.65283">
        <ele>40</ele>
        <time>2018-07-18T10:40:40Z</time>
      </trkpt>
      <trkpt lat="47.81406" lon="-3.65279">
        <ele>40</ele>
        <time>2018-07-18T10:40:41Z</time>
      </trkpt>
      <trkpt lat="47.81401" lon="-3.65274">
        <ele>40</ele>
        <time>2018-07-18T10:40:42Z</time>
      </trkpt>
      <trkpt lat="47.81396" lon="-3.6527">
        <ele>40</ele>
        <time>2018-07-18T10:40:43Z</time>
      </trkpt>
      <trkpt lat="47.81392" lon="-3.65266">
        <ele>40</ele>
        <time>2018-07-18T10:40:44Z</time>
      </trkpt>
      <trkpt lat="47.81387" lon="-3.65261">
        <ele>40</ele>
        <time>2018-07-18T10:40:45Z</time>
      </trkpt>
      <trkpt lat="47.81382" lon="-3.65257">
        <ele>40</ele>
        <time>2018-07-18T10:40:46Z</time>
      </trkpt>
      <trkpt lat="47.81377" lon="-3.65252">
        <ele>40</ele>
        <time>2018-07-18T10:40:47Z</time>
      </trkpt>
      <trkpt lat="47.81373" lon="-3.65248">
        <ele>40</ele>
        <time>2018-07-18T10:40:48Z</time>
      </trkpt>
      <trkpt lat="47.81368" lon="-3.65244">
        <ele>40</ele>
        <time>2018-07-18T10:40:49Z</time>
      </trkpt>
      <trkpt lat="47.81363" lon="-3.6524">
        <ele>40</ele>
        <time>2018-07-18T10:40:50Z</time>
      </trkpt>
      <trkpt lat="47.81359" lon="-3.65235">
        <ele>40</ele>
        <time>2018-07-18T10:40:51Z</time>
      </trkpt>
      <trkpt lat="47.81354" lon="-3.65231">
        <ele>40</ele>
        <time>2018-07-18T10:40:52Z</time>
      </trkpt>
      <trkpt lat="47.8135" lon="-3.65227">
        <ele>40</ele>
        <time>2018-07-18T10:40:53Z</time>
      </trkpt>
      <trkpt lat="47.81346" lon="-3.65222">
        <ele>40</ele>
        <time>2018-07-18T10:40:54Z</time>
      </trkpt>
      <trkpt lat="47.81341" lon="-3.65219">
        <ele>40</ele>
        <time>2018-07-18T10:40:55Z</time>
      </trkpt>
      <trkpt lat="47.81337" lon="-3.65215">
        <ele>40</ele>
        <time>2018-07-18T10:40:56Z</time>
      </trkpt>
      <trkpt lat="47.81332" lon="-3.65211">
        <ele>40</ele>
        <time>2018-07-18T10:40:57Z</time>
      </trkpt>
      <trkpt lat="47.81327" lon="-3.65209">
        <ele>40</ele>
        <time>2018-07-18T10:40:58Z</time>
      </trkpt>
      <trkpt lat="47.81322" lon="-3.65206">
        <ele>40</ele>
        <time>2018-07-18T10:40:59Z</time>
      </trkpt>
      <trkpt lat="47.81317" lon="-3.65205">
        <ele>40</ele>
        <time>2018-07-18T10:41:00Z</time>
      </trkpt>
      <trkpt lat="47.81312" lon="-3.65203">
        <ele>40</ele>
        <time>2018-07-18T10:41:01Z</time>
      </trkpt>
      <trkpt lat="47.81307" lon="-3.65201">
        <ele>40</ele>
        <time>2018-07-18T10:41:02Z</time>
      </trkpt>
      <trkpt lat="47.81302" lon="-3.65199">
        <ele>40</ele>
        <time>2018-07-18T10:41:03Z</time>
      </trkpt>
      <trkpt lat="47.81297" lon="-3.65197">
        <ele>40</ele>
        <time>2018-07-18T10:41:04Z</time>
      </trkpt>
      <trkpt lat="47.81292" lon="-3.65195">
        <ele>40</ele>
        <time>2018-07-18T10:41:05Z</time>
      </trkpt>
      <trkpt lat="47.81287" lon="-3.65193">
        <ele>40</ele>
        <time>2018-07-18T10:41:06Z</time>
      </trkpt>
      <trkpt lat="47.81281" lon="-3.65191">
        <ele>40</ele>
        <time>2018-07-18T10:41:07Z</time>
      </trkpt>
      <trkpt lat="47.81277" lon="-3.6519">
        <ele>41</ele>
        <time>2018-07-18T10:41:08Z</time>
      </trkpt>
      <trkpt lat="47.81271" lon="-3.65188">
        <ele>41</ele>
        <time>2018-07-18T10:41:09Z</time>
      </trkpt>
      <trkpt lat="47.81267" lon="-3.65186">
        <ele>41</ele>
        <time>2018-07-18T10:41:10Z</time>
      </trkpt>
      <trkpt lat="47.81261" lon="-3.65184">
        <ele>41</ele>
        <time>2018-07-18T10:41:11Z</time>
      </trkpt>
      <trkpt lat="47.81256" lon="-3.65182">
        <ele>41</ele>
        <time>2018-07-18T10:41:12Z</time>
      </trkpt>
      <trkpt lat="47.81251" lon="-3.6518">
        <ele>41</ele>
        <time>2018-07-18T10:41:13Z</time>
      </trkpt>
      <trkpt lat="47.81246" lon="-3.65178">
        <ele>41</ele>
        <time>2018-07-18T10:41:14Z</time>
      </trkpt>
      <trkpt lat="47.81241" lon="-3.65177">
        <ele>41</ele>
        <time>2018-07-18T10:41:15Z</time>
      </trkpt>
      <trkpt lat="47.81236" lon="-3.65175">
        <ele>41</ele>
        <time>2018-07-18T10:41:16Z</time>
      </trkpt>
      <trkpt lat="47.81231" lon="-3.65173">
        <ele>41</ele>
        <time>2018-07-18T10:41:17Z</time>
      </trkpt>
      <trkpt lat="47.81226" lon="-3.6517">
        <ele>41</ele>
        <time>2018-07-18T10:41:18Z</time>
      </trkpt>
      <trkpt lat="47.81222" lon="-3.65168">
        <ele>42</ele>
        <time>2018-07-18T10:41:19Z</time>
      </trkpt>
      <trkpt lat="47.81217" lon="-3.65165">
        <ele>42</ele>
        <time>2018-07-18T10:41:20Z</time>
      </trkpt>
      <trkpt lat="47.81212" lon="-3.65163">
        <ele>42</ele>
        <time>2018-07-18T10:41:21Z</time>
      </trkpt>
      <trkpt lat="47.81208" lon="-3.65161">
        <ele>42</ele>
        <time>2018-07-18T10:41:22Z</time>
      </trkpt>
      <trkpt lat="47.81203" lon="-3.65159">
        <ele>42</ele>
        <time>2018-07-18T10:41:23Z</time>
      </trkpt>
      <trkpt lat="47.81198" lon="-3.65156">
        <ele>42</ele>
        <time>2018-07-18T10:41:24Z</time>
      </trkpt>
      <trkpt lat="47.81193" lon="-3.65154">
        <ele>42</ele>
        <time>2018-07-18T10:41:25Z</time>
      </trkpt>
      <trkpt lat="47.81188" lon="-3.65152">
        <ele>42</ele>
        <time>2018-07-18T10:41:26Z</time>
      </trkpt>
      <trkpt lat="47.81184" lon="-3.65149">
        <ele>42</ele>
        <time>2018-07-18T10:41:27Z</time>
      </trkpt>
      <trkpt lat="47.81179" lon="-3.65148">
        <ele>42</ele>
        <time>2018-07-18T10:41:28Z</time>
      </trkpt>
      <trkpt lat="47.81175" lon="-3.65145">
        <ele>42</ele>
        <time>2018-07-18T10:41:29Z</time>
      </trkpt>
      <trkpt lat="47.8117" lon="-3.65143">
        <ele>42</ele>
        <time>2018-07-18T10:41:30Z</time>
      </trkpt>
      <trkpt lat="47.81166" lon="-3.65141">
        <ele>42</ele>
        <time>2018-07-18T10:41:31Z</time>
      </trkpt>
      <trkpt lat="47.81162" lon="-3.65139">
        <ele>42</ele>
        <time>2018-07-18T10:41:32Z</time>
      </trkpt>
      <trkpt lat="47.81158" lon="-3.65138">
        <ele>42</ele>
        <time>2018-07-18T10:41:33Z</time>
      </trkpt>
      <trkpt lat="47.81154" lon="-3.65136">
        <ele>42</ele>
        <time>2018-07-18T10:41:34Z</time>
      </trkpt>
      <trkpt lat="47.81151" lon="-3.65132">
        <ele>42</ele>
        <time>2018-07-18T10:41:35Z</time>
      </trkpt>
      <trkpt lat="47.81149" lon="-3.65128">
        <ele>42</ele>
        <time>2018-07-18T10:41:36Z</time>
      </trkpt>
      <trkpt lat="47.81149" lon="-3.65121">
        <ele>42</ele>
        <time>2018-07-18T10:41:37Z</time>
      </trkpt>
      <trkpt lat="47.8115" lon="-3.65114">
        <ele>42</ele>
        <time>2018-07-18T10:41:38Z</time>
      </trkpt>
      <trkpt lat="47.81149" lon="-3.65106">
        <ele>42</ele>
        <time>2018-07-18T10:41:39Z</time>
      </trkpt>
      <trkpt lat="47.81148" lon="-3.65099">
        <ele>42</ele>
        <time>2018-07-18T10:41:40Z</time>
      </trkpt>
      <trkpt lat="47.81147" lon="-3.65093">
        <ele>42</ele>
        <time>2018-07-18T10:41:41Z</time>
      </trkpt>
      <trkpt lat="47.81146" lon="-3.65086">
        <ele>42</ele>
        <time>2018-07-18T10:41:42Z</time>
      </trkpt>
      <trkpt lat="47.81144" lon="-3.65079">
        <ele>42</ele>
        <time>2018-07-18T10:41:43Z</time>
      </trkpt>
      <trkpt lat="47.81141" lon="-3.65073">
        <ele>42</ele>
        <time>2018-07-18T10:41:44Z</time>
      </trkpt>
      <trkpt lat="47.81138" lon="-3.6507">
        <ele>42</ele>
        <time>2018-07-18T10:41:45Z</time>
      </trkpt>
      <trkpt lat="47.81134" lon="-3.6507">
        <ele>42</ele>
        <time>2018-07-18T10:41:46Z</time>
      </trkpt>
      <trkpt lat="47.8113" lon="-3.65072">
        <ele>42</ele>
        <time>2018-07-18T10:41:47Z</time>
      </trkpt>
      <trkpt lat="47.81126" lon="-3.65075">
        <ele>42</ele>
        <time>2018-07-18T10:41:48Z</time>
      </trkpt>
      <trkpt lat="47.81122" lon="-3.65078">
        <ele>42</ele>
        <time>2018-07-18T10:41:49Z</time>
      </trkpt>
      <trkpt lat="47.81118" lon="-3.65081">
        <ele>42</ele>
        <time>2018-07-18T10:41:50Z</time>
      </trkpt>
      <trkpt lat="47.81114" lon="-3.65084">
        <ele>43</ele>
        <time>2018-07-18T10:41:51Z</time>
      </trkpt>
      <trkpt lat="47.8111" lon="-3.65086">
        <ele>43</ele>
        <time>2018-07-18T10:41:52Z</time>
      </trkpt>
      <trkpt lat="47.81105" lon="-3.65086">
        <ele>43</ele>
        <time>2018-07-18T10:41:53Z</time>
      </trkpt>
      <trkpt lat="47.811" lon="-3.65086">
        <ele>43</ele>
        <time>2018-07-18T10:41:54Z</time>
      </trkpt>
      <trkpt lat="47.81096" lon="-3.65083">
        <ele>43</ele>
        <time>2018-07-18T10:41:55Z</time>
      </trkpt>
      <trkpt lat="47.81091" lon="-3.65081">
        <ele>43</ele>
        <time>2018-07-18T10:41:56Z</time>
      </trkpt>
      <trkpt lat="47.81087" lon="-3.65079">
        <ele>44</ele>
        <time>2018-07-18T10:41:57Z</time>
      </trkpt>
      <trkpt lat="47.81082" lon="-3.65077">
        <ele>44</ele>
        <time>2018-07-18T10:41:58Z</time>
      </trkpt>
      <trkpt lat="47.81078" lon="-3.65075">
        <ele>44</ele>
        <time>2018-07-18T10:41:59Z</time>
      </trkpt>
      <trkpt lat="47.81073" lon="-3.65073">
        <ele>44</ele>
        <time>2018-07-18T10:42:00Z</time>
      </trkpt>
      <trkpt lat="47.81068" lon="-3.6507">
        <ele>45</ele>
        <time>2018-07-18T10:42:01Z</time>
      </trkpt>
      <trkpt lat="47.81064" lon="-3.65069">
        <ele>45</ele>
        <time>2018-07-18T10:42:02Z</time>
      </trkpt>
      <trkpt lat="47.81059" lon="-3.65067">
        <ele>45</ele>
        <time>2018-07-18T10:42:03Z</time>
      </trkpt>
      <trkpt lat="47.81055" lon="-3.65064">
        <ele>45</ele>
        <time>2018-07-18T10:42:04Z</time>
      </trkpt>
      <trkpt lat="47.8105" lon="-3.65062">
        <ele>45</ele>
        <time>2018-07-18T10:42:05Z</time>
      </trkpt>
      <trkpt lat="47.81045" lon="-3.6506">
        <ele>45</ele>
        <time>2018-07-18T10:42:06Z</time>
      </trkpt>
      <trkpt lat="47.8104" lon="-3.65058">
        <ele>45</ele>
        <time>2018-07-18T10:42:07Z</time>
      </trkpt>
      <trkpt lat="47.81035" lon="-3.65056">
        <ele>46</ele>
        <time>2018-07-18T10:42:08Z</time>
      </trkpt>
      <trkpt lat="47.8103" lon="-3.65054">
        <ele>46</ele>
        <time>2018-07-18T10:42:09Z</time>
      </trkpt>
      <trkpt lat="47.81025" lon="-3.65051">
        <ele>46</ele>
        <time>2018-07-18T10:42:10Z</time>
      </trkpt>
      <trkpt lat="47.8102" lon="-3.65049">
        <ele>46</ele>
        <time>2018-07-18T10:42:11Z</time>
      </trkpt>
      <trkpt lat="47.81015" lon="-3.65047">
        <ele>46</ele>
        <time>2018-07-18T10:42:12Z</time>
      </trkpt>
      <trkpt lat="47.81011" lon="-3.65044">
        <ele>46</ele>
        <time>2018-07-18T10:42:13Z</time>
      </trkpt>
      <trkpt lat="47.81006" lon="-3.65043">
        <ele>46</ele>
        <time>2018-07-18T10:42:14Z</time>
      </trkpt>
      <trkpt lat="47.81002" lon="-3.6504">
        <ele>47</ele>
        <time>2018-07-18T10:42:15Z</time>
      </trkpt>
      <trkpt lat="47.80997" lon="-3.65038">
        <ele>47</ele>
        <time>2018-07-18T10:42:16Z</time>
      </trkpt>
      <trkpt lat="47.80992" lon="-3.65037">
        <ele>47</ele>
        <time>2018-07-18T10:42:17Z</time>
      </trkpt>
      <trkpt lat="47.80988" lon="-3.65035">
        <ele>47</ele>
        <time>2018-07-18T10:42:18Z</time>
      </trkpt>
      <trkpt lat="47.80983" lon="-3.65033">
        <ele>47</ele>
        <time>2018-07-18T10:42:19Z</time>
      </trkpt>
      <trkpt lat="47.80979" lon="-3.65032">
        <ele>48</ele>
        <time>2018-07-18T10:42:20Z</time>
      </trkpt>
      <trkpt lat="47.80974" lon="-3.65031">
        <ele>48</ele>
        <time>2018-07-18T10:42:21Z</time>
      </trkpt>
      <trkpt lat="47.80969" lon="-3.65029">
        <ele>48</ele>
        <time>2018-07-18T10:42:22Z</time>
      </trkpt>
      <trkpt lat="47.80964" lon="-3.65028">
        <ele>49</ele>
        <time>2018-07-18T10:42:23Z</time>
      </trkpt>
      <trkpt lat="47.80959" lon="-3.65027">
        <ele>49</ele>
        <time>2018-07-18T10:42:24Z</time>
      </trkpt>
      <trkpt lat="47.80954" lon="-3.65026">
        <ele>49</ele>
        <time>2018-07-18T10:42:25Z</time>
      </trkpt>
      <trkpt lat="47.80949" lon="-3.65026">
        <ele>50</ele>
        <time>2018-07-18T10:42:26Z</time>
      </trkpt>
      <trkpt lat="47.80945" lon="-3.65025">
        <ele>50</ele>
        <time>2018-07-18T10:42:27Z</time>
      </trkpt>
      <trkpt lat="47.8094" lon="-3.65024">
        <ele>51</ele>
        <time>2018-07-18T10:42:28Z</time>
      </trkpt>
      <trkpt lat="47.80936" lon="-3.65023">
        <ele>51</ele>
        <time>2018-07-18T10:42:29Z</time>
      </trkpt>
      <trkpt lat="47.80932" lon="-3.65023">
        <ele>51</ele>
        <time>2018-07-18T10:42:30Z</time>
      </trkpt>
      <trkpt lat="47.80927" lon="-3.65022">
        <ele>52</ele>
        <time>2018-07-18T10:42:31Z</time>
      </trkpt>
      <trkpt lat="47.80923" lon="-3.65021">
        <ele>52</ele>
        <time>2018-07-18T10:42:32Z</time>
      </trkpt>
      <trkpt lat="47.80918" lon="-3.65021">
        <ele>52</ele>
        <time>2018-07-18T10:42:33Z</time>
      </trkpt>
      <trkpt lat="47.80913" lon="-3.6502">
        <ele>52</ele>
        <time>2018-07-18T10:42:34Z</time>
      </trkpt>
      <trkpt lat="47.80908" lon="-3.65019">
        <ele>53</ele>
        <time>2018-07-18T10:42:35Z</time>
      </trkpt>
      <trkpt lat="47.80904" lon="-3.65019">
        <ele>53</ele>
        <time>2018-07-18T10:42:36Z</time>
      </trkpt>
      <trkpt lat="47.80899" lon="-3.65021">
        <ele>53</ele>
        <time>2018-07-18T10:42:37Z</time>
      </trkpt>
      <trkpt lat="47.80895" lon="-3.65023">
        <ele>54</ele>
        <time>2018-07-18T10:42:38Z</time>
      </trkpt>
      <trkpt lat="47.80892" lon="-3.65027">
        <ele>54</ele>
        <time>2018-07-18T10:42:39Z</time>
      </trkpt>
      <trkpt lat="47.8089" lon="-3.65031">
        <ele>54</ele>
        <time>2018-07-18T10:42:40Z</time>
      </trkpt>
      <trkpt lat="47.80888" lon="-3.65037">
        <ele>54</ele>
        <time>2018-07-18T10:42:41Z</time>
      </trkpt>
      <trkpt lat="47.80887" lon="-3.65043">
        <ele>54</ele>
        <time>2018-07-18T10:42:42Z</time>
      </trkpt>
      <trkpt lat="47.80886" lon="-3.65049">
        <ele>54</ele>
        <time>2018-07-18T10:42:43Z</time>
      </trkpt>
      <trkpt lat="47.80885" lon="-3.65056">
        <ele>54</ele>
        <time>2018-07-18T10:42:44Z</time>
      </trkpt>
      <trkpt lat="47.80885" lon="-3.65063">
        <ele>54</ele>
        <time>2018-07-18T10:42:45Z</time>
      </trkpt>
      <trkpt lat="47.80884" lon="-3.65071">
        <ele>54</ele>
        <time>2018-07-18T10:42:46Z</time>
      </trkpt>
      <trkpt lat="47.80884" lon="-3.65078">
        <ele>54</ele>
        <time>2018-07-18T10:42:47Z</time>
      </trkpt>
      <trkpt lat="47.80883" lon="-3.65085">
        <ele>54</ele>
        <time>2018-07-18T10:42:48Z</time>
      </trkpt>
      <trkpt lat="47.80882" lon="-3.65092">
        <ele>54</ele>
        <time>2018-07-18T10:42:49Z</time>
      </trkpt>
      <trkpt lat="47.8088" lon="-3.65096">
        <ele>54</ele>
        <time>2018-07-18T10:42:50Z</time>
      </trkpt>
      <trkpt lat="47.80877" lon="-3.65099">
        <ele>54</ele>
        <time>2018-07-18T10:42:51Z</time>
      </trkpt>
      <trkpt lat="47.80874" lon="-3.65099">
        <ele>54</ele>
        <time>2018-07-18T10:42:52Z</time>
      </trkpt>
      <trkpt lat="47.80871" lon="-3.65098">
        <ele>54</ele>
        <time>2018-07-18T10:42:53Z</time>
      </trkpt>
      <trkpt lat="47.80868" lon="-3.65097">
        <ele>54</ele>
        <time>2018-07-18T10:42:54Z</time>
      </trkpt>
      <trkpt lat="47.80865" lon="-3.65097">
        <ele>54</ele>
        <time>2018-07-18T10:42:55Z</time>
      </trkpt>
      <trkpt lat="47.80861" lon="-3.65097">
        <ele>55</ele>
        <time>2018-07-18T10:42:56Z</time>
      </trkpt>
      <trkpt lat="47.80857" lon="-3.65097">
        <ele>55</ele>
        <time>2018-07-18T10:42:57Z</time>
      </trkpt>
      <trkpt lat="47.80852" lon="-3.65096">
        <ele>55</ele>
        <time>2018-07-18T10:42:58Z</time>
      </trkpt>
      <trkpt lat="47.80847" lon="-3.65094">
        <ele>55</ele>
        <time>2018-07-18T10:42:59Z</time>
      </trkpt>
      <trkpt lat="47.80842" lon="-3.65094">
        <ele>55</ele>
        <time>2018-07-18T10:43:00Z</time>
      </trkpt>
      <trkpt lat="47.80837" lon="-3.65094">
        <ele>55</ele>
        <time>2018-07-18T10:43:01Z</time>
      </trkpt>
      <trkpt lat="47.80831" lon="-3.65093">
        <ele>55</ele>
        <time>2018-07-18T10:43:02Z</time>
      </trkpt>
      <trkpt lat="47.80827" lon="-3.65091">
        <ele>55</ele>
        <time>2018-07-18T10:43:03Z</time>
      </trkpt>
      <trkpt lat="47.80822" lon="-3.6509">
        <ele>55</ele>
        <time>2018-07-18T10:43:04Z</time>
      </trkpt>
      <trkpt lat="47.80818" lon="-3.65089">
        <ele>55</ele>
        <time>2018-07-18T10:43:05Z</time>
      </trkpt>
      <trkpt lat="47.80813" lon="-3.65087">
        <ele>55</ele>
        <time>2018-07-18T10:43:06Z</time>
      </trkpt>
      <trkpt lat="47.80809" lon="-3.65086">
        <ele>56</ele>
        <time>2018-07-18T10:43:07Z</time>
      </trkpt>
      <trkpt lat="47.80805" lon="-3.65085">
        <ele>56</ele>
        <time>2018-07-18T10:43:08Z</time>
      </trkpt>
      <trkpt lat="47.808" lon="-3.65085">
        <ele>56</ele>
        <time>2018-07-18T10:43:09Z</time>
      </trkpt>
      <trkpt lat="47.80796" lon="-3.65085">
        <ele>56</ele>
        <time>2018-07-18T10:43:10Z</time>
      </trkpt>
      <trkpt lat="47.80792" lon="-3.65084">
        <ele>56</ele>
        <time>2018-07-18T10:43:11Z</time>
      </trkpt>
      <trkpt lat="47.80787" lon="-3.65083">
        <ele>56</ele>
        <time>2018-07-18T10:43:12Z</time>
      </trkpt>
      <trkpt lat="47.80783" lon="-3.65082">
        <ele>56</ele>
        <time>2018-07-18T10:43:13Z</time>
      </trkpt>
      <trkpt lat="47.80778" lon="-3.65081">
        <ele>56</ele>
        <time>2018-07-18T10:43:14Z</time>
      </trkpt>
      <trkpt lat="47.80773" lon="-3.65079">
        <ele>56</ele>
        <time>2018-07-18T10:43:15Z</time>
      </trkpt>
      <trkpt lat="47.80769" lon="-3.65078">
        <ele>56</ele>
        <time>2018-07-18T10:43:16Z</time>
      </trkpt>
      <trkpt lat="47.80764" lon="-3.65077">
        <ele>56</ele>
        <time>2018-07-18T10:43:17Z</time>
      </trkpt>
      <trkpt lat="47.8076" lon="-3.65077">
        <ele>57</ele>
        <time>2018-07-18T10:43:18Z</time>
      </trkpt>
      <trkpt lat="47.80755" lon="-3.65078">
        <ele>57</ele>
        <time>2018-07-18T10:43:19Z</time>
      </trkpt>
      <trkpt lat="47.80751" lon="-3.65082">
        <ele>57</ele>
        <time>2018-07-18T10:43:20Z</time>
      </trkpt>
      <trkpt lat="47.80748" lon="-3.65086">
        <ele>57</ele>
        <time>2018-07-18T10:43:21Z</time>
      </trkpt>
      <trkpt lat="47.80744" lon="-3.65092">
        <ele>56</ele>
        <time>2018-07-18T10:43:22Z</time>
      </trkpt>
      <trkpt lat="47.8074" lon="-3.65097">
        <ele>56</ele>
        <time>2018-07-18T10:43:23Z</time>
      </trkpt>
      <trkpt lat="47.80737" lon="-3.65103">
        <ele>56</ele>
        <time>2018-07-18T10:43:24Z</time>
      </trkpt>
      <trkpt lat="47.80734" lon="-3.65108">
        <ele>56</ele>
        <time>2018-07-18T10:43:25Z</time>
      </trkpt>
      <trkpt lat="47.8073" lon="-3.65113">
        <ele>56</ele>
        <time>2018-07-18T10:43:26Z</time>
      </trkpt>
      <trkpt lat="47.80726" lon="-3.65119">
        <ele>56</ele>
        <time>2018-07-18T10:43:27Z</time>
      </trkpt>
      <trkpt lat="47.80723" lon="-3.65125">
        <ele>56</ele>
        <time>2018-07-18T10:43:28Z</time>
      </trkpt>
      <trkpt lat="47.8072" lon="-3.6513">
        <ele>56</ele>
        <time>2018-07-18T10:43:29Z</time>
      </trkpt>
      <trkpt lat="47.80717" lon="-3.65136">
        <ele>56</ele>
        <time>2018-07-18T10:43:30Z</time>
      </trkpt>
      <trkpt lat="47.80715" lon="-3.65142">
        <ele>56</ele>
        <time>2018-07-18T10:43:31Z</time>
      </trkpt>
      <trkpt lat="47.80713" lon="-3.65147">
        <ele>56</ele>
        <time>2018-07-18T10:43:32Z</time>
      </trkpt>
      <trkpt lat="47.8071" lon="-3.65152">
        <ele>56</ele>
        <time>2018-07-18T10:43:33Z</time>
      </trkpt>
      <trkpt lat="47.80708" lon="-3.65159">
        <ele>56</ele>
        <time>2018-07-18T10:43:34Z</time>
      </trkpt>
      <trkpt lat="47.80705" lon="-3.65165">
        <ele>56</ele>
        <time>2018-07-18T10:43:35Z</time>
      </trkpt>
      <trkpt lat="47.80702" lon="-3.65172">
        <ele>56</ele>
        <time>2018-07-18T10:43:36Z</time>
      </trkpt>
      <trkpt lat="47.807" lon="-3.65178">
        <ele>56</ele>
        <time>2018-07-18T10:43:37Z</time>
      </trkpt>
      <trkpt lat="47.80697" lon="-3.65186">
        <ele>56</ele>
        <time>2018-07-18T10:43:38Z</time>
      </trkpt>
      <trkpt lat="47.80694" lon="-3.65192">
        <ele>56</ele>
        <time>2018-07-18T10:43:39Z</time>
      </trkpt>
      <trkpt lat="47.8069" lon="-3.65198">
        <ele>55</ele>
        <time>2018-07-18T10:43:40Z</time>
      </trkpt>
      <trkpt lat="47.80687" lon="-3.65206">
        <ele>56</ele>
        <time>2018-07-18T10:43:41Z</time>
      </trkpt>
      <trkpt lat="47.80684" lon="-3.65213">
        <ele>56</ele>
        <time>2018-07-18T10:43:42Z</time>
      </trkpt>
      <trkpt lat="47.80681" lon="-3.6522">
        <ele>56</ele>
        <time>2018-07-18T10:43:43Z</time>
      </trkpt>
      <trkpt lat="47.80678" lon="-3.65228">
        <ele>56</ele>
        <time>2018-07-18T10:43:44Z</time>
      </trkpt>
      <trkpt lat="47.80675" lon="-3.65236">
        <ele>56</ele>
        <time>2018-07-18T10:43:45Z</time>
      </trkpt>
      <trkpt lat="47.80672" lon="-3.65244">
        <ele>56</ele>
        <time>2018-07-18T10:43:46Z</time>
      </trkpt>
      <trkpt lat="47.80669" lon="-3.65251">
        <ele>56</ele>
        <time>2018-07-18T10:43:47Z</time>
      </trkpt>
      <trkpt lat="47.80666" lon="-3.65259">
        <ele>56</ele>
        <time>2018-07-18T10:43:48Z</time>
      </trkpt>
      <trkpt lat="47.80663" lon="-3.65267">
        <ele>56</ele>
        <time>2018-07-18T10:43:49Z</time>
      </trkpt>
      <trkpt lat="47.8066" lon="-3.65274">
        <ele>56</ele>
        <time>2018-07-18T10:43:50Z</time>
      </trkpt>
      <trkpt lat="47.80656" lon="-3.65282">
        <ele>56</ele>
        <time>2018-07-18T10:43:51Z</time>
      </trkpt>
      <trkpt lat="47.80653" lon="-3.65289">
        <ele>56</ele>
        <time>2018-07-18T10:43:52Z</time>
      </trkpt>
      <trkpt lat="47.80649" lon="-3.65295">
        <ele>56</ele>
        <time>2018-07-18T10:43:53Z</time>
      </trkpt>
      <trkpt lat="47.80646" lon="-3.653">
        <ele>56</ele>
        <time>2018-07-18T10:43:54Z</time>
      </trkpt>
      <trkpt lat="47.80643" lon="-3.65304">
        <ele>56</ele>
        <time>2018-07-18T10:43:55Z</time>
      </trkpt>
      <trkpt lat="47.8064" lon="-3.65309">
        <ele>56</ele>
        <time>2018-07-18T10:43:56Z</time>
      </trkpt>
      <trkpt lat="47.80635" lon="-3.65314">
        <ele>56</ele>
        <time>2018-07-18T10:43:57Z</time>
      </trkpt>
      <trkpt lat="47.80631" lon="-3.6532">
        <ele>56</ele>
        <time>2018-07-18T10:43:58Z</time>
      </trkpt>
      <trkpt lat="47.80627" lon="-3.65326">
        <ele>56</ele>
        <time>2018-07-18T10:43:59Z</time>
      </trkpt>
      <trkpt lat="47.80624" lon="-3.65332">
        <ele>55</ele>
        <time>2018-07-18T10:44:00Z</time>
      </trkpt>
      <trkpt lat="47.8062" lon="-3.65339">
        <ele>55</ele>
        <time>2018-07-18T10:44:01Z</time>
      </trkpt>
      <trkpt lat="47.80616" lon="-3.65346">
        <ele>55</ele>
        <time>2018-07-18T10:44:02Z</time>
      </trkpt>
      <trkpt lat="47.80612" lon="-3.65353">
        <ele>55</ele>
        <time>2018-07-18T10:44:03Z</time>
      </trkpt>
      <trkpt lat="47.80608" lon="-3.65361">
        <ele>55</ele>
        <time>2018-07-18T10:44:04Z</time>
      </trkpt>
      <trkpt lat="47.80605" lon="-3.65368">
        <ele>55</ele>
        <time>2018-07-18T10:44:05Z</time>
      </trkpt>
      <trkpt lat="47.80602" lon="-3.65375">
        <ele>55</ele>
        <time>2018-07-18T10:44:06Z</time>
      </trkpt>
      <trkpt lat="47.80599" lon="-3.65382">
        <ele>55</ele>
        <time>2018-07-18T10:44:07Z</time>
      </trkpt>
      <trkpt lat="47.80596" lon="-3.65388">
        <ele>55</ele>
        <time>2018-07-18T10:44:08Z</time>
      </trkpt>
      <trkpt lat="47.80593" lon="-3.65394">
        <ele>55</ele>
        <time>2018-07-18T10:44:09Z</time>
      </trkpt>
      <trkpt lat="47.80589" lon="-3.65401">
        <ele>55</ele>
        <time>2018-07-18T10:44:10Z</time>
      </trkpt>
      <trkpt lat="47.80585" lon="-3.65409">
        <ele>55</ele>
        <time>2018-07-18T10:44:11Z</time>
      </trkpt>
      <trkpt lat="47.80581" lon="-3.65416">
        <ele>55</ele>
        <time>2018-07-18T10:44:12Z</time>
      </trkpt>
      <trkpt lat="47.80578" lon="-3.65424">
        <ele>55</ele>
        <time>2018-07-18T10:44:13Z</time>
      </trkpt>
      <trkpt lat="47.80575" lon="-3.65432">
        <ele>55</ele>
        <time>2018-07-18T10:44:14Z</time>
      </trkpt>
      <trkpt lat="47.80572" lon="-3.65439">
        <ele>55</ele>
        <time>2018-07-18T10:44:15Z</time>
      </trkpt>
      <trkpt lat="47.80569" lon="-3.65446">
        <ele>55</ele>
        <time>2018-07-18T10:44:16Z</time>
      </trkpt>
      <trkpt lat="47.80565" lon="-3.65454">
        <ele>55</ele>
        <time>2018-07-18T10:44:17Z</time>
      </trkpt>
      <trkpt lat="47.80562" lon="-3.65461">
        <ele>55</ele>
        <time>2018-07-18T10:44:18Z</time>
      </trkpt>
      <trkpt lat="47.80559" lon="-3.65469">
        <ele>55</ele>
        <time>2018-07-18T10:44:19Z</time>
      </trkpt>
      <trkpt lat="47.80556" lon="-3.65476">
        <ele>55</ele>
        <time>2018-07-18T10:44:20Z</time>
      </trkpt>
      <trkpt lat="47.80553" lon="-3.65484">
        <ele>55</ele>
        <time>2018-07-18T10:44:21Z</time>
      </trkpt>
      <trkpt lat="47.8055" lon="-3.65491">
        <ele>55</ele>
        <time>2018-07-18T10:44:22Z</time>
      </trkpt>
      <trkpt lat="47.80547" lon="-3.65499">
        <ele>55</ele>
        <time>2018-07-18T10:44:23Z</time>
      </trkpt>
      <trkpt lat="47.80545" lon="-3.65506">
        <ele>55</ele>
        <time>2018-07-18T10:44:24Z</time>
      </trkpt>
      <trkpt lat="47.80542" lon="-3.65514">
        <ele>54</ele>
        <time>2018-07-18T10:44:25Z</time>
      </trkpt>
      <trkpt lat="47.8054" lon="-3.65522">
        <ele>54</ele>
        <time>2018-07-18T10:44:26Z</time>
      </trkpt>
      <trkpt lat="47.80537" lon="-3.6553">
        <ele>54</ele>
        <time>2018-07-18T10:44:27Z</time>
      </trkpt>
      <trkpt lat="47.80536" lon="-3.65537">
        <ele>54</ele>
        <time>2018-07-18T10:44:28Z</time>
      </trkpt>
      <trkpt lat="47.80533" lon="-3.65544">
        <ele>54</ele>
        <time>2018-07-18T10:44:29Z</time>
      </trkpt>
      <trkpt lat="47.80532" lon="-3.65551">
        <ele>54</ele>
        <time>2018-07-18T10:44:30Z</time>
      </trkpt>
      <trkpt lat="47.80531" lon="-3.65556">
        <ele>54</ele>
        <time>2018-07-18T10:44:31Z</time>
      </trkpt>
      <trkpt lat="47.80529" lon="-3.65563">
        <ele>54</ele>
        <time>2018-07-18T10:44:32Z</time>
      </trkpt>
      <trkpt lat="47.80526" lon="-3.6557">
        <ele>54</ele>
        <time>2018-07-18T10:44:33Z</time>
      </trkpt>
      <trkpt lat="47.80524" lon="-3.65578">
        <ele>54</ele>
        <time>2018-07-18T10:44:34Z</time>
      </trkpt>
      <trkpt lat="47.80522" lon="-3.65585">
        <ele>54</ele>
        <time>2018-07-18T10:44:35Z</time>
      </trkpt>
      <trkpt lat="47.8052" lon="-3.65593">
        <ele>54</ele>
        <time>2018-07-18T10:44:36Z</time>
      </trkpt>
      <trkpt lat="47.80517" lon="-3.65602">
        <ele>54</ele>
        <time>2018-07-18T10:44:37Z</time>
      </trkpt>
      <trkpt lat="47.80514" lon="-3.6561">
        <ele>54</ele>
        <time>2018-07-18T10:44:38Z</time>
      </trkpt>
      <trkpt lat="47.80512" lon="-3.65619">
        <ele>54</ele>
        <time>2018-07-18T10:44:39Z</time>
      </trkpt>
      <trkpt lat="47.8051" lon="-3.65627">
        <ele>54</ele>
        <time>2018-07-18T10:44:40Z</time>
      </trkpt>
      <trkpt lat="47.80508" lon="-3.65635">
        <ele>54</ele>
        <time>2018-07-18T10:44:41Z</time>
      </trkpt>
      <trkpt lat="47.80507" lon="-3.65644">
        <ele>54</ele>
        <time>2018-07-18T10:44:42Z</time>
      </trkpt>
      <trkpt lat="47.80505" lon="-3.65651">
        <ele>54</ele>
        <time>2018-07-18T10:44:43Z</time>
      </trkpt>
      <trkpt lat="47.80504" lon="-3.65658">
        <ele>54</ele>
        <time>2018-07-18T10:44:44Z</time>
      </trkpt>
      <trkpt lat="47.80503" lon="-3.65663">
        <ele>54</ele>
        <time>2018-07-18T10:44:45Z</time>
      </trkpt>
      <trkpt lat="47.80501" lon="-3.65668">
        <ele>54</ele>
        <time>2018-07-18T10:44:46Z</time>
      </trkpt>
      <trkpt lat="47.805" lon="-3.65675">
        <ele>54</ele>
        <time>2018-07-18T10:44:47Z</time>
      </trkpt>
      <trkpt lat="47.80498" lon="-3.65682">
        <ele>53</ele>
        <time>2018-07-18T10:44:48Z</time>
      </trkpt>
      <trkpt lat="47.80496" lon="-3.65688">
        <ele>53</ele>
        <time>2018-07-18T10:44:49Z</time>
      </trkpt>
      <trkpt lat="47.80494" lon="-3.65695">
        <ele>53</ele>
        <time>2018-07-18T10:44:50Z</time>
      </trkpt>
      <trkpt lat="47.80492" lon="-3.65701">
        <ele>53</ele>
        <time>2018-07-18T10:44:51Z</time>
      </trkpt>
      <trkpt lat="47.80491" lon="-3.65708">
        <ele>53</ele>
        <time>2018-07-18T10:44:52Z</time>
      </trkpt>
      <trkpt lat="47.80489" lon="-3.65714">
        <ele>53</ele>
        <time>2018-07-18T10:44:53Z</time>
      </trkpt>
      <trkpt lat="47.80487" lon="-3.6572">
        <ele>53</ele>
        <time>2018-07-18T10:44:54Z</time>
      </trkpt>
      <trkpt lat="47.80486" lon="-3.65726">
        <ele>52</ele>
        <time>2018-07-18T10:44:55Z</time>
      </trkpt>
      <trkpt lat="47.80485" lon="-3.6573">
        <ele>52</ele>
        <time>2018-07-18T10:44:56Z</time>
      </trkpt>
      <trkpt lat="47.80484" lon="-3.65732">
        <ele>52</ele>
        <time>2018-07-18T10:44:57Z</time>
      </trkpt>
      <trkpt lat="47.80484" lon="-3.65733">
        <ele>52</ele>
        <time>2018-07-18T10:44:58Z</time>
      </trkpt>
      <trkpt lat="47.80484" lon="-3.65734">
        <ele>52</ele>
        <time>2018-07-18T10:44:59Z</time>
      </trkpt>
      <trkpt lat="47.80484" lon="-3.65736">
        <ele>52</ele>
        <time>2018-07-18T10:45:00Z</time>
      </trkpt>
      <trkpt lat="47.80484" lon="-3.65736">
        <ele>52</ele>
        <time>2018-07-18T10:45:01Z</time>
      </trkpt>
      <trkpt lat="47.80484" lon="-3.65737">
        <ele>52</ele>
        <time>2018-07-18T10:45:02Z</time>
      </trkpt>
      <trkpt lat="47.80484" lon="-3.65738">
        <ele>52</ele>
        <time>2018-07-18T10:45:03Z</time>
      </trkpt>
      <trkpt lat="47.80484" lon="-3.65739">
        <ele>52</ele>
        <time>2018-07-18T10:45:04Z</time>
      </trkpt>
      <trkpt lat="47.80484" lon="-3.6574">
        <ele>52</ele>
        <time>2018-07-18T10:45:05Z</time>
      </trkpt>
      <trkpt lat="47.80482" lon="-3.65749">
        <ele>52</ele>
        <time>2018-07-18T10:45:06Z</time>
      </trkpt>
      <trkpt lat="47.80483" lon="-3.65751">
        <ele>52</ele>
        <time>2018-07-18T10:45:07Z</time>
      </trkpt>
      <trkpt lat="47.80484" lon="-3.65753">
        <ele>52</ele>
        <time>2018-07-18T10:45:08Z</time>
      </trkpt>
      <trkpt lat="47.80486" lon="-3.65756">
        <ele>52</ele>
        <time>2018-07-18T10:45:09Z</time>
      </trkpt>
      <trkpt lat="47.80489" lon="-3.65758">
        <ele>52</ele>
        <time>2018-07-18T10:45:10Z</time>
      </trkpt>
      <trkpt lat="47.80492" lon="-3.65762">
        <ele>51</ele>
        <time>2018-07-18T10:45:11Z</time>
      </trkpt>
      <trkpt lat="47.80496" lon="-3.65765">
        <ele>51</ele>
        <time>2018-07-18T10:45:12Z</time>
      </trkpt>
      <trkpt lat="47.805" lon="-3.65769">
        <ele>51</ele>
        <time>2018-07-18T10:45:13Z</time>
      </trkpt>
      <trkpt lat="47.80503" lon="-3.65773">
        <ele>51</ele>
        <time>2018-07-18T10:45:14Z</time>
      </trkpt>
      <trkpt lat="47.80507" lon="-3.65776">
        <ele>51</ele>
        <time>2018-07-18T10:45:15Z</time>
      </trkpt>
      <trkpt lat="47.8051" lon="-3.6578">
        <ele>51</ele>
        <time>2018-07-18T10:45:16Z</time>
      </trkpt>
      <trkpt lat="47.80512" lon="-3.65783">
        <ele>50</ele>
        <time>2018-07-18T10:45:17Z</time>
      </trkpt>
      <trkpt lat="47.80514" lon="-3.65786">
        <ele>50</ele>
        <time>2018-07-18T10:45:18Z</time>
      </trkpt>
      <trkpt lat="47.80517" lon="-3.65789">
        <ele>50</ele>
        <time>2018-07-18T10:45:19Z</time>
      </trkpt>
      <trkpt lat="47.8052" lon="-3.65793">
        <ele>50</ele>
        <time>2018-07-18T10:45:20Z</time>
      </trkpt>
      <trkpt lat="47.80522" lon="-3.65798">
        <ele>50</ele>
        <time>2018-07-18T10:45:21Z</time>
      </trkpt>
      <trkpt lat="47.80525" lon="-3.65802">
        <ele>50</ele>
        <time>2018-07-18T10:45:22Z</time>
      </trkpt>
      <trkpt lat="47.80528" lon="-3.65806">
        <ele>49</ele>
        <time>2018-07-18T10:45:23Z</time>
      </trkpt>
      <trkpt lat="47.80531" lon="-3.65811">
        <ele>49</ele>
        <time>2018-07-18T10:45:24Z</time>
      </trkpt>
      <trkpt lat="47.80535" lon="-3.65817">
        <ele>49</ele>
        <time>2018-07-18T10:45:25Z</time>
      </trkpt>
      <trkpt lat="47.80538" lon="-3.65822">
        <ele>49</ele>
        <time>2018-07-18T10:45:26Z</time>
      </trkpt>
      <trkpt lat="47.80542" lon="-3.65828">
        <ele>49</ele>
        <time>2018-07-18T10:45:27Z</time>
      </trkpt>
      <trkpt lat="47.80545" lon="-3.65834">
        <ele>48</ele>
        <time>2018-07-18T10:45:28Z</time>
      </trkpt>
      <trkpt lat="47.80549" lon="-3.6584">
        <ele>48</ele>
        <time>2018-07-18T10:45:29Z</time>
      </trkpt>
      <trkpt lat="47.80552" lon="-3.65846">
        <ele>48</ele>
        <time>2018-07-18T10:45:30Z</time>
      </trkpt>
      <trkpt lat="47.80555" lon="-3.65853">
        <ele>48</ele>
        <time>2018-07-18T10:45:31Z</time>
      </trkpt>
      <trkpt lat="47.80559" lon="-3.6586">
        <ele>48</ele>
        <time>2018-07-18T10:45:32Z</time>
      </trkpt>
      <trkpt lat="47.80562" lon="-3.65866">
        <ele>48</ele>
        <time>2018-07-18T10:45:33Z</time>
      </trkpt>
      <trkpt lat="47.80566" lon="-3.65873">
        <ele>48</ele>
        <time>2018-07-18T10:45:34Z</time>
      </trkpt>
      <trkpt lat="47.80569" lon="-3.6588">
        <ele>47</ele>
        <time>2018-07-18T10:45:35Z</time>
      </trkpt>
      <trkpt lat="47.80573" lon="-3.65887">
        <ele>47</ele>
        <time>2018-07-18T10:45:36Z</time>
      </trkpt>
      <trkpt lat="47.80576" lon="-3.65893">
        <ele>47</ele>
        <time>2018-07-18T10:45:37Z</time>
      </trkpt>
      <trkpt lat="47.8058" lon="-3.659">
        <ele>47</ele>
        <time>2018-07-18T10:45:38Z</time>
      </trkpt>
      <trkpt lat="47.80583" lon="-3.65907">
        <ele>47</ele>
        <time>2018-07-18T10:45:39Z</time>
      </trkpt>
      <trkpt lat="47.80587" lon="-3.65913">
        <ele>47</ele>
        <time>2018-07-18T10:45:40Z</time>
      </trkpt>
      <trkpt lat="47.8059" lon="-3.65919">
        <ele>47</ele>
        <time>2018-07-18T10:45:41Z</time>
      </trkpt>
      <trkpt lat="47.80593" lon="-3.65925">
        <ele>47</ele>
        <time>2018-07-18T10:45:42Z</time>
      </trkpt>
      <trkpt lat="47.80597" lon="-3.65931">
        <ele>46</ele>
        <time>2018-07-18T10:45:43Z</time>
      </trkpt>
      <trkpt lat="47.806" lon="-3.65938">
        <ele>46</ele>
        <time>2018-07-18T10:45:44Z</time>
      </trkpt>
      <trkpt lat="47.80603" lon="-3.65944">
        <ele>46</ele>
        <time>2018-07-18T10:45:45Z</time>
      </trkpt>
      <trkpt lat="47.80606" lon="-3.6595">
        <ele>46</ele>
        <time>2018-07-18T10:45:46Z</time>
      </trkpt>
      <trkpt lat="47.8061" lon="-3.65957">
        <ele>46</ele>
        <time>2018-07-18T10:45:47Z</time>
      </trkpt>
      <trkpt lat="47.80613" lon="-3.65963">
        <ele>46</ele>
        <time>2018-07-18T10:45:48Z</time>
      </trkpt>
      <trkpt lat="47.80617" lon="-3.6597">
        <ele>46</ele>
        <time>2018-07-18T10:45:49Z</time>
      </trkpt>
      <trkpt lat="47.8062" lon="-3.65977">
        <ele>46</ele>
        <time>2018-07-18T10:45:50Z</time>
      </trkpt>
      <trkpt lat="47.80624" lon="-3.65985">
        <ele>46</ele>
        <time>2018-07-18T10:45:51Z</time>
      </trkpt>
      <trkpt lat="47.80627" lon="-3.65992">
        <ele>45</ele>
        <time>2018-07-18T10:45:52Z</time>
      </trkpt>
      <trkpt lat="47.8063" lon="-3.65999">
        <ele>45</ele>
        <time>2018-07-18T10:45:53Z</time>
      </trkpt>
      <trkpt lat="47.80634" lon="-3.66007">
        <ele>45</ele>
        <time>2018-07-18T10:45:54Z</time>
      </trkpt>
      <trkpt lat="47.80638" lon="-3.66014">
        <ele>45</ele>
        <time>2018-07-18T10:45:55Z</time>
      </trkpt>
      <trkpt lat="47.80641" lon="-3.66021">
        <ele>45</ele>
        <time>2018-07-18T10:45:56Z</time>
      </trkpt>
      <trkpt lat="47.80645" lon="-3.66028">
        <ele>44</ele>
        <time>2018-07-18T10:45:57Z</time>
      </trkpt>
      <trkpt lat="47.80648" lon="-3.66035">
        <ele>44</ele>
        <time>2018-07-18T10:45:58Z</time>
      </trkpt>
      <trkpt lat="47.80652" lon="-3.66042">
        <ele>44</ele>
        <time>2018-07-18T10:45:59Z</time>
      </trkpt>
      <trkpt lat="47.80656" lon="-3.6605">
        <ele>44</ele>
        <time>2018-07-18T10:46:00Z</time>
      </trkpt>
      <trkpt lat="47.8066" lon="-3.66057">
        <ele>44</ele>
        <time>2018-07-18T10:46:01Z</time>
      </trkpt>
      <trkpt lat="47.80663" lon="-3.66064">
        <ele>43</ele>
        <time>2018-07-18T10:46:02Z</time>
      </trkpt>
      <trkpt lat="47.80666" lon="-3.66072">
        <ele>43</ele>
        <time>2018-07-18T10:46:03Z</time>
      </trkpt>
      <trkpt lat="47.8067" lon="-3.66079">
        <ele>43</ele>
        <time>2018-07-18T10:46:04Z</time>
      </trkpt>
      <trkpt lat="47.80674" lon="-3.66087">
        <ele>43</ele>
        <time>2018-07-18T10:46:05Z</time>
      </trkpt>
      <trkpt lat="47.80678" lon="-3.66094">
        <ele>43</ele>
        <time>2018-07-18T10:46:06Z</time>
      </trkpt>
      <trkpt lat="47.80682" lon="-3.66101">
        <ele>43</ele>
        <time>2018-07-18T10:46:07Z</time>
      </trkpt>
      <trkpt lat="47.80685" lon="-3.66108">
        <ele>43</ele>
        <time>2018-07-18T10:46:08Z</time>
      </trkpt>
      <trkpt lat="47.80689" lon="-3.66115">
        <ele>43</ele>
        <time>2018-07-18T10:46:09Z</time>
      </trkpt>
      <trkpt lat="47.80692" lon="-3.66122">
        <ele>43</ele>
        <time>2018-07-18T10:46:10Z</time>
      </trkpt>
      <trkpt lat="47.80695" lon="-3.66129">
        <ele>43</ele>
        <time>2018-07-18T10:46:11Z</time>
      </trkpt>
      <trkpt lat="47.80698" lon="-3.66136">
        <ele>43</ele>
        <time>2018-07-18T10:46:12Z</time>
      </trkpt>
      <trkpt lat="47.80702" lon="-3.66143">
        <ele>43</ele>
        <time>2018-07-18T10:46:13Z</time>
      </trkpt>
      <trkpt lat="47.80705" lon="-3.6615">
        <ele>43</ele>
        <time>2018-07-18T10:46:14Z</time>
      </trkpt>
      <trkpt lat="47.80709" lon="-3.66157">
        <ele>43</ele>
        <time>2018-07-18T10:46:15Z</time>
      </trkpt>
      <trkpt lat="47.80712" lon="-3.66164">
        <ele>43</ele>
        <time>2018-07-18T10:46:16Z</time>
      </trkpt>
      <trkpt lat="47.80715" lon="-3.66172">
        <ele>44</ele>
        <time>2018-07-18T10:46:17Z</time>
      </trkpt>
      <trkpt lat="47.80719" lon="-3.66178">
        <ele>44</ele>
        <time>2018-07-18T10:46:18Z</time>
      </trkpt>
      <trkpt lat="47.80722" lon="-3.66185">
        <ele>44</ele>
        <time>2018-07-18T10:46:19Z</time>
      </trkpt>
      <trkpt lat="47.80726" lon="-3.66192">
        <ele>44</ele>
        <time>2018-07-18T10:46:20Z</time>
      </trkpt>
      <trkpt lat="47.80729" lon="-3.66199">
        <ele>44</ele>
        <time>2018-07-18T10:46:21Z</time>
      </trkpt>
      <trkpt lat="47.80732" lon="-3.66206">
        <ele>44</ele>
        <time>2018-07-18T10:46:22Z</time>
      </trkpt>
      <trkpt lat="47.80735" lon="-3.66213">
        <ele>44</ele>
        <time>2018-07-18T10:46:23Z</time>
      </trkpt>
      <trkpt lat="47.80738" lon="-3.6622">
        <ele>45</ele>
        <time>2018-07-18T10:46:24Z</time>
      </trkpt>
      <trkpt lat="47.80741" lon="-3.66227">
        <ele>45</ele>
        <time>2018-07-18T10:46:25Z</time>
      </trkpt>
      <trkpt lat="47.80745" lon="-3.66233">
        <ele>45</ele>
        <time>2018-07-18T10:46:26Z</time>
      </trkpt>
      <trkpt lat="47.80749" lon="-3.66238">
        <ele>45</ele>
        <time>2018-07-18T10:46:27Z</time>
      </trkpt>
      <trkpt lat="47.80752" lon="-3.66243">
        <ele>45</ele>
        <time>2018-07-18T10:46:28Z</time>
      </trkpt>
      <trkpt lat="47.80756" lon="-3.66247">
        <ele>45</ele>
        <time>2018-07-18T10:46:29Z</time>
      </trkpt>
      <trkpt lat="47.80759" lon="-3.6625">
        <ele>45</ele>
        <time>2018-07-18T10:46:30Z</time>
      </trkpt>
      <trkpt lat="47.80762" lon="-3.66253">
        <ele>45</ele>
        <time>2018-07-18T10:46:31Z</time>
      </trkpt>
      <trkpt lat="47.80766" lon="-3.66256">
        <ele>45</ele>
        <time>2018-07-18T10:46:32Z</time>
      </trkpt>
      <trkpt lat="47.8077" lon="-3.66259">
        <ele>45</ele>
        <time>2018-07-18T10:46:33Z</time>
      </trkpt>
      <trkpt lat="47.80775" lon="-3.66263">
        <ele>44</ele>
        <time>2018-07-18T10:46:34Z</time>
      </trkpt>
      <trkpt lat="47.8078" lon="-3.66267">
        <ele>44</ele>
        <time>2018-07-18T10:46:35Z</time>
      </trkpt>
      <trkpt lat="47.80785" lon="-3.66271">
        <ele>44</ele>
        <time>2018-07-18T10:46:36Z</time>
      </trkpt>
      <trkpt lat="47.8079" lon="-3.66274">
        <ele>44</ele>
        <time>2018-07-18T10:46:37Z</time>
      </trkpt>
      <trkpt lat="47.80795" lon="-3.66278">
        <ele>44</ele>
        <time>2018-07-18T10:46:38Z</time>
      </trkpt>
      <trkpt lat="47.80801" lon="-3.66282">
        <ele>44</ele>
        <time>2018-07-18T10:46:39Z</time>
      </trkpt>
      <trkpt lat="47.80806" lon="-3.66286">
        <ele>45</ele>
        <time>2018-07-18T10:46:40Z</time>
      </trkpt>
      <trkpt lat="47.80812" lon="-3.6629">
        <ele>45</ele>
        <time>2018-07-18T10:46:41Z</time>
      </trkpt>
      <trkpt lat="47.80817" lon="-3.66293">
        <ele>45</ele>
        <time>2018-07-18T10:46:42Z</time>
      </trkpt>
      <trkpt lat="47.80822" lon="-3.66298">
        <ele>46</ele>
        <time>2018-07-18T10:46:43Z</time>
      </trkpt>
      <trkpt lat="47.80827" lon="-3.66301">
        <ele>46</ele>
        <time>2018-07-18T10:46:44Z</time>
      </trkpt>
      <trkpt lat="47.80833" lon="-3.66305">
        <ele>46</ele>
        <time>2018-07-18T10:46:45Z</time>
      </trkpt>
      <trkpt lat="47.80838" lon="-3.66308">
        <ele>47</ele>
        <time>2018-07-18T10:46:46Z</time>
      </trkpt>
      <trkpt lat="47.80843" lon="-3.66312">
        <ele>47</ele>
        <time>2018-07-18T10:46:47Z</time>
      </trkpt>
      <trkpt lat="47.80849" lon="-3.66315">
        <ele>48</ele>
        <time>2018-07-18T10:46:48Z</time>
      </trkpt>
      <trkpt lat="47.80855" lon="-3.66319">
        <ele>48</ele>
        <time>2018-07-18T10:46:49Z</time>
      </trkpt>
      <trkpt lat="47.8086" lon="-3.66323">
        <ele>49</ele>
        <time>2018-07-18T10:46:50Z</time>
      </trkpt>
      <trkpt lat="47.80865" lon="-3.66327">
        <ele>49</ele>
        <time>2018-07-18T10:46:51Z</time>
      </trkpt>
      <trkpt lat="47.80869" lon="-3.66329">
        <ele>49</ele>
        <time>2018-07-18T10:46:52Z</time>
      </trkpt>
      <trkpt lat="47.80874" lon="-3.66332">
        <ele>50</ele>
        <time>2018-07-18T10:46:53Z</time>
      </trkpt>
      <trkpt lat="47.80879" lon="-3.66336">
        <ele>50</ele>
        <time>2018-07-18T10:46:54Z</time>
      </trkpt>
      <trkpt lat="47.80884" lon="-3.6634">
        <ele>50</ele>
        <time>2018-07-18T10:46:55Z</time>
      </trkpt>
      <trkpt lat="47.80889" lon="-3.66343">
        <ele>51</ele>
        <time>2018-07-18T10:46:56Z</time>
      </trkpt>
      <trkpt lat="47.80893" lon="-3.66347">
        <ele>51</ele>
        <time>2018-07-18T10:46:57Z</time>
      </trkpt>
      <trkpt lat="47.80898" lon="-3.66352">
        <ele>51</ele>
        <time>2018-07-18T10:46:58Z</time>
      </trkpt>
      <trkpt lat="47.80902" lon="-3.66356">
        <ele>52</ele>
        <time>2018-07-18T10:46:59Z</time>
      </trkpt>
      <trkpt lat="47.80907" lon="-3.66361">
        <ele>52</ele>
        <time>2018-07-18T10:47:00Z</time>
      </trkpt>
      <trkpt lat="47.80911" lon="-3.66365">
        <ele>52</ele>
        <time>2018-07-18T10:47:01Z</time>
      </trkpt>
      <trkpt lat="47.80916" lon="-3.66369">
        <ele>52</ele>
        <time>2018-07-18T10:47:02Z</time>
      </trkpt>
      <trkpt lat="47.80921" lon="-3.66373">
        <ele>52</ele>
        <time>2018-07-18T10:47:03Z</time>
      </trkpt>
      <trkpt lat="47.80925" lon="-3.66377">
        <ele>52</ele>
        <time>2018-07-18T10:47:04Z</time>
      </trkpt>
      <trkpt lat="47.8093" lon="-3.66382">
        <ele>52</ele>
        <time>2018-07-18T10:47:05Z</time>
      </trkpt>
      <trkpt lat="47.80935" lon="-3.66386">
        <ele>52</ele>
        <time>2018-07-18T10:47:06Z</time>
      </trkpt>
      <trkpt lat="47.8094" lon="-3.6639">
        <ele>52</ele>
        <time>2018-07-18T10:47:07Z</time>
      </trkpt>
      <trkpt lat="47.80945" lon="-3.66394">
        <ele>52</ele>
        <time>2018-07-18T10:47:08Z</time>
      </trkpt>
      <trkpt lat="47.8095" lon="-3.66399">
        <ele>52</ele>
        <time>2018-07-18T10:47:09Z</time>
      </trkpt>
      <trkpt lat="47.80955" lon="-3.66403">
        <ele>52</ele>
        <time>2018-07-18T10:47:10Z</time>
      </trkpt>
      <trkpt lat="47.80959" lon="-3.66409">
        <ele>52</ele>
        <time>2018-07-18T10:47:11Z</time>
      </trkpt>
      <trkpt lat="47.80964" lon="-3.66413">
        <ele>51</ele>
        <time>2018-07-18T10:47:12Z</time>
      </trkpt>
      <trkpt lat="47.80969" lon="-3.66418">
        <ele>51</ele>
        <time>2018-07-18T10:47:13Z</time>
      </trkpt>
      <trkpt lat="47.80974" lon="-3.66422">
        <ele>51</ele>
        <time>2018-07-18T10:47:14Z</time>
      </trkpt>
      <trkpt lat="47.80979" lon="-3.66426">
        <ele>51</ele>
        <time>2018-07-18T10:47:15Z</time>
      </trkpt>
      <trkpt lat="47.80983" lon="-3.66431">
        <ele>51</ele>
        <time>2018-07-18T10:47:16Z</time>
      </trkpt>
      <trkpt lat="47.80988" lon="-3.66436">
        <ele>51</ele>
        <time>2018-07-18T10:47:17Z</time>
      </trkpt>
      <trkpt lat="47.80992" lon="-3.66442">
        <ele>51</ele>
        <time>2018-07-18T10:47:18Z</time>
      </trkpt>
      <trkpt lat="47.80995" lon="-3.66448">
        <ele>51</ele>
        <time>2018-07-18T10:47:19Z</time>
      </trkpt>
      <trkpt lat="47.80998" lon="-3.66455">
        <ele>51</ele>
        <time>2018-07-18T10:47:20Z</time>
      </trkpt>
      <trkpt lat="47.80999" lon="-3.66462">
        <ele>51</ele>
        <time>2018-07-18T10:47:21Z</time>
      </trkpt>
      <trkpt lat="47.80999" lon="-3.6647">
        <ele>51</ele>
        <time>2018-07-18T10:47:22Z</time>
      </trkpt>
      <trkpt lat="47.80998" lon="-3.66477">
        <ele>51</ele>
        <time>2018-07-18T10:47:23Z</time>
      </trkpt>
      <trkpt lat="47.80998" lon="-3.66486">
        <ele>51</ele>
        <time>2018-07-18T10:47:24Z</time>
      </trkpt>
      <trkpt lat="47.80997" lon="-3.66493">
        <ele>51</ele>
        <time>2018-07-18T10:47:25Z</time>
      </trkpt>
      <trkpt lat="47.80997" lon="-3.665">
        <ele>50</ele>
        <time>2018-07-18T10:47:26Z</time>
      </trkpt>
      <trkpt lat="47.80996" lon="-3.66508">
        <ele>50</ele>
        <time>2018-07-18T10:47:27Z</time>
      </trkpt>
      <trkpt lat="47.80995" lon="-3.66516">
        <ele>50</ele>
        <time>2018-07-18T10:47:28Z</time>
      </trkpt>
      <trkpt lat="47.80994" lon="-3.66525">
        <ele>50</ele>
        <time>2018-07-18T10:47:29Z</time>
      </trkpt>
      <trkpt lat="47.80993" lon="-3.66533">
        <ele>50</ele>
        <time>2018-07-18T10:47:30Z</time>
      </trkpt>
      <trkpt lat="47.80992" lon="-3.66541">
        <ele>50</ele>
        <time>2018-07-18T10:47:31Z</time>
      </trkpt>
      <trkpt lat="47.80992" lon="-3.66549">
        <ele>50</ele>
        <time>2018-07-18T10:47:32Z</time>
      </trkpt>
      <trkpt lat="47.80991" lon="-3.66557">
        <ele>50</ele>
        <time>2018-07-18T10:47:33Z</time>
      </trkpt>
      <trkpt lat="47.8099" lon="-3.66563">
        <ele>50</ele>
        <time>2018-07-18T10:47:34Z</time>
      </trkpt>
      <trkpt lat="47.8099" lon="-3.6657">
        <ele>50</ele>
        <time>2018-07-18T10:47:35Z</time>
      </trkpt>
      <trkpt lat="47.80988" lon="-3.66576">
        <ele>50</ele>
        <time>2018-07-18T10:47:36Z</time>
      </trkpt>
      <trkpt lat="47.80987" lon="-3.66584">
        <ele>50</ele>
        <time>2018-07-18T10:47:37Z</time>
      </trkpt>
      <trkpt lat="47.80986" lon="-3.66593">
        <ele>50</ele>
        <time>2018-07-18T10:47:38Z</time>
      </trkpt>
      <trkpt lat="47.80985" lon="-3.66603">
        <ele>50</ele>
        <time>2018-07-18T10:47:39Z</time>
      </trkpt>
      <trkpt lat="47.80984" lon="-3.66612">
        <ele>50</ele>
        <time>2018-07-18T10:47:40Z</time>
      </trkpt>
      <trkpt lat="47.80983" lon="-3.66622">
        <ele>50</ele>
        <time>2018-07-18T10:47:41Z</time>
      </trkpt>
      <trkpt lat="47.80983" lon="-3.66631">
        <ele>50</ele>
        <time>2018-07-18T10:47:42Z</time>
      </trkpt>
      <trkpt lat="47.80982" lon="-3.66641">
        <ele>50</ele>
        <time>2018-07-18T10:47:43Z</time>
      </trkpt>
      <trkpt lat="47.8098" lon="-3.6665">
        <ele>49</ele>
        <time>2018-07-18T10:47:44Z</time>
      </trkpt>
      <trkpt lat="47.80979" lon="-3.6666">
        <ele>49</ele>
        <time>2018-07-18T10:47:45Z</time>
      </trkpt>
      <trkpt lat="47.80977" lon="-3.66669">
        <ele>49</ele>
        <time>2018-07-18T10:47:46Z</time>
      </trkpt>
      <trkpt lat="47.80976" lon="-3.66679">
        <ele>49</ele>
        <time>2018-07-18T10:47:47Z</time>
      </trkpt>
      <trkpt lat="47.80975" lon="-3.66689">
        <ele>48</ele>
        <time>2018-07-18T10:47:48Z</time>
      </trkpt>
      <trkpt lat="47.80974" lon="-3.66699">
        <ele>48</ele>
        <time>2018-07-18T10:47:49Z</time>
      </trkpt>
      <trkpt lat="47.80974" lon="-3.66708">
        <ele>48</ele>
        <time>2018-07-18T10:47:50Z</time>
      </trkpt>
      <trkpt lat="47.80973" lon="-3.66717">
        <ele>48</ele>
        <time>2018-07-18T10:47:51Z</time>
      </trkpt>
      <trkpt lat="47.80973" lon="-3.66725">
        <ele>47</ele>
        <time>2018-07-18T10:47:52Z</time>
      </trkpt>
      <trkpt lat="47.80972" lon="-3.66735">
        <ele>47</ele>
        <time>2018-07-18T10:47:53Z</time>
      </trkpt>
      <trkpt lat="47.80971" lon="-3.66744">
        <ele>47</ele>
        <time>2018-07-18T10:47:54Z</time>
      </trkpt>
      <trkpt lat="47.8097" lon="-3.66753">
        <ele>47</ele>
        <time>2018-07-18T10:47:55Z</time>
      </trkpt>
      <trkpt lat="47.80969" lon="-3.66762">
        <ele>47</ele>
        <time>2018-07-18T10:47:56Z</time>
      </trkpt>
      <trkpt lat="47.80968" lon="-3.66772">
        <ele>47</ele>
        <time>2018-07-18T10:47:57Z</time>
      </trkpt>
      <trkpt lat="47.80967" lon="-3.66781">
        <ele>47</ele>
        <time>2018-07-18T10:47:58Z</time>
      </trkpt>
      <trkpt lat="47.80966" lon="-3.66791">
        <ele>46</ele>
        <time>2018-07-18T10:47:59Z</time>
      </trkpt>
      <trkpt lat="47.80965" lon="-3.66802">
        <ele>46</ele>
        <time>2018-07-18T10:48:00Z</time>
      </trkpt>
      <trkpt lat="47.80964" lon="-3.66812">
        <ele>46</ele>
        <time>2018-07-18T10:48:01Z</time>
      </trkpt>
      <trkpt lat="47.80963" lon="-3.66822">
        <ele>46</ele>
        <time>2018-07-18T10:48:02Z</time>
      </trkpt>
      <trkpt lat="47.80962" lon="-3.66832">
        <ele>46</ele>
        <time>2018-07-18T10:48:03Z</time>
      </trkpt>
      <trkpt lat="47.80961" lon="-3.66842">
        <ele>46</ele>
        <time>2018-07-18T10:48:04Z</time>
      </trkpt>
      <trkpt lat="47.8096" lon="-3.66852">
        <ele>46</ele>
        <time>2018-07-18T10:48:05Z</time>
      </trkpt>
      <trkpt lat="47.80959" lon="-3.66862">
        <ele>45</ele>
        <time>2018-07-18T10:48:06Z</time>
      </trkpt>
      <trkpt lat="47.80958" lon="-3.66872">
        <ele>45</ele>
        <time>2018-07-18T10:48:07Z</time>
      </trkpt>
      <trkpt lat="47.80957" lon="-3.66882">
        <ele>45</ele>
        <time>2018-07-18T10:48:08Z</time>
      </trkpt>
      <trkpt lat="47.80956" lon="-3.66892">
        <ele>45</ele>
        <time>2018-07-18T10:48:09Z</time>
      </trkpt>
      <trkpt lat="47.80956" lon="-3.66901">
        <ele>45</ele>
        <time>2018-07-18T10:48:10Z</time>
      </trkpt>
      <trkpt lat="47.80955" lon="-3.66911">
        <ele>45</ele>
        <time>2018-07-18T10:48:11Z</time>
      </trkpt>
      <trkpt lat="47.80954" lon="-3.6692">
        <ele>45</ele>
        <time>2018-07-18T10:48:12Z</time>
      </trkpt>
      <trkpt lat="47.80954" lon="-3.6693">
        <ele>45</ele>
        <time>2018-07-18T10:48:13Z</time>
      </trkpt>
      <trkpt lat="47.80953" lon="-3.66939">
        <ele>45</ele>
        <time>2018-07-18T10:48:14Z</time>
      </trkpt>
      <trkpt lat="47.80952" lon="-3.66948">
        <ele>45</ele>
        <time>2018-07-18T10:48:15Z</time>
      </trkpt>
      <trkpt lat="47.80951" lon="-3.66958">
        <ele>45</ele>
        <time>2018-07-18T10:48:16Z</time>
      </trkpt>
      <trkpt lat="47.8095" lon="-3.66967">
        <ele>45</ele>
        <time>2018-07-18T10:48:17Z</time>
      </trkpt>
      <trkpt lat="47.8095" lon="-3.66977">
        <ele>45</ele>
        <time>2018-07-18T10:48:18Z</time>
      </trkpt>
      <trkpt lat="47.80949" lon="-3.66986">
        <ele>45</ele>
        <time>2018-07-18T10:48:19Z</time>
      </trkpt>
      <trkpt lat="47.80948" lon="-3.66996">
        <ele>45</ele>
        <time>2018-07-18T10:48:20Z</time>
      </trkpt>
      <trkpt lat="47.80947" lon="-3.67006">
        <ele>46</ele>
        <time>2018-07-18T10:48:21Z</time>
      </trkpt>
      <trkpt lat="47.80946" lon="-3.67015">
        <ele>46</ele>
        <time>2018-07-18T10:48:22Z</time>
      </trkpt>
      <trkpt lat="47.80946" lon="-3.67024">
        <ele>46</ele>
        <time>2018-07-18T10:48:23Z</time>
      </trkpt>
      <trkpt lat="47.80945" lon="-3.67034">
        <ele>46</ele>
        <time>2018-07-18T10:48:24Z</time>
      </trkpt>
      <trkpt lat="47.80944" lon="-3.67043">
        <ele>46</ele>
        <time>2018-07-18T10:48:25Z</time>
      </trkpt>
      <trkpt lat="47.80943" lon="-3.67052">
        <ele>46</ele>
        <time>2018-07-18T10:48:26Z</time>
      </trkpt>
      <trkpt lat="47.80943" lon="-3.67061">
        <ele>46</ele>
        <time>2018-07-18T10:48:27Z</time>
      </trkpt>
      <trkpt lat="47.80942" lon="-3.6707">
        <ele>46</ele>
        <time>2018-07-18T10:48:28Z</time>
      </trkpt>
      <trkpt lat="47.80941" lon="-3.67079">
        <ele>46</ele>
        <time>2018-07-18T10:48:29Z</time>
      </trkpt>
      <trkpt lat="47.8094" lon="-3.67087">
        <ele>46</ele>
        <time>2018-07-18T10:48:30Z</time>
      </trkpt>
      <trkpt lat="47.8094" lon="-3.67096">
        <ele>46</ele>
        <time>2018-07-18T10:48:31Z</time>
      </trkpt>
      <trkpt lat="47.80939" lon="-3.67105">
        <ele>46</ele>
        <time>2018-07-18T10:48:32Z</time>
      </trkpt>
      <trkpt lat="47.80939" lon="-3.67113">
        <ele>46</ele>
        <time>2018-07-18T10:48:33Z</time>
      </trkpt>
      <trkpt lat="47.80938" lon="-3.67121">
        <ele>46</ele>
        <time>2018-07-18T10:48:34Z</time>
      </trkpt>
      <trkpt lat="47.80938" lon="-3.6713">
        <ele>46</ele>
        <time>2018-07-18T10:48:35Z</time>
      </trkpt>
      <trkpt lat="47.80937" lon="-3.67138">
        <ele>46</ele>
        <time>2018-07-18T10:48:36Z</time>
      </trkpt>
      <trkpt lat="47.80937" lon="-3.67147">
        <ele>46</ele>
        <time>2018-07-18T10:48:37Z</time>
      </trkpt>
      <trkpt lat="47.80936" lon="-3.67156">
        <ele>45</ele>
        <time>2018-07-18T10:48:38Z</time>
      </trkpt>
      <trkpt lat="47.80936" lon="-3.67164">
        <ele>45</ele>
        <time>2018-07-18T10:48:39Z</time>
      </trkpt>
      <trkpt lat="47.80936" lon="-3.67172">
        <ele>45</ele>
        <time>2018-07-18T10:48:40Z</time>
      </trkpt>
      <trkpt lat="47.80935" lon="-3.6718">
        <ele>45</ele>
        <time>2018-07-18T10:48:41Z</time>
      </trkpt>
      <trkpt lat="47.80934" lon="-3.67188">
        <ele>45</ele>
        <time>2018-07-18T10:48:42Z</time>
      </trkpt>
      <trkpt lat="47.80933" lon="-3.67196">
        <ele>45</ele>
        <time>2018-07-18T10:48:43Z</time>
      </trkpt>
      <trkpt lat="47.80933" lon="-3.67204">
        <ele>45</ele>
        <time>2018-07-18T10:48:44Z</time>
      </trkpt>
      <trkpt lat="47.80934" lon="-3.67212">
        <ele>45</ele>
        <time>2018-07-18T10:48:45Z</time>
      </trkpt>
      <trkpt lat="47.80937" lon="-3.67218">
        <ele>45</ele>
        <time>2018-07-18T10:48:46Z</time>
      </trkpt>
      <trkpt lat="47.80942" lon="-3.67221">
        <ele>45</ele>
        <time>2018-07-18T10:48:47Z</time>
      </trkpt>
      <trkpt lat="47.80947" lon="-3.67222">
        <ele>45</ele>
        <time>2018-07-18T10:48:48Z</time>
      </trkpt>
      <trkpt lat="47.80953" lon="-3.67224">
        <ele>45</ele>
        <time>2018-07-18T10:48:49Z</time>
      </trkpt>
      <trkpt lat="47.80958" lon="-3.67226">
        <ele>45</ele>
        <time>2018-07-18T10:48:50Z</time>
      </trkpt>
      <trkpt lat="47.80964" lon="-3.67227">
        <ele>45</ele>
        <time>2018-07-18T10:48:51Z</time>
      </trkpt>
      <trkpt lat="47.8097" lon="-3.67229">
        <ele>45</ele>
        <time>2018-07-18T10:48:52Z</time>
      </trkpt>
      <trkpt lat="47.80975" lon="-3.6723">
        <ele>45</ele>
        <time>2018-07-18T10:48:53Z</time>
      </trkpt>
      <trkpt lat="47.80981" lon="-3.67232">
        <ele>45</ele>
        <time>2018-07-18T10:48:54Z</time>
      </trkpt>
      <trkpt lat="47.80986" lon="-3.67234">
        <ele>45</ele>
        <time>2018-07-18T10:48:55Z</time>
      </trkpt>
      <trkpt lat="47.80992" lon="-3.67237">
        <ele>45</ele>
        <time>2018-07-18T10:48:56Z</time>
      </trkpt>
      <trkpt lat="47.80998" lon="-3.67239">
        <ele>45</ele>
        <time>2018-07-18T10:48:57Z</time>
      </trkpt>
      <trkpt lat="47.81003" lon="-3.67242">
        <ele>45</ele>
        <time>2018-07-18T10:48:58Z</time>
      </trkpt>
      <trkpt lat="47.81009" lon="-3.67245">
        <ele>45</ele>
        <time>2018-07-18T10:48:59Z</time>
      </trkpt>
      <trkpt lat="47.81015" lon="-3.67247">
        <ele>45</ele>
        <time>2018-07-18T10:49:00Z</time>
      </trkpt>
      <trkpt lat="47.8102" lon="-3.6725">
        <ele>45</ele>
        <time>2018-07-18T10:49:01Z</time>
      </trkpt>
      <trkpt lat="47.81025" lon="-3.67253">
        <ele>46</ele>
        <time>2018-07-18T10:49:02Z</time>
      </trkpt>
      <trkpt lat="47.81031" lon="-3.67256">
        <ele>46</ele>
        <time>2018-07-18T10:49:03Z</time>
      </trkpt>
      <trkpt lat="47.81037" lon="-3.67258">
        <ele>46</ele>
        <time>2018-07-18T10:49:04Z</time>
      </trkpt>
      <trkpt lat="47.81043" lon="-3.6726">
        <ele>46</ele>
        <time>2018-07-18T10:49:05Z</time>
      </trkpt>
      <trkpt lat="47.81048" lon="-3.67264">
        <ele>46</ele>
        <time>2018-07-18T10:49:06Z</time>
      </trkpt>
      <trkpt lat="47.81054" lon="-3.67267">
        <ele>46</ele>
        <time>2018-07-18T10:49:07Z</time>
      </trkpt>
      <trkpt lat="47.81059" lon="-3.6727">
        <ele>46</ele>
        <time>2018-07-18T10:49:08Z</time>
      </trkpt>
      <trkpt lat="47.81065" lon="-3.67273">
        <ele>46</ele>
        <time>2018-07-18T10:49:09Z</time>
      </trkpt>
      <trkpt lat="47.8107" lon="-3.67276">
        <ele>47</ele>
        <time>2018-07-18T10:49:10Z</time>
      </trkpt>
      <trkpt lat="47.81074" lon="-3.67278">
        <ele>47</ele>
        <time>2018-07-18T10:49:11Z</time>
      </trkpt>
      <trkpt lat="47.81079" lon="-3.6728">
        <ele>47</ele>
        <time>2018-07-18T10:49:12Z</time>
      </trkpt>
      <trkpt lat="47.81083" lon="-3.67282">
        <ele>47</ele>
        <time>2018-07-18T10:49:13Z</time>
      </trkpt>
      <trkpt lat="47.81087" lon="-3.67283">
        <ele>47</ele>
        <time>2018-07-18T10:49:14Z</time>
      </trkpt>
      <trkpt lat="47.81089" lon="-3.67283">
        <ele>47</ele>
        <time>2018-07-18T10:49:15Z</time>
      </trkpt>
      <trkpt lat="47.8109" lon="-3.67283">
        <ele>47</ele>
        <time>2018-07-18T10:49:16Z</time>
      </trkpt>
      <trkpt lat="47.8109" lon="-3.67283">
        <ele>47</ele>
        <time>2018-07-18T10:49:17Z</time>
      </trkpt>
      <trkpt lat="47.8109" lon="-3.67283">
        <ele>47</ele>
        <time>2018-07-18T10:49:18Z</time>
      </trkpt>
      <trkpt lat="47.81091" lon="-3.67283">
        <ele>47</ele>
        <time>2018-07-18T10:49:19Z</time>
      </trkpt>
      <trkpt lat="47.81091" lon="-3.67283">
        <ele>47</ele>
        <time>2018-07-18T10:49:20Z</time>
      </trkpt>
      <trkpt lat="47.81094" lon="-3.67286">
        <ele>48</ele>
        <time>2018-07-18T10:49:21Z</time>
      </trkpt>
      <trkpt lat="47.81094" lon="-3.6729">
        <ele>47</ele>
        <time>2018-07-18T10:49:22Z</time>
      </trkpt>
      <trkpt lat="47.81094" lon="-3.67295">
        <ele>47</ele>
        <time>2018-07-18T10:49:23Z</time>
      </trkpt>
      <trkpt lat="47.81094" lon="-3.673">
        <ele>47</ele>
        <time>2018-07-18T10:49:24Z</time>
      </trkpt>
      <trkpt lat="47.81093" lon="-3.67305">
        <ele>47</ele>
        <time>2018-07-18T10:49:25Z</time>
      </trkpt>
      <trkpt lat="47.81092" lon="-3.67311">
        <ele>47</ele>
        <time>2018-07-18T10:49:26Z</time>
      </trkpt>
      <trkpt lat="47.81091" lon="-3.67317">
        <ele>47</ele>
        <time>2018-07-18T10:49:27Z</time>
      </trkpt>
      <trkpt lat="47.8109" lon="-3.67324">
        <ele>47</ele>
        <time>2018-07-18T10:49:28Z</time>
      </trkpt>
      <trkpt lat="47.8109" lon="-3.67329">
        <ele>47</ele>
        <time>2018-07-18T10:49:29Z</time>
      </trkpt>
      <trkpt lat="47.81088" lon="-3.67336">
        <ele>47</ele>
        <time>2018-07-18T10:49:30Z</time>
      </trkpt>
      <trkpt lat="47.81087" lon="-3.67342">
        <ele>47</ele>
        <time>2018-07-18T10:49:31Z</time>
      </trkpt>
      <trkpt lat="47.81085" lon="-3.67348">
        <ele>47</ele>
        <time>2018-07-18T10:49:32Z</time>
      </trkpt>
      <trkpt lat="47.81084" lon="-3.67355">
        <ele>47</ele>
        <time>2018-07-18T10:49:33Z</time>
      </trkpt>
      <trkpt lat="47.81083" lon="-3.67361">
        <ele>48</ele>
        <time>2018-07-18T10:49:34Z</time>
      </trkpt>
      <trkpt lat="47.81082" lon="-3.67368">
        <ele>48</ele>
        <time>2018-07-18T10:49:35Z</time>
      </trkpt>
      <trkpt lat="47.81081" lon="-3.67374">
        <ele>48</ele>
        <time>2018-07-18T10:49:36Z</time>
      </trkpt>
      <trkpt lat="47.81081" lon="-3.67381">
        <ele>48</ele>
        <time>2018-07-18T10:49:37Z</time>
      </trkpt>
      <trkpt lat="47.81081" lon="-3.67387">
        <ele>48</ele>
        <time>2018-07-18T10:49:38Z</time>
      </trkpt>
      <trkpt lat="47.81082" lon="-3.67391">
        <ele>48</ele>
        <time>2018-07-18T10:49:39Z</time>
      </trkpt>
      <trkpt lat="47.81085" lon="-3.67392">
        <ele>48</ele>
        <time>2018-07-18T10:49:40Z</time>
      </trkpt>
      <trkpt lat="47.81089" lon="-3.67393">
        <ele>48</ele>
        <time>2018-07-18T10:49:41Z</time>
      </trkpt>
      <trkpt lat="47.81094" lon="-3.67393">
        <ele>48</ele>
        <time>2018-07-18T10:49:42Z</time>
      </trkpt>
      <trkpt lat="47.81098" lon="-3.67392">
        <ele>48</ele>
        <time>2018-07-18T10:49:43Z</time>
      </trkpt>
      <trkpt lat="47.81103" lon="-3.67392">
        <ele>48</ele>
        <time>2018-07-18T10:49:44Z</time>
      </trkpt>
      <trkpt lat="47.81107" lon="-3.67392">
        <ele>48</ele>
        <time>2018-07-18T10:49:45Z</time>
      </trkpt>
      <trkpt lat="47.81111" lon="-3.67391">
        <ele>48</ele>
        <time>2018-07-18T10:49:46Z</time>
      </trkpt>
      <trkpt lat="47.81116" lon="-3.67391">
        <ele>48</ele>
        <time>2018-07-18T10:49:47Z</time>
      </trkpt>
      <trkpt lat="47.8112" lon="-3.67391">
        <ele>49</ele>
        <time>2018-07-18T10:49:48Z</time>
      </trkpt>
      <trkpt lat="47.81124" lon="-3.67391">
        <ele>49</ele>
        <time>2018-07-18T10:49:49Z</time>
      </trkpt>
      <trkpt lat="47.81128" lon="-3.67391">
        <ele>49</ele>
        <time>2018-07-18T10:49:50Z</time>
      </trkpt>
      <trkpt lat="47.81133" lon="-3.67392">
        <ele>49</ele>
        <time>2018-07-18T10:49:51Z</time>
      </trkpt>
      <trkpt lat="47.81137" lon="-3.67393">
        <ele>49</ele>
        <time>2018-07-18T10:49:52Z</time>
      </trkpt>
      <trkpt lat="47.81141" lon="-3.67395">
        <ele>49</ele>
        <time>2018-07-18T10:49:53Z</time>
      </trkpt>
      <trkpt lat="47.81145" lon="-3.67399">
        <ele>49</ele>
        <time>2018-07-18T10:49:54Z</time>
      </trkpt>
      <trkpt lat="47.8115" lon="-3.67402">
        <ele>49</ele>
        <time>2018-07-18T10:49:55Z</time>
      </trkpt>
      <trkpt lat="47.81155" lon="-3.67406">
        <ele>49</ele>
        <time>2018-07-18T10:49:56Z</time>
      </trkpt>
      <trkpt lat="47.8116" lon="-3.6741">
        <ele>49</ele>
        <time>2018-07-18T10:49:57Z</time>
      </trkpt>
      <trkpt lat="47.81165" lon="-3.67413">
        <ele>49</ele>
        <time>2018-07-18T10:49:58Z</time>
      </trkpt>
      <trkpt lat="47.8117" lon="-3.67417">
        <ele>49</ele>
        <time>2018-07-18T10:49:59Z</time>
      </trkpt>
      <trkpt lat="47.81175" lon="-3.6742">
        <ele>48</ele>
        <time>2018-07-18T10:50:00Z</time>
      </trkpt>
      <trkpt lat="47.8118" lon="-3.67424">
        <ele>48</ele>
        <time>2018-07-18T10:50:01Z</time>
      </trkpt>
      <trkpt lat="47.81184" lon="-3.67427">
        <ele>48</ele>
        <time>2018-07-18T10:50:02Z</time>
      </trkpt>
      <trkpt lat="47.81189" lon="-3.67431">
        <ele>48</ele>
        <time>2018-07-18T10:50:03Z</time>
      </trkpt>
      <trkpt lat="47.81194" lon="-3.67436">
        <ele>48</ele>
        <time>2018-07-18T10:50:04Z</time>
      </trkpt>
      <trkpt lat="47.81198" lon="-3.6744">
        <ele>48</ele>
        <time>2018-07-18T10:50:05Z</time>
      </trkpt>
      <trkpt lat="47.81202" lon="-3.67445">
        <ele>48</ele>
        <time>2018-07-18T10:50:06Z</time>
      </trkpt>
      <trkpt lat="47.81206" lon="-3.67449">
        <ele>48</ele>
        <time>2018-07-18T10:50:07Z</time>
      </trkpt>
      <trkpt lat="47.81208" lon="-3.67453">
        <ele>48</ele>
        <time>2018-07-18T10:50:08Z</time>
      </trkpt>
      <trkpt lat="47.8121" lon="-3.67458">
        <ele>47</ele>
        <time>2018-07-18T10:50:09Z</time>
      </trkpt>
      <trkpt lat="47.81211" lon="-3.67462">
        <ele>47</ele>
        <time>2018-07-18T10:50:10Z</time>
      </trkpt>
      <trkpt lat="47.81211" lon="-3.67467">
        <ele>47</ele>
        <time>2018-07-18T10:50:11Z</time>
      </trkpt>
      <trkpt lat="47.81209" lon="-3.67472">
        <ele>47</ele>
        <time>2018-07-18T10:50:12Z</time>
      </trkpt>
      <trkpt lat="47.81208" lon="-3.67477">
        <ele>46</ele>
        <time>2018-07-18T10:50:13Z</time>
      </trkpt>
      <trkpt lat="47.81206" lon="-3.67484">
        <ele>46</ele>
        <time>2018-07-18T10:50:14Z</time>
      </trkpt>
      <trkpt lat="47.81204" lon="-3.67491">
        <ele>46</ele>
        <time>2018-07-18T10:50:15Z</time>
      </trkpt>
      <trkpt lat="47.81202" lon="-3.67498">
        <ele>46</ele>
        <time>2018-07-18T10:50:16Z</time>
      </trkpt>
      <trkpt lat="47.81199" lon="-3.67506">
        <ele>45</ele>
        <time>2018-07-18T10:50:17Z</time>
      </trkpt>
      <trkpt lat="47.81197" lon="-3.67513">
        <ele>45</ele>
        <time>2018-07-18T10:50:18Z</time>
      </trkpt>
      <trkpt lat="47.81194" lon="-3.67521">
        <ele>45</ele>
        <time>2018-07-18T10:50:19Z</time>
      </trkpt>
      <trkpt lat="47.81192" lon="-3.67528">
        <ele>45</ele>
        <time>2018-07-18T10:50:20Z</time>
      </trkpt>
      <trkpt lat="47.8119" lon="-3.67536">
        <ele>45</ele>
        <time>2018-07-18T10:50:21Z</time>
      </trkpt>
      <trkpt lat="47.81187" lon="-3.67544">
        <ele>44</ele>
        <time>2018-07-18T10:50:22Z</time>
      </trkpt>
      <trkpt lat="47.81186" lon="-3.67552">
        <ele>44</ele>
        <time>2018-07-18T10:50:23Z</time>
      </trkpt>
      <trkpt lat="47.81184" lon="-3.67559">
        <ele>44</ele>
        <time>2018-07-18T10:50:24Z</time>
      </trkpt>
      <trkpt lat="47.81182" lon="-3.67567">
        <ele>44</ele>
        <time>2018-07-18T10:50:25Z</time>
      </trkpt>
      <trkpt lat="47.8118" lon="-3.67574">
        <ele>44</ele>
        <time>2018-07-18T10:50:26Z</time>
      </trkpt>
      <trkpt lat="47.81179" lon="-3.67581">
        <ele>44</ele>
        <time>2018-07-18T10:50:27Z</time>
      </trkpt>
      <trkpt lat="47.81177" lon="-3.67587">
        <ele>44</ele>
        <time>2018-07-18T10:50:28Z</time>
      </trkpt>
      <trkpt lat="47.81176" lon="-3.67594">
        <ele>44</ele>
        <time>2018-07-18T10:50:29Z</time>
      </trkpt>
      <trkpt lat="47.81176" lon="-3.67601">
        <ele>44</ele>
        <time>2018-07-18T10:50:30Z</time>
      </trkpt>
      <trkpt lat="47.81174" lon="-3.67609">
        <ele>44</ele>
        <time>2018-07-18T10:50:31Z</time>
      </trkpt>
      <trkpt lat="47.81173" lon="-3.67617">
        <ele>44</ele>
        <time>2018-07-18T10:50:32Z</time>
      </trkpt>
      <trkpt lat="47.81172" lon="-3.67624">
        <ele>44</ele>
        <time>2018-07-18T10:50:33Z</time>
      </trkpt>
      <trkpt lat="47.81171" lon="-3.67631">
        <ele>44</ele>
        <time>2018-07-18T10:50:34Z</time>
      </trkpt>
      <trkpt lat="47.81172" lon="-3.67637">
        <ele>45</ele>
        <time>2018-07-18T10:50:35Z</time>
      </trkpt>
      <trkpt lat="47.81173" lon="-3.6764">
        <ele>45</ele>
        <time>2018-07-18T10:50:36Z</time>
      </trkpt>
      <trkpt lat="47.81174" lon="-3.67642">
        <ele>45</ele>
        <time>2018-07-18T10:50:37Z</time>
      </trkpt>
      <trkpt lat="47.81174" lon="-3.67643">
        <ele>45</ele>
        <time>2018-07-18T10:50:38Z</time>
      </trkpt>
      <trkpt lat="47.81173" lon="-3.67643">
        <ele>45</ele>
        <time>2018-07-18T10:50:39Z</time>
      </trkpt>
      <trkpt lat="47.81172" lon="-3.67642">
        <ele>45</ele>
        <time>2018-07-18T10:50:40Z</time>
      </trkpt>
      <trkpt lat="47.81172" lon="-3.67638">
        <ele>46</ele>
        <time>2018-07-18T10:50:41Z</time>
      </trkpt>
      <trkpt lat="47.81172" lon="-3.67634">
        <ele>46</ele>
        <time>2018-07-18T10:50:42Z</time>
      </trkpt>
      <trkpt lat="47.81173" lon="-3.67628">
        <ele>46</ele>
        <time>2018-07-18T10:50:43Z</time>
      </trkpt>
      <trkpt lat="47.81174" lon="-3.67623">
        <ele>46</ele>
        <time>2018-07-18T10:50:44Z</time>
      </trkpt>
      <trkpt lat="47.81174" lon="-3.67617">
        <ele>46</ele>
        <time>2018-07-18T10:50:45Z</time>
      </trkpt>
      <trkpt lat="47.81176" lon="-3.67612">
        <ele>46</ele>
        <time>2018-07-18T10:50:46Z</time>
      </trkpt>
      <trkpt lat="47.81176" lon="-3.67606">
        <ele>46</ele>
        <time>2018-07-18T10:50:47Z</time>
      </trkpt>
      <trkpt lat="47.81177" lon="-3.67601">
        <ele>46</ele>
        <time>2018-07-18T10:50:48Z</time>
      </trkpt>
      <trkpt lat="47.81177" lon="-3.67595">
        <ele>46</ele>
        <time>2018-07-18T10:50:49Z</time>
      </trkpt>
      <trkpt lat="47.81178" lon="-3.6759">
        <ele>46</ele>
        <time>2018-07-18T10:50:50Z</time>
      </trkpt>
      <trkpt lat="47.81179" lon="-3.67585">
        <ele>46</ele>
        <time>2018-07-18T10:50:51Z</time>
      </trkpt>
      <trkpt lat="47.81181" lon="-3.67579">
        <ele>46</ele>
        <time>2018-07-18T10:50:52Z</time>
      </trkpt>
      <trkpt lat="47.81182" lon="-3.67573">
        <ele>46</ele>
        <time>2018-07-18T10:50:53Z</time>
      </trkpt>
      <trkpt lat="47.81184" lon="-3.67567">
        <ele>46</ele>
        <time>2018-07-18T10:50:54Z</time>
      </trkpt>
      <trkpt lat="47.81186" lon="-3.67561">
        <ele>46</ele>
        <time>2018-07-18T10:50:55Z</time>
      </trkpt>
      <trkpt lat="47.81188" lon="-3.67555">
        <ele>46</ele>
        <time>2018-07-18T10:50:56Z</time>
      </trkpt>
      <trkpt lat="47.8119" lon="-3.67548">
        <ele>46</ele>
        <time>2018-07-18T10:50:57Z</time>
      </trkpt>
      <trkpt lat="47.81192" lon="-3.67542">
        <ele>46</ele>
        <time>2018-07-18T10:50:58Z</time>
      </trkpt>
      <trkpt lat="47.81194" lon="-3.67535">
        <ele>46</ele>
        <time>2018-07-18T10:50:59Z</time>
      </trkpt>
      <trkpt lat="47.81196" lon="-3.67528">
        <ele>46</ele>
        <time>2018-07-18T10:51:00Z</time>
      </trkpt>
      <trkpt lat="47.81198" lon="-3.67522">
        <ele>46</ele>
        <time>2018-07-18T10:51:01Z</time>
      </trkpt>
      <trkpt lat="47.81201" lon="-3.67515">
        <ele>46</ele>
        <time>2018-07-18T10:51:02Z</time>
      </trkpt>
      <trkpt lat="47.81203" lon="-3.67509">
        <ele>46</ele>
        <time>2018-07-18T10:51:03Z</time>
      </trkpt>
      <trkpt lat="47.81206" lon="-3.67502">
        <ele>46</ele>
        <time>2018-07-18T10:51:04Z</time>
      </trkpt>
      <trkpt lat="47.81208" lon="-3.67495">
        <ele>46</ele>
        <time>2018-07-18T10:51:05Z</time>
      </trkpt>
      <trkpt lat="47.81209" lon="-3.67488">
        <ele>46</ele>
        <time>2018-07-18T10:51:06Z</time>
      </trkpt>
      <trkpt lat="47.81212" lon="-3.67482">
        <ele>46</ele>
        <time>2018-07-18T10:51:07Z</time>
      </trkpt>
      <trkpt lat="47.81214" lon="-3.67476">
        <ele>46</ele>
        <time>2018-07-18T10:51:08Z</time>
      </trkpt>
      <trkpt lat="47.81216" lon="-3.6747">
        <ele>46</ele>
        <time>2018-07-18T10:51:09Z</time>
      </trkpt>
      <trkpt lat="47.81218" lon="-3.67465">
        <ele>46</ele>
        <time>2018-07-18T10:51:10Z</time>
      </trkpt>
      <trkpt lat="47.8122" lon="-3.6746">
        <ele>46</ele>
        <time>2018-07-18T10:51:11Z</time>
      </trkpt>
      <trkpt lat="47.81222" lon="-3.67455">
        <ele>47</ele>
        <time>2018-07-18T10:51:12Z</time>
      </trkpt>
      <trkpt lat="47.81225" lon="-3.6745">
        <ele>47</ele>
        <time>2018-07-18T10:51:13Z</time>
      </trkpt>
      <trkpt lat="47.81227" lon="-3.67444">
        <ele>47</ele>
        <time>2018-07-18T10:51:14Z</time>
      </trkpt>
      <trkpt lat="47.81229" lon="-3.67439">
        <ele>47</ele>
        <time>2018-07-18T10:51:15Z</time>
      </trkpt>
      <trkpt lat="47.8123" lon="-3.67433">
        <ele>47</ele>
        <time>2018-07-18T10:51:16Z</time>
      </trkpt>
      <trkpt lat="47.81232" lon="-3.67428">
        <ele>47</ele>
        <time>2018-07-18T10:51:17Z</time>
      </trkpt>
      <trkpt lat="47.81235" lon="-3.67423">
        <ele>47</ele>
        <time>2018-07-18T10:51:18Z</time>
      </trkpt>
      <trkpt lat="47.81237" lon="-3.67421">
        <ele>48</ele>
        <time>2018-07-18T10:51:19Z</time>
      </trkpt>
      <trkpt lat="47.81241" lon="-3.67421">
        <ele>48</ele>
        <time>2018-07-18T10:51:20Z</time>
      </trkpt>
      <trkpt lat="47.81245" lon="-3.67423">
        <ele>47</ele>
        <time>2018-07-18T10:51:21Z</time>
      </trkpt>
      <trkpt lat="47.81249" lon="-3.67427">
        <ele>47</ele>
        <time>2018-07-18T10:51:22Z</time>
      </trkpt>
      <trkpt lat="47.81253" lon="-3.67431">
        <ele>47</ele>
        <time>2018-07-18T10:51:23Z</time>
      </trkpt>
      <trkpt lat="47.81258" lon="-3.67436">
        <ele>47</ele>
        <time>2018-07-18T10:51:24Z</time>
      </trkpt>
      <trkpt lat="47.81262" lon="-3.67441">
        <ele>46</ele>
        <time>2018-07-18T10:51:25Z</time>
      </trkpt>
      <trkpt lat="47.81266" lon="-3.67446">
        <ele>46</ele>
        <time>2018-07-18T10:51:26Z</time>
      </trkpt>
      <trkpt lat="47.81271" lon="-3.67452">
        <ele>46</ele>
        <time>2018-07-18T10:51:27Z</time>
      </trkpt>
      <trkpt lat="47.81276" lon="-3.67457">
        <ele>46</ele>
        <time>2018-07-18T10:51:28Z</time>
      </trkpt>
      <trkpt lat="47.81281" lon="-3.67463">
        <ele>45</ele>
        <time>2018-07-18T10:51:29Z</time>
      </trkpt>
      <trkpt lat="47.81286" lon="-3.67469">
        <ele>45</ele>
        <time>2018-07-18T10:51:30Z</time>
      </trkpt>
      <trkpt lat="47.81291" lon="-3.67475">
        <ele>45</ele>
        <time>2018-07-18T10:51:31Z</time>
      </trkpt>
      <trkpt lat="47.81296" lon="-3.67481">
        <ele>45</ele>
        <time>2018-07-18T10:51:32Z</time>
      </trkpt>
      <trkpt lat="47.813" lon="-3.67486">
        <ele>45</ele>
        <time>2018-07-18T10:51:33Z</time>
      </trkpt>
      <trkpt lat="47.81303" lon="-3.67492">
        <ele>45</ele>
        <time>2018-07-18T10:51:34Z</time>
      </trkpt>
      <trkpt lat="47.81307" lon="-3.67496">
        <ele>44</ele>
        <time>2018-07-18T10:51:35Z</time>
      </trkpt>
      <trkpt lat="47.81312" lon="-3.67499">
        <ele>45</ele>
        <time>2018-07-18T10:51:36Z</time>
      </trkpt>
      <trkpt lat="47.81316" lon="-3.67501">
        <ele>45</ele>
        <time>2018-07-18T10:51:37Z</time>
      </trkpt>
      <trkpt lat="47.8132" lon="-3.67502">
        <ele>45</ele>
        <time>2018-07-18T10:51:38Z</time>
      </trkpt>
      <trkpt lat="47.81325" lon="-3.67502">
        <ele>45</ele>
        <time>2018-07-18T10:51:39Z</time>
      </trkpt>
      <trkpt lat="47.8133" lon="-3.67502">
        <ele>45</ele>
        <time>2018-07-18T10:51:40Z</time>
      </trkpt>
      <trkpt lat="47.81336" lon="-3.67501">
        <ele>45</ele>
        <time>2018-07-18T10:51:41Z</time>
      </trkpt>
      <trkpt lat="47.81341" lon="-3.67499">
        <ele>45</ele>
        <time>2018-07-18T10:51:42Z</time>
      </trkpt>
      <trkpt lat="47.81346" lon="-3.67497">
        <ele>45</ele>
        <time>2018-07-18T10:51:43Z</time>
      </trkpt>
      <trkpt lat="47.81351" lon="-3.67495">
        <ele>45</ele>
        <time>2018-07-18T10:51:44Z</time>
      </trkpt>
      <trkpt lat="47.81356" lon="-3.67493">
        <ele>45</ele>
        <time>2018-07-18T10:51:45Z</time>
      </trkpt>
      <trkpt lat="47.8136" lon="-3.67492">
        <ele>45</ele>
        <time>2018-07-18T10:51:46Z</time>
      </trkpt>
      <trkpt lat="47.81364" lon="-3.67491">
        <ele>45</ele>
        <time>2018-07-18T10:51:47Z</time>
      </trkpt>
      <trkpt lat="47.81369" lon="-3.67491">
        <ele>45</ele>
        <time>2018-07-18T10:51:48Z</time>
      </trkpt>
      <trkpt lat="47.81373" lon="-3.67491">
        <ele>45</ele>
        <time>2018-07-18T10:51:49Z</time>
      </trkpt>
      <trkpt lat="47.81377" lon="-3.67491">
        <ele>45</ele>
        <time>2018-07-18T10:51:50Z</time>
      </trkpt>
      <trkpt lat="47.81381" lon="-3.67491">
        <ele>45</ele>
        <time>2018-07-18T10:51:51Z</time>
      </trkpt>
      <trkpt lat="47.81385" lon="-3.6749">
        <ele>45</ele>
        <time>2018-07-18T10:51:52Z</time>
      </trkpt>
      <trkpt lat="47.81389" lon="-3.67488">
        <ele>45</ele>
        <time>2018-07-18T10:51:53Z</time>
      </trkpt>
      <trkpt lat="47.81392" lon="-3.67485">
        <ele>46</ele>
        <time>2018-07-18T10:51:54Z</time>
      </trkpt>
      <trkpt lat="47.81395" lon="-3.6748">
        <ele>46</ele>
        <time>2018-07-18T10:51:55Z</time>
      </trkpt>
      <trkpt lat="47.81397" lon="-3.67475">
        <ele>46</ele>
        <time>2018-07-18T10:51:56Z</time>
      </trkpt>
      <trkpt lat="47.814" lon="-3.67468">
        <ele>46</ele>
        <time>2018-07-18T10:51:57Z</time>
      </trkpt>
      <trkpt lat="47.81403" lon="-3.6746">
        <ele>46</ele>
        <time>2018-07-18T10:51:58Z</time>
      </trkpt>
      <trkpt lat="47.81406" lon="-3.67452">
        <ele>46</ele>
        <time>2018-07-18T10:51:59Z</time>
      </trkpt>
      <trkpt lat="47.81409" lon="-3.67445">
        <ele>46</ele>
        <time>2018-07-18T10:52:00Z</time>
      </trkpt>
      <trkpt lat="47.81412" lon="-3.67438">
        <ele>45</ele>
        <time>2018-07-18T10:52:01Z</time>
      </trkpt>
      <trkpt lat="47.81414" lon="-3.67431">
        <ele>45</ele>
        <time>2018-07-18T10:52:02Z</time>
      </trkpt>
      <trkpt lat="47.81417" lon="-3.67424">
        <ele>45</ele>
        <time>2018-07-18T10:52:03Z</time>
      </trkpt>
      <trkpt lat="47.81419" lon="-3.67418">
        <ele>45</ele>
        <time>2018-07-18T10:52:04Z</time>
      </trkpt>
      <trkpt lat="47.81422" lon="-3.67414">
        <ele>44</ele>
        <time>2018-07-18T10:52:05Z</time>
      </trkpt>
      <trkpt lat="47.81424" lon="-3.67409">
        <ele>44</ele>
        <time>2018-07-18T10:52:06Z</time>
      </trkpt>
      <trkpt lat="47.81428" lon="-3.67404">
        <ele>44</ele>
        <time>2018-07-18T10:52:07Z</time>
      </trkpt>
      <trkpt lat="47.81431" lon="-3.67398">
        <ele>44</ele>
        <time>2018-07-18T10:52:08Z</time>
      </trkpt>
      <trkpt lat="47.81435" lon="-3.67392">
        <ele>44</ele>
        <time>2018-07-18T10:52:09Z</time>
      </trkpt>
      <trkpt lat="47.81439" lon="-3.67387">
        <ele>44</ele>
        <time>2018-07-18T10:52:10Z</time>
      </trkpt>
      <trkpt lat="47.81444" lon="-3.67382">
        <ele>44</ele>
        <time>2018-07-18T10:52:11Z</time>
      </trkpt>
      <trkpt lat="47.81449" lon="-3.67378">
        <ele>44</ele>
        <time>2018-07-18T10:52:12Z</time>
      </trkpt>
      <trkpt lat="47.81454" lon="-3.67374">
        <ele>44</ele>
        <time>2018-07-18T10:52:13Z</time>
      </trkpt>
      <trkpt lat="47.81459" lon="-3.6737">
        <ele>44</ele>
        <time>2018-07-18T10:52:14Z</time>
      </trkpt>
      <trkpt lat="47.81463" lon="-3.67367">
        <ele>44</ele>
        <time>2018-07-18T10:52:15Z</time>
      </trkpt>
      <trkpt lat="47.81467" lon="-3.67363">
        <ele>44</ele>
        <time>2018-07-18T10:52:16Z</time>
      </trkpt>
      <trkpt lat="47.8147" lon="-3.6736">
        <ele>44</ele>
        <time>2018-07-18T10:52:17Z</time>
      </trkpt>
      <trkpt lat="47.81473" lon="-3.67355">
        <ele>44</ele>
        <time>2018-07-18T10:52:18Z</time>
      </trkpt>
      <trkpt lat="47.81475" lon="-3.6735">
        <ele>44</ele>
        <time>2018-07-18T10:52:19Z</time>
      </trkpt>
      <trkpt lat="47.81479" lon="-3.67346">
        <ele>44</ele>
        <time>2018-07-18T10:52:20Z</time>
      </trkpt>
      <trkpt lat="47.81484" lon="-3.67343">
        <ele>44</ele>
        <time>2018-07-18T10:52:21Z</time>
      </trkpt>
      <trkpt lat="47.81488" lon="-3.67342">
        <ele>44</ele>
        <time>2018-07-18T10:52:22Z</time>
      </trkpt>
      <trkpt lat="47.81494" lon="-3.67342">
        <ele>44</ele>
        <time>2018-07-18T10:52:23Z</time>
      </trkpt>
      <trkpt lat="47.81499" lon="-3.67342">
        <ele>44</ele>
        <time>2018-07-18T10:52:24Z</time>
      </trkpt>
      <trkpt lat="47.81504" lon="-3.67343">
        <ele>44</ele>
        <time>2018-07-18T10:52:25Z</time>
      </trkpt>
      <trkpt lat="47.81509" lon="-3.67345">
        <ele>44</ele>
        <time>2018-07-18T10:52:26Z</time>
      </trkpt>
      <trkpt lat="47.81515" lon="-3.67346">
        <ele>44</ele>
        <time>2018-07-18T10:52:27Z</time>
      </trkpt>
      <trkpt lat="47.81521" lon="-3.67347">
        <ele>44</ele>
        <time>2018-07-18T10:52:28Z</time>
      </trkpt>
      <trkpt lat="47.81527" lon="-3.67349">
        <ele>44</ele>
        <time>2018-07-18T10:52:29Z</time>
      </trkpt>
      <trkpt lat="47.81533" lon="-3.6735">
        <ele>45</ele>
        <time>2018-07-18T10:52:30Z</time>
      </trkpt>
      <trkpt lat="47.81538" lon="-3.67352">
        <ele>45</ele>
        <time>2018-07-18T10:52:31Z</time>
      </trkpt>
      <trkpt lat="47.81544" lon="-3.67354">
        <ele>45</ele>
        <time>2018-07-18T10:52:32Z</time>
      </trkpt>
      <trkpt lat="47.8155" lon="-3.67355">
        <ele>45</ele>
        <time>2018-07-18T10:52:33Z</time>
      </trkpt>
      <trkpt lat="47.81556" lon="-3.67356">
        <ele>45</ele>
        <time>2018-07-18T10:52:34Z</time>
      </trkpt>
      <trkpt lat="47.81562" lon="-3.67358">
        <ele>45</ele>
        <time>2018-07-18T10:52:35Z</time>
      </trkpt>
      <trkpt lat="47.81567" lon="-3.67359">
        <ele>45</ele>
        <time>2018-07-18T10:52:36Z</time>
      </trkpt>
      <trkpt lat="47.81573" lon="-3.6736">
        <ele>45</ele>
        <time>2018-07-18T10:52:37Z</time>
      </trkpt>
      <trkpt lat="47.81579" lon="-3.67361">
        <ele>45</ele>
        <time>2018-07-18T10:52:38Z</time>
      </trkpt>
      <trkpt lat="47.81584" lon="-3.67363">
        <ele>45</ele>
        <time>2018-07-18T10:52:39Z</time>
      </trkpt>
      <trkpt lat="47.8159" lon="-3.67364">
        <ele>45</ele>
        <time>2018-07-18T10:52:40Z</time>
      </trkpt>
      <trkpt lat="47.81596" lon="-3.67365">
        <ele>45</ele>
        <time>2018-07-18T10:52:41Z</time>
      </trkpt>
      <trkpt lat="47.81601" lon="-3.67367">
        <ele>45</ele>
        <time>2018-07-18T10:52:42Z</time>
      </trkpt>
      <trkpt lat="47.81606" lon="-3.67369">
        <ele>45</ele>
        <time>2018-07-18T10:52:43Z</time>
      </trkpt>
      <trkpt lat="47.81612" lon="-3.6737">
        <ele>46</ele>
        <time>2018-07-18T10:52:44Z</time>
      </trkpt>
      <trkpt lat="47.81617" lon="-3.67371">
        <ele>46</ele>
        <time>2018-07-18T10:52:45Z</time>
      </trkpt>
      <trkpt lat="47.81622" lon="-3.67373">
        <ele>46</ele>
        <time>2018-07-18T10:52:46Z</time>
      </trkpt>
      <trkpt lat="47.81627" lon="-3.67374">
        <ele>46</ele>
        <time>2018-07-18T10:52:47Z</time>
      </trkpt>
      <trkpt lat="47.81632" lon="-3.67375">
        <ele>46</ele>
        <time>2018-07-18T10:52:48Z</time>
      </trkpt>
      <trkpt lat="47.81637" lon="-3.67376">
        <ele>46</ele>
        <time>2018-07-18T10:52:49Z</time>
      </trkpt>
      <trkpt lat="47.81642" lon="-3.67378">
        <ele>46</ele>
        <time>2018-07-18T10:52:50Z</time>
      </trkpt>
      <trkpt lat="47.81647" lon="-3.67379">
        <ele>46</ele>
        <time>2018-07-18T10:52:51Z</time>
      </trkpt>
      <trkpt lat="47.81652" lon="-3.6738">
        <ele>46</ele>
        <time>2018-07-18T10:52:52Z</time>
      </trkpt>
      <trkpt lat="47.81657" lon="-3.67381">
        <ele>46</ele>
        <time>2018-07-18T10:52:53Z</time>
      </trkpt>
      <trkpt lat="47.81662" lon="-3.67382">
        <ele>46</ele>
        <time>2018-07-18T10:52:54Z</time>
      </trkpt>
      <trkpt lat="47.81667" lon="-3.67383">
        <ele>46</ele>
        <time>2018-07-18T10:52:55Z</time>
      </trkpt>
      <trkpt lat="47.81672" lon="-3.67383">
        <ele>46</ele>
        <time>2018-07-18T10:52:56Z</time>
      </trkpt>
      <trkpt lat="47.81677" lon="-3.67383">
        <ele>47</ele>
        <time>2018-07-18T10:52:57Z</time>
      </trkpt>
      <trkpt lat="47.81682" lon="-3.67383">
        <ele>47</ele>
        <time>2018-07-18T10:52:58Z</time>
      </trkpt>
      <trkpt lat="47.81688" lon="-3.67383">
        <ele>47</ele>
        <time>2018-07-18T10:52:59Z</time>
      </trkpt>
      <trkpt lat="47.81693" lon="-3.67383">
        <ele>47</ele>
        <time>2018-07-18T10:53:00Z</time>
      </trkpt>
      <trkpt lat="47.81698" lon="-3.67384">
        <ele>47</ele>
        <time>2018-07-18T10:53:01Z</time>
      </trkpt>
      <trkpt lat="47.81704" lon="-3.67383">
        <ele>47</ele>
        <time>2018-07-18T10:53:02Z</time>
      </trkpt>
      <trkpt lat="47.81709" lon="-3.67383">
        <ele>47</ele>
        <time>2018-07-18T10:53:03Z</time>
      </trkpt>
      <trkpt lat="47.81715" lon="-3.67384">
        <ele>47</ele>
        <time>2018-07-18T10:53:04Z</time>
      </trkpt>
      <trkpt lat="47.8172" lon="-3.67384">
        <ele>48</ele>
        <time>2018-07-18T10:53:05Z</time>
      </trkpt>
      <trkpt lat="47.81725" lon="-3.67384">
        <ele>48</ele>
        <time>2018-07-18T10:53:06Z</time>
      </trkpt>
      <trkpt lat="47.81731" lon="-3.67384">
        <ele>48</ele>
        <time>2018-07-18T10:53:07Z</time>
      </trkpt>
      <trkpt lat="47.81736" lon="-3.67383">
        <ele>48</ele>
        <time>2018-07-18T10:53:08Z</time>
      </trkpt>
      <trkpt lat="47.81742" lon="-3.67383">
        <ele>48</ele>
        <time>2018-07-18T10:53:09Z</time>
      </trkpt>
      <trkpt lat="47.81747" lon="-3.67383">
        <ele>48</ele>
        <time>2018-07-18T10:53:10Z</time>
      </trkpt>
      <trkpt lat="47.81753" lon="-3.67382">
        <ele>48</ele>
        <time>2018-07-18T10:53:11Z</time>
      </trkpt>
      <trkpt lat="47.81758" lon="-3.67382">
        <ele>48</ele>
        <time>2018-07-18T10:53:12Z</time>
      </trkpt>
      <trkpt lat="47.81764" lon="-3.67382">
        <ele>48</ele>
        <time>2018-07-18T10:53:13Z</time>
      </trkpt>
      <trkpt lat="47.81769" lon="-3.67382">
        <ele>48</ele>
        <time>2018-07-18T10:53:14Z</time>
      </trkpt>
      <trkpt lat="47.81774" lon="-3.67381">
        <ele>48</ele>
        <time>2018-07-18T10:53:15Z</time>
      </trkpt>
      <trkpt lat="47.81779" lon="-3.67381">
        <ele>48</ele>
        <time>2018-07-18T10:53:16Z</time>
      </trkpt>
      <trkpt lat="47.81784" lon="-3.67381">
        <ele>48</ele>
        <time>2018-07-18T10:53:17Z</time>
      </trkpt>
      <trkpt lat="47.81789" lon="-3.67381">
        <ele>47</ele>
        <time>2018-07-18T10:53:18Z</time>
      </trkpt>
      <trkpt lat="47.81795" lon="-3.6738">
        <ele>47</ele>
        <time>2018-07-18T10:53:19Z</time>
      </trkpt>
      <trkpt lat="47.818" lon="-3.6738">
        <ele>47</ele>
        <time>2018-07-18T10:53:20Z</time>
      </trkpt>
      <trkpt lat="47.81806" lon="-3.67379">
        <ele>47</ele>
        <time>2018-07-18T10:53:21Z</time>
      </trkpt>
      <trkpt lat="47.81811" lon="-3.67378">
        <ele>47</ele>
        <time>2018-07-18T10:53:22Z</time>
      </trkpt>
      <trkpt lat="47.81817" lon="-3.67376">
        <ele>47</ele>
        <time>2018-07-18T10:53:23Z</time>
      </trkpt>
      <trkpt lat="47.81822" lon="-3.67374">
        <ele>47</ele>
        <time>2018-07-18T10:53:24Z</time>
      </trkpt>
      <trkpt lat="47.81828" lon="-3.67371">
        <ele>47</ele>
        <time>2018-07-18T10:53:25Z</time>
      </trkpt>
      <trkpt lat="47.81833" lon="-3.67369">
        <ele>47</ele>
        <time>2018-07-18T10:53:26Z</time>
      </trkpt>
      <trkpt lat="47.81838" lon="-3.67366">
        <ele>47</ele>
        <time>2018-07-18T10:53:27Z</time>
      </trkpt>
      <trkpt lat="47.81843" lon="-3.67362">
        <ele>47</ele>
        <time>2018-07-18T10:53:28Z</time>
      </trkpt>
      <trkpt lat="47.81848" lon="-3.67359">
        <ele>47</ele>
        <time>2018-07-18T10:53:29Z</time>
      </trkpt>
      <trkpt lat="47.81853" lon="-3.67355">
        <ele>47</ele>
        <time>2018-07-18T10:53:30Z</time>
      </trkpt>
      <trkpt lat="47.81858" lon="-3.67351">
        <ele>47</ele>
        <time>2018-07-18T10:53:31Z</time>
      </trkpt>
      <trkpt lat="47.81863" lon="-3.67348">
        <ele>47</ele>
        <time>2018-07-18T10:53:32Z</time>
      </trkpt>
      <trkpt lat="47.81869" lon="-3.67347">
        <ele>46</ele>
        <time>2018-07-18T10:53:33Z</time>
      </trkpt>
      <trkpt lat="47.81875" lon="-3.67348">
        <ele>46</ele>
        <time>2018-07-18T10:53:34Z</time>
      </trkpt>
      <trkpt lat="47.8188" lon="-3.67349">
        <ele>46</ele>
        <time>2018-07-18T10:53:35Z</time>
      </trkpt>
      <trkpt lat="47.81885" lon="-3.67352">
        <ele>46</ele>
        <time>2018-07-18T10:53:36Z</time>
      </trkpt>
      <trkpt lat="47.8189" lon="-3.67356">
        <ele>46</ele>
        <time>2018-07-18T10:53:37Z</time>
      </trkpt>
      <trkpt lat="47.81894" lon="-3.67359">
        <ele>46</ele>
        <time>2018-07-18T10:53:38Z</time>
      </trkpt>
      <trkpt lat="47.81899" lon="-3.67362">
        <ele>46</ele>
        <time>2018-07-18T10:53:39Z</time>
      </trkpt>
      <trkpt lat="47.81903" lon="-3.67366">
        <ele>46</ele>
        <time>2018-07-18T10:53:40Z</time>
      </trkpt>
      <trkpt lat="47.81908" lon="-3.67369">
        <ele>46</ele>
        <time>2018-07-18T10:53:41Z</time>
      </trkpt>
      <trkpt lat="47.81912" lon="-3.67373">
        <ele>46</ele>
        <time>2018-07-18T10:53:42Z</time>
      </trkpt>
      <trkpt lat="47.81918" lon="-3.67376">
        <ele>46</ele>
        <time>2018-07-18T10:53:43Z</time>
      </trkpt>
      <trkpt lat="47.81923" lon="-3.67381">
        <ele>45</ele>
        <time>2018-07-18T10:53:44Z</time>
      </trkpt>
      <trkpt lat="47.81928" lon="-3.67384">
        <ele>45</ele>
        <time>2018-07-18T10:53:45Z</time>
      </trkpt>
      <trkpt lat="47.81934" lon="-3.67388">
        <ele>45</ele>
        <time>2018-07-18T10:53:46Z</time>
      </trkpt>
      <trkpt lat="47.8194" lon="-3.67392">
        <ele>45</ele>
        <time>2018-07-18T10:53:47Z</time>
      </trkpt>
      <trkpt lat="47.81946" lon="-3.67397">
        <ele>45</ele>
        <time>2018-07-18T10:53:48Z</time>
      </trkpt>
      <trkpt lat="47.81952" lon="-3.674">
        <ele>44</ele>
        <time>2018-07-18T10:53:49Z</time>
      </trkpt>
      <trkpt lat="47.81958" lon="-3.67404">
        <ele>44</ele>
        <time>2018-07-18T10:53:50Z</time>
      </trkpt>
      <trkpt lat="47.81964" lon="-3.67408">
        <ele>44</ele>
        <time>2018-07-18T10:53:51Z</time>
      </trkpt>
      <trkpt lat="47.8197" lon="-3.67412">
        <ele>44</ele>
        <time>2018-07-18T10:53:52Z</time>
      </trkpt>
      <trkpt lat="47.81977" lon="-3.67417">
        <ele>44</ele>
        <time>2018-07-18T10:53:53Z</time>
      </trkpt>
      <trkpt lat="47.81984" lon="-3.6742">
        <ele>44</ele>
        <time>2018-07-18T10:53:54Z</time>
      </trkpt>
      <trkpt lat="47.8199" lon="-3.67426">
        <ele>44</ele>
        <time>2018-07-18T10:53:55Z</time>
      </trkpt>
      <trkpt lat="47.81996" lon="-3.6743">
        <ele>44</ele>
        <time>2018-07-18T10:53:56Z</time>
      </trkpt>
      <trkpt lat="47.82002" lon="-3.67435">
        <ele>44</ele>
        <time>2018-07-18T10:53:57Z</time>
      </trkpt>
      <trkpt lat="47.82006" lon="-3.67439">
        <ele>44</ele>
        <time>2018-07-18T10:53:58Z</time>
      </trkpt>
      <trkpt lat="47.82009" lon="-3.67441">
        <ele>44</ele>
        <time>2018-07-18T10:53:59Z</time>
      </trkpt>
      <trkpt lat="47.82012" lon="-3.67442">
        <ele>43</ele>
        <time>2018-07-18T10:54:00Z</time>
      </trkpt>
      <trkpt lat="47.82013" lon="-3.67442">
        <ele>43</ele>
        <time>2018-07-18T10:54:01Z</time>
      </trkpt>
      <trkpt lat="47.82015" lon="-3.67444">
        <ele>43</ele>
        <time>2018-07-18T10:54:02Z</time>
      </trkpt>
      <trkpt lat="47.82016" lon="-3.67446">
        <ele>43</ele>
        <time>2018-07-18T10:54:03Z</time>
      </trkpt>
      <trkpt lat="47.82016" lon="-3.67448">
        <ele>43</ele>
        <time>2018-07-18T10:54:04Z</time>
      </trkpt>
      <trkpt lat="47.82016" lon="-3.67448">
        <ele>42</ele>
        <time>2018-07-18T10:54:05Z</time>
      </trkpt>
      <trkpt lat="47.82016" lon="-3.67446">
        <ele>42</ele>
        <time>2018-07-18T10:54:06Z</time>
      </trkpt>
      <trkpt lat="47.82016" lon="-3.67443">
        <ele>42</ele>
        <time>2018-07-18T10:54:07Z</time>
      </trkpt>
      <trkpt lat="47.82017" lon="-3.67441">
        <ele>42</ele>
        <time>2018-07-18T10:54:08Z</time>
      </trkpt>
      <trkpt lat="47.82018" lon="-3.6744">
        <ele>42</ele>
        <time>2018-07-18T10:54:09Z</time>
      </trkpt>
      <trkpt lat="47.82019" lon="-3.6744">
        <ele>41</ele>
        <time>2018-07-18T10:54:10Z</time>
      </trkpt>
      <trkpt lat="47.8202" lon="-3.6744">
        <ele>41</ele>
        <time>2018-07-18T10:54:11Z</time>
      </trkpt>
      <trkpt lat="47.8202" lon="-3.6744">
        <ele>41</ele>
        <time>2018-07-18T10:54:12Z</time>
      </trkpt>
      <trkpt lat="47.82021" lon="-3.6744">
        <ele>41</ele>
        <time>2018-07-18T10:54:13Z</time>
      </trkpt>
      <trkpt lat="47.82021" lon="-3.67439">
        <ele>40</ele>
        <time>2018-07-18T10:54:14Z</time>
      </trkpt>
      <trkpt lat="47.8202" lon="-3.67439">
        <ele>40</ele>
        <time>2018-07-18T10:54:15Z</time>
      </trkpt>
      <trkpt lat="47.82018" lon="-3.67438">
        <ele>39</ele>
        <time>2018-07-18T10:54:16Z</time>
      </trkpt>
      <trkpt lat="47.82016" lon="-3.67436">
        <ele>39</ele>
        <time>2018-07-18T10:54:17Z</time>
      </trkpt>
      <trkpt lat="47.82014" lon="-3.67435">
        <ele>39</ele>
        <time>2018-07-18T10:54:18Z</time>
      </trkpt>
      <trkpt lat="47.82012" lon="-3.67433">
        <ele>39</ele>
        <time>2018-07-18T10:54:19Z</time>
      </trkpt>
      <trkpt lat="47.8201" lon="-3.67431">
        <ele>39</ele>
        <time>2018-07-18T10:54:20Z</time>
      </trkpt>
      <trkpt lat="47.82008" lon="-3.6743">
        <ele>39</ele>
        <time>2018-07-18T10:54:21Z</time>
      </trkpt>
      <trkpt lat="47.82006" lon="-3.67428">
        <ele>39</ele>
        <time>2018-07-18T10:54:22Z</time>
      </trkpt>
      <trkpt lat="47.82003" lon="-3.67426">
        <ele>39</ele>
        <time>2018-07-18T10:54:23Z</time>
      </trkpt>
      <trkpt lat="47.82001" lon="-3.67424">
        <ele>39</ele>
        <time>2018-07-18T10:54:24Z</time>
      </trkpt>
      <trkpt lat="47.81999" lon="-3.67423">
        <ele>39</ele>
        <time>2018-07-18T10:54:25Z</time>
      </trkpt>
      <trkpt lat="47.81998" lon="-3.67422">
        <ele>39</ele>
        <time>2018-07-18T10:54:26Z</time>
      </trkpt>
      <trkpt lat="47.81996" lon="-3.67421">
        <ele>40</ele>
        <time>2018-07-18T10:54:27Z</time>
      </trkpt>
      <trkpt lat="47.81993" lon="-3.6742">
        <ele>40</ele>
        <time>2018-07-18T10:54:28Z</time>
      </trkpt>
      <trkpt lat="47.81991" lon="-3.67417">
        <ele>40</ele>
        <time>2018-07-18T10:54:29Z</time>
      </trkpt>
      <trkpt lat="47.81988" lon="-3.67416">
        <ele>40</ele>
        <time>2018-07-18T10:54:30Z</time>
      </trkpt>
      <trkpt lat="47.81985" lon="-3.67413">
        <ele>40</ele>
        <time>2018-07-18T10:54:31Z</time>
      </trkpt>
      <trkpt lat="47.81982" lon="-3.6741">
        <ele>40</ele>
        <time>2018-07-18T10:54:32Z</time>
      </trkpt>
      <trkpt lat="47.81979" lon="-3.67409">
        <ele>41</ele>
        <time>2018-07-18T10:54:33Z</time>
      </trkpt>
      <trkpt lat="47.81977" lon="-3.67407">
        <ele>41</ele>
        <time>2018-07-18T10:54:34Z</time>
      </trkpt>
      <trkpt lat="47.81973" lon="-3.67406">
        <ele>41</ele>
        <time>2018-07-18T10:54:35Z</time>
      </trkpt>
      <trkpt lat="47.81971" lon="-3.67404">
        <ele>41</ele>
        <time>2018-07-18T10:54:36Z</time>
      </trkpt>
      <trkpt lat="47.81968" lon="-3.67402">
        <ele>41</ele>
        <time>2018-07-18T10:54:37Z</time>
      </trkpt>
      <trkpt lat="47.81965" lon="-3.674">
        <ele>41</ele>
        <time>2018-07-18T10:54:38Z</time>
      </trkpt>
      <trkpt lat="47.81962" lon="-3.67398">
        <ele>41</ele>
        <time>2018-07-18T10:54:39Z</time>
      </trkpt>
      <trkpt lat="47.8196" lon="-3.67396">
        <ele>41</ele>
        <time>2018-07-18T10:54:40Z</time>
      </trkpt>
      <trkpt lat="47.81957" lon="-3.67394">
        <ele>42</ele>
        <time>2018-07-18T10:54:41Z</time>
      </trkpt>
      <trkpt lat="47.81954" lon="-3.67392">
        <ele>42</ele>
        <time>2018-07-18T10:54:42Z</time>
      </trkpt>
      <trkpt lat="47.8195" lon="-3.6739">
        <ele>42</ele>
        <time>2018-07-18T10:54:43Z</time>
      </trkpt>
      <trkpt lat="47.81945" lon="-3.67387">
        <ele>42</ele>
        <time>2018-07-18T10:54:44Z</time>
      </trkpt>
      <trkpt lat="47.81941" lon="-3.67384">
        <ele>42</ele>
        <time>2018-07-18T10:54:45Z</time>
      </trkpt>
      <trkpt lat="47.81938" lon="-3.67382">
        <ele>42</ele>
        <time>2018-07-18T10:54:46Z</time>
      </trkpt>
      <trkpt lat="47.81935" lon="-3.6738">
        <ele>42</ele>
        <time>2018-07-18T10:54:47Z</time>
      </trkpt>
      <trkpt lat="47.81932" lon="-3.67377">
        <ele>42</ele>
        <time>2018-07-18T10:54:48Z</time>
      </trkpt>
      <trkpt lat="47.8193" lon="-3.67375">
        <ele>42</ele>
        <time>2018-07-18T10:54:49Z</time>
      </trkpt>
      <trkpt lat="47.81927" lon="-3.67374">
        <ele>42</ele>
        <time>2018-07-18T10:54:50Z</time>
      </trkpt>
      <trkpt lat="47.81924" lon="-3.67373">
        <ele>42</ele>
        <time>2018-07-18T10:54:51Z</time>
      </trkpt>
      <trkpt lat="47.81921" lon="-3.67371">
        <ele>42</ele>
        <time>2018-07-18T10:54:52Z</time>
      </trkpt>
      <trkpt lat="47.81917" lon="-3.67369">
        <ele>43</ele>
        <time>2018-07-18T10:54:53Z</time>
      </trkpt>
      <trkpt lat="47.81914" lon="-3.67366">
        <ele>43</ele>
        <time>2018-07-18T10:54:54Z</time>
      </trkpt>
      <trkpt lat="47.81911" lon="-3.67364">
        <ele>43</ele>
        <time>2018-07-18T10:54:55Z</time>
      </trkpt>
      <trkpt lat="47.81907" lon="-3.67361">
        <ele>43</ele>
        <time>2018-07-18T10:54:56Z</time>
      </trkpt>
      <trkpt lat="47.81904" lon="-3.67359">
        <ele>42</ele>
        <time>2018-07-18T10:54:57Z</time>
      </trkpt>
      <trkpt lat="47.819" lon="-3.67357">
        <ele>42</ele>
        <time>2018-07-18T10:54:58Z</time>
      </trkpt>
      <trkpt lat="47.81895" lon="-3.67355">
        <ele>42</ele>
        <time>2018-07-18T10:54:59Z</time>
      </trkpt>
      <trkpt lat="47.81891" lon="-3.67354">
        <ele>42</ele>
        <time>2018-07-18T10:55:00Z</time>
      </trkpt>
      <trkpt lat="47.81886" lon="-3.67354">
        <ele>42</ele>
        <time>2018-07-18T10:55:01Z</time>
      </trkpt>
      <trkpt lat="47.81881" lon="-3.67355">
        <ele>42</ele>
        <time>2018-07-18T10:55:02Z</time>
      </trkpt>
      <trkpt lat="47.81876" lon="-3.67356">
        <ele>43</ele>
        <time>2018-07-18T10:55:03Z</time>
      </trkpt>
      <trkpt lat="47.81871" lon="-3.67358">
        <ele>43</ele>
        <time>2018-07-18T10:55:04Z</time>
      </trkpt>
      <trkpt lat="47.81866" lon="-3.67361">
        <ele>43</ele>
        <time>2018-07-18T10:55:05Z</time>
      </trkpt>
      <trkpt lat="47.81861" lon="-3.67363">
        <ele>43</ele>
        <time>2018-07-18T10:55:06Z</time>
      </trkpt>
      <trkpt lat="47.81856" lon="-3.67366">
        <ele>43</ele>
        <time>2018-07-18T10:55:07Z</time>
      </trkpt>
      <trkpt lat="47.81852" lon="-3.67368">
        <ele>44</ele>
        <time>2018-07-18T10:55:08Z</time>
      </trkpt>
      <trkpt lat="47.81846" lon="-3.67371">
        <ele>44</ele>
        <time>2018-07-18T10:55:09Z</time>
      </trkpt>
      <trkpt lat="47.81842" lon="-3.67372">
        <ele>44</ele>
        <time>2018-07-18T10:55:10Z</time>
      </trkpt>
      <trkpt lat="47.81836" lon="-3.67374">
        <ele>44</ele>
        <time>2018-07-18T10:55:11Z</time>
      </trkpt>
      <trkpt lat="47.81831" lon="-3.67376">
        <ele>44</ele>
        <time>2018-07-18T10:55:12Z</time>
      </trkpt>
      <trkpt lat="47.81826" lon="-3.67378">
        <ele>45</ele>
        <time>2018-07-18T10:55:13Z</time>
      </trkpt>
      <trkpt lat="47.81821" lon="-3.6738">
        <ele>45</ele>
        <time>2018-07-18T10:55:14Z</time>
      </trkpt>
      <trkpt lat="47.81815" lon="-3.67381">
        <ele>45</ele>
        <time>2018-07-18T10:55:15Z</time>
      </trkpt>
      <trkpt lat="47.8181" lon="-3.67381">
        <ele>45</ele>
        <time>2018-07-18T10:55:16Z</time>
      </trkpt>
      <trkpt lat="47.81804" lon="-3.67381">
        <ele>45</ele>
        <time>2018-07-18T10:55:17Z</time>
      </trkpt>
      <trkpt lat="47.81798" lon="-3.67382">
        <ele>45</ele>
        <time>2018-07-18T10:55:18Z</time>
      </trkpt>
      <trkpt lat="47.81792" lon="-3.67382">
        <ele>45</ele>
        <time>2018-07-18T10:55:19Z</time>
      </trkpt>
      <trkpt lat="47.81787" lon="-3.67382">
        <ele>45</ele>
        <time>2018-07-18T10:55:20Z</time>
      </trkpt>
      <trkpt lat="47.81781" lon="-3.67382">
        <ele>45</ele>
        <time>2018-07-18T10:55:21Z</time>
      </trkpt>
      <trkpt lat="47.81775" lon="-3.67382">
        <ele>46</ele>
        <time>2018-07-18T10:55:22Z</time>
      </trkpt>
      <trkpt lat="47.81769" lon="-3.67383">
        <ele>46</ele>
        <time>2018-07-18T10:55:23Z</time>
      </trkpt>
      <trkpt lat="47.81763" lon="-3.67383">
        <ele>46</ele>
        <time>2018-07-18T10:55:24Z</time>
      </trkpt>
      <trkpt lat="47.81757" lon="-3.67383">
        <ele>46</ele>
        <time>2018-07-18T10:55:25Z</time>
      </trkpt>
      <trkpt lat="47.81751" lon="-3.67384">
        <ele>46</ele>
        <time>2018-07-18T10:55:26Z</time>
      </trkpt>
      <trkpt lat="47.81744" lon="-3.67384">
        <ele>46</ele>
        <time>2018-07-18T10:55:27Z</time>
      </trkpt>
      <trkpt lat="47.81738" lon="-3.67384">
        <ele>46</ele>
        <time>2018-07-18T10:55:28Z</time>
      </trkpt>
      <trkpt lat="47.81732" lon="-3.67383">
        <ele>46</ele>
        <time>2018-07-18T10:55:29Z</time>
      </trkpt>
      <trkpt lat="47.81726" lon="-3.67383">
        <ele>47</ele>
        <time>2018-07-18T10:55:30Z</time>
      </trkpt>
      <trkpt lat="47.81719" lon="-3.67383">
        <ele>47</ele>
        <time>2018-07-18T10:55:31Z</time>
      </trkpt>
      <trkpt lat="47.81713" lon="-3.67383">
        <ele>47</ele>
        <time>2018-07-18T10:55:32Z</time>
      </trkpt>
      <trkpt lat="47.81706" lon="-3.67383">
        <ele>47</ele>
        <time>2018-07-18T10:55:33Z</time>
      </trkpt>
      <trkpt lat="47.817" lon="-3.67383">
        <ele>47</ele>
        <time>2018-07-18T10:55:34Z</time>
      </trkpt>
      <trkpt lat="47.81693" lon="-3.67383">
        <ele>47</ele>
        <time>2018-07-18T10:55:35Z</time>
      </trkpt>
      <trkpt lat="47.81687" lon="-3.67383">
        <ele>47</ele>
        <time>2018-07-18T10:55:36Z</time>
      </trkpt>
      <trkpt lat="47.8168" lon="-3.67382">
        <ele>47</ele>
        <time>2018-07-18T10:55:37Z</time>
      </trkpt>
      <trkpt lat="47.81674" lon="-3.67382">
        <ele>48</ele>
        <time>2018-07-18T10:55:38Z</time>
      </trkpt>
      <trkpt lat="47.81667" lon="-3.67381">
        <ele>48</ele>
        <time>2018-07-18T10:55:39Z</time>
      </trkpt>
      <trkpt lat="47.81661" lon="-3.6738">
        <ele>48</ele>
        <time>2018-07-18T10:55:40Z</time>
      </trkpt>
      <trkpt lat="47.81654" lon="-3.67378">
        <ele>47</ele>
        <time>2018-07-18T10:55:41Z</time>
      </trkpt>
      <trkpt lat="47.81647" lon="-3.67377">
        <ele>47</ele>
        <time>2018-07-18T10:55:42Z</time>
      </trkpt>
      <trkpt lat="47.8164" lon="-3.67375">
        <ele>47</ele>
        <time>2018-07-18T10:55:43Z</time>
      </trkpt>
      <trkpt lat="47.81633" lon="-3.67373">
        <ele>47</ele>
        <time>2018-07-18T10:55:44Z</time>
      </trkpt>
      <trkpt lat="47.81626" lon="-3.67371">
        <ele>47</ele>
        <time>2018-07-18T10:55:45Z</time>
      </trkpt>
      <trkpt lat="47.81619" lon="-3.67369">
        <ele>46</ele>
        <time>2018-07-18T10:55:46Z</time>
      </trkpt>
      <trkpt lat="47.81611" lon="-3.67367">
        <ele>46</ele>
        <time>2018-07-18T10:55:47Z</time>
      </trkpt>
      <trkpt lat="47.81604" lon="-3.67365">
        <ele>46</ele>
        <time>2018-07-18T10:55:48Z</time>
      </trkpt>
      <trkpt lat="47.81597" lon="-3.67363">
        <ele>45</ele>
        <time>2018-07-18T10:55:49Z</time>
      </trkpt>
      <trkpt lat="47.8159" lon="-3.67361">
        <ele>45</ele>
        <time>2018-07-18T10:55:50Z</time>
      </trkpt>
      <trkpt lat="47.81582" lon="-3.67359">
        <ele>45</ele>
        <time>2018-07-18T10:55:51Z</time>
      </trkpt>
      <trkpt lat="47.81575" lon="-3.67357">
        <ele>45</ele>
        <time>2018-07-18T10:55:52Z</time>
      </trkpt>
      <trkpt lat="47.81568" lon="-3.67355">
        <ele>45</ele>
        <time>2018-07-18T10:55:53Z</time>
      </trkpt>
      <trkpt lat="47.81561" lon="-3.67353">
        <ele>44</ele>
        <time>2018-07-18T10:55:54Z</time>
      </trkpt>
      <trkpt lat="47.81555" lon="-3.67351">
        <ele>44</ele>
        <time>2018-07-18T10:55:55Z</time>
      </trkpt>
      <trkpt lat="47.81548" lon="-3.67349">
        <ele>44</ele>
        <time>2018-07-18T10:55:56Z</time>
      </trkpt>
      <trkpt lat="47.81541" lon="-3.67347">
        <ele>44</ele>
        <time>2018-07-18T10:55:57Z</time>
      </trkpt>
      <trkpt lat="47.81535" lon="-3.67345">
        <ele>44</ele>
        <time>2018-07-18T10:55:58Z</time>
      </trkpt>
      <trkpt lat="47.81528" lon="-3.67342">
        <ele>44</ele>
        <time>2018-07-18T10:55:59Z</time>
      </trkpt>
      <trkpt lat="47.81521" lon="-3.6734">
        <ele>44</ele>
        <time>2018-07-18T10:56:00Z</time>
      </trkpt>
      <trkpt lat="47.81515" lon="-3.67338">
        <ele>43</ele>
        <time>2018-07-18T10:56:01Z</time>
      </trkpt>
      <trkpt lat="47.81509" lon="-3.67335">
        <ele>43</ele>
        <time>2018-07-18T10:56:02Z</time>
      </trkpt>
      <trkpt lat="47.81503" lon="-3.67332">
        <ele>43</ele>
        <time>2018-07-18T10:56:03Z</time>
      </trkpt>
      <trkpt lat="47.81497" lon="-3.6733">
        <ele>43</ele>
        <time>2018-07-18T10:56:04Z</time>
      </trkpt>
      <trkpt lat="47.81491" lon="-3.67331">
        <ele>43</ele>
        <time>2018-07-18T10:56:05Z</time>
      </trkpt>
      <trkpt lat="47.81487" lon="-3.67335">
        <ele>43</ele>
        <time>2018-07-18T10:56:06Z</time>
      </trkpt>
      <trkpt lat="47.81485" lon="-3.6734">
        <ele>43</ele>
        <time>2018-07-18T10:56:07Z</time>
      </trkpt>
      <trkpt lat="47.81485" lon="-3.67347">
        <ele>43</ele>
        <time>2018-07-18T10:56:08Z</time>
      </trkpt>
      <trkpt lat="47.81486" lon="-3.67353">
        <ele>43</ele>
        <time>2018-07-18T10:56:09Z</time>
      </trkpt>
      <trkpt lat="47.81488" lon="-3.6736">
        <ele>42</ele>
        <time>2018-07-18T10:56:10Z</time>
      </trkpt>
      <trkpt lat="47.81489" lon="-3.67368">
        <ele>42</ele>
        <time>2018-07-18T10:56:11Z</time>
      </trkpt>
      <trkpt lat="47.81491" lon="-3.67375">
        <ele>42</ele>
        <time>2018-07-18T10:56:12Z</time>
      </trkpt>
      <trkpt lat="47.81492" lon="-3.67382">
        <ele>42</ele>
        <time>2018-07-18T10:56:13Z</time>
      </trkpt>
      <trkpt lat="47.81494" lon="-3.6739">
        <ele>42</ele>
        <time>2018-07-18T10:56:14Z</time>
      </trkpt>
      <trkpt lat="47.81495" lon="-3.67398">
        <ele>42</ele>
        <time>2018-07-18T10:56:15Z</time>
      </trkpt>
      <trkpt lat="47.81497" lon="-3.67406">
        <ele>42</ele>
        <time>2018-07-18T10:56:16Z</time>
      </trkpt>
      <trkpt lat="47.81498" lon="-3.67414">
        <ele>42</ele>
        <time>2018-07-18T10:56:17Z</time>
      </trkpt>
      <trkpt lat="47.815" lon="-3.67423">
        <ele>43</ele>
        <time>2018-07-18T10:56:18Z</time>
      </trkpt>
      <trkpt lat="47.81502" lon="-3.67431">
        <ele>43</ele>
        <time>2018-07-18T10:56:19Z</time>
      </trkpt>
      <trkpt lat="47.81504" lon="-3.6744">
        <ele>43</ele>
        <time>2018-07-18T10:56:20Z</time>
      </trkpt>
      <trkpt lat="47.81507" lon="-3.67449">
        <ele>43</ele>
        <time>2018-07-18T10:56:21Z</time>
      </trkpt>
      <trkpt lat="47.81508" lon="-3.67458">
        <ele>43</ele>
        <time>2018-07-18T10:56:22Z</time>
      </trkpt>
      <trkpt lat="47.8151" lon="-3.67467">
        <ele>43</ele>
        <time>2018-07-18T10:56:23Z</time>
      </trkpt>
      <trkpt lat="47.81512" lon="-3.67476">
        <ele>43</ele>
        <time>2018-07-18T10:56:24Z</time>
      </trkpt>
      <trkpt lat="47.81514" lon="-3.67485">
        <ele>43</ele>
        <time>2018-07-18T10:56:25Z</time>
      </trkpt>
      <trkpt lat="47.81517" lon="-3.67494">
        <ele>43</ele>
        <time>2018-07-18T10:56:26Z</time>
      </trkpt>
      <trkpt lat="47.81518" lon="-3.67503">
        <ele>43</ele>
        <time>2018-07-18T10:56:27Z</time>
      </trkpt>
      <trkpt lat="47.81521" lon="-3.67512">
        <ele>43</ele>
        <time>2018-07-18T10:56:28Z</time>
      </trkpt>
      <trkpt lat="47.81522" lon="-3.67521">
        <ele>43</ele>
        <time>2018-07-18T10:56:29Z</time>
      </trkpt>
      <trkpt lat="47.81524" lon="-3.6753">
        <ele>43</ele>
        <time>2018-07-18T10:56:30Z</time>
      </trkpt>
      <trkpt lat="47.81526" lon="-3.67539">
        <ele>43</ele>
        <time>2018-07-18T10:56:31Z</time>
      </trkpt>
      <trkpt lat="47.81528" lon="-3.67549">
        <ele>43</ele>
        <time>2018-07-18T10:56:32Z</time>
      </trkpt>
      <trkpt lat="47.8153" lon="-3.67558">
        <ele>43</ele>
        <time>2018-07-18T10:56:33Z</time>
      </trkpt>
      <trkpt lat="47.81532" lon="-3.67567">
        <ele>43</ele>
        <time>2018-07-18T10:56:34Z</time>
      </trkpt>
      <trkpt lat="47.81534" lon="-3.67575">
        <ele>44</ele>
        <time>2018-07-18T10:56:35Z</time>
      </trkpt>
      <trkpt lat="47.81536" lon="-3.67583">
        <ele>44</ele>
        <time>2018-07-18T10:56:36Z</time>
      </trkpt>
      <trkpt lat="47.81538" lon="-3.67591">
        <ele>44</ele>
        <time>2018-07-18T10:56:37Z</time>
      </trkpt>
      <trkpt lat="47.8154" lon="-3.676">
        <ele>44</ele>
        <time>2018-07-18T10:56:38Z</time>
      </trkpt>
      <trkpt lat="47.81541" lon="-3.67608">
        <ele>44</ele>
        <time>2018-07-18T10:56:39Z</time>
      </trkpt>
      <trkpt lat="47.81543" lon="-3.67616">
        <ele>44</ele>
        <time>2018-07-18T10:56:40Z</time>
      </trkpt>
      <trkpt lat="47.81545" lon="-3.67624">
        <ele>44</ele>
        <time>2018-07-18T10:56:41Z</time>
      </trkpt>
      <trkpt lat="47.81547" lon="-3.67631">
        <ele>45</ele>
        <time>2018-07-18T10:56:42Z</time>
      </trkpt>
      <trkpt lat="47.81549" lon="-3.67639">
        <ele>45</ele>
        <time>2018-07-18T10:56:43Z</time>
      </trkpt>
      <trkpt lat="47.8155" lon="-3.67647">
        <ele>45</ele>
        <time>2018-07-18T10:56:44Z</time>
      </trkpt>
      <trkpt lat="47.81552" lon="-3.67655">
        <ele>45</ele>
        <time>2018-07-18T10:56:45Z</time>
      </trkpt>
      <trkpt lat="47.81554" lon="-3.67662">
        <ele>45</ele>
        <time>2018-07-18T10:56:46Z</time>
      </trkpt>
      <trkpt lat="47.81556" lon="-3.6767">
        <ele>46</ele>
        <time>2018-07-18T10:56:47Z</time>
      </trkpt>
      <trkpt lat="47.81557" lon="-3.67677">
        <ele>46</ele>
        <time>2018-07-18T10:56:48Z</time>
      </trkpt>
      <trkpt lat="47.81559" lon="-3.67685">
        <ele>46</ele>
        <time>2018-07-18T10:56:49Z</time>
      </trkpt>
      <trkpt lat="47.8156" lon="-3.67692">
        <ele>46</ele>
        <time>2018-07-18T10:56:50Z</time>
      </trkpt>
      <trkpt lat="47.81562" lon="-3.67699">
        <ele>46</ele>
        <time>2018-07-18T10:56:51Z</time>
      </trkpt>
      <trkpt lat="47.81564" lon="-3.67706">
        <ele>46</ele>
        <time>2018-07-18T10:56:52Z</time>
      </trkpt>
      <trkpt lat="47.81565" lon="-3.67713">
        <ele>47</ele>
        <time>2018-07-18T10:56:53Z</time>
      </trkpt>
      <trkpt lat="47.81567" lon="-3.6772">
        <ele>47</ele>
        <time>2018-07-18T10:56:54Z</time>
      </trkpt>
      <trkpt lat="47.81569" lon="-3.67727">
        <ele>47</ele>
        <time>2018-07-18T10:56:55Z</time>
      </trkpt>
      <trkpt lat="47.8157" lon="-3.67733">
        <ele>47</ele>
        <time>2018-07-18T10:56:56Z</time>
      </trkpt>
      <trkpt lat="47.81571" lon="-3.6774">
        <ele>47</ele>
        <time>2018-07-18T10:56:57Z</time>
      </trkpt>
      <trkpt lat="47.81573" lon="-3.67747">
        <ele>47</ele>
        <time>2018-07-18T10:56:58Z</time>
      </trkpt>
      <trkpt lat="47.81574" lon="-3.67754">
        <ele>47</ele>
        <time>2018-07-18T10:56:59Z</time>
      </trkpt>
      <trkpt lat="47.81576" lon="-3.67761">
        <ele>47</ele>
        <time>2018-07-18T10:57:00Z</time>
      </trkpt>
      <trkpt lat="47.81578" lon="-3.67768">
        <ele>47</ele>
        <time>2018-07-18T10:57:01Z</time>
      </trkpt>
      <trkpt lat="47.81579" lon="-3.67774">
        <ele>47</ele>
        <time>2018-07-18T10:57:02Z</time>
      </trkpt>
      <trkpt lat="47.81581" lon="-3.67781">
        <ele>47</ele>
        <time>2018-07-18T10:57:03Z</time>
      </trkpt>
      <trkpt lat="47.81582" lon="-3.67788">
        <ele>47</ele>
        <time>2018-07-18T10:57:04Z</time>
      </trkpt>
      <trkpt lat="47.81583" lon="-3.67794">
        <ele>48</ele>
        <time>2018-07-18T10:57:05Z</time>
      </trkpt>
      <trkpt lat="47.81584" lon="-3.678">
        <ele>48</ele>
        <time>2018-07-18T10:57:06Z</time>
      </trkpt>
      <trkpt lat="47.81586" lon="-3.67807">
        <ele>48</ele>
        <time>2018-07-18T10:57:07Z</time>
      </trkpt>
      <trkpt lat="47.81587" lon="-3.67813">
        <ele>48</ele>
        <time>2018-07-18T10:57:08Z</time>
      </trkpt>
      <trkpt lat="47.81589" lon="-3.6782">
        <ele>48</ele>
        <time>2018-07-18T10:57:09Z</time>
      </trkpt>
      <trkpt lat="47.8159" lon="-3.67827">
        <ele>48</ele>
        <time>2018-07-18T10:57:10Z</time>
      </trkpt>
      <trkpt lat="47.81592" lon="-3.67834">
        <ele>48</ele>
        <time>2018-07-18T10:57:11Z</time>
      </trkpt>
      <trkpt lat="47.81593" lon="-3.67841">
        <ele>48</ele>
        <time>2018-07-18T10:57:12Z</time>
      </trkpt>
      <trkpt lat="47.81595" lon="-3.67848">
        <ele>48</ele>
        <time>2018-07-18T10:57:13Z</time>
      </trkpt>
      <trkpt lat="47.81596" lon="-3.67855">
        <ele>48</ele>
        <time>2018-07-18T10:57:14Z</time>
      </trkpt>
      <trkpt lat="47.81598" lon="-3.67863">
        <ele>48</ele>
        <time>2018-07-18T10:57:15Z</time>
      </trkpt>
      <trkpt lat="47.816" lon="-3.6787">
        <ele>48</ele>
        <time>2018-07-18T10:57:16Z</time>
      </trkpt>
      <trkpt lat="47.81601" lon="-3.67877">
        <ele>48</ele>
        <time>2018-07-18T10:57:17Z</time>
      </trkpt>
      <trkpt lat="47.81603" lon="-3.67885">
        <ele>48</ele>
        <time>2018-07-18T10:57:18Z</time>
      </trkpt>
      <trkpt lat="47.81604" lon="-3.67893">
        <ele>48</ele>
        <time>2018-07-18T10:57:19Z</time>
      </trkpt>
      <trkpt lat="47.81605" lon="-3.679">
        <ele>48</ele>
        <time>2018-07-18T10:57:20Z</time>
      </trkpt>
      <trkpt lat="47.81606" lon="-3.67907">
        <ele>48</ele>
        <time>2018-07-18T10:57:21Z</time>
      </trkpt>
      <trkpt lat="47.81606" lon="-3.67913">
        <ele>48</ele>
        <time>2018-07-18T10:57:22Z</time>
      </trkpt>
      <trkpt lat="47.81607" lon="-3.67919">
        <ele>48</ele>
        <time>2018-07-18T10:57:23Z</time>
      </trkpt>
      <trkpt lat="47.81608" lon="-3.67923">
        <ele>47</ele>
        <time>2018-07-18T10:57:24Z</time>
      </trkpt>
      <trkpt lat="47.81609" lon="-3.67926">
        <ele>47</ele>
        <time>2018-07-18T10:57:25Z</time>
      </trkpt>
      <trkpt lat="47.8161" lon="-3.67929">
        <ele>47</ele>
        <time>2018-07-18T10:57:26Z</time>
      </trkpt>
      <trkpt lat="47.81612" lon="-3.67932">
        <ele>47</ele>
        <time>2018-07-18T10:57:27Z</time>
      </trkpt>
      <trkpt lat="47.81613" lon="-3.67935">
        <ele>47</ele>
        <time>2018-07-18T10:57:28Z</time>
      </trkpt>
      <trkpt lat="47.81613" lon="-3.67939">
        <ele>47</ele>
        <time>2018-07-18T10:57:29Z</time>
      </trkpt>
      <trkpt lat="47.81612" lon="-3.67942">
        <ele>47</ele>
        <time>2018-07-18T10:57:30Z</time>
      </trkpt>
      <trkpt lat="47.8161" lon="-3.67945">
        <ele>47</ele>
        <time>2018-07-18T10:57:31Z</time>
      </trkpt>
      <trkpt lat="47.81608" lon="-3.67951">
        <ele>47</ele>
        <time>2018-07-18T10:57:32Z</time>
      </trkpt>
      <trkpt lat="47.81606" lon="-3.67957">
        <ele>46</ele>
        <time>2018-07-18T10:57:33Z</time>
      </trkpt>
      <trkpt lat="47.81604" lon="-3.67963">
        <ele>46</ele>
        <time>2018-07-18T10:57:34Z</time>
      </trkpt>
      <trkpt lat="47.81602" lon="-3.67969">
        <ele>46</ele>
        <time>2018-07-18T10:57:35Z</time>
      </trkpt>
      <trkpt lat="47.816" lon="-3.67974">
        <ele>46</ele>
        <time>2018-07-18T10:57:36Z</time>
      </trkpt>
      <trkpt lat="47.81598" lon="-3.6798">
        <ele>46</ele>
        <time>2018-07-18T10:57:37Z</time>
      </trkpt>
      <trkpt lat="47.81597" lon="-3.67985">
        <ele>46</ele>
        <time>2018-07-18T10:57:38Z</time>
      </trkpt>
      <trkpt lat="47.81596" lon="-3.67991">
        <ele>46</ele>
        <time>2018-07-18T10:57:39Z</time>
      </trkpt>
      <trkpt lat="47.81594" lon="-3.67998">
        <ele>46</ele>
        <time>2018-07-18T10:57:40Z</time>
      </trkpt>
      <trkpt lat="47.81594" lon="-3.68005">
        <ele>46</ele>
        <time>2018-07-18T10:57:41Z</time>
      </trkpt>
      <trkpt lat="47.81594" lon="-3.68014">
        <ele>46</ele>
        <time>2018-07-18T10:57:42Z</time>
      </trkpt>
      <trkpt lat="47.81594" lon="-3.68021">
        <ele>45</ele>
        <time>2018-07-18T10:57:43Z</time>
      </trkpt>
      <trkpt lat="47.81596" lon="-3.68028">
        <ele>45</ele>
        <time>2018-07-18T10:57:44Z</time>
      </trkpt>
      <trkpt lat="47.81596" lon="-3.68034">
        <ele>45</ele>
        <time>2018-07-18T10:57:45Z</time>
      </trkpt>
      <trkpt lat="47.81596" lon="-3.6804">
        <ele>45</ele>
        <time>2018-07-18T10:57:46Z</time>
      </trkpt>
      <trkpt lat="47.81594" lon="-3.68045">
        <ele>45</ele>
        <time>2018-07-18T10:57:47Z</time>
      </trkpt>
      <trkpt lat="47.81593" lon="-3.68051">
        <ele>45</ele>
        <time>2018-07-18T10:57:48Z</time>
      </trkpt>
      <trkpt lat="47.81592" lon="-3.68058">
        <ele>44</ele>
        <time>2018-07-18T10:57:49Z</time>
      </trkpt>
      <trkpt lat="47.81592" lon="-3.68066">
        <ele>44</ele>
        <time>2018-07-18T10:57:50Z</time>
      </trkpt>
      <trkpt lat="47.81592" lon="-3.68073">
        <ele>44</ele>
        <time>2018-07-18T10:57:51Z</time>
      </trkpt>
      <trkpt lat="47.81593" lon="-3.68081">
        <ele>44</ele>
        <time>2018-07-18T10:57:52Z</time>
      </trkpt>
      <trkpt lat="47.81593" lon="-3.68089">
        <ele>44</ele>
        <time>2018-07-18T10:57:53Z</time>
      </trkpt>
      <trkpt lat="47.81594" lon="-3.68096">
        <ele>44</ele>
        <time>2018-07-18T10:57:54Z</time>
      </trkpt>
      <trkpt lat="47.81594" lon="-3.68104">
        <ele>44</ele>
        <time>2018-07-18T10:57:55Z</time>
      </trkpt>
      <trkpt lat="47.81594" lon="-3.68111">
        <ele>43</ele>
        <time>2018-07-18T10:57:56Z</time>
      </trkpt>
      <trkpt lat="47.81595" lon="-3.68119">
        <ele>43</ele>
        <time>2018-07-18T10:57:57Z</time>
      </trkpt>
      <trkpt lat="47.81596" lon="-3.68124">
        <ele>43</ele>
        <time>2018-07-18T10:57:58Z</time>
      </trkpt>
      <trkpt lat="47.81598" lon="-3.68129">
        <ele>43</ele>
        <time>2018-07-18T10:57:59Z</time>
      </trkpt>
      <trkpt lat="47.81599" lon="-3.68135">
        <ele>43</ele>
        <time>2018-07-18T10:58:00Z</time>
      </trkpt>
      <trkpt lat="47.81602" lon="-3.6814">
        <ele>42</ele>
        <time>2018-07-18T10:58:01Z</time>
      </trkpt>
      <trkpt lat="47.81604" lon="-3.68146">
        <ele>42</ele>
        <time>2018-07-18T10:58:02Z</time>
      </trkpt>
      <trkpt lat="47.81605" lon="-3.68152">
        <ele>42</ele>
        <time>2018-07-18T10:58:03Z</time>
      </trkpt>
      <trkpt lat="47.81606" lon="-3.68158">
        <ele>42</ele>
        <time>2018-07-18T10:58:04Z</time>
      </trkpt>
      <trkpt lat="47.81608" lon="-3.68164">
        <ele>42</ele>
        <time>2018-07-18T10:58:05Z</time>
      </trkpt>
      <trkpt lat="47.8161" lon="-3.68171">
        <ele>41</ele>
        <time>2018-07-18T10:58:06Z</time>
      </trkpt>
      <trkpt lat="47.81612" lon="-3.68178">
        <ele>41</ele>
        <time>2018-07-18T10:58:07Z</time>
      </trkpt>
      <trkpt lat="47.81614" lon="-3.68186">
        <ele>41</ele>
        <time>2018-07-18T10:58:08Z</time>
      </trkpt>
      <trkpt lat="47.81615" lon="-3.68193">
        <ele>41</ele>
        <time>2018-07-18T10:58:09Z</time>
      </trkpt>
      <trkpt lat="47.81616" lon="-3.682">
        <ele>41</ele>
        <time>2018-07-18T10:58:10Z</time>
      </trkpt>
      <trkpt lat="47.81617" lon="-3.68206">
        <ele>41</ele>
        <time>2018-07-18T10:58:11Z</time>
      </trkpt>
      <trkpt lat="47.81617" lon="-3.68213">
        <ele>40</ele>
        <time>2018-07-18T10:58:12Z</time>
      </trkpt>
      <trkpt lat="47.81616" lon="-3.68219">
        <ele>40</ele>
        <time>2018-07-18T10:58:13Z</time>
      </trkpt>
      <trkpt lat="47.81615" lon="-3.68226">
        <ele>40</ele>
        <time>2018-07-18T10:58:14Z</time>
      </trkpt>
      <trkpt lat="47.81615" lon="-3.68235">
        <ele>40</ele>
        <time>2018-07-18T10:58:15Z</time>
      </trkpt>
      <trkpt lat="47.81615" lon="-3.68244">
        <ele>40</ele>
        <time>2018-07-18T10:58:16Z</time>
      </trkpt>
      <trkpt lat="47.81615" lon="-3.68251">
        <ele>40</ele>
        <time>2018-07-18T10:58:17Z</time>
      </trkpt>
      <trkpt lat="47.81616" lon="-3.68257">
        <ele>40</ele>
        <time>2018-07-18T10:58:18Z</time>
      </trkpt>
      <trkpt lat="47.81616" lon="-3.68264">
        <ele>40</ele>
        <time>2018-07-18T10:58:19Z</time>
      </trkpt>
      <trkpt lat="47.81617" lon="-3.68269">
        <ele>40</ele>
        <time>2018-07-18T10:58:20Z</time>
      </trkpt>
      <trkpt lat="47.81616" lon="-3.68273">
        <ele>40</ele>
        <time>2018-07-18T10:58:21Z</time>
      </trkpt>
      <trkpt lat="47.81617" lon="-3.68276">
        <ele>40</ele>
        <time>2018-07-18T10:58:22Z</time>
      </trkpt>
      <trkpt lat="47.81617" lon="-3.6828">
        <ele>40</ele>
        <time>2018-07-18T10:58:23Z</time>
      </trkpt>
      <trkpt lat="47.81617" lon="-3.68281">
        <ele>40</ele>
        <time>2018-07-18T10:58:24Z</time>
      </trkpt>
      <trkpt lat="47.81617" lon="-3.68283">
        <ele>40</ele>
        <time>2018-07-18T10:58:25Z</time>
      </trkpt>
      <trkpt lat="47.81617" lon="-3.68283">
        <ele>40</ele>
        <time>2018-07-18T10:58:26Z</time>
      </trkpt>
      <trkpt lat="47.81617" lon="-3.68284">
        <ele>40</ele>
        <time>2018-07-18T10:58:27Z</time>
      </trkpt>
      <trkpt lat="47.81617" lon="-3.68284">
        <ele>40</ele>
        <time>2018-07-18T10:58:28Z</time>
      </trkpt>
      <trkpt lat="47.81618" lon="-3.6829">
        <ele>40</ele>
        <time>2018-07-18T10:58:29Z</time>
      </trkpt>
      <trkpt lat="47.81618" lon="-3.6829">
        <ele>40</ele>
        <time>2018-07-18T10:58:30Z</time>
      </trkpt>
      <trkpt lat="47.81619" lon="-3.6829">
        <ele>40</ele>
        <time>2018-07-18T10:58:31Z</time>
      </trkpt>
      <trkpt lat="47.81619" lon="-3.68291">
        <ele>40</ele>
        <time>2018-07-18T10:58:32Z</time>
      </trkpt>
      <trkpt lat="47.81619" lon="-3.68291">
        <ele>40</ele>
        <time>2018-07-18T10:58:33Z</time>
      </trkpt>
      <trkpt lat="47.81619" lon="-3.68292">
        <ele>40</ele>
        <time>2018-07-18T10:58:34Z</time>
      </trkpt>
      <trkpt lat="47.81619" lon="-3.68292">
        <ele>40</ele>
        <time>2018-07-18T10:58:35Z</time>
      </trkpt>
      <trkpt lat="47.81619" lon="-3.68292">
        <ele>39</ele>
        <time>2018-07-18T10:58:36Z</time>
      </trkpt>
      <trkpt lat="47.8162" lon="-3.68295">
        <ele>39</ele>
        <time>2018-07-18T10:58:37Z</time>
      </trkpt>
      <trkpt lat="47.81622" lon="-3.68296">
        <ele>39</ele>
        <time>2018-07-18T10:58:38Z</time>
      </trkpt>
      <trkpt lat="47.81623" lon="-3.68297">
        <ele>39</ele>
        <time>2018-07-18T10:58:39Z</time>
      </trkpt>
      <trkpt lat="47.81624" lon="-3.68298">
        <ele>39</ele>
        <time>2018-07-18T10:58:40Z</time>
      </trkpt>
      <trkpt lat="47.81625" lon="-3.68299">
        <ele>39</ele>
        <time>2018-07-18T10:58:41Z</time>
      </trkpt>
      <trkpt lat="47.81627" lon="-3.683">
        <ele>39</ele>
        <time>2018-07-18T10:58:42Z</time>
      </trkpt>
      <trkpt lat="47.81629" lon="-3.68302">
        <ele>39</ele>
        <time>2018-07-18T10:58:43Z</time>
      </trkpt>
      <trkpt lat="47.81632" lon="-3.68304">
        <ele>39</ele>
        <time>2018-07-18T10:58:44Z</time>
      </trkpt>
      <trkpt lat="47.81635" lon="-3.68307">
        <ele>39</ele>
        <time>2018-07-18T10:58:45Z</time>
      </trkpt>
      <trkpt lat="47.81638" lon="-3.6831">
        <ele>39</ele>
        <time>2018-07-18T10:58:46Z</time>
      </trkpt>
      <trkpt lat="47.8164" lon="-3.68314">
        <ele>39</ele>
        <time>2018-07-18T10:58:47Z</time>
      </trkpt>
      <trkpt lat="47.81643" lon="-3.6832">
        <ele>39</ele>
        <time>2018-07-18T10:58:48Z</time>
      </trkpt>
      <trkpt lat="47.81646" lon="-3.68324">
        <ele>39</ele>
        <time>2018-07-18T10:58:49Z</time>
      </trkpt>
      <trkpt lat="47.8165" lon="-3.68327">
        <ele>39</ele>
        <time>2018-07-18T10:58:50Z</time>
      </trkpt>
      <trkpt lat="47.81654" lon="-3.68328">
        <ele>39</ele>
        <time>2018-07-18T10:58:51Z</time>
      </trkpt>
      <trkpt lat="47.81659" lon="-3.68329">
        <ele>39</ele>
        <time>2018-07-18T10:58:52Z</time>
      </trkpt>
      <trkpt lat="47.81665" lon="-3.6833">
        <ele>40</ele>
        <time>2018-07-18T10:58:53Z</time>
      </trkpt>
      <trkpt lat="47.81671" lon="-3.6833">
        <ele>40</ele>
        <time>2018-07-18T10:58:54Z</time>
      </trkpt>
      <trkpt lat="47.81677" lon="-3.68329">
        <ele>40</ele>
        <time>2018-07-18T10:58:55Z</time>
      </trkpt>
      <trkpt lat="47.81684" lon="-3.68329">
        <ele>40</ele>
        <time>2018-07-18T10:58:56Z</time>
      </trkpt>
      <trkpt lat="47.81689" lon="-3.68329">
        <ele>39</ele>
        <time>2018-07-18T10:58:57Z</time>
      </trkpt>
      <trkpt lat="47.81695" lon="-3.68332">
        <ele>39</ele>
        <time>2018-07-18T10:58:58Z</time>
      </trkpt>
      <trkpt lat="47.81699" lon="-3.68337">
        <ele>39</ele>
        <time>2018-07-18T10:58:59Z</time>
      </trkpt>
      <trkpt lat="47.81702" lon="-3.6834">
        <ele>39</ele>
        <time>2018-07-18T10:59:00Z</time>
      </trkpt>
      <trkpt lat="47.81705" lon="-3.68343">
        <ele>38</ele>
        <time>2018-07-18T10:59:01Z</time>
      </trkpt>
      <trkpt lat="47.81708" lon="-3.68347">
        <ele>38</ele>
        <time>2018-07-18T10:59:02Z</time>
      </trkpt>
      <trkpt lat="47.8171" lon="-3.6835">
        <ele>38</ele>
        <time>2018-07-18T10:59:03Z</time>
      </trkpt>
      <trkpt lat="47.81712" lon="-3.68352">
        <ele>37</ele>
        <time>2018-07-18T10:59:04Z</time>
      </trkpt>
      <trkpt lat="47.81714" lon="-3.68354">
        <ele>37</ele>
        <time>2018-07-18T10:59:05Z</time>
      </trkpt>
      <trkpt lat="47.81715" lon="-3.68355">
        <ele>37</ele>
        <time>2018-07-18T10:59:06Z</time>
      </trkpt>
      <trkpt lat="47.81717" lon="-3.68357">
        <ele>36</ele>
        <time>2018-07-18T10:59:07Z</time>
      </trkpt>
      <trkpt lat="47.81719" lon="-3.68359">
        <ele>36</ele>
        <time>2018-07-18T10:59:08Z</time>
      </trkpt>
      <trkpt lat="47.81722" lon="-3.68362">
        <ele>36</ele>
        <time>2018-07-18T10:59:09Z</time>
      </trkpt>
      <trkpt lat="47.81725" lon="-3.68365">
        <ele>36</ele>
        <time>2018-07-18T10:59:10Z</time>
      </trkpt>
      <trkpt lat="47.81728" lon="-3.68366">
        <ele>36</ele>
        <time>2018-07-18T10:59:11Z</time>
      </trkpt>
      <trkpt lat="47.8173" lon="-3.68368">
        <ele>35</ele>
        <time>2018-07-18T10:59:12Z</time>
      </trkpt>
      <trkpt lat="47.81731" lon="-3.68369">
        <ele>35</ele>
        <time>2018-07-18T10:59:13Z</time>
      </trkpt>
      <trkpt lat="47.81733" lon="-3.68371">
        <ele>35</ele>
        <time>2018-07-18T10:59:14Z</time>
      </trkpt>
      <trkpt lat="47.81735" lon="-3.68372">
        <ele>35</ele>
        <time>2018-07-18T10:59:15Z</time>
      </trkpt>
      <trkpt lat="47.81737" lon="-3.68373">
        <ele>35</ele>
        <time>2018-07-18T10:59:16Z</time>
      </trkpt>
      <trkpt lat="47.81738" lon="-3.68375">
        <ele>35</ele>
        <time>2018-07-18T10:59:17Z</time>
      </trkpt>
      <trkpt lat="47.81741" lon="-3.68377">
        <ele>35</ele>
        <time>2018-07-18T10:59:18Z</time>
      </trkpt>
      <trkpt lat="47.81743" lon="-3.68379">
        <ele>35</ele>
        <time>2018-07-18T10:59:19Z</time>
      </trkpt>
      <trkpt lat="47.81745" lon="-3.68382">
        <ele>35</ele>
        <time>2018-07-18T10:59:20Z</time>
      </trkpt>
      <trkpt lat="47.81749" lon="-3.68385">
        <ele>35</ele>
        <time>2018-07-18T10:59:21Z</time>
      </trkpt>
      <trkpt lat="47.81753" lon="-3.68388">
        <ele>35</ele>
        <time>2018-07-18T10:59:22Z</time>
      </trkpt>
      <trkpt lat="47.81757" lon="-3.68392">
        <ele>35</ele>
        <time>2018-07-18T10:59:23Z</time>
      </trkpt>
      <trkpt lat="47.81762" lon="-3.68395">
        <ele>35</ele>
        <time>2018-07-18T10:59:24Z</time>
      </trkpt>
      <trkpt lat="47.81766" lon="-3.68399">
        <ele>35</ele>
        <time>2018-07-18T10:59:25Z</time>
      </trkpt>
      <trkpt lat="47.8177" lon="-3.68402">
        <ele>35</ele>
        <time>2018-07-18T10:59:26Z</time>
      </trkpt>
      <trkpt lat="47.81773" lon="-3.68405">
        <ele>35</ele>
        <time>2018-07-18T10:59:27Z</time>
      </trkpt>
      <trkpt lat="47.81776" lon="-3.68408">
        <ele>35</ele>
        <time>2018-07-18T10:59:28Z</time>
      </trkpt>
      <trkpt lat="47.81778" lon="-3.68411">
        <ele>35</ele>
        <time>2018-07-18T10:59:29Z</time>
      </trkpt>
      <trkpt lat="47.8178" lon="-3.68414">
        <ele>35</ele>
        <time>2018-07-18T10:59:30Z</time>
      </trkpt>
      <trkpt lat="47.81782" lon="-3.68417">
        <ele>35</ele>
        <time>2018-07-18T10:59:31Z</time>
      </trkpt>
      <trkpt lat="47.81784" lon="-3.6842">
        <ele>35</ele>
        <time>2018-07-18T10:59:32Z</time>
      </trkpt>
      <trkpt lat="47.81786" lon="-3.68423">
        <ele>35</ele>
        <time>2018-07-18T10:59:33Z</time>
      </trkpt>
      <trkpt lat="47.81788" lon="-3.68427">
        <ele>35</ele>
        <time>2018-07-18T10:59:34Z</time>
      </trkpt>
      <trkpt lat="47.8179" lon="-3.68431">
        <ele>35</ele>
        <time>2018-07-18T10:59:35Z</time>
      </trkpt>
      <trkpt lat="47.81792" lon="-3.68435">
        <ele>35</ele>
        <time>2018-07-18T10:59:36Z</time>
      </trkpt>
      <trkpt lat="47.81794" lon="-3.68438">
        <ele>35</ele>
        <time>2018-07-18T10:59:37Z</time>
      </trkpt>
      <trkpt lat="47.81795" lon="-3.68442">
        <ele>35</ele>
        <time>2018-07-18T10:59:38Z</time>
      </trkpt>
      <trkpt lat="47.81796" lon="-3.68446">
        <ele>35</ele>
        <time>2018-07-18T10:59:39Z</time>
      </trkpt>
      <trkpt lat="47.81798" lon="-3.68451">
        <ele>34</ele>
        <time>2018-07-18T10:59:40Z</time>
      </trkpt>
      <trkpt lat="47.81799" lon="-3.68455">
        <ele>34</ele>
        <time>2018-07-18T10:59:41Z</time>
      </trkpt>
      <trkpt lat="47.818" lon="-3.68458">
        <ele>34</ele>
        <time>2018-07-18T10:59:42Z</time>
      </trkpt>
      <trkpt lat="47.81802" lon="-3.68461">
        <ele>34</ele>
        <time>2018-07-18T10:59:43Z</time>
      </trkpt>
      <trkpt lat="47.81805" lon="-3.68463">
        <ele>34</ele>
        <time>2018-07-18T10:59:44Z</time>
      </trkpt>
      <trkpt lat="47.81809" lon="-3.68465">
        <ele>34</ele>
        <time>2018-07-18T10:59:45Z</time>
      </trkpt>
      <trkpt lat="47.81814" lon="-3.68467">
        <ele>34</ele>
        <time>2018-07-18T10:59:46Z</time>
      </trkpt>
      <trkpt lat="47.81817" lon="-3.68468">
        <ele>34</ele>
        <time>2018-07-18T10:59:47Z</time>
      </trkpt>
      <trkpt lat="47.8182" lon="-3.68469">
        <ele>34</ele>
        <time>2018-07-18T10:59:48Z</time>
      </trkpt>
      <trkpt lat="47.81823" lon="-3.68471">
        <ele>34</ele>
        <time>2018-07-18T10:59:49Z</time>
      </trkpt>
      <trkpt lat="47.81826" lon="-3.68473">
        <ele>34</ele>
        <time>2018-07-18T10:59:50Z</time>
      </trkpt>
      <trkpt lat="47.81829" lon="-3.68475">
        <ele>33</ele>
        <time>2018-07-18T10:59:51Z</time>
      </trkpt>
      <trkpt lat="47.81832" lon="-3.68476">
        <ele>33</ele>
        <time>2018-07-18T10:59:52Z</time>
      </trkpt>
      <trkpt lat="47.81834" lon="-3.68477">
        <ele>33</ele>
        <time>2018-07-18T10:59:53Z</time>
      </trkpt>
      <trkpt lat="47.81836" lon="-3.68478">
        <ele>33</ele>
        <time>2018-07-18T10:59:54Z</time>
      </trkpt>
      <trkpt lat="47.81837" lon="-3.6848">
        <ele>32</ele>
        <time>2018-07-18T10:59:55Z</time>
      </trkpt>
      <trkpt lat="47.81839" lon="-3.68481">
        <ele>32</ele>
        <time>2018-07-18T10:59:56Z</time>
      </trkpt>
      <trkpt lat="47.81841" lon="-3.68482">
        <ele>32</ele>
        <time>2018-07-18T10:59:57Z</time>
      </trkpt>
      <trkpt lat="47.81843" lon="-3.68483">
        <ele>32</ele>
        <time>2018-07-18T10:59:58Z</time>
      </trkpt>
      <trkpt lat="47.81844" lon="-3.68484">
        <ele>31</ele>
        <time>2018-07-18T10:59:59Z</time>
      </trkpt>
      <trkpt lat="47.81845" lon="-3.68484">
        <ele>31</ele>
        <time>2018-07-18T11:00:00Z</time>
      </trkpt>
      <trkpt lat="47.81846" lon="-3.68485">
        <ele>31</ele>
        <time>2018-07-18T11:00:01Z</time>
      </trkpt>
      <trkpt lat="47.81848" lon="-3.68486">
        <ele>30</ele>
        <time>2018-07-18T11:00:02Z</time>
      </trkpt>
      <trkpt lat="47.81849" lon="-3.68487">
        <ele>30</ele>
        <time>2018-07-18T11:00:03Z</time>
      </trkpt>
      <trkpt lat="47.8185" lon="-3.68488">
        <ele>30</ele>
        <time>2018-07-18T11:00:04Z</time>
      </trkpt>
      <trkpt lat="47.8185" lon="-3.68489">
        <ele>29</ele>
        <time>2018-07-18T11:00:05Z</time>
      </trkpt>
      <trkpt lat="47.81851" lon="-3.68489">
        <ele>29</ele>
        <time>2018-07-18T11:00:06Z</time>
      </trkpt>
      <trkpt lat="47.81852" lon="-3.6849">
        <ele>27</ele>
        <time>2018-07-18T11:00:07Z</time>
      </trkpt>
      <trkpt lat="47.81852" lon="-3.68491">
        <ele>27</ele>
        <time>2018-07-18T11:00:08Z</time>
      </trkpt>
      <trkpt lat="47.81852" lon="-3.68492">
        <ele>27</ele>
        <time>2018-07-18T11:00:09Z</time>
      </trkpt>
      <trkpt lat="47.81852" lon="-3.68493">
        <ele>26</ele>
        <time>2018-07-18T11:00:10Z</time>
      </trkpt>
      <trkpt lat="47.81852" lon="-3.68494">
        <ele>26</ele>
        <time>2018-07-18T11:00:11Z</time>
      </trkpt>
      <trkpt lat="47.81852" lon="-3.68495">
        <ele>25</ele>
        <time>2018-07-18T11:00:12Z</time>
      </trkpt>
      <trkpt lat="47.81852" lon="-3.68496">
        <ele>25</ele>
        <time>2018-07-18T11:00:13Z</time>
      </trkpt>
      <trkpt lat="47.81852" lon="-3.68497">
        <ele>24</ele>
        <time>2018-07-18T11:00:14Z</time>
      </trkpt>
      <trkpt lat="47.81852" lon="-3.68497">
        <ele>24</ele>
        <time>2018-07-18T11:00:15Z</time>
      </trkpt>
      <trkpt lat="47.81852" lon="-3.68497">
        <ele>24</ele>
        <time>2018-07-18T11:00:16Z</time>
      </trkpt>
      <trkpt lat="47.81853" lon="-3.68498">
        <ele>23</ele>
        <time>2018-07-18T11:00:17Z</time>
      </trkpt>
      <trkpt lat="47.81853" lon="-3.68501">
        <ele>21</ele>
        <time>2018-07-18T11:00:18Z</time>
      </trkpt>
      <trkpt lat="47.81852" lon="-3.68502">
        <ele>21</ele>
        <time>2018-07-18T11:00:19Z</time>
      </trkpt>
      <trkpt lat="47.81852" lon="-3.68503">
        <ele>21</ele>
        <time>2018-07-18T11:00:20Z</time>
      </trkpt>
      <trkpt lat="47.8185" lon="-3.68504">
        <ele>21</ele>
        <time>2018-07-18T11:00:21Z</time>
      </trkpt>
      <trkpt lat="47.81849" lon="-3.68505">
        <ele>21</ele>
        <time>2018-07-18T11:00:22Z</time>
      </trkpt>
      <trkpt lat="47.81848" lon="-3.68506">
        <ele>21</ele>
        <time>2018-07-18T11:00:23Z</time>
      </trkpt>
      <trkpt lat="47.81848" lon="-3.68507">
        <ele>21</ele>
        <time>2018-07-18T11:00:24Z</time>
      </trkpt>
      <trkpt lat="47.81847" lon="-3.68508">
        <ele>21</ele>
        <time>2018-07-18T11:00:25Z</time>
      </trkpt>
      <trkpt lat="47.81846" lon="-3.6851">
        <ele>21</ele>
        <time>2018-07-18T11:00:26Z</time>
      </trkpt>
      <trkpt lat="47.81846" lon="-3.68511">
        <ele>22</ele>
        <time>2018-07-18T11:00:27Z</time>
      </trkpt>
      <trkpt lat="47.81846" lon="-3.68513">
        <ele>22</ele>
        <time>2018-07-18T11:00:28Z</time>
      </trkpt>
      <trkpt lat="47.81846" lon="-3.68515">
        <ele>22</ele>
        <time>2018-07-18T11:00:29Z</time>
      </trkpt>
      <trkpt lat="47.81846" lon="-3.68516">
        <ele>22</ele>
        <time>2018-07-18T11:00:30Z</time>
      </trkpt>
      <trkpt lat="47.81846" lon="-3.68518">
        <ele>22</ele>
        <time>2018-07-18T11:00:31Z</time>
      </trkpt>
      <trkpt lat="47.81847" lon="-3.6852">
        <ele>22</ele>
        <time>2018-07-18T11:00:32Z</time>
      </trkpt>
      <trkpt lat="47.81848" lon="-3.68522">
        <ele>22</ele>
        <time>2018-07-18T11:00:33Z</time>
      </trkpt>
      <trkpt lat="47.8185" lon="-3.68524">
        <ele>22</ele>
        <time>2018-07-18T11:00:34Z</time>
      </trkpt>
      <trkpt lat="47.81851" lon="-3.68528">
        <ele>22</ele>
        <time>2018-07-18T11:00:35Z</time>
      </trkpt>
      <trkpt lat="47.81854" lon="-3.68533">
        <ele>22</ele>
        <time>2018-07-18T11:00:36Z</time>
      </trkpt>
      <trkpt lat="47.81855" lon="-3.68538">
        <ele>22</ele>
        <time>2018-07-18T11:00:37Z</time>
      </trkpt>
      <trkpt lat="47.81856" lon="-3.68543">
        <ele>22</ele>
        <time>2018-07-18T11:00:38Z</time>
      </trkpt>
      <trkpt lat="47.81856" lon="-3.68547">
        <ele>21</ele>
        <time>2018-07-18T11:00:39Z</time>
      </trkpt>
      <trkpt lat="47.81856" lon="-3.6855">
        <ele>21</ele>
        <time>2018-07-18T11:00:40Z</time>
      </trkpt>
      <trkpt lat="47.81856" lon="-3.68554">
        <ele>21</ele>
        <time>2018-07-18T11:00:41Z</time>
      </trkpt>
      <trkpt lat="47.81855" lon="-3.68558">
        <ele>22</ele>
        <time>2018-07-18T11:00:42Z</time>
      </trkpt>
      <trkpt lat="47.81855" lon="-3.68562">
        <ele>22</ele>
        <time>2018-07-18T11:00:43Z</time>
      </trkpt>
      <trkpt lat="47.81856" lon="-3.68565">
        <ele>22</ele>
        <time>2018-07-18T11:00:44Z</time>
      </trkpt>
      <trkpt lat="47.81856" lon="-3.68569">
        <ele>22</ele>
        <time>2018-07-18T11:00:45Z</time>
      </trkpt>
      <trkpt lat="47.81857" lon="-3.68572">
        <ele>22</ele>
        <time>2018-07-18T11:00:46Z</time>
      </trkpt>
      <trkpt lat="47.81858" lon="-3.68576">
        <ele>22</ele>
        <time>2018-07-18T11:00:47Z</time>
      </trkpt>
      <trkpt lat="47.81859" lon="-3.68579">
        <ele>23</ele>
        <time>2018-07-18T11:00:48Z</time>
      </trkpt>
      <trkpt lat="47.81859" lon="-3.68581">
        <ele>23</ele>
        <time>2018-07-18T11:00:49Z</time>
      </trkpt>
      <trkpt lat="47.8186" lon="-3.68584">
        <ele>23</ele>
        <time>2018-07-18T11:00:50Z</time>
      </trkpt>
      <trkpt lat="47.81862" lon="-3.68586">
        <ele>23</ele>
        <time>2018-07-18T11:00:51Z</time>
      </trkpt>
      <trkpt lat="47.81863" lon="-3.68589">
        <ele>23</ele>
        <time>2018-07-18T11:00:52Z</time>
      </trkpt>
      <trkpt lat="47.81864" lon="-3.68592">
        <ele>23</ele>
        <time>2018-07-18T11:00:53Z</time>
      </trkpt>
      <trkpt lat="47.81865" lon="-3.68595">
        <ele>23</ele>
        <time>2018-07-18T11:00:54Z</time>
      </trkpt>
      <trkpt lat="47.81867" lon="-3.686">
        <ele>23</ele>
        <time>2018-07-18T11:00:55Z</time>
      </trkpt>
      <trkpt lat="47.81868" lon="-3.68604">
        <ele>23</ele>
        <time>2018-07-18T11:00:56Z</time>
      </trkpt>
      <trkpt lat="47.81869" lon="-3.68608">
        <ele>23</ele>
        <time>2018-07-18T11:00:57Z</time>
      </trkpt>
      <trkpt lat="47.81869" lon="-3.68612">
        <ele>23</ele>
        <time>2018-07-18T11:00:58Z</time>
      </trkpt>
      <trkpt lat="47.8187" lon="-3.68615">
        <ele>23</ele>
        <time>2018-07-18T11:00:59Z</time>
      </trkpt>
      <trkpt lat="47.81871" lon="-3.68618">
        <ele>23</ele>
        <time>2018-07-18T11:01:00Z</time>
      </trkpt>
      <trkpt lat="47.81871" lon="-3.68622">
        <ele>23</ele>
        <time>2018-07-18T11:01:01Z</time>
      </trkpt>
      <trkpt lat="47.81872" lon="-3.68625">
        <ele>23</ele>
        <time>2018-07-18T11:01:02Z</time>
      </trkpt>
      <trkpt lat="47.81873" lon="-3.68627">
        <ele>23</ele>
        <time>2018-07-18T11:01:03Z</time>
      </trkpt>
      <trkpt lat="47.81874" lon="-3.6863">
        <ele>23</ele>
        <time>2018-07-18T11:01:04Z</time>
      </trkpt>
      <trkpt lat="47.81874" lon="-3.68632">
        <ele>23</ele>
        <time>2018-07-18T11:01:05Z</time>
      </trkpt>
      <trkpt lat="47.81874" lon="-3.68634">
        <ele>23</ele>
        <time>2018-07-18T11:01:06Z</time>
      </trkpt>
      <trkpt lat="47.81874" lon="-3.68637">
        <ele>23</ele>
        <time>2018-07-18T11:01:07Z</time>
      </trkpt>
      <trkpt lat="47.81875" lon="-3.6864">
        <ele>23</ele>
        <time>2018-07-18T11:01:08Z</time>
      </trkpt>
      <trkpt lat="47.81875" lon="-3.68644">
        <ele>23</ele>
        <time>2018-07-18T11:01:09Z</time>
      </trkpt>
      <trkpt lat="47.81875" lon="-3.68647">
        <ele>24</ele>
        <time>2018-07-18T11:01:10Z</time>
      </trkpt>
      <trkpt lat="47.81876" lon="-3.6865">
        <ele>24</ele>
        <time>2018-07-18T11:01:11Z</time>
      </trkpt>
      <trkpt lat="47.81878" lon="-3.68652">
        <ele>24</ele>
        <time>2018-07-18T11:01:12Z</time>
      </trkpt>
      <trkpt lat="47.81879" lon="-3.68655">
        <ele>24</ele>
        <time>2018-07-18T11:01:13Z</time>
      </trkpt>
      <trkpt lat="47.81881" lon="-3.68657">
        <ele>23</ele>
        <time>2018-07-18T11:01:14Z</time>
      </trkpt>
      <trkpt lat="47.81882" lon="-3.68659">
        <ele>23</ele>
        <time>2018-07-18T11:01:15Z</time>
      </trkpt>
      <trkpt lat="47.81884" lon="-3.68661">
        <ele>23</ele>
        <time>2018-07-18T11:01:16Z</time>
      </trkpt>
      <trkpt lat="47.81885" lon="-3.68662">
        <ele>23</ele>
        <time>2018-07-18T11:01:17Z</time>
      </trkpt>
      <trkpt lat="47.81887" lon="-3.68665">
        <ele>23</ele>
        <time>2018-07-18T11:01:18Z</time>
      </trkpt>
      <trkpt lat="47.81889" lon="-3.68668">
        <ele>23</ele>
        <time>2018-07-18T11:01:19Z</time>
      </trkpt>
      <trkpt lat="47.81891" lon="-3.6867">
        <ele>23</ele>
        <time>2018-07-18T11:01:20Z</time>
      </trkpt>
      <trkpt lat="47.81893" lon="-3.68672">
        <ele>22</ele>
        <time>2018-07-18T11:01:21Z</time>
      </trkpt>
      <trkpt lat="47.81895" lon="-3.68675">
        <ele>22</ele>
        <time>2018-07-18T11:01:22Z</time>
      </trkpt>
      <trkpt lat="47.81897" lon="-3.68679">
        <ele>22</ele>
        <time>2018-07-18T11:01:23Z</time>
      </trkpt>
      <trkpt lat="47.81899" lon="-3.68683">
        <ele>21</ele>
        <time>2018-07-18T11:01:24Z</time>
      </trkpt>
      <trkpt lat="47.819" lon="-3.68687">
        <ele>21</ele>
        <time>2018-07-18T11:01:25Z</time>
      </trkpt>
      <trkpt lat="47.81901" lon="-3.68691">
        <ele>21</ele>
        <time>2018-07-18T11:01:26Z</time>
      </trkpt>
      <trkpt lat="47.81902" lon="-3.68695">
        <ele>20</ele>
        <time>2018-07-18T11:01:27Z</time>
      </trkpt>
      <trkpt lat="47.81902" lon="-3.68697">
        <ele>20</ele>
        <time>2018-07-18T11:01:28Z</time>
      </trkpt>
      <trkpt lat="47.81902" lon="-3.687">
        <ele>20</ele>
        <time>2018-07-18T11:01:29Z</time>
      </trkpt>
      <trkpt lat="47.81903" lon="-3.68703">
        <ele>19</ele>
        <time>2018-07-18T11:01:30Z</time>
      </trkpt>
      <trkpt lat="47.81904" lon="-3.68705">
        <ele>19</ele>
        <time>2018-07-18T11:01:31Z</time>
      </trkpt>
      <trkpt lat="47.81904" lon="-3.68708">
        <ele>19</ele>
        <time>2018-07-18T11:01:32Z</time>
      </trkpt>
      <trkpt lat="47.81905" lon="-3.68711">
        <ele>18</ele>
        <time>2018-07-18T11:01:33Z</time>
      </trkpt>
      <trkpt lat="47.81906" lon="-3.68714">
        <ele>18</ele>
        <time>2018-07-18T11:01:34Z</time>
      </trkpt>
      <trkpt lat="47.81908" lon="-3.68718">
        <ele>18</ele>
        <time>2018-07-18T11:01:35Z</time>
      </trkpt>
      <trkpt lat="47.81909" lon="-3.68723">
        <ele>17</ele>
        <time>2018-07-18T11:01:36Z</time>
      </trkpt>
      <trkpt lat="47.81909" lon="-3.68727">
        <ele>17</ele>
        <time>2018-07-18T11:01:37Z</time>
      </trkpt>
      <trkpt lat="47.81909" lon="-3.68732">
        <ele>17</ele>
        <time>2018-07-18T11:01:38Z</time>
      </trkpt>
      <trkpt lat="47.81908" lon="-3.68736">
        <ele>16</ele>
        <time>2018-07-18T11:01:39Z</time>
      </trkpt>
      <trkpt lat="47.81907" lon="-3.6874">
        <ele>16</ele>
        <time>2018-07-18T11:01:40Z</time>
      </trkpt>
      <trkpt lat="47.81907" lon="-3.68744">
        <ele>15</ele>
        <time>2018-07-18T11:01:41Z</time>
      </trkpt>
      <trkpt lat="47.81906" lon="-3.68747">
        <ele>15</ele>
        <time>2018-07-18T11:01:42Z</time>
      </trkpt>
      <trkpt lat="47.81905" lon="-3.68751">
        <ele>15</ele>
        <time>2018-07-18T11:01:43Z</time>
      </trkpt>
      <trkpt lat="47.81905" lon="-3.68754">
        <ele>14</ele>
        <time>2018-07-18T11:01:44Z</time>
      </trkpt>
      <trkpt lat="47.81905" lon="-3.68757">
        <ele>14</ele>
        <time>2018-07-18T11:01:45Z</time>
      </trkpt>
      <trkpt lat="47.81904" lon="-3.6876">
        <ele>14</ele>
        <time>2018-07-18T11:01:46Z</time>
      </trkpt>
      <trkpt lat="47.81902" lon="-3.68763">
        <ele>13</ele>
        <time>2018-07-18T11:01:47Z</time>
      </trkpt>
      <trkpt lat="47.81902" lon="-3.68767">
        <ele>13</ele>
        <time>2018-07-18T11:01:48Z</time>
      </trkpt>
      <trkpt lat="47.81902" lon="-3.68771">
        <ele>13</ele>
        <time>2018-07-18T11:01:49Z</time>
      </trkpt>
      <trkpt lat="47.81902" lon="-3.68775">
        <ele>13</ele>
        <time>2018-07-18T11:01:50Z</time>
      </trkpt>
      <trkpt lat="47.81903" lon="-3.68779">
        <ele>12</ele>
        <time>2018-07-18T11:01:51Z</time>
      </trkpt>
      <trkpt lat="47.81904" lon="-3.68784">
        <ele>12</ele>
        <time>2018-07-18T11:01:52Z</time>
      </trkpt>
      <trkpt lat="47.81905" lon="-3.68787">
        <ele>12</ele>
        <time>2018-07-18T11:01:53Z</time>
      </trkpt>
      <trkpt lat="47.81907" lon="-3.6879">
        <ele>12</ele>
        <time>2018-07-18T11:01:54Z</time>
      </trkpt>
      <trkpt lat="47.81909" lon="-3.68795">
        <ele>12</ele>
        <time>2018-07-18T11:01:55Z</time>
      </trkpt>
      <trkpt lat="47.8191" lon="-3.68799">
        <ele>12</ele>
        <time>2018-07-18T11:01:56Z</time>
      </trkpt>
      <trkpt lat="47.81911" lon="-3.68802">
        <ele>13</ele>
        <time>2018-07-18T11:01:57Z</time>
      </trkpt>
      <trkpt lat="47.81913" lon="-3.68805">
        <ele>13</ele>
        <time>2018-07-18T11:01:58Z</time>
      </trkpt>
      <trkpt lat="47.81915" lon="-3.68808">
        <ele>13</ele>
        <time>2018-07-18T11:01:59Z</time>
      </trkpt>
      <trkpt lat="47.81917" lon="-3.6881">
        <ele>13</ele>
        <time>2018-07-18T11:02:00Z</time>
      </trkpt>
      <trkpt lat="47.81919" lon="-3.68812">
        <ele>13</ele>
        <time>2018-07-18T11:02:01Z</time>
      </trkpt>
      <trkpt lat="47.81919" lon="-3.68816">
        <ele>13</ele>
        <time>2018-07-18T11:02:02Z</time>
      </trkpt>
      <trkpt lat="47.8192" lon="-3.68821">
        <ele>13</ele>
        <time>2018-07-18T11:02:03Z</time>
      </trkpt>
      <trkpt lat="47.8192" lon="-3.68827">
        <ele>13</ele>
        <time>2018-07-18T11:02:04Z</time>
      </trkpt>
      <trkpt lat="47.8192" lon="-3.68832">
        <ele>13</ele>
        <time>2018-07-18T11:02:05Z</time>
      </trkpt>
      <trkpt lat="47.81919" lon="-3.68835">
        <ele>13</ele>
        <time>2018-07-18T11:02:06Z</time>
      </trkpt>
      <trkpt lat="47.81919" lon="-3.68838">
        <ele>13</ele>
        <time>2018-07-18T11:02:07Z</time>
      </trkpt>
      <trkpt lat="47.81919" lon="-3.68842">
        <ele>14</ele>
        <time>2018-07-18T11:02:08Z</time>
      </trkpt>
      <trkpt lat="47.8192" lon="-3.68844">
        <ele>14</ele>
        <time>2018-07-18T11:02:09Z</time>
      </trkpt>
      <trkpt lat="47.8192" lon="-3.68848">
        <ele>14</ele>
        <time>2018-07-18T11:02:10Z</time>
      </trkpt>
      <trkpt lat="47.8192" lon="-3.68852">
        <ele>14</ele>
        <time>2018-07-18T11:02:11Z</time>
      </trkpt>
      <trkpt lat="47.8192" lon="-3.68856">
        <ele>14</ele>
        <time>2018-07-18T11:02:12Z</time>
      </trkpt>
      <trkpt lat="47.81919" lon="-3.68859">
        <ele>14</ele>
        <time>2018-07-18T11:02:13Z</time>
      </trkpt>
      <trkpt lat="47.81918" lon="-3.68861">
        <ele>14</ele>
        <time>2018-07-18T11:02:14Z</time>
      </trkpt>
      <trkpt lat="47.81918" lon="-3.68865">
        <ele>14</ele>
        <time>2018-07-18T11:02:15Z</time>
      </trkpt>
      <trkpt lat="47.81917" lon="-3.68869">
        <ele>15</ele>
        <time>2018-07-18T11:02:16Z</time>
      </trkpt>
      <trkpt lat="47.81917" lon="-3.68872">
        <ele>15</ele>
        <time>2018-07-18T11:02:17Z</time>
      </trkpt>
      <trkpt lat="47.81918" lon="-3.68876">
        <ele>15</ele>
        <time>2018-07-18T11:02:18Z</time>
      </trkpt>
      <trkpt lat="47.81918" lon="-3.6888">
        <ele>15</ele>
        <time>2018-07-18T11:02:19Z</time>
      </trkpt>
      <trkpt lat="47.81918" lon="-3.68883">
        <ele>15</ele>
        <time>2018-07-18T11:02:20Z</time>
      </trkpt>
      <trkpt lat="47.81918" lon="-3.68888">
        <ele>15</ele>
        <time>2018-07-18T11:02:21Z</time>
      </trkpt>
      <trkpt lat="47.81917" lon="-3.68894">
        <ele>15</ele>
        <time>2018-07-18T11:02:22Z</time>
      </trkpt>
      <trkpt lat="47.81916" lon="-3.68899">
        <ele>15</ele>
        <time>2018-07-18T11:02:23Z</time>
      </trkpt>
      <trkpt lat="47.81915" lon="-3.68903">
        <ele>15</ele>
        <time>2018-07-18T11:02:24Z</time>
      </trkpt>
      <trkpt lat="47.81914" lon="-3.68907">
        <ele>15</ele>
        <time>2018-07-18T11:02:25Z</time>
      </trkpt>
      <trkpt lat="47.81913" lon="-3.68911">
        <ele>15</ele>
        <time>2018-07-18T11:02:26Z</time>
      </trkpt>
      <trkpt lat="47.81912" lon="-3.68915">
        <ele>15</ele>
        <time>2018-07-18T11:02:27Z</time>
      </trkpt>
      <trkpt lat="47.81911" lon="-3.68919">
        <ele>15</ele>
        <time>2018-07-18T11:02:28Z</time>
      </trkpt>
      <trkpt lat="47.8191" lon="-3.68924">
        <ele>15</ele>
        <time>2018-07-18T11:02:29Z</time>
      </trkpt>
      <trkpt lat="47.81909" lon="-3.68929">
        <ele>15</ele>
        <time>2018-07-18T11:02:30Z</time>
      </trkpt>
      <trkpt lat="47.81908" lon="-3.68933">
        <ele>15</ele>
        <time>2018-07-18T11:02:31Z</time>
      </trkpt>
      <trkpt lat="47.81906" lon="-3.68937">
        <ele>15</ele>
        <time>2018-07-18T11:02:32Z</time>
      </trkpt>
      <trkpt lat="47.81905" lon="-3.68941">
        <ele>15</ele>
        <time>2018-07-18T11:02:33Z</time>
      </trkpt>
      <trkpt lat="47.81904" lon="-3.68945">
        <ele>15</ele>
        <time>2018-07-18T11:02:34Z</time>
      </trkpt>
      <trkpt lat="47.81902" lon="-3.68949">
        <ele>15</ele>
        <time>2018-07-18T11:02:35Z</time>
      </trkpt>
      <trkpt lat="47.81901" lon="-3.68953">
        <ele>15</ele>
        <time>2018-07-18T11:02:36Z</time>
      </trkpt>
      <trkpt lat="47.81899" lon="-3.68956">
        <ele>15</ele>
        <time>2018-07-18T11:02:37Z</time>
      </trkpt>
      <trkpt lat="47.81898" lon="-3.68959">
        <ele>15</ele>
        <time>2018-07-18T11:02:38Z</time>
      </trkpt>
      <trkpt lat="47.81897" lon="-3.68962">
        <ele>15</ele>
        <time>2018-07-18T11:02:39Z</time>
      </trkpt>
      <trkpt lat="47.81897" lon="-3.68967">
        <ele>15</ele>
        <time>2018-07-18T11:02:40Z</time>
      </trkpt>
      <trkpt lat="47.81896" lon="-3.68972">
        <ele>15</ele>
        <time>2018-07-18T11:02:41Z</time>
      </trkpt>
      <trkpt lat="47.81896" lon="-3.68977">
        <ele>15</ele>
        <time>2018-07-18T11:02:42Z</time>
      </trkpt>
      <trkpt lat="47.81895" lon="-3.68982">
        <ele>15</ele>
        <time>2018-07-18T11:02:43Z</time>
      </trkpt>
      <trkpt lat="47.81894" lon="-3.68988">
        <ele>15</ele>
        <time>2018-07-18T11:02:44Z</time>
      </trkpt>
      <trkpt lat="47.81892" lon="-3.68993">
        <ele>15</ele>
        <time>2018-07-18T11:02:45Z</time>
      </trkpt>
      <trkpt lat="47.81891" lon="-3.69">
        <ele>15</ele>
        <time>2018-07-18T11:02:46Z</time>
      </trkpt>
      <trkpt lat="47.81889" lon="-3.69006">
        <ele>16</ele>
        <time>2018-07-18T11:02:47Z</time>
      </trkpt>
      <trkpt lat="47.81887" lon="-3.69012">
        <ele>16</ele>
        <time>2018-07-18T11:02:48Z</time>
      </trkpt>
      <trkpt lat="47.81885" lon="-3.69017">
        <ele>16</ele>
        <time>2018-07-18T11:02:49Z</time>
      </trkpt>
      <trkpt lat="47.81884" lon="-3.69022">
        <ele>16</ele>
        <time>2018-07-18T11:02:50Z</time>
      </trkpt>
      <trkpt lat="47.81883" lon="-3.69025">
        <ele>16</ele>
        <time>2018-07-18T11:02:51Z</time>
      </trkpt>
      <trkpt lat="47.81882" lon="-3.69029">
        <ele>16</ele>
        <time>2018-07-18T11:02:52Z</time>
      </trkpt>
      <trkpt lat="47.81881" lon="-3.69035">
        <ele>16</ele>
        <time>2018-07-18T11:02:53Z</time>
      </trkpt>
      <trkpt lat="47.81879" lon="-3.6904">
        <ele>17</ele>
        <time>2018-07-18T11:02:54Z</time>
      </trkpt>
      <trkpt lat="47.81878" lon="-3.69045">
        <ele>17</ele>
        <time>2018-07-18T11:02:55Z</time>
      </trkpt>
      <trkpt lat="47.81878" lon="-3.6905">
        <ele>17</ele>
        <time>2018-07-18T11:02:56Z</time>
      </trkpt>
      <trkpt lat="47.81878" lon="-3.69056">
        <ele>17</ele>
        <time>2018-07-18T11:02:57Z</time>
      </trkpt>
      <trkpt lat="47.81878" lon="-3.69063">
        <ele>17</ele>
        <time>2018-07-18T11:02:58Z</time>
      </trkpt>
      <trkpt lat="47.81878" lon="-3.6907">
        <ele>17</ele>
        <time>2018-07-18T11:02:59Z</time>
      </trkpt>
      <trkpt lat="47.81878" lon="-3.69077">
        <ele>17</ele>
        <time>2018-07-18T11:03:00Z</time>
      </trkpt>
      <trkpt lat="47.81876" lon="-3.69084">
        <ele>17</ele>
        <time>2018-07-18T11:03:01Z</time>
      </trkpt>
      <trkpt lat="47.81875" lon="-3.6909">
        <ele>17</ele>
        <time>2018-07-18T11:03:02Z</time>
      </trkpt>
      <trkpt lat="47.81874" lon="-3.69094">
        <ele>17</ele>
        <time>2018-07-18T11:03:03Z</time>
      </trkpt>
      <trkpt lat="47.81873" lon="-3.69098">
        <ele>17</ele>
        <time>2018-07-18T11:03:04Z</time>
      </trkpt>
      <trkpt lat="47.81872" lon="-3.69102">
        <ele>17</ele>
        <time>2018-07-18T11:03:05Z</time>
      </trkpt>
      <trkpt lat="47.81872" lon="-3.69108">
        <ele>17</ele>
        <time>2018-07-18T11:03:06Z</time>
      </trkpt>
      <trkpt lat="47.81871" lon="-3.69115">
        <ele>16</ele>
        <time>2018-07-18T11:03:07Z</time>
      </trkpt>
      <trkpt lat="47.81869" lon="-3.69123">
        <ele>16</ele>
        <time>2018-07-18T11:03:08Z</time>
      </trkpt>
      <trkpt lat="47.81868" lon="-3.69127">
        <ele>16</ele>
        <time>2018-07-18T11:03:09Z</time>
      </trkpt>
      <trkpt lat="47.81867" lon="-3.6913">
        <ele>16</ele>
        <time>2018-07-18T11:03:10Z</time>
      </trkpt>
      <trkpt lat="47.81866" lon="-3.69133">
        <ele>16</ele>
        <time>2018-07-18T11:03:11Z</time>
      </trkpt>
      <trkpt lat="47.81864" lon="-3.69134">
        <ele>16</ele>
        <time>2018-07-18T11:03:12Z</time>
      </trkpt>
      <trkpt lat="47.81862" lon="-3.69136">
        <ele>16</ele>
        <time>2018-07-18T11:03:13Z</time>
      </trkpt>
      <trkpt lat="47.81861" lon="-3.69137">
        <ele>16</ele>
        <time>2018-07-18T11:03:14Z</time>
      </trkpt>
      <trkpt lat="47.81859" lon="-3.69139">
        <ele>16</ele>
        <time>2018-07-18T11:03:15Z</time>
      </trkpt>
      <trkpt lat="47.81858" lon="-3.69141">
        <ele>16</ele>
        <time>2018-07-18T11:03:16Z</time>
      </trkpt>
      <trkpt lat="47.81857" lon="-3.69144">
        <ele>16</ele>
        <time>2018-07-18T11:03:17Z</time>
      </trkpt>
      <trkpt lat="47.81856" lon="-3.69147">
        <ele>16</ele>
        <time>2018-07-18T11:03:18Z</time>
      </trkpt>
      <trkpt lat="47.81856" lon="-3.69151">
        <ele>16</ele>
        <time>2018-07-18T11:03:19Z</time>
      </trkpt>
      <trkpt lat="47.81855" lon="-3.69154">
        <ele>16</ele>
        <time>2018-07-18T11:03:20Z</time>
      </trkpt>
      <trkpt lat="47.81854" lon="-3.69158">
        <ele>16</ele>
        <time>2018-07-18T11:03:21Z</time>
      </trkpt>
      <trkpt lat="47.81853" lon="-3.69162">
        <ele>15</ele>
        <time>2018-07-18T11:03:22Z</time>
      </trkpt>
      <trkpt lat="47.81852" lon="-3.69165">
        <ele>15</ele>
        <time>2018-07-18T11:03:23Z</time>
      </trkpt>
      <trkpt lat="47.81852" lon="-3.69169">
        <ele>15</ele>
        <time>2018-07-18T11:03:24Z</time>
      </trkpt>
      <trkpt lat="47.81851" lon="-3.69173">
        <ele>15</ele>
        <time>2018-07-18T11:03:25Z</time>
      </trkpt>
      <trkpt lat="47.8185" lon="-3.69176">
        <ele>15</ele>
        <time>2018-07-18T11:03:26Z</time>
      </trkpt>
      <trkpt lat="47.81849" lon="-3.69179">
        <ele>15</ele>
        <time>2018-07-18T11:03:27Z</time>
      </trkpt>
      <trkpt lat="47.81848" lon="-3.69182">
        <ele>15</ele>
        <time>2018-07-18T11:03:28Z</time>
      </trkpt>
      <trkpt lat="47.81848" lon="-3.69185">
        <ele>15</ele>
        <time>2018-07-18T11:03:29Z</time>
      </trkpt>
      <trkpt lat="47.81848" lon="-3.69189">
        <ele>15</ele>
        <time>2018-07-18T11:03:30Z</time>
      </trkpt>
      <trkpt lat="47.81848" lon="-3.69193">
        <ele>15</ele>
        <time>2018-07-18T11:03:31Z</time>
      </trkpt>
      <trkpt lat="47.81848" lon="-3.69199">
        <ele>14</ele>
        <time>2018-07-18T11:03:32Z</time>
      </trkpt>
      <trkpt lat="47.81847" lon="-3.69205">
        <ele>14</ele>
        <time>2018-07-18T11:03:33Z</time>
      </trkpt>
      <trkpt lat="47.81847" lon="-3.69208">
        <ele>14</ele>
        <time>2018-07-18T11:03:34Z</time>
      </trkpt>
      <trkpt lat="47.81846" lon="-3.6921">
        <ele>14</ele>
        <time>2018-07-18T11:03:35Z</time>
      </trkpt>
      <trkpt lat="47.81846" lon="-3.69211">
        <ele>14</ele>
        <time>2018-07-18T11:03:36Z</time>
      </trkpt>
      <trkpt lat="47.81846" lon="-3.69213">
        <ele>14</ele>
        <time>2018-07-18T11:03:37Z</time>
      </trkpt>
      <trkpt lat="47.81845" lon="-3.69214">
        <ele>14</ele>
        <time>2018-07-18T11:03:38Z</time>
      </trkpt>
      <trkpt lat="47.81845" lon="-3.69216">
        <ele>14</ele>
        <time>2018-07-18T11:03:39Z</time>
      </trkpt>
      <trkpt lat="47.81845" lon="-3.69218">
        <ele>13</ele>
        <time>2018-07-18T11:03:40Z</time>
      </trkpt>
      <trkpt lat="47.81845" lon="-3.69219">
        <ele>13</ele>
        <time>2018-07-18T11:03:41Z</time>
      </trkpt>
      <trkpt lat="47.81845" lon="-3.6922">
        <ele>13</ele>
        <time>2018-07-18T11:03:42Z</time>
      </trkpt>
      <trkpt lat="47.81844" lon="-3.69222">
        <ele>13</ele>
        <time>2018-07-18T11:03:43Z</time>
      </trkpt>
      <trkpt lat="47.81844" lon="-3.69223">
        <ele>13</ele>
        <time>2018-07-18T11:03:44Z</time>
      </trkpt>
      <trkpt lat="47.81844" lon="-3.69224">
        <ele>13</ele>
        <time>2018-07-18T11:03:45Z</time>
      </trkpt>
      <trkpt lat="47.81844" lon="-3.69225">
        <ele>13</ele>
        <time>2018-07-18T11:03:46Z</time>
      </trkpt>
      <trkpt lat="47.81844" lon="-3.69226">
        <ele>12</ele>
        <time>2018-07-18T11:03:47Z</time>
      </trkpt>
      <trkpt lat="47.81843" lon="-3.69234">
        <ele>11</ele>
        <time>2018-07-18T11:03:48Z</time>
      </trkpt>
      <trkpt lat="47.81842" lon="-3.69235">
        <ele>11</ele>
        <time>2018-07-18T11:03:49Z</time>
      </trkpt>
      <trkpt lat="47.81842" lon="-3.69238">
        <ele>11</ele>
        <time>2018-07-18T11:03:50Z</time>
      </trkpt>
      <trkpt lat="47.81842" lon="-3.6924">
        <ele>11</ele>
        <time>2018-07-18T11:03:51Z</time>
      </trkpt>
      <trkpt lat="47.81842" lon="-3.69242">
        <ele>11</ele>
        <time>2018-07-18T11:03:52Z</time>
      </trkpt>
      <trkpt lat="47.81842" lon="-3.69244">
        <ele>11</ele>
        <time>2018-07-18T11:03:53Z</time>
      </trkpt>
      <trkpt lat="47.81843" lon="-3.69246">
        <ele>11</ele>
        <time>2018-07-18T11:03:54Z</time>
      </trkpt>
      <trkpt lat="47.81844" lon="-3.69248">
        <ele>11</ele>
        <time>2018-07-18T11:03:55Z</time>
      </trkpt>
      <trkpt lat="47.81846" lon="-3.69251">
        <ele>11</ele>
        <time>2018-07-18T11:03:56Z</time>
      </trkpt>
      <trkpt lat="47.81847" lon="-3.69253">
        <ele>11</ele>
        <time>2018-07-18T11:03:57Z</time>
      </trkpt>
      <trkpt lat="47.81848" lon="-3.69255">
        <ele>11</ele>
        <time>2018-07-18T11:03:58Z</time>
      </trkpt>
      <trkpt lat="47.8185" lon="-3.69258">
        <ele>11</ele>
        <time>2018-07-18T11:03:59Z</time>
      </trkpt>
      <trkpt lat="47.81851" lon="-3.69259">
        <ele>11</ele>
        <time>2018-07-18T11:04:00Z</time>
      </trkpt>
      <trkpt lat="47.81852" lon="-3.69262">
        <ele>11</ele>
        <time>2018-07-18T11:04:01Z</time>
      </trkpt>
      <trkpt lat="47.81853" lon="-3.69265">
        <ele>11</ele>
        <time>2018-07-18T11:04:02Z</time>
      </trkpt>
      <trkpt lat="47.81855" lon="-3.69267">
        <ele>11</ele>
        <time>2018-07-18T11:04:03Z</time>
      </trkpt>
      <trkpt lat="47.81858" lon="-3.69269">
        <ele>11</ele>
        <time>2018-07-18T11:04:04Z</time>
      </trkpt>
      <trkpt lat="47.8186" lon="-3.69272">
        <ele>11</ele>
        <time>2018-07-18T11:04:05Z</time>
      </trkpt>
      <trkpt lat="47.81862" lon="-3.69274">
        <ele>11</ele>
        <time>2018-07-18T11:04:06Z</time>
      </trkpt>
      <trkpt lat="47.81865" lon="-3.69275">
        <ele>11</ele>
        <time>2018-07-18T11:04:07Z</time>
      </trkpt>
      <trkpt lat="47.81868" lon="-3.69278">
        <ele>10</ele>
        <time>2018-07-18T11:04:08Z</time>
      </trkpt>
      <trkpt lat="47.8187" lon="-3.69281">
        <ele>10</ele>
        <time>2018-07-18T11:04:09Z</time>
      </trkpt>
      <trkpt lat="47.81872" lon="-3.69284">
        <ele>10</ele>
        <time>2018-07-18T11:04:10Z</time>
      </trkpt>
      <trkpt lat="47.81874" lon="-3.69287">
        <ele>10</ele>
        <time>2018-07-18T11:04:11Z</time>
      </trkpt>
      <trkpt lat="47.81875" lon="-3.6929">
        <ele>10</ele>
        <time>2018-07-18T11:04:12Z</time>
      </trkpt>
      <trkpt lat="47.81876" lon="-3.69294">
        <ele>10</ele>
        <time>2018-07-18T11:04:13Z</time>
      </trkpt>
      <trkpt lat="47.81877" lon="-3.69297">
        <ele>10</ele>
        <time>2018-07-18T11:04:14Z</time>
      </trkpt>
      <trkpt lat="47.81878" lon="-3.693">
        <ele>9</ele>
        <time>2018-07-18T11:04:15Z</time>
      </trkpt>
      <trkpt lat="47.81878" lon="-3.69303">
        <ele>9</ele>
        <time>2018-07-18T11:04:16Z</time>
      </trkpt>
      <trkpt lat="47.81879" lon="-3.69307">
        <ele>9</ele>
        <time>2018-07-18T11:04:17Z</time>
      </trkpt>
      <trkpt lat="47.81879" lon="-3.69311">
        <ele>9</ele>
        <time>2018-07-18T11:04:18Z</time>
      </trkpt>
      <trkpt lat="47.81879" lon="-3.69315">
        <ele>9</ele>
        <time>2018-07-18T11:04:19Z</time>
      </trkpt>
      <trkpt lat="47.8188" lon="-3.6932">
        <ele>9</ele>
        <time>2018-07-18T11:04:20Z</time>
      </trkpt>
      <trkpt lat="47.81881" lon="-3.69325">
        <ele>9</ele>
        <time>2018-07-18T11:04:21Z</time>
      </trkpt>
      <trkpt lat="47.81882" lon="-3.69331">
        <ele>8</ele>
        <time>2018-07-18T11:04:22Z</time>
      </trkpt>
      <trkpt lat="47.81882" lon="-3.69337">
        <ele>8</ele>
        <time>2018-07-18T11:04:23Z</time>
      </trkpt>
      <trkpt lat="47.81883" lon="-3.69341">
        <ele>8</ele>
        <time>2018-07-18T11:04:24Z</time>
      </trkpt>
      <trkpt lat="47.81883" lon="-3.69346">
        <ele>8</ele>
        <time>2018-07-18T11:04:25Z</time>
      </trkpt>
      <trkpt lat="47.81884" lon="-3.69351">
        <ele>8</ele>
        <time>2018-07-18T11:04:26Z</time>
      </trkpt>
      <trkpt lat="47.81885" lon="-3.69356">
        <ele>8</ele>
        <time>2018-07-18T11:04:27Z</time>
      </trkpt>
      <trkpt lat="47.81885" lon="-3.69361">
        <ele>8</ele>
        <time>2018-07-18T11:04:28Z</time>
      </trkpt>
      <trkpt lat="47.81885" lon="-3.69366">
        <ele>8</ele>
        <time>2018-07-18T11:04:29Z</time>
      </trkpt>
      <trkpt lat="47.81885" lon="-3.69371">
        <ele>8</ele>
        <time>2018-07-18T11:04:30Z</time>
      </trkpt>
      <trkpt lat="47.81885" lon="-3.69376">
        <ele>8</ele>
        <time>2018-07-18T11:04:31Z</time>
      </trkpt>
      <trkpt lat="47.81887" lon="-3.69382">
        <ele>8</ele>
        <time>2018-07-18T11:04:32Z</time>
      </trkpt>
      <trkpt lat="47.81888" lon="-3.69388">
        <ele>8</ele>
        <time>2018-07-18T11:04:33Z</time>
      </trkpt>
      <trkpt lat="47.81889" lon="-3.69394">
        <ele>8</ele>
        <time>2018-07-18T11:04:34Z</time>
      </trkpt>
      <trkpt lat="47.8189" lon="-3.69399">
        <ele>8</ele>
        <time>2018-07-18T11:04:35Z</time>
      </trkpt>
      <trkpt lat="47.81891" lon="-3.69403">
        <ele>8</ele>
        <time>2018-07-18T11:04:36Z</time>
      </trkpt>
      <trkpt lat="47.81892" lon="-3.69407">
        <ele>8</ele>
        <time>2018-07-18T11:04:37Z</time>
      </trkpt>
      <trkpt lat="47.81893" lon="-3.69413">
        <ele>8</ele>
        <time>2018-07-18T11:04:38Z</time>
      </trkpt>
      <trkpt lat="47.81894" lon="-3.69419">
        <ele>8</ele>
        <time>2018-07-18T11:04:39Z</time>
      </trkpt>
      <trkpt lat="47.81894" lon="-3.69425">
        <ele>8</ele>
        <time>2018-07-18T11:04:40Z</time>
      </trkpt>
      <trkpt lat="47.81895" lon="-3.69431">
        <ele>8</ele>
        <time>2018-07-18T11:04:41Z</time>
      </trkpt>
      <trkpt lat="47.81895" lon="-3.69437">
        <ele>8</ele>
        <time>2018-07-18T11:04:42Z</time>
      </trkpt>
      <trkpt lat="47.81894" lon="-3.69443">
        <ele>8</ele>
        <time>2018-07-18T11:04:43Z</time>
      </trkpt>
      <trkpt lat="47.81894" lon="-3.6945">
        <ele>8</ele>
        <time>2018-07-18T11:04:44Z</time>
      </trkpt>
      <trkpt lat="47.81894" lon="-3.69456">
        <ele>8</ele>
        <time>2018-07-18T11:04:45Z</time>
      </trkpt>
      <trkpt lat="47.81894" lon="-3.69462">
        <ele>8</ele>
        <time>2018-07-18T11:04:46Z</time>
      </trkpt>
      <trkpt lat="47.81893" lon="-3.69467">
        <ele>8</ele>
        <time>2018-07-18T11:04:47Z</time>
      </trkpt>
      <trkpt lat="47.81894" lon="-3.69473">
        <ele>8</ele>
        <time>2018-07-18T11:04:48Z</time>
      </trkpt>
      <trkpt lat="47.81894" lon="-3.6948">
        <ele>8</ele>
        <time>2018-07-18T11:04:49Z</time>
      </trkpt>
      <trkpt lat="47.81895" lon="-3.69486">
        <ele>9</ele>
        <time>2018-07-18T11:04:50Z</time>
      </trkpt>
      <trkpt lat="47.81896" lon="-3.69492">
        <ele>9</ele>
        <time>2018-07-18T11:04:51Z</time>
      </trkpt>
      <trkpt lat="47.81896" lon="-3.69497">
        <ele>9</ele>
        <time>2018-07-18T11:04:52Z</time>
      </trkpt>
      <trkpt lat="47.81896" lon="-3.69502">
        <ele>8</ele>
        <time>2018-07-18T11:04:53Z</time>
      </trkpt>
      <trkpt lat="47.81896" lon="-3.69505">
        <ele>8</ele>
        <time>2018-07-18T11:04:54Z</time>
      </trkpt>
      <trkpt lat="47.81896" lon="-3.69511">
        <ele>8</ele>
        <time>2018-07-18T11:04:55Z</time>
      </trkpt>
      <trkpt lat="47.81897" lon="-3.69517">
        <ele>8</ele>
        <time>2018-07-18T11:04:56Z</time>
      </trkpt>
      <trkpt lat="47.81898" lon="-3.69523">
        <ele>8</ele>
        <time>2018-07-18T11:04:57Z</time>
      </trkpt>
      <trkpt lat="47.81899" lon="-3.6953">
        <ele>8</ele>
        <time>2018-07-18T11:04:58Z</time>
      </trkpt>
      <trkpt lat="47.81899" lon="-3.69537">
        <ele>8</ele>
        <time>2018-07-18T11:04:59Z</time>
      </trkpt>
      <trkpt lat="47.81899" lon="-3.69544">
        <ele>7</ele>
        <time>2018-07-18T11:05:00Z</time>
      </trkpt>
      <trkpt lat="47.819" lon="-3.69551">
        <ele>7</ele>
        <time>2018-07-18T11:05:01Z</time>
      </trkpt>
      <trkpt lat="47.819" lon="-3.69558">
        <ele>7</ele>
        <time>2018-07-18T11:05:02Z</time>
      </trkpt>
      <trkpt lat="47.81899" lon="-3.69567">
        <ele>7</ele>
        <time>2018-07-18T11:05:03Z</time>
      </trkpt>
      <trkpt lat="47.81898" lon="-3.69575">
        <ele>7</ele>
        <time>2018-07-18T11:05:04Z</time>
      </trkpt>
      <trkpt lat="47.81898" lon="-3.69581">
        <ele>7</ele>
        <time>2018-07-18T11:05:05Z</time>
      </trkpt>
      <trkpt lat="47.81897" lon="-3.69586">
        <ele>7</ele>
        <time>2018-07-18T11:05:06Z</time>
      </trkpt>
      <trkpt lat="47.81896" lon="-3.69591">
        <ele>6</ele>
        <time>2018-07-18T11:05:07Z</time>
      </trkpt>
      <trkpt lat="47.81896" lon="-3.69596">
        <ele>6</ele>
        <time>2018-07-18T11:05:08Z</time>
      </trkpt>
      <trkpt lat="47.81897" lon="-3.69602">
        <ele>6</ele>
        <time>2018-07-18T11:05:09Z</time>
      </trkpt>
      <trkpt lat="47.81897" lon="-3.69608">
        <ele>6</ele>
        <time>2018-07-18T11:05:10Z</time>
      </trkpt>
      <trkpt lat="47.81898" lon="-3.69615">
        <ele>6</ele>
        <time>2018-07-18T11:05:11Z</time>
      </trkpt>
      <trkpt lat="47.81899" lon="-3.69621">
        <ele>6</ele>
        <time>2018-07-18T11:05:12Z</time>
      </trkpt>
      <trkpt lat="47.81899" lon="-3.69626">
        <ele>5</ele>
        <time>2018-07-18T11:05:13Z</time>
      </trkpt>
      <trkpt lat="47.819" lon="-3.69631">
        <ele>5</ele>
        <time>2018-07-18T11:05:14Z</time>
      </trkpt>
      <trkpt lat="47.81901" lon="-3.69634">
        <ele>5</ele>
        <time>2018-07-18T11:05:15Z</time>
      </trkpt>
      <trkpt lat="47.81901" lon="-3.69638">
        <ele>5</ele>
        <time>2018-07-18T11:05:16Z</time>
      </trkpt>
      <trkpt lat="47.819" lon="-3.69643">
        <ele>5</ele>
        <time>2018-07-18T11:05:17Z</time>
      </trkpt>
      <trkpt lat="47.81898" lon="-3.69648">
        <ele>5</ele>
        <time>2018-07-18T11:05:18Z</time>
      </trkpt>
      <trkpt lat="47.81897" lon="-3.69653">
        <ele>5</ele>
        <time>2018-07-18T11:05:19Z</time>
      </trkpt>
      <trkpt lat="47.81895" lon="-3.69658">
        <ele>5</ele>
        <time>2018-07-18T11:05:20Z</time>
      </trkpt>
      <trkpt lat="47.81894" lon="-3.69662">
        <ele>5</ele>
        <time>2018-07-18T11:05:21Z</time>
      </trkpt>
      <trkpt lat="47.81893" lon="-3.69667">
        <ele>5</ele>
        <time>2018-07-18T11:05:22Z</time>
      </trkpt>
      <trkpt lat="47.81891" lon="-3.69672">
        <ele>5</ele>
        <time>2018-07-18T11:05:23Z</time>
      </trkpt>
      <trkpt lat="47.81889" lon="-3.69677">
        <ele>5</ele>
        <time>2018-07-18T11:05:24Z</time>
      </trkpt>
      <trkpt lat="47.81888" lon="-3.69681">
        <ele>5</ele>
        <time>2018-07-18T11:05:25Z</time>
      </trkpt>
      <trkpt lat="47.81887" lon="-3.69686">
        <ele>5</ele>
        <time>2018-07-18T11:05:26Z</time>
      </trkpt>
      <trkpt lat="47.81885" lon="-3.69691">
        <ele>5</ele>
        <time>2018-07-18T11:05:27Z</time>
      </trkpt>
      <trkpt lat="47.81882" lon="-3.69696">
        <ele>5</ele>
        <time>2018-07-18T11:05:28Z</time>
      </trkpt>
      <trkpt lat="47.8188" lon="-3.697">
        <ele>4</ele>
        <time>2018-07-18T11:05:29Z</time>
      </trkpt>
      <trkpt lat="47.81877" lon="-3.69701">
        <ele>4</ele>
        <time>2018-07-18T11:05:30Z</time>
      </trkpt>
      <trkpt lat="47.81875" lon="-3.69702">
        <ele>4</ele>
        <time>2018-07-18T11:05:31Z</time>
      </trkpt>
      <trkpt lat="47.81873" lon="-3.69701">
        <ele>4</ele>
        <time>2018-07-18T11:05:32Z</time>
      </trkpt>
      <trkpt lat="47.81872" lon="-3.697">
        <ele>4</ele>
        <time>2018-07-18T11:05:33Z</time>
      </trkpt>
      <trkpt lat="47.81871" lon="-3.69699">
        <ele>4</ele>
        <time>2018-07-18T11:05:34Z</time>
      </trkpt>
      <trkpt lat="47.8187" lon="-3.69697">
        <ele>4</ele>
        <time>2018-07-18T11:05:35Z</time>
      </trkpt>
      <trkpt lat="47.81869" lon="-3.69695">
        <ele>4</ele>
        <time>2018-07-18T11:05:36Z</time>
      </trkpt>
      <trkpt lat="47.81867" lon="-3.69694">
        <ele>4</ele>
        <time>2018-07-18T11:05:37Z</time>
      </trkpt>
      <trkpt lat="47.81866" lon="-3.69692">
        <ele>4</ele>
        <time>2018-07-18T11:05:38Z</time>
      </trkpt>
      <trkpt lat="47.81864" lon="-3.69691">
        <ele>5</ele>
        <time>2018-07-18T11:05:39Z</time>
      </trkpt>
      <trkpt lat="47.81862" lon="-3.6969">
        <ele>5</ele>
        <time>2018-07-18T11:05:40Z</time>
      </trkpt>
      <trkpt lat="47.8186" lon="-3.6969">
        <ele>5</ele>
        <time>2018-07-18T11:05:41Z</time>
      </trkpt>
      <trkpt lat="47.81858" lon="-3.6969">
        <ele>5</ele>
        <time>2018-07-18T11:05:42Z</time>
      </trkpt>
      <trkpt lat="47.81856" lon="-3.69691">
        <ele>5</ele>
        <time>2018-07-18T11:05:43Z</time>
      </trkpt>
      <trkpt lat="47.81853" lon="-3.69692">
        <ele>6</ele>
        <time>2018-07-18T11:05:44Z</time>
      </trkpt>
      <trkpt lat="47.81851" lon="-3.69691">
        <ele>6</ele>
        <time>2018-07-18T11:05:45Z</time>
      </trkpt>
      <trkpt lat="47.81848" lon="-3.69691">
        <ele>6</ele>
        <time>2018-07-18T11:05:46Z</time>
      </trkpt>
      <trkpt lat="47.81846" lon="-3.69691">
        <ele>7</ele>
        <time>2018-07-18T11:05:47Z</time>
      </trkpt>
      <trkpt lat="47.81845" lon="-3.6969">
        <ele>7</ele>
        <time>2018-07-18T11:05:48Z</time>
      </trkpt>
      <trkpt lat="47.81843" lon="-3.6969">
        <ele>7</ele>
        <time>2018-07-18T11:05:49Z</time>
      </trkpt>
      <trkpt lat="47.81841" lon="-3.6969">
        <ele>7</ele>
        <time>2018-07-18T11:05:50Z</time>
      </trkpt>
      <trkpt lat="47.81838" lon="-3.69692">
        <ele>8</ele>
        <time>2018-07-18T11:05:51Z</time>
      </trkpt>
      <trkpt lat="47.81835" lon="-3.69695">
        <ele>8</ele>
        <time>2018-07-18T11:05:52Z</time>
      </trkpt>
      <trkpt lat="47.81833" lon="-3.69698">
        <ele>8</ele>
        <time>2018-07-18T11:05:53Z</time>
      </trkpt>
      <trkpt lat="47.81831" lon="-3.69701">
        <ele>8</ele>
        <time>2018-07-18T11:05:54Z</time>
      </trkpt>
      <trkpt lat="47.81829" lon="-3.69704">
        <ele>9</ele>
        <time>2018-07-18T11:05:55Z</time>
      </trkpt>
      <trkpt lat="47.81826" lon="-3.69708">
        <ele>9</ele>
        <time>2018-07-18T11:05:56Z</time>
      </trkpt>
      <trkpt lat="47.81826" lon="-3.6971">
        <ele>9</ele>
        <time>2018-07-18T11:05:57Z</time>
      </trkpt>
      <trkpt lat="47.81826" lon="-3.69714">
        <ele>10</ele>
        <time>2018-07-18T11:05:58Z</time>
      </trkpt>
      <trkpt lat="47.81825" lon="-3.69718">
        <ele>10</ele>
        <time>2018-07-18T11:05:59Z</time>
      </trkpt>
      <trkpt lat="47.81826" lon="-3.69722">
        <ele>10</ele>
        <time>2018-07-18T11:06:00Z</time>
      </trkpt>
      <trkpt lat="47.81825" lon="-3.69726">
        <ele>10</ele>
        <time>2018-07-18T11:06:01Z</time>
      </trkpt>
      <trkpt lat="47.81824" lon="-3.69731">
        <ele>11</ele>
        <time>2018-07-18T11:06:02Z</time>
      </trkpt>
      <trkpt lat="47.81822" lon="-3.69737">
        <ele>11</ele>
        <time>2018-07-18T11:06:03Z</time>
      </trkpt>
      <trkpt lat="47.81821" lon="-3.69741">
        <ele>11</ele>
        <time>2018-07-18T11:06:04Z</time>
      </trkpt>
      <trkpt lat="47.81819" lon="-3.69745">
        <ele>11</ele>
        <time>2018-07-18T11:06:05Z</time>
      </trkpt>
      <trkpt lat="47.81818" lon="-3.69749">
        <ele>11</ele>
        <time>2018-07-18T11:06:06Z</time>
      </trkpt>
      <trkpt lat="47.81817" lon="-3.69752">
        <ele>11</ele>
        <time>2018-07-18T11:06:07Z</time>
      </trkpt>
      <trkpt lat="47.81816" lon="-3.69756">
        <ele>11</ele>
        <time>2018-07-18T11:06:08Z</time>
      </trkpt>
      <trkpt lat="47.81815" lon="-3.6976">
        <ele>11</ele>
        <time>2018-07-18T11:06:09Z</time>
      </trkpt>
      <trkpt lat="47.81813" lon="-3.69764">
        <ele>11</ele>
        <time>2018-07-18T11:06:10Z</time>
      </trkpt>
      <trkpt lat="47.81811" lon="-3.69768">
        <ele>11</ele>
        <time>2018-07-18T11:06:11Z</time>
      </trkpt>
      <trkpt lat="47.81808" lon="-3.6977">
        <ele>11</ele>
        <time>2018-07-18T11:06:12Z</time>
      </trkpt>
      <trkpt lat="47.81805" lon="-3.69771">
        <ele>11</ele>
        <time>2018-07-18T11:06:13Z</time>
      </trkpt>
      <trkpt lat="47.81802" lon="-3.69773">
        <ele>11</ele>
        <time>2018-07-18T11:06:14Z</time>
      </trkpt>
      <trkpt lat="47.81799" lon="-3.69774">
        <ele>11</ele>
        <time>2018-07-18T11:06:15Z</time>
      </trkpt>
      <trkpt lat="47.81797" lon="-3.69774">
        <ele>10</ele>
        <time>2018-07-18T11:06:16Z</time>
      </trkpt>
      <trkpt lat="47.81794" lon="-3.69775">
        <ele>10</ele>
        <time>2018-07-18T11:06:17Z</time>
      </trkpt>
      <trkpt lat="47.81792" lon="-3.69776">
        <ele>10</ele>
        <time>2018-07-18T11:06:18Z</time>
      </trkpt>
      <trkpt lat="47.8179" lon="-3.69777">
        <ele>10</ele>
        <time>2018-07-18T11:06:19Z</time>
      </trkpt>
      <trkpt lat="47.81788" lon="-3.69779">
        <ele>10</ele>
        <time>2018-07-18T11:06:20Z</time>
      </trkpt>
      <trkpt lat="47.81787" lon="-3.69781">
        <ele>10</ele>
        <time>2018-07-18T11:06:21Z</time>
      </trkpt>
      <trkpt lat="47.81787" lon="-3.69784">
        <ele>10</ele>
        <time>2018-07-18T11:06:22Z</time>
      </trkpt>
      <trkpt lat="47.81786" lon="-3.69789">
        <ele>10</ele>
        <time>2018-07-18T11:06:23Z</time>
      </trkpt>
      <trkpt lat="47.81784" lon="-3.69795">
        <ele>10</ele>
        <time>2018-07-18T11:06:24Z</time>
      </trkpt>
      <trkpt lat="47.81782" lon="-3.69801">
        <ele>10</ele>
        <time>2018-07-18T11:06:25Z</time>
      </trkpt>
      <trkpt lat="47.8178" lon="-3.69806">
        <ele>10</ele>
        <time>2018-07-18T11:06:26Z</time>
      </trkpt>
      <trkpt lat="47.81779" lon="-3.6981">
        <ele>10</ele>
        <time>2018-07-18T11:06:27Z</time>
      </trkpt>
      <trkpt lat="47.81778" lon="-3.69814">
        <ele>10</ele>
        <time>2018-07-18T11:06:28Z</time>
      </trkpt>
      <trkpt lat="47.81776" lon="-3.69819">
        <ele>10</ele>
        <time>2018-07-18T11:06:29Z</time>
      </trkpt>
      <trkpt lat="47.81774" lon="-3.69823">
        <ele>10</ele>
        <time>2018-07-18T11:06:30Z</time>
      </trkpt>
      <trkpt lat="47.81771" lon="-3.69828">
        <ele>11</ele>
        <time>2018-07-18T11:06:31Z</time>
      </trkpt>
      <trkpt lat="47.81769" lon="-3.69832">
        <ele>11</ele>
        <time>2018-07-18T11:06:32Z</time>
      </trkpt>
      <trkpt lat="47.81767" lon="-3.69836">
        <ele>11</ele>
        <time>2018-07-18T11:06:33Z</time>
      </trkpt>
      <trkpt lat="47.81765" lon="-3.6984">
        <ele>11</ele>
        <time>2018-07-18T11:06:34Z</time>
      </trkpt>
      <trkpt lat="47.81764" lon="-3.69844">
        <ele>11</ele>
        <time>2018-07-18T11:06:35Z</time>
      </trkpt>
      <trkpt lat="47.81763" lon="-3.69849">
        <ele>12</ele>
        <time>2018-07-18T11:06:36Z</time>
      </trkpt>
      <trkpt lat="47.81762" lon="-3.69855">
        <ele>12</ele>
        <time>2018-07-18T11:06:37Z</time>
      </trkpt>
      <trkpt lat="47.81761" lon="-3.69861">
        <ele>12</ele>
        <time>2018-07-18T11:06:38Z</time>
      </trkpt>
      <trkpt lat="47.81759" lon="-3.69867">
        <ele>12</ele>
        <time>2018-07-18T11:06:39Z</time>
      </trkpt>
      <trkpt lat="47.81757" lon="-3.69873">
        <ele>12</ele>
        <time>2018-07-18T11:06:40Z</time>
      </trkpt>
      <trkpt lat="47.81754" lon="-3.69879">
        <ele>12</ele>
        <time>2018-07-18T11:06:41Z</time>
      </trkpt>
      <trkpt lat="47.81751" lon="-3.69885">
        <ele>12</ele>
        <time>2018-07-18T11:06:42Z</time>
      </trkpt>
      <trkpt lat="47.81749" lon="-3.69892">
        <ele>12</ele>
        <time>2018-07-18T11:06:43Z</time>
      </trkpt>
      <trkpt lat="47.81747" lon="-3.69898">
        <ele>12</ele>
        <time>2018-07-18T11:06:44Z</time>
      </trkpt>
      <trkpt lat="47.81745" lon="-3.69902">
        <ele>11</ele>
        <time>2018-07-18T11:06:45Z</time>
      </trkpt>
      <trkpt lat="47.81742" lon="-3.69907">
        <ele>11</ele>
        <time>2018-07-18T11:06:46Z</time>
      </trkpt>
      <trkpt lat="47.81741" lon="-3.69911">
        <ele>11</ele>
        <time>2018-07-18T11:06:47Z</time>
      </trkpt>
      <trkpt lat="47.81738" lon="-3.69915">
        <ele>11</ele>
        <time>2018-07-18T11:06:48Z</time>
      </trkpt>
      <trkpt lat="47.81736" lon="-3.69919">
        <ele>11</ele>
        <time>2018-07-18T11:06:49Z</time>
      </trkpt>
      <trkpt lat="47.81734" lon="-3.69924">
        <ele>11</ele>
        <time>2018-07-18T11:06:50Z</time>
      </trkpt>
      <trkpt lat="47.81733" lon="-3.69929">
        <ele>11</ele>
        <time>2018-07-18T11:06:51Z</time>
      </trkpt>
      <trkpt lat="47.81731" lon="-3.69932">
        <ele>11</ele>
        <time>2018-07-18T11:06:52Z</time>
      </trkpt>
      <trkpt lat="47.81729" lon="-3.69935">
        <ele>10</ele>
        <time>2018-07-18T11:06:53Z</time>
      </trkpt>
      <trkpt lat="47.81726" lon="-3.69937">
        <ele>10</ele>
        <time>2018-07-18T11:06:54Z</time>
      </trkpt>
      <trkpt lat="47.81723" lon="-3.69938">
        <ele>10</ele>
        <time>2018-07-18T11:06:55Z</time>
      </trkpt>
      <trkpt lat="47.81721" lon="-3.69939">
        <ele>10</ele>
        <time>2018-07-18T11:06:56Z</time>
      </trkpt>
      <trkpt lat="47.81718" lon="-3.69939">
        <ele>10</ele>
        <time>2018-07-18T11:06:57Z</time>
      </trkpt>
      <trkpt lat="47.81715" lon="-3.69939">
        <ele>10</ele>
        <time>2018-07-18T11:06:58Z</time>
      </trkpt>
      <trkpt lat="47.81713" lon="-3.69939">
        <ele>10</ele>
        <time>2018-07-18T11:06:59Z</time>
      </trkpt>
      <trkpt lat="47.8171" lon="-3.6994">
        <ele>10</ele>
        <time>2018-07-18T11:07:00Z</time>
      </trkpt>
      <trkpt lat="47.81708" lon="-3.69939">
        <ele>11</ele>
        <time>2018-07-18T11:07:01Z</time>
      </trkpt>
      <trkpt lat="47.81706" lon="-3.6994">
        <ele>11</ele>
        <time>2018-07-18T11:07:02Z</time>
      </trkpt>
      <trkpt lat="47.81705" lon="-3.69941">
        <ele>11</ele>
        <time>2018-07-18T11:07:03Z</time>
      </trkpt>
      <trkpt lat="47.81704" lon="-3.69941">
        <ele>11</ele>
        <time>2018-07-18T11:07:04Z</time>
      </trkpt>
      <trkpt lat="47.81703" lon="-3.69941">
        <ele>11</ele>
        <time>2018-07-18T11:07:05Z</time>
      </trkpt>
      <trkpt lat="47.81702" lon="-3.69942">
        <ele>11</ele>
        <time>2018-07-18T11:07:06Z</time>
      </trkpt>
      <trkpt lat="47.817" lon="-3.69944">
        <ele>11</ele>
        <time>2018-07-18T11:07:07Z</time>
      </trkpt>
      <trkpt lat="47.81698" lon="-3.69947">
        <ele>12</ele>
        <time>2018-07-18T11:07:08Z</time>
      </trkpt>
      <trkpt lat="47.81696" lon="-3.69949">
        <ele>11</ele>
        <time>2018-07-18T11:07:09Z</time>
      </trkpt>
      <trkpt lat="47.81694" lon="-3.69952">
        <ele>11</ele>
        <time>2018-07-18T11:07:10Z</time>
      </trkpt>
      <trkpt lat="47.81691" lon="-3.69955">
        <ele>11</ele>
        <time>2018-07-18T11:07:11Z</time>
      </trkpt>
      <trkpt lat="47.81689" lon="-3.69959">
        <ele>11</ele>
        <time>2018-07-18T11:07:12Z</time>
      </trkpt>
      <trkpt lat="47.81686" lon="-3.69963">
        <ele>11</ele>
        <time>2018-07-18T11:07:13Z</time>
      </trkpt>
      <trkpt lat="47.81682" lon="-3.69968">
        <ele>11</ele>
        <time>2018-07-18T11:07:14Z</time>
      </trkpt>
      <trkpt lat="47.81677" lon="-3.69973">
        <ele>11</ele>
        <time>2018-07-18T11:07:15Z</time>
      </trkpt>
      <trkpt lat="47.81671" lon="-3.69978">
        <ele>11</ele>
        <time>2018-07-18T11:07:16Z</time>
      </trkpt>
      <trkpt lat="47.81665" lon="-3.69983">
        <ele>10</ele>
        <time>2018-07-18T11:07:17Z</time>
      </trkpt>
      <trkpt lat="47.81659" lon="-3.69988">
        <ele>10</ele>
        <time>2018-07-18T11:07:18Z</time>
      </trkpt>
      <trkpt lat="47.81654" lon="-3.69994">
        <ele>10</ele>
        <time>2018-07-18T11:07:19Z</time>
      </trkpt>
      <trkpt lat="47.81649" lon="-3.69998">
        <ele>10</ele>
        <time>2018-07-18T11:07:20Z</time>
      </trkpt>
      <trkpt lat="47.81645" lon="-3.70003">
        <ele>10</ele>
        <time>2018-07-18T11:07:21Z</time>
      </trkpt>
      <trkpt lat="47.81642" lon="-3.70007">
        <ele>10</ele>
        <time>2018-07-18T11:07:22Z</time>
      </trkpt>
      <trkpt lat="47.81639" lon="-3.70011">
        <ele>10</ele>
        <time>2018-07-18T11:07:23Z</time>
      </trkpt>
      <trkpt lat="47.81636" lon="-3.70015">
        <ele>9</ele>
        <time>2018-07-18T11:07:24Z</time>
      </trkpt>
      <trkpt lat="47.81634" lon="-3.70017">
        <ele>9</ele>
        <time>2018-07-18T11:07:25Z</time>
      </trkpt>
      <trkpt lat="47.81632" lon="-3.70019">
        <ele>9</ele>
        <time>2018-07-18T11:07:26Z</time>
      </trkpt>
      <trkpt lat="47.81631" lon="-3.7002">
        <ele>9</ele>
        <time>2018-07-18T11:07:27Z</time>
      </trkpt>
      <trkpt lat="47.8163" lon="-3.70021">
        <ele>9</ele>
        <time>2018-07-18T11:07:28Z</time>
      </trkpt>
      <trkpt lat="47.81629" lon="-3.70021">
        <ele>9</ele>
        <time>2018-07-18T11:07:29Z</time>
      </trkpt>
      <trkpt lat="47.81629" lon="-3.70022">
        <ele>9</ele>
        <time>2018-07-18T11:07:30Z</time>
      </trkpt>
      <trkpt lat="47.81627" lon="-3.70023">
        <ele>9</ele>
        <time>2018-07-18T11:07:31Z</time>
      </trkpt>
      <trkpt lat="47.81626" lon="-3.70023">
        <ele>9</ele>
        <time>2018-07-18T11:07:32Z</time>
      </trkpt>
      <trkpt lat="47.81625" lon="-3.70024">
        <ele>9</ele>
        <time>2018-07-18T11:07:33Z</time>
      </trkpt>
      <trkpt lat="47.81624" lon="-3.70025">
        <ele>9</ele>
        <time>2018-07-18T11:07:34Z</time>
      </trkpt>
      <trkpt lat="47.81624" lon="-3.70026">
        <ele>9</ele>
        <time>2018-07-18T11:07:35Z</time>
      </trkpt>
      <trkpt lat="47.81623" lon="-3.70026">
        <ele>9</ele>
        <time>2018-07-18T11:07:36Z</time>
      </trkpt>
      <trkpt lat="47.81623" lon="-3.70027">
        <ele>9</ele>
        <time>2018-07-18T11:07:37Z</time>
      </trkpt>
      <trkpt lat="47.81623" lon="-3.70027">
        <ele>9</ele>
        <time>2018-07-18T11:07:38Z</time>
      </trkpt>
      <trkpt lat="47.81617" lon="-3.70032">
        <ele>9</ele>
        <time>2018-07-18T11:07:39Z</time>
      </trkpt>
      <trkpt lat="47.81615" lon="-3.70033">
        <ele>9</ele>
        <time>2018-07-18T11:07:40Z</time>
      </trkpt>
      <trkpt lat="47.81613" lon="-3.70033">
        <ele>9</ele>
        <time>2018-07-18T11:07:41Z</time>
      </trkpt>
      <trkpt lat="47.81612" lon="-3.70033">
        <ele>9</ele>
        <time>2018-07-18T11:07:42Z</time>
      </trkpt>
      <trkpt lat="47.8161" lon="-3.70032">
        <ele>9</ele>
        <time>2018-07-18T11:07:43Z</time>
      </trkpt>
      <trkpt lat="47.81609" lon="-3.70032">
        <ele>9</ele>
        <time>2018-07-18T11:07:44Z</time>
      </trkpt>
      <trkpt lat="47.81606" lon="-3.70032">
        <ele>9</ele>
        <time>2018-07-18T11:07:45Z</time>
      </trkpt>
      <trkpt lat="47.81604" lon="-3.70033">
        <ele>9</ele>
        <time>2018-07-18T11:07:46Z</time>
      </trkpt>
      <trkpt lat="47.81603" lon="-3.70033">
        <ele>9</ele>
        <time>2018-07-18T11:07:47Z</time>
      </trkpt>
      <trkpt lat="47.81602" lon="-3.70033">
        <ele>9</ele>
        <time>2018-07-18T11:07:48Z</time>
      </trkpt>
      <trkpt lat="47.81601" lon="-3.70033">
        <ele>9</ele>
        <time>2018-07-18T11:07:49Z</time>
      </trkpt>
      <trkpt lat="47.81601" lon="-3.70033">
        <ele>9</ele>
        <time>2018-07-18T11:07:50Z</time>
      </trkpt>
      <trkpt lat="47.816" lon="-3.70033">
        <ele>9</ele>
        <time>2018-07-18T11:07:51Z</time>
      </trkpt>
      <trkpt lat="47.81599" lon="-3.70033">
        <ele>9</ele>
        <time>2018-07-18T11:07:52Z</time>
      </trkpt>
      <trkpt lat="47.81599" lon="-3.70033">
        <ele>9</ele>
        <time>2018-07-18T11:07:53Z</time>
      </trkpt>
      <trkpt lat="47.81598" lon="-3.70032">
        <ele>9</ele>
        <time>2018-07-18T11:07:54Z</time>
      </trkpt>
      <trkpt lat="47.81597" lon="-3.70032">
        <ele>10</ele>
        <time>2018-07-18T11:07:55Z</time>
      </trkpt>
      <trkpt lat="47.81597" lon="-3.70033">
        <ele>10</ele>
        <time>2018-07-18T11:07:56Z</time>
      </trkpt>
      <trkpt lat="47.81597" lon="-3.70033">
        <ele>10</ele>
        <time>2018-07-18T11:07:57Z</time>
      </trkpt>
      <trkpt lat="47.81597" lon="-3.70033">
        <ele>10</ele>
        <time>2018-07-18T11:07:58Z</time>
      </trkpt>
      <trkpt lat="47.81597" lon="-3.70033">
        <ele>10</ele>
        <time>2018-07-18T11:07:59Z</time>
      </trkpt>
      <trkpt lat="47.81595" lon="-3.70034">
        <ele>10</ele>
        <time>2018-07-18T11:08:00Z</time>
      </trkpt>
      <trkpt lat="47.81594" lon="-3.70035">
        <ele>10</ele>
        <time>2018-07-18T11:08:01Z</time>
      </trkpt>
      <trkpt lat="47.81592" lon="-3.70036">
        <ele>10</ele>
        <time>2018-07-18T11:08:02Z</time>
      </trkpt>
      <trkpt lat="47.8159" lon="-3.70036">
        <ele>10</ele>
        <time>2018-07-18T11:08:03Z</time>
      </trkpt>
      <trkpt lat="47.81588" lon="-3.70036">
        <ele>10</ele>
        <time>2018-07-18T11:08:04Z</time>
      </trkpt>
      <trkpt lat="47.81586" lon="-3.70037">
        <ele>11</ele>
        <time>2018-07-18T11:08:05Z</time>
      </trkpt>
      <trkpt lat="47.81584" lon="-3.70038">
        <ele>11</ele>
        <time>2018-07-18T11:08:06Z</time>
      </trkpt>
      <trkpt lat="47.81583" lon="-3.70038">
        <ele>11</ele>
        <time>2018-07-18T11:08:07Z</time>
      </trkpt>
      <trkpt lat="47.81581" lon="-3.70038">
        <ele>11</ele>
        <time>2018-07-18T11:08:08Z</time>
      </trkpt>
      <trkpt lat="47.8158" lon="-3.70037">
        <ele>11</ele>
        <time>2018-07-18T11:08:09Z</time>
      </trkpt>
      <trkpt lat="47.81579" lon="-3.70036">
        <ele>11</ele>
        <time>2018-07-18T11:08:10Z</time>
      </trkpt>
      <trkpt lat="47.81578" lon="-3.70035">
        <ele>12</ele>
        <time>2018-07-18T11:08:11Z</time>
      </trkpt>
      <trkpt lat="47.81577" lon="-3.70034">
        <ele>12</ele>
        <time>2018-07-18T11:08:12Z</time>
      </trkpt>
      <trkpt lat="47.81577" lon="-3.70033">
        <ele>12</ele>
        <time>2018-07-18T11:08:13Z</time>
      </trkpt>
      <trkpt lat="47.81577" lon="-3.70031">
        <ele>13</ele>
        <time>2018-07-18T11:08:14Z</time>
      </trkpt>
      <trkpt lat="47.81577" lon="-3.7003">
        <ele>13</ele>
        <time>2018-07-18T11:08:15Z</time>
      </trkpt>
      <trkpt lat="47.81577" lon="-3.70029">
        <ele>13</ele>
        <time>2018-07-18T11:08:16Z</time>
      </trkpt>
      <trkpt lat="47.81577" lon="-3.70029">
        <ele>13</ele>
        <time>2018-07-18T11:08:17Z</time>
      </trkpt>
      <trkpt lat="47.81577" lon="-3.70029">
        <ele>13</ele>
        <time>2018-07-18T11:08:18Z</time>
      </trkpt>
      <trkpt lat="47.81577" lon="-3.70029">
        <ele>13</ele>
        <time>2018-07-18T11:08:19Z</time>
      </trkpt>
      <trkpt lat="47.81573" lon="-3.70028">
        <ele>16</ele>
        <time>2018-07-18T11:08:20Z</time>
      </trkpt>
      <trkpt lat="47.81572" lon="-3.70028">
        <ele>16</ele>
        <time>2018-07-18T11:08:21Z</time>
      </trkpt>
      <trkpt lat="47.81571" lon="-3.70029">
        <ele>16</ele>
        <time>2018-07-18T11:08:22Z</time>
      </trkpt>
      <trkpt lat="47.81569" lon="-3.7003">
        <ele>16</ele>
        <time>2018-07-18T11:08:23Z</time>
      </trkpt>
      <trkpt lat="47.81568" lon="-3.70032">
        <ele>16</ele>
        <time>2018-07-18T11:08:24Z</time>
      </trkpt>
      <trkpt lat="47.81567" lon="-3.70033">
        <ele>17</ele>
        <time>2018-07-18T11:08:25Z</time>
      </trkpt>
      <trkpt lat="47.81565" lon="-3.70035">
        <ele>17</ele>
        <time>2018-07-18T11:08:26Z</time>
      </trkpt>
      <trkpt lat="47.81563" lon="-3.70037">
        <ele>17</ele>
        <time>2018-07-18T11:08:27Z</time>
      </trkpt>
      <trkpt lat="47.81561" lon="-3.70038">
        <ele>17</ele>
        <time>2018-07-18T11:08:28Z</time>
      </trkpt>
      <trkpt lat="47.81559" lon="-3.70039">
        <ele>17</ele>
        <time>2018-07-18T11:08:29Z</time>
      </trkpt>
      <trkpt lat="47.81557" lon="-3.7004">
        <ele>17</ele>
        <time>2018-07-18T11:08:30Z</time>
      </trkpt>
      <trkpt lat="47.81554" lon="-3.70041">
        <ele>17</ele>
        <time>2018-07-18T11:08:31Z</time>
      </trkpt>
      <trkpt lat="47.81552" lon="-3.7004">
        <ele>18</ele>
        <time>2018-07-18T11:08:32Z</time>
      </trkpt>
      <trkpt lat="47.8155" lon="-3.70042">
        <ele>18</ele>
        <time>2018-07-18T11:08:33Z</time>
      </trkpt>
      <trkpt lat="47.81548" lon="-3.70043">
        <ele>18</ele>
        <time>2018-07-18T11:08:34Z</time>
      </trkpt>
      <trkpt lat="47.81546" lon="-3.70046">
        <ele>18</ele>
        <time>2018-07-18T11:08:35Z</time>
      </trkpt>
      <trkpt lat="47.81543" lon="-3.70048">
        <ele>18</ele>
        <time>2018-07-18T11:08:36Z</time>
      </trkpt>
      <trkpt lat="47.81541" lon="-3.7005">
        <ele>18</ele>
        <time>2018-07-18T11:08:37Z</time>
      </trkpt>
      <trkpt lat="47.81539" lon="-3.70052">
        <ele>18</ele>
        <time>2018-07-18T11:08:38Z</time>
      </trkpt>
      <trkpt lat="47.81537" lon="-3.70056">
        <ele>18</ele>
        <time>2018-07-18T11:08:39Z</time>
      </trkpt>
      <trkpt lat="47.81534" lon="-3.70059">
        <ele>18</ele>
        <time>2018-07-18T11:08:40Z</time>
      </trkpt>
      <trkpt lat="47.81531" lon="-3.70064">
        <ele>18</ele>
        <time>2018-07-18T11:08:41Z</time>
      </trkpt>
      <trkpt lat="47.81529" lon="-3.70069">
        <ele>18</ele>
        <time>2018-07-18T11:08:42Z</time>
      </trkpt>
      <trkpt lat="47.81524" lon="-3.70073">
        <ele>18</ele>
        <time>2018-07-18T11:08:43Z</time>
      </trkpt>
      <trkpt lat="47.8152" lon="-3.70077">
        <ele>18</ele>
        <time>2018-07-18T11:08:44Z</time>
      </trkpt>
      <trkpt lat="47.81515" lon="-3.70079">
        <ele>18</ele>
        <time>2018-07-18T11:08:45Z</time>
      </trkpt>
      <trkpt lat="47.81511" lon="-3.70081">
        <ele>18</ele>
        <time>2018-07-18T11:08:46Z</time>
      </trkpt>
      <trkpt lat="47.81509" lon="-3.70083">
        <ele>18</ele>
        <time>2018-07-18T11:08:47Z</time>
      </trkpt>
      <trkpt lat="47.81507" lon="-3.70085">
        <ele>18</ele>
        <time>2018-07-18T11:08:48Z</time>
      </trkpt>
      <trkpt lat="47.81505" lon="-3.70088">
        <ele>18</ele>
        <time>2018-07-18T11:08:49Z</time>
      </trkpt>
      <trkpt lat="47.81503" lon="-3.70092">
        <ele>18</ele>
        <time>2018-07-18T11:08:50Z</time>
      </trkpt>
      <trkpt lat="47.81501" lon="-3.70097">
        <ele>18</ele>
        <time>2018-07-18T11:08:51Z</time>
      </trkpt>
      <trkpt lat="47.81499" lon="-3.70102">
        <ele>18</ele>
        <time>2018-07-18T11:08:52Z</time>
      </trkpt>
      <trkpt lat="47.81496" lon="-3.70105">
        <ele>18</ele>
        <time>2018-07-18T11:08:53Z</time>
      </trkpt>
      <trkpt lat="47.81494" lon="-3.70108">
        <ele>18</ele>
        <time>2018-07-18T11:08:54Z</time>
      </trkpt>
      <trkpt lat="47.81491" lon="-3.7011">
        <ele>18</ele>
        <time>2018-07-18T11:08:55Z</time>
      </trkpt>
      <trkpt lat="47.81488" lon="-3.70112">
        <ele>18</ele>
        <time>2018-07-18T11:08:56Z</time>
      </trkpt>
      <trkpt lat="47.81485" lon="-3.70114">
        <ele>19</ele>
        <time>2018-07-18T11:08:57Z</time>
      </trkpt>
      <trkpt lat="47.81483" lon="-3.70115">
        <ele>19</ele>
        <time>2018-07-18T11:08:58Z</time>
      </trkpt>
      <trkpt lat="47.81481" lon="-3.70117">
        <ele>19</ele>
        <time>2018-07-18T11:08:59Z</time>
      </trkpt>
      <trkpt lat="47.81478" lon="-3.70119">
        <ele>19</ele>
        <time>2018-07-18T11:09:00Z</time>
      </trkpt>
      <trkpt lat="47.81476" lon="-3.70121">
        <ele>19</ele>
        <time>2018-07-18T11:09:01Z</time>
      </trkpt>
      <trkpt lat="47.81474" lon="-3.70122">
        <ele>19</ele>
        <time>2018-07-18T11:09:02Z</time>
      </trkpt>
      <trkpt lat="47.81472" lon="-3.70124">
        <ele>19</ele>
        <time>2018-07-18T11:09:03Z</time>
      </trkpt>
      <trkpt lat="47.81469" lon="-3.70126">
        <ele>19</ele>
        <time>2018-07-18T11:09:04Z</time>
      </trkpt>
      <trkpt lat="47.81467" lon="-3.70128">
        <ele>19</ele>
        <time>2018-07-18T11:09:05Z</time>
      </trkpt>
      <trkpt lat="47.81465" lon="-3.70129">
        <ele>19</ele>
        <time>2018-07-18T11:09:06Z</time>
      </trkpt>
      <trkpt lat="47.81462" lon="-3.70131">
        <ele>19</ele>
        <time>2018-07-18T11:09:07Z</time>
      </trkpt>
      <trkpt lat="47.8146" lon="-3.70132">
        <ele>19</ele>
        <time>2018-07-18T11:09:08Z</time>
      </trkpt>
      <trkpt lat="47.81457" lon="-3.70134">
        <ele>20</ele>
        <time>2018-07-18T11:09:09Z</time>
      </trkpt>
      <trkpt lat="47.81453" lon="-3.70136">
        <ele>20</ele>
        <time>2018-07-18T11:09:10Z</time>
      </trkpt>
      <trkpt lat="47.81451" lon="-3.70139">
        <ele>20</ele>
        <time>2018-07-18T11:09:11Z</time>
      </trkpt>
      <trkpt lat="47.81447" lon="-3.70144">
        <ele>20</ele>
        <time>2018-07-18T11:09:12Z</time>
      </trkpt>
      <trkpt lat="47.81444" lon="-3.70147">
        <ele>20</ele>
        <time>2018-07-18T11:09:13Z</time>
      </trkpt>
      <trkpt lat="47.8144" lon="-3.7015">
        <ele>20</ele>
        <time>2018-07-18T11:09:14Z</time>
      </trkpt>
      <trkpt lat="47.81435" lon="-3.70155">
        <ele>20</ele>
        <time>2018-07-18T11:09:15Z</time>
      </trkpt>
      <trkpt lat="47.81431" lon="-3.7016">
        <ele>20</ele>
        <time>2018-07-18T11:09:16Z</time>
      </trkpt>
      <trkpt lat="47.81428" lon="-3.70166">
        <ele>20</ele>
        <time>2018-07-18T11:09:17Z</time>
      </trkpt>
      <trkpt lat="47.81424" lon="-3.7017">
        <ele>20</ele>
        <time>2018-07-18T11:09:18Z</time>
      </trkpt>
      <trkpt lat="47.81421" lon="-3.70174">
        <ele>20</ele>
        <time>2018-07-18T11:09:19Z</time>
      </trkpt>
      <trkpt lat="47.81418" lon="-3.70177">
        <ele>19</ele>
        <time>2018-07-18T11:09:20Z</time>
      </trkpt>
      <trkpt lat="47.81415" lon="-3.70179">
        <ele>19</ele>
        <time>2018-07-18T11:09:21Z</time>
      </trkpt>
      <trkpt lat="47.81412" lon="-3.70182">
        <ele>19</ele>
        <time>2018-07-18T11:09:22Z</time>
      </trkpt>
      <trkpt lat="47.81409" lon="-3.70184">
        <ele>19</ele>
        <time>2018-07-18T11:09:23Z</time>
      </trkpt>
      <trkpt lat="47.81406" lon="-3.70187">
        <ele>19</ele>
        <time>2018-07-18T11:09:24Z</time>
      </trkpt>
      <trkpt lat="47.81403" lon="-3.7019">
        <ele>19</ele>
        <time>2018-07-18T11:09:25Z</time>
      </trkpt>
      <trkpt lat="47.814" lon="-3.70192">
        <ele>19</ele>
        <time>2018-07-18T11:09:26Z</time>
      </trkpt>
      <trkpt lat="47.81397" lon="-3.70193">
        <ele>18</ele>
        <time>2018-07-18T11:09:27Z</time>
      </trkpt>
      <trkpt lat="47.81395" lon="-3.70194">
        <ele>18</ele>
        <time>2018-07-18T11:09:28Z</time>
      </trkpt>
      <trkpt lat="47.81393" lon="-3.70194">
        <ele>18</ele>
        <time>2018-07-18T11:09:29Z</time>
      </trkpt>
      <trkpt lat="47.81391" lon="-3.70194">
        <ele>18</ele>
        <time>2018-07-18T11:09:30Z</time>
      </trkpt>
      <trkpt lat="47.81389" lon="-3.70193">
        <ele>18</ele>
        <time>2018-07-18T11:09:31Z</time>
      </trkpt>
      <trkpt lat="47.81387" lon="-3.70193">
        <ele>18</ele>
        <time>2018-07-18T11:09:32Z</time>
      </trkpt>
      <trkpt lat="47.81385" lon="-3.70193">
        <ele>18</ele>
        <time>2018-07-18T11:09:33Z</time>
      </trkpt>
      <trkpt lat="47.81382" lon="-3.70193">
        <ele>18</ele>
        <time>2018-07-18T11:09:34Z</time>
      </trkpt>
      <trkpt lat="47.81379" lon="-3.70194">
        <ele>18</ele>
        <time>2018-07-18T11:09:35Z</time>
      </trkpt>
      <trkpt lat="47.81376" lon="-3.70195">
        <ele>18</ele>
        <time>2018-07-18T11:09:36Z</time>
      </trkpt>
      <trkpt lat="47.81372" lon="-3.70197">
        <ele>18</ele>
        <time>2018-07-18T11:09:37Z</time>
      </trkpt>
      <trkpt lat="47.81369" lon="-3.70197">
        <ele>17</ele>
        <time>2018-07-18T11:09:38Z</time>
      </trkpt>
      <trkpt lat="47.81365" lon="-3.70197">
        <ele>17</ele>
        <time>2018-07-18T11:09:39Z</time>
      </trkpt>
      <trkpt lat="47.81362" lon="-3.70197">
        <ele>17</ele>
        <time>2018-07-18T11:09:40Z</time>
      </trkpt>
      <trkpt lat="47.81359" lon="-3.70195">
        <ele>17</ele>
        <time>2018-07-18T11:09:41Z</time>
      </trkpt>
      <trkpt lat="47.81357" lon="-3.70192">
        <ele>17</ele>
        <time>2018-07-18T11:09:42Z</time>
      </trkpt>
      <trkpt lat="47.81355" lon="-3.70189">
        <ele>17</ele>
        <time>2018-07-18T11:09:43Z</time>
      </trkpt>
      <trkpt lat="47.81353" lon="-3.70186">
        <ele>17</ele>
        <time>2018-07-18T11:09:44Z</time>
      </trkpt>
      <trkpt lat="47.81351" lon="-3.70184">
        <ele>17</ele>
        <time>2018-07-18T11:09:45Z</time>
      </trkpt>
      <trkpt lat="47.8135" lon="-3.70182">
        <ele>16</ele>
        <time>2018-07-18T11:09:46Z</time>
      </trkpt>
      <trkpt lat="47.81349" lon="-3.70181">
        <ele>16</ele>
        <time>2018-07-18T11:09:47Z</time>
      </trkpt>
      <trkpt lat="47.81348" lon="-3.70179">
        <ele>16</ele>
        <time>2018-07-18T11:09:48Z</time>
      </trkpt>
      <trkpt lat="47.81347" lon="-3.70177">
        <ele>16</ele>
        <time>2018-07-18T11:09:49Z</time>
      </trkpt>
      <trkpt lat="47.81346" lon="-3.70175">
        <ele>16</ele>
        <time>2018-07-18T11:09:50Z</time>
      </trkpt>
      <trkpt lat="47.81345" lon="-3.70172">
        <ele>16</ele>
        <time>2018-07-18T11:09:51Z</time>
      </trkpt>
      <trkpt lat="47.81344" lon="-3.7017">
        <ele>15</ele>
        <time>2018-07-18T11:09:52Z</time>
      </trkpt>
      <trkpt lat="47.81343" lon="-3.70167">
        <ele>15</ele>
        <time>2018-07-18T11:09:53Z</time>
      </trkpt>
      <trkpt lat="47.81343" lon="-3.70166">
        <ele>15</ele>
        <time>2018-07-18T11:09:54Z</time>
      </trkpt>
      <trkpt lat="47.81341" lon="-3.70165">
        <ele>15</ele>
        <time>2018-07-18T11:09:55Z</time>
      </trkpt>
      <trkpt lat="47.81339" lon="-3.70165">
        <ele>15</ele>
        <time>2018-07-18T11:09:56Z</time>
      </trkpt>
      <trkpt lat="47.81336" lon="-3.70165">
        <ele>15</ele>
        <time>2018-07-18T11:09:57Z</time>
      </trkpt>
      <trkpt lat="47.81332" lon="-3.70162">
        <ele>14</ele>
        <time>2018-07-18T11:09:58Z</time>
      </trkpt>
      <trkpt lat="47.81328" lon="-3.70159">
        <ele>14</ele>
        <time>2018-07-18T11:09:59Z</time>
      </trkpt>
      <trkpt lat="47.81324" lon="-3.70156">
        <ele>14</ele>
        <time>2018-07-18T11:10:00Z</time>
      </trkpt>
      <trkpt lat="47.81321" lon="-3.70153">
        <ele>14</ele>
        <time>2018-07-18T11:10:01Z</time>
      </trkpt>
      <trkpt lat="47.81319" lon="-3.70149">
        <ele>13</ele>
        <time>2018-07-18T11:10:02Z</time>
      </trkpt>
      <trkpt lat="47.81317" lon="-3.70145">
        <ele>13</ele>
        <time>2018-07-18T11:10:03Z</time>
      </trkpt>
      <trkpt lat="47.81316" lon="-3.70142">
        <ele>13</ele>
        <time>2018-07-18T11:10:04Z</time>
      </trkpt>
      <trkpt lat="47.81314" lon="-3.70138">
        <ele>13</ele>
        <time>2018-07-18T11:10:05Z</time>
      </trkpt>
      <trkpt lat="47.81312" lon="-3.70135">
        <ele>13</ele>
        <time>2018-07-18T11:10:06Z</time>
      </trkpt>
      <trkpt lat="47.81311" lon="-3.70133">
        <ele>13</ele>
        <time>2018-07-18T11:10:07Z</time>
      </trkpt>
      <trkpt lat="47.81308" lon="-3.7013">
        <ele>12</ele>
        <time>2018-07-18T11:10:08Z</time>
      </trkpt>
      <trkpt lat="47.81307" lon="-3.70126">
        <ele>12</ele>
        <time>2018-07-18T11:10:09Z</time>
      </trkpt>
      <trkpt lat="47.81305" lon="-3.70122">
        <ele>12</ele>
        <time>2018-07-18T11:10:10Z</time>
      </trkpt>
      <trkpt lat="47.81304" lon="-3.70116">
        <ele>12</ele>
        <time>2018-07-18T11:10:11Z</time>
      </trkpt>
      <trkpt lat="47.81302" lon="-3.70111">
        <ele>12</ele>
        <time>2018-07-18T11:10:12Z</time>
      </trkpt>
      <trkpt lat="47.81301" lon="-3.70106">
        <ele>12</ele>
        <time>2018-07-18T11:10:13Z</time>
      </trkpt>
      <trkpt lat="47.813" lon="-3.70102">
        <ele>12</ele>
        <time>2018-07-18T11:10:14Z</time>
      </trkpt>
      <trkpt lat="47.81299" lon="-3.70099">
        <ele>12</ele>
        <time>2018-07-18T11:10:15Z</time>
      </trkpt>
      <trkpt lat="47.81298" lon="-3.70096">
        <ele>12</ele>
        <time>2018-07-18T11:10:16Z</time>
      </trkpt>
      <trkpt lat="47.81298" lon="-3.70092">
        <ele>12</ele>
        <time>2018-07-18T11:10:17Z</time>
      </trkpt>
      <trkpt lat="47.81297" lon="-3.70087">
        <ele>12</ele>
        <time>2018-07-18T11:10:18Z</time>
      </trkpt>
      <trkpt lat="47.81296" lon="-3.70083">
        <ele>12</ele>
        <time>2018-07-18T11:10:19Z</time>
      </trkpt>
      <trkpt lat="47.81294" lon="-3.70079">
        <ele>12</ele>
        <time>2018-07-18T11:10:20Z</time>
      </trkpt>
      <trkpt lat="47.81294" lon="-3.70074">
        <ele>12</ele>
        <time>2018-07-18T11:10:21Z</time>
      </trkpt>
      <trkpt lat="47.81293" lon="-3.7007">
        <ele>12</ele>
        <time>2018-07-18T11:10:22Z</time>
      </trkpt>
      <trkpt lat="47.81292" lon="-3.70066">
        <ele>12</ele>
        <time>2018-07-18T11:10:23Z</time>
      </trkpt>
      <trkpt lat="47.81291" lon="-3.70061">
        <ele>12</ele>
        <time>2018-07-18T11:10:24Z</time>
      </trkpt>
      <trkpt lat="47.8129" lon="-3.70056">
        <ele>12</ele>
        <time>2018-07-18T11:10:25Z</time>
      </trkpt>
      <trkpt lat="47.81289" lon="-3.70051">
        <ele>12</ele>
        <time>2018-07-18T11:10:26Z</time>
      </trkpt>
      <trkpt lat="47.81289" lon="-3.70048">
        <ele>12</ele>
        <time>2018-07-18T11:10:27Z</time>
      </trkpt>
      <trkpt lat="47.81288" lon="-3.70047">
        <ele>12</ele>
        <time>2018-07-18T11:10:28Z</time>
      </trkpt>
      <trkpt lat="47.81288" lon="-3.70046">
        <ele>12</ele>
        <time>2018-07-18T11:10:29Z</time>
      </trkpt>
      <trkpt lat="47.81288" lon="-3.70045">
        <ele>12</ele>
        <time>2018-07-18T11:10:30Z</time>
      </trkpt>
      <trkpt lat="47.81288" lon="-3.70044">
        <ele>12</ele>
        <time>2018-07-18T11:10:31Z</time>
      </trkpt>
      <trkpt lat="47.81287" lon="-3.70043">
        <ele>12</ele>
        <time>2018-07-18T11:10:32Z</time>
      </trkpt>
      <trkpt lat="47.81287" lon="-3.70042">
        <ele>12</ele>
        <time>2018-07-18T11:10:33Z</time>
      </trkpt>
      <trkpt lat="47.81287" lon="-3.70041">
        <ele>12</ele>
        <time>2018-07-18T11:10:34Z</time>
      </trkpt>
      <trkpt lat="47.81286" lon="-3.7004">
        <ele>12</ele>
        <time>2018-07-18T11:10:35Z</time>
      </trkpt>
      <trkpt lat="47.81286" lon="-3.70039">
        <ele>12</ele>
        <time>2018-07-18T11:10:36Z</time>
      </trkpt>
      <trkpt lat="47.81285" lon="-3.70038">
        <ele>12</ele>
        <time>2018-07-18T11:10:37Z</time>
      </trkpt>
      <trkpt lat="47.81284" lon="-3.70037">
        <ele>12</ele>
        <time>2018-07-18T11:10:38Z</time>
      </trkpt>
      <trkpt lat="47.81284" lon="-3.70035">
        <ele>12</ele>
        <time>2018-07-18T11:10:39Z</time>
      </trkpt>
      <trkpt lat="47.81283" lon="-3.70034">
        <ele>12</ele>
        <time>2018-07-18T11:10:40Z</time>
      </trkpt>
      <trkpt lat="47.81283" lon="-3.70033">
        <ele>12</ele>
        <time>2018-07-18T11:10:41Z</time>
      </trkpt>
      <trkpt lat="47.81282" lon="-3.70032">
        <ele>12</ele>
        <time>2018-07-18T11:10:42Z</time>
      </trkpt>
      <trkpt lat="47.81281" lon="-3.70031">
        <ele>12</ele>
        <time>2018-07-18T11:10:43Z</time>
      </trkpt>
      <trkpt lat="47.81281" lon="-3.7003">
        <ele>12</ele>
        <time>2018-07-18T11:10:44Z</time>
      </trkpt>
      <trkpt lat="47.8128" lon="-3.70028">
        <ele>12</ele>
        <time>2018-07-18T11:10:45Z</time>
      </trkpt>
      <trkpt lat="47.81279" lon="-3.70026">
        <ele>12</ele>
        <time>2018-07-18T11:10:46Z</time>
      </trkpt>
      <trkpt lat="47.81278" lon="-3.70024">
        <ele>12</ele>
        <time>2018-07-18T11:10:47Z</time>
      </trkpt>
      <trkpt lat="47.81279" lon="-3.70022">
        <ele>12</ele>
        <time>2018-07-18T11:10:48Z</time>
      </trkpt>
      <trkpt lat="47.81278" lon="-3.7002">
        <ele>12</ele>
        <time>2018-07-18T11:10:49Z</time>
      </trkpt>
      <trkpt lat="47.81278" lon="-3.70019">
        <ele>12</ele>
        <time>2018-07-18T11:10:50Z</time>
      </trkpt>
      <trkpt lat="47.81278" lon="-3.70017">
        <ele>12</ele>
        <time>2018-07-18T11:10:51Z</time>
      </trkpt>
      <trkpt lat="47.81278" lon="-3.70015">
        <ele>12</ele>
        <time>2018-07-18T11:10:52Z</time>
      </trkpt>
      <trkpt lat="47.81278" lon="-3.70013">
        <ele>12</ele>
        <time>2018-07-18T11:10:53Z</time>
      </trkpt>
      <trkpt lat="47.81278" lon="-3.70012">
        <ele>12</ele>
        <time>2018-07-18T11:10:54Z</time>
      </trkpt>
      <trkpt lat="47.81278" lon="-3.70011">
        <ele>12</ele>
        <time>2018-07-18T11:10:55Z</time>
      </trkpt>
      <trkpt lat="47.81278" lon="-3.7001">
        <ele>12</ele>
        <time>2018-07-18T11:10:56Z</time>
      </trkpt>
      <trkpt lat="47.81278" lon="-3.7001">
        <ele>12</ele>
        <time>2018-07-18T11:10:57Z</time>
      </trkpt>
      <trkpt lat="47.81278" lon="-3.70008">
        <ele>12</ele>
        <time>2018-07-18T11:10:58Z</time>
      </trkpt>
      <trkpt lat="47.81278" lon="-3.70007">
        <ele>12</ele>
        <time>2018-07-18T11:10:59Z</time>
      </trkpt>
      <trkpt lat="47.81277" lon="-3.70006">
        <ele>12</ele>
        <time>2018-07-18T11:11:00Z</time>
      </trkpt>
      <trkpt lat="47.81278" lon="-3.70004">
        <ele>12</ele>
        <time>2018-07-18T11:11:01Z</time>
      </trkpt>
      <trkpt lat="47.81278" lon="-3.70002">
        <ele>12</ele>
        <time>2018-07-18T11:11:02Z</time>
      </trkpt>
      <trkpt lat="47.81278" lon="-3.70002">
        <ele>12</ele>
        <time>2018-07-18T11:11:03Z</time>
      </trkpt>
      <trkpt lat="47.81278" lon="-3.70001">
        <ele>12</ele>
        <time>2018-07-18T11:11:04Z</time>
      </trkpt>
      <trkpt lat="47.81278" lon="-3.7">
        <ele>13</ele>
        <time>2018-07-18T11:11:05Z</time>
      </trkpt>
      <trkpt lat="47.81278" lon="-3.69999">
        <ele>13</ele>
        <time>2018-07-18T11:11:06Z</time>
      </trkpt>
      <trkpt lat="47.81278" lon="-3.69998">
        <ele>13</ele>
        <time>2018-07-18T11:11:07Z</time>
      </trkpt>
      <trkpt lat="47.81278" lon="-3.69996">
        <ele>13</ele>
        <time>2018-07-18T11:11:08Z</time>
      </trkpt>
      <trkpt lat="47.81278" lon="-3.69995">
        <ele>13</ele>
        <time>2018-07-18T11:11:09Z</time>
      </trkpt>
      <trkpt lat="47.81277" lon="-3.69994">
        <ele>14</ele>
        <time>2018-07-18T11:11:10Z</time>
      </trkpt>
      <trkpt lat="47.81276" lon="-3.69992">
        <ele>14</ele>
        <time>2018-07-18T11:11:11Z</time>
      </trkpt>
      <trkpt lat="47.81275" lon="-3.69991">
        <ele>14</ele>
        <time>2018-07-18T11:11:12Z</time>
      </trkpt>
      <trkpt lat="47.81275" lon="-3.6999">
        <ele>14</ele>
        <time>2018-07-18T11:11:13Z</time>
      </trkpt>
      <trkpt lat="47.81274" lon="-3.69989">
        <ele>14</ele>
        <time>2018-07-18T11:11:14Z</time>
      </trkpt>
      <trkpt lat="47.81274" lon="-3.69988">
        <ele>14</ele>
        <time>2018-07-18T11:11:15Z</time>
      </trkpt>
      <trkpt lat="47.81273" lon="-3.69987">
        <ele>14</ele>
        <time>2018-07-18T11:11:16Z</time>
      </trkpt>
      <trkpt lat="47.81272" lon="-3.69986">
        <ele>14</ele>
        <time>2018-07-18T11:11:17Z</time>
      </trkpt>
      <trkpt lat="47.81271" lon="-3.69985">
        <ele>14</ele>
        <time>2018-07-18T11:11:18Z</time>
      </trkpt>
      <trkpt lat="47.81271" lon="-3.69984">
        <ele>14</ele>
        <time>2018-07-18T11:11:19Z</time>
      </trkpt>
      <trkpt lat="47.81271" lon="-3.69983">
        <ele>14</ele>
        <time>2018-07-18T11:11:20Z</time>
      </trkpt>
      <trkpt lat="47.81271" lon="-3.69982">
        <ele>13</ele>
        <time>2018-07-18T11:11:21Z</time>
      </trkpt>
      <trkpt lat="47.81271" lon="-3.69982">
        <ele>13</ele>
        <time>2018-07-18T11:11:22Z</time>
      </trkpt>
      <trkpt lat="47.81271" lon="-3.69981">
        <ele>13</ele>
        <time>2018-07-18T11:11:23Z</time>
      </trkpt>
      <trkpt lat="47.81272" lon="-3.69979">
        <ele>13</ele>
        <time>2018-07-18T11:11:24Z</time>
      </trkpt>
      <trkpt lat="47.81271" lon="-3.69977">
        <ele>12</ele>
        <time>2018-07-18T11:11:25Z</time>
      </trkpt>
      <trkpt lat="47.81271" lon="-3.69976">
        <ele>12</ele>
        <time>2018-07-18T11:11:26Z</time>
      </trkpt>
      <trkpt lat="47.8127" lon="-3.69973">
        <ele>12</ele>
        <time>2018-07-18T11:11:27Z</time>
      </trkpt>
      <trkpt lat="47.81268" lon="-3.69969">
        <ele>12</ele>
        <time>2018-07-18T11:11:28Z</time>
      </trkpt>
      <trkpt lat="47.81267" lon="-3.69965">
        <ele>12</ele>
        <time>2018-07-18T11:11:29Z</time>
      </trkpt>
      <trkpt lat="47.81267" lon="-3.69961">
        <ele>12</ele>
        <time>2018-07-18T11:11:30Z</time>
      </trkpt>
      <trkpt lat="47.81266" lon="-3.69958">
        <ele>12</ele>
        <time>2018-07-18T11:11:31Z</time>
      </trkpt>
      <trkpt lat="47.81265" lon="-3.69954">
        <ele>12</ele>
        <time>2018-07-18T11:11:32Z</time>
      </trkpt>
      <trkpt lat="47.81265" lon="-3.69951">
        <ele>12</ele>
        <time>2018-07-18T11:11:33Z</time>
      </trkpt>
      <trkpt lat="47.81264" lon="-3.69948">
        <ele>12</ele>
        <time>2018-07-18T11:11:34Z</time>
      </trkpt>
      <trkpt lat="47.81264" lon="-3.69945">
        <ele>12</ele>
        <time>2018-07-18T11:11:35Z</time>
      </trkpt>
      <trkpt lat="47.81264" lon="-3.69941">
        <ele>12</ele>
        <time>2018-07-18T11:11:36Z</time>
      </trkpt>
      <trkpt lat="47.81265" lon="-3.69939">
        <ele>12</ele>
        <time>2018-07-18T11:11:37Z</time>
      </trkpt>
      <trkpt lat="47.81265" lon="-3.69938">
        <ele>12</ele>
        <time>2018-07-18T11:11:38Z</time>
      </trkpt>
      <trkpt lat="47.81265" lon="-3.69936">
        <ele>12</ele>
        <time>2018-07-18T11:11:39Z</time>
      </trkpt>
      <trkpt lat="47.81264" lon="-3.69935">
        <ele>13</ele>
        <time>2018-07-18T11:11:40Z</time>
      </trkpt>
      <trkpt lat="47.81264" lon="-3.69933">
        <ele>13</ele>
        <time>2018-07-18T11:11:41Z</time>
      </trkpt>
      <trkpt lat="47.81263" lon="-3.69931">
        <ele>13</ele>
        <time>2018-07-18T11:11:42Z</time>
      </trkpt>
      <trkpt lat="47.81263" lon="-3.69929">
        <ele>13</ele>
        <time>2018-07-18T11:11:43Z</time>
      </trkpt>
      <trkpt lat="47.81262" lon="-3.69928">
        <ele>14</ele>
        <time>2018-07-18T11:11:44Z</time>
      </trkpt>
      <trkpt lat="47.81262" lon="-3.69925">
        <ele>14</ele>
        <time>2018-07-18T11:11:45Z</time>
      </trkpt>
      <trkpt lat="47.81262" lon="-3.69922">
        <ele>14</ele>
        <time>2018-07-18T11:11:46Z</time>
      </trkpt>
      <trkpt lat="47.81262" lon="-3.69919">
        <ele>15</ele>
        <time>2018-07-18T11:11:47Z</time>
      </trkpt>
      <trkpt lat="47.81262" lon="-3.69916">
        <ele>15</ele>
        <time>2018-07-18T11:11:48Z</time>
      </trkpt>
      <trkpt lat="47.81262" lon="-3.69914">
        <ele>15</ele>
        <time>2018-07-18T11:11:49Z</time>
      </trkpt>
      <trkpt lat="47.81263" lon="-3.69911">
        <ele>16</ele>
        <time>2018-07-18T11:11:50Z</time>
      </trkpt>
      <trkpt lat="47.81264" lon="-3.69909">
        <ele>16</ele>
        <time>2018-07-18T11:11:51Z</time>
      </trkpt>
      <trkpt lat="47.81264" lon="-3.69907">
        <ele>16</ele>
        <time>2018-07-18T11:11:52Z</time>
      </trkpt>
      <trkpt lat="47.81264" lon="-3.69905">
        <ele>17</ele>
        <time>2018-07-18T11:11:53Z</time>
      </trkpt>
      <trkpt lat="47.81263" lon="-3.69902">
        <ele>17</ele>
        <time>2018-07-18T11:11:54Z</time>
      </trkpt>
      <trkpt lat="47.81262" lon="-3.69899">
        <ele>17</ele>
        <time>2018-07-18T11:11:55Z</time>
      </trkpt>
      <trkpt lat="47.81261" lon="-3.69895">
        <ele>18</ele>
        <time>2018-07-18T11:11:56Z</time>
      </trkpt>
      <trkpt lat="47.81261" lon="-3.69892">
        <ele>18</ele>
        <time>2018-07-18T11:11:57Z</time>
      </trkpt>
      <trkpt lat="47.8126" lon="-3.69889">
        <ele>18</ele>
        <time>2018-07-18T11:11:58Z</time>
      </trkpt>
      <trkpt lat="47.8126" lon="-3.69887">
        <ele>19</ele>
        <time>2018-07-18T11:11:59Z</time>
      </trkpt>
      <trkpt lat="47.81259" lon="-3.69885">
        <ele>19</ele>
        <time>2018-07-18T11:12:00Z</time>
      </trkpt>
      <trkpt lat="47.81258" lon="-3.69882">
        <ele>19</ele>
        <time>2018-07-18T11:12:01Z</time>
      </trkpt>
      <trkpt lat="47.81258" lon="-3.6988">
        <ele>19</ele>
        <time>2018-07-18T11:12:02Z</time>
      </trkpt>
      <trkpt lat="47.81257" lon="-3.69879">
        <ele>20</ele>
        <time>2018-07-18T11:12:03Z</time>
      </trkpt>
      <trkpt lat="47.81256" lon="-3.69877">
        <ele>20</ele>
        <time>2018-07-18T11:12:04Z</time>
      </trkpt>
      <trkpt lat="47.81256" lon="-3.69876">
        <ele>20</ele>
        <time>2018-07-18T11:12:05Z</time>
      </trkpt>
      <trkpt lat="47.81256" lon="-3.69875">
        <ele>21</ele>
        <time>2018-07-18T11:12:06Z</time>
      </trkpt>
      <trkpt lat="47.81255" lon="-3.69874">
        <ele>21</ele>
        <time>2018-07-18T11:12:07Z</time>
      </trkpt>
      <trkpt lat="47.81255" lon="-3.69873">
        <ele>21</ele>
        <time>2018-07-18T11:12:08Z</time>
      </trkpt>
      <trkpt lat="47.81255" lon="-3.69872">
        <ele>21</ele>
        <time>2018-07-18T11:12:09Z</time>
      </trkpt>
      <trkpt lat="47.81254" lon="-3.69871">
        <ele>22</ele>
        <time>2018-07-18T11:12:10Z</time>
      </trkpt>
      <trkpt lat="47.81253" lon="-3.6987">
        <ele>22</ele>
        <time>2018-07-18T11:12:11Z</time>
      </trkpt>
      <trkpt lat="47.81253" lon="-3.69869">
        <ele>22</ele>
        <time>2018-07-18T11:12:12Z</time>
      </trkpt>
      <trkpt lat="47.81249" lon="-3.69865">
        <ele>22</ele>
        <time>2018-07-18T11:12:13Z</time>
      </trkpt>
      <trkpt lat="47.81249" lon="-3.69865">
        <ele>22</ele>
        <time>2018-07-18T11:12:14Z</time>
      </trkpt>
      <trkpt lat="47.81248" lon="-3.69865">
        <ele>22</ele>
        <time>2018-07-18T11:12:15Z</time>
      </trkpt>
      <trkpt lat="47.81248" lon="-3.69866">
        <ele>22</ele>
        <time>2018-07-18T11:12:16Z</time>
      </trkpt>
      <trkpt lat="47.81248" lon="-3.69866">
        <ele>22</ele>
        <time>2018-07-18T11:12:17Z</time>
      </trkpt>
      <trkpt lat="47.81247" lon="-3.69866">
        <ele>22</ele>
        <time>2018-07-18T11:12:18Z</time>
      </trkpt>
      <trkpt lat="47.81247" lon="-3.69866">
        <ele>22</ele>
        <time>2018-07-18T11:12:19Z</time>
      </trkpt>
      <trkpt lat="47.81246" lon="-3.69867">
        <ele>22</ele>
        <time>2018-07-18T11:12:20Z</time>
      </trkpt>
      <trkpt lat="47.81246" lon="-3.69867">
        <ele>22</ele>
        <time>2018-07-18T11:12:21Z</time>
      </trkpt>
      <trkpt lat="47.81245" lon="-3.69868">
        <ele>22</ele>
        <time>2018-07-18T11:12:22Z</time>
      </trkpt>
      <trkpt lat="47.81245" lon="-3.69868">
        <ele>22</ele>
        <time>2018-07-18T11:12:23Z</time>
      </trkpt>
      <trkpt lat="47.81245" lon="-3.69868">
        <ele>23</ele>
        <time>2018-07-18T11:12:24Z</time>
      </trkpt>
      <trkpt lat="47.81245" lon="-3.69868">
        <ele>23</ele>
        <time>2018-07-18T11:12:25Z</time>
      </trkpt>
      <trkpt lat="47.81244" lon="-3.69868">
        <ele>23</ele>
        <time>2018-07-18T11:12:26Z</time>
      </trkpt>
      <trkpt lat="47.81244" lon="-3.69869">
        <ele>23</ele>
        <time>2018-07-18T11:12:27Z</time>
      </trkpt>
      <trkpt lat="47.81242" lon="-3.69869">
        <ele>23</ele>
        <time>2018-07-18T11:12:28Z</time>
      </trkpt>
      <trkpt lat="47.81242" lon="-3.6987">
        <ele>23</ele>
        <time>2018-07-18T11:12:29Z</time>
      </trkpt>
      <trkpt lat="47.8124" lon="-3.69871">
        <ele>23</ele>
        <time>2018-07-18T11:12:30Z</time>
      </trkpt>
      <trkpt lat="47.81239" lon="-3.69873">
        <ele>23</ele>
        <time>2018-07-18T11:12:31Z</time>
      </trkpt>
      <trkpt lat="47.81238" lon="-3.69874">
        <ele>23</ele>
        <time>2018-07-18T11:12:32Z</time>
      </trkpt>
      <trkpt lat="47.81236" lon="-3.69876">
        <ele>23</ele>
        <time>2018-07-18T11:12:33Z</time>
      </trkpt>
      <trkpt lat="47.81235" lon="-3.69879">
        <ele>23</ele>
        <time>2018-07-18T11:12:34Z</time>
      </trkpt>
      <trkpt lat="47.81234" lon="-3.69882">
        <ele>23</ele>
        <time>2018-07-18T11:12:35Z</time>
      </trkpt>
      <trkpt lat="47.81233" lon="-3.69884">
        <ele>23</ele>
        <time>2018-07-18T11:12:36Z</time>
      </trkpt>
      <trkpt lat="47.81232" lon="-3.69887">
        <ele>23</ele>
        <time>2018-07-18T11:12:37Z</time>
      </trkpt>
      <trkpt lat="47.81232" lon="-3.6989">
        <ele>23</ele>
        <time>2018-07-18T11:12:38Z</time>
      </trkpt>
      <trkpt lat="47.81231" lon="-3.69892">
        <ele>23</ele>
        <time>2018-07-18T11:12:39Z</time>
      </trkpt>
      <trkpt lat="47.8123" lon="-3.69895">
        <ele>23</ele>
        <time>2018-07-18T11:12:40Z</time>
      </trkpt>
      <trkpt lat="47.81229" lon="-3.69899">
        <ele>23</ele>
        <time>2018-07-18T11:12:41Z</time>
      </trkpt>
      <trkpt lat="47.81228" lon="-3.69905">
        <ele>23</ele>
        <time>2018-07-18T11:12:42Z</time>
      </trkpt>
      <trkpt lat="47.81228" lon="-3.69911">
        <ele>23</ele>
        <time>2018-07-18T11:12:43Z</time>
      </trkpt>
      <trkpt lat="47.81228" lon="-3.69917">
        <ele>23</ele>
        <time>2018-07-18T11:12:44Z</time>
      </trkpt>
      <trkpt lat="47.81227" lon="-3.69922">
        <ele>23</ele>
        <time>2018-07-18T11:12:45Z</time>
      </trkpt>
      <trkpt lat="47.81226" lon="-3.69926">
        <ele>23</ele>
        <time>2018-07-18T11:12:46Z</time>
      </trkpt>
      <trkpt lat="47.81225" lon="-3.69929">
        <ele>23</ele>
        <time>2018-07-18T11:12:47Z</time>
      </trkpt>
      <trkpt lat="47.81225" lon="-3.69931">
        <ele>23</ele>
        <time>2018-07-18T11:12:48Z</time>
      </trkpt>
      <trkpt lat="47.81224" lon="-3.69934">
        <ele>23</ele>
        <time>2018-07-18T11:12:49Z</time>
      </trkpt>
      <trkpt lat="47.81223" lon="-3.69936">
        <ele>22</ele>
        <time>2018-07-18T11:12:50Z</time>
      </trkpt>
      <trkpt lat="47.81222" lon="-3.6994">
        <ele>22</ele>
        <time>2018-07-18T11:12:51Z</time>
      </trkpt>
      <trkpt lat="47.81221" lon="-3.69944">
        <ele>22</ele>
        <time>2018-07-18T11:12:52Z</time>
      </trkpt>
      <trkpt lat="47.8122" lon="-3.69948">
        <ele>22</ele>
        <time>2018-07-18T11:12:53Z</time>
      </trkpt>
      <trkpt lat="47.81219" lon="-3.69952">
        <ele>22</ele>
        <time>2018-07-18T11:12:54Z</time>
      </trkpt>
      <trkpt lat="47.81218" lon="-3.69954">
        <ele>22</ele>
        <time>2018-07-18T11:12:55Z</time>
      </trkpt>
      <trkpt lat="47.81217" lon="-3.69958">
        <ele>21</ele>
        <time>2018-07-18T11:12:56Z</time>
      </trkpt>
      <trkpt lat="47.81216" lon="-3.69963">
        <ele>21</ele>
        <time>2018-07-18T11:12:57Z</time>
      </trkpt>
      <trkpt lat="47.81215" lon="-3.69969">
        <ele>21</ele>
        <time>2018-07-18T11:12:58Z</time>
      </trkpt>
      <trkpt lat="47.81213" lon="-3.69974">
        <ele>21</ele>
        <time>2018-07-18T11:12:59Z</time>
      </trkpt>
      <trkpt lat="47.81213" lon="-3.6998">
        <ele>20</ele>
        <time>2018-07-18T11:13:00Z</time>
      </trkpt>
      <trkpt lat="47.81212" lon="-3.69984">
        <ele>20</ele>
        <time>2018-07-18T11:13:01Z</time>
      </trkpt>
      <trkpt lat="47.8121" lon="-3.69988">
        <ele>20</ele>
        <time>2018-07-18T11:13:02Z</time>
      </trkpt>
      <trkpt lat="47.8121" lon="-3.69992">
        <ele>20</ele>
        <time>2018-07-18T11:13:03Z</time>
      </trkpt>
      <trkpt lat="47.81208" lon="-3.69997">
        <ele>19</ele>
        <time>2018-07-18T11:13:04Z</time>
      </trkpt>
      <trkpt lat="47.81205" lon="-3.7">
        <ele>19</ele>
        <time>2018-07-18T11:13:05Z</time>
      </trkpt>
      <trkpt lat="47.81202" lon="-3.70001">
        <ele>19</ele>
        <time>2018-07-18T11:13:06Z</time>
      </trkpt>
      <trkpt lat="47.81199" lon="-3.70003">
        <ele>18</ele>
        <time>2018-07-18T11:13:07Z</time>
      </trkpt>
      <trkpt lat="47.81196" lon="-3.70004">
        <ele>18</ele>
        <time>2018-07-18T11:13:08Z</time>
      </trkpt>
      <trkpt lat="47.81192" lon="-3.70004">
        <ele>18</ele>
        <time>2018-07-18T11:13:09Z</time>
      </trkpt>
      <trkpt lat="47.81189" lon="-3.70003">
        <ele>18</ele>
        <time>2018-07-18T11:13:10Z</time>
      </trkpt>
      <trkpt lat="47.81186" lon="-3.70004">
        <ele>17</ele>
        <time>2018-07-18T11:13:11Z</time>
      </trkpt>
      <trkpt lat="47.81182" lon="-3.70004">
        <ele>17</ele>
        <time>2018-07-18T11:13:12Z</time>
      </trkpt>
      <trkpt lat="47.81179" lon="-3.70003">
        <ele>17</ele>
        <time>2018-07-18T11:13:13Z</time>
      </trkpt>
      <trkpt lat="47.81176" lon="-3.70004">
        <ele>17</ele>
        <time>2018-07-18T11:13:14Z</time>
      </trkpt>
      <trkpt lat="47.81173" lon="-3.70005">
        <ele>16</ele>
        <time>2018-07-18T11:13:15Z</time>
      </trkpt>
      <trkpt lat="47.8117" lon="-3.70007">
        <ele>16</ele>
        <time>2018-07-18T11:13:16Z</time>
      </trkpt>
      <trkpt lat="47.81167" lon="-3.70009">
        <ele>16</ele>
        <time>2018-07-18T11:13:17Z</time>
      </trkpt>
      <trkpt lat="47.81163" lon="-3.7001">
        <ele>16</ele>
        <time>2018-07-18T11:13:18Z</time>
      </trkpt>
      <trkpt lat="47.81159" lon="-3.70011">
        <ele>16</ele>
        <time>2018-07-18T11:13:19Z</time>
      </trkpt>
      <trkpt lat="47.81156" lon="-3.70013">
        <ele>16</ele>
        <time>2018-07-18T11:13:20Z</time>
      </trkpt>
      <trkpt lat="47.81154" lon="-3.70014">
        <ele>16</ele>
        <time>2018-07-18T11:13:21Z</time>
      </trkpt>
      <trkpt lat="47.8115" lon="-3.70016">
        <ele>16</ele>
        <time>2018-07-18T11:13:22Z</time>
      </trkpt>
      <trkpt lat="47.81147" lon="-3.70017">
        <ele>16</ele>
        <time>2018-07-18T11:13:23Z</time>
      </trkpt>
      <trkpt lat="47.81145" lon="-3.70019">
        <ele>16</ele>
        <time>2018-07-18T11:13:24Z</time>
      </trkpt>
      <trkpt lat="47.81143" lon="-3.7002">
        <ele>16</ele>
        <time>2018-07-18T11:13:25Z</time>
      </trkpt>
      <trkpt lat="47.81141" lon="-3.70021">
        <ele>16</ele>
        <time>2018-07-18T11:13:26Z</time>
      </trkpt>
      <trkpt lat="47.81139" lon="-3.70023">
        <ele>16</ele>
        <time>2018-07-18T11:13:27Z</time>
      </trkpt>
      <trkpt lat="47.81137" lon="-3.70024">
        <ele>16</ele>
        <time>2018-07-18T11:13:28Z</time>
      </trkpt>
      <trkpt lat="47.81135" lon="-3.70026">
        <ele>16</ele>
        <time>2018-07-18T11:13:29Z</time>
      </trkpt>
      <trkpt lat="47.81133" lon="-3.70027">
        <ele>16</ele>
        <time>2018-07-18T11:13:30Z</time>
      </trkpt>
      <trkpt lat="47.8113" lon="-3.70031">
        <ele>16</ele>
        <time>2018-07-18T11:13:31Z</time>
      </trkpt>
      <trkpt lat="47.81127" lon="-3.70036">
        <ele>16</ele>
        <time>2018-07-18T11:13:32Z</time>
      </trkpt>
      <trkpt lat="47.81125" lon="-3.7004">
        <ele>16</ele>
        <time>2018-07-18T11:13:33Z</time>
      </trkpt>
      <trkpt lat="47.81121" lon="-3.70043">
        <ele>16</ele>
        <time>2018-07-18T11:13:34Z</time>
      </trkpt>
      <trkpt lat="47.81118" lon="-3.70045">
        <ele>16</ele>
        <time>2018-07-18T11:13:35Z</time>
      </trkpt>
      <trkpt lat="47.81114" lon="-3.70048">
        <ele>15</ele>
        <time>2018-07-18T11:13:36Z</time>
      </trkpt>
      <trkpt lat="47.8111" lon="-3.7005">
        <ele>15</ele>
        <time>2018-07-18T11:13:37Z</time>
      </trkpt>
      <trkpt lat="47.81106" lon="-3.70053">
        <ele>15</ele>
        <time>2018-07-18T11:13:38Z</time>
      </trkpt>
      <trkpt lat="47.81102" lon="-3.70055">
        <ele>15</ele>
        <time>2018-07-18T11:13:39Z</time>
      </trkpt>
      <trkpt lat="47.81098" lon="-3.70057">
        <ele>15</ele>
        <time>2018-07-18T11:13:40Z</time>
      </trkpt>
      <trkpt lat="47.81094" lon="-3.70057">
        <ele>15</ele>
        <time>2018-07-18T11:13:41Z</time>
      </trkpt>
      <trkpt lat="47.81091" lon="-3.70057">
        <ele>15</ele>
        <time>2018-07-18T11:13:42Z</time>
      </trkpt>
      <trkpt lat="47.81087" lon="-3.70057">
        <ele>15</ele>
        <time>2018-07-18T11:13:43Z</time>
      </trkpt>
      <trkpt lat="47.81084" lon="-3.70056">
        <ele>15</ele>
        <time>2018-07-18T11:13:44Z</time>
      </trkpt>
      <trkpt lat="47.81081" lon="-3.70053">
        <ele>14</ele>
        <time>2018-07-18T11:13:45Z</time>
      </trkpt>
      <trkpt lat="47.81079" lon="-3.70051">
        <ele>14</ele>
        <time>2018-07-18T11:13:46Z</time>
      </trkpt>
      <trkpt lat="47.81077" lon="-3.70049">
        <ele>14</ele>
        <time>2018-07-18T11:13:47Z</time>
      </trkpt>
      <trkpt lat="47.81075" lon="-3.70047">
        <ele>14</ele>
        <time>2018-07-18T11:13:48Z</time>
      </trkpt>
      <trkpt lat="47.81072" lon="-3.70045">
        <ele>14</ele>
        <time>2018-07-18T11:13:49Z</time>
      </trkpt>
      <trkpt lat="47.81069" lon="-3.70042">
        <ele>14</ele>
        <time>2018-07-18T11:13:50Z</time>
      </trkpt>
      <trkpt lat="47.81066" lon="-3.70039">
        <ele>14</ele>
        <time>2018-07-18T11:13:51Z</time>
      </trkpt>
      <trkpt lat="47.81063" lon="-3.70036">
        <ele>14</ele>
        <time>2018-07-18T11:13:52Z</time>
      </trkpt>
      <trkpt lat="47.8106" lon="-3.70033">
        <ele>14</ele>
        <time>2018-07-18T11:13:53Z</time>
      </trkpt>
      <trkpt lat="47.81058" lon="-3.7003">
        <ele>14</ele>
        <time>2018-07-18T11:13:54Z</time>
      </trkpt>
      <trkpt lat="47.81057" lon="-3.70027">
        <ele>14</ele>
        <time>2018-07-18T11:13:55Z</time>
      </trkpt>
      <trkpt lat="47.81056" lon="-3.70024">
        <ele>14</ele>
        <time>2018-07-18T11:13:56Z</time>
      </trkpt>
      <trkpt lat="47.81055" lon="-3.70023">
        <ele>14</ele>
        <time>2018-07-18T11:13:57Z</time>
      </trkpt>
      <trkpt lat="47.81054" lon="-3.70021">
        <ele>14</ele>
        <time>2018-07-18T11:13:58Z</time>
      </trkpt>
      <trkpt lat="47.81053" lon="-3.70019">
        <ele>14</ele>
        <time>2018-07-18T11:13:59Z</time>
      </trkpt>
      <trkpt lat="47.81051" lon="-3.70018">
        <ele>14</ele>
        <time>2018-07-18T11:14:00Z</time>
      </trkpt>
      <trkpt lat="47.81049" lon="-3.70017">
        <ele>14</ele>
        <time>2018-07-18T11:14:01Z</time>
      </trkpt>
      <trkpt lat="47.81047" lon="-3.70015">
        <ele>14</ele>
        <time>2018-07-18T11:14:02Z</time>
      </trkpt>
      <trkpt lat="47.81043" lon="-3.70011">
        <ele>14</ele>
        <time>2018-07-18T11:14:03Z</time>
      </trkpt>
      <trkpt lat="47.81041" lon="-3.70007">
        <ele>14</ele>
        <time>2018-07-18T11:14:04Z</time>
      </trkpt>
      <trkpt lat="47.81039" lon="-3.70004">
        <ele>14</ele>
        <time>2018-07-18T11:14:05Z</time>
      </trkpt>
      <trkpt lat="47.81036" lon="-3.70001">
        <ele>14</ele>
        <time>2018-07-18T11:14:06Z</time>
      </trkpt>
      <trkpt lat="47.81034" lon="-3.69998">
        <ele>14</ele>
        <time>2018-07-18T11:14:07Z</time>
      </trkpt>
      <trkpt lat="47.81032" lon="-3.69995">
        <ele>14</ele>
        <time>2018-07-18T11:14:08Z</time>
      </trkpt>
      <trkpt lat="47.81028" lon="-3.69993">
        <ele>14</ele>
        <time>2018-07-18T11:14:09Z</time>
      </trkpt>
      <trkpt lat="47.81024" lon="-3.69992">
        <ele>14</ele>
        <time>2018-07-18T11:14:10Z</time>
      </trkpt>
      <trkpt lat="47.8102" lon="-3.69991">
        <ele>14</ele>
        <time>2018-07-18T11:14:11Z</time>
      </trkpt>
      <trkpt lat="47.81017" lon="-3.69988">
        <ele>14</ele>
        <time>2018-07-18T11:14:12Z</time>
      </trkpt>
      <trkpt lat="47.81014" lon="-3.69986">
        <ele>14</ele>
        <time>2018-07-18T11:14:13Z</time>
      </trkpt>
      <trkpt lat="47.81011" lon="-3.69984">
        <ele>14</ele>
        <time>2018-07-18T11:14:14Z</time>
      </trkpt>
      <trkpt lat="47.81008" lon="-3.69982">
        <ele>14</ele>
        <time>2018-07-18T11:14:15Z</time>
      </trkpt>
      <trkpt lat="47.81005" lon="-3.6998">
        <ele>14</ele>
        <time>2018-07-18T11:14:16Z</time>
      </trkpt>
      <trkpt lat="47.81001" lon="-3.69979">
        <ele>14</ele>
        <time>2018-07-18T11:14:17Z</time>
      </trkpt>
      <trkpt lat="47.80998" lon="-3.69978">
        <ele>13</ele>
        <time>2018-07-18T11:14:18Z</time>
      </trkpt>
      <trkpt lat="47.80995" lon="-3.69977">
        <ele>13</ele>
        <time>2018-07-18T11:14:19Z</time>
      </trkpt>
      <trkpt lat="47.80992" lon="-3.69975">
        <ele>13</ele>
        <time>2018-07-18T11:14:20Z</time>
      </trkpt>
      <trkpt lat="47.80989" lon="-3.69974">
        <ele>13</ele>
        <time>2018-07-18T11:14:21Z</time>
      </trkpt>
      <trkpt lat="47.80986" lon="-3.69973">
        <ele>13</ele>
        <time>2018-07-18T11:14:22Z</time>
      </trkpt>
      <trkpt lat="47.80982" lon="-3.69973">
        <ele>13</ele>
        <time>2018-07-18T11:14:23Z</time>
      </trkpt>
      <trkpt lat="47.80979" lon="-3.69973">
        <ele>13</ele>
        <time>2018-07-18T11:14:24Z</time>
      </trkpt>
      <trkpt lat="47.80976" lon="-3.69973">
        <ele>13</ele>
        <time>2018-07-18T11:14:25Z</time>
      </trkpt>
      <trkpt lat="47.80972" lon="-3.69972">
        <ele>13</ele>
        <time>2018-07-18T11:14:26Z</time>
      </trkpt>
      <trkpt lat="47.80968" lon="-3.69971">
        <ele>13</ele>
        <time>2018-07-18T11:14:27Z</time>
      </trkpt>
      <trkpt lat="47.80965" lon="-3.69972">
        <ele>13</ele>
        <time>2018-07-18T11:14:28Z</time>
      </trkpt>
      <trkpt lat="47.80962" lon="-3.69972">
        <ele>13</ele>
        <time>2018-07-18T11:14:29Z</time>
      </trkpt>
      <trkpt lat="47.80959" lon="-3.69973">
        <ele>13</ele>
        <time>2018-07-18T11:14:30Z</time>
      </trkpt>
      <trkpt lat="47.80956" lon="-3.69973">
        <ele>13</ele>
        <time>2018-07-18T11:14:31Z</time>
      </trkpt>
      <trkpt lat="47.80952" lon="-3.69973">
        <ele>13</ele>
        <time>2018-07-18T11:14:32Z</time>
      </trkpt>
      <trkpt lat="47.80949" lon="-3.69973">
        <ele>13</ele>
        <time>2018-07-18T11:14:33Z</time>
      </trkpt>
      <trkpt lat="47.80947" lon="-3.69973">
        <ele>13</ele>
        <time>2018-07-18T11:14:34Z</time>
      </trkpt>
      <trkpt lat="47.80943" lon="-3.69974">
        <ele>13</ele>
        <time>2018-07-18T11:14:35Z</time>
      </trkpt>
      <trkpt lat="47.8094" lon="-3.69975">
        <ele>13</ele>
        <time>2018-07-18T11:14:36Z</time>
      </trkpt>
      <trkpt lat="47.80937" lon="-3.69976">
        <ele>13</ele>
        <time>2018-07-18T11:14:37Z</time>
      </trkpt>
      <trkpt lat="47.80935" lon="-3.69977">
        <ele>13</ele>
        <time>2018-07-18T11:14:38Z</time>
      </trkpt>
      <trkpt lat="47.80933" lon="-3.69978">
        <ele>13</ele>
        <time>2018-07-18T11:14:39Z</time>
      </trkpt>
      <trkpt lat="47.8093" lon="-3.69979">
        <ele>13</ele>
        <time>2018-07-18T11:14:40Z</time>
      </trkpt>
      <trkpt lat="47.80928" lon="-3.69981">
        <ele>13</ele>
        <time>2018-07-18T11:14:41Z</time>
      </trkpt>
      <trkpt lat="47.80925" lon="-3.69984">
        <ele>13</ele>
        <time>2018-07-18T11:14:42Z</time>
      </trkpt>
      <trkpt lat="47.80921" lon="-3.69987">
        <ele>12</ele>
        <time>2018-07-18T11:14:43Z</time>
      </trkpt>
      <trkpt lat="47.80917" lon="-3.6999">
        <ele>12</ele>
        <time>2018-07-18T11:14:44Z</time>
      </trkpt>
      <trkpt lat="47.80914" lon="-3.69993">
        <ele>12</ele>
        <time>2018-07-18T11:14:45Z</time>
      </trkpt>
      <trkpt lat="47.8091" lon="-3.69996">
        <ele>12</ele>
        <time>2018-07-18T11:14:46Z</time>
      </trkpt>
      <trkpt lat="47.80905" lon="-3.7">
        <ele>12</ele>
        <time>2018-07-18T11:14:47Z</time>
      </trkpt>
      <trkpt lat="47.80901" lon="-3.70003">
        <ele>12</ele>
        <time>2018-07-18T11:14:48Z</time>
      </trkpt>
      <trkpt lat="47.80897" lon="-3.70005">
        <ele>12</ele>
        <time>2018-07-18T11:14:49Z</time>
      </trkpt>
      <trkpt lat="47.80893" lon="-3.70006">
        <ele>12</ele>
        <time>2018-07-18T11:14:50Z</time>
      </trkpt>
      <trkpt lat="47.8089" lon="-3.70007">
        <ele>11</ele>
        <time>2018-07-18T11:14:51Z</time>
      </trkpt>
      <trkpt lat="47.80887" lon="-3.70007">
        <ele>11</ele>
        <time>2018-07-18T11:14:52Z</time>
      </trkpt>
      <trkpt lat="47.80885" lon="-3.70005">
        <ele>11</ele>
        <time>2018-07-18T11:14:53Z</time>
      </trkpt>
      <trkpt lat="47.80883" lon="-3.70004">
        <ele>11</ele>
        <time>2018-07-18T11:14:54Z</time>
      </trkpt>
      <trkpt lat="47.80881" lon="-3.70003">
        <ele>11</ele>
        <time>2018-07-18T11:14:55Z</time>
      </trkpt>
      <trkpt lat="47.8088" lon="-3.70003">
        <ele>11</ele>
        <time>2018-07-18T11:14:56Z</time>
      </trkpt>
      <trkpt lat="47.80879" lon="-3.70003">
        <ele>11</ele>
        <time>2018-07-18T11:14:57Z</time>
      </trkpt>
      <trkpt lat="47.80878" lon="-3.70004">
        <ele>11</ele>
        <time>2018-07-18T11:14:58Z</time>
      </trkpt>
      <trkpt lat="47.80877" lon="-3.70003">
        <ele>11</ele>
        <time>2018-07-18T11:14:59Z</time>
      </trkpt>
      <trkpt lat="47.80876" lon="-3.70003">
        <ele>11</ele>
        <time>2018-07-18T11:15:00Z</time>
      </trkpt>
      <trkpt lat="47.80875" lon="-3.70003">
        <ele>11</ele>
        <time>2018-07-18T11:15:01Z</time>
      </trkpt>
      <trkpt lat="47.80874" lon="-3.70001">
        <ele>11</ele>
        <time>2018-07-18T11:15:02Z</time>
      </trkpt>
      <trkpt lat="47.80874" lon="-3.7">
        <ele>11</ele>
        <time>2018-07-18T11:15:03Z</time>
      </trkpt>
      <trkpt lat="47.80873" lon="-3.7">
        <ele>11</ele>
        <time>2018-07-18T11:15:04Z</time>
      </trkpt>
      <trkpt lat="47.80872" lon="-3.69999">
        <ele>10</ele>
        <time>2018-07-18T11:15:05Z</time>
      </trkpt>
      <trkpt lat="47.80872" lon="-3.69998">
        <ele>10</ele>
        <time>2018-07-18T11:15:06Z</time>
      </trkpt>
      <trkpt lat="47.80872" lon="-3.69997">
        <ele>10</ele>
        <time>2018-07-18T11:15:07Z</time>
      </trkpt>
      <trkpt lat="47.80871" lon="-3.69997">
        <ele>10</ele>
        <time>2018-07-18T11:15:08Z</time>
      </trkpt>
      <trkpt lat="47.80871" lon="-3.69996">
        <ele>10</ele>
        <time>2018-07-18T11:15:09Z</time>
      </trkpt>
      <trkpt lat="47.80871" lon="-3.69994">
        <ele>10</ele>
        <time>2018-07-18T11:15:10Z</time>
      </trkpt>
      <trkpt lat="47.8087" lon="-3.69992">
        <ele>10</ele>
        <time>2018-07-18T11:15:11Z</time>
      </trkpt>
      <trkpt lat="47.8087" lon="-3.69989">
        <ele>11</ele>
        <time>2018-07-18T11:15:12Z</time>
      </trkpt>
      <trkpt lat="47.80869" lon="-3.69986">
        <ele>11</ele>
        <time>2018-07-18T11:15:13Z</time>
      </trkpt>
      <trkpt lat="47.80868" lon="-3.69983">
        <ele>11</ele>
        <time>2018-07-18T11:15:14Z</time>
      </trkpt>
      <trkpt lat="47.80867" lon="-3.6998">
        <ele>11</ele>
        <time>2018-07-18T11:15:15Z</time>
      </trkpt>
      <trkpt lat="47.80867" lon="-3.69978">
        <ele>11</ele>
        <time>2018-07-18T11:15:16Z</time>
      </trkpt>
      <trkpt lat="47.80867" lon="-3.69975">
        <ele>11</ele>
        <time>2018-07-18T11:15:17Z</time>
      </trkpt>
      <trkpt lat="47.80867" lon="-3.69972">
        <ele>11</ele>
        <time>2018-07-18T11:15:18Z</time>
      </trkpt>
      <trkpt lat="47.80866" lon="-3.69969">
        <ele>11</ele>
        <time>2018-07-18T11:15:19Z</time>
      </trkpt>
      <trkpt lat="47.80865" lon="-3.69964">
        <ele>12</ele>
        <time>2018-07-18T11:15:20Z</time>
      </trkpt>
      <trkpt lat="47.80864" lon="-3.6996">
        <ele>12</ele>
        <time>2018-07-18T11:15:21Z</time>
      </trkpt>
      <trkpt lat="47.80864" lon="-3.69956">
        <ele>12</ele>
        <time>2018-07-18T11:15:22Z</time>
      </trkpt>
      <trkpt lat="47.80864" lon="-3.69951">
        <ele>12</ele>
        <time>2018-07-18T11:15:23Z</time>
      </trkpt>
      <trkpt lat="47.80864" lon="-3.69948">
        <ele>12</ele>
        <time>2018-07-18T11:15:24Z</time>
      </trkpt>
      <trkpt lat="47.80864" lon="-3.69946">
        <ele>12</ele>
        <time>2018-07-18T11:15:25Z</time>
      </trkpt>
      <trkpt lat="47.80864" lon="-3.69944">
        <ele>12</ele>
        <time>2018-07-18T11:15:26Z</time>
      </trkpt>
      <trkpt lat="47.80864" lon="-3.69942">
        <ele>12</ele>
        <time>2018-07-18T11:15:27Z</time>
      </trkpt>
      <trkpt lat="47.80864" lon="-3.69941">
        <ele>13</ele>
        <time>2018-07-18T11:15:28Z</time>
      </trkpt>
      <trkpt lat="47.80864" lon="-3.6994">
        <ele>13</ele>
        <time>2018-07-18T11:15:29Z</time>
      </trkpt>
      <trkpt lat="47.80864" lon="-3.69938">
        <ele>13</ele>
        <time>2018-07-18T11:15:30Z</time>
      </trkpt>
      <trkpt lat="47.80864" lon="-3.69935">
        <ele>13</ele>
        <time>2018-07-18T11:15:31Z</time>
      </trkpt>
      <trkpt lat="47.80864" lon="-3.69932">
        <ele>13</ele>
        <time>2018-07-18T11:15:32Z</time>
      </trkpt>
      <trkpt lat="47.80864" lon="-3.69929">
        <ele>13</ele>
        <time>2018-07-18T11:15:33Z</time>
      </trkpt>
      <trkpt lat="47.80864" lon="-3.69927">
        <ele>13</ele>
        <time>2018-07-18T11:15:34Z</time>
      </trkpt>
      <trkpt lat="47.80864" lon="-3.69924">
        <ele>13</ele>
        <time>2018-07-18T11:15:35Z</time>
      </trkpt>
      <trkpt lat="47.80863" lon="-3.69921">
        <ele>13</ele>
        <time>2018-07-18T11:15:36Z</time>
      </trkpt>
      <trkpt lat="47.80863" lon="-3.69919">
        <ele>13</ele>
        <time>2018-07-18T11:15:37Z</time>
      </trkpt>
      <trkpt lat="47.80863" lon="-3.69918">
        <ele>13</ele>
        <time>2018-07-18T11:15:38Z</time>
      </trkpt>
      <trkpt lat="47.80863" lon="-3.69916">
        <ele>13</ele>
        <time>2018-07-18T11:15:39Z</time>
      </trkpt>
      <trkpt lat="47.80863" lon="-3.69915">
        <ele>13</ele>
        <time>2018-07-18T11:15:40Z</time>
      </trkpt>
      <trkpt lat="47.80863" lon="-3.69915">
        <ele>14</ele>
        <time>2018-07-18T11:15:41Z</time>
      </trkpt>
      <trkpt lat="47.8086" lon="-3.69909">
        <ele>14</ele>
        <time>2018-07-18T11:15:42Z</time>
      </trkpt>
      <trkpt lat="47.80859" lon="-3.69908">
        <ele>14</ele>
        <time>2018-07-18T11:15:43Z</time>
      </trkpt>
      <trkpt lat="47.80858" lon="-3.69908">
        <ele>14</ele>
        <time>2018-07-18T11:15:44Z</time>
      </trkpt>
      <trkpt lat="47.80857" lon="-3.69908">
        <ele>14</ele>
        <time>2018-07-18T11:15:45Z</time>
      </trkpt>
      <trkpt lat="47.80856" lon="-3.69908">
        <ele>14</ele>
        <time>2018-07-18T11:15:46Z</time>
      </trkpt>
      <trkpt lat="47.80855" lon="-3.69908">
        <ele>14</ele>
        <time>2018-07-18T11:15:47Z</time>
      </trkpt>
      <trkpt lat="47.80855" lon="-3.69908">
        <ele>14</ele>
        <time>2018-07-18T11:15:48Z</time>
      </trkpt>
      <trkpt lat="47.80854" lon="-3.69908">
        <ele>14</ele>
        <time>2018-07-18T11:15:49Z</time>
      </trkpt>
      <trkpt lat="47.80854" lon="-3.69909">
        <ele>14</ele>
        <time>2018-07-18T11:15:50Z</time>
      </trkpt>
      <trkpt lat="47.80854" lon="-3.6991">
        <ele>14</ele>
        <time>2018-07-18T11:15:51Z</time>
      </trkpt>
      <trkpt lat="47.80855" lon="-3.6991">
        <ele>14</ele>
        <time>2018-07-18T11:15:52Z</time>
      </trkpt>
      <trkpt lat="47.80855" lon="-3.6991">
        <ele>14</ele>
        <time>2018-07-18T11:15:53Z</time>
      </trkpt>
      <trkpt lat="47.80854" lon="-3.69911">
        <ele>14</ele>
        <time>2018-07-18T11:15:54Z</time>
      </trkpt>
      <trkpt lat="47.80854" lon="-3.6991">
        <ele>14</ele>
        <time>2018-07-18T11:15:55Z</time>
      </trkpt>
      <trkpt lat="47.80854" lon="-3.6991">
        <ele>14</ele>
        <time>2018-07-18T11:15:56Z</time>
      </trkpt>
      <trkpt lat="47.80853" lon="-3.69912">
        <ele>14</ele>
        <time>2018-07-18T11:15:57Z</time>
      </trkpt>
      <trkpt lat="47.80852" lon="-3.69914">
        <ele>14</ele>
        <time>2018-07-18T11:15:58Z</time>
      </trkpt>
      <trkpt lat="47.80852" lon="-3.69915">
        <ele>14</ele>
        <time>2018-07-18T11:15:59Z</time>
      </trkpt>
      <trkpt lat="47.80851" lon="-3.69916">
        <ele>14</ele>
        <time>2018-07-18T11:16:00Z</time>
      </trkpt>
      <trkpt lat="47.8085" lon="-3.69918">
        <ele>15</ele>
        <time>2018-07-18T11:16:01Z</time>
      </trkpt>
      <trkpt lat="47.80849" lon="-3.6992">
        <ele>15</ele>
        <time>2018-07-18T11:16:02Z</time>
      </trkpt>
      <trkpt lat="47.80848" lon="-3.69923">
        <ele>15</ele>
        <time>2018-07-18T11:16:03Z</time>
      </trkpt>
      <trkpt lat="47.80848" lon="-3.69926">
        <ele>15</ele>
        <time>2018-07-18T11:16:04Z</time>
      </trkpt>
      <trkpt lat="47.80847" lon="-3.69928">
        <ele>15</ele>
        <time>2018-07-18T11:16:05Z</time>
      </trkpt>
      <trkpt lat="47.80846" lon="-3.6993">
        <ele>15</ele>
        <time>2018-07-18T11:16:06Z</time>
      </trkpt>
      <trkpt lat="47.80845" lon="-3.69932">
        <ele>15</ele>
        <time>2018-07-18T11:16:07Z</time>
      </trkpt>
      <trkpt lat="47.80845" lon="-3.69935">
        <ele>15</ele>
        <time>2018-07-18T11:16:08Z</time>
      </trkpt>
      <trkpt lat="47.80844" lon="-3.69937">
        <ele>15</ele>
        <time>2018-07-18T11:16:09Z</time>
      </trkpt>
      <trkpt lat="47.80844" lon="-3.6994">
        <ele>15</ele>
        <time>2018-07-18T11:16:10Z</time>
      </trkpt>
      <trkpt lat="47.80844" lon="-3.69944">
        <ele>15</ele>
        <time>2018-07-18T11:16:11Z</time>
      </trkpt>
      <trkpt lat="47.80844" lon="-3.69948">
        <ele>15</ele>
        <time>2018-07-18T11:16:12Z</time>
      </trkpt>
      <trkpt lat="47.80843" lon="-3.69951">
        <ele>15</ele>
        <time>2018-07-18T11:16:13Z</time>
      </trkpt>
      <trkpt lat="47.80842" lon="-3.69954">
        <ele>15</ele>
        <time>2018-07-18T11:16:14Z</time>
      </trkpt>
      <trkpt lat="47.8084" lon="-3.69958">
        <ele>15</ele>
        <time>2018-07-18T11:16:15Z</time>
      </trkpt>
      <trkpt lat="47.80839" lon="-3.6996">
        <ele>15</ele>
        <time>2018-07-18T11:16:16Z</time>
      </trkpt>
      <trkpt lat="47.80838" lon="-3.69962">
        <ele>15</ele>
        <time>2018-07-18T11:16:17Z</time>
      </trkpt>
      <trkpt lat="47.80837" lon="-3.69963">
        <ele>15</ele>
        <time>2018-07-18T11:16:18Z</time>
      </trkpt>
      <trkpt lat="47.80836" lon="-3.69965">
        <ele>15</ele>
        <time>2018-07-18T11:16:19Z</time>
      </trkpt>
      <trkpt lat="47.80836" lon="-3.69967">
        <ele>15</ele>
        <time>2018-07-18T11:16:20Z</time>
      </trkpt>
      <trkpt lat="47.80836" lon="-3.69968">
        <ele>16</ele>
        <time>2018-07-18T11:16:21Z</time>
      </trkpt>
      <trkpt lat="47.80836" lon="-3.6997">
        <ele>16</ele>
        <time>2018-07-18T11:16:22Z</time>
      </trkpt>
      <trkpt lat="47.80836" lon="-3.69971">
        <ele>16</ele>
        <time>2018-07-18T11:16:23Z</time>
      </trkpt>
      <trkpt lat="47.80836" lon="-3.69972">
        <ele>16</ele>
        <time>2018-07-18T11:16:24Z</time>
      </trkpt>
      <trkpt lat="47.80835" lon="-3.69974">
        <ele>16</ele>
        <time>2018-07-18T11:16:25Z</time>
      </trkpt>
      <trkpt lat="47.80835" lon="-3.69975">
        <ele>16</ele>
        <time>2018-07-18T11:16:26Z</time>
      </trkpt>
      <trkpt lat="47.80835" lon="-3.69977">
        <ele>16</ele>
        <time>2018-07-18T11:16:27Z</time>
      </trkpt>
      <trkpt lat="47.80834" lon="-3.69979">
        <ele>16</ele>
        <time>2018-07-18T11:16:28Z</time>
      </trkpt>
      <trkpt lat="47.80834" lon="-3.69981">
        <ele>15</ele>
        <time>2018-07-18T11:16:29Z</time>
      </trkpt>
      <trkpt lat="47.80834" lon="-3.69983">
        <ele>15</ele>
        <time>2018-07-18T11:16:30Z</time>
      </trkpt>
      <trkpt lat="47.80835" lon="-3.69985">
        <ele>15</ele>
        <time>2018-07-18T11:16:31Z</time>
      </trkpt>
      <trkpt lat="47.80836" lon="-3.69988">
        <ele>15</ele>
        <time>2018-07-18T11:16:32Z</time>
      </trkpt>
      <trkpt lat="47.80837" lon="-3.69991">
        <ele>15</ele>
        <time>2018-07-18T11:16:33Z</time>
      </trkpt>
      <trkpt lat="47.80838" lon="-3.69995">
        <ele>15</ele>
        <time>2018-07-18T11:16:34Z</time>
      </trkpt>
      <trkpt lat="47.80838" lon="-3.69998">
        <ele>14</ele>
        <time>2018-07-18T11:16:35Z</time>
      </trkpt>
      <trkpt lat="47.80838" lon="-3.70002">
        <ele>14</ele>
        <time>2018-07-18T11:16:36Z</time>
      </trkpt>
      <trkpt lat="47.80838" lon="-3.70006">
        <ele>14</ele>
        <time>2018-07-18T11:16:37Z</time>
      </trkpt>
      <trkpt lat="47.80837" lon="-3.70009">
        <ele>14</ele>
        <time>2018-07-18T11:16:38Z</time>
      </trkpt>
      <trkpt lat="47.80835" lon="-3.70011">
        <ele>14</ele>
        <time>2018-07-18T11:16:39Z</time>
      </trkpt>
      <trkpt lat="47.80833" lon="-3.70013">
        <ele>13</ele>
        <time>2018-07-18T11:16:40Z</time>
      </trkpt>
      <trkpt lat="47.80831" lon="-3.70015">
        <ele>13</ele>
        <time>2018-07-18T11:16:41Z</time>
      </trkpt>
      <trkpt lat="47.80829" lon="-3.70017">
        <ele>13</ele>
        <time>2018-07-18T11:16:42Z</time>
      </trkpt>
      <trkpt lat="47.80828" lon="-3.70021">
        <ele>13</ele>
        <time>2018-07-18T11:16:43Z</time>
      </trkpt>
      <trkpt lat="47.80826" lon="-3.70024">
        <ele>13</ele>
        <time>2018-07-18T11:16:44Z</time>
      </trkpt>
      <trkpt lat="47.80825" lon="-3.70028">
        <ele>13</ele>
        <time>2018-07-18T11:16:45Z</time>
      </trkpt>
      <trkpt lat="47.80823" lon="-3.70031">
        <ele>13</ele>
        <time>2018-07-18T11:16:46Z</time>
      </trkpt>
      <trkpt lat="47.80821" lon="-3.70034">
        <ele>12</ele>
        <time>2018-07-18T11:16:47Z</time>
      </trkpt>
      <trkpt lat="47.8082" lon="-3.70037">
        <ele>12</ele>
        <time>2018-07-18T11:16:48Z</time>
      </trkpt>
      <trkpt lat="47.80819" lon="-3.70039">
        <ele>12</ele>
        <time>2018-07-18T11:16:49Z</time>
      </trkpt>
      <trkpt lat="47.80818" lon="-3.70041">
        <ele>12</ele>
        <time>2018-07-18T11:16:50Z</time>
      </trkpt>
      <trkpt lat="47.80818" lon="-3.70041">
        <ele>12</ele>
        <time>2018-07-18T11:16:51Z</time>
      </trkpt>
      <trkpt lat="47.80817" lon="-3.70042">
        <ele>12</ele>
        <time>2018-07-18T11:16:52Z</time>
      </trkpt>
      <trkpt lat="47.80817" lon="-3.70043">
        <ele>12</ele>
        <time>2018-07-18T11:16:53Z</time>
      </trkpt>
      <trkpt lat="47.80816" lon="-3.70043">
        <ele>12</ele>
        <time>2018-07-18T11:16:54Z</time>
      </trkpt>
      <trkpt lat="47.80816" lon="-3.70044">
        <ele>12</ele>
        <time>2018-07-18T11:16:55Z</time>
      </trkpt>
      <trkpt lat="47.80815" lon="-3.70044">
        <ele>12</ele>
        <time>2018-07-18T11:16:56Z</time>
      </trkpt>
      <trkpt lat="47.80815" lon="-3.70045">
        <ele>12</ele>
        <time>2018-07-18T11:16:57Z</time>
      </trkpt>
      <trkpt lat="47.80813" lon="-3.7005">
        <ele>11</ele>
        <time>2018-07-18T11:16:58Z</time>
      </trkpt>
      <trkpt lat="47.80812" lon="-3.70052">
        <ele>11</ele>
        <time>2018-07-18T11:16:59Z</time>
      </trkpt>
      <trkpt lat="47.80812" lon="-3.70053">
        <ele>11</ele>
        <time>2018-07-18T11:17:00Z</time>
      </trkpt>
      <trkpt lat="47.80812" lon="-3.70055">
        <ele>11</ele>
        <time>2018-07-18T11:17:01Z</time>
      </trkpt>
      <trkpt lat="47.80813" lon="-3.70056">
        <ele>11</ele>
        <time>2018-07-18T11:17:02Z</time>
      </trkpt>
      <trkpt lat="47.80814" lon="-3.70058">
        <ele>11</ele>
        <time>2018-07-18T11:17:03Z</time>
      </trkpt>
      <trkpt lat="47.80814" lon="-3.7006">
        <ele>11</ele>
        <time>2018-07-18T11:17:04Z</time>
      </trkpt>
      <trkpt lat="47.80814" lon="-3.70062">
        <ele>11</ele>
        <time>2018-07-18T11:17:05Z</time>
      </trkpt>
      <trkpt lat="47.80814" lon="-3.70065">
        <ele>11</ele>
        <time>2018-07-18T11:17:06Z</time>
      </trkpt>
      <trkpt lat="47.80814" lon="-3.70066">
        <ele>11</ele>
        <time>2018-07-18T11:17:07Z</time>
      </trkpt>
      <trkpt lat="47.80814" lon="-3.70067">
        <ele>11</ele>
        <time>2018-07-18T11:17:08Z</time>
      </trkpt>
      <trkpt lat="47.80814" lon="-3.70068">
        <ele>11</ele>
        <time>2018-07-18T11:17:09Z</time>
      </trkpt>
      <trkpt lat="47.80813" lon="-3.70069">
        <ele>11</ele>
        <time>2018-07-18T11:17:10Z</time>
      </trkpt>
      <trkpt lat="47.80813" lon="-3.7007">
        <ele>11</ele>
        <time>2018-07-18T11:17:11Z</time>
      </trkpt>
      <trkpt lat="47.80813" lon="-3.7007">
        <ele>11</ele>
        <time>2018-07-18T11:17:12Z</time>
      </trkpt>
      <trkpt lat="47.80813" lon="-3.70072">
        <ele>11</ele>
        <time>2018-07-18T11:17:13Z</time>
      </trkpt>
      <trkpt lat="47.80813" lon="-3.70073">
        <ele>11</ele>
        <time>2018-07-18T11:17:14Z</time>
      </trkpt>
      <trkpt lat="47.80813" lon="-3.70074">
        <ele>11</ele>
        <time>2018-07-18T11:17:15Z</time>
      </trkpt>
      <trkpt lat="47.80814" lon="-3.70075">
        <ele>11</ele>
        <time>2018-07-18T11:17:16Z</time>
      </trkpt>
      <trkpt lat="47.80814" lon="-3.70075">
        <ele>11</ele>
        <time>2018-07-18T11:17:17Z</time>
      </trkpt>
      <trkpt lat="47.80814" lon="-3.70076">
        <ele>11</ele>
        <time>2018-07-18T11:17:18Z</time>
      </trkpt>
      <trkpt lat="47.80814" lon="-3.70077">
        <ele>11</ele>
        <time>2018-07-18T11:17:19Z</time>
      </trkpt>
      <trkpt lat="47.80814" lon="-3.70077">
        <ele>11</ele>
        <time>2018-07-18T11:17:20Z</time>
      </trkpt>
      <trkpt lat="47.80814" lon="-3.70077">
        <ele>11</ele>
        <time>2018-07-18T11:17:21Z</time>
      </trkpt>
      <trkpt lat="47.80816" lon="-3.7008">
        <ele>11</ele>
        <time>2018-07-18T11:17:22Z</time>
      </trkpt>
      <trkpt lat="47.80817" lon="-3.70081">
        <ele>11</ele>
        <time>2018-07-18T11:17:23Z</time>
      </trkpt>
      <trkpt lat="47.80818" lon="-3.70082">
        <ele>11</ele>
        <time>2018-07-18T11:17:24Z</time>
      </trkpt>
      <trkpt lat="47.8082" lon="-3.70084">
        <ele>11</ele>
        <time>2018-07-18T11:17:25Z</time>
      </trkpt>
      <trkpt lat="47.8082" lon="-3.70084">
        <ele>11</ele>
        <time>2018-07-18T11:17:26Z</time>
      </trkpt>
      <trkpt lat="47.80822" lon="-3.70085">
        <ele>11</ele>
        <time>2018-07-18T11:17:27Z</time>
      </trkpt>
      <trkpt lat="47.80826" lon="-3.70089">
        <ele>10</ele>
        <time>2018-07-18T11:17:28Z</time>
      </trkpt>
      <trkpt lat="47.80826" lon="-3.70089">
        <ele>10</ele>
        <time>2018-07-18T11:17:29Z</time>
      </trkpt>
      <trkpt lat="47.8083" lon="-3.70092">
        <ele>10</ele>
        <time>2018-07-18T11:17:30Z</time>
      </trkpt>
      <trkpt lat="47.80832" lon="-3.70093">
        <ele>10</ele>
        <time>2018-07-18T11:17:31Z</time>
      </trkpt>
      <trkpt lat="47.80835" lon="-3.70094">
        <ele>10</ele>
        <time>2018-07-18T11:17:32Z</time>
      </trkpt>
      <trkpt lat="47.80835" lon="-3.70094">
        <ele>10</ele>
        <time>2018-07-18T11:17:33Z</time>
      </trkpt>
      <trkpt lat="47.80839" lon="-3.70098">
        <ele>10</ele>
        <time>2018-07-18T11:17:34Z</time>
      </trkpt>
      <trkpt lat="47.8084" lon="-3.70099">
        <ele>10</ele>
        <time>2018-07-18T11:17:35Z</time>
      </trkpt>
      <trkpt lat="47.8084" lon="-3.70099">
        <ele>10</ele>
        <time>2018-07-18T11:17:36Z</time>
      </trkpt>
      <trkpt lat="47.80842" lon="-3.70101">
        <ele>9</ele>
        <time>2018-07-18T11:17:37Z</time>
      </trkpt>
      <trkpt lat="47.80843" lon="-3.70104">
        <ele>9</ele>
        <time>2018-07-18T11:17:38Z</time>
      </trkpt>
      <trkpt lat="47.80845" lon="-3.70106">
        <ele>9</ele>
        <time>2018-07-18T11:17:39Z</time>
      </trkpt>
      <trkpt lat="47.80848" lon="-3.70109">
        <ele>9</ele>
        <time>2018-07-18T11:17:40Z</time>
      </trkpt>
      <trkpt lat="47.80848" lon="-3.70109">
        <ele>9</ele>
        <time>2018-07-18T11:17:41Z</time>
      </trkpt>
      <trkpt lat="47.80852" lon="-3.70111">
        <ele>9</ele>
        <time>2018-07-18T11:17:42Z</time>
      </trkpt>
      <trkpt lat="47.80855" lon="-3.70112">
        <ele>9</ele>
        <time>2018-07-18T11:17:43Z</time>
      </trkpt>
      <trkpt lat="47.80855" lon="-3.70112">
        <ele>9</ele>
        <time>2018-07-18T11:17:44Z</time>
      </trkpt>
      <trkpt lat="47.80861" lon="-3.70114">
        <ele>9</ele>
        <time>2018-07-18T11:17:45Z</time>
      </trkpt>
      <trkpt lat="47.80863" lon="-3.70115">
        <ele>9</ele>
        <time>2018-07-18T11:17:46Z</time>
      </trkpt>
      <trkpt lat="47.80866" lon="-3.70116">
        <ele>9</ele>
        <time>2018-07-18T11:17:47Z</time>
      </trkpt>
      <trkpt lat="47.80869" lon="-3.70118">
        <ele>8</ele>
        <time>2018-07-18T11:17:48Z</time>
      </trkpt>
      <trkpt lat="47.80871" lon="-3.70118">
        <ele>8</ele>
        <time>2018-07-18T11:17:49Z</time>
      </trkpt>
      <trkpt lat="47.80873" lon="-3.70118">
        <ele>8</ele>
        <time>2018-07-18T11:17:50Z</time>
      </trkpt>
      <trkpt lat="47.80873" lon="-3.70118">
        <ele>8</ele>
        <time>2018-07-18T11:17:51Z</time>
      </trkpt>
      <trkpt lat="47.80878" lon="-3.70118">
        <ele>8</ele>
        <time>2018-07-18T11:17:52Z</time>
      </trkpt>
      <trkpt lat="47.80881" lon="-3.70118">
        <ele>8</ele>
        <time>2018-07-18T11:17:53Z</time>
      </trkpt>
      <trkpt lat="47.80884" lon="-3.70118">
        <ele>8</ele>
        <time>2018-07-18T11:17:54Z</time>
      </trkpt>
      <trkpt lat="47.80886" lon="-3.70118">
        <ele>8</ele>
        <time>2018-07-18T11:17:55Z</time>
      </trkpt>
      <trkpt lat="47.80888" lon="-3.70118">
        <ele>8</ele>
        <time>2018-07-18T11:17:56Z</time>
      </trkpt>
      <trkpt lat="47.8089" lon="-3.70117">
        <ele>8</ele>
        <time>2018-07-18T11:17:57Z</time>
      </trkpt>
      <trkpt lat="47.80891" lon="-3.70117">
        <ele>8</ele>
        <time>2018-07-18T11:17:58Z</time>
      </trkpt>
      <trkpt lat="47.80891" lon="-3.70117">
        <ele>8</ele>
        <time>2018-07-18T11:17:59Z</time>
      </trkpt>
      <trkpt lat="47.80892" lon="-3.70117">
        <ele>8</ele>
        <time>2018-07-18T11:18:00Z</time>
      </trkpt>
      <trkpt lat="47.80893" lon="-3.70117">
        <ele>8</ele>
        <time>2018-07-18T11:18:01Z</time>
      </trkpt>
      <trkpt lat="47.80894" lon="-3.70116">
        <ele>8</ele>
        <time>2018-07-18T11:18:02Z</time>
      </trkpt>
      <trkpt lat="47.80895" lon="-3.70115">
        <ele>8</ele>
        <time>2018-07-18T11:18:03Z</time>
      </trkpt>
      <trkpt lat="47.80897" lon="-3.70114">
        <ele>7</ele>
        <time>2018-07-18T11:18:04Z</time>
      </trkpt>
      <trkpt lat="47.80897" lon="-3.70114">
        <ele>7</ele>
        <time>2018-07-18T11:18:05Z</time>
      </trkpt>
      <trkpt lat="47.809" lon="-3.70112">
        <ele>7</ele>
        <time>2018-07-18T11:18:06Z</time>
      </trkpt>
      <trkpt lat="47.80902" lon="-3.70112">
        <ele>7</ele>
        <time>2018-07-18T11:18:07Z</time>
      </trkpt>
      <trkpt lat="47.80904" lon="-3.70112">
        <ele>7</ele>
        <time>2018-07-18T11:18:08Z</time>
      </trkpt>
      <trkpt lat="47.80906" lon="-3.70114">
        <ele>7</ele>
        <time>2018-07-18T11:18:09Z</time>
      </trkpt>
      <trkpt lat="47.80906" lon="-3.70114">
        <ele>7</ele>
        <time>2018-07-18T11:18:10Z</time>
      </trkpt>
      <trkpt lat="47.80909" lon="-3.70119">
        <ele>7</ele>
        <time>2018-07-18T11:18:11Z</time>
      </trkpt>
      <trkpt lat="47.8091" lon="-3.70121">
        <ele>7</ele>
        <time>2018-07-18T11:18:12Z</time>
      </trkpt>
      <trkpt lat="47.8091" lon="-3.70121">
        <ele>7</ele>
        <time>2018-07-18T11:18:13Z</time>
      </trkpt>
      <trkpt lat="47.8091" lon="-3.70123">
        <ele>7</ele>
        <time>2018-07-18T11:18:14Z</time>
      </trkpt>
      <trkpt lat="47.8091" lon="-3.70124">
        <ele>7</ele>
        <time>2018-07-18T11:18:15Z</time>
      </trkpt>
      <trkpt lat="47.8091" lon="-3.70125">
        <ele>7</ele>
        <time>2018-07-18T11:18:16Z</time>
      </trkpt>
      <trkpt lat="47.80911" lon="-3.70125">
        <ele>7</ele>
        <time>2018-07-18T11:18:17Z</time>
      </trkpt>
      <trkpt lat="47.80911" lon="-3.70125">
        <ele>7</ele>
        <time>2018-07-18T11:18:18Z</time>
      </trkpt>
      <trkpt lat="47.80911" lon="-3.70125">
        <ele>7</ele>
        <time>2018-07-18T11:18:19Z</time>
      </trkpt>
      <trkpt lat="47.80914" lon="-3.70127">
        <ele>8</ele>
        <time>2018-07-18T11:18:20Z</time>
      </trkpt>
      <trkpt lat="47.80914" lon="-3.70135">
        <ele>8</ele>
        <time>2018-07-18T11:18:21Z</time>
      </trkpt>
      <trkpt lat="47.80914" lon="-3.70141">
        <ele>8</ele>
        <time>2018-07-18T11:18:22Z</time>
      </trkpt>
      <trkpt lat="47.80914" lon="-3.70147">
        <ele>8</ele>
        <time>2018-07-18T11:18:23Z</time>
      </trkpt>
      <trkpt lat="47.80914" lon="-3.70147">
        <ele>8</ele>
        <time>2018-07-18T11:18:24Z</time>
      </trkpt>
      <trkpt lat="47.80914" lon="-3.70152">
        <ele>8</ele>
        <time>2018-07-18T11:18:25Z</time>
      </trkpt>
      <trkpt lat="47.80914" lon="-3.70158">
        <ele>8</ele>
        <time>2018-07-18T11:18:26Z</time>
      </trkpt>
      <trkpt lat="47.80916" lon="-3.70159">
        <ele>8</ele>
        <time>2018-07-18T11:18:27Z</time>
      </trkpt>
      <trkpt lat="47.80916" lon="-3.70159">
        <ele>8</ele>
        <time>2018-07-18T11:18:28Z</time>
      </trkpt>
      <trkpt lat="47.80918" lon="-3.70159">
        <ele>8</ele>
        <time>2018-07-18T11:18:29Z</time>
      </trkpt>
      <trkpt lat="47.80919" lon="-3.70159">
        <ele>8</ele>
        <time>2018-07-18T11:18:30Z</time>
      </trkpt>
      <trkpt lat="47.80921" lon="-3.70159">
        <ele>8</ele>
        <time>2018-07-18T11:18:31Z</time>
      </trkpt>
      <trkpt lat="47.80925" lon="-3.70157">
        <ele>8</ele>
        <time>2018-07-18T11:18:32Z</time>
      </trkpt>
      <trkpt lat="47.80927" lon="-3.70156">
        <ele>8</ele>
        <time>2018-07-18T11:18:33Z</time>
      </trkpt>
      <trkpt lat="47.80928" lon="-3.70157">
        <ele>8</ele>
        <time>2018-07-18T11:18:34Z</time>
      </trkpt>
      <trkpt lat="47.80929" lon="-3.70157">
        <ele>8</ele>
        <time>2018-07-18T11:18:35Z</time>
      </trkpt>
      <trkpt lat="47.80931" lon="-3.70156">
        <ele>8</ele>
        <time>2018-07-18T11:18:36Z</time>
      </trkpt>
      <trkpt lat="47.80931" lon="-3.70156">
        <ele>8</ele>
        <time>2018-07-18T11:18:37Z</time>
      </trkpt>
      <trkpt lat="47.80934" lon="-3.70154">
        <ele>8</ele>
        <time>2018-07-18T11:18:38Z</time>
      </trkpt>
      <trkpt lat="47.80936" lon="-3.70151">
        <ele>8</ele>
        <time>2018-07-18T11:18:39Z</time>
      </trkpt>
      <trkpt lat="47.80936" lon="-3.70151">
        <ele>8</ele>
        <time>2018-07-18T11:18:40Z</time>
      </trkpt>
      <trkpt lat="47.80937" lon="-3.70149">
        <ele>8</ele>
        <time>2018-07-18T11:18:41Z</time>
      </trkpt>
      <trkpt lat="47.8094" lon="-3.70141">
        <ele>8</ele>
        <time>2018-07-18T11:18:42Z</time>
      </trkpt>
      <trkpt lat="47.80942" lon="-3.70137">
        <ele>8</ele>
        <time>2018-07-18T11:18:43Z</time>
      </trkpt>
      <trkpt lat="47.80943" lon="-3.70133">
        <ele>8</ele>
        <time>2018-07-18T11:18:44Z</time>
      </trkpt>
      <trkpt lat="47.80943" lon="-3.70133">
        <ele>8</ele>
        <time>2018-07-18T11:18:45Z</time>
      </trkpt>
      <trkpt lat="47.80946" lon="-3.70128">
        <ele>8</ele>
        <time>2018-07-18T11:18:46Z</time>
      </trkpt>
      <trkpt lat="47.80946" lon="-3.70128">
        <ele>8</ele>
        <time>2018-07-18T11:18:47Z</time>
      </trkpt>
      <trkpt lat="47.80946" lon="-3.70127">
        <ele>8</ele>
        <time>2018-07-18T11:18:48Z</time>
      </trkpt>
      <trkpt lat="47.80946" lon="-3.70127">
        <ele>8</ele>
        <time>2018-07-18T11:18:49Z</time>
      </trkpt>
      <trkpt lat="47.80949" lon="-3.70124">
        <ele>7</ele>
        <time>2018-07-18T11:18:50Z</time>
      </trkpt>
      <trkpt lat="47.80949" lon="-3.70124">
        <ele>7</ele>
        <time>2018-07-18T11:18:51Z</time>
      </trkpt>
      <trkpt lat="47.80951" lon="-3.70118">
        <ele>7</ele>
        <time>2018-07-18T11:18:52Z</time>
      </trkpt>
      <trkpt lat="47.80951" lon="-3.70118">
        <ele>7</ele>
        <time>2018-07-18T11:18:53Z</time>
      </trkpt>
      <trkpt lat="47.80952" lon="-3.70114">
        <ele>7</ele>
        <time>2018-07-18T11:18:54Z</time>
      </trkpt>
      <trkpt lat="47.80954" lon="-3.70111">
        <ele>7</ele>
        <time>2018-07-18T11:18:55Z</time>
      </trkpt>
      <trkpt lat="47.80956" lon="-3.70105">
        <ele>6</ele>
        <time>2018-07-18T11:18:56Z</time>
      </trkpt>
      <trkpt lat="47.80956" lon="-3.70105">
        <ele>6</ele>
        <time>2018-07-18T11:18:57Z</time>
      </trkpt>
      <trkpt lat="47.80957" lon="-3.70098">
        <ele>6</ele>
        <time>2018-07-18T11:18:58Z</time>
      </trkpt>
      <trkpt lat="47.80958" lon="-3.70094">
        <ele>6</ele>
        <time>2018-07-18T11:18:59Z</time>
      </trkpt>
      <trkpt lat="47.80959" lon="-3.70091">
        <ele>5</ele>
        <time>2018-07-18T11:19:00Z</time>
      </trkpt>
      <trkpt lat="47.80961" lon="-3.70091">
        <ele>5</ele>
        <time>2018-07-18T11:19:01Z</time>
      </trkpt>
      <trkpt lat="47.80962" lon="-3.70091">
        <ele>5</ele>
        <time>2018-07-18T11:19:02Z</time>
      </trkpt>
      <trkpt lat="47.80963" lon="-3.70092">
        <ele>5</ele>
        <time>2018-07-18T11:19:03Z</time>
      </trkpt>
      <trkpt lat="47.80963" lon="-3.70092">
        <ele>5</ele>
        <time>2018-07-18T11:19:04Z</time>
      </trkpt>
      <trkpt lat="47.80965" lon="-3.70096">
        <ele>4</ele>
        <time>2018-07-18T11:19:05Z</time>
      </trkpt>
      <trkpt lat="47.80965" lon="-3.70096">
        <ele>4</ele>
        <time>2018-07-18T11:19:06Z</time>
      </trkpt>
      <trkpt lat="47.80968" lon="-3.70102">
        <ele>4</ele>
        <time>2018-07-18T11:19:07Z</time>
      </trkpt>
      <trkpt lat="47.80968" lon="-3.70102">
        <ele>4</ele>
        <time>2018-07-18T11:19:08Z</time>
      </trkpt>
      <trkpt lat="47.80972" lon="-3.70107">
        <ele>4</ele>
        <time>2018-07-18T11:19:09Z</time>
      </trkpt>
      <trkpt lat="47.80972" lon="-3.70107">
        <ele>4</ele>
        <time>2018-07-18T11:19:10Z</time>
      </trkpt>
      <trkpt lat="47.80975" lon="-3.70112">
        <ele>4</ele>
        <time>2018-07-18T11:19:11Z</time>
      </trkpt>
      <trkpt lat="47.80977" lon="-3.70114">
        <ele>4</ele>
        <time>2018-07-18T11:19:12Z</time>
      </trkpt>
      <trkpt lat="47.80979" lon="-3.70115">
        <ele>4</ele>
        <time>2018-07-18T11:19:13Z</time>
      </trkpt>
      <trkpt lat="47.80981" lon="-3.70117">
        <ele>4</ele>
        <time>2018-07-18T11:19:14Z</time>
      </trkpt>
      <trkpt lat="47.80981" lon="-3.70117">
        <ele>4</ele>
        <time>2018-07-18T11:19:15Z</time>
      </trkpt>
      <trkpt lat="47.80987" lon="-3.70123">
        <ele>4</ele>
        <time>2018-07-18T11:19:16Z</time>
      </trkpt>
      <trkpt lat="47.80989" lon="-3.70126">
        <ele>4</ele>
        <time>2018-07-18T11:19:17Z</time>
      </trkpt>
      <trkpt lat="47.8099" lon="-3.70128">
        <ele>4</ele>
        <time>2018-07-18T11:19:18Z</time>
      </trkpt>
      <trkpt lat="47.8099" lon="-3.70128">
        <ele>4</ele>
        <time>2018-07-18T11:19:19Z</time>
      </trkpt>
      <trkpt lat="47.80992" lon="-3.7013">
        <ele>4</ele>
        <time>2018-07-18T11:19:20Z</time>
      </trkpt>
      <trkpt lat="47.80993" lon="-3.70132">
        <ele>4</ele>
        <time>2018-07-18T11:19:21Z</time>
      </trkpt>
      <trkpt lat="47.80995" lon="-3.70135">
        <ele>4</ele>
        <time>2018-07-18T11:19:22Z</time>
      </trkpt>
      <trkpt lat="47.80998" lon="-3.70139">
        <ele>4</ele>
        <time>2018-07-18T11:19:23Z</time>
      </trkpt>
      <trkpt lat="47.80998" lon="-3.70139">
        <ele>4</ele>
        <time>2018-07-18T11:19:24Z</time>
      </trkpt>
      <trkpt lat="47.80999" lon="-3.7014">
        <ele>4</ele>
        <time>2018-07-18T11:19:25Z</time>
      </trkpt>
      <trkpt lat="47.81001" lon="-3.70142">
        <ele>4</ele>
        <time>2018-07-18T11:19:26Z</time>
      </trkpt>
      <trkpt lat="47.81002" lon="-3.70143">
        <ele>5</ele>
        <time>2018-07-18T11:19:27Z</time>
      </trkpt>
      <trkpt lat="47.81005" lon="-3.70146">
        <ele>5</ele>
        <time>2018-07-18T11:19:28Z</time>
      </trkpt>
      <trkpt lat="47.81007" lon="-3.70148">
        <ele>5</ele>
        <time>2018-07-18T11:19:29Z</time>
      </trkpt>
      <trkpt lat="47.81007" lon="-3.70148">
        <ele>5</ele>
        <time>2018-07-18T11:19:30Z</time>
      </trkpt>
      <trkpt lat="47.8101" lon="-3.70152">
        <ele>5</ele>
        <time>2018-07-18T11:19:31Z</time>
      </trkpt>
      <trkpt lat="47.8101" lon="-3.70152">
        <ele>5</ele>
        <time>2018-07-18T11:19:32Z</time>
      </trkpt>
      <trkpt lat="47.81013" lon="-3.70155">
        <ele>6</ele>
        <time>2018-07-18T11:19:33Z</time>
      </trkpt>
      <trkpt lat="47.81013" lon="-3.70155">
        <ele>6</ele>
        <time>2018-07-18T11:19:34Z</time>
      </trkpt>
      <trkpt lat="47.81014" lon="-3.70157">
        <ele>6</ele>
        <time>2018-07-18T11:19:35Z</time>
      </trkpt>
      <trkpt lat="47.81014" lon="-3.70159">
        <ele>6</ele>
        <time>2018-07-18T11:19:36Z</time>
      </trkpt>
      <trkpt lat="47.81015" lon="-3.70161">
        <ele>7</ele>
        <time>2018-07-18T11:19:37Z</time>
      </trkpt>
      <trkpt lat="47.81016" lon="-3.70163">
        <ele>7</ele>
        <time>2018-07-18T11:19:38Z</time>
      </trkpt>
      <trkpt lat="47.81017" lon="-3.70166">
        <ele>7</ele>
        <time>2018-07-18T11:19:39Z</time>
      </trkpt>
      <trkpt lat="47.81021" lon="-3.70171">
        <ele>8</ele>
        <time>2018-07-18T11:19:40Z</time>
      </trkpt>
      <trkpt lat="47.81021" lon="-3.70171">
        <ele>8</ele>
        <time>2018-07-18T11:19:41Z</time>
      </trkpt>
      <trkpt lat="47.81026" lon="-3.70174">
        <ele>8</ele>
        <time>2018-07-18T11:19:42Z</time>
      </trkpt>
      <trkpt lat="47.81026" lon="-3.70174">
        <ele>8</ele>
        <time>2018-07-18T11:19:43Z</time>
      </trkpt>
      <trkpt lat="47.81029" lon="-3.70176">
        <ele>8</ele>
        <time>2018-07-18T11:19:44Z</time>
      </trkpt>
      <trkpt lat="47.81033" lon="-3.70177">
        <ele>8</ele>
        <time>2018-07-18T11:19:45Z</time>
      </trkpt>
      <trkpt lat="47.81037" lon="-3.70178">
        <ele>8</ele>
        <time>2018-07-18T11:19:46Z</time>
      </trkpt>
      <trkpt lat="47.81041" lon="-3.7018">
        <ele>8</ele>
        <time>2018-07-18T11:19:47Z</time>
      </trkpt>
      <trkpt lat="47.81046" lon="-3.70182">
        <ele>8</ele>
        <time>2018-07-18T11:19:48Z</time>
      </trkpt>
      <trkpt lat="47.81049" lon="-3.70185">
        <ele>8</ele>
        <time>2018-07-18T11:19:49Z</time>
      </trkpt>
      <trkpt lat="47.81053" lon="-3.70187">
        <ele>7</ele>
        <time>2018-07-18T11:19:50Z</time>
      </trkpt>
      <trkpt lat="47.81057" lon="-3.70188">
        <ele>7</ele>
        <time>2018-07-18T11:19:51Z</time>
      </trkpt>
      <trkpt lat="47.81061" lon="-3.70189">
        <ele>7</ele>
        <time>2018-07-18T11:19:52Z</time>
      </trkpt>
      <trkpt lat="47.81065" lon="-3.70191">
        <ele>7</ele>
        <time>2018-07-18T11:19:53Z</time>
      </trkpt>
      <trkpt lat="47.81069" lon="-3.70192">
        <ele>7</ele>
        <time>2018-07-18T11:19:54Z</time>
      </trkpt>
      <trkpt lat="47.81072" lon="-3.70194">
        <ele>6</ele>
        <time>2018-07-18T11:19:55Z</time>
      </trkpt>
      <trkpt lat="47.81074" lon="-3.70195">
        <ele>6</ele>
        <time>2018-07-18T11:19:56Z</time>
      </trkpt>
      <trkpt lat="47.81077" lon="-3.70197">
        <ele>6</ele>
        <time>2018-07-18T11:19:57Z</time>
      </trkpt>
      <trkpt lat="47.81078" lon="-3.70199">
        <ele>6</ele>
        <time>2018-07-18T11:19:58Z</time>
      </trkpt>
      <trkpt lat="47.81081" lon="-3.702">
        <ele>6</ele>
        <time>2018-07-18T11:19:59Z</time>
      </trkpt>
      <trkpt lat="47.81083" lon="-3.70201">
        <ele>6</ele>
        <time>2018-07-18T11:20:00Z</time>
      </trkpt>
      <trkpt lat="47.81085" lon="-3.70202">
        <ele>6</ele>
        <time>2018-07-18T11:20:01Z</time>
      </trkpt>
      <trkpt lat="47.81088" lon="-3.70204">
        <ele>6</ele>
        <time>2018-07-18T11:20:02Z</time>
      </trkpt>
      <trkpt lat="47.81089" lon="-3.70205">
        <ele>6</ele>
        <time>2018-07-18T11:20:03Z</time>
      </trkpt>
      <trkpt lat="47.81091" lon="-3.70207">
        <ele>6</ele>
        <time>2018-07-18T11:20:04Z</time>
      </trkpt>
      <trkpt lat="47.81094" lon="-3.7021">
        <ele>6</ele>
        <time>2018-07-18T11:20:05Z</time>
      </trkpt>
      <trkpt lat="47.81096" lon="-3.70211">
        <ele>6</ele>
        <time>2018-07-18T11:20:06Z</time>
      </trkpt>
      <trkpt lat="47.81099" lon="-3.70213">
        <ele>7</ele>
        <time>2018-07-18T11:20:07Z</time>
      </trkpt>
      <trkpt lat="47.81103" lon="-3.70213">
        <ele>7</ele>
        <time>2018-07-18T11:20:08Z</time>
      </trkpt>
      <trkpt lat="47.81105" lon="-3.70214">
        <ele>7</ele>
        <time>2018-07-18T11:20:09Z</time>
      </trkpt>
      <trkpt lat="47.81108" lon="-3.70214">
        <ele>7</ele>
        <time>2018-07-18T11:20:10Z</time>
      </trkpt>
      <trkpt lat="47.8111" lon="-3.70213">
        <ele>7</ele>
        <time>2018-07-18T11:20:11Z</time>
      </trkpt>
      <trkpt lat="47.81113" lon="-3.70212">
        <ele>7</ele>
        <time>2018-07-18T11:20:12Z</time>
      </trkpt>
      <trkpt lat="47.81115" lon="-3.70211">
        <ele>7</ele>
        <time>2018-07-18T11:20:13Z</time>
      </trkpt>
      <trkpt lat="47.81117" lon="-3.70209">
        <ele>7</ele>
        <time>2018-07-18T11:20:14Z</time>
      </trkpt>
      <trkpt lat="47.81119" lon="-3.70206">
        <ele>7</ele>
        <time>2018-07-18T11:20:15Z</time>
      </trkpt>
      <trkpt lat="47.8112" lon="-3.70203">
        <ele>7</ele>
        <time>2018-07-18T11:20:16Z</time>
      </trkpt>
      <trkpt lat="47.81123" lon="-3.702">
        <ele>7</ele>
        <time>2018-07-18T11:20:17Z</time>
      </trkpt>
      <trkpt lat="47.81126" lon="-3.70196">
        <ele>7</ele>
        <time>2018-07-18T11:20:18Z</time>
      </trkpt>
      <trkpt lat="47.81129" lon="-3.70192">
        <ele>7</ele>
        <time>2018-07-18T11:20:19Z</time>
      </trkpt>
      <trkpt lat="47.81132" lon="-3.70188">
        <ele>7</ele>
        <time>2018-07-18T11:20:20Z</time>
      </trkpt>
      <trkpt lat="47.81136" lon="-3.70185">
        <ele>7</ele>
        <time>2018-07-18T11:20:21Z</time>
      </trkpt>
      <trkpt lat="47.81139" lon="-3.70183">
        <ele>6</ele>
        <time>2018-07-18T11:20:22Z</time>
      </trkpt>
      <trkpt lat="47.81143" lon="-3.70181">
        <ele>6</ele>
        <time>2018-07-18T11:20:23Z</time>
      </trkpt>
      <trkpt lat="47.8115" lon="-3.70179">
        <ele>6</ele>
        <time>2018-07-18T11:20:24Z</time>
      </trkpt>
      <trkpt lat="47.8115" lon="-3.70179">
        <ele>6</ele>
        <time>2018-07-18T11:20:25Z</time>
      </trkpt>
      <trkpt lat="47.81152" lon="-3.70178">
        <ele>5</ele>
        <time>2018-07-18T11:20:26Z</time>
      </trkpt>
      <trkpt lat="47.81156" lon="-3.70179">
        <ele>5</ele>
        <time>2018-07-18T11:20:27Z</time>
      </trkpt>
      <trkpt lat="47.8116" lon="-3.7018">
        <ele>5</ele>
        <time>2018-07-18T11:20:28Z</time>
      </trkpt>
      <trkpt lat="47.81164" lon="-3.70182">
        <ele>5</ele>
        <time>2018-07-18T11:20:29Z</time>
      </trkpt>
      <trkpt lat="47.81167" lon="-3.70184">
        <ele>5</ele>
        <time>2018-07-18T11:20:30Z</time>
      </trkpt>
      <trkpt lat="47.8117" lon="-3.70187">
        <ele>5</ele>
        <time>2018-07-18T11:20:31Z</time>
      </trkpt>
      <trkpt lat="47.81173" lon="-3.70191">
        <ele>4</ele>
        <time>2018-07-18T11:20:32Z</time>
      </trkpt>
      <trkpt lat="47.81176" lon="-3.70194">
        <ele>4</ele>
        <time>2018-07-18T11:20:33Z</time>
      </trkpt>
      <trkpt lat="47.81179" lon="-3.70198">
        <ele>4</ele>
        <time>2018-07-18T11:20:34Z</time>
      </trkpt>
      <trkpt lat="47.81181" lon="-3.70201">
        <ele>4</ele>
        <time>2018-07-18T11:20:35Z</time>
      </trkpt>
      <trkpt lat="47.81183" lon="-3.70204">
        <ele>4</ele>
        <time>2018-07-18T11:20:36Z</time>
      </trkpt>
      <trkpt lat="47.81184" lon="-3.70205">
        <ele>4</ele>
        <time>2018-07-18T11:20:37Z</time>
      </trkpt>
      <trkpt lat="47.81185" lon="-3.70207">
        <ele>4</ele>
        <time>2018-07-18T11:20:38Z</time>
      </trkpt>
      <trkpt lat="47.81186" lon="-3.7021">
        <ele>3</ele>
        <time>2018-07-18T11:20:39Z</time>
      </trkpt>
      <trkpt lat="47.81186" lon="-3.70212">
        <ele>3</ele>
        <time>2018-07-18T11:20:40Z</time>
      </trkpt>
      <trkpt lat="47.81187" lon="-3.70213">
        <ele>3</ele>
        <time>2018-07-18T11:20:41Z</time>
      </trkpt>
      <trkpt lat="47.81187" lon="-3.70213">
        <ele>3</ele>
        <time>2018-07-18T11:20:42Z</time>
      </trkpt>
      <trkpt lat="47.81188" lon="-3.70213">
        <ele>3</ele>
        <time>2018-07-18T11:20:43Z</time>
      </trkpt>
      <trkpt lat="47.81188" lon="-3.70213">
        <ele>3</ele>
        <time>2018-07-18T11:20:44Z</time>
      </trkpt>
      <trkpt lat="47.81188" lon="-3.70214">
        <ele>3</ele>
        <time>2018-07-18T11:20:45Z</time>
      </trkpt>
      <trkpt lat="47.81188" lon="-3.70216">
        <ele>3</ele>
        <time>2018-07-18T11:20:46Z</time>
      </trkpt>
      <trkpt lat="47.81188" lon="-3.70217">
        <ele>3</ele>
        <time>2018-07-18T11:20:47Z</time>
      </trkpt>
      <trkpt lat="47.81188" lon="-3.70217">
        <ele>3</ele>
        <time>2018-07-18T11:20:48Z</time>
      </trkpt>
      <trkpt lat="47.81188" lon="-3.70219">
        <ele>4</ele>
        <time>2018-07-18T11:20:49Z</time>
      </trkpt>
      <trkpt lat="47.81187" lon="-3.7022">
        <ele>4</ele>
        <time>2018-07-18T11:20:50Z</time>
      </trkpt>
      <trkpt lat="47.81187" lon="-3.7022">
        <ele>4</ele>
        <time>2018-07-18T11:20:51Z</time>
      </trkpt>
      <trkpt lat="47.81187" lon="-3.7022">
        <ele>4</ele>
        <time>2018-07-18T11:20:52Z</time>
      </trkpt>
      <trkpt lat="47.81186" lon="-3.70222">
        <ele>4</ele>
        <time>2018-07-18T11:20:53Z</time>
      </trkpt>
      <trkpt lat="47.81186" lon="-3.70222">
        <ele>5</ele>
        <time>2018-07-18T11:20:54Z</time>
      </trkpt>
      <trkpt lat="47.81186" lon="-3.70223">
        <ele>5</ele>
        <time>2018-07-18T11:20:55Z</time>
      </trkpt>
      <trkpt lat="47.81185" lon="-3.70223">
        <ele>5</ele>
        <time>2018-07-18T11:20:56Z</time>
      </trkpt>
      <trkpt lat="47.81185" lon="-3.70224">
        <ele>5</ele>
        <time>2018-07-18T11:20:57Z</time>
      </trkpt>
      <trkpt lat="47.81185" lon="-3.70224">
        <ele>5</ele>
        <time>2018-07-18T11:20:58Z</time>
      </trkpt>
      <trkpt lat="47.81184" lon="-3.70225">
        <ele>6</ele>
        <time>2018-07-18T11:20:59Z</time>
      </trkpt>
      <trkpt lat="47.81184" lon="-3.70226">
        <ele>6</ele>
        <time>2018-07-18T11:21:00Z</time>
      </trkpt>
      <trkpt lat="47.81184" lon="-3.70227">
        <ele>6</ele>
        <time>2018-07-18T11:21:01Z</time>
      </trkpt>
      <trkpt lat="47.81184" lon="-3.70228">
        <ele>6</ele>
        <time>2018-07-18T11:21:02Z</time>
      </trkpt>
      <trkpt lat="47.81184" lon="-3.70228">
        <ele>7</ele>
        <time>2018-07-18T11:21:03Z</time>
      </trkpt>
      <trkpt lat="47.81184" lon="-3.70229">
        <ele>7</ele>
        <time>2018-07-18T11:21:04Z</time>
      </trkpt>
      <trkpt lat="47.81184" lon="-3.7023">
        <ele>7</ele>
        <time>2018-07-18T11:21:05Z</time>
      </trkpt>
      <trkpt lat="47.81183" lon="-3.70231">
        <ele>7</ele>
        <time>2018-07-18T11:21:06Z</time>
      </trkpt>
      <trkpt lat="47.81183" lon="-3.70231">
        <ele>7</ele>
        <time>2018-07-18T11:21:07Z</time>
      </trkpt>
      <trkpt lat="47.81182" lon="-3.70234">
        <ele>8</ele>
        <time>2018-07-18T11:21:08Z</time>
      </trkpt>
      <trkpt lat="47.81182" lon="-3.70234">
        <ele>8</ele>
        <time>2018-07-18T11:21:09Z</time>
      </trkpt>
      <trkpt lat="47.81182" lon="-3.70234">
        <ele>8</ele>
        <time>2018-07-18T11:21:10Z</time>
      </trkpt>
      <trkpt lat="47.81183" lon="-3.70234">
        <ele>8</ele>
        <time>2018-07-18T11:21:11Z</time>
      </trkpt>
      <trkpt lat="47.81183" lon="-3.70234">
        <ele>8</ele>
        <time>2018-07-18T11:21:12Z</time>
      </trkpt>
      <trkpt lat="47.81182" lon="-3.70236">
        <ele>9</ele>
        <time>2018-07-18T11:21:13Z</time>
      </trkpt>
      <trkpt lat="47.81182" lon="-3.70237">
        <ele>9</ele>
        <time>2018-07-18T11:21:14Z</time>
      </trkpt>
      <trkpt lat="47.81181" lon="-3.70237">
        <ele>9</ele>
        <time>2018-07-18T11:21:15Z</time>
      </trkpt>
      <trkpt lat="47.81181" lon="-3.70238">
        <ele>9</ele>
        <time>2018-07-18T11:21:16Z</time>
      </trkpt>
      <trkpt lat="47.8118" lon="-3.7024">
        <ele>9</ele>
        <time>2018-07-18T11:21:17Z</time>
      </trkpt>
      <trkpt lat="47.8118" lon="-3.7024">
        <ele>9</ele>
        <time>2018-07-18T11:21:18Z</time>
      </trkpt>
      <trkpt lat="47.8118" lon="-3.70243">
        <ele>10</ele>
        <time>2018-07-18T11:21:19Z</time>
      </trkpt>
      <trkpt lat="47.81179" lon="-3.70244">
        <ele>10</ele>
        <time>2018-07-18T11:21:20Z</time>
      </trkpt>
      <trkpt lat="47.81179" lon="-3.70244">
        <ele>10</ele>
        <time>2018-07-18T11:21:21Z</time>
      </trkpt>
      <trkpt lat="47.8118" lon="-3.70247">
        <ele>10</ele>
        <time>2018-07-18T11:21:22Z</time>
      </trkpt>
      <trkpt lat="47.8118" lon="-3.70247">
        <ele>10</ele>
        <time>2018-07-18T11:21:23Z</time>
      </trkpt>
      <trkpt lat="47.81181" lon="-3.70249">
        <ele>10</ele>
        <time>2018-07-18T11:21:24Z</time>
      </trkpt>
      <trkpt lat="47.81183" lon="-3.70254">
        <ele>11</ele>
        <time>2018-07-18T11:21:25Z</time>
      </trkpt>
      <trkpt lat="47.81185" lon="-3.70257">
        <ele>11</ele>
        <time>2018-07-18T11:21:26Z</time>
      </trkpt>
      <trkpt lat="47.81186" lon="-3.7026">
        <ele>11</ele>
        <time>2018-07-18T11:21:27Z</time>
      </trkpt>
      <trkpt lat="47.81188" lon="-3.70264">
        <ele>11</ele>
        <time>2018-07-18T11:21:28Z</time>
      </trkpt>
      <trkpt lat="47.81189" lon="-3.70267">
        <ele>12</ele>
        <time>2018-07-18T11:21:29Z</time>
      </trkpt>
      <trkpt lat="47.8119" lon="-3.70271">
        <ele>12</ele>
        <time>2018-07-18T11:21:30Z</time>
      </trkpt>
      <trkpt lat="47.81191" lon="-3.70275">
        <ele>12</ele>
        <time>2018-07-18T11:21:31Z</time>
      </trkpt>
      <trkpt lat="47.81192" lon="-3.70278">
        <ele>12</ele>
        <time>2018-07-18T11:21:32Z</time>
      </trkpt>
      <trkpt lat="47.81192" lon="-3.70278">
        <ele>12</ele>
        <time>2018-07-18T11:21:33Z</time>
      </trkpt>
      <trkpt lat="47.81193" lon="-3.70283">
        <ele>13</ele>
        <time>2018-07-18T11:21:34Z</time>
      </trkpt>
      <trkpt lat="47.81195" lon="-3.70292">
        <ele>13</ele>
        <time>2018-07-18T11:21:35Z</time>
      </trkpt>
      <trkpt lat="47.81195" lon="-3.70292">
        <ele>13</ele>
        <time>2018-07-18T11:21:36Z</time>
      </trkpt>
      <trkpt lat="47.81197" lon="-3.70302">
        <ele>13</ele>
        <time>2018-07-18T11:21:37Z</time>
      </trkpt>
      <trkpt lat="47.81197" lon="-3.70302">
        <ele>13</ele>
        <time>2018-07-18T11:21:38Z</time>
      </trkpt>
      <trkpt lat="47.812" lon="-3.70312">
        <ele>13</ele>
        <time>2018-07-18T11:21:39Z</time>
      </trkpt>
      <trkpt lat="47.81202" lon="-3.70318">
        <ele>13</ele>
        <time>2018-07-18T11:21:40Z</time>
      </trkpt>
      <trkpt lat="47.81203" lon="-3.70322">
        <ele>13</ele>
        <time>2018-07-18T11:21:41Z</time>
      </trkpt>
      <trkpt lat="47.81204" lon="-3.70327">
        <ele>14</ele>
        <time>2018-07-18T11:21:42Z</time>
      </trkpt>
      <trkpt lat="47.81204" lon="-3.70327">
        <ele>14</ele>
        <time>2018-07-18T11:21:43Z</time>
      </trkpt>
      <trkpt lat="47.81205" lon="-3.70332">
        <ele>14</ele>
        <time>2018-07-18T11:21:44Z</time>
      </trkpt>
      <trkpt lat="47.81205" lon="-3.70334">
        <ele>14</ele>
        <time>2018-07-18T11:21:45Z</time>
      </trkpt>
      <trkpt lat="47.81205" lon="-3.70334">
        <ele>14</ele>
        <time>2018-07-18T11:21:46Z</time>
      </trkpt>
      <trkpt lat="47.81205" lon="-3.70335">
        <ele>14</ele>
        <time>2018-07-18T11:21:47Z</time>
      </trkpt>
      <trkpt lat="47.81205" lon="-3.70335">
        <ele>14</ele>
        <time>2018-07-18T11:21:48Z</time>
      </trkpt>
      <trkpt lat="47.81205" lon="-3.70335">
        <ele>14</ele>
        <time>2018-07-18T11:21:49Z</time>
      </trkpt>
      <trkpt lat="47.81206" lon="-3.70333">
        <ele>14</ele>
        <time>2018-07-18T11:21:50Z</time>
      </trkpt>
      <trkpt lat="47.81207" lon="-3.70331">
        <ele>14</ele>
        <time>2018-07-18T11:21:51Z</time>
      </trkpt>
      <trkpt lat="47.8121" lon="-3.70328">
        <ele>14</ele>
        <time>2018-07-18T11:21:52Z</time>
      </trkpt>
      <trkpt lat="47.81213" lon="-3.70327">
        <ele>14</ele>
        <time>2018-07-18T11:21:53Z</time>
      </trkpt>
      <trkpt lat="47.81213" lon="-3.70327">
        <ele>14</ele>
        <time>2018-07-18T11:21:54Z</time>
      </trkpt>
      <trkpt lat="47.81217" lon="-3.70327">
        <ele>14</ele>
        <time>2018-07-18T11:21:55Z</time>
      </trkpt>
      <trkpt lat="47.8122" lon="-3.70331">
        <ele>14</ele>
        <time>2018-07-18T11:21:56Z</time>
      </trkpt>
      <trkpt lat="47.81223" lon="-3.70336">
        <ele>13</ele>
        <time>2018-07-18T11:21:57Z</time>
      </trkpt>
      <trkpt lat="47.81224" lon="-3.70342">
        <ele>13</ele>
        <time>2018-07-18T11:21:58Z</time>
      </trkpt>
      <trkpt lat="47.81226" lon="-3.70347">
        <ele>13</ele>
        <time>2018-07-18T11:21:59Z</time>
      </trkpt>
      <trkpt lat="47.81229" lon="-3.70359">
        <ele>12</ele>
        <time>2018-07-18T11:22:00Z</time>
      </trkpt>
      <trkpt lat="47.8123" lon="-3.70365">
        <ele>11</ele>
        <time>2018-07-18T11:22:01Z</time>
      </trkpt>
      <trkpt lat="47.8123" lon="-3.70365">
        <ele>11</ele>
        <time>2018-07-18T11:22:02Z</time>
      </trkpt>
      <trkpt lat="47.81232" lon="-3.70372">
        <ele>11</ele>
        <time>2018-07-18T11:22:03Z</time>
      </trkpt>
      <trkpt lat="47.81233" lon="-3.70381">
        <ele>10</ele>
        <time>2018-07-18T11:22:04Z</time>
      </trkpt>
      <trkpt lat="47.81235" lon="-3.7039">
        <ele>10</ele>
        <time>2018-07-18T11:22:05Z</time>
      </trkpt>
      <trkpt lat="47.81235" lon="-3.70399">
        <ele>9</ele>
        <time>2018-07-18T11:22:06Z</time>
      </trkpt>
      <trkpt lat="47.81234" lon="-3.70409">
        <ele>9</ele>
        <time>2018-07-18T11:22:07Z</time>
      </trkpt>
      <trkpt lat="47.81232" lon="-3.70419">
        <ele>8</ele>
        <time>2018-07-18T11:22:08Z</time>
      </trkpt>
      <trkpt lat="47.81229" lon="-3.70428">
        <ele>8</ele>
        <time>2018-07-18T11:22:09Z</time>
      </trkpt>
      <trkpt lat="47.81226" lon="-3.70436">
        <ele>8</ele>
        <time>2018-07-18T11:22:10Z</time>
      </trkpt>
      <trkpt lat="47.81222" lon="-3.70445">
        <ele>7</ele>
        <time>2018-07-18T11:22:11Z</time>
      </trkpt>
      <trkpt lat="47.8122" lon="-3.70453">
        <ele>7</ele>
        <time>2018-07-18T11:22:12Z</time>
      </trkpt>
      <trkpt lat="47.81218" lon="-3.70462">
        <ele>7</ele>
        <time>2018-07-18T11:22:13Z</time>
      </trkpt>
      <trkpt lat="47.81216" lon="-3.70479">
        <ele>7</ele>
        <time>2018-07-18T11:22:14Z</time>
      </trkpt>
      <trkpt lat="47.81216" lon="-3.70479">
        <ele>7</ele>
        <time>2018-07-18T11:22:15Z</time>
      </trkpt>
      <trkpt lat="47.81217" lon="-3.70487">
        <ele>6</ele>
        <time>2018-07-18T11:22:16Z</time>
      </trkpt>
      <trkpt lat="47.81217" lon="-3.70495">
        <ele>6</ele>
        <time>2018-07-18T11:22:17Z</time>
      </trkpt>
      <trkpt lat="47.81217" lon="-3.70503">
        <ele>6</ele>
        <time>2018-07-18T11:22:18Z</time>
      </trkpt>
      <trkpt lat="47.81217" lon="-3.70511">
        <ele>6</ele>
        <time>2018-07-18T11:22:19Z</time>
      </trkpt>
      <trkpt lat="47.81218" lon="-3.70519">
        <ele>6</ele>
        <time>2018-07-18T11:22:20Z</time>
      </trkpt>
      <trkpt lat="47.81218" lon="-3.70526">
        <ele>6</ele>
        <time>2018-07-18T11:22:21Z</time>
      </trkpt>
      <trkpt lat="47.81218" lon="-3.70533">
        <ele>6</ele>
        <time>2018-07-18T11:22:22Z</time>
      </trkpt>
      <trkpt lat="47.81219" lon="-3.7054">
        <ele>6</ele>
        <time>2018-07-18T11:22:23Z</time>
      </trkpt>
      <trkpt lat="47.8122" lon="-3.70546">
        <ele>6</ele>
        <time>2018-07-18T11:22:24Z</time>
      </trkpt>
      <trkpt lat="47.81221" lon="-3.70552">
        <ele>6</ele>
        <time>2018-07-18T11:22:25Z</time>
      </trkpt>
      <trkpt lat="47.81222" lon="-3.70557">
        <ele>6</ele>
        <time>2018-07-18T11:22:26Z</time>
      </trkpt>
      <trkpt lat="47.81223" lon="-3.70561">
        <ele>6</ele>
        <time>2018-07-18T11:22:27Z</time>
      </trkpt>
      <trkpt lat="47.81224" lon="-3.70565">
        <ele>6</ele>
        <time>2018-07-18T11:22:28Z</time>
      </trkpt>
      <trkpt lat="47.81225" lon="-3.70569">
        <ele>6</ele>
        <time>2018-07-18T11:22:29Z</time>
      </trkpt>
      <trkpt lat="47.81225" lon="-3.70574">
        <ele>7</ele>
        <time>2018-07-18T11:22:30Z</time>
      </trkpt>
      <trkpt lat="47.81226" lon="-3.70578">
        <ele>7</ele>
        <time>2018-07-18T11:22:31Z</time>
      </trkpt>
      <trkpt lat="47.81226" lon="-3.70583">
        <ele>7</ele>
        <time>2018-07-18T11:22:32Z</time>
      </trkpt>
      <trkpt lat="47.81228" lon="-3.70592">
        <ele>7</ele>
        <time>2018-07-18T11:22:33Z</time>
      </trkpt>
      <trkpt lat="47.8123" lon="-3.70595">
        <ele>7</ele>
        <time>2018-07-18T11:22:34Z</time>
      </trkpt>
      <trkpt lat="47.81233" lon="-3.70599">
        <ele>7</ele>
        <time>2018-07-18T11:22:35Z</time>
      </trkpt>
      <trkpt lat="47.81233" lon="-3.70599">
        <ele>7</ele>
        <time>2018-07-18T11:22:36Z</time>
      </trkpt>
      <trkpt lat="47.81239" lon="-3.70608">
        <ele>7</ele>
        <time>2018-07-18T11:22:37Z</time>
      </trkpt>
      <trkpt lat="47.81243" lon="-3.70613">
        <ele>7</ele>
        <time>2018-07-18T11:22:38Z</time>
      </trkpt>
      <trkpt lat="47.81246" lon="-3.70618">
        <ele>6</ele>
        <time>2018-07-18T11:22:39Z</time>
      </trkpt>
      <trkpt lat="47.8125" lon="-3.70624">
        <ele>6</ele>
        <time>2018-07-18T11:22:40Z</time>
      </trkpt>
      <trkpt lat="47.81254" lon="-3.70631">
        <ele>5</ele>
        <time>2018-07-18T11:22:41Z</time>
      </trkpt>
      <trkpt lat="47.81257" lon="-3.7064">
        <ele>5</ele>
        <time>2018-07-18T11:22:42Z</time>
      </trkpt>
      <trkpt lat="47.81261" lon="-3.70648">
        <ele>5</ele>
        <time>2018-07-18T11:22:43Z</time>
      </trkpt>
      <trkpt lat="47.81264" lon="-3.70656">
        <ele>4</ele>
        <time>2018-07-18T11:22:44Z</time>
      </trkpt>
      <trkpt lat="47.81264" lon="-3.70656">
        <ele>4</ele>
        <time>2018-07-18T11:22:45Z</time>
      </trkpt>
      <trkpt lat="47.81267" lon="-3.70663">
        <ele>4</ele>
        <time>2018-07-18T11:22:46Z</time>
      </trkpt>
      <trkpt lat="47.81269" lon="-3.7067">
        <ele>4</ele>
        <time>2018-07-18T11:22:47Z</time>
      </trkpt>
      <trkpt lat="47.81272" lon="-3.70677">
        <ele>4</ele>
        <time>2018-07-18T11:22:48Z</time>
      </trkpt>
      <trkpt lat="47.81274" lon="-3.70683">
        <ele>4</ele>
        <time>2018-07-18T11:22:49Z</time>
      </trkpt>
      <trkpt lat="47.81275" lon="-3.70688">
        <ele>4</ele>
        <time>2018-07-18T11:22:50Z</time>
      </trkpt>
      <trkpt lat="47.81277" lon="-3.70696">
        <ele>4</ele>
        <time>2018-07-18T11:22:51Z</time>
      </trkpt>
      <trkpt lat="47.81278" lon="-3.70699">
        <ele>4</ele>
        <time>2018-07-18T11:22:52Z</time>
      </trkpt>
      <trkpt lat="47.81278" lon="-3.70702">
        <ele>4</ele>
        <time>2018-07-18T11:22:53Z</time>
      </trkpt>
      <trkpt lat="47.81278" lon="-3.70704">
        <ele>4</ele>
        <time>2018-07-18T11:22:54Z</time>
      </trkpt>
      <trkpt lat="47.81278" lon="-3.70704">
        <ele>4</ele>
        <time>2018-07-18T11:22:55Z</time>
      </trkpt>
      <trkpt lat="47.81278" lon="-3.70705">
        <ele>4</ele>
        <time>2018-07-18T11:22:56Z</time>
      </trkpt>
      <trkpt lat="47.81278" lon="-3.70705">
        <ele>4</ele>
        <time>2018-07-18T11:22:57Z</time>
      </trkpt>
      <trkpt lat="47.81278" lon="-3.70705">
        <ele>4</ele>
        <time>2018-07-18T11:22:58Z</time>
      </trkpt>
      <trkpt lat="47.81278" lon="-3.70705">
        <ele>4</ele>
        <time>2018-07-18T11:22:59Z</time>
      </trkpt>
      <trkpt lat="47.81278" lon="-3.70707">
        <ele>4</ele>
        <time>2018-07-18T11:23:00Z</time>
      </trkpt>
      <trkpt lat="47.81278" lon="-3.70708">
        <ele>5</ele>
        <time>2018-07-18T11:23:01Z</time>
      </trkpt>
      <trkpt lat="47.81278" lon="-3.70708">
        <ele>5</ele>
        <time>2018-07-18T11:23:02Z</time>
      </trkpt>
      <trkpt lat="47.81277" lon="-3.70708">
        <ele>5</ele>
        <time>2018-07-18T11:23:03Z</time>
      </trkpt>
      <trkpt lat="47.81277" lon="-3.7071">
        <ele>7</ele>
        <time>2018-07-18T11:23:04Z</time>
      </trkpt>
      <trkpt lat="47.81277" lon="-3.7071">
        <ele>7</ele>
        <time>2018-07-18T11:23:05Z</time>
      </trkpt>
      <trkpt lat="47.81277" lon="-3.70711">
        <ele>7</ele>
        <time>2018-07-18T11:23:06Z</time>
      </trkpt>
      <trkpt lat="47.81278" lon="-3.70711">
        <ele>7</ele>
        <time>2018-07-18T11:23:07Z</time>
      </trkpt>
      <trkpt lat="47.81278" lon="-3.70712">
        <ele>8</ele>
        <time>2018-07-18T11:23:08Z</time>
      </trkpt>
      <trkpt lat="47.81278" lon="-3.70713">
        <ele>8</ele>
        <time>2018-07-18T11:23:09Z</time>
      </trkpt>
      <trkpt lat="47.81278" lon="-3.70713">
        <ele>8</ele>
        <time>2018-07-18T11:23:10Z</time>
      </trkpt>
      <trkpt lat="47.81278" lon="-3.70713">
        <ele>8</ele>
        <time>2018-07-18T11:23:11Z</time>
      </trkpt>
      <trkpt lat="47.81277" lon="-3.70714">
        <ele>8</ele>
        <time>2018-07-18T11:23:12Z</time>
      </trkpt>
      <trkpt lat="47.81276" lon="-3.70714">
        <ele>8</ele>
        <time>2018-07-18T11:23:13Z</time>
      </trkpt>
      <trkpt lat="47.81276" lon="-3.70714">
        <ele>9</ele>
        <time>2018-07-18T11:23:14Z</time>
      </trkpt>
      <trkpt lat="47.81275" lon="-3.70715">
        <ele>9</ele>
        <time>2018-07-18T11:23:15Z</time>
      </trkpt>
      <trkpt lat="47.81275" lon="-3.70715">
        <ele>9</ele>
        <time>2018-07-18T11:23:16Z</time>
      </trkpt>
      <trkpt lat="47.81275" lon="-3.70716">
        <ele>9</ele>
        <time>2018-07-18T11:23:17Z</time>
      </trkpt>
      <trkpt lat="47.81275" lon="-3.70716">
        <ele>10</ele>
        <time>2018-07-18T11:23:18Z</time>
      </trkpt>
      <trkpt lat="47.81275" lon="-3.70717">
        <ele>10</ele>
        <time>2018-07-18T11:23:19Z</time>
      </trkpt>
      <trkpt lat="47.81275" lon="-3.70718">
        <ele>10</ele>
        <time>2018-07-18T11:23:20Z</time>
      </trkpt>
      <trkpt lat="47.81275" lon="-3.70718">
        <ele>10</ele>
        <time>2018-07-18T11:23:21Z</time>
      </trkpt>
      <trkpt lat="47.81272" lon="-3.7072">
        <ele>11</ele>
        <time>2018-07-18T11:23:22Z</time>
      </trkpt>
      <trkpt lat="47.81271" lon="-3.70721">
        <ele>11</ele>
        <time>2018-07-18T11:23:23Z</time>
      </trkpt>
      <trkpt lat="47.81271" lon="-3.70722">
        <ele>11</ele>
        <time>2018-07-18T11:23:24Z</time>
      </trkpt>
      <trkpt lat="47.81271" lon="-3.70723">
        <ele>11</ele>
        <time>2018-07-18T11:23:25Z</time>
      </trkpt>
      <trkpt lat="47.81271" lon="-3.70724">
        <ele>11</ele>
        <time>2018-07-18T11:23:26Z</time>
      </trkpt>
      <trkpt lat="47.81271" lon="-3.70725">
        <ele>11</ele>
        <time>2018-07-18T11:23:27Z</time>
      </trkpt>
      <trkpt lat="47.81271" lon="-3.70726">
        <ele>11</ele>
        <time>2018-07-18T11:23:28Z</time>
      </trkpt>
      <trkpt lat="47.81271" lon="-3.70727">
        <ele>11</ele>
        <time>2018-07-18T11:23:29Z</time>
      </trkpt>
      <trkpt lat="47.81271" lon="-3.70728">
        <ele>11</ele>
        <time>2018-07-18T11:23:30Z</time>
      </trkpt>
      <trkpt lat="47.81271" lon="-3.70729">
        <ele>11</ele>
        <time>2018-07-18T11:23:31Z</time>
      </trkpt>
      <trkpt lat="47.81271" lon="-3.7073">
        <ele>11</ele>
        <time>2018-07-18T11:23:32Z</time>
      </trkpt>
      <trkpt lat="47.81271" lon="-3.70731">
        <ele>11</ele>
        <time>2018-07-18T11:23:33Z</time>
      </trkpt>
      <trkpt lat="47.8127" lon="-3.70731">
        <ele>11</ele>
        <time>2018-07-18T11:23:34Z</time>
      </trkpt>
      <trkpt lat="47.81269" lon="-3.70734">
        <ele>11</ele>
        <time>2018-07-18T11:23:35Z</time>
      </trkpt>
      <trkpt lat="47.81268" lon="-3.70734">
        <ele>11</ele>
        <time>2018-07-18T11:23:36Z</time>
      </trkpt>
      <trkpt lat="47.81268" lon="-3.70735">
        <ele>12</ele>
        <time>2018-07-18T11:23:37Z</time>
      </trkpt>
      <trkpt lat="47.81268" lon="-3.70736">
        <ele>12</ele>
        <time>2018-07-18T11:23:38Z</time>
      </trkpt>
      <trkpt lat="47.81267" lon="-3.70737">
        <ele>12</ele>
        <time>2018-07-18T11:23:39Z</time>
      </trkpt>
      <trkpt lat="47.81267" lon="-3.70738">
        <ele>12</ele>
        <time>2018-07-18T11:23:40Z</time>
      </trkpt>
      <trkpt lat="47.81266" lon="-3.70738">
        <ele>12</ele>
        <time>2018-07-18T11:23:41Z</time>
      </trkpt>
      <trkpt lat="47.81266" lon="-3.70739">
        <ele>12</ele>
        <time>2018-07-18T11:23:42Z</time>
      </trkpt>
      <trkpt lat="47.81265" lon="-3.70739">
        <ele>13</ele>
        <time>2018-07-18T11:23:43Z</time>
      </trkpt>
      <trkpt lat="47.81265" lon="-3.7074">
        <ele>13</ele>
        <time>2018-07-18T11:23:44Z</time>
      </trkpt>
      <trkpt lat="47.81265" lon="-3.70741">
        <ele>13</ele>
        <time>2018-07-18T11:23:45Z</time>
      </trkpt>
      <trkpt lat="47.81264" lon="-3.70741">
        <ele>13</ele>
        <time>2018-07-18T11:23:46Z</time>
      </trkpt>
      <trkpt lat="47.81264" lon="-3.70741">
        <ele>13</ele>
        <time>2018-07-18T11:23:47Z</time>
      </trkpt>
      <trkpt lat="47.81263" lon="-3.70742">
        <ele>14</ele>
        <time>2018-07-18T11:23:48Z</time>
      </trkpt>
      <trkpt lat="47.81262" lon="-3.70742">
        <ele>14</ele>
        <time>2018-07-18T11:23:49Z</time>
      </trkpt>
      <trkpt lat="47.81262" lon="-3.70742">
        <ele>14</ele>
        <time>2018-07-18T11:23:50Z</time>
      </trkpt>
      <trkpt lat="47.81261" lon="-3.70743">
        <ele>15</ele>
        <time>2018-07-18T11:23:51Z</time>
      </trkpt>
      <trkpt lat="47.81261" lon="-3.70743">
        <ele>15</ele>
        <time>2018-07-18T11:23:52Z</time>
      </trkpt>
      <trkpt lat="47.81261" lon="-3.70743">
        <ele>15</ele>
        <time>2018-07-18T11:23:53Z</time>
      </trkpt>
      <trkpt lat="47.81261" lon="-3.70744">
        <ele>16</ele>
        <time>2018-07-18T11:23:54Z</time>
      </trkpt>
      <trkpt lat="47.8126" lon="-3.70744">
        <ele>16</ele>
        <time>2018-07-18T11:23:55Z</time>
      </trkpt>
      <trkpt lat="47.81259" lon="-3.70745">
        <ele>16</ele>
        <time>2018-07-18T11:23:56Z</time>
      </trkpt>
      <trkpt lat="47.81259" lon="-3.70745">
        <ele>16</ele>
        <time>2018-07-18T11:23:57Z</time>
      </trkpt>
      <trkpt lat="47.81258" lon="-3.70746">
        <ele>17</ele>
        <time>2018-07-18T11:23:58Z</time>
      </trkpt>
      <trkpt lat="47.81258" lon="-3.70747">
        <ele>17</ele>
        <time>2018-07-18T11:23:59Z</time>
      </trkpt>
      <trkpt lat="47.81258" lon="-3.70748">
        <ele>17</ele>
        <time>2018-07-18T11:24:00Z</time>
      </trkpt>
      <trkpt lat="47.81257" lon="-3.70749">
        <ele>18</ele>
        <time>2018-07-18T11:24:01Z</time>
      </trkpt>
      <trkpt lat="47.81257" lon="-3.7075">
        <ele>18</ele>
        <time>2018-07-18T11:24:02Z</time>
      </trkpt>
      <trkpt lat="47.81257" lon="-3.7075">
        <ele>18</ele>
        <time>2018-07-18T11:24:03Z</time>
      </trkpt>
      <trkpt lat="47.81256" lon="-3.70751">
        <ele>19</ele>
        <time>2018-07-18T11:24:04Z</time>
      </trkpt>
      <trkpt lat="47.81256" lon="-3.70751">
        <ele>19</ele>
        <time>2018-07-18T11:24:05Z</time>
      </trkpt>
      <trkpt lat="47.81256" lon="-3.70752">
        <ele>19</ele>
        <time>2018-07-18T11:24:06Z</time>
      </trkpt>
      <trkpt lat="47.81256" lon="-3.70752">
        <ele>19</ele>
        <time>2018-07-18T11:24:07Z</time>
      </trkpt>
      <trkpt lat="47.81256" lon="-3.70753">
        <ele>20</ele>
        <time>2018-07-18T11:24:08Z</time>
      </trkpt>
      <trkpt lat="47.81256" lon="-3.70753">
        <ele>20</ele>
        <time>2018-07-18T11:24:09Z</time>
      </trkpt>
      <trkpt lat="47.81256" lon="-3.70754">
        <ele>20</ele>
        <time>2018-07-18T11:24:10Z</time>
      </trkpt>
      <trkpt lat="47.81255" lon="-3.70754">
        <ele>20</ele>
        <time>2018-07-18T11:24:11Z</time>
      </trkpt>
      <trkpt lat="47.81255" lon="-3.70755">
        <ele>21</ele>
        <time>2018-07-18T11:24:12Z</time>
      </trkpt>
      <trkpt lat="47.81255" lon="-3.70755">
        <ele>21</ele>
        <time>2018-07-18T11:24:13Z</time>
      </trkpt>
      <trkpt lat="47.81254" lon="-3.70755">
        <ele>21</ele>
        <time>2018-07-18T11:24:14Z</time>
      </trkpt>
      <trkpt lat="47.81254" lon="-3.70756">
        <ele>21</ele>
        <time>2018-07-18T11:24:15Z</time>
      </trkpt>
      <trkpt lat="47.81253" lon="-3.70757">
        <ele>21</ele>
        <time>2018-07-18T11:24:16Z</time>
      </trkpt>
      <trkpt lat="47.81252" lon="-3.70757">
        <ele>22</ele>
        <time>2018-07-18T11:24:17Z</time>
      </trkpt>
      <trkpt lat="47.81252" lon="-3.70757">
        <ele>22</ele>
        <time>2018-07-18T11:24:18Z</time>
      </trkpt>
      <trkpt lat="47.81252" lon="-3.70758">
        <ele>23</ele>
        <time>2018-07-18T11:24:19Z</time>
      </trkpt>
      <trkpt lat="47.81251" lon="-3.70758">
        <ele>23</ele>
        <time>2018-07-18T11:24:20Z</time>
      </trkpt>
      <trkpt lat="47.81251" lon="-3.70759">
        <ele>23</ele>
        <time>2018-07-18T11:24:21Z</time>
      </trkpt>
      <trkpt lat="47.8125" lon="-3.70762">
        <ele>25</ele>
        <time>2018-07-18T11:24:22Z</time>
      </trkpt>
      <trkpt lat="47.81249" lon="-3.70763">
        <ele>25</ele>
        <time>2018-07-18T11:24:23Z</time>
      </trkpt>
      <trkpt lat="47.81248" lon="-3.70764">
        <ele>25</ele>
        <time>2018-07-18T11:24:24Z</time>
      </trkpt>
      <trkpt lat="47.81248" lon="-3.70764">
        <ele>25</ele>
        <time>2018-07-18T11:24:25Z</time>
      </trkpt>
      <trkpt lat="47.81247" lon="-3.70764">
        <ele>26</ele>
        <time>2018-07-18T11:24:26Z</time>
      </trkpt>
      <trkpt lat="47.81246" lon="-3.70764">
        <ele>26</ele>
        <time>2018-07-18T11:24:27Z</time>
      </trkpt>
      <trkpt lat="47.81246" lon="-3.70765">
        <ele>26</ele>
        <time>2018-07-18T11:24:28Z</time>
      </trkpt>
      <trkpt lat="47.81246" lon="-3.70765">
        <ele>26</ele>
        <time>2018-07-18T11:24:29Z</time>
      </trkpt>
      <trkpt lat="47.81246" lon="-3.70765">
        <ele>26</ele>
        <time>2018-07-18T11:24:30Z</time>
      </trkpt>
      <trkpt lat="47.81245" lon="-3.70765">
        <ele>26</ele>
        <time>2018-07-18T11:24:31Z</time>
      </trkpt>
      <trkpt lat="47.81245" lon="-3.70765">
        <ele>27</ele>
        <time>2018-07-18T11:24:32Z</time>
      </trkpt>
      <trkpt lat="47.81245" lon="-3.70764">
        <ele>27</ele>
        <time>2018-07-18T11:24:33Z</time>
      </trkpt>
      <trkpt lat="47.81244" lon="-3.70764">
        <ele>27</ele>
        <time>2018-07-18T11:24:34Z</time>
      </trkpt>
      <trkpt lat="47.81244" lon="-3.70764">
        <ele>27</ele>
        <time>2018-07-18T11:24:35Z</time>
      </trkpt>
      <trkpt lat="47.81243" lon="-3.70764">
        <ele>28</ele>
        <time>2018-07-18T11:24:36Z</time>
      </trkpt>
      <trkpt lat="47.81242" lon="-3.70764">
        <ele>28</ele>
        <time>2018-07-18T11:24:37Z</time>
      </trkpt>
      <trkpt lat="47.81242" lon="-3.70765">
        <ele>28</ele>
        <time>2018-07-18T11:24:38Z</time>
      </trkpt>
      <trkpt lat="47.81241" lon="-3.70765">
        <ele>28</ele>
        <time>2018-07-18T11:24:39Z</time>
      </trkpt>
      <trkpt lat="47.81241" lon="-3.70766">
        <ele>28</ele>
        <time>2018-07-18T11:24:40Z</time>
      </trkpt>
      <trkpt lat="47.8124" lon="-3.70766">
        <ele>28</ele>
        <time>2018-07-18T11:24:41Z</time>
      </trkpt>
      <trkpt lat="47.8124" lon="-3.70767">
        <ele>28</ele>
        <time>2018-07-18T11:24:42Z</time>
      </trkpt>
      <trkpt lat="47.8124" lon="-3.70768">
        <ele>29</ele>
        <time>2018-07-18T11:24:43Z</time>
      </trkpt>
      <trkpt lat="47.81239" lon="-3.70769">
        <ele>29</ele>
        <time>2018-07-18T11:24:44Z</time>
      </trkpt>
      <trkpt lat="47.81239" lon="-3.7077">
        <ele>29</ele>
        <time>2018-07-18T11:24:45Z</time>
      </trkpt>
      <trkpt lat="47.81239" lon="-3.70771">
        <ele>29</ele>
        <time>2018-07-18T11:24:46Z</time>
      </trkpt>
      <trkpt lat="47.81238" lon="-3.70771">
        <ele>29</ele>
        <time>2018-07-18T11:24:47Z</time>
      </trkpt>
      <trkpt lat="47.81237" lon="-3.70771">
        <ele>29</ele>
        <time>2018-07-18T11:24:48Z</time>
      </trkpt>
      <trkpt lat="47.81236" lon="-3.70772">
        <ele>29</ele>
        <time>2018-07-18T11:24:49Z</time>
      </trkpt>
      <trkpt lat="47.81235" lon="-3.70772">
        <ele>30</ele>
        <time>2018-07-18T11:24:50Z</time>
      </trkpt>
      <trkpt lat="47.81235" lon="-3.70772">
        <ele>30</ele>
        <time>2018-07-18T11:24:51Z</time>
      </trkpt>
      <trkpt lat="47.81234" lon="-3.70773">
        <ele>30</ele>
        <time>2018-07-18T11:24:52Z</time>
      </trkpt>
      <trkpt lat="47.81233" lon="-3.70773">
        <ele>31</ele>
        <time>2018-07-18T11:24:53Z</time>
      </trkpt>
      <trkpt lat="47.81232" lon="-3.70773">
        <ele>31</ele>
        <time>2018-07-18T11:24:54Z</time>
      </trkpt>
      <trkpt lat="47.81232" lon="-3.70773">
        <ele>31</ele>
        <time>2018-07-18T11:24:55Z</time>
      </trkpt>
      <trkpt lat="47.81231" lon="-3.70773">
        <ele>31</ele>
        <time>2018-07-18T11:24:56Z</time>
      </trkpt>
      <trkpt lat="47.81231" lon="-3.70774">
        <ele>31</ele>
        <time>2018-07-18T11:24:57Z</time>
      </trkpt>
      <trkpt lat="47.8123" lon="-3.70774">
        <ele>32</ele>
        <time>2018-07-18T11:24:58Z</time>
      </trkpt>
      <trkpt lat="47.81229" lon="-3.70774">
        <ele>32</ele>
        <time>2018-07-18T11:24:59Z</time>
      </trkpt>
      <trkpt lat="47.81228" lon="-3.70774">
        <ele>32</ele>
        <time>2018-07-18T11:25:00Z</time>
      </trkpt>
      <trkpt lat="47.81228" lon="-3.70774">
        <ele>32</ele>
        <time>2018-07-18T11:25:01Z</time>
      </trkpt>
      <trkpt lat="47.81227" lon="-3.70774">
        <ele>32</ele>
        <time>2018-07-18T11:25:02Z</time>
      </trkpt>
      <trkpt lat="47.81226" lon="-3.70774">
        <ele>33</ele>
        <time>2018-07-18T11:25:03Z</time>
      </trkpt>
      <trkpt lat="47.81225" lon="-3.70774">
        <ele>33</ele>
        <time>2018-07-18T11:25:04Z</time>
      </trkpt>
      <trkpt lat="47.81225" lon="-3.70774">
        <ele>33</ele>
        <time>2018-07-18T11:25:05Z</time>
      </trkpt>
      <trkpt lat="47.81224" lon="-3.70774">
        <ele>33</ele>
        <time>2018-07-18T11:25:06Z</time>
      </trkpt>
      <trkpt lat="47.81223" lon="-3.70774">
        <ele>34</ele>
        <time>2018-07-18T11:25:07Z</time>
      </trkpt>
      <trkpt lat="47.81223" lon="-3.70774">
        <ele>34</ele>
        <time>2018-07-18T11:25:08Z</time>
      </trkpt>
      <trkpt lat="47.81222" lon="-3.70775">
        <ele>34</ele>
        <time>2018-07-18T11:25:09Z</time>
      </trkpt>
      <trkpt lat="47.8122" lon="-3.70777">
        <ele>34</ele>
        <time>2018-07-18T11:25:10Z</time>
      </trkpt>
      <trkpt lat="47.8122" lon="-3.70778">
        <ele>34</ele>
        <time>2018-07-18T11:25:11Z</time>
      </trkpt>
      <trkpt lat="47.8122" lon="-3.70778">
        <ele>34</ele>
        <time>2018-07-18T11:25:12Z</time>
      </trkpt>
      <trkpt lat="47.8122" lon="-3.70778">
        <ele>34</ele>
        <time>2018-07-18T11:25:13Z</time>
      </trkpt>
      <trkpt lat="47.81219" lon="-3.7078">
        <ele>34</ele>
        <time>2018-07-18T11:25:14Z</time>
      </trkpt>
      <trkpt lat="47.81218" lon="-3.70781">
        <ele>34</ele>
        <time>2018-07-18T11:25:15Z</time>
      </trkpt>
      <trkpt lat="47.81218" lon="-3.70783">
        <ele>34</ele>
        <time>2018-07-18T11:25:16Z</time>
      </trkpt>
      <trkpt lat="47.81217" lon="-3.70785">
        <ele>34</ele>
        <time>2018-07-18T11:25:17Z</time>
      </trkpt>
      <trkpt lat="47.81215" lon="-3.70786">
        <ele>34</ele>
        <time>2018-07-18T11:25:18Z</time>
      </trkpt>
      <trkpt lat="47.81214" lon="-3.70787">
        <ele>34</ele>
        <time>2018-07-18T11:25:19Z</time>
      </trkpt>
      <trkpt lat="47.81212" lon="-3.70788">
        <ele>34</ele>
        <time>2018-07-18T11:25:20Z</time>
      </trkpt>
      <trkpt lat="47.8121" lon="-3.7079">
        <ele>34</ele>
        <time>2018-07-18T11:25:21Z</time>
      </trkpt>
      <trkpt lat="47.81207" lon="-3.70791">
        <ele>34</ele>
        <time>2018-07-18T11:25:22Z</time>
      </trkpt>
      <trkpt lat="47.81205" lon="-3.70793">
        <ele>34</ele>
        <time>2018-07-18T11:25:23Z</time>
      </trkpt>
      <trkpt lat="47.81202" lon="-3.70795">
        <ele>34</ele>
        <time>2018-07-18T11:25:24Z</time>
      </trkpt>
      <trkpt lat="47.812" lon="-3.70797">
        <ele>34</ele>
        <time>2018-07-18T11:25:25Z</time>
      </trkpt>
      <trkpt lat="47.81198" lon="-3.70797">
        <ele>34</ele>
        <time>2018-07-18T11:25:26Z</time>
      </trkpt>
      <trkpt lat="47.81196" lon="-3.70797">
        <ele>34</ele>
        <time>2018-07-18T11:25:27Z</time>
      </trkpt>
      <trkpt lat="47.81194" lon="-3.70798">
        <ele>34</ele>
        <time>2018-07-18T11:25:28Z</time>
      </trkpt>
      <trkpt lat="47.81192" lon="-3.70799">
        <ele>35</ele>
        <time>2018-07-18T11:25:29Z</time>
      </trkpt>
      <trkpt lat="47.8119" lon="-3.70799">
        <ele>35</ele>
        <time>2018-07-18T11:25:30Z</time>
      </trkpt>
      <trkpt lat="47.81189" lon="-3.70801">
        <ele>35</ele>
        <time>2018-07-18T11:25:31Z</time>
      </trkpt>
      <trkpt lat="47.81187" lon="-3.70804">
        <ele>35</ele>
        <time>2018-07-18T11:25:32Z</time>
      </trkpt>
      <trkpt lat="47.81186" lon="-3.70806">
        <ele>36</ele>
        <time>2018-07-18T11:25:33Z</time>
      </trkpt>
      <trkpt lat="47.81185" lon="-3.70808">
        <ele>36</ele>
        <time>2018-07-18T11:25:34Z</time>
      </trkpt>
      <trkpt lat="47.81183" lon="-3.70811">
        <ele>37</ele>
        <time>2018-07-18T11:25:35Z</time>
      </trkpt>
      <trkpt lat="47.81182" lon="-3.70814">
        <ele>37</ele>
        <time>2018-07-18T11:25:36Z</time>
      </trkpt>
      <trkpt lat="47.81182" lon="-3.70816">
        <ele>37</ele>
        <time>2018-07-18T11:25:37Z</time>
      </trkpt>
      <trkpt lat="47.8118" lon="-3.70818">
        <ele>37</ele>
        <time>2018-07-18T11:25:38Z</time>
      </trkpt>
      <trkpt lat="47.81179" lon="-3.70821">
        <ele>38</ele>
        <time>2018-07-18T11:25:39Z</time>
      </trkpt>
      <trkpt lat="47.81177" lon="-3.70823">
        <ele>38</ele>
        <time>2018-07-18T11:25:40Z</time>
      </trkpt>
      <trkpt lat="47.81177" lon="-3.70825">
        <ele>38</ele>
        <time>2018-07-18T11:25:41Z</time>
      </trkpt>
      <trkpt lat="47.81176" lon="-3.70827">
        <ele>39</ele>
        <time>2018-07-18T11:25:42Z</time>
      </trkpt>
      <trkpt lat="47.81175" lon="-3.70829">
        <ele>39</ele>
        <time>2018-07-18T11:25:43Z</time>
      </trkpt>
      <trkpt lat="47.81174" lon="-3.70831">
        <ele>39</ele>
        <time>2018-07-18T11:25:44Z</time>
      </trkpt>
      <trkpt lat="47.81173" lon="-3.70834">
        <ele>39</ele>
        <time>2018-07-18T11:25:45Z</time>
      </trkpt>
      <trkpt lat="47.81172" lon="-3.70836">
        <ele>39</ele>
        <time>2018-07-18T11:25:46Z</time>
      </trkpt>
      <trkpt lat="47.81171" lon="-3.70839">
        <ele>39</ele>
        <time>2018-07-18T11:25:47Z</time>
      </trkpt>
      <trkpt lat="47.81169" lon="-3.70841">
        <ele>39</ele>
        <time>2018-07-18T11:25:48Z</time>
      </trkpt>
      <trkpt lat="47.81168" lon="-3.70843">
        <ele>39</ele>
        <time>2018-07-18T11:25:49Z</time>
      </trkpt>
      <trkpt lat="47.81167" lon="-3.70844">
        <ele>39</ele>
        <time>2018-07-18T11:25:50Z</time>
      </trkpt>
      <trkpt lat="47.81166" lon="-3.70846">
        <ele>39</ele>
        <time>2018-07-18T11:25:51Z</time>
      </trkpt>
      <trkpt lat="47.81166" lon="-3.70847">
        <ele>39</ele>
        <time>2018-07-18T11:25:52Z</time>
      </trkpt>
      <trkpt lat="47.81165" lon="-3.70848">
        <ele>38</ele>
        <time>2018-07-18T11:25:53Z</time>
      </trkpt>
      <trkpt lat="47.81164" lon="-3.70849">
        <ele>38</ele>
        <time>2018-07-18T11:25:54Z</time>
      </trkpt>
      <trkpt lat="47.81163" lon="-3.7085">
        <ele>38</ele>
        <time>2018-07-18T11:25:55Z</time>
      </trkpt>
      <trkpt lat="47.81162" lon="-3.70851">
        <ele>38</ele>
        <time>2018-07-18T11:25:56Z</time>
      </trkpt>
      <trkpt lat="47.81161" lon="-3.70852">
        <ele>38</ele>
        <time>2018-07-18T11:25:57Z</time>
      </trkpt>
      <trkpt lat="47.8116" lon="-3.70853">
        <ele>38</ele>
        <time>2018-07-18T11:25:58Z</time>
      </trkpt>
      <trkpt lat="47.81159" lon="-3.70854">
        <ele>38</ele>
        <time>2018-07-18T11:25:59Z</time>
      </trkpt>
      <trkpt lat="47.81159" lon="-3.70856">
        <ele>39</ele>
        <time>2018-07-18T11:26:00Z</time>
      </trkpt>
      <trkpt lat="47.81158" lon="-3.70857">
        <ele>39</ele>
        <time>2018-07-18T11:26:01Z</time>
      </trkpt>
      <trkpt lat="47.81158" lon="-3.70858">
        <ele>38</ele>
        <time>2018-07-18T11:26:02Z</time>
      </trkpt>
      <trkpt lat="47.81158" lon="-3.70859">
        <ele>38</ele>
        <time>2018-07-18T11:26:03Z</time>
      </trkpt>
      <trkpt lat="47.81157" lon="-3.7086">
        <ele>38</ele>
        <time>2018-07-18T11:26:04Z</time>
      </trkpt>
      <trkpt lat="47.81156" lon="-3.70863">
        <ele>38</ele>
        <time>2018-07-18T11:26:05Z</time>
      </trkpt>
      <trkpt lat="47.81154" lon="-3.70865">
        <ele>38</ele>
        <time>2018-07-18T11:26:06Z</time>
      </trkpt>
      <trkpt lat="47.81153" lon="-3.70868">
        <ele>38</ele>
        <time>2018-07-18T11:26:07Z</time>
      </trkpt>
      <trkpt lat="47.81153" lon="-3.70872">
        <ele>38</ele>
        <time>2018-07-18T11:26:08Z</time>
      </trkpt>
      <trkpt lat="47.81152" lon="-3.70876">
        <ele>38</ele>
        <time>2018-07-18T11:26:09Z</time>
      </trkpt>
      <trkpt lat="47.81151" lon="-3.7088">
        <ele>38</ele>
        <time>2018-07-18T11:26:10Z</time>
      </trkpt>
      <trkpt lat="47.8115" lon="-3.70884">
        <ele>38</ele>
        <time>2018-07-18T11:26:11Z</time>
      </trkpt>
      <trkpt lat="47.81147" lon="-3.7089">
        <ele>38</ele>
        <time>2018-07-18T11:26:12Z</time>
      </trkpt>
      <trkpt lat="47.81145" lon="-3.70896">
        <ele>38</ele>
        <time>2018-07-18T11:26:13Z</time>
      </trkpt>
      <trkpt lat="47.81142" lon="-3.70902">
        <ele>38</ele>
        <time>2018-07-18T11:26:14Z</time>
      </trkpt>
      <trkpt lat="47.8114" lon="-3.70908">
        <ele>38</ele>
        <time>2018-07-18T11:26:15Z</time>
      </trkpt>
      <trkpt lat="47.81138" lon="-3.70915">
        <ele>38</ele>
        <time>2018-07-18T11:26:16Z</time>
      </trkpt>
      <trkpt lat="47.81135" lon="-3.70921">
        <ele>38</ele>
        <time>2018-07-18T11:26:17Z</time>
      </trkpt>
      <trkpt lat="47.81133" lon="-3.70927">
        <ele>38</ele>
        <time>2018-07-18T11:26:18Z</time>
      </trkpt>
      <trkpt lat="47.81131" lon="-3.70933">
        <ele>38</ele>
        <time>2018-07-18T11:26:19Z</time>
      </trkpt>
      <trkpt lat="47.8113" lon="-3.70937">
        <ele>38</ele>
        <time>2018-07-18T11:26:20Z</time>
      </trkpt>
      <trkpt lat="47.81127" lon="-3.70942">
        <ele>38</ele>
        <time>2018-07-18T11:26:21Z</time>
      </trkpt>
      <trkpt lat="47.81126" lon="-3.70946">
        <ele>38</ele>
        <time>2018-07-18T11:26:22Z</time>
      </trkpt>
      <trkpt lat="47.81124" lon="-3.70951">
        <ele>38</ele>
        <time>2018-07-18T11:26:23Z</time>
      </trkpt>
      <trkpt lat="47.81123" lon="-3.70956">
        <ele>38</ele>
        <time>2018-07-18T11:26:24Z</time>
      </trkpt>
      <trkpt lat="47.8112" lon="-3.70962">
        <ele>38</ele>
        <time>2018-07-18T11:26:25Z</time>
      </trkpt>
      <trkpt lat="47.81117" lon="-3.70969">
        <ele>38</ele>
        <time>2018-07-18T11:26:26Z</time>
      </trkpt>
      <trkpt lat="47.81114" lon="-3.70977">
        <ele>38</ele>
        <time>2018-07-18T11:26:27Z</time>
      </trkpt>
      <trkpt lat="47.81111" lon="-3.70984">
        <ele>38</ele>
        <time>2018-07-18T11:26:28Z</time>
      </trkpt>
      <trkpt lat="47.81108" lon="-3.7099">
        <ele>38</ele>
        <time>2018-07-18T11:26:29Z</time>
      </trkpt>
      <trkpt lat="47.81105" lon="-3.70997">
        <ele>38</ele>
        <time>2018-07-18T11:26:30Z</time>
      </trkpt>
      <trkpt lat="47.81103" lon="-3.71005">
        <ele>37</ele>
        <time>2018-07-18T11:26:31Z</time>
      </trkpt>
      <trkpt lat="47.811" lon="-3.71013">
        <ele>37</ele>
        <time>2018-07-18T11:26:32Z</time>
      </trkpt>
      <trkpt lat="47.81097" lon="-3.71021">
        <ele>37</ele>
        <time>2018-07-18T11:26:33Z</time>
      </trkpt>
      <trkpt lat="47.81095" lon="-3.71029">
        <ele>37</ele>
        <time>2018-07-18T11:26:34Z</time>
      </trkpt>
      <trkpt lat="47.81092" lon="-3.71037">
        <ele>37</ele>
        <time>2018-07-18T11:26:35Z</time>
      </trkpt>
      <trkpt lat="47.81088" lon="-3.71045">
        <ele>37</ele>
        <time>2018-07-18T11:26:36Z</time>
      </trkpt>
      <trkpt lat="47.81085" lon="-3.71051">
        <ele>37</ele>
        <time>2018-07-18T11:26:37Z</time>
      </trkpt>
      <trkpt lat="47.8108" lon="-3.71055">
        <ele>37</ele>
        <time>2018-07-18T11:26:38Z</time>
      </trkpt>
      <trkpt lat="47.81074" lon="-3.71061">
        <ele>37</ele>
        <time>2018-07-18T11:26:39Z</time>
      </trkpt>
      <trkpt lat="47.81068" lon="-3.71066">
        <ele>37</ele>
        <time>2018-07-18T11:26:40Z</time>
      </trkpt>
      <trkpt lat="47.81062" lon="-3.71068">
        <ele>37</ele>
        <time>2018-07-18T11:26:41Z</time>
      </trkpt>
      <trkpt lat="47.81055" lon="-3.71071">
        <ele>37</ele>
        <time>2018-07-18T11:26:42Z</time>
      </trkpt>
      <trkpt lat="47.81049" lon="-3.71071">
        <ele>37</ele>
        <time>2018-07-18T11:26:43Z</time>
      </trkpt>
      <trkpt lat="47.81042" lon="-3.71072">
        <ele>36</ele>
        <time>2018-07-18T11:26:44Z</time>
      </trkpt>
      <trkpt lat="47.81035" lon="-3.71072">
        <ele>36</ele>
        <time>2018-07-18T11:26:45Z</time>
      </trkpt>
      <trkpt lat="47.81028" lon="-3.71073">
        <ele>35</ele>
        <time>2018-07-18T11:26:46Z</time>
      </trkpt>
      <trkpt lat="47.8102" lon="-3.71074">
        <ele>35</ele>
        <time>2018-07-18T11:26:47Z</time>
      </trkpt>
      <trkpt lat="47.81012" lon="-3.71076">
        <ele>35</ele>
        <time>2018-07-18T11:26:48Z</time>
      </trkpt>
      <trkpt lat="47.81003" lon="-3.71077">
        <ele>34</ele>
        <time>2018-07-18T11:26:49Z</time>
      </trkpt>
      <trkpt lat="47.80994" lon="-3.71079">
        <ele>33</ele>
        <time>2018-07-18T11:26:50Z</time>
      </trkpt>
      <trkpt lat="47.80986" lon="-3.7108">
        <ele>32</ele>
        <time>2018-07-18T11:26:51Z</time>
      </trkpt>
      <trkpt lat="47.80977" lon="-3.71083">
        <ele>32</ele>
        <time>2018-07-18T11:26:52Z</time>
      </trkpt>
      <trkpt lat="47.80969" lon="-3.71086">
        <ele>31</ele>
        <time>2018-07-18T11:26:53Z</time>
      </trkpt>
      <trkpt lat="47.80962" lon="-3.7109">
        <ele>30</ele>
        <time>2018-07-18T11:26:54Z</time>
      </trkpt>
      <trkpt lat="47.80953" lon="-3.71095">
        <ele>29</ele>
        <time>2018-07-18T11:26:55Z</time>
      </trkpt>
      <trkpt lat="47.80944" lon="-3.71099">
        <ele>29</ele>
        <time>2018-07-18T11:26:56Z</time>
      </trkpt>
      <trkpt lat="47.80936" lon="-3.71102">
        <ele>28</ele>
        <time>2018-07-18T11:26:57Z</time>
      </trkpt>
      <trkpt lat="47.80929" lon="-3.71104">
        <ele>28</ele>
        <time>2018-07-18T11:26:58Z</time>
      </trkpt>
      <trkpt lat="47.80921" lon="-3.71107">
        <ele>27</ele>
        <time>2018-07-18T11:26:59Z</time>
      </trkpt>
      <trkpt lat="47.80913" lon="-3.71111">
        <ele>27</ele>
        <time>2018-07-18T11:27:00Z</time>
      </trkpt>
      <trkpt lat="47.80905" lon="-3.71115">
        <ele>26</ele>
        <time>2018-07-18T11:27:01Z</time>
      </trkpt>
      <trkpt lat="47.80898" lon="-3.7112">
        <ele>26</ele>
        <time>2018-07-18T11:27:02Z</time>
      </trkpt>
      <trkpt lat="47.80893" lon="-3.71125">
        <ele>26</ele>
        <time>2018-07-18T11:27:03Z</time>
      </trkpt>
      <trkpt lat="47.80887" lon="-3.71127">
        <ele>25</ele>
        <time>2018-07-18T11:27:04Z</time>
      </trkpt>
      <trkpt lat="47.80883" lon="-3.71129">
        <ele>25</ele>
        <time>2018-07-18T11:27:05Z</time>
      </trkpt>
      <trkpt lat="47.80879" lon="-3.71132">
        <ele>25</ele>
        <time>2018-07-18T11:27:06Z</time>
      </trkpt>
      <trkpt lat="47.80875" lon="-3.71133">
        <ele>25</ele>
        <time>2018-07-18T11:27:07Z</time>
      </trkpt>
      <trkpt lat="47.80871" lon="-3.71136">
        <ele>25</ele>
        <time>2018-07-18T11:27:08Z</time>
      </trkpt>
      <trkpt lat="47.80868" lon="-3.71137">
        <ele>25</ele>
        <time>2018-07-18T11:27:09Z</time>
      </trkpt>
      <trkpt lat="47.80864" lon="-3.71137">
        <ele>24</ele>
        <time>2018-07-18T11:27:10Z</time>
      </trkpt>
      <trkpt lat="47.8086" lon="-3.71138">
        <ele>24</ele>
        <time>2018-07-18T11:27:11Z</time>
      </trkpt>
      <trkpt lat="47.80857" lon="-3.71139">
        <ele>24</ele>
        <time>2018-07-18T11:27:12Z</time>
      </trkpt>
      <trkpt lat="47.80852" lon="-3.7114">
        <ele>24</ele>
        <time>2018-07-18T11:27:13Z</time>
      </trkpt>
      <trkpt lat="47.80848" lon="-3.71141">
        <ele>24</ele>
        <time>2018-07-18T11:27:14Z</time>
      </trkpt>
      <trkpt lat="47.80844" lon="-3.71142">
        <ele>24</ele>
        <time>2018-07-18T11:27:15Z</time>
      </trkpt>
      <trkpt lat="47.8084" lon="-3.71143">
        <ele>23</ele>
        <time>2018-07-18T11:27:16Z</time>
      </trkpt>
      <trkpt lat="47.80837" lon="-3.71145">
        <ele>23</ele>
        <time>2018-07-18T11:27:17Z</time>
      </trkpt>
      <trkpt lat="47.80834" lon="-3.71146">
        <ele>23</ele>
        <time>2018-07-18T11:27:18Z</time>
      </trkpt>
      <trkpt lat="47.8083" lon="-3.71146">
        <ele>23</ele>
        <time>2018-07-18T11:27:19Z</time>
      </trkpt>
      <trkpt lat="47.80826" lon="-3.71148">
        <ele>23</ele>
        <time>2018-07-18T11:27:20Z</time>
      </trkpt>
      <trkpt lat="47.80822" lon="-3.71149">
        <ele>23</ele>
        <time>2018-07-18T11:27:21Z</time>
      </trkpt>
      <trkpt lat="47.80818" lon="-3.7115">
        <ele>23</ele>
        <time>2018-07-18T11:27:22Z</time>
      </trkpt>
      <trkpt lat="47.80814" lon="-3.7115">
        <ele>23</ele>
        <time>2018-07-18T11:27:23Z</time>
      </trkpt>
      <trkpt lat="47.80811" lon="-3.7115">
        <ele>23</ele>
        <time>2018-07-18T11:27:24Z</time>
      </trkpt>
      <trkpt lat="47.80807" lon="-3.7115">
        <ele>23</ele>
        <time>2018-07-18T11:27:25Z</time>
      </trkpt>
      <trkpt lat="47.80803" lon="-3.71151">
        <ele>23</ele>
        <time>2018-07-18T11:27:26Z</time>
      </trkpt>
      <trkpt lat="47.808" lon="-3.71151">
        <ele>23</ele>
        <time>2018-07-18T11:27:27Z</time>
      </trkpt>
      <trkpt lat="47.80797" lon="-3.71152">
        <ele>23</ele>
        <time>2018-07-18T11:27:28Z</time>
      </trkpt>
      <trkpt lat="47.80793" lon="-3.71152">
        <ele>23</ele>
        <time>2018-07-18T11:27:29Z</time>
      </trkpt>
      <trkpt lat="47.8079" lon="-3.71152">
        <ele>23</ele>
        <time>2018-07-18T11:27:30Z</time>
      </trkpt>
      <trkpt lat="47.80786" lon="-3.71153">
        <ele>23</ele>
        <time>2018-07-18T11:27:31Z</time>
      </trkpt>
      <trkpt lat="47.80783" lon="-3.71154">
        <ele>23</ele>
        <time>2018-07-18T11:27:32Z</time>
      </trkpt>
      <trkpt lat="47.80781" lon="-3.71154">
        <ele>23</ele>
        <time>2018-07-18T11:27:33Z</time>
      </trkpt>
      <trkpt lat="47.80778" lon="-3.71154">
        <ele>23</ele>
        <time>2018-07-18T11:27:34Z</time>
      </trkpt>
      <trkpt lat="47.80775" lon="-3.71155">
        <ele>23</ele>
        <time>2018-07-18T11:27:35Z</time>
      </trkpt>
      <trkpt lat="47.80771" lon="-3.71155">
        <ele>23</ele>
        <time>2018-07-18T11:27:36Z</time>
      </trkpt>
      <trkpt lat="47.80767" lon="-3.71156">
        <ele>24</ele>
        <time>2018-07-18T11:27:37Z</time>
      </trkpt>
      <trkpt lat="47.80763" lon="-3.71156">
        <ele>24</ele>
        <time>2018-07-18T11:27:38Z</time>
      </trkpt>
      <trkpt lat="47.80758" lon="-3.71157">
        <ele>24</ele>
        <time>2018-07-18T11:27:39Z</time>
      </trkpt>
      <trkpt lat="47.80754" lon="-3.71156">
        <ele>24</ele>
        <time>2018-07-18T11:27:40Z</time>
      </trkpt>
      <trkpt lat="47.80749" lon="-3.71156">
        <ele>24</ele>
        <time>2018-07-18T11:27:41Z</time>
      </trkpt>
      <trkpt lat="47.80745" lon="-3.71155">
        <ele>24</ele>
        <time>2018-07-18T11:27:42Z</time>
      </trkpt>
      <trkpt lat="47.80741" lon="-3.71153">
        <ele>24</ele>
        <time>2018-07-18T11:27:43Z</time>
      </trkpt>
      <trkpt lat="47.80737" lon="-3.71151">
        <ele>24</ele>
        <time>2018-07-18T11:27:44Z</time>
      </trkpt>
      <trkpt lat="47.80733" lon="-3.71149">
        <ele>24</ele>
        <time>2018-07-18T11:27:45Z</time>
      </trkpt>
      <trkpt lat="47.8073" lon="-3.71146">
        <ele>24</ele>
        <time>2018-07-18T11:27:46Z</time>
      </trkpt>
      <trkpt lat="47.80728" lon="-3.71143">
        <ele>24</ele>
        <time>2018-07-18T11:27:47Z</time>
      </trkpt>
      <trkpt lat="47.80725" lon="-3.7114">
        <ele>24</ele>
        <time>2018-07-18T11:27:48Z</time>
      </trkpt>
      <trkpt lat="47.80723" lon="-3.7114">
        <ele>24</ele>
        <time>2018-07-18T11:27:49Z</time>
      </trkpt>
      <trkpt lat="47.8072" lon="-3.71142">
        <ele>24</ele>
        <time>2018-07-18T11:27:50Z</time>
      </trkpt>
      <trkpt lat="47.80717" lon="-3.71145">
        <ele>24</ele>
        <time>2018-07-18T11:27:51Z</time>
      </trkpt>
      <trkpt lat="47.80714" lon="-3.71148">
        <ele>24</ele>
        <time>2018-07-18T11:27:52Z</time>
      </trkpt>
      <trkpt lat="47.80712" lon="-3.71151">
        <ele>24</ele>
        <time>2018-07-18T11:27:53Z</time>
      </trkpt>
      <trkpt lat="47.80709" lon="-3.71154">
        <ele>24</ele>
        <time>2018-07-18T11:27:54Z</time>
      </trkpt>
      <trkpt lat="47.80708" lon="-3.71159">
        <ele>24</ele>
        <time>2018-07-18T11:27:55Z</time>
      </trkpt>
      <trkpt lat="47.80706" lon="-3.71163">
        <ele>24</ele>
        <time>2018-07-18T11:27:56Z</time>
      </trkpt>
      <trkpt lat="47.80704" lon="-3.71168">
        <ele>24</ele>
        <time>2018-07-18T11:27:57Z</time>
      </trkpt>
      <trkpt lat="47.80703" lon="-3.71173">
        <ele>24</ele>
        <time>2018-07-18T11:27:58Z</time>
      </trkpt>
      <trkpt lat="47.80701" lon="-3.71178">
        <ele>24</ele>
        <time>2018-07-18T11:27:59Z</time>
      </trkpt>
      <trkpt lat="47.807" lon="-3.71183">
        <ele>24</ele>
        <time>2018-07-18T11:28:00Z</time>
      </trkpt>
      <trkpt lat="47.80698" lon="-3.71188">
        <ele>24</ele>
        <time>2018-07-18T11:28:01Z</time>
      </trkpt>
      <trkpt lat="47.80695" lon="-3.71193">
        <ele>24</ele>
        <time>2018-07-18T11:28:02Z</time>
      </trkpt>
      <trkpt lat="47.80693" lon="-3.71197">
        <ele>24</ele>
        <time>2018-07-18T11:28:03Z</time>
      </trkpt>
      <trkpt lat="47.80691" lon="-3.71202">
        <ele>24</ele>
        <time>2018-07-18T11:28:04Z</time>
      </trkpt>
      <trkpt lat="47.80689" lon="-3.71205">
        <ele>24</ele>
        <time>2018-07-18T11:28:05Z</time>
      </trkpt>
      <trkpt lat="47.80687" lon="-3.71208">
        <ele>24</ele>
        <time>2018-07-18T11:28:06Z</time>
      </trkpt>
      <trkpt lat="47.80684" lon="-3.71211">
        <ele>24</ele>
        <time>2018-07-18T11:28:07Z</time>
      </trkpt>
      <trkpt lat="47.8068" lon="-3.71214">
        <ele>24</ele>
        <time>2018-07-18T11:28:08Z</time>
      </trkpt>
      <trkpt lat="47.80677" lon="-3.71218">
        <ele>24</ele>
        <time>2018-07-18T11:28:09Z</time>
      </trkpt>
      <trkpt lat="47.80674" lon="-3.71221">
        <ele>24</ele>
        <time>2018-07-18T11:28:10Z</time>
      </trkpt>
      <trkpt lat="47.80671" lon="-3.71224">
        <ele>24</ele>
        <time>2018-07-18T11:28:11Z</time>
      </trkpt>
      <trkpt lat="47.80667" lon="-3.71228">
        <ele>24</ele>
        <time>2018-07-18T11:28:12Z</time>
      </trkpt>
      <trkpt lat="47.80664" lon="-3.71231">
        <ele>24</ele>
        <time>2018-07-18T11:28:13Z</time>
      </trkpt>
      <trkpt lat="47.80661" lon="-3.71234">
        <ele>24</ele>
        <time>2018-07-18T11:28:14Z</time>
      </trkpt>
      <trkpt lat="47.80658" lon="-3.71237">
        <ele>24</ele>
        <time>2018-07-18T11:28:15Z</time>
      </trkpt>
      <trkpt lat="47.80655" lon="-3.7124">
        <ele>24</ele>
        <time>2018-07-18T11:28:16Z</time>
      </trkpt>
      <trkpt lat="47.80652" lon="-3.71243">
        <ele>25</ele>
        <time>2018-07-18T11:28:17Z</time>
      </trkpt>
      <trkpt lat="47.80649" lon="-3.71247">
        <ele>25</ele>
        <time>2018-07-18T11:28:18Z</time>
      </trkpt>
      <trkpt lat="47.80646" lon="-3.7125">
        <ele>25</ele>
        <time>2018-07-18T11:28:19Z</time>
      </trkpt>
      <trkpt lat="47.80642" lon="-3.71253">
        <ele>26</ele>
        <time>2018-07-18T11:28:20Z</time>
      </trkpt>
      <trkpt lat="47.8064" lon="-3.71255">
        <ele>26</ele>
        <time>2018-07-18T11:28:21Z</time>
      </trkpt>
      <trkpt lat="47.80637" lon="-3.71258">
        <ele>26</ele>
        <time>2018-07-18T11:28:22Z</time>
      </trkpt>
      <trkpt lat="47.80633" lon="-3.71261">
        <ele>27</ele>
        <time>2018-07-18T11:28:23Z</time>
      </trkpt>
      <trkpt lat="47.80631" lon="-3.71264">
        <ele>27</ele>
        <time>2018-07-18T11:28:24Z</time>
      </trkpt>
      <trkpt lat="47.80628" lon="-3.71268">
        <ele>27</ele>
        <time>2018-07-18T11:28:25Z</time>
      </trkpt>
      <trkpt lat="47.80626" lon="-3.71271">
        <ele>28</ele>
        <time>2018-07-18T11:28:26Z</time>
      </trkpt>
      <trkpt lat="47.80624" lon="-3.71274">
        <ele>28</ele>
        <time>2018-07-18T11:28:27Z</time>
      </trkpt>
      <trkpt lat="47.80622" lon="-3.71275">
        <ele>28</ele>
        <time>2018-07-18T11:28:28Z</time>
      </trkpt>
      <trkpt lat="47.80618" lon="-3.71276">
        <ele>28</ele>
        <time>2018-07-18T11:28:29Z</time>
      </trkpt>
      <trkpt lat="47.80615" lon="-3.71277">
        <ele>29</ele>
        <time>2018-07-18T11:28:30Z</time>
      </trkpt>
      <trkpt lat="47.80612" lon="-3.71278">
        <ele>29</ele>
        <time>2018-07-18T11:28:31Z</time>
      </trkpt>
      <trkpt lat="47.8061" lon="-3.7128">
        <ele>29</ele>
        <time>2018-07-18T11:28:32Z</time>
      </trkpt>
      <trkpt lat="47.80607" lon="-3.71281">
        <ele>29</ele>
        <time>2018-07-18T11:28:33Z</time>
      </trkpt>
      <trkpt lat="47.80604" lon="-3.71282">
        <ele>30</ele>
        <time>2018-07-18T11:28:34Z</time>
      </trkpt>
      <trkpt lat="47.80602" lon="-3.71283">
        <ele>30</ele>
        <time>2018-07-18T11:28:35Z</time>
      </trkpt>
      <trkpt lat="47.80599" lon="-3.71281">
        <ele>30</ele>
        <time>2018-07-18T11:28:36Z</time>
      </trkpt>
      <trkpt lat="47.80598" lon="-3.7128">
        <ele>31</ele>
        <time>2018-07-18T11:28:37Z</time>
      </trkpt>
      <trkpt lat="47.80596" lon="-3.71278">
        <ele>31</ele>
        <time>2018-07-18T11:28:38Z</time>
      </trkpt>
      <trkpt lat="47.80594" lon="-3.71276">
        <ele>31</ele>
        <time>2018-07-18T11:28:39Z</time>
      </trkpt>
      <trkpt lat="47.80593" lon="-3.71274">
        <ele>32</ele>
        <time>2018-07-18T11:28:40Z</time>
      </trkpt>
      <trkpt lat="47.80592" lon="-3.71272">
        <ele>32</ele>
        <time>2018-07-18T11:28:41Z</time>
      </trkpt>
      <trkpt lat="47.80591" lon="-3.71271">
        <ele>32</ele>
        <time>2018-07-18T11:28:42Z</time>
      </trkpt>
      <trkpt lat="47.80589" lon="-3.71269">
        <ele>33</ele>
        <time>2018-07-18T11:28:43Z</time>
      </trkpt>
      <trkpt lat="47.80587" lon="-3.71267">
        <ele>33</ele>
        <time>2018-07-18T11:28:44Z</time>
      </trkpt>
      <trkpt lat="47.80585" lon="-3.71266">
        <ele>33</ele>
        <time>2018-07-18T11:28:45Z</time>
      </trkpt>
      <trkpt lat="47.80583" lon="-3.71266">
        <ele>34</ele>
        <time>2018-07-18T11:28:46Z</time>
      </trkpt>
      <trkpt lat="47.80583" lon="-3.71266">
        <ele>34</ele>
        <time>2018-07-18T11:28:47Z</time>
      </trkpt>
      <trkpt lat="47.80582" lon="-3.71268">
        <ele>34</ele>
        <time>2018-07-18T11:28:48Z</time>
      </trkpt>
      <trkpt lat="47.80581" lon="-3.7127">
        <ele>35</ele>
        <time>2018-07-18T11:28:49Z</time>
      </trkpt>
      <trkpt lat="47.8058" lon="-3.71274">
        <ele>35</ele>
        <time>2018-07-18T11:28:50Z</time>
      </trkpt>
      <trkpt lat="47.80579" lon="-3.71278">
        <ele>35</ele>
        <time>2018-07-18T11:28:51Z</time>
      </trkpt>
      <trkpt lat="47.80578" lon="-3.71282">
        <ele>36</ele>
        <time>2018-07-18T11:28:52Z</time>
      </trkpt>
      <trkpt lat="47.80577" lon="-3.71287">
        <ele>36</ele>
        <time>2018-07-18T11:28:53Z</time>
      </trkpt>
      <trkpt lat="47.80576" lon="-3.71291">
        <ele>36</ele>
        <time>2018-07-18T11:28:54Z</time>
      </trkpt>
      <trkpt lat="47.80574" lon="-3.71295">
        <ele>36</ele>
        <time>2018-07-18T11:28:55Z</time>
      </trkpt>
      <trkpt lat="47.80573" lon="-3.71299">
        <ele>36</ele>
        <time>2018-07-18T11:28:56Z</time>
      </trkpt>
      <trkpt lat="47.80572" lon="-3.71302">
        <ele>37</ele>
        <time>2018-07-18T11:28:57Z</time>
      </trkpt>
      <trkpt lat="47.8057" lon="-3.71307">
        <ele>37</ele>
        <time>2018-07-18T11:28:58Z</time>
      </trkpt>
      <trkpt lat="47.80568" lon="-3.71311">
        <ele>37</ele>
        <time>2018-07-18T11:28:59Z</time>
      </trkpt>
      <trkpt lat="47.80566" lon="-3.71316">
        <ele>37</ele>
        <time>2018-07-18T11:29:00Z</time>
      </trkpt>
      <trkpt lat="47.80565" lon="-3.71321">
        <ele>37</ele>
        <time>2018-07-18T11:29:01Z</time>
      </trkpt>
      <trkpt lat="47.80563" lon="-3.71326">
        <ele>37</ele>
        <time>2018-07-18T11:29:02Z</time>
      </trkpt>
      <trkpt lat="47.80561" lon="-3.71331">
        <ele>37</ele>
        <time>2018-07-18T11:29:03Z</time>
      </trkpt>
      <trkpt lat="47.80559" lon="-3.71336">
        <ele>36</ele>
        <time>2018-07-18T11:29:04Z</time>
      </trkpt>
      <trkpt lat="47.80558" lon="-3.71342">
        <ele>36</ele>
        <time>2018-07-18T11:29:05Z</time>
      </trkpt>
      <trkpt lat="47.80556" lon="-3.71349">
        <ele>36</ele>
        <time>2018-07-18T11:29:06Z</time>
      </trkpt>
      <trkpt lat="47.80554" lon="-3.71355">
        <ele>36</ele>
        <time>2018-07-18T11:29:07Z</time>
      </trkpt>
      <trkpt lat="47.80552" lon="-3.71362">
        <ele>36</ele>
        <time>2018-07-18T11:29:08Z</time>
      </trkpt>
      <trkpt lat="47.8055" lon="-3.71369">
        <ele>35</ele>
        <time>2018-07-18T11:29:09Z</time>
      </trkpt>
      <trkpt lat="47.80548" lon="-3.71377">
        <ele>35</ele>
        <time>2018-07-18T11:29:10Z</time>
      </trkpt>
      <trkpt lat="47.80547" lon="-3.71385">
        <ele>35</ele>
        <time>2018-07-18T11:29:11Z</time>
      </trkpt>
      <trkpt lat="47.80545" lon="-3.71392">
        <ele>35</ele>
        <time>2018-07-18T11:29:12Z</time>
      </trkpt>
      <trkpt lat="47.80543" lon="-3.71399">
        <ele>34</ele>
        <time>2018-07-18T11:29:13Z</time>
      </trkpt>
      <trkpt lat="47.80541" lon="-3.71406">
        <ele>34</ele>
        <time>2018-07-18T11:29:14Z</time>
      </trkpt>
      <trkpt lat="47.80539" lon="-3.71414">
        <ele>34</ele>
        <time>2018-07-18T11:29:15Z</time>
      </trkpt>
      <trkpt lat="47.80537" lon="-3.71421">
        <ele>34</ele>
        <time>2018-07-18T11:29:16Z</time>
      </trkpt>
      <trkpt lat="47.80535" lon="-3.71429">
        <ele>33</ele>
        <time>2018-07-18T11:29:17Z</time>
      </trkpt>
      <trkpt lat="47.80532" lon="-3.71436">
        <ele>33</ele>
        <time>2018-07-18T11:29:18Z</time>
      </trkpt>
      <trkpt lat="47.8053" lon="-3.71444">
        <ele>33</ele>
        <time>2018-07-18T11:29:19Z</time>
      </trkpt>
      <trkpt lat="47.80527" lon="-3.71451">
        <ele>33</ele>
        <time>2018-07-18T11:29:20Z</time>
      </trkpt>
      <trkpt lat="47.80525" lon="-3.71458">
        <ele>32</ele>
        <time>2018-07-18T11:29:21Z</time>
      </trkpt>
      <trkpt lat="47.80523" lon="-3.71466">
        <ele>32</ele>
        <time>2018-07-18T11:29:22Z</time>
      </trkpt>
      <trkpt lat="47.8052" lon="-3.71474">
        <ele>32</ele>
        <time>2018-07-18T11:29:23Z</time>
      </trkpt>
      <trkpt lat="47.80518" lon="-3.71481">
        <ele>32</ele>
        <time>2018-07-18T11:29:24Z</time>
      </trkpt>
      <trkpt lat="47.80516" lon="-3.71489">
        <ele>31</ele>
        <time>2018-07-18T11:29:25Z</time>
      </trkpt>
      <trkpt lat="47.80513" lon="-3.71497">
        <ele>31</ele>
        <time>2018-07-18T11:29:26Z</time>
      </trkpt>
      <trkpt lat="47.80511" lon="-3.71505">
        <ele>31</ele>
        <time>2018-07-18T11:29:27Z</time>
      </trkpt>
      <trkpt lat="47.80508" lon="-3.71513">
        <ele>31</ele>
        <time>2018-07-18T11:29:28Z</time>
      </trkpt>
      <trkpt lat="47.80506" lon="-3.71521">
        <ele>30</ele>
        <time>2018-07-18T11:29:29Z</time>
      </trkpt>
      <trkpt lat="47.80504" lon="-3.7153">
        <ele>30</ele>
        <time>2018-07-18T11:29:30Z</time>
      </trkpt>
      <trkpt lat="47.80501" lon="-3.71537">
        <ele>30</ele>
        <time>2018-07-18T11:29:31Z</time>
      </trkpt>
      <trkpt lat="47.80499" lon="-3.71545">
        <ele>30</ele>
        <time>2018-07-18T11:29:32Z</time>
      </trkpt>
      <trkpt lat="47.80497" lon="-3.71553">
        <ele>30</ele>
        <time>2018-07-18T11:29:33Z</time>
      </trkpt>
      <trkpt lat="47.80496" lon="-3.7156">
        <ele>30</ele>
        <time>2018-07-18T11:29:34Z</time>
      </trkpt>
      <trkpt lat="47.80495" lon="-3.71568">
        <ele>30</ele>
        <time>2018-07-18T11:29:35Z</time>
      </trkpt>
      <trkpt lat="47.80493" lon="-3.71576">
        <ele>29</ele>
        <time>2018-07-18T11:29:36Z</time>
      </trkpt>
      <trkpt lat="47.80493" lon="-3.71583">
        <ele>29</ele>
        <time>2018-07-18T11:29:37Z</time>
      </trkpt>
      <trkpt lat="47.80493" lon="-3.71591">
        <ele>29</ele>
        <time>2018-07-18T11:29:38Z</time>
      </trkpt>
      <trkpt lat="47.80493" lon="-3.71599">
        <ele>29</ele>
        <time>2018-07-18T11:29:39Z</time>
      </trkpt>
      <trkpt lat="47.80493" lon="-3.71606">
        <ele>30</ele>
        <time>2018-07-18T11:29:40Z</time>
      </trkpt>
      <trkpt lat="47.80495" lon="-3.71613">
        <ele>30</ele>
        <time>2018-07-18T11:29:41Z</time>
      </trkpt>
      <trkpt lat="47.80496" lon="-3.71619">
        <ele>30</ele>
        <time>2018-07-18T11:29:42Z</time>
      </trkpt>
      <trkpt lat="47.80497" lon="-3.71626">
        <ele>30</ele>
        <time>2018-07-18T11:29:43Z</time>
      </trkpt>
      <trkpt lat="47.80499" lon="-3.71632">
        <ele>30</ele>
        <time>2018-07-18T11:29:44Z</time>
      </trkpt>
      <trkpt lat="47.805" lon="-3.71638">
        <ele>30</ele>
        <time>2018-07-18T11:29:45Z</time>
      </trkpt>
      <trkpt lat="47.805" lon="-3.71645">
        <ele>31</ele>
        <time>2018-07-18T11:29:46Z</time>
      </trkpt>
      <trkpt lat="47.80501" lon="-3.71651">
        <ele>31</ele>
        <time>2018-07-18T11:29:47Z</time>
      </trkpt>
      <trkpt lat="47.80503" lon="-3.71658">
        <ele>31</ele>
        <time>2018-07-18T11:29:48Z</time>
      </trkpt>
      <trkpt lat="47.80504" lon="-3.71665">
        <ele>31</ele>
        <time>2018-07-18T11:29:49Z</time>
      </trkpt>
      <trkpt lat="47.80505" lon="-3.71672">
        <ele>31</ele>
        <time>2018-07-18T11:29:50Z</time>
      </trkpt>
      <trkpt lat="47.80506" lon="-3.71678">
        <ele>31</ele>
        <time>2018-07-18T11:29:51Z</time>
      </trkpt>
      <trkpt lat="47.80507" lon="-3.71685">
        <ele>32</ele>
        <time>2018-07-18T11:29:52Z</time>
      </trkpt>
      <trkpt lat="47.80509" lon="-3.71692">
        <ele>32</ele>
        <time>2018-07-18T11:29:53Z</time>
      </trkpt>
      <trkpt lat="47.8051" lon="-3.71698">
        <ele>32</ele>
        <time>2018-07-18T11:29:54Z</time>
      </trkpt>
      <trkpt lat="47.80512" lon="-3.71705">
        <ele>32</ele>
        <time>2018-07-18T11:29:55Z</time>
      </trkpt>
      <trkpt lat="47.80514" lon="-3.71712">
        <ele>32</ele>
        <time>2018-07-18T11:29:56Z</time>
      </trkpt>
      <trkpt lat="47.80516" lon="-3.71718">
        <ele>33</ele>
        <time>2018-07-18T11:29:57Z</time>
      </trkpt>
      <trkpt lat="47.80518" lon="-3.71724">
        <ele>33</ele>
        <time>2018-07-18T11:29:58Z</time>
      </trkpt>
      <trkpt lat="47.8052" lon="-3.7173">
        <ele>33</ele>
        <time>2018-07-18T11:29:59Z</time>
      </trkpt>
      <trkpt lat="47.80523" lon="-3.71736">
        <ele>33</ele>
        <time>2018-07-18T11:30:00Z</time>
      </trkpt>
      <trkpt lat="47.80527" lon="-3.71741">
        <ele>33</ele>
        <time>2018-07-18T11:30:01Z</time>
      </trkpt>
      <trkpt lat="47.8053" lon="-3.71746">
        <ele>33</ele>
        <time>2018-07-18T11:30:02Z</time>
      </trkpt>
      <trkpt lat="47.80534" lon="-3.71751">
        <ele>33</ele>
        <time>2018-07-18T11:30:03Z</time>
      </trkpt>
      <trkpt lat="47.80538" lon="-3.71756">
        <ele>33</ele>
        <time>2018-07-18T11:30:04Z</time>
      </trkpt>
      <trkpt lat="47.80542" lon="-3.71762">
        <ele>33</ele>
        <time>2018-07-18T11:30:05Z</time>
      </trkpt>
      <trkpt lat="47.80545" lon="-3.71769">
        <ele>33</ele>
        <time>2018-07-18T11:30:06Z</time>
      </trkpt>
      <trkpt lat="47.80548" lon="-3.71777">
        <ele>33</ele>
        <time>2018-07-18T11:30:07Z</time>
      </trkpt>
      <trkpt lat="47.8055" lon="-3.71785">
        <ele>33</ele>
        <time>2018-07-18T11:30:08Z</time>
      </trkpt>
      <trkpt lat="47.80553" lon="-3.71793">
        <ele>33</ele>
        <time>2018-07-18T11:30:09Z</time>
      </trkpt>
      <trkpt lat="47.80555" lon="-3.71801">
        <ele>33</ele>
        <time>2018-07-18T11:30:10Z</time>
      </trkpt>
      <trkpt lat="47.80556" lon="-3.71808">
        <ele>33</ele>
        <time>2018-07-18T11:30:11Z</time>
      </trkpt>
      <trkpt lat="47.80557" lon="-3.71815">
        <ele>33</ele>
        <time>2018-07-18T11:30:12Z</time>
      </trkpt>
      <trkpt lat="47.80556" lon="-3.71823">
        <ele>33</ele>
        <time>2018-07-18T11:30:13Z</time>
      </trkpt>
      <trkpt lat="47.80555" lon="-3.71832">
        <ele>33</ele>
        <time>2018-07-18T11:30:14Z</time>
      </trkpt>
      <trkpt lat="47.80552" lon="-3.71842">
        <ele>33</ele>
        <time>2018-07-18T11:30:15Z</time>
      </trkpt>
      <trkpt lat="47.80547" lon="-3.71851">
        <ele>33</ele>
        <time>2018-07-18T11:30:16Z</time>
      </trkpt>
      <trkpt lat="47.80543" lon="-3.71858">
        <ele>34</ele>
        <time>2018-07-18T11:30:17Z</time>
      </trkpt>
      <trkpt lat="47.80538" lon="-3.71865">
        <ele>34</ele>
        <time>2018-07-18T11:30:18Z</time>
      </trkpt>
      <trkpt lat="47.80533" lon="-3.71871">
        <ele>34</ele>
        <time>2018-07-18T11:30:19Z</time>
      </trkpt>
      <trkpt lat="47.80528" lon="-3.71876">
        <ele>34</ele>
        <time>2018-07-18T11:30:20Z</time>
      </trkpt>
      <trkpt lat="47.80524" lon="-3.71882">
        <ele>34</ele>
        <time>2018-07-18T11:30:21Z</time>
      </trkpt>
      <trkpt lat="47.8052" lon="-3.71887">
        <ele>34</ele>
        <time>2018-07-18T11:30:22Z</time>
      </trkpt>
      <trkpt lat="47.80515" lon="-3.7189">
        <ele>34</ele>
        <time>2018-07-18T11:30:23Z</time>
      </trkpt>
      <trkpt lat="47.80511" lon="-3.71895">
        <ele>35</ele>
        <time>2018-07-18T11:30:24Z</time>
      </trkpt>
      <trkpt lat="47.80507" lon="-3.71899">
        <ele>35</ele>
        <time>2018-07-18T11:30:25Z</time>
      </trkpt>
      <trkpt lat="47.80503" lon="-3.71904">
        <ele>35</ele>
        <time>2018-07-18T11:30:26Z</time>
      </trkpt>
      <trkpt lat="47.80498" lon="-3.71908">
        <ele>35</ele>
        <time>2018-07-18T11:30:27Z</time>
      </trkpt>
      <trkpt lat="47.80494" lon="-3.71913">
        <ele>35</ele>
        <time>2018-07-18T11:30:28Z</time>
      </trkpt>
      <trkpt lat="47.8049" lon="-3.71917">
        <ele>35</ele>
        <time>2018-07-18T11:30:29Z</time>
      </trkpt>
      <trkpt lat="47.80487" lon="-3.71922">
        <ele>35</ele>
        <time>2018-07-18T11:30:30Z</time>
      </trkpt>
      <trkpt lat="47.80484" lon="-3.71926">
        <ele>36</ele>
        <time>2018-07-18T11:30:31Z</time>
      </trkpt>
      <trkpt lat="47.8048" lon="-3.7193">
        <ele>36</ele>
        <time>2018-07-18T11:30:32Z</time>
      </trkpt>
      <trkpt lat="47.80476" lon="-3.71935">
        <ele>36</ele>
        <time>2018-07-18T11:30:33Z</time>
      </trkpt>
      <trkpt lat="47.80472" lon="-3.71941">
        <ele>36</ele>
        <time>2018-07-18T11:30:34Z</time>
      </trkpt>
      <trkpt lat="47.80469" lon="-3.71947">
        <ele>36</ele>
        <time>2018-07-18T11:30:35Z</time>
      </trkpt>
      <trkpt lat="47.80466" lon="-3.71952">
        <ele>36</ele>
        <time>2018-07-18T11:30:36Z</time>
      </trkpt>
      <trkpt lat="47.80462" lon="-3.71957">
        <ele>36</ele>
        <time>2018-07-18T11:30:37Z</time>
      </trkpt>
      <trkpt lat="47.80458" lon="-3.71963">
        <ele>36</ele>
        <time>2018-07-18T11:30:38Z</time>
      </trkpt>
      <trkpt lat="47.80454" lon="-3.71969">
        <ele>36</ele>
        <time>2018-07-18T11:30:39Z</time>
      </trkpt>
      <trkpt lat="47.8045" lon="-3.71974">
        <ele>36</ele>
        <time>2018-07-18T11:30:40Z</time>
      </trkpt>
      <trkpt lat="47.80445" lon="-3.7198">
        <ele>36</ele>
        <time>2018-07-18T11:30:41Z</time>
      </trkpt>
      <trkpt lat="47.80441" lon="-3.71986">
        <ele>36</ele>
        <time>2018-07-18T11:30:42Z</time>
      </trkpt>
      <trkpt lat="47.80436" lon="-3.71991">
        <ele>36</ele>
        <time>2018-07-18T11:30:43Z</time>
      </trkpt>
      <trkpt lat="47.80431" lon="-3.71996">
        <ele>36</ele>
        <time>2018-07-18T11:30:44Z</time>
      </trkpt>
      <trkpt lat="47.80426" lon="-3.72001">
        <ele>36</ele>
        <time>2018-07-18T11:30:45Z</time>
      </trkpt>
      <trkpt lat="47.80421" lon="-3.72006">
        <ele>35</ele>
        <time>2018-07-18T11:30:46Z</time>
      </trkpt>
      <trkpt lat="47.80417" lon="-3.72011">
        <ele>35</ele>
        <time>2018-07-18T11:30:47Z</time>
      </trkpt>
      <trkpt lat="47.80412" lon="-3.72015">
        <ele>35</ele>
        <time>2018-07-18T11:30:48Z</time>
      </trkpt>
      <trkpt lat="47.80407" lon="-3.72019">
        <ele>35</ele>
        <time>2018-07-18T11:30:49Z</time>
      </trkpt>
      <trkpt lat="47.80402" lon="-3.72024">
        <ele>35</ele>
        <time>2018-07-18T11:30:50Z</time>
      </trkpt>
      <trkpt lat="47.80398" lon="-3.72028">
        <ele>34</ele>
        <time>2018-07-18T11:30:51Z</time>
      </trkpt>
      <trkpt lat="47.80393" lon="-3.72033">
        <ele>34</ele>
        <time>2018-07-18T11:30:52Z</time>
      </trkpt>
      <trkpt lat="47.80388" lon="-3.72038">
        <ele>34</ele>
        <time>2018-07-18T11:30:53Z</time>
      </trkpt>
      <trkpt lat="47.80382" lon="-3.72043">
        <ele>34</ele>
        <time>2018-07-18T11:30:54Z</time>
      </trkpt>
      <trkpt lat="47.80377" lon="-3.72048">
        <ele>34</ele>
        <time>2018-07-18T11:30:55Z</time>
      </trkpt>
      <trkpt lat="47.80373" lon="-3.72054">
        <ele>34</ele>
        <time>2018-07-18T11:30:56Z</time>
      </trkpt>
      <trkpt lat="47.80369" lon="-3.7206">
        <ele>34</ele>
        <time>2018-07-18T11:30:57Z</time>
      </trkpt>
      <trkpt lat="47.80365" lon="-3.72066">
        <ele>34</ele>
        <time>2018-07-18T11:30:58Z</time>
      </trkpt>
      <trkpt lat="47.80361" lon="-3.72071">
        <ele>33</ele>
        <time>2018-07-18T11:30:59Z</time>
      </trkpt>
      <trkpt lat="47.80358" lon="-3.72077">
        <ele>33</ele>
        <time>2018-07-18T11:31:00Z</time>
      </trkpt>
      <trkpt lat="47.80354" lon="-3.72084">
        <ele>33</ele>
        <time>2018-07-18T11:31:01Z</time>
      </trkpt>
      <trkpt lat="47.8035" lon="-3.7209">
        <ele>33</ele>
        <time>2018-07-18T11:31:02Z</time>
      </trkpt>
      <trkpt lat="47.80348" lon="-3.72096">
        <ele>33</ele>
        <time>2018-07-18T11:31:03Z</time>
      </trkpt>
      <trkpt lat="47.80344" lon="-3.72103">
        <ele>33</ele>
        <time>2018-07-18T11:31:04Z</time>
      </trkpt>
      <trkpt lat="47.80341" lon="-3.72109">
        <ele>32</ele>
        <time>2018-07-18T11:31:05Z</time>
      </trkpt>
      <trkpt lat="47.80338" lon="-3.72115">
        <ele>32</ele>
        <time>2018-07-18T11:31:06Z</time>
      </trkpt>
      <trkpt lat="47.80336" lon="-3.72122">
        <ele>32</ele>
        <time>2018-07-18T11:31:07Z</time>
      </trkpt>
      <trkpt lat="47.80333" lon="-3.72128">
        <ele>32</ele>
        <time>2018-07-18T11:31:08Z</time>
      </trkpt>
      <trkpt lat="47.80331" lon="-3.72134">
        <ele>32</ele>
        <time>2018-07-18T11:31:09Z</time>
      </trkpt>
      <trkpt lat="47.80328" lon="-3.72139">
        <ele>32</ele>
        <time>2018-07-18T11:31:10Z</time>
      </trkpt>
      <trkpt lat="47.80325" lon="-3.72145">
        <ele>32</ele>
        <time>2018-07-18T11:31:11Z</time>
      </trkpt>
      <trkpt lat="47.80321" lon="-3.72149">
        <ele>32</ele>
        <time>2018-07-18T11:31:12Z</time>
      </trkpt>
      <trkpt lat="47.80317" lon="-3.72154">
        <ele>32</ele>
        <time>2018-07-18T11:31:13Z</time>
      </trkpt>
      <trkpt lat="47.80312" lon="-3.72157">
        <ele>32</ele>
        <time>2018-07-18T11:31:14Z</time>
      </trkpt>
      <trkpt lat="47.80307" lon="-3.7216">
        <ele>32</ele>
        <time>2018-07-18T11:31:15Z</time>
      </trkpt>
      <trkpt lat="47.80302" lon="-3.72162">
        <ele>32</ele>
        <time>2018-07-18T11:31:16Z</time>
      </trkpt>
      <trkpt lat="47.80297" lon="-3.72163">
        <ele>31</ele>
        <time>2018-07-18T11:31:17Z</time>
      </trkpt>
      <trkpt lat="47.80293" lon="-3.72161">
        <ele>31</ele>
        <time>2018-07-18T11:31:18Z</time>
      </trkpt>
      <trkpt lat="47.80289" lon="-3.72156">
        <ele>31</ele>
        <time>2018-07-18T11:31:19Z</time>
      </trkpt>
      <trkpt lat="47.80288" lon="-3.72151">
        <ele>31</ele>
        <time>2018-07-18T11:31:20Z</time>
      </trkpt>
      <trkpt lat="47.80287" lon="-3.72145">
        <ele>30</ele>
        <time>2018-07-18T11:31:21Z</time>
      </trkpt>
      <trkpt lat="47.80288" lon="-3.7214">
        <ele>30</ele>
        <time>2018-07-18T11:31:22Z</time>
      </trkpt>
      <trkpt lat="47.80289" lon="-3.72134">
        <ele>30</ele>
        <time>2018-07-18T11:31:23Z</time>
      </trkpt>
      <trkpt lat="47.8029" lon="-3.72128">
        <ele>30</ele>
        <time>2018-07-18T11:31:24Z</time>
      </trkpt>
      <trkpt lat="47.80292" lon="-3.72122">
        <ele>29</ele>
        <time>2018-07-18T11:31:25Z</time>
      </trkpt>
      <trkpt lat="47.80294" lon="-3.72116">
        <ele>29</ele>
        <time>2018-07-18T11:31:26Z</time>
      </trkpt>
      <trkpt lat="47.80296" lon="-3.72108">
        <ele>29</ele>
        <time>2018-07-18T11:31:27Z</time>
      </trkpt>
      <trkpt lat="47.80298" lon="-3.721">
        <ele>29</ele>
        <time>2018-07-18T11:31:28Z</time>
      </trkpt>
      <trkpt lat="47.803" lon="-3.72092">
        <ele>28</ele>
        <time>2018-07-18T11:31:29Z</time>
      </trkpt>
      <trkpt lat="47.80302" lon="-3.72084">
        <ele>28</ele>
        <time>2018-07-18T11:31:30Z</time>
      </trkpt>
      <trkpt lat="47.80304" lon="-3.72076">
        <ele>28</ele>
        <time>2018-07-18T11:31:31Z</time>
      </trkpt>
      <trkpt lat="47.80306" lon="-3.72068">
        <ele>27</ele>
        <time>2018-07-18T11:31:32Z</time>
      </trkpt>
      <trkpt lat="47.80308" lon="-3.72061">
        <ele>27</ele>
        <time>2018-07-18T11:31:33Z</time>
      </trkpt>
      <trkpt lat="47.80311" lon="-3.72054">
        <ele>27</ele>
        <time>2018-07-18T11:31:34Z</time>
      </trkpt>
      <trkpt lat="47.80314" lon="-3.72048">
        <ele>27</ele>
        <time>2018-07-18T11:31:35Z</time>
      </trkpt>
      <trkpt lat="47.80317" lon="-3.72041">
        <ele>27</ele>
        <time>2018-07-18T11:31:36Z</time>
      </trkpt>
      <trkpt lat="47.80319" lon="-3.72034">
        <ele>27</ele>
        <time>2018-07-18T11:31:37Z</time>
      </trkpt>
      <trkpt lat="47.80321" lon="-3.72028">
        <ele>26</ele>
        <time>2018-07-18T11:31:38Z</time>
      </trkpt>
      <trkpt lat="47.80323" lon="-3.72022">
        <ele>26</ele>
        <time>2018-07-18T11:31:39Z</time>
      </trkpt>
      <trkpt lat="47.80324" lon="-3.72017">
        <ele>26</ele>
        <time>2018-07-18T11:31:40Z</time>
      </trkpt>
      <trkpt lat="47.80325" lon="-3.72013">
        <ele>26</ele>
        <time>2018-07-18T11:31:41Z</time>
      </trkpt>
      <trkpt lat="47.80326" lon="-3.7201">
        <ele>26</ele>
        <time>2018-07-18T11:31:42Z</time>
      </trkpt>
      <trkpt lat="47.80327" lon="-3.72006">
        <ele>26</ele>
        <time>2018-07-18T11:31:43Z</time>
      </trkpt>
      <trkpt lat="47.80328" lon="-3.72002">
        <ele>26</ele>
        <time>2018-07-18T11:31:44Z</time>
      </trkpt>
      <trkpt lat="47.8033" lon="-3.71998">
        <ele>26</ele>
        <time>2018-07-18T11:31:45Z</time>
      </trkpt>
      <trkpt lat="47.80332" lon="-3.71993">
        <ele>26</ele>
        <time>2018-07-18T11:31:46Z</time>
      </trkpt>
      <trkpt lat="47.80333" lon="-3.71987">
        <ele>26</ele>
        <time>2018-07-18T11:31:47Z</time>
      </trkpt>
      <trkpt lat="47.80334" lon="-3.71982">
        <ele>26</ele>
        <time>2018-07-18T11:31:48Z</time>
      </trkpt>
      <trkpt lat="47.80336" lon="-3.71975">
        <ele>26</ele>
        <time>2018-07-18T11:31:49Z</time>
      </trkpt>
      <trkpt lat="47.80337" lon="-3.71969">
        <ele>26</ele>
        <time>2018-07-18T11:31:50Z</time>
      </trkpt>
      <trkpt lat="47.80338" lon="-3.71962">
        <ele>26</ele>
        <time>2018-07-18T11:31:51Z</time>
      </trkpt>
      <trkpt lat="47.8034" lon="-3.71956">
        <ele>26</ele>
        <time>2018-07-18T11:31:52Z</time>
      </trkpt>
      <trkpt lat="47.80342" lon="-3.71949">
        <ele>26</ele>
        <time>2018-07-18T11:31:53Z</time>
      </trkpt>
      <trkpt lat="47.80343" lon="-3.71942">
        <ele>26</ele>
        <time>2018-07-18T11:31:54Z</time>
      </trkpt>
      <trkpt lat="47.80344" lon="-3.71936">
        <ele>26</ele>
        <time>2018-07-18T11:31:55Z</time>
      </trkpt>
      <trkpt lat="47.80345" lon="-3.7193">
        <ele>26</ele>
        <time>2018-07-18T11:31:56Z</time>
      </trkpt>
      <trkpt lat="47.80346" lon="-3.71924">
        <ele>26</ele>
        <time>2018-07-18T11:31:57Z</time>
      </trkpt>
      <trkpt lat="47.80347" lon="-3.71918">
        <ele>26</ele>
        <time>2018-07-18T11:31:58Z</time>
      </trkpt>
      <trkpt lat="47.80347" lon="-3.71913">
        <ele>26</ele>
        <time>2018-07-18T11:31:59Z</time>
      </trkpt>
      <trkpt lat="47.80345" lon="-3.71909">
        <ele>26</ele>
        <time>2018-07-18T11:32:00Z</time>
      </trkpt>
      <trkpt lat="47.80342" lon="-3.71906">
        <ele>26</ele>
        <time>2018-07-18T11:32:01Z</time>
      </trkpt>
      <trkpt lat="47.80339" lon="-3.71906">
        <ele>26</ele>
        <time>2018-07-18T11:32:02Z</time>
      </trkpt>
      <trkpt lat="47.80335" lon="-3.71909">
        <ele>26</ele>
        <time>2018-07-18T11:32:03Z</time>
      </trkpt>
      <trkpt lat="47.80331" lon="-3.71913">
        <ele>26</ele>
        <time>2018-07-18T11:32:04Z</time>
      </trkpt>
      <trkpt lat="47.80327" lon="-3.71916">
        <ele>25</ele>
        <time>2018-07-18T11:32:05Z</time>
      </trkpt>
      <trkpt lat="47.80323" lon="-3.7192">
        <ele>25</ele>
        <time>2018-07-18T11:32:06Z</time>
      </trkpt>
      <trkpt lat="47.8032" lon="-3.71925">
        <ele>25</ele>
        <time>2018-07-18T11:32:07Z</time>
      </trkpt>
      <trkpt lat="47.80316" lon="-3.71931">
        <ele>25</ele>
        <time>2018-07-18T11:32:08Z</time>
      </trkpt>
      <trkpt lat="47.80311" lon="-3.71937">
        <ele>24</ele>
        <time>2018-07-18T11:32:09Z</time>
      </trkpt>
      <trkpt lat="47.80306" lon="-3.71944">
        <ele>24</ele>
        <time>2018-07-18T11:32:10Z</time>
      </trkpt>
      <trkpt lat="47.80301" lon="-3.71951">
        <ele>23</ele>
        <time>2018-07-18T11:32:11Z</time>
      </trkpt>
      <trkpt lat="47.80297" lon="-3.71959">
        <ele>23</ele>
        <time>2018-07-18T11:32:12Z</time>
      </trkpt>
      <trkpt lat="47.80293" lon="-3.71965">
        <ele>22</ele>
        <time>2018-07-18T11:32:13Z</time>
      </trkpt>
      <trkpt lat="47.80289" lon="-3.7197">
        <ele>22</ele>
        <time>2018-07-18T11:32:14Z</time>
      </trkpt>
      <trkpt lat="47.80286" lon="-3.71973">
        <ele>21</ele>
        <time>2018-07-18T11:32:15Z</time>
      </trkpt>
      <trkpt lat="47.80283" lon="-3.71975">
        <ele>21</ele>
        <time>2018-07-18T11:32:16Z</time>
      </trkpt>
      <trkpt lat="47.8028" lon="-3.71976">
        <ele>20</ele>
        <time>2018-07-18T11:32:17Z</time>
      </trkpt>
      <trkpt lat="47.80277" lon="-3.71974">
        <ele>20</ele>
        <time>2018-07-18T11:32:18Z</time>
      </trkpt>
      <trkpt lat="47.80275" lon="-3.7197">
        <ele>20</ele>
        <time>2018-07-18T11:32:19Z</time>
      </trkpt>
      <trkpt lat="47.80273" lon="-3.71964">
        <ele>19</ele>
        <time>2018-07-18T11:32:20Z</time>
      </trkpt>
      <trkpt lat="47.80274" lon="-3.71957">
        <ele>19</ele>
        <time>2018-07-18T11:32:21Z</time>
      </trkpt>
      <trkpt lat="47.80274" lon="-3.71948">
        <ele>18</ele>
        <time>2018-07-18T11:32:22Z</time>
      </trkpt>
      <trkpt lat="47.80275" lon="-3.71938">
        <ele>18</ele>
        <time>2018-07-18T11:32:23Z</time>
      </trkpt>
      <trkpt lat="47.80275" lon="-3.71927">
        <ele>17</ele>
        <time>2018-07-18T11:32:24Z</time>
      </trkpt>
      <trkpt lat="47.80276" lon="-3.71917">
        <ele>16</ele>
        <time>2018-07-18T11:32:25Z</time>
      </trkpt>
      <trkpt lat="47.80277" lon="-3.71906">
        <ele>15</ele>
        <time>2018-07-18T11:32:26Z</time>
      </trkpt>
      <trkpt lat="47.80277" lon="-3.71895">
        <ele>14</ele>
        <time>2018-07-18T11:32:27Z</time>
      </trkpt>
      <trkpt lat="47.80275" lon="-3.71884">
        <ele>14</ele>
        <time>2018-07-18T11:32:28Z</time>
      </trkpt>
      <trkpt lat="47.80271" lon="-3.71875">
        <ele>12</ele>
        <time>2018-07-18T11:32:29Z</time>
      </trkpt>
      <trkpt lat="47.80265" lon="-3.71867">
        <ele>11</ele>
        <time>2018-07-18T11:32:30Z</time>
      </trkpt>
      <trkpt lat="47.80258" lon="-3.71862">
        <ele>10</ele>
        <time>2018-07-18T11:32:31Z</time>
      </trkpt>
      <trkpt lat="47.80251" lon="-3.71857">
        <ele>10</ele>
        <time>2018-07-18T11:32:32Z</time>
      </trkpt>
      <trkpt lat="47.80244" lon="-3.71852">
        <ele>9</ele>
        <time>2018-07-18T11:32:33Z</time>
      </trkpt>
      <trkpt lat="47.80237" lon="-3.71847">
        <ele>9</ele>
        <time>2018-07-18T11:32:34Z</time>
      </trkpt>
      <trkpt lat="47.80231" lon="-3.71846">
        <ele>9</ele>
        <time>2018-07-18T11:32:35Z</time>
      </trkpt>
      <trkpt lat="47.80225" lon="-3.71848">
        <ele>9</ele>
        <time>2018-07-18T11:32:36Z</time>
      </trkpt>
      <trkpt lat="47.80219" lon="-3.71852">
        <ele>8</ele>
        <time>2018-07-18T11:32:37Z</time>
      </trkpt>
      <trkpt lat="47.80216" lon="-3.71858">
        <ele>8</ele>
        <time>2018-07-18T11:32:38Z</time>
      </trkpt>
      <trkpt lat="47.80214" lon="-3.71864">
        <ele>8</ele>
        <time>2018-07-18T11:32:39Z</time>
      </trkpt>
      <trkpt lat="47.80212" lon="-3.7187">
        <ele>7</ele>
        <time>2018-07-18T11:32:40Z</time>
      </trkpt>
      <trkpt lat="47.8021" lon="-3.71876">
        <ele>7</ele>
        <time>2018-07-18T11:32:41Z</time>
      </trkpt>
      <trkpt lat="47.80208" lon="-3.71882">
        <ele>7</ele>
        <time>2018-07-18T11:32:42Z</time>
      </trkpt>
      <trkpt lat="47.80205" lon="-3.71889">
        <ele>6</ele>
        <time>2018-07-18T11:32:43Z</time>
      </trkpt>
      <trkpt lat="47.80204" lon="-3.71895">
        <ele>6</ele>
        <time>2018-07-18T11:32:44Z</time>
      </trkpt>
      <trkpt lat="47.80202" lon="-3.71902">
        <ele>6</ele>
        <time>2018-07-18T11:32:45Z</time>
      </trkpt>
      <trkpt lat="47.80199" lon="-3.71908">
        <ele>5</ele>
        <time>2018-07-18T11:32:46Z</time>
      </trkpt>
      <trkpt lat="47.80197" lon="-3.71914">
        <ele>5</ele>
        <time>2018-07-18T11:32:47Z</time>
      </trkpt>
      <trkpt lat="47.80195" lon="-3.7192">
        <ele>5</ele>
        <time>2018-07-18T11:32:48Z</time>
      </trkpt>
      <trkpt lat="47.80193" lon="-3.71926">
        <ele>5</ele>
        <time>2018-07-18T11:32:49Z</time>
      </trkpt>
      <trkpt lat="47.80191" lon="-3.71931">
        <ele>4</ele>
        <time>2018-07-18T11:32:50Z</time>
      </trkpt>
      <trkpt lat="47.80189" lon="-3.71936">
        <ele>4</ele>
        <time>2018-07-18T11:32:51Z</time>
      </trkpt>
      <trkpt lat="47.80187" lon="-3.7194">
        <ele>4</ele>
        <time>2018-07-18T11:32:52Z</time>
      </trkpt>
      <trkpt lat="47.80185" lon="-3.71945">
        <ele>4</ele>
        <time>2018-07-18T11:32:53Z</time>
      </trkpt>
      <trkpt lat="47.80183" lon="-3.71949">
        <ele>4</ele>
        <time>2018-07-18T11:32:54Z</time>
      </trkpt>
      <trkpt lat="47.80181" lon="-3.71952">
        <ele>4</ele>
        <time>2018-07-18T11:32:55Z</time>
      </trkpt>
      <trkpt lat="47.80179" lon="-3.71956">
        <ele>4</ele>
        <time>2018-07-18T11:32:56Z</time>
      </trkpt>
      <trkpt lat="47.80177" lon="-3.7196">
        <ele>4</ele>
        <time>2018-07-18T11:32:57Z</time>
      </trkpt>
      <trkpt lat="47.80175" lon="-3.71963">
        <ele>4</ele>
        <time>2018-07-18T11:32:58Z</time>
      </trkpt>
      <trkpt lat="47.80173" lon="-3.71966">
        <ele>4</ele>
        <time>2018-07-18T11:32:59Z</time>
      </trkpt>
      <trkpt lat="47.80171" lon="-3.71968">
        <ele>4</ele>
        <time>2018-07-18T11:33:00Z</time>
      </trkpt>
      <trkpt lat="47.80169" lon="-3.71969">
        <ele>4</ele>
        <time>2018-07-18T11:33:01Z</time>
      </trkpt>
      <trkpt lat="47.80168" lon="-3.7197">
        <ele>4</ele>
        <time>2018-07-18T11:33:02Z</time>
      </trkpt>
      <trkpt lat="47.80167" lon="-3.7197">
        <ele>4</ele>
        <time>2018-07-18T11:33:03Z</time>
      </trkpt>
      <trkpt lat="47.80167" lon="-3.7197">
        <ele>4</ele>
        <time>2018-07-18T11:33:04Z</time>
      </trkpt>
      <trkpt lat="47.80166" lon="-3.7197">
        <ele>4</ele>
        <time>2018-07-18T11:33:05Z</time>
      </trkpt>
      <trkpt lat="47.80166" lon="-3.7197">
        <ele>3</ele>
        <time>2018-07-18T11:33:06Z</time>
      </trkpt>
      <trkpt lat="47.80166" lon="-3.7197">
        <ele>3</ele>
        <time>2018-07-18T11:33:07Z</time>
      </trkpt>
      <trkpt lat="47.80165" lon="-3.7197">
        <ele>3</ele>
        <time>2018-07-18T11:33:08Z</time>
      </trkpt>
      <trkpt lat="47.80164" lon="-3.7197">
        <ele>4</ele>
        <time>2018-07-18T11:33:09Z</time>
      </trkpt>
      <trkpt lat="47.80162" lon="-3.71968">
        <ele>4</ele>
        <time>2018-07-18T11:33:10Z</time>
      </trkpt>
      <trkpt lat="47.8016" lon="-3.71967">
        <ele>4</ele>
        <time>2018-07-18T11:33:11Z</time>
      </trkpt>
      <trkpt lat="47.80158" lon="-3.71966">
        <ele>4</ele>
        <time>2018-07-18T11:33:12Z</time>
      </trkpt>
      <trkpt lat="47.80156" lon="-3.71966">
        <ele>4</ele>
        <time>2018-07-18T11:33:13Z</time>
      </trkpt>
      <trkpt lat="47.80154" lon="-3.71966">
        <ele>4</ele>
        <time>2018-07-18T11:33:14Z</time>
      </trkpt>
      <trkpt lat="47.80153" lon="-3.71967">
        <ele>4</ele>
        <time>2018-07-18T11:33:15Z</time>
      </trkpt>
      <trkpt lat="47.80151" lon="-3.71967">
        <ele>4</ele>
        <time>2018-07-18T11:33:16Z</time>
      </trkpt>
      <trkpt lat="47.80151" lon="-3.71968">
        <ele>5</ele>
        <time>2018-07-18T11:33:17Z</time>
      </trkpt>
      <trkpt lat="47.80151" lon="-3.71968">
        <ele>5</ele>
        <time>2018-07-18T11:33:18Z</time>
      </trkpt>
      <trkpt lat="47.80151" lon="-3.71968">
        <ele>5</ele>
        <time>2018-07-18T11:33:19Z</time>
      </trkpt>
      <trkpt lat="47.80151" lon="-3.71967">
        <ele>5</ele>
        <time>2018-07-18T11:33:20Z</time>
      </trkpt>
      <trkpt lat="47.80152" lon="-3.71968">
        <ele>5</ele>
        <time>2018-07-18T11:33:21Z</time>
      </trkpt>
      <trkpt lat="47.80152" lon="-3.71967">
        <ele>5</ele>
        <time>2018-07-18T11:33:22Z</time>
      </trkpt>
      <trkpt lat="47.80153" lon="-3.71967">
        <ele>5</ele>
        <time>2018-07-18T11:33:23Z</time>
      </trkpt>
      <trkpt lat="47.80155" lon="-3.71968">
        <ele>5</ele>
        <time>2018-07-18T11:33:24Z</time>
      </trkpt>
      <trkpt lat="47.80155" lon="-3.7197">
        <ele>5</ele>
        <time>2018-07-18T11:33:25Z</time>
      </trkpt>
      <trkpt lat="47.80155" lon="-3.71974">
        <ele>5</ele>
        <time>2018-07-18T11:33:26Z</time>
      </trkpt>
      <trkpt lat="47.80153" lon="-3.71978">
        <ele>5</ele>
        <time>2018-07-18T11:33:27Z</time>
      </trkpt>
      <trkpt lat="47.80152" lon="-3.71982">
        <ele>5</ele>
        <time>2018-07-18T11:33:28Z</time>
      </trkpt>
      <trkpt lat="47.80151" lon="-3.71986">
        <ele>5</ele>
        <time>2018-07-18T11:33:29Z</time>
      </trkpt>
      <trkpt lat="47.80151" lon="-3.71989">
        <ele>5</ele>
        <time>2018-07-18T11:33:30Z</time>
      </trkpt>
      <trkpt lat="47.8015" lon="-3.71992">
        <ele>5</ele>
        <time>2018-07-18T11:33:31Z</time>
      </trkpt>
      <trkpt lat="47.80149" lon="-3.71995">
        <ele>6</ele>
        <time>2018-07-18T11:33:32Z</time>
      </trkpt>
      <trkpt lat="47.80146" lon="-3.71997">
        <ele>6</ele>
        <time>2018-07-18T11:33:33Z</time>
      </trkpt>
      <trkpt lat="47.80143" lon="-3.71999">
        <ele>6</ele>
        <time>2018-07-18T11:33:34Z</time>
      </trkpt>
      <trkpt lat="47.8014" lon="-3.72">
        <ele>6</ele>
        <time>2018-07-18T11:33:35Z</time>
      </trkpt>
      <trkpt lat="47.80138" lon="-3.72002">
        <ele>6</ele>
        <time>2018-07-18T11:33:36Z</time>
      </trkpt>
      <trkpt lat="47.80135" lon="-3.72004">
        <ele>6</ele>
        <time>2018-07-18T11:33:37Z</time>
      </trkpt>
      <trkpt lat="47.80132" lon="-3.72006">
        <ele>6</ele>
        <time>2018-07-18T11:33:38Z</time>
      </trkpt>
      <trkpt lat="47.8013" lon="-3.72007">
        <ele>6</ele>
        <time>2018-07-18T11:33:39Z</time>
      </trkpt>
      <trkpt lat="47.80128" lon="-3.72008">
        <ele>6</ele>
        <time>2018-07-18T11:33:40Z</time>
      </trkpt>
      <trkpt lat="47.80125" lon="-3.7201">
        <ele>6</ele>
        <time>2018-07-18T11:33:41Z</time>
      </trkpt>
      <trkpt lat="47.80122" lon="-3.72013">
        <ele>6</ele>
        <time>2018-07-18T11:33:42Z</time>
      </trkpt>
      <trkpt lat="47.80118" lon="-3.72015">
        <ele>6</ele>
        <time>2018-07-18T11:33:43Z</time>
      </trkpt>
      <trkpt lat="47.80114" lon="-3.72016">
        <ele>6</ele>
        <time>2018-07-18T11:33:44Z</time>
      </trkpt>
      <trkpt lat="47.8011" lon="-3.72018">
        <ele>6</ele>
        <time>2018-07-18T11:33:45Z</time>
      </trkpt>
      <trkpt lat="47.80107" lon="-3.72019">
        <ele>6</ele>
        <time>2018-07-18T11:33:46Z</time>
      </trkpt>
      <trkpt lat="47.80105" lon="-3.72019">
        <ele>6</ele>
        <time>2018-07-18T11:33:47Z</time>
      </trkpt>
      <trkpt lat="47.80102" lon="-3.72021">
        <ele>6</ele>
        <time>2018-07-18T11:33:48Z</time>
      </trkpt>
      <trkpt lat="47.80099" lon="-3.72022">
        <ele>6</ele>
        <time>2018-07-18T11:33:49Z</time>
      </trkpt>
      <trkpt lat="47.80096" lon="-3.72024">
        <ele>6</ele>
        <time>2018-07-18T11:33:50Z</time>
      </trkpt>
      <trkpt lat="47.80094" lon="-3.72025">
        <ele>6</ele>
        <time>2018-07-18T11:33:51Z</time>
      </trkpt>
      <trkpt lat="47.80093" lon="-3.72027">
        <ele>6</ele>
        <time>2018-07-18T11:33:52Z</time>
      </trkpt>
      <trkpt lat="47.80091" lon="-3.72029">
        <ele>7</ele>
        <time>2018-07-18T11:33:53Z</time>
      </trkpt>
      <trkpt lat="47.80089" lon="-3.72032">
        <ele>7</ele>
        <time>2018-07-18T11:33:54Z</time>
      </trkpt>
      <trkpt lat="47.80087" lon="-3.72033">
        <ele>7</ele>
        <time>2018-07-18T11:33:55Z</time>
      </trkpt>
      <trkpt lat="47.80086" lon="-3.72036">
        <ele>7</ele>
        <time>2018-07-18T11:33:56Z</time>
      </trkpt>
      <trkpt lat="47.80084" lon="-3.72039">
        <ele>7</ele>
        <time>2018-07-18T11:33:57Z</time>
      </trkpt>
      <trkpt lat="47.80082" lon="-3.72043">
        <ele>7</ele>
        <time>2018-07-18T11:33:58Z</time>
      </trkpt>
      <trkpt lat="47.8008" lon="-3.72047">
        <ele>7</ele>
        <time>2018-07-18T11:33:59Z</time>
      </trkpt>
      <trkpt lat="47.80079" lon="-3.72051">
        <ele>7</ele>
        <time>2018-07-18T11:34:00Z</time>
      </trkpt>
      <trkpt lat="47.80079" lon="-3.72055">
        <ele>7</ele>
        <time>2018-07-18T11:34:01Z</time>
      </trkpt>
      <trkpt lat="47.80078" lon="-3.72059">
        <ele>8</ele>
        <time>2018-07-18T11:34:02Z</time>
      </trkpt>
      <trkpt lat="47.80078" lon="-3.72064">
        <ele>8</ele>
        <time>2018-07-18T11:34:03Z</time>
      </trkpt>
      <trkpt lat="47.80078" lon="-3.72069">
        <ele>8</ele>
        <time>2018-07-18T11:34:04Z</time>
      </trkpt>
      <trkpt lat="47.80078" lon="-3.72074">
        <ele>8</ele>
        <time>2018-07-18T11:34:05Z</time>
      </trkpt>
      <trkpt lat="47.80078" lon="-3.72079">
        <ele>8</ele>
        <time>2018-07-18T11:34:06Z</time>
      </trkpt>
      <trkpt lat="47.80077" lon="-3.72085">
        <ele>8</ele>
        <time>2018-07-18T11:34:07Z</time>
      </trkpt>
      <trkpt lat="47.80076" lon="-3.72089">
        <ele>8</ele>
        <time>2018-07-18T11:34:08Z</time>
      </trkpt>
      <trkpt lat="47.80074" lon="-3.72094">
        <ele>8</ele>
        <time>2018-07-18T11:34:09Z</time>
      </trkpt>
      <trkpt lat="47.80072" lon="-3.72098">
        <ele>8</ele>
        <time>2018-07-18T11:34:10Z</time>
      </trkpt>
      <trkpt lat="47.8007" lon="-3.72102">
        <ele>8</ele>
        <time>2018-07-18T11:34:11Z</time>
      </trkpt>
      <trkpt lat="47.80067" lon="-3.72106">
        <ele>8</ele>
        <time>2018-07-18T11:34:12Z</time>
      </trkpt>
      <trkpt lat="47.80063" lon="-3.72108">
        <ele>9</ele>
        <time>2018-07-18T11:34:13Z</time>
      </trkpt>
      <trkpt lat="47.8006" lon="-3.72112">
        <ele>9</ele>
        <time>2018-07-18T11:34:14Z</time>
      </trkpt>
      <trkpt lat="47.80056" lon="-3.72115">
        <ele>9</ele>
        <time>2018-07-18T11:34:15Z</time>
      </trkpt>
      <trkpt lat="47.80053" lon="-3.72119">
        <ele>9</ele>
        <time>2018-07-18T11:34:16Z</time>
      </trkpt>
      <trkpt lat="47.80049" lon="-3.72123">
        <ele>9</ele>
        <time>2018-07-18T11:34:17Z</time>
      </trkpt>
      <trkpt lat="47.80045" lon="-3.72127">
        <ele>10</ele>
        <time>2018-07-18T11:34:18Z</time>
      </trkpt>
      <trkpt lat="47.80041" lon="-3.72131">
        <ele>10</ele>
        <time>2018-07-18T11:34:19Z</time>
      </trkpt>
      <trkpt lat="47.80037" lon="-3.72134">
        <ele>10</ele>
        <time>2018-07-18T11:34:20Z</time>
      </trkpt>
      <trkpt lat="47.80034" lon="-3.72137">
        <ele>10</ele>
        <time>2018-07-18T11:34:21Z</time>
      </trkpt>
      <trkpt lat="47.80029" lon="-3.72139">
        <ele>10</ele>
        <time>2018-07-18T11:34:22Z</time>
      </trkpt>
      <trkpt lat="47.80025" lon="-3.72142">
        <ele>10</ele>
        <time>2018-07-18T11:34:23Z</time>
      </trkpt>
      <trkpt lat="47.80021" lon="-3.72144">
        <ele>10</ele>
        <time>2018-07-18T11:34:24Z</time>
      </trkpt>
      <trkpt lat="47.80017" lon="-3.72146">
        <ele>10</ele>
        <time>2018-07-18T11:34:25Z</time>
      </trkpt>
      <trkpt lat="47.80012" lon="-3.72147">
        <ele>10</ele>
        <time>2018-07-18T11:34:26Z</time>
      </trkpt>
      <trkpt lat="47.80008" lon="-3.72147">
        <ele>10</ele>
        <time>2018-07-18T11:34:27Z</time>
      </trkpt>
      <trkpt lat="47.80004" lon="-3.72146">
        <ele>10</ele>
        <time>2018-07-18T11:34:28Z</time>
      </trkpt>
      <trkpt lat="47.80001" lon="-3.72145">
        <ele>10</ele>
        <time>2018-07-18T11:34:29Z</time>
      </trkpt>
      <trkpt lat="47.79998" lon="-3.72145">
        <ele>10</ele>
        <time>2018-07-18T11:34:30Z</time>
      </trkpt>
      <trkpt lat="47.79996" lon="-3.72145">
        <ele>10</ele>
        <time>2018-07-18T11:34:31Z</time>
      </trkpt>
      <trkpt lat="47.79993" lon="-3.72145">
        <ele>10</ele>
        <time>2018-07-18T11:34:32Z</time>
      </trkpt>
      <trkpt lat="47.79991" lon="-3.72145">
        <ele>10</ele>
        <time>2018-07-18T11:34:33Z</time>
      </trkpt>
      <trkpt lat="47.79989" lon="-3.72147">
        <ele>10</ele>
        <time>2018-07-18T11:34:34Z</time>
      </trkpt>
      <trkpt lat="47.79987" lon="-3.72151">
        <ele>10</ele>
        <time>2018-07-18T11:34:35Z</time>
      </trkpt>
      <trkpt lat="47.79984" lon="-3.72154">
        <ele>10</ele>
        <time>2018-07-18T11:34:36Z</time>
      </trkpt>
      <trkpt lat="47.79983" lon="-3.72159">
        <ele>10</ele>
        <time>2018-07-18T11:34:37Z</time>
      </trkpt>
      <trkpt lat="47.79981" lon="-3.72162">
        <ele>10</ele>
        <time>2018-07-18T11:34:38Z</time>
      </trkpt>
      <trkpt lat="47.7998" lon="-3.72164">
        <ele>10</ele>
        <time>2018-07-18T11:34:39Z</time>
      </trkpt>
      <trkpt lat="47.79979" lon="-3.72165">
        <ele>10</ele>
        <time>2018-07-18T11:34:40Z</time>
      </trkpt>
      <trkpt lat="47.79978" lon="-3.72167">
        <ele>9</ele>
        <time>2018-07-18T11:34:41Z</time>
      </trkpt>
      <trkpt lat="47.79976" lon="-3.7217">
        <ele>9</ele>
        <time>2018-07-18T11:34:42Z</time>
      </trkpt>
      <trkpt lat="47.79974" lon="-3.72173">
        <ele>9</ele>
        <time>2018-07-18T11:34:43Z</time>
      </trkpt>
      <trkpt lat="47.79972" lon="-3.72176">
        <ele>9</ele>
        <time>2018-07-18T11:34:44Z</time>
      </trkpt>
      <trkpt lat="47.79969" lon="-3.72179">
        <ele>9</ele>
        <time>2018-07-18T11:34:45Z</time>
      </trkpt>
      <trkpt lat="47.79967" lon="-3.72181">
        <ele>9</ele>
        <time>2018-07-18T11:34:46Z</time>
      </trkpt>
      <trkpt lat="47.79965" lon="-3.72183">
        <ele>9</ele>
        <time>2018-07-18T11:34:47Z</time>
      </trkpt>
      <trkpt lat="47.79965" lon="-3.72187">
        <ele>9</ele>
        <time>2018-07-18T11:34:48Z</time>
      </trkpt>
      <trkpt lat="47.79964" lon="-3.72191">
        <ele>9</ele>
        <time>2018-07-18T11:34:49Z</time>
      </trkpt>
      <trkpt lat="47.79964" lon="-3.72196">
        <ele>9</ele>
        <time>2018-07-18T11:34:50Z</time>
      </trkpt>
      <trkpt lat="47.79963" lon="-3.72202">
        <ele>9</ele>
        <time>2018-07-18T11:34:51Z</time>
      </trkpt>
      <trkpt lat="47.79961" lon="-3.72206">
        <ele>9</ele>
        <time>2018-07-18T11:34:52Z</time>
      </trkpt>
      <trkpt lat="47.79958" lon="-3.72209">
        <ele>10</ele>
        <time>2018-07-18T11:34:53Z</time>
      </trkpt>
      <trkpt lat="47.79955" lon="-3.72211">
        <ele>10</ele>
        <time>2018-07-18T11:34:54Z</time>
      </trkpt>
      <trkpt lat="47.79952" lon="-3.72214">
        <ele>10</ele>
        <time>2018-07-18T11:34:55Z</time>
      </trkpt>
      <trkpt lat="47.79948" lon="-3.72219">
        <ele>10</ele>
        <time>2018-07-18T11:34:56Z</time>
      </trkpt>
      <trkpt lat="47.79945" lon="-3.72222">
        <ele>10</ele>
        <time>2018-07-18T11:34:57Z</time>
      </trkpt>
      <trkpt lat="47.79942" lon="-3.72226">
        <ele>10</ele>
        <time>2018-07-18T11:34:58Z</time>
      </trkpt>
      <trkpt lat="47.79939" lon="-3.72228">
        <ele>10</ele>
        <time>2018-07-18T11:34:59Z</time>
      </trkpt>
      <trkpt lat="47.79936" lon="-3.72229">
        <ele>10</ele>
        <time>2018-07-18T11:35:00Z</time>
      </trkpt>
      <trkpt lat="47.79933" lon="-3.72231">
        <ele>10</ele>
        <time>2018-07-18T11:35:01Z</time>
      </trkpt>
      <trkpt lat="47.79931" lon="-3.72234">
        <ele>10</ele>
        <time>2018-07-18T11:35:02Z</time>
      </trkpt>
      <trkpt lat="47.79929" lon="-3.72238">
        <ele>10</ele>
        <time>2018-07-18T11:35:03Z</time>
      </trkpt>
      <trkpt lat="47.79928" lon="-3.72242">
        <ele>10</ele>
        <time>2018-07-18T11:35:04Z</time>
      </trkpt>
      <trkpt lat="47.79925" lon="-3.72247">
        <ele>10</ele>
        <time>2018-07-18T11:35:05Z</time>
      </trkpt>
      <trkpt lat="47.79923" lon="-3.72251">
        <ele>10</ele>
        <time>2018-07-18T11:35:06Z</time>
      </trkpt>
      <trkpt lat="47.7992" lon="-3.72255">
        <ele>10</ele>
        <time>2018-07-18T11:35:07Z</time>
      </trkpt>
      <trkpt lat="47.79917" lon="-3.72259">
        <ele>10</ele>
        <time>2018-07-18T11:35:08Z</time>
      </trkpt>
      <trkpt lat="47.79913" lon="-3.72262">
        <ele>10</ele>
        <time>2018-07-18T11:35:09Z</time>
      </trkpt>
      <trkpt lat="47.79909" lon="-3.72265">
        <ele>10</ele>
        <time>2018-07-18T11:35:10Z</time>
      </trkpt>
      <trkpt lat="47.79905" lon="-3.72267">
        <ele>10</ele>
        <time>2018-07-18T11:35:11Z</time>
      </trkpt>
      <trkpt lat="47.79901" lon="-3.7227">
        <ele>10</ele>
        <time>2018-07-18T11:35:12Z</time>
      </trkpt>
      <trkpt lat="47.79897" lon="-3.72272">
        <ele>10</ele>
        <time>2018-07-18T11:35:13Z</time>
      </trkpt>
      <trkpt lat="47.79894" lon="-3.72271">
        <ele>10</ele>
        <time>2018-07-18T11:35:14Z</time>
      </trkpt>
      <trkpt lat="47.79891" lon="-3.7227">
        <ele>10</ele>
        <time>2018-07-18T11:35:15Z</time>
      </trkpt>
      <trkpt lat="47.79888" lon="-3.72269">
        <ele>10</ele>
        <time>2018-07-18T11:35:16Z</time>
      </trkpt>
      <trkpt lat="47.79885" lon="-3.72267">
        <ele>11</ele>
        <time>2018-07-18T11:35:17Z</time>
      </trkpt>
      <trkpt lat="47.79881" lon="-3.72264">
        <ele>11</ele>
        <time>2018-07-18T11:35:18Z</time>
      </trkpt>
      <trkpt lat="47.79879" lon="-3.72261">
        <ele>11</ele>
        <time>2018-07-18T11:35:19Z</time>
      </trkpt>
      <trkpt lat="47.79876" lon="-3.72258">
        <ele>11</ele>
        <time>2018-07-18T11:35:20Z</time>
      </trkpt>
      <trkpt lat="47.79874" lon="-3.72253">
        <ele>11</ele>
        <time>2018-07-18T11:35:21Z</time>
      </trkpt>
      <trkpt lat="47.79872" lon="-3.72249">
        <ele>11</ele>
        <time>2018-07-18T11:35:22Z</time>
      </trkpt>
      <trkpt lat="47.7987" lon="-3.72246">
        <ele>11</ele>
        <time>2018-07-18T11:35:23Z</time>
      </trkpt>
      <trkpt lat="47.79867" lon="-3.72244">
        <ele>11</ele>
        <time>2018-07-18T11:35:24Z</time>
      </trkpt>
      <trkpt lat="47.79864" lon="-3.72242">
        <ele>11</ele>
        <time>2018-07-18T11:35:25Z</time>
      </trkpt>
      <trkpt lat="47.7986" lon="-3.72241">
        <ele>11</ele>
        <time>2018-07-18T11:35:26Z</time>
      </trkpt>
      <trkpt lat="47.79857" lon="-3.7224">
        <ele>11</ele>
        <time>2018-07-18T11:35:27Z</time>
      </trkpt>
      <trkpt lat="47.79853" lon="-3.72241">
        <ele>11</ele>
        <time>2018-07-18T11:35:28Z</time>
      </trkpt>
      <trkpt lat="47.79849" lon="-3.72242">
        <ele>11</ele>
        <time>2018-07-18T11:35:29Z</time>
      </trkpt>
      <trkpt lat="47.79845" lon="-3.72244">
        <ele>11</ele>
        <time>2018-07-18T11:35:30Z</time>
      </trkpt>
      <trkpt lat="47.79841" lon="-3.72248">
        <ele>11</ele>
        <time>2018-07-18T11:35:31Z</time>
      </trkpt>
      <trkpt lat="47.79837" lon="-3.72251">
        <ele>11</ele>
        <time>2018-07-18T11:35:32Z</time>
      </trkpt>
      <trkpt lat="47.79834" lon="-3.72255">
        <ele>11</ele>
        <time>2018-07-18T11:35:33Z</time>
      </trkpt>
      <trkpt lat="47.7983" lon="-3.72259">
        <ele>11</ele>
        <time>2018-07-18T11:35:34Z</time>
      </trkpt>
      <trkpt lat="47.79825" lon="-3.72259">
        <ele>11</ele>
        <time>2018-07-18T11:35:35Z</time>
      </trkpt>
      <trkpt lat="47.79821" lon="-3.72258">
        <ele>10</ele>
        <time>2018-07-18T11:35:36Z</time>
      </trkpt>
      <trkpt lat="47.79817" lon="-3.72255">
        <ele>10</ele>
        <time>2018-07-18T11:35:37Z</time>
      </trkpt>
      <trkpt lat="47.79813" lon="-3.72251">
        <ele>10</ele>
        <time>2018-07-18T11:35:38Z</time>
      </trkpt>
      <trkpt lat="47.79809" lon="-3.72247">
        <ele>10</ele>
        <time>2018-07-18T11:35:39Z</time>
      </trkpt>
      <trkpt lat="47.79805" lon="-3.72244">
        <ele>10</ele>
        <time>2018-07-18T11:35:40Z</time>
      </trkpt>
      <trkpt lat="47.79802" lon="-3.7224">
        <ele>10</ele>
        <time>2018-07-18T11:35:41Z</time>
      </trkpt>
      <trkpt lat="47.79799" lon="-3.72235">
        <ele>10</ele>
        <time>2018-07-18T11:35:42Z</time>
      </trkpt>
      <trkpt lat="47.79797" lon="-3.72231">
        <ele>10</ele>
        <time>2018-07-18T11:35:43Z</time>
      </trkpt>
      <trkpt lat="47.79795" lon="-3.72226">
        <ele>10</ele>
        <time>2018-07-18T11:35:44Z</time>
      </trkpt>
      <trkpt lat="47.79794" lon="-3.72222">
        <ele>10</ele>
        <time>2018-07-18T11:35:45Z</time>
      </trkpt>
      <trkpt lat="47.79794" lon="-3.72217">
        <ele>10</ele>
        <time>2018-07-18T11:35:46Z</time>
      </trkpt>
      <trkpt lat="47.79794" lon="-3.72212">
        <ele>10</ele>
        <time>2018-07-18T11:35:47Z</time>
      </trkpt>
      <trkpt lat="47.79794" lon="-3.72207">
        <ele>10</ele>
        <time>2018-07-18T11:35:48Z</time>
      </trkpt>
      <trkpt lat="47.79794" lon="-3.72202">
        <ele>10</ele>
        <time>2018-07-18T11:35:49Z</time>
      </trkpt>
      <trkpt lat="47.79795" lon="-3.72197">
        <ele>10</ele>
        <time>2018-07-18T11:35:50Z</time>
      </trkpt>
      <trkpt lat="47.79796" lon="-3.72192">
        <ele>10</ele>
        <time>2018-07-18T11:35:51Z</time>
      </trkpt>
      <trkpt lat="47.79797" lon="-3.72186">
        <ele>10</ele>
        <time>2018-07-18T11:35:52Z</time>
      </trkpt>
      <trkpt lat="47.79798" lon="-3.72181">
        <ele>10</ele>
        <time>2018-07-18T11:35:53Z</time>
      </trkpt>
      <trkpt lat="47.79799" lon="-3.72175">
        <ele>10</ele>
        <time>2018-07-18T11:35:54Z</time>
      </trkpt>
      <trkpt lat="47.798" lon="-3.7217">
        <ele>10</ele>
        <time>2018-07-18T11:35:55Z</time>
      </trkpt>
      <trkpt lat="47.798" lon="-3.72164">
        <ele>10</ele>
        <time>2018-07-18T11:35:56Z</time>
      </trkpt>
      <trkpt lat="47.79801" lon="-3.72159">
        <ele>10</ele>
        <time>2018-07-18T11:35:57Z</time>
      </trkpt>
      <trkpt lat="47.79801" lon="-3.72154">
        <ele>11</ele>
        <time>2018-07-18T11:35:58Z</time>
      </trkpt>
      <trkpt lat="47.798" lon="-3.72149">
        <ele>11</ele>
        <time>2018-07-18T11:35:59Z</time>
      </trkpt>
      <trkpt lat="47.798" lon="-3.72144">
        <ele>11</ele>
        <time>2018-07-18T11:36:00Z</time>
      </trkpt>
      <trkpt lat="47.798" lon="-3.72139">
        <ele>11</ele>
        <time>2018-07-18T11:36:01Z</time>
      </trkpt>
      <trkpt lat="47.798" lon="-3.72134">
        <ele>11</ele>
        <time>2018-07-18T11:36:02Z</time>
      </trkpt>
      <trkpt lat="47.798" lon="-3.7213">
        <ele>11</ele>
        <time>2018-07-18T11:36:03Z</time>
      </trkpt>
      <trkpt lat="47.79799" lon="-3.72125">
        <ele>11</ele>
        <time>2018-07-18T11:36:04Z</time>
      </trkpt>
      <trkpt lat="47.79799" lon="-3.7212">
        <ele>11</ele>
        <time>2018-07-18T11:36:05Z</time>
      </trkpt>
      <trkpt lat="47.79799" lon="-3.72114">
        <ele>11</ele>
        <time>2018-07-18T11:36:06Z</time>
      </trkpt>
      <trkpt lat="47.79799" lon="-3.7211">
        <ele>11</ele>
        <time>2018-07-18T11:36:07Z</time>
      </trkpt>
      <trkpt lat="47.798" lon="-3.72105">
        <ele>11</ele>
        <time>2018-07-18T11:36:08Z</time>
      </trkpt>
      <trkpt lat="47.798" lon="-3.721">
        <ele>11</ele>
        <time>2018-07-18T11:36:09Z</time>
      </trkpt>
      <trkpt lat="47.79799" lon="-3.72095">
        <ele>11</ele>
        <time>2018-07-18T11:36:10Z</time>
      </trkpt>
      <trkpt lat="47.798" lon="-3.7209">
        <ele>11</ele>
        <time>2018-07-18T11:36:11Z</time>
      </trkpt>
      <trkpt lat="47.79799" lon="-3.72085">
        <ele>12</ele>
        <time>2018-07-18T11:36:12Z</time>
      </trkpt>
      <trkpt lat="47.79798" lon="-3.72081">
        <ele>11</ele>
        <time>2018-07-18T11:36:13Z</time>
      </trkpt>
      <trkpt lat="47.79797" lon="-3.72076">
        <ele>11</ele>
        <time>2018-07-18T11:36:14Z</time>
      </trkpt>
      <trkpt lat="47.79794" lon="-3.72071">
        <ele>11</ele>
        <time>2018-07-18T11:36:15Z</time>
      </trkpt>
      <trkpt lat="47.79791" lon="-3.72066">
        <ele>11</ele>
        <time>2018-07-18T11:36:16Z</time>
      </trkpt>
      <trkpt lat="47.79788" lon="-3.72061">
        <ele>11</ele>
        <time>2018-07-18T11:36:17Z</time>
      </trkpt>
      <trkpt lat="47.79785" lon="-3.72055">
        <ele>11</ele>
        <time>2018-07-18T11:36:18Z</time>
      </trkpt>
      <trkpt lat="47.79782" lon="-3.72049">
        <ele>10</ele>
        <time>2018-07-18T11:36:19Z</time>
      </trkpt>
      <trkpt lat="47.7978" lon="-3.72043">
        <ele>10</ele>
        <time>2018-07-18T11:36:20Z</time>
      </trkpt>
      <trkpt lat="47.79777" lon="-3.72037">
        <ele>10</ele>
        <time>2018-07-18T11:36:21Z</time>
      </trkpt>
      <trkpt lat="47.79774" lon="-3.72031">
        <ele>10</ele>
        <time>2018-07-18T11:36:22Z</time>
      </trkpt>
      <trkpt lat="47.79773" lon="-3.72023">
        <ele>10</ele>
        <time>2018-07-18T11:36:23Z</time>
      </trkpt>
      <trkpt lat="47.79773" lon="-3.72017">
        <ele>10</ele>
        <time>2018-07-18T11:36:24Z</time>
      </trkpt>
      <trkpt lat="47.79773" lon="-3.72012">
        <ele>11</ele>
        <time>2018-07-18T11:36:25Z</time>
      </trkpt>
      <trkpt lat="47.79773" lon="-3.72007">
        <ele>11</ele>
        <time>2018-07-18T11:36:26Z</time>
      </trkpt>
      <trkpt lat="47.79773" lon="-3.72002">
        <ele>11</ele>
        <time>2018-07-18T11:36:27Z</time>
      </trkpt>
      <trkpt lat="47.79773" lon="-3.71996">
        <ele>11</ele>
        <time>2018-07-18T11:36:28Z</time>
      </trkpt>
      <trkpt lat="47.79773" lon="-3.7199">
        <ele>11</ele>
        <time>2018-07-18T11:36:29Z</time>
      </trkpt>
      <trkpt lat="47.79773" lon="-3.71984">
        <ele>11</ele>
        <time>2018-07-18T11:36:30Z</time>
      </trkpt>
      <trkpt lat="47.79773" lon="-3.71978">
        <ele>11</ele>
        <time>2018-07-18T11:36:31Z</time>
      </trkpt>
      <trkpt lat="47.79773" lon="-3.71972">
        <ele>11</ele>
        <time>2018-07-18T11:36:32Z</time>
      </trkpt>
      <trkpt lat="47.79774" lon="-3.71967">
        <ele>11</ele>
        <time>2018-07-18T11:36:33Z</time>
      </trkpt>
      <trkpt lat="47.79775" lon="-3.71963">
        <ele>11</ele>
        <time>2018-07-18T11:36:34Z</time>
      </trkpt>
      <trkpt lat="47.79775" lon="-3.71959">
        <ele>11</ele>
        <time>2018-07-18T11:36:35Z</time>
      </trkpt>
      <trkpt lat="47.79776" lon="-3.71955">
        <ele>11</ele>
        <time>2018-07-18T11:36:36Z</time>
      </trkpt>
      <trkpt lat="47.79777" lon="-3.71952">
        <ele>11</ele>
        <time>2018-07-18T11:36:37Z</time>
      </trkpt>
      <trkpt lat="47.79779" lon="-3.7195">
        <ele>11</ele>
        <time>2018-07-18T11:36:38Z</time>
      </trkpt>
      <trkpt lat="47.79781" lon="-3.7195">
        <ele>11</ele>
        <time>2018-07-18T11:36:39Z</time>
      </trkpt>
      <trkpt lat="47.79782" lon="-3.7195">
        <ele>11</ele>
        <time>2018-07-18T11:36:40Z</time>
      </trkpt>
      <trkpt lat="47.79782" lon="-3.71951">
        <ele>11</ele>
        <time>2018-07-18T11:36:41Z</time>
      </trkpt>
      <trkpt lat="47.79782" lon="-3.71951">
        <ele>11</ele>
        <time>2018-07-18T11:36:42Z</time>
      </trkpt>
      <trkpt lat="47.79783" lon="-3.71951">
        <ele>11</ele>
        <time>2018-07-18T11:36:43Z</time>
      </trkpt>
      <trkpt lat="47.79783" lon="-3.71951">
        <ele>11</ele>
        <time>2018-07-18T11:36:44Z</time>
      </trkpt>
      <trkpt lat="47.79784" lon="-3.71951">
        <ele>11</ele>
        <time>2018-07-18T11:36:45Z</time>
      </trkpt>
      <trkpt lat="47.79784" lon="-3.71952">
        <ele>11</ele>
        <time>2018-07-18T11:36:46Z</time>
      </trkpt>
      <trkpt lat="47.79784" lon="-3.71953">
        <ele>11</ele>
        <time>2018-07-18T11:36:47Z</time>
      </trkpt>
      <trkpt lat="47.79785" lon="-3.71953">
        <ele>11</ele>
        <time>2018-07-18T11:36:48Z</time>
      </trkpt>
      <trkpt lat="47.79785" lon="-3.71953">
        <ele>11</ele>
        <time>2018-07-18T11:36:49Z</time>
      </trkpt>
      <trkpt lat="47.79785" lon="-3.71953">
        <ele>11</ele>
        <time>2018-07-18T11:36:50Z</time>
      </trkpt>
      <trkpt lat="47.79783" lon="-3.71953">
        <ele>10</ele>
        <time>2018-07-18T11:36:51Z</time>
      </trkpt>
      <trkpt lat="47.79783" lon="-3.71951">
        <ele>10</ele>
        <time>2018-07-18T11:36:52Z</time>
      </trkpt>
      <trkpt lat="47.79783" lon="-3.7195">
        <ele>10</ele>
        <time>2018-07-18T11:36:53Z</time>
      </trkpt>
      <trkpt lat="47.79783" lon="-3.7195">
        <ele>10</ele>
        <time>2018-07-18T11:36:54Z</time>
      </trkpt>
      <trkpt lat="47.79783" lon="-3.7195">
        <ele>10</ele>
        <time>2018-07-18T11:36:55Z</time>
      </trkpt>
      <trkpt lat="47.79783" lon="-3.7195">
        <ele>10</ele>
        <time>2018-07-18T11:36:56Z</time>
      </trkpt>
      <trkpt lat="47.79783" lon="-3.7195">
        <ele>10</ele>
        <time>2018-07-18T11:36:57Z</time>
      </trkpt>
      <trkpt lat="47.79782" lon="-3.7195">
        <ele>11</ele>
        <time>2018-07-18T11:36:58Z</time>
      </trkpt>
      <trkpt lat="47.7978" lon="-3.7195">
        <ele>11</ele>
        <time>2018-07-18T11:36:59Z</time>
      </trkpt>
      <trkpt lat="47.79778" lon="-3.71949">
        <ele>10</ele>
        <time>2018-07-18T11:37:00Z</time>
      </trkpt>
      <trkpt lat="47.79775" lon="-3.71947">
        <ele>10</ele>
        <time>2018-07-18T11:37:01Z</time>
      </trkpt>
      <trkpt lat="47.79774" lon="-3.71944">
        <ele>10</ele>
        <time>2018-07-18T11:37:02Z</time>
      </trkpt>
      <trkpt lat="47.79772" lon="-3.7194">
        <ele>10</ele>
        <time>2018-07-18T11:37:03Z</time>
      </trkpt>
      <trkpt lat="47.79771" lon="-3.71937">
        <ele>10</ele>
        <time>2018-07-18T11:37:04Z</time>
      </trkpt>
      <trkpt lat="47.79771" lon="-3.71933">
        <ele>10</ele>
        <time>2018-07-18T11:37:05Z</time>
      </trkpt>
      <trkpt lat="47.79769" lon="-3.7193">
        <ele>10</ele>
        <time>2018-07-18T11:37:06Z</time>
      </trkpt>
      <trkpt lat="47.79769" lon="-3.71925">
        <ele>10</ele>
        <time>2018-07-18T11:37:07Z</time>
      </trkpt>
      <trkpt lat="47.79769" lon="-3.7192">
        <ele>10</ele>
        <time>2018-07-18T11:37:08Z</time>
      </trkpt>
      <trkpt lat="47.79769" lon="-3.71915">
        <ele>10</ele>
        <time>2018-07-18T11:37:09Z</time>
      </trkpt>
      <trkpt lat="47.7977" lon="-3.71911">
        <ele>10</ele>
        <time>2018-07-18T11:37:10Z</time>
      </trkpt>
      <trkpt lat="47.7977" lon="-3.71907">
        <ele>10</ele>
        <time>2018-07-18T11:37:11Z</time>
      </trkpt>
      <trkpt lat="47.79771" lon="-3.71904">
        <ele>9</ele>
        <time>2018-07-18T11:37:12Z</time>
      </trkpt>
      <trkpt lat="47.79772" lon="-3.719">
        <ele>9</ele>
        <time>2018-07-18T11:37:13Z</time>
      </trkpt>
      <trkpt lat="47.79772" lon="-3.71897">
        <ele>9</ele>
        <time>2018-07-18T11:37:14Z</time>
      </trkpt>
      <trkpt lat="47.79772" lon="-3.71892">
        <ele>8</ele>
        <time>2018-07-18T11:37:15Z</time>
      </trkpt>
      <trkpt lat="47.79772" lon="-3.71888">
        <ele>8</ele>
        <time>2018-07-18T11:37:16Z</time>
      </trkpt>
      <trkpt lat="47.79772" lon="-3.71884">
        <ele>8</ele>
        <time>2018-07-18T11:37:17Z</time>
      </trkpt>
      <trkpt lat="47.79771" lon="-3.71881">
        <ele>8</ele>
        <time>2018-07-18T11:37:18Z</time>
      </trkpt>
      <trkpt lat="47.7977" lon="-3.71879">
        <ele>8</ele>
        <time>2018-07-18T11:37:19Z</time>
      </trkpt>
      <trkpt lat="47.79768" lon="-3.71878">
        <ele>8</ele>
        <time>2018-07-18T11:37:20Z</time>
      </trkpt>
      <trkpt lat="47.79765" lon="-3.71878">
        <ele>9</ele>
        <time>2018-07-18T11:37:21Z</time>
      </trkpt>
      <trkpt lat="47.79763" lon="-3.71878">
        <ele>9</ele>
        <time>2018-07-18T11:37:22Z</time>
      </trkpt>
      <trkpt lat="47.79761" lon="-3.71879">
        <ele>9</ele>
        <time>2018-07-18T11:37:23Z</time>
      </trkpt>
      <trkpt lat="47.79759" lon="-3.71879">
        <ele>9</ele>
        <time>2018-07-18T11:37:24Z</time>
      </trkpt>
      <trkpt lat="47.79758" lon="-3.71878">
        <ele>9</ele>
        <time>2018-07-18T11:37:25Z</time>
      </trkpt>
      <trkpt lat="47.79756" lon="-3.71878">
        <ele>10</ele>
        <time>2018-07-18T11:37:26Z</time>
      </trkpt>
      <trkpt lat="47.79756" lon="-3.71877">
        <ele>10</ele>
        <time>2018-07-18T11:37:27Z</time>
      </trkpt>
      <trkpt lat="47.79755" lon="-3.71877">
        <ele>10</ele>
        <time>2018-07-18T11:37:28Z</time>
      </trkpt>
      <trkpt lat="47.79755" lon="-3.71877">
        <ele>10</ele>
        <time>2018-07-18T11:37:29Z</time>
      </trkpt>
      <trkpt lat="47.79754" lon="-3.71876">
        <ele>10</ele>
        <time>2018-07-18T11:37:30Z</time>
      </trkpt>
      <trkpt lat="47.79754" lon="-3.71875">
        <ele>10</ele>
        <time>2018-07-18T11:37:31Z</time>
      </trkpt>
      <trkpt lat="47.79753" lon="-3.71874">
        <ele>10</ele>
        <time>2018-07-18T11:37:32Z</time>
      </trkpt>
      <trkpt lat="47.79753" lon="-3.71873">
        <ele>11</ele>
        <time>2018-07-18T11:37:33Z</time>
      </trkpt>
      <trkpt lat="47.79752" lon="-3.71873">
        <ele>11</ele>
        <time>2018-07-18T11:37:34Z</time>
      </trkpt>
      <trkpt lat="47.79752" lon="-3.71872">
        <ele>11</ele>
        <time>2018-07-18T11:37:35Z</time>
      </trkpt>
      <trkpt lat="47.79751" lon="-3.71872">
        <ele>12</ele>
        <time>2018-07-18T11:37:36Z</time>
      </trkpt>
      <trkpt lat="47.79751" lon="-3.71872">
        <ele>12</ele>
        <time>2018-07-18T11:37:37Z</time>
      </trkpt>
      <trkpt lat="47.7975" lon="-3.71872">
        <ele>12</ele>
        <time>2018-07-18T11:37:38Z</time>
      </trkpt>
      <trkpt lat="47.79749" lon="-3.71872">
        <ele>12</ele>
        <time>2018-07-18T11:37:39Z</time>
      </trkpt>
      <trkpt lat="47.79748" lon="-3.71872">
        <ele>12</ele>
        <time>2018-07-18T11:37:40Z</time>
      </trkpt>
      <trkpt lat="47.79747" lon="-3.71871">
        <ele>13</ele>
        <time>2018-07-18T11:37:41Z</time>
      </trkpt>
      <trkpt lat="47.79746" lon="-3.71871">
        <ele>13</ele>
        <time>2018-07-18T11:37:42Z</time>
      </trkpt>
      <trkpt lat="47.79745" lon="-3.71871">
        <ele>13</ele>
        <time>2018-07-18T11:37:43Z</time>
      </trkpt>
      <trkpt lat="47.79744" lon="-3.7187">
        <ele>13</ele>
        <time>2018-07-18T11:37:44Z</time>
      </trkpt>
      <trkpt lat="47.79743" lon="-3.71869">
        <ele>13</ele>
        <time>2018-07-18T11:37:45Z</time>
      </trkpt>
      <trkpt lat="47.79742" lon="-3.71869">
        <ele>13</ele>
        <time>2018-07-18T11:37:46Z</time>
      </trkpt>
      <trkpt lat="47.79741" lon="-3.71868">
        <ele>13</ele>
        <time>2018-07-18T11:37:47Z</time>
      </trkpt>
      <trkpt lat="47.79741" lon="-3.71868">
        <ele>13</ele>
        <time>2018-07-18T11:37:48Z</time>
      </trkpt>
      <trkpt lat="47.7974" lon="-3.71868">
        <ele>13</ele>
        <time>2018-07-18T11:37:49Z</time>
      </trkpt>
      <trkpt lat="47.7974" lon="-3.71868">
        <ele>13</ele>
        <time>2018-07-18T11:37:50Z</time>
      </trkpt>
      <trkpt lat="47.7974" lon="-3.71868">
        <ele>13</ele>
        <time>2018-07-18T11:37:51Z</time>
      </trkpt>
      <trkpt lat="47.79739" lon="-3.71867">
        <ele>13</ele>
        <time>2018-07-18T11:37:52Z</time>
      </trkpt>
      <trkpt lat="47.79738" lon="-3.71867">
        <ele>13</ele>
        <time>2018-07-18T11:37:53Z</time>
      </trkpt>
      <trkpt lat="47.79736" lon="-3.71866">
        <ele>13</ele>
        <time>2018-07-18T11:37:54Z</time>
      </trkpt>
      <trkpt lat="47.79734" lon="-3.71864">
        <ele>13</ele>
        <time>2018-07-18T11:37:55Z</time>
      </trkpt>
      <trkpt lat="47.79733" lon="-3.71862">
        <ele>13</ele>
        <time>2018-07-18T11:37:56Z</time>
      </trkpt>
      <trkpt lat="47.79732" lon="-3.7186">
        <ele>13</ele>
        <time>2018-07-18T11:37:57Z</time>
      </trkpt>
      <trkpt lat="47.7973" lon="-3.71858">
        <ele>13</ele>
        <time>2018-07-18T11:37:58Z</time>
      </trkpt>
      <trkpt lat="47.79729" lon="-3.71855">
        <ele>13</ele>
        <time>2018-07-18T11:37:59Z</time>
      </trkpt>
      <trkpt lat="47.79728" lon="-3.71853">
        <ele>14</ele>
        <time>2018-07-18T11:38:00Z</time>
      </trkpt>
      <trkpt lat="47.79726" lon="-3.7185">
        <ele>14</ele>
        <time>2018-07-18T11:38:01Z</time>
      </trkpt>
      <trkpt lat="47.79724" lon="-3.71848">
        <ele>14</ele>
        <time>2018-07-18T11:38:02Z</time>
      </trkpt>
      <trkpt lat="47.79722" lon="-3.71846">
        <ele>14</ele>
        <time>2018-07-18T11:38:03Z</time>
      </trkpt>
      <trkpt lat="47.79721" lon="-3.71845">
        <ele>14</ele>
        <time>2018-07-18T11:38:04Z</time>
      </trkpt>
      <trkpt lat="47.79719" lon="-3.71842">
        <ele>14</ele>
        <time>2018-07-18T11:38:05Z</time>
      </trkpt>
      <trkpt lat="47.79717" lon="-3.7184">
        <ele>14</ele>
        <time>2018-07-18T11:38:06Z</time>
      </trkpt>
      <trkpt lat="47.79716" lon="-3.71838">
        <ele>14</ele>
        <time>2018-07-18T11:38:07Z</time>
      </trkpt>
      <trkpt lat="47.79714" lon="-3.71835">
        <ele>14</ele>
        <time>2018-07-18T11:38:08Z</time>
      </trkpt>
      <trkpt lat="47.79712" lon="-3.71833">
        <ele>14</ele>
        <time>2018-07-18T11:38:09Z</time>
      </trkpt>
      <trkpt lat="47.7971" lon="-3.71831">
        <ele>14</ele>
        <time>2018-07-18T11:38:10Z</time>
      </trkpt>
      <trkpt lat="47.79709" lon="-3.71829">
        <ele>14</ele>
        <time>2018-07-18T11:38:11Z</time>
      </trkpt>
      <trkpt lat="47.79707" lon="-3.71826">
        <ele>14</ele>
        <time>2018-07-18T11:38:12Z</time>
      </trkpt>
      <trkpt lat="47.79705" lon="-3.71823">
        <ele>14</ele>
        <time>2018-07-18T11:38:13Z</time>
      </trkpt>
      <trkpt lat="47.79703" lon="-3.71819">
        <ele>15</ele>
        <time>2018-07-18T11:38:14Z</time>
      </trkpt>
      <trkpt lat="47.79702" lon="-3.71816">
        <ele>15</ele>
        <time>2018-07-18T11:38:15Z</time>
      </trkpt>
      <trkpt lat="47.797" lon="-3.71813">
        <ele>15</ele>
        <time>2018-07-18T11:38:16Z</time>
      </trkpt>
      <trkpt lat="47.79699" lon="-3.7181">
        <ele>15</ele>
        <time>2018-07-18T11:38:17Z</time>
      </trkpt>
      <trkpt lat="47.79697" lon="-3.71808">
        <ele>15</ele>
        <time>2018-07-18T11:38:18Z</time>
      </trkpt>
      <trkpt lat="47.79696" lon="-3.71804">
        <ele>16</ele>
        <time>2018-07-18T11:38:19Z</time>
      </trkpt>
      <trkpt lat="47.79694" lon="-3.71801">
        <ele>16</ele>
        <time>2018-07-18T11:38:20Z</time>
      </trkpt>
      <trkpt lat="47.79692" lon="-3.71798">
        <ele>16</ele>
        <time>2018-07-18T11:38:21Z</time>
      </trkpt>
      <trkpt lat="47.7969" lon="-3.71795">
        <ele>16</ele>
        <time>2018-07-18T11:38:22Z</time>
      </trkpt>
      <trkpt lat="47.79689" lon="-3.71792">
        <ele>16</ele>
        <time>2018-07-18T11:38:23Z</time>
      </trkpt>
      <trkpt lat="47.79686" lon="-3.71789">
        <ele>16</ele>
        <time>2018-07-18T11:38:24Z</time>
      </trkpt>
      <trkpt lat="47.79684" lon="-3.71786">
        <ele>16</ele>
        <time>2018-07-18T11:38:25Z</time>
      </trkpt>
      <trkpt lat="47.79681" lon="-3.71783">
        <ele>16</ele>
        <time>2018-07-18T11:38:26Z</time>
      </trkpt>
      <trkpt lat="47.79678" lon="-3.7178">
        <ele>16</ele>
        <time>2018-07-18T11:38:27Z</time>
      </trkpt>
      <trkpt lat="47.79676" lon="-3.71777">
        <ele>16</ele>
        <time>2018-07-18T11:38:28Z</time>
      </trkpt>
      <trkpt lat="47.79673" lon="-3.71774">
        <ele>16</ele>
        <time>2018-07-18T11:38:29Z</time>
      </trkpt>
      <trkpt lat="47.7967" lon="-3.7177">
        <ele>16</ele>
        <time>2018-07-18T11:38:30Z</time>
      </trkpt>
      <trkpt lat="47.79667" lon="-3.71767">
        <ele>16</ele>
        <time>2018-07-18T11:38:31Z</time>
      </trkpt>
      <trkpt lat="47.79664" lon="-3.71764">
        <ele>16</ele>
        <time>2018-07-18T11:38:32Z</time>
      </trkpt>
      <trkpt lat="47.79661" lon="-3.71761">
        <ele>16</ele>
        <time>2018-07-18T11:38:33Z</time>
      </trkpt>
      <trkpt lat="47.79657" lon="-3.71757">
        <ele>15</ele>
        <time>2018-07-18T11:38:34Z</time>
      </trkpt>
      <trkpt lat="47.79654" lon="-3.71753">
        <ele>15</ele>
        <time>2018-07-18T11:38:35Z</time>
      </trkpt>
      <trkpt lat="47.79651" lon="-3.7175">
        <ele>15</ele>
        <time>2018-07-18T11:38:36Z</time>
      </trkpt>
      <trkpt lat="47.79649" lon="-3.71746">
        <ele>15</ele>
        <time>2018-07-18T11:38:37Z</time>
      </trkpt>
      <trkpt lat="47.79646" lon="-3.71741">
        <ele>15</ele>
        <time>2018-07-18T11:38:38Z</time>
      </trkpt>
      <trkpt lat="47.79644" lon="-3.71736">
        <ele>15</ele>
        <time>2018-07-18T11:38:39Z</time>
      </trkpt>
      <trkpt lat="47.79642" lon="-3.71731">
        <ele>15</ele>
        <time>2018-07-18T11:38:40Z</time>
      </trkpt>
      <trkpt lat="47.7964" lon="-3.71727">
        <ele>15</ele>
        <time>2018-07-18T11:38:41Z</time>
      </trkpt>
      <trkpt lat="47.79637" lon="-3.71722">
        <ele>16</ele>
        <time>2018-07-18T11:38:42Z</time>
      </trkpt>
      <trkpt lat="47.79636" lon="-3.71718">
        <ele>16</ele>
        <time>2018-07-18T11:38:43Z</time>
      </trkpt>
      <trkpt lat="47.79634" lon="-3.71715">
        <ele>16</ele>
        <time>2018-07-18T11:38:44Z</time>
      </trkpt>
      <trkpt lat="47.79633" lon="-3.71713">
        <ele>17</ele>
        <time>2018-07-18T11:38:45Z</time>
      </trkpt>
      <trkpt lat="47.7963" lon="-3.7171">
        <ele>17</ele>
        <time>2018-07-18T11:38:46Z</time>
      </trkpt>
      <trkpt lat="47.79628" lon="-3.71706">
        <ele>17</ele>
        <time>2018-07-18T11:38:47Z</time>
      </trkpt>
      <trkpt lat="47.79626" lon="-3.71703">
        <ele>17</ele>
        <time>2018-07-18T11:38:48Z</time>
      </trkpt>
      <trkpt lat="47.79624" lon="-3.717">
        <ele>17</ele>
        <time>2018-07-18T11:38:49Z</time>
      </trkpt>
      <trkpt lat="47.79622" lon="-3.71697">
        <ele>17</ele>
        <time>2018-07-18T11:38:50Z</time>
      </trkpt>
      <trkpt lat="47.79619" lon="-3.71694">
        <ele>17</ele>
        <time>2018-07-18T11:38:51Z</time>
      </trkpt>
      <trkpt lat="47.79617" lon="-3.71692">
        <ele>17</ele>
        <time>2018-07-18T11:38:52Z</time>
      </trkpt>
      <trkpt lat="47.79615" lon="-3.7169">
        <ele>17</ele>
        <time>2018-07-18T11:38:53Z</time>
      </trkpt>
      <trkpt lat="47.79613" lon="-3.71687">
        <ele>17</ele>
        <time>2018-07-18T11:38:54Z</time>
      </trkpt>
      <trkpt lat="47.79611" lon="-3.71685">
        <ele>18</ele>
        <time>2018-07-18T11:38:55Z</time>
      </trkpt>
      <trkpt lat="47.7961" lon="-3.71681">
        <ele>18</ele>
        <time>2018-07-18T11:38:56Z</time>
      </trkpt>
      <trkpt lat="47.79608" lon="-3.71678">
        <ele>18</ele>
        <time>2018-07-18T11:38:57Z</time>
      </trkpt>
      <trkpt lat="47.79607" lon="-3.71675">
        <ele>18</ele>
        <time>2018-07-18T11:38:58Z</time>
      </trkpt>
      <trkpt lat="47.79606" lon="-3.71672">
        <ele>17</ele>
        <time>2018-07-18T11:38:59Z</time>
      </trkpt>
      <trkpt lat="47.79603" lon="-3.71669">
        <ele>17</ele>
        <time>2018-07-18T11:39:00Z</time>
      </trkpt>
      <trkpt lat="47.79602" lon="-3.71665">
        <ele>17</ele>
        <time>2018-07-18T11:39:01Z</time>
      </trkpt>
      <trkpt lat="47.796" lon="-3.71662">
        <ele>17</ele>
        <time>2018-07-18T11:39:02Z</time>
      </trkpt>
      <trkpt lat="47.79597" lon="-3.7166">
        <ele>17</ele>
        <time>2018-07-18T11:39:03Z</time>
      </trkpt>
      <trkpt lat="47.79595" lon="-3.71659">
        <ele>17</ele>
        <time>2018-07-18T11:39:04Z</time>
      </trkpt>
      <trkpt lat="47.79592" lon="-3.71657">
        <ele>17</ele>
        <time>2018-07-18T11:39:05Z</time>
      </trkpt>
      <trkpt lat="47.7959" lon="-3.71655">
        <ele>17</ele>
        <time>2018-07-18T11:39:06Z</time>
      </trkpt>
      <trkpt lat="47.79587" lon="-3.71653">
        <ele>17</ele>
        <time>2018-07-18T11:39:07Z</time>
      </trkpt>
      <trkpt lat="47.79584" lon="-3.71652">
        <ele>17</ele>
        <time>2018-07-18T11:39:08Z</time>
      </trkpt>
      <trkpt lat="47.79582" lon="-3.71649">
        <ele>17</ele>
        <time>2018-07-18T11:39:09Z</time>
      </trkpt>
      <trkpt lat="47.79581" lon="-3.71644">
        <ele>17</ele>
        <time>2018-07-18T11:39:10Z</time>
      </trkpt>
      <trkpt lat="47.79579" lon="-3.7164">
        <ele>17</ele>
        <time>2018-07-18T11:39:11Z</time>
      </trkpt>
      <trkpt lat="47.79578" lon="-3.71636">
        <ele>17</ele>
        <time>2018-07-18T11:39:12Z</time>
      </trkpt>
      <trkpt lat="47.79576" lon="-3.71632">
        <ele>17</ele>
        <time>2018-07-18T11:39:13Z</time>
      </trkpt>
      <trkpt lat="47.79575" lon="-3.71628">
        <ele>17</ele>
        <time>2018-07-18T11:39:14Z</time>
      </trkpt>
      <trkpt lat="47.79573" lon="-3.71625">
        <ele>17</ele>
        <time>2018-07-18T11:39:15Z</time>
      </trkpt>
      <trkpt lat="47.79572" lon="-3.71623">
        <ele>17</ele>
        <time>2018-07-18T11:39:16Z</time>
      </trkpt>
      <trkpt lat="47.79572" lon="-3.71623">
        <ele>17</ele>
        <time>2018-07-18T11:39:17Z</time>
      </trkpt>
      <trkpt lat="47.79572" lon="-3.71623">
        <ele>17</ele>
        <time>2018-07-18T11:39:18Z</time>
      </trkpt>
      <trkpt lat="47.79572" lon="-3.71623">
        <ele>17</ele>
        <time>2018-07-18T11:39:19Z</time>
      </trkpt>
      <trkpt lat="47.79572" lon="-3.71623">
        <ele>17</ele>
        <time>2018-07-18T11:39:20Z</time>
      </trkpt>
      <trkpt lat="47.79571" lon="-3.71622">
        <ele>17</ele>
        <time>2018-07-18T11:39:21Z</time>
      </trkpt>
      <trkpt lat="47.7957" lon="-3.7162">
        <ele>16</ele>
        <time>2018-07-18T11:39:22Z</time>
      </trkpt>
      <trkpt lat="47.79569" lon="-3.71617">
        <ele>16</ele>
        <time>2018-07-18T11:39:23Z</time>
      </trkpt>
      <trkpt lat="47.79567" lon="-3.71613">
        <ele>16</ele>
        <time>2018-07-18T11:39:24Z</time>
      </trkpt>
      <trkpt lat="47.79566" lon="-3.71609">
        <ele>16</ele>
        <time>2018-07-18T11:39:25Z</time>
      </trkpt>
      <trkpt lat="47.79565" lon="-3.71603">
        <ele>16</ele>
        <time>2018-07-18T11:39:26Z</time>
      </trkpt>
      <trkpt lat="47.79564" lon="-3.71599">
        <ele>16</ele>
        <time>2018-07-18T11:39:27Z</time>
      </trkpt>
      <trkpt lat="47.79564" lon="-3.71594">
        <ele>16</ele>
        <time>2018-07-18T11:39:28Z</time>
      </trkpt>
      <trkpt lat="47.79565" lon="-3.71589">
        <ele>16</ele>
        <time>2018-07-18T11:39:29Z</time>
      </trkpt>
      <trkpt lat="47.79565" lon="-3.71585">
        <ele>16</ele>
        <time>2018-07-18T11:39:30Z</time>
      </trkpt>
      <trkpt lat="47.79565" lon="-3.7158">
        <ele>17</ele>
        <time>2018-07-18T11:39:31Z</time>
      </trkpt>
      <trkpt lat="47.79565" lon="-3.71576">
        <ele>17</ele>
        <time>2018-07-18T11:39:32Z</time>
      </trkpt>
      <trkpt lat="47.79565" lon="-3.71571">
        <ele>17</ele>
        <time>2018-07-18T11:39:33Z</time>
      </trkpt>
      <trkpt lat="47.79565" lon="-3.71567">
        <ele>17</ele>
        <time>2018-07-18T11:39:34Z</time>
      </trkpt>
      <trkpt lat="47.79565" lon="-3.71563">
        <ele>17</ele>
        <time>2018-07-18T11:39:35Z</time>
      </trkpt>
      <trkpt lat="47.79564" lon="-3.7156">
        <ele>18</ele>
        <time>2018-07-18T11:39:36Z</time>
      </trkpt>
      <trkpt lat="47.79564" lon="-3.71557">
        <ele>18</ele>
        <time>2018-07-18T11:39:37Z</time>
      </trkpt>
      <trkpt lat="47.79562" lon="-3.71556">
        <ele>17</ele>
        <time>2018-07-18T11:39:38Z</time>
      </trkpt>
      <trkpt lat="47.79561" lon="-3.71555">
        <ele>17</ele>
        <time>2018-07-18T11:39:39Z</time>
      </trkpt>
      <trkpt lat="47.7956" lon="-3.71555">
        <ele>17</ele>
        <time>2018-07-18T11:39:40Z</time>
      </trkpt>
      <trkpt lat="47.79559" lon="-3.71556">
        <ele>17</ele>
        <time>2018-07-18T11:39:41Z</time>
      </trkpt>
      <trkpt lat="47.79558" lon="-3.71556">
        <ele>17</ele>
        <time>2018-07-18T11:39:42Z</time>
      </trkpt>
      <trkpt lat="47.79556" lon="-3.71556">
        <ele>17</ele>
        <time>2018-07-18T11:39:43Z</time>
      </trkpt>
      <trkpt lat="47.79554" lon="-3.71555">
        <ele>16</ele>
        <time>2018-07-18T11:39:44Z</time>
      </trkpt>
      <trkpt lat="47.79552" lon="-3.71554">
        <ele>16</ele>
        <time>2018-07-18T11:39:45Z</time>
      </trkpt>
      <trkpt lat="47.79552" lon="-3.71551">
        <ele>16</ele>
        <time>2018-07-18T11:39:46Z</time>
      </trkpt>
      <trkpt lat="47.79551" lon="-3.71548">
        <ele>16</ele>
        <time>2018-07-18T11:39:47Z</time>
      </trkpt>
      <trkpt lat="47.79551" lon="-3.71545">
        <ele>15</ele>
        <time>2018-07-18T11:39:48Z</time>
      </trkpt>
      <trkpt lat="47.7955" lon="-3.7154">
        <ele>15</ele>
        <time>2018-07-18T11:39:49Z</time>
      </trkpt>
      <trkpt lat="47.7955" lon="-3.71535">
        <ele>15</ele>
        <time>2018-07-18T11:39:50Z</time>
      </trkpt>
      <trkpt lat="47.7955" lon="-3.7153">
        <ele>15</ele>
        <time>2018-07-18T11:39:51Z</time>
      </trkpt>
      <trkpt lat="47.79549" lon="-3.71527">
        <ele>15</ele>
        <time>2018-07-18T11:39:52Z</time>
      </trkpt>
      <trkpt lat="47.79547" lon="-3.71523">
        <ele>15</ele>
        <time>2018-07-18T11:39:53Z</time>
      </trkpt>
      <trkpt lat="47.79545" lon="-3.7152">
        <ele>15</ele>
        <time>2018-07-18T11:39:54Z</time>
      </trkpt>
      <trkpt lat="47.79544" lon="-3.71516">
        <ele>15</ele>
        <time>2018-07-18T11:39:55Z</time>
      </trkpt>
      <trkpt lat="47.79542" lon="-3.71511">
        <ele>16</ele>
        <time>2018-07-18T11:39:56Z</time>
      </trkpt>
      <trkpt lat="47.7954" lon="-3.71507">
        <ele>16</ele>
        <time>2018-07-18T11:39:57Z</time>
      </trkpt>
      <trkpt lat="47.79537" lon="-3.71504">
        <ele>16</ele>
        <time>2018-07-18T11:39:58Z</time>
      </trkpt>
      <trkpt lat="47.79535" lon="-3.715">
        <ele>16</ele>
        <time>2018-07-18T11:39:59Z</time>
      </trkpt>
      <trkpt lat="47.79532" lon="-3.71496">
        <ele>16</ele>
        <time>2018-07-18T11:40:00Z</time>
      </trkpt>
      <trkpt lat="47.7953" lon="-3.71491">
        <ele>16</ele>
        <time>2018-07-18T11:40:01Z</time>
      </trkpt>
      <trkpt lat="47.79527" lon="-3.71487">
        <ele>16</ele>
        <time>2018-07-18T11:40:02Z</time>
      </trkpt>
      <trkpt lat="47.79524" lon="-3.71483">
        <ele>16</ele>
        <time>2018-07-18T11:40:03Z</time>
      </trkpt>
      <trkpt lat="47.79522" lon="-3.71477">
        <ele>16</ele>
        <time>2018-07-18T11:40:04Z</time>
      </trkpt>
      <trkpt lat="47.79519" lon="-3.71472">
        <ele>16</ele>
        <time>2018-07-18T11:40:05Z</time>
      </trkpt>
      <trkpt lat="47.79518" lon="-3.71467">
        <ele>16</ele>
        <time>2018-07-18T11:40:06Z</time>
      </trkpt>
      <trkpt lat="47.79516" lon="-3.71461">
        <ele>16</ele>
        <time>2018-07-18T11:40:07Z</time>
      </trkpt>
      <trkpt lat="47.79515" lon="-3.71455">
        <ele>16</ele>
        <time>2018-07-18T11:40:08Z</time>
      </trkpt>
      <trkpt lat="47.79516" lon="-3.7145">
        <ele>16</ele>
        <time>2018-07-18T11:40:09Z</time>
      </trkpt>
      <trkpt lat="47.79516" lon="-3.71445">
        <ele>16</ele>
        <time>2018-07-18T11:40:10Z</time>
      </trkpt>
      <trkpt lat="47.79515" lon="-3.71441">
        <ele>16</ele>
        <time>2018-07-18T11:40:11Z</time>
      </trkpt>
      <trkpt lat="47.79513" lon="-3.71437">
        <ele>16</ele>
        <time>2018-07-18T11:40:12Z</time>
      </trkpt>
      <trkpt lat="47.79511" lon="-3.71433">
        <ele>15</ele>
        <time>2018-07-18T11:40:13Z</time>
      </trkpt>
      <trkpt lat="47.79509" lon="-3.71429">
        <ele>15</ele>
        <time>2018-07-18T11:40:14Z</time>
      </trkpt>
      <trkpt lat="47.79506" lon="-3.71427">
        <ele>15</ele>
        <time>2018-07-18T11:40:15Z</time>
      </trkpt>
      <trkpt lat="47.79502" lon="-3.71426">
        <ele>15</ele>
        <time>2018-07-18T11:40:16Z</time>
      </trkpt>
      <trkpt lat="47.79499" lon="-3.71426">
        <ele>15</ele>
        <time>2018-07-18T11:40:17Z</time>
      </trkpt>
      <trkpt lat="47.79495" lon="-3.71427">
        <ele>14</ele>
        <time>2018-07-18T11:40:18Z</time>
      </trkpt>
      <trkpt lat="47.7949" lon="-3.71426">
        <ele>14</ele>
        <time>2018-07-18T11:40:19Z</time>
      </trkpt>
      <trkpt lat="47.79486" lon="-3.71426">
        <ele>14</ele>
        <time>2018-07-18T11:40:20Z</time>
      </trkpt>
      <trkpt lat="47.79482" lon="-3.71426">
        <ele>13</ele>
        <time>2018-07-18T11:40:21Z</time>
      </trkpt>
      <trkpt lat="47.79476" lon="-3.71427">
        <ele>13</ele>
        <time>2018-07-18T11:40:22Z</time>
      </trkpt>
      <trkpt lat="47.79471" lon="-3.71427">
        <ele>12</ele>
        <time>2018-07-18T11:40:23Z</time>
      </trkpt>
      <trkpt lat="47.79466" lon="-3.71426">
        <ele>12</ele>
        <time>2018-07-18T11:40:24Z</time>
      </trkpt>
      <trkpt lat="47.79461" lon="-3.71425">
        <ele>12</ele>
        <time>2018-07-18T11:40:25Z</time>
      </trkpt>
      <trkpt lat="47.79457" lon="-3.71423">
        <ele>12</ele>
        <time>2018-07-18T11:40:26Z</time>
      </trkpt>
      <trkpt lat="47.79454" lon="-3.7142">
        <ele>12</ele>
        <time>2018-07-18T11:40:27Z</time>
      </trkpt>
      <trkpt lat="47.79451" lon="-3.71417">
        <ele>11</ele>
        <time>2018-07-18T11:40:28Z</time>
      </trkpt>
      <trkpt lat="47.79447" lon="-3.71413">
        <ele>11</ele>
        <time>2018-07-18T11:40:29Z</time>
      </trkpt>
      <trkpt lat="47.79444" lon="-3.71408">
        <ele>11</ele>
        <time>2018-07-18T11:40:30Z</time>
      </trkpt>
      <trkpt lat="47.79441" lon="-3.71404">
        <ele>11</ele>
        <time>2018-07-18T11:40:31Z</time>
      </trkpt>
      <trkpt lat="47.79438" lon="-3.714">
        <ele>11</ele>
        <time>2018-07-18T11:40:32Z</time>
      </trkpt>
      <trkpt lat="47.79436" lon="-3.71394">
        <ele>11</ele>
        <time>2018-07-18T11:40:33Z</time>
      </trkpt>
      <trkpt lat="47.79433" lon="-3.71389">
        <ele>11</ele>
        <time>2018-07-18T11:40:34Z</time>
      </trkpt>
      <trkpt lat="47.7943" lon="-3.71386">
        <ele>11</ele>
        <time>2018-07-18T11:40:35Z</time>
      </trkpt>
      <trkpt lat="47.79426" lon="-3.71384">
        <ele>11</ele>
        <time>2018-07-18T11:40:36Z</time>
      </trkpt>
      <trkpt lat="47.79422" lon="-3.71382">
        <ele>10</ele>
        <time>2018-07-18T11:40:37Z</time>
      </trkpt>
      <trkpt lat="47.79418" lon="-3.71379">
        <ele>10</ele>
        <time>2018-07-18T11:40:38Z</time>
      </trkpt>
      <trkpt lat="47.79415" lon="-3.71376">
        <ele>10</ele>
        <time>2018-07-18T11:40:39Z</time>
      </trkpt>
      <trkpt lat="47.79413" lon="-3.71371">
        <ele>10</ele>
        <time>2018-07-18T11:40:40Z</time>
      </trkpt>
      <trkpt lat="47.79411" lon="-3.71367">
        <ele>10</ele>
        <time>2018-07-18T11:40:41Z</time>
      </trkpt>
      <trkpt lat="47.79411" lon="-3.71363">
        <ele>10</ele>
        <time>2018-07-18T11:40:42Z</time>
      </trkpt>
      <trkpt lat="47.7941" lon="-3.71359">
        <ele>10</ele>
        <time>2018-07-18T11:40:43Z</time>
      </trkpt>
      <trkpt lat="47.79408" lon="-3.71355">
        <ele>10</ele>
        <time>2018-07-18T11:40:44Z</time>
      </trkpt>
      <trkpt lat="47.79407" lon="-3.7135">
        <ele>10</ele>
        <time>2018-07-18T11:40:45Z</time>
      </trkpt>
      <trkpt lat="47.79405" lon="-3.71345">
        <ele>10</ele>
        <time>2018-07-18T11:40:46Z</time>
      </trkpt>
      <trkpt lat="47.79404" lon="-3.7134">
        <ele>10</ele>
        <time>2018-07-18T11:40:47Z</time>
      </trkpt>
      <trkpt lat="47.79403" lon="-3.71334">
        <ele>10</ele>
        <time>2018-07-18T11:40:48Z</time>
      </trkpt>
      <trkpt lat="47.79402" lon="-3.7133">
        <ele>10</ele>
        <time>2018-07-18T11:40:49Z</time>
      </trkpt>
      <trkpt lat="47.79401" lon="-3.71324">
        <ele>10</ele>
        <time>2018-07-18T11:40:50Z</time>
      </trkpt>
      <trkpt lat="47.79399" lon="-3.71319">
        <ele>10</ele>
        <time>2018-07-18T11:40:51Z</time>
      </trkpt>
      <trkpt lat="47.79397" lon="-3.71314">
        <ele>10</ele>
        <time>2018-07-18T11:40:52Z</time>
      </trkpt>
      <trkpt lat="47.79396" lon="-3.71308">
        <ele>10</ele>
        <time>2018-07-18T11:40:53Z</time>
      </trkpt>
      <trkpt lat="47.79396" lon="-3.71302">
        <ele>9</ele>
        <time>2018-07-18T11:40:54Z</time>
      </trkpt>
      <trkpt lat="47.79395" lon="-3.71297">
        <ele>9</ele>
        <time>2018-07-18T11:40:55Z</time>
      </trkpt>
      <trkpt lat="47.79395" lon="-3.71293">
        <ele>9</ele>
        <time>2018-07-18T11:40:56Z</time>
      </trkpt>
      <trkpt lat="47.79394" lon="-3.71288">
        <ele>9</ele>
        <time>2018-07-18T11:40:57Z</time>
      </trkpt>
      <trkpt lat="47.79394" lon="-3.71283">
        <ele>9</ele>
        <time>2018-07-18T11:40:58Z</time>
      </trkpt>
      <trkpt lat="47.79396" lon="-3.71278">
        <ele>8</ele>
        <time>2018-07-18T11:40:59Z</time>
      </trkpt>
      <trkpt lat="47.79397" lon="-3.71273">
        <ele>9</ele>
        <time>2018-07-18T11:41:00Z</time>
      </trkpt>
      <trkpt lat="47.79399" lon="-3.71269">
        <ele>9</ele>
        <time>2018-07-18T11:41:01Z</time>
      </trkpt>
      <trkpt lat="47.79401" lon="-3.71266">
        <ele>9</ele>
        <time>2018-07-18T11:41:02Z</time>
      </trkpt>
      <trkpt lat="47.79404" lon="-3.71263">
        <ele>9</ele>
        <time>2018-07-18T11:41:03Z</time>
      </trkpt>
      <trkpt lat="47.79407" lon="-3.71261">
        <ele>9</ele>
        <time>2018-07-18T11:41:04Z</time>
      </trkpt>
      <trkpt lat="47.7941" lon="-3.71258">
        <ele>10</ele>
        <time>2018-07-18T11:41:05Z</time>
      </trkpt>
      <trkpt lat="47.79413" lon="-3.71256">
        <ele>10</ele>
        <time>2018-07-18T11:41:06Z</time>
      </trkpt>
      <trkpt lat="47.79415" lon="-3.71253">
        <ele>10</ele>
        <time>2018-07-18T11:41:07Z</time>
      </trkpt>
      <trkpt lat="47.79418" lon="-3.71251">
        <ele>11</ele>
        <time>2018-07-18T11:41:08Z</time>
      </trkpt>
      <trkpt lat="47.79421" lon="-3.7125">
        <ele>11</ele>
        <time>2018-07-18T11:41:09Z</time>
      </trkpt>
      <trkpt lat="47.79424" lon="-3.71249">
        <ele>11</ele>
        <time>2018-07-18T11:41:10Z</time>
      </trkpt>
      <trkpt lat="47.79426" lon="-3.71248">
        <ele>11</ele>
        <time>2018-07-18T11:41:11Z</time>
      </trkpt>
      <trkpt lat="47.79428" lon="-3.71245">
        <ele>11</ele>
        <time>2018-07-18T11:41:12Z</time>
      </trkpt>
      <trkpt lat="47.7943" lon="-3.71243">
        <ele>11</ele>
        <time>2018-07-18T11:41:13Z</time>
      </trkpt>
      <trkpt lat="47.79432" lon="-3.7124">
        <ele>11</ele>
        <time>2018-07-18T11:41:14Z</time>
      </trkpt>
      <trkpt lat="47.79433" lon="-3.71239">
        <ele>11</ele>
        <time>2018-07-18T11:41:15Z</time>
      </trkpt>
      <trkpt lat="47.79433" lon="-3.71238">
        <ele>11</ele>
        <time>2018-07-18T11:41:16Z</time>
      </trkpt>
      <trkpt lat="47.79433" lon="-3.71238">
        <ele>11</ele>
        <time>2018-07-18T11:41:17Z</time>
      </trkpt>
      <trkpt lat="47.79433" lon="-3.71237">
        <ele>11</ele>
        <time>2018-07-18T11:41:18Z</time>
      </trkpt>
      <trkpt lat="47.79434" lon="-3.71234">
        <ele>11</ele>
        <time>2018-07-18T11:41:19Z</time>
      </trkpt>
      <trkpt lat="47.79434" lon="-3.71232">
        <ele>11</ele>
        <time>2018-07-18T11:41:20Z</time>
      </trkpt>
      <trkpt lat="47.79433" lon="-3.71229">
        <ele>11</ele>
        <time>2018-07-18T11:41:21Z</time>
      </trkpt>
      <trkpt lat="47.79433" lon="-3.71227">
        <ele>10</ele>
        <time>2018-07-18T11:41:22Z</time>
      </trkpt>
      <trkpt lat="47.79433" lon="-3.71225">
        <ele>10</ele>
        <time>2018-07-18T11:41:23Z</time>
      </trkpt>
      <trkpt lat="47.79434" lon="-3.71223">
        <ele>10</ele>
        <time>2018-07-18T11:41:24Z</time>
      </trkpt>
      <trkpt lat="47.79434" lon="-3.7122">
        <ele>10</ele>
        <time>2018-07-18T11:41:25Z</time>
      </trkpt>
      <trkpt lat="47.79433" lon="-3.71217">
        <ele>9</ele>
        <time>2018-07-18T11:41:26Z</time>
      </trkpt>
      <trkpt lat="47.79433" lon="-3.71213">
        <ele>9</ele>
        <time>2018-07-18T11:41:27Z</time>
      </trkpt>
      <trkpt lat="47.79431" lon="-3.7121">
        <ele>9</ele>
        <time>2018-07-18T11:41:28Z</time>
      </trkpt>
      <trkpt lat="47.79431" lon="-3.71207">
        <ele>8</ele>
        <time>2018-07-18T11:41:29Z</time>
      </trkpt>
      <trkpt lat="47.79431" lon="-3.71203">
        <ele>8</ele>
        <time>2018-07-18T11:41:30Z</time>
      </trkpt>
      <trkpt lat="47.79431" lon="-3.71198">
        <ele>8</ele>
        <time>2018-07-18T11:41:31Z</time>
      </trkpt>
      <trkpt lat="47.7943" lon="-3.71195">
        <ele>8</ele>
        <time>2018-07-18T11:41:32Z</time>
      </trkpt>
      <trkpt lat="47.79428" lon="-3.71193">
        <ele>7</ele>
        <time>2018-07-18T11:41:33Z</time>
      </trkpt>
      <trkpt lat="47.79427" lon="-3.71192">
        <ele>7</ele>
        <time>2018-07-18T11:41:34Z</time>
      </trkpt>
      <trkpt lat="47.79424" lon="-3.71189">
        <ele>7</ele>
        <time>2018-07-18T11:41:35Z</time>
      </trkpt>
      <trkpt lat="47.79421" lon="-3.71189">
        <ele>7</ele>
        <time>2018-07-18T11:41:36Z</time>
      </trkpt>
      <trkpt lat="47.79421" lon="-3.71189">
        <ele>7</ele>
        <time>2018-07-18T11:41:37Z</time>
      </trkpt>
      <trkpt lat="47.79415" lon="-3.7119">
        <ele>7</ele>
        <time>2018-07-18T11:41:38Z</time>
      </trkpt>
      <trkpt lat="47.79413" lon="-3.7119">
        <ele>7</ele>
        <time>2018-07-18T11:41:39Z</time>
      </trkpt>
      <trkpt lat="47.79411" lon="-3.71191">
        <ele>7</ele>
        <time>2018-07-18T11:41:40Z</time>
      </trkpt>
      <trkpt lat="47.79409" lon="-3.71191">
        <ele>7</ele>
        <time>2018-07-18T11:41:41Z</time>
      </trkpt>
      <trkpt lat="47.79407" lon="-3.7119">
        <ele>7</ele>
        <time>2018-07-18T11:41:42Z</time>
      </trkpt>
      <trkpt lat="47.79406" lon="-3.71188">
        <ele>7</ele>
        <time>2018-07-18T11:41:43Z</time>
      </trkpt>
      <trkpt lat="47.79404" lon="-3.71187">
        <ele>7</ele>
        <time>2018-07-18T11:41:44Z</time>
      </trkpt>
      <trkpt lat="47.79404" lon="-3.71185">
        <ele>7</ele>
        <time>2018-07-18T11:41:45Z</time>
      </trkpt>
      <trkpt lat="47.79403" lon="-3.71183">
        <ele>7</ele>
        <time>2018-07-18T11:41:46Z</time>
      </trkpt>
      <trkpt lat="47.79402" lon="-3.71181">
        <ele>8</ele>
        <time>2018-07-18T11:41:47Z</time>
      </trkpt>
      <trkpt lat="47.79401" lon="-3.71179">
        <ele>8</ele>
        <time>2018-07-18T11:41:48Z</time>
      </trkpt>
      <trkpt lat="47.794" lon="-3.71178">
        <ele>8</ele>
        <time>2018-07-18T11:41:49Z</time>
      </trkpt>
      <trkpt lat="47.79399" lon="-3.71175">
        <ele>8</ele>
        <time>2018-07-18T11:41:50Z</time>
      </trkpt>
      <trkpt lat="47.79397" lon="-3.71173">
        <ele>8</ele>
        <time>2018-07-18T11:41:51Z</time>
      </trkpt>
      <trkpt lat="47.79395" lon="-3.71172">
        <ele>8</ele>
        <time>2018-07-18T11:41:52Z</time>
      </trkpt>
      <trkpt lat="47.79393" lon="-3.7117">
        <ele>8</ele>
        <time>2018-07-18T11:41:53Z</time>
      </trkpt>
      <trkpt lat="47.7939" lon="-3.71168">
        <ele>8</ele>
        <time>2018-07-18T11:41:54Z</time>
      </trkpt>
      <trkpt lat="47.79388" lon="-3.71165">
        <ele>8</ele>
        <time>2018-07-18T11:41:55Z</time>
      </trkpt>
      <trkpt lat="47.79386" lon="-3.71162">
        <ele>8</ele>
        <time>2018-07-18T11:41:56Z</time>
      </trkpt>
      <trkpt lat="47.79384" lon="-3.71159">
        <ele>8</ele>
        <time>2018-07-18T11:41:57Z</time>
      </trkpt>
      <trkpt lat="47.79382" lon="-3.71155">
        <ele>8</ele>
        <time>2018-07-18T11:41:58Z</time>
      </trkpt>
      <trkpt lat="47.7938" lon="-3.71152">
        <ele>8</ele>
        <time>2018-07-18T11:41:59Z</time>
      </trkpt>
      <trkpt lat="47.79379" lon="-3.71147">
        <ele>8</ele>
        <time>2018-07-18T11:42:00Z</time>
      </trkpt>
      <trkpt lat="47.79377" lon="-3.71143">
        <ele>8</ele>
        <time>2018-07-18T11:42:01Z</time>
      </trkpt>
      <trkpt lat="47.79376" lon="-3.71139">
        <ele>8</ele>
        <time>2018-07-18T11:42:02Z</time>
      </trkpt>
      <trkpt lat="47.79374" lon="-3.71135">
        <ele>8</ele>
        <time>2018-07-18T11:42:03Z</time>
      </trkpt>
      <trkpt lat="47.79373" lon="-3.7113">
        <ele>9</ele>
        <time>2018-07-18T11:42:04Z</time>
      </trkpt>
      <trkpt lat="47.79371" lon="-3.71126">
        <ele>9</ele>
        <time>2018-07-18T11:42:05Z</time>
      </trkpt>
      <trkpt lat="47.7937" lon="-3.71121">
        <ele>9</ele>
        <time>2018-07-18T11:42:06Z</time>
      </trkpt>
      <trkpt lat="47.79368" lon="-3.71117">
        <ele>9</ele>
        <time>2018-07-18T11:42:07Z</time>
      </trkpt>
      <trkpt lat="47.79366" lon="-3.71113">
        <ele>9</ele>
        <time>2018-07-18T11:42:08Z</time>
      </trkpt>
      <trkpt lat="47.79364" lon="-3.71108">
        <ele>9</ele>
        <time>2018-07-18T11:42:09Z</time>
      </trkpt>
      <trkpt lat="47.79362" lon="-3.71103">
        <ele>9</ele>
        <time>2018-07-18T11:42:10Z</time>
      </trkpt>
      <trkpt lat="47.7936" lon="-3.71099">
        <ele>9</ele>
        <time>2018-07-18T11:42:11Z</time>
      </trkpt>
      <trkpt lat="47.79357" lon="-3.71096">
        <ele>9</ele>
        <time>2018-07-18T11:42:12Z</time>
      </trkpt>
      <trkpt lat="47.79354" lon="-3.71092">
        <ele>9</ele>
        <time>2018-07-18T11:42:13Z</time>
      </trkpt>
      <trkpt lat="47.79352" lon="-3.71088">
        <ele>9</ele>
        <time>2018-07-18T11:42:14Z</time>
      </trkpt>
      <trkpt lat="47.79349" lon="-3.71085">
        <ele>9</ele>
        <time>2018-07-18T11:42:15Z</time>
      </trkpt>
      <trkpt lat="47.79345" lon="-3.71083">
        <ele>9</ele>
        <time>2018-07-18T11:42:16Z</time>
      </trkpt>
      <trkpt lat="47.79341" lon="-3.71082">
        <ele>9</ele>
        <time>2018-07-18T11:42:17Z</time>
      </trkpt>
      <trkpt lat="47.79338" lon="-3.7108">
        <ele>9</ele>
        <time>2018-07-18T11:42:18Z</time>
      </trkpt>
      <trkpt lat="47.79335" lon="-3.71077">
        <ele>9</ele>
        <time>2018-07-18T11:42:19Z</time>
      </trkpt>
      <trkpt lat="47.79333" lon="-3.71073">
        <ele>9</ele>
        <time>2018-07-18T11:42:20Z</time>
      </trkpt>
      <trkpt lat="47.79331" lon="-3.7107">
        <ele>9</ele>
        <time>2018-07-18T11:42:21Z</time>
      </trkpt>
      <trkpt lat="47.79329" lon="-3.71067">
        <ele>9</ele>
        <time>2018-07-18T11:42:22Z</time>
      </trkpt>
      <trkpt lat="47.79328" lon="-3.71063">
        <ele>9</ele>
        <time>2018-07-18T11:42:23Z</time>
      </trkpt>
      <trkpt lat="47.79326" lon="-3.7106">
        <ele>10</ele>
        <time>2018-07-18T11:42:24Z</time>
      </trkpt>
      <trkpt lat="47.79323" lon="-3.71056">
        <ele>9</ele>
        <time>2018-07-18T11:42:25Z</time>
      </trkpt>
      <trkpt lat="47.79321" lon="-3.71052">
        <ele>9</ele>
        <time>2018-07-18T11:42:26Z</time>
      </trkpt>
      <trkpt lat="47.79318" lon="-3.71049">
        <ele>9</ele>
        <time>2018-07-18T11:42:27Z</time>
      </trkpt>
      <trkpt lat="47.79315" lon="-3.71047">
        <ele>10</ele>
        <time>2018-07-18T11:42:28Z</time>
      </trkpt>
      <trkpt lat="47.79311" lon="-3.71044">
        <ele>10</ele>
        <time>2018-07-18T11:42:29Z</time>
      </trkpt>
      <trkpt lat="47.79308" lon="-3.71042">
        <ele>10</ele>
        <time>2018-07-18T11:42:30Z</time>
      </trkpt>
      <trkpt lat="47.79304" lon="-3.7104">
        <ele>9</ele>
        <time>2018-07-18T11:42:31Z</time>
      </trkpt>
      <trkpt lat="47.79301" lon="-3.71039">
        <ele>9</ele>
        <time>2018-07-18T11:42:32Z</time>
      </trkpt>
      <trkpt lat="47.79297" lon="-3.71037">
        <ele>9</ele>
        <time>2018-07-18T11:42:33Z</time>
      </trkpt>
      <trkpt lat="47.79295" lon="-3.71034">
        <ele>9</ele>
        <time>2018-07-18T11:42:34Z</time>
      </trkpt>
      <trkpt lat="47.79292" lon="-3.71031">
        <ele>10</ele>
        <time>2018-07-18T11:42:35Z</time>
      </trkpt>
      <trkpt lat="47.79289" lon="-3.71027">
        <ele>10</ele>
        <time>2018-07-18T11:42:36Z</time>
      </trkpt>
      <trkpt lat="47.79285" lon="-3.71025">
        <ele>10</ele>
        <time>2018-07-18T11:42:37Z</time>
      </trkpt>
      <trkpt lat="47.79282" lon="-3.71022">
        <ele>10</ele>
        <time>2018-07-18T11:42:38Z</time>
      </trkpt>
      <trkpt lat="47.79279" lon="-3.7102">
        <ele>10</ele>
        <time>2018-07-18T11:42:39Z</time>
      </trkpt>
      <trkpt lat="47.79275" lon="-3.71017">
        <ele>10</ele>
        <time>2018-07-18T11:42:40Z</time>
      </trkpt>
      <trkpt lat="47.79271" lon="-3.71014">
        <ele>10</ele>
        <time>2018-07-18T11:42:41Z</time>
      </trkpt>
      <trkpt lat="47.79268" lon="-3.71011">
        <ele>10</ele>
        <time>2018-07-18T11:42:42Z</time>
      </trkpt>
      <trkpt lat="47.79264" lon="-3.71009">
        <ele>10</ele>
        <time>2018-07-18T11:42:43Z</time>
      </trkpt>
      <trkpt lat="47.7926" lon="-3.71006">
        <ele>10</ele>
        <time>2018-07-18T11:42:44Z</time>
      </trkpt>
      <trkpt lat="47.79257" lon="-3.71004">
        <ele>10</ele>
        <time>2018-07-18T11:42:45Z</time>
      </trkpt>
      <trkpt lat="47.79253" lon="-3.71001">
        <ele>10</ele>
        <time>2018-07-18T11:42:46Z</time>
      </trkpt>
      <trkpt lat="47.7925" lon="-3.70998">
        <ele>10</ele>
        <time>2018-07-18T11:42:47Z</time>
      </trkpt>
      <trkpt lat="47.79246" lon="-3.70995">
        <ele>10</ele>
        <time>2018-07-18T11:42:48Z</time>
      </trkpt>
      <trkpt lat="47.79243" lon="-3.70991">
        <ele>10</ele>
        <time>2018-07-18T11:42:49Z</time>
      </trkpt>
      <trkpt lat="47.79239" lon="-3.70988">
        <ele>10</ele>
        <time>2018-07-18T11:42:50Z</time>
      </trkpt>
      <trkpt lat="47.79236" lon="-3.70984">
        <ele>10</ele>
        <time>2018-07-18T11:42:51Z</time>
      </trkpt>
      <trkpt lat="47.79233" lon="-3.7098">
        <ele>10</ele>
        <time>2018-07-18T11:42:52Z</time>
      </trkpt>
      <trkpt lat="47.79231" lon="-3.70975">
        <ele>10</ele>
        <time>2018-07-18T11:42:53Z</time>
      </trkpt>
      <trkpt lat="47.79229" lon="-3.70969">
        <ele>10</ele>
        <time>2018-07-18T11:42:54Z</time>
      </trkpt>
      <trkpt lat="47.79228" lon="-3.70964">
        <ele>10</ele>
        <time>2018-07-18T11:42:55Z</time>
      </trkpt>
      <trkpt lat="47.79227" lon="-3.70958">
        <ele>10</ele>
        <time>2018-07-18T11:42:56Z</time>
      </trkpt>
      <trkpt lat="47.79225" lon="-3.70952">
        <ele>10</ele>
        <time>2018-07-18T11:42:57Z</time>
      </trkpt>
      <trkpt lat="47.79223" lon="-3.70947">
        <ele>10</ele>
        <time>2018-07-18T11:42:58Z</time>
      </trkpt>
      <trkpt lat="47.7922" lon="-3.70943">
        <ele>10</ele>
        <time>2018-07-18T11:42:59Z</time>
      </trkpt>
      <trkpt lat="47.79216" lon="-3.7094">
        <ele>10</ele>
        <time>2018-07-18T11:43:00Z</time>
      </trkpt>
      <trkpt lat="47.79213" lon="-3.70936">
        <ele>10</ele>
        <time>2018-07-18T11:43:01Z</time>
      </trkpt>
      <trkpt lat="47.7921" lon="-3.70932">
        <ele>10</ele>
        <time>2018-07-18T11:43:02Z</time>
      </trkpt>
      <trkpt lat="47.79207" lon="-3.70927">
        <ele>9</ele>
        <time>2018-07-18T11:43:03Z</time>
      </trkpt>
      <trkpt lat="47.79203" lon="-3.70923">
        <ele>9</ele>
        <time>2018-07-18T11:43:04Z</time>
      </trkpt>
      <trkpt lat="47.792" lon="-3.70917">
        <ele>9</ele>
        <time>2018-07-18T11:43:05Z</time>
      </trkpt>
      <trkpt lat="47.79199" lon="-3.70911">
        <ele>9</ele>
        <time>2018-07-18T11:43:06Z</time>
      </trkpt>
      <trkpt lat="47.79198" lon="-3.70905">
        <ele>9</ele>
        <time>2018-07-18T11:43:07Z</time>
      </trkpt>
      <trkpt lat="47.79198" lon="-3.70899">
        <ele>9</ele>
        <time>2018-07-18T11:43:08Z</time>
      </trkpt>
      <trkpt lat="47.79199" lon="-3.70893">
        <ele>9</ele>
        <time>2018-07-18T11:43:09Z</time>
      </trkpt>
      <trkpt lat="47.79199" lon="-3.70886">
        <ele>9</ele>
        <time>2018-07-18T11:43:10Z</time>
      </trkpt>
      <trkpt lat="47.792" lon="-3.7088">
        <ele>9</ele>
        <time>2018-07-18T11:43:11Z</time>
      </trkpt>
      <trkpt lat="47.79202" lon="-3.70875">
        <ele>9</ele>
        <time>2018-07-18T11:43:12Z</time>
      </trkpt>
      <trkpt lat="47.79204" lon="-3.70869">
        <ele>9</ele>
        <time>2018-07-18T11:43:13Z</time>
      </trkpt>
      <trkpt lat="47.79204" lon="-3.70863">
        <ele>9</ele>
        <time>2018-07-18T11:43:14Z</time>
      </trkpt>
      <trkpt lat="47.79205" lon="-3.70856">
        <ele>9</ele>
        <time>2018-07-18T11:43:15Z</time>
      </trkpt>
      <trkpt lat="47.79206" lon="-3.70849">
        <ele>9</ele>
        <time>2018-07-18T11:43:16Z</time>
      </trkpt>
      <trkpt lat="47.79207" lon="-3.70842">
        <ele>8</ele>
        <time>2018-07-18T11:43:17Z</time>
      </trkpt>
      <trkpt lat="47.79207" lon="-3.70837">
        <ele>8</ele>
        <time>2018-07-18T11:43:18Z</time>
      </trkpt>
      <trkpt lat="47.79207" lon="-3.70834">
        <ele>8</ele>
        <time>2018-07-18T11:43:19Z</time>
      </trkpt>
      <trkpt lat="47.79207" lon="-3.70834">
        <ele>8</ele>
        <time>2018-07-18T11:43:20Z</time>
      </trkpt>
      <trkpt lat="47.79207" lon="-3.70834">
        <ele>8</ele>
        <time>2018-07-18T11:43:21Z</time>
      </trkpt>
      <trkpt lat="47.79207" lon="-3.70834">
        <ele>8</ele>
        <time>2018-07-18T11:43:22Z</time>
      </trkpt>
      <trkpt lat="47.79208" lon="-3.70833">
        <ele>8</ele>
        <time>2018-07-18T11:43:23Z</time>
      </trkpt>
      <trkpt lat="47.79208" lon="-3.70831">
        <ele>8</ele>
        <time>2018-07-18T11:43:24Z</time>
      </trkpt>
      <trkpt lat="47.79207" lon="-3.7083">
        <ele>8</ele>
        <time>2018-07-18T11:43:25Z</time>
      </trkpt>
      <trkpt lat="47.79207" lon="-3.70829">
        <ele>8</ele>
        <time>2018-07-18T11:43:26Z</time>
      </trkpt>
      <trkpt lat="47.79207" lon="-3.70829">
        <ele>8</ele>
        <time>2018-07-18T11:43:27Z</time>
      </trkpt>
      <trkpt lat="47.79208" lon="-3.70828">
        <ele>7</ele>
        <time>2018-07-18T11:43:28Z</time>
      </trkpt>
      <trkpt lat="47.79208" lon="-3.70827">
        <ele>7</ele>
        <time>2018-07-18T11:43:29Z</time>
      </trkpt>
      <trkpt lat="47.79208" lon="-3.70826">
        <ele>7</ele>
        <time>2018-07-18T11:43:30Z</time>
      </trkpt>
      <trkpt lat="47.79208" lon="-3.70824">
        <ele>7</ele>
        <time>2018-07-18T11:43:31Z</time>
      </trkpt>
      <trkpt lat="47.79208" lon="-3.70823">
        <ele>7</ele>
        <time>2018-07-18T11:43:32Z</time>
      </trkpt>
      <trkpt lat="47.79209" lon="-3.70822">
        <ele>7</ele>
        <time>2018-07-18T11:43:33Z</time>
      </trkpt>
      <trkpt lat="47.79209" lon="-3.7082">
        <ele>6</ele>
        <time>2018-07-18T11:43:34Z</time>
      </trkpt>
      <trkpt lat="47.79209" lon="-3.70819">
        <ele>6</ele>
        <time>2018-07-18T11:43:35Z</time>
      </trkpt>
      <trkpt lat="47.79209" lon="-3.70818">
        <ele>6</ele>
        <time>2018-07-18T11:43:36Z</time>
      </trkpt>
      <trkpt lat="47.79209" lon="-3.70816">
        <ele>6</ele>
        <time>2018-07-18T11:43:37Z</time>
      </trkpt>
      <trkpt lat="47.79209" lon="-3.70816">
        <ele>6</ele>
        <time>2018-07-18T11:43:38Z</time>
      </trkpt>
      <trkpt lat="47.79209" lon="-3.70816">
        <ele>6</ele>
        <time>2018-07-18T11:43:39Z</time>
      </trkpt>
      <trkpt lat="47.79209" lon="-3.70815">
        <ele>6</ele>
        <time>2018-07-18T11:43:40Z</time>
      </trkpt>
      <trkpt lat="47.79208" lon="-3.70813">
        <ele>6</ele>
        <time>2018-07-18T11:43:41Z</time>
      </trkpt>
      <trkpt lat="47.79208" lon="-3.70811">
        <ele>6</ele>
        <time>2018-07-18T11:43:42Z</time>
      </trkpt>
      <trkpt lat="47.79208" lon="-3.70808">
        <ele>6</ele>
        <time>2018-07-18T11:43:43Z</time>
      </trkpt>
      <trkpt lat="47.79208" lon="-3.70805">
        <ele>6</ele>
        <time>2018-07-18T11:43:44Z</time>
      </trkpt>
      <trkpt lat="47.79207" lon="-3.70804">
        <ele>6</ele>
        <time>2018-07-18T11:43:45Z</time>
      </trkpt>
      <trkpt lat="47.79207" lon="-3.70802">
        <ele>6</ele>
        <time>2018-07-18T11:43:46Z</time>
      </trkpt>
      <trkpt lat="47.79205" lon="-3.70801">
        <ele>6</ele>
        <time>2018-07-18T11:43:47Z</time>
      </trkpt>
      <trkpt lat="47.79203" lon="-3.70802">
        <ele>6</ele>
        <time>2018-07-18T11:43:48Z</time>
      </trkpt>
      <trkpt lat="47.792" lon="-3.70802">
        <ele>6</ele>
        <time>2018-07-18T11:43:49Z</time>
      </trkpt>
      <trkpt lat="47.79199" lon="-3.70803">
        <ele>6</ele>
        <time>2018-07-18T11:43:50Z</time>
      </trkpt>
      <trkpt lat="47.79197" lon="-3.70804">
        <ele>6</ele>
        <time>2018-07-18T11:43:51Z</time>
      </trkpt>
      <trkpt lat="47.79196" lon="-3.70804">
        <ele>6</ele>
        <time>2018-07-18T11:43:52Z</time>
      </trkpt>
      <trkpt lat="47.79194" lon="-3.70804">
        <ele>6</ele>
        <time>2018-07-18T11:43:53Z</time>
      </trkpt>
      <trkpt lat="47.79194" lon="-3.70804">
        <ele>6</ele>
        <time>2018-07-18T11:43:54Z</time>
      </trkpt>
      <trkpt lat="47.79194" lon="-3.70804">
        <ele>7</ele>
        <time>2018-07-18T11:43:55Z</time>
      </trkpt>
      <trkpt lat="47.79193" lon="-3.70804">
        <ele>7</ele>
        <time>2018-07-18T11:43:56Z</time>
      </trkpt>
      <trkpt lat="47.79193" lon="-3.70804">
        <ele>7</ele>
        <time>2018-07-18T11:43:57Z</time>
      </trkpt>
      <trkpt lat="47.79192" lon="-3.70804">
        <ele>7</ele>
        <time>2018-07-18T11:43:58Z</time>
      </trkpt>
      <trkpt lat="47.79192" lon="-3.70804">
        <ele>7</ele>
        <time>2018-07-18T11:43:59Z</time>
      </trkpt>
      <trkpt lat="47.79191" lon="-3.70805">
        <ele>7</ele>
        <time>2018-07-18T11:44:00Z</time>
      </trkpt>
      <trkpt lat="47.7919" lon="-3.70805">
        <ele>7</ele>
        <time>2018-07-18T11:44:01Z</time>
      </trkpt>
      <trkpt lat="47.7919" lon="-3.70805">
        <ele>7</ele>
        <time>2018-07-18T11:44:02Z</time>
      </trkpt>
      <trkpt lat="47.79189" lon="-3.70807">
        <ele>7</ele>
        <time>2018-07-18T11:44:03Z</time>
      </trkpt>
      <trkpt lat="47.79188" lon="-3.70808">
        <ele>7</ele>
        <time>2018-07-18T11:44:04Z</time>
      </trkpt>
      <trkpt lat="47.79187" lon="-3.70809">
        <ele>7</ele>
        <time>2018-07-18T11:44:05Z</time>
      </trkpt>
      <trkpt lat="47.79186" lon="-3.7081">
        <ele>7</ele>
        <time>2018-07-18T11:44:06Z</time>
      </trkpt>
      <trkpt lat="47.79185" lon="-3.70811">
        <ele>7</ele>
        <time>2018-07-18T11:44:07Z</time>
      </trkpt>
      <trkpt lat="47.79184" lon="-3.70811">
        <ele>7</ele>
        <time>2018-07-18T11:44:08Z</time>
      </trkpt>
      <trkpt lat="47.79183" lon="-3.70811">
        <ele>8</ele>
        <time>2018-07-18T11:44:09Z</time>
      </trkpt>
      <trkpt lat="47.79182" lon="-3.70811">
        <ele>8</ele>
        <time>2018-07-18T11:44:10Z</time>
      </trkpt>
      <trkpt lat="47.79181" lon="-3.7081">
        <ele>8</ele>
        <time>2018-07-18T11:44:11Z</time>
      </trkpt>
      <trkpt lat="47.7918" lon="-3.70811">
        <ele>8</ele>
        <time>2018-07-18T11:44:12Z</time>
      </trkpt>
      <trkpt lat="47.79179" lon="-3.70811">
        <ele>8</ele>
        <time>2018-07-18T11:44:13Z</time>
      </trkpt>
      <trkpt lat="47.79178" lon="-3.70811">
        <ele>8</ele>
        <time>2018-07-18T11:44:14Z</time>
      </trkpt>
      <trkpt lat="47.79177" lon="-3.70811">
        <ele>8</ele>
        <time>2018-07-18T11:44:15Z</time>
      </trkpt>
      <trkpt lat="47.79177" lon="-3.70811">
        <ele>8</ele>
        <time>2018-07-18T11:44:16Z</time>
      </trkpt>
      <trkpt lat="47.79176" lon="-3.70811">
        <ele>9</ele>
        <time>2018-07-18T11:44:17Z</time>
      </trkpt>
      <trkpt lat="47.79176" lon="-3.7081">
        <ele>9</ele>
        <time>2018-07-18T11:44:18Z</time>
      </trkpt>
      <trkpt lat="47.79175" lon="-3.70809">
        <ele>9</ele>
        <time>2018-07-18T11:44:19Z</time>
      </trkpt>
      <trkpt lat="47.79174" lon="-3.70809">
        <ele>9</ele>
        <time>2018-07-18T11:44:20Z</time>
      </trkpt>
      <trkpt lat="47.79174" lon="-3.70809">
        <ele>9</ele>
        <time>2018-07-18T11:44:21Z</time>
      </trkpt>
      <trkpt lat="47.79173" lon="-3.70809">
        <ele>10</ele>
        <time>2018-07-18T11:44:22Z</time>
      </trkpt>
      <trkpt lat="47.79172" lon="-3.70809">
        <ele>10</ele>
        <time>2018-07-18T11:44:23Z</time>
      </trkpt>
      <trkpt lat="47.79171" lon="-3.70808">
        <ele>10</ele>
        <time>2018-07-18T11:44:24Z</time>
      </trkpt>
      <trkpt lat="47.7917" lon="-3.70808">
        <ele>10</ele>
        <time>2018-07-18T11:44:25Z</time>
      </trkpt>
      <trkpt lat="47.79169" lon="-3.70808">
        <ele>10</ele>
        <time>2018-07-18T11:44:26Z</time>
      </trkpt>
      <trkpt lat="47.79168" lon="-3.70808">
        <ele>10</ele>
        <time>2018-07-18T11:44:27Z</time>
      </trkpt>
      <trkpt lat="47.79167" lon="-3.70808">
        <ele>11</ele>
        <time>2018-07-18T11:44:28Z</time>
      </trkpt>
      <trkpt lat="47.79167" lon="-3.70807">
        <ele>11</ele>
        <time>2018-07-18T11:44:29Z</time>
      </trkpt>
      <trkpt lat="47.79167" lon="-3.70808">
        <ele>11</ele>
        <time>2018-07-18T11:44:30Z</time>
      </trkpt>
      <trkpt lat="47.79166" lon="-3.70808">
        <ele>11</ele>
        <time>2018-07-18T11:44:31Z</time>
      </trkpt>
      <trkpt lat="47.79166" lon="-3.70808">
        <ele>11</ele>
        <time>2018-07-18T11:44:32Z</time>
      </trkpt>
      <trkpt lat="47.79165" lon="-3.70808">
        <ele>10</ele>
        <time>2018-07-18T11:44:33Z</time>
      </trkpt>
      <trkpt lat="47.79164" lon="-3.70808">
        <ele>10</ele>
        <time>2018-07-18T11:44:34Z</time>
      </trkpt>
      <trkpt lat="47.79162" lon="-3.70808">
        <ele>10</ele>
        <time>2018-07-18T11:44:35Z</time>
      </trkpt>
      <trkpt lat="47.7916" lon="-3.70809">
        <ele>10</ele>
        <time>2018-07-18T11:44:36Z</time>
      </trkpt>
      <trkpt lat="47.79158" lon="-3.70811">
        <ele>10</ele>
        <time>2018-07-18T11:44:37Z</time>
      </trkpt>
      <trkpt lat="47.79156" lon="-3.70813">
        <ele>10</ele>
        <time>2018-07-18T11:44:38Z</time>
      </trkpt>
      <trkpt lat="47.79154" lon="-3.70816">
        <ele>10</ele>
        <time>2018-07-18T11:44:39Z</time>
      </trkpt>
      <trkpt lat="47.79151" lon="-3.70818">
        <ele>10</ele>
        <time>2018-07-18T11:44:40Z</time>
      </trkpt>
      <trkpt lat="47.79149" lon="-3.7082">
        <ele>10</ele>
        <time>2018-07-18T11:44:41Z</time>
      </trkpt>
      <trkpt lat="47.79145" lon="-3.70821">
        <ele>10</ele>
        <time>2018-07-18T11:44:42Z</time>
      </trkpt>
      <trkpt lat="47.79142" lon="-3.70822">
        <ele>10</ele>
        <time>2018-07-18T11:44:43Z</time>
      </trkpt>
      <trkpt lat="47.79139" lon="-3.70823">
        <ele>10</ele>
        <time>2018-07-18T11:44:44Z</time>
      </trkpt>
      <trkpt lat="47.79136" lon="-3.70823">
        <ele>9</ele>
        <time>2018-07-18T11:44:45Z</time>
      </trkpt>
      <trkpt lat="47.79132" lon="-3.70824">
        <ele>9</ele>
        <time>2018-07-18T11:44:46Z</time>
      </trkpt>
      <trkpt lat="47.79128" lon="-3.70824">
        <ele>9</ele>
        <time>2018-07-18T11:44:47Z</time>
      </trkpt>
      <trkpt lat="47.79124" lon="-3.70824">
        <ele>9</ele>
        <time>2018-07-18T11:44:48Z</time>
      </trkpt>
      <trkpt lat="47.7912" lon="-3.70824">
        <ele>9</ele>
        <time>2018-07-18T11:44:49Z</time>
      </trkpt>
      <trkpt lat="47.79117" lon="-3.70822">
        <ele>9</ele>
        <time>2018-07-18T11:44:50Z</time>
      </trkpt>
      <trkpt lat="47.79113" lon="-3.7082">
        <ele>9</ele>
        <time>2018-07-18T11:44:51Z</time>
      </trkpt>
      <trkpt lat="47.79109" lon="-3.70818">
        <ele>9</ele>
        <time>2018-07-18T11:44:52Z</time>
      </trkpt>
      <trkpt lat="47.79106" lon="-3.70816">
        <ele>9</ele>
        <time>2018-07-18T11:44:53Z</time>
      </trkpt>
      <trkpt lat="47.79104" lon="-3.70813">
        <ele>9</ele>
        <time>2018-07-18T11:44:54Z</time>
      </trkpt>
      <trkpt lat="47.79102" lon="-3.70811">
        <ele>9</ele>
        <time>2018-07-18T11:44:55Z</time>
      </trkpt>
      <trkpt lat="47.791" lon="-3.70808">
        <ele>9</ele>
        <time>2018-07-18T11:44:56Z</time>
      </trkpt>
      <trkpt lat="47.79098" lon="-3.70805">
        <ele>9</ele>
        <time>2018-07-18T11:44:57Z</time>
      </trkpt>
      <trkpt lat="47.79097" lon="-3.70802">
        <ele>9</ele>
        <time>2018-07-18T11:44:58Z</time>
      </trkpt>
      <trkpt lat="47.79096" lon="-3.70798">
        <ele>10</ele>
        <time>2018-07-18T11:44:59Z</time>
      </trkpt>
      <trkpt lat="47.79094" lon="-3.70795">
        <ele>10</ele>
        <time>2018-07-18T11:45:00Z</time>
      </trkpt>
      <trkpt lat="47.79093" lon="-3.70791">
        <ele>10</ele>
        <time>2018-07-18T11:45:01Z</time>
      </trkpt>
      <trkpt lat="47.79091" lon="-3.70787">
        <ele>10</ele>
        <time>2018-07-18T11:45:02Z</time>
      </trkpt>
      <trkpt lat="47.79089" lon="-3.70783">
        <ele>10</ele>
        <time>2018-07-18T11:45:03Z</time>
      </trkpt>
      <trkpt lat="47.79088" lon="-3.70778">
        <ele>10</ele>
        <time>2018-07-18T11:45:04Z</time>
      </trkpt>
      <trkpt lat="47.79086" lon="-3.70774">
        <ele>10</ele>
        <time>2018-07-18T11:45:05Z</time>
      </trkpt>
      <trkpt lat="47.79085" lon="-3.70769">
        <ele>10</ele>
        <time>2018-07-18T11:45:06Z</time>
      </trkpt>
      <trkpt lat="47.79084" lon="-3.70765">
        <ele>10</ele>
        <time>2018-07-18T11:45:07Z</time>
      </trkpt>
      <trkpt lat="47.79082" lon="-3.7076">
        <ele>10</ele>
        <time>2018-07-18T11:45:08Z</time>
      </trkpt>
      <trkpt lat="47.79081" lon="-3.70756">
        <ele>11</ele>
        <time>2018-07-18T11:45:09Z</time>
      </trkpt>
      <trkpt lat="47.79079" lon="-3.70751">
        <ele>11</ele>
        <time>2018-07-18T11:45:10Z</time>
      </trkpt>
      <trkpt lat="47.79077" lon="-3.70747">
        <ele>11</ele>
        <time>2018-07-18T11:45:11Z</time>
      </trkpt>
      <trkpt lat="47.79075" lon="-3.70742">
        <ele>11</ele>
        <time>2018-07-18T11:45:12Z</time>
      </trkpt>
      <trkpt lat="47.79075" lon="-3.70737">
        <ele>11</ele>
        <time>2018-07-18T11:45:13Z</time>
      </trkpt>
      <trkpt lat="47.79075" lon="-3.70732">
        <ele>11</ele>
        <time>2018-07-18T11:45:14Z</time>
      </trkpt>
      <trkpt lat="47.79075" lon="-3.70727">
        <ele>11</ele>
        <time>2018-07-18T11:45:15Z</time>
      </trkpt>
      <trkpt lat="47.79075" lon="-3.70722">
        <ele>11</ele>
        <time>2018-07-18T11:45:16Z</time>
      </trkpt>
      <trkpt lat="47.79076" lon="-3.70716">
        <ele>11</ele>
        <time>2018-07-18T11:45:17Z</time>
      </trkpt>
      <trkpt lat="47.79076" lon="-3.70711">
        <ele>11</ele>
        <time>2018-07-18T11:45:18Z</time>
      </trkpt>
      <trkpt lat="47.79076" lon="-3.70705">
        <ele>11</ele>
        <time>2018-07-18T11:45:19Z</time>
      </trkpt>
      <trkpt lat="47.79076" lon="-3.70699">
        <ele>11</ele>
        <time>2018-07-18T11:45:20Z</time>
      </trkpt>
      <trkpt lat="47.79076" lon="-3.70693">
        <ele>12</ele>
        <time>2018-07-18T11:45:21Z</time>
      </trkpt>
      <trkpt lat="47.79077" lon="-3.70687">
        <ele>12</ele>
        <time>2018-07-18T11:45:22Z</time>
      </trkpt>
      <trkpt lat="47.79077" lon="-3.70681">
        <ele>12</ele>
        <time>2018-07-18T11:45:23Z</time>
      </trkpt>
      <trkpt lat="47.79077" lon="-3.70675">
        <ele>12</ele>
        <time>2018-07-18T11:45:24Z</time>
      </trkpt>
      <trkpt lat="47.79077" lon="-3.7067">
        <ele>12</ele>
        <time>2018-07-18T11:45:25Z</time>
      </trkpt>
      <trkpt lat="47.79076" lon="-3.70665">
        <ele>12</ele>
        <time>2018-07-18T11:45:26Z</time>
      </trkpt>
      <trkpt lat="47.79075" lon="-3.70659">
        <ele>12</ele>
        <time>2018-07-18T11:45:27Z</time>
      </trkpt>
      <trkpt lat="47.79073" lon="-3.70653">
        <ele>12</ele>
        <time>2018-07-18T11:45:28Z</time>
      </trkpt>
      <trkpt lat="47.79072" lon="-3.70647">
        <ele>11</ele>
        <time>2018-07-18T11:45:29Z</time>
      </trkpt>
      <trkpt lat="47.7907" lon="-3.70642">
        <ele>11</ele>
        <time>2018-07-18T11:45:30Z</time>
      </trkpt>
      <trkpt lat="47.79067" lon="-3.70637">
        <ele>11</ele>
        <time>2018-07-18T11:45:31Z</time>
      </trkpt>
      <trkpt lat="47.79064" lon="-3.70633">
        <ele>11</ele>
        <time>2018-07-18T11:45:32Z</time>
      </trkpt>
      <trkpt lat="47.7906" lon="-3.70628">
        <ele>10</ele>
        <time>2018-07-18T11:45:33Z</time>
      </trkpt>
      <trkpt lat="47.79057" lon="-3.70624">
        <ele>10</ele>
        <time>2018-07-18T11:45:34Z</time>
      </trkpt>
      <trkpt lat="47.79054" lon="-3.70619">
        <ele>10</ele>
        <time>2018-07-18T11:45:35Z</time>
      </trkpt>
      <trkpt lat="47.79052" lon="-3.70614">
        <ele>9</ele>
        <time>2018-07-18T11:45:36Z</time>
      </trkpt>
      <trkpt lat="47.79051" lon="-3.70608">
        <ele>9</ele>
        <time>2018-07-18T11:45:37Z</time>
      </trkpt>
      <trkpt lat="47.79051" lon="-3.70604">
        <ele>8</ele>
        <time>2018-07-18T11:45:38Z</time>
      </trkpt>
      <trkpt lat="47.79053" lon="-3.70601">
        <ele>8</ele>
        <time>2018-07-18T11:45:39Z</time>
      </trkpt>
      <trkpt lat="47.79055" lon="-3.70597">
        <ele>8</ele>
        <time>2018-07-18T11:45:40Z</time>
      </trkpt>
      <trkpt lat="47.79058" lon="-3.70592">
        <ele>8</ele>
        <time>2018-07-18T11:45:41Z</time>
      </trkpt>
      <trkpt lat="47.7906" lon="-3.70587">
        <ele>8</ele>
        <time>2018-07-18T11:45:42Z</time>
      </trkpt>
      <trkpt lat="47.79062" lon="-3.70581">
        <ele>7</ele>
        <time>2018-07-18T11:45:43Z</time>
      </trkpt>
      <trkpt lat="47.79065" lon="-3.70575">
        <ele>7</ele>
        <time>2018-07-18T11:45:44Z</time>
      </trkpt>
      <trkpt lat="47.79066" lon="-3.70569">
        <ele>7</ele>
        <time>2018-07-18T11:45:45Z</time>
      </trkpt>
      <trkpt lat="47.79066" lon="-3.70564">
        <ele>7</ele>
        <time>2018-07-18T11:45:46Z</time>
      </trkpt>
      <trkpt lat="47.79065" lon="-3.70559">
        <ele>7</ele>
        <time>2018-07-18T11:45:47Z</time>
      </trkpt>
      <trkpt lat="47.79063" lon="-3.70555">
        <ele>7</ele>
        <time>2018-07-18T11:45:48Z</time>
      </trkpt>
      <trkpt lat="47.79062" lon="-3.7055">
        <ele>7</ele>
        <time>2018-07-18T11:45:49Z</time>
      </trkpt>
      <trkpt lat="47.7906" lon="-3.70546">
        <ele>7</ele>
        <time>2018-07-18T11:45:50Z</time>
      </trkpt>
      <trkpt lat="47.79058" lon="-3.70544">
        <ele>7</ele>
        <time>2018-07-18T11:45:51Z</time>
      </trkpt>
      <trkpt lat="47.79055" lon="-3.70544">
        <ele>7</ele>
        <time>2018-07-18T11:45:52Z</time>
      </trkpt>
      <trkpt lat="47.79052" lon="-3.70545">
        <ele>7</ele>
        <time>2018-07-18T11:45:53Z</time>
      </trkpt>
      <trkpt lat="47.79049" lon="-3.70545">
        <ele>7</ele>
        <time>2018-07-18T11:45:54Z</time>
      </trkpt>
      <trkpt lat="47.79046" lon="-3.70546">
        <ele>7</ele>
        <time>2018-07-18T11:45:55Z</time>
      </trkpt>
      <trkpt lat="47.79042" lon="-3.70546">
        <ele>7</ele>
        <time>2018-07-18T11:45:56Z</time>
      </trkpt>
      <trkpt lat="47.79039" lon="-3.70546">
        <ele>7</ele>
        <time>2018-07-18T11:45:57Z</time>
      </trkpt>
      <trkpt lat="47.79036" lon="-3.70546">
        <ele>7</ele>
        <time>2018-07-18T11:45:58Z</time>
      </trkpt>
      <trkpt lat="47.79033" lon="-3.70546">
        <ele>7</ele>
        <time>2018-07-18T11:45:59Z</time>
      </trkpt>
      <trkpt lat="47.7903" lon="-3.70545">
        <ele>7</ele>
        <time>2018-07-18T11:46:00Z</time>
      </trkpt>
      <trkpt lat="47.79029" lon="-3.70545">
        <ele>7</ele>
        <time>2018-07-18T11:46:01Z</time>
      </trkpt>
      <trkpt lat="47.79027" lon="-3.70545">
        <ele>8</ele>
        <time>2018-07-18T11:46:02Z</time>
      </trkpt>
      <trkpt lat="47.79026" lon="-3.70545">
        <ele>8</ele>
        <time>2018-07-18T11:46:03Z</time>
      </trkpt>
      <trkpt lat="47.79024" lon="-3.70543">
        <ele>8</ele>
        <time>2018-07-18T11:46:04Z</time>
      </trkpt>
      <trkpt lat="47.79023" lon="-3.70542">
        <ele>8</ele>
        <time>2018-07-18T11:46:05Z</time>
      </trkpt>
      <trkpt lat="47.79022" lon="-3.7054">
        <ele>9</ele>
        <time>2018-07-18T11:46:06Z</time>
      </trkpt>
      <trkpt lat="47.7902" lon="-3.70539">
        <ele>9</ele>
        <time>2018-07-18T11:46:07Z</time>
      </trkpt>
      <trkpt lat="47.79019" lon="-3.70539">
        <ele>9</ele>
        <time>2018-07-18T11:46:08Z</time>
      </trkpt>
      <trkpt lat="47.79018" lon="-3.70539">
        <ele>9</ele>
        <time>2018-07-18T11:46:09Z</time>
      </trkpt>
      <trkpt lat="47.79017" lon="-3.7054">
        <ele>9</ele>
        <time>2018-07-18T11:46:10Z</time>
      </trkpt>
      <trkpt lat="47.79016" lon="-3.70541">
        <ele>10</ele>
        <time>2018-07-18T11:46:11Z</time>
      </trkpt>
      <trkpt lat="47.79015" lon="-3.70541">
        <ele>10</ele>
        <time>2018-07-18T11:46:12Z</time>
      </trkpt>
      <trkpt lat="47.79014" lon="-3.70541">
        <ele>10</ele>
        <time>2018-07-18T11:46:13Z</time>
      </trkpt>
      <trkpt lat="47.79013" lon="-3.70542">
        <ele>10</ele>
        <time>2018-07-18T11:46:14Z</time>
      </trkpt>
      <trkpt lat="47.79011" lon="-3.70542">
        <ele>10</ele>
        <time>2018-07-18T11:46:15Z</time>
      </trkpt>
      <trkpt lat="47.79009" lon="-3.70542">
        <ele>10</ele>
        <time>2018-07-18T11:46:16Z</time>
      </trkpt>
      <trkpt lat="47.79006" lon="-3.70543">
        <ele>10</ele>
        <time>2018-07-18T11:46:17Z</time>
      </trkpt>
      <trkpt lat="47.79003" lon="-3.70542">
        <ele>10</ele>
        <time>2018-07-18T11:46:18Z</time>
      </trkpt>
      <trkpt lat="47.79001" lon="-3.70542">
        <ele>10</ele>
        <time>2018-07-18T11:46:19Z</time>
      </trkpt>
      <trkpt lat="47.78999" lon="-3.7054">
        <ele>10</ele>
        <time>2018-07-18T11:46:20Z</time>
      </trkpt>
      <trkpt lat="47.78996" lon="-3.70538">
        <ele>10</ele>
        <time>2018-07-18T11:46:21Z</time>
      </trkpt>
      <trkpt lat="47.78994" lon="-3.70536">
        <ele>10</ele>
        <time>2018-07-18T11:46:22Z</time>
      </trkpt>
      <trkpt lat="47.78993" lon="-3.70534">
        <ele>10</ele>
        <time>2018-07-18T11:46:23Z</time>
      </trkpt>
      <trkpt lat="47.78991" lon="-3.70531">
        <ele>11</ele>
        <time>2018-07-18T11:46:24Z</time>
      </trkpt>
      <trkpt lat="47.7899" lon="-3.70527">
        <ele>11</ele>
        <time>2018-07-18T11:46:25Z</time>
      </trkpt>
      <trkpt lat="47.78989" lon="-3.70524">
        <ele>11</ele>
        <time>2018-07-18T11:46:26Z</time>
      </trkpt>
      <trkpt lat="47.78989" lon="-3.7052">
        <ele>11</ele>
        <time>2018-07-18T11:46:27Z</time>
      </trkpt>
      <trkpt lat="47.78988" lon="-3.70517">
        <ele>11</ele>
        <time>2018-07-18T11:46:28Z</time>
      </trkpt>
      <trkpt lat="47.78987" lon="-3.70513">
        <ele>12</ele>
        <time>2018-07-18T11:46:29Z</time>
      </trkpt>
      <trkpt lat="47.78987" lon="-3.7051">
        <ele>12</ele>
        <time>2018-07-18T11:46:30Z</time>
      </trkpt>
      <trkpt lat="47.78986" lon="-3.70506">
        <ele>12</ele>
        <time>2018-07-18T11:46:31Z</time>
      </trkpt>
      <trkpt lat="47.78985" lon="-3.70502">
        <ele>12</ele>
        <time>2018-07-18T11:46:32Z</time>
      </trkpt>
      <trkpt lat="47.78985" lon="-3.70498">
        <ele>13</ele>
        <time>2018-07-18T11:46:33Z</time>
      </trkpt>
      <trkpt lat="47.78984" lon="-3.70494">
        <ele>13</ele>
        <time>2018-07-18T11:46:34Z</time>
      </trkpt>
      <trkpt lat="47.78983" lon="-3.7049">
        <ele>13</ele>
        <time>2018-07-18T11:46:35Z</time>
      </trkpt>
      <trkpt lat="47.78981" lon="-3.70486">
        <ele>13</ele>
        <time>2018-07-18T11:46:36Z</time>
      </trkpt>
      <trkpt lat="47.7898" lon="-3.70483">
        <ele>14</ele>
        <time>2018-07-18T11:46:37Z</time>
      </trkpt>
      <trkpt lat="47.78978" lon="-3.7048">
        <ele>14</ele>
        <time>2018-07-18T11:46:38Z</time>
      </trkpt>
      <trkpt lat="47.78976" lon="-3.70476">
        <ele>14</ele>
        <time>2018-07-18T11:46:39Z</time>
      </trkpt>
      <trkpt lat="47.78974" lon="-3.70473">
        <ele>14</ele>
        <time>2018-07-18T11:46:40Z</time>
      </trkpt>
      <trkpt lat="47.78972" lon="-3.7047">
        <ele>14</ele>
        <time>2018-07-18T11:46:41Z</time>
      </trkpt>
      <trkpt lat="47.7897" lon="-3.70466">
        <ele>15</ele>
        <time>2018-07-18T11:46:42Z</time>
      </trkpt>
      <trkpt lat="47.78969" lon="-3.70462">
        <ele>15</ele>
        <time>2018-07-18T11:46:43Z</time>
      </trkpt>
      <trkpt lat="47.78967" lon="-3.70459">
        <ele>15</ele>
        <time>2018-07-18T11:46:44Z</time>
      </trkpt>
      <trkpt lat="47.78966" lon="-3.70455">
        <ele>15</ele>
        <time>2018-07-18T11:46:45Z</time>
      </trkpt>
      <trkpt lat="47.78964" lon="-3.70451">
        <ele>16</ele>
        <time>2018-07-18T11:46:46Z</time>
      </trkpt>
      <trkpt lat="47.78963" lon="-3.70447">
        <ele>16</ele>
        <time>2018-07-18T11:46:47Z</time>
      </trkpt>
      <trkpt lat="47.78961" lon="-3.70443">
        <ele>16</ele>
        <time>2018-07-18T11:46:48Z</time>
      </trkpt>
      <trkpt lat="47.7896" lon="-3.7044">
        <ele>16</ele>
        <time>2018-07-18T11:46:49Z</time>
      </trkpt>
      <trkpt lat="47.78958" lon="-3.70436">
        <ele>17</ele>
        <time>2018-07-18T11:46:50Z</time>
      </trkpt>
      <trkpt lat="47.78957" lon="-3.70432">
        <ele>17</ele>
        <time>2018-07-18T11:46:51Z</time>
      </trkpt>
      <trkpt lat="47.78955" lon="-3.70429">
        <ele>17</ele>
        <time>2018-07-18T11:46:52Z</time>
      </trkpt>
      <trkpt lat="47.78954" lon="-3.70425">
        <ele>17</ele>
        <time>2018-07-18T11:46:53Z</time>
      </trkpt>
      <trkpt lat="47.78952" lon="-3.70421">
        <ele>18</ele>
        <time>2018-07-18T11:46:54Z</time>
      </trkpt>
      <trkpt lat="47.78951" lon="-3.70418">
        <ele>18</ele>
        <time>2018-07-18T11:46:55Z</time>
      </trkpt>
      <trkpt lat="47.78949" lon="-3.70414">
        <ele>18</ele>
        <time>2018-07-18T11:46:56Z</time>
      </trkpt>
      <trkpt lat="47.78947" lon="-3.70411">
        <ele>19</ele>
        <time>2018-07-18T11:46:57Z</time>
      </trkpt>
      <trkpt lat="47.78945" lon="-3.70408">
        <ele>19</ele>
        <time>2018-07-18T11:46:58Z</time>
      </trkpt>
      <trkpt lat="47.78944" lon="-3.70405">
        <ele>19</ele>
        <time>2018-07-18T11:46:59Z</time>
      </trkpt>
      <trkpt lat="47.78941" lon="-3.70403">
        <ele>19</ele>
        <time>2018-07-18T11:47:00Z</time>
      </trkpt>
      <trkpt lat="47.78939" lon="-3.70401">
        <ele>19</ele>
        <time>2018-07-18T11:47:01Z</time>
      </trkpt>
      <trkpt lat="47.78937" lon="-3.70398">
        <ele>19</ele>
        <time>2018-07-18T11:47:02Z</time>
      </trkpt>
      <trkpt lat="47.78935" lon="-3.70395">
        <ele>19</ele>
        <time>2018-07-18T11:47:03Z</time>
      </trkpt>
      <trkpt lat="47.78934" lon="-3.70392">
        <ele>19</ele>
        <time>2018-07-18T11:47:04Z</time>
      </trkpt>
      <trkpt lat="47.78933" lon="-3.7039">
        <ele>19</ele>
        <time>2018-07-18T11:47:05Z</time>
      </trkpt>
      <trkpt lat="47.78933" lon="-3.70389">
        <ele>19</ele>
        <time>2018-07-18T11:47:06Z</time>
      </trkpt>
      <trkpt lat="47.78933" lon="-3.70388">
        <ele>19</ele>
        <time>2018-07-18T11:47:07Z</time>
      </trkpt>
      <trkpt lat="47.78933" lon="-3.70388">
        <ele>19</ele>
        <time>2018-07-18T11:47:08Z</time>
      </trkpt>
      <trkpt lat="47.78933" lon="-3.70388">
        <ele>19</ele>
        <time>2018-07-18T11:47:09Z</time>
      </trkpt>
      <trkpt lat="47.78932" lon="-3.70388">
        <ele>19</ele>
        <time>2018-07-18T11:47:10Z</time>
      </trkpt>
      <trkpt lat="47.78932" lon="-3.70387">
        <ele>19</ele>
        <time>2018-07-18T11:47:11Z</time>
      </trkpt>
      <trkpt lat="47.78931" lon="-3.70386">
        <ele>19</ele>
        <time>2018-07-18T11:47:12Z</time>
      </trkpt>
      <trkpt lat="47.7893" lon="-3.70384">
        <ele>19</ele>
        <time>2018-07-18T11:47:13Z</time>
      </trkpt>
      <trkpt lat="47.78928" lon="-3.70382">
        <ele>19</ele>
        <time>2018-07-18T11:47:14Z</time>
      </trkpt>
      <trkpt lat="47.78927" lon="-3.7038">
        <ele>19</ele>
        <time>2018-07-18T11:47:15Z</time>
      </trkpt>
      <trkpt lat="47.78925" lon="-3.70378">
        <ele>19</ele>
        <time>2018-07-18T11:47:16Z</time>
      </trkpt>
      <trkpt lat="47.78923" lon="-3.70377">
        <ele>19</ele>
        <time>2018-07-18T11:47:17Z</time>
      </trkpt>
      <trkpt lat="47.78921" lon="-3.70375">
        <ele>19</ele>
        <time>2018-07-18T11:47:18Z</time>
      </trkpt>
      <trkpt lat="47.78918" lon="-3.70374">
        <ele>19</ele>
        <time>2018-07-18T11:47:19Z</time>
      </trkpt>
      <trkpt lat="47.78916" lon="-3.70372">
        <ele>18</ele>
        <time>2018-07-18T11:47:20Z</time>
      </trkpt>
      <trkpt lat="47.78914" lon="-3.70372">
        <ele>18</ele>
        <time>2018-07-18T11:47:21Z</time>
      </trkpt>
      <trkpt lat="47.78912" lon="-3.70369">
        <ele>18</ele>
        <time>2018-07-18T11:47:22Z</time>
      </trkpt>
      <trkpt lat="47.78911" lon="-3.70366">
        <ele>18</ele>
        <time>2018-07-18T11:47:23Z</time>
      </trkpt>
      <trkpt lat="47.78909" lon="-3.70363">
        <ele>18</ele>
        <time>2018-07-18T11:47:24Z</time>
      </trkpt>
      <trkpt lat="47.78907" lon="-3.7036">
        <ele>17</ele>
        <time>2018-07-18T11:47:25Z</time>
      </trkpt>
      <trkpt lat="47.78905" lon="-3.70357">
        <ele>17</ele>
        <time>2018-07-18T11:47:26Z</time>
      </trkpt>
      <trkpt lat="47.78901" lon="-3.70355">
        <ele>17</ele>
        <time>2018-07-18T11:47:27Z</time>
      </trkpt>
      <trkpt lat="47.78899" lon="-3.70353">
        <ele>17</ele>
        <time>2018-07-18T11:47:28Z</time>
      </trkpt>
      <trkpt lat="47.78896" lon="-3.70351">
        <ele>16</ele>
        <time>2018-07-18T11:47:29Z</time>
      </trkpt>
      <trkpt lat="47.78893" lon="-3.70349">
        <ele>16</ele>
        <time>2018-07-18T11:47:30Z</time>
      </trkpt>
      <trkpt lat="47.7889" lon="-3.70346">
        <ele>16</ele>
        <time>2018-07-18T11:47:31Z</time>
      </trkpt>
      <trkpt lat="47.78887" lon="-3.70342">
        <ele>16</ele>
        <time>2018-07-18T11:47:32Z</time>
      </trkpt>
      <trkpt lat="47.78885" lon="-3.70337">
        <ele>15</ele>
        <time>2018-07-18T11:47:33Z</time>
      </trkpt>
      <trkpt lat="47.78883" lon="-3.70331">
        <ele>15</ele>
        <time>2018-07-18T11:47:34Z</time>
      </trkpt>
      <trkpt lat="47.78882" lon="-3.70326">
        <ele>15</ele>
        <time>2018-07-18T11:47:35Z</time>
      </trkpt>
      <trkpt lat="47.7888" lon="-3.70322">
        <ele>15</ele>
        <time>2018-07-18T11:47:36Z</time>
      </trkpt>
      <trkpt lat="47.78879" lon="-3.70317">
        <ele>15</ele>
        <time>2018-07-18T11:47:37Z</time>
      </trkpt>
      <trkpt lat="47.78877" lon="-3.70313">
        <ele>15</ele>
        <time>2018-07-18T11:47:38Z</time>
      </trkpt>
      <trkpt lat="47.78875" lon="-3.70309">
        <ele>15</ele>
        <time>2018-07-18T11:47:39Z</time>
      </trkpt>
      <trkpt lat="47.78874" lon="-3.70304">
        <ele>14</ele>
        <time>2018-07-18T11:47:40Z</time>
      </trkpt>
      <trkpt lat="47.78872" lon="-3.70299">
        <ele>14</ele>
        <time>2018-07-18T11:47:41Z</time>
      </trkpt>
      <trkpt lat="47.78872" lon="-3.70294">
        <ele>14</ele>
        <time>2018-07-18T11:47:42Z</time>
      </trkpt>
      <trkpt lat="47.78871" lon="-3.70288">
        <ele>14</ele>
        <time>2018-07-18T11:47:43Z</time>
      </trkpt>
      <trkpt lat="47.78871" lon="-3.70283">
        <ele>15</ele>
        <time>2018-07-18T11:47:44Z</time>
      </trkpt>
      <trkpt lat="47.7887" lon="-3.70277">
        <ele>15</ele>
        <time>2018-07-18T11:47:45Z</time>
      </trkpt>
      <trkpt lat="47.7887" lon="-3.70272">
        <ele>15</ele>
        <time>2018-07-18T11:47:46Z</time>
      </trkpt>
      <trkpt lat="47.78869" lon="-3.70266">
        <ele>15</ele>
        <time>2018-07-18T11:47:47Z</time>
      </trkpt>
      <trkpt lat="47.78867" lon="-3.7026">
        <ele>15</ele>
        <time>2018-07-18T11:47:48Z</time>
      </trkpt>
      <trkpt lat="47.78866" lon="-3.70255">
        <ele>15</ele>
        <time>2018-07-18T11:47:49Z</time>
      </trkpt>
      <trkpt lat="47.78864" lon="-3.70249">
        <ele>15</ele>
        <time>2018-07-18T11:47:50Z</time>
      </trkpt>
      <trkpt lat="47.78863" lon="-3.70243">
        <ele>15</ele>
        <time>2018-07-18T11:47:51Z</time>
      </trkpt>
      <trkpt lat="47.78861" lon="-3.70238">
        <ele>15</ele>
        <time>2018-07-18T11:47:52Z</time>
      </trkpt>
      <trkpt lat="47.78859" lon="-3.70233">
        <ele>15</ele>
        <time>2018-07-18T11:47:53Z</time>
      </trkpt>
      <trkpt lat="47.78857" lon="-3.70227">
        <ele>15</ele>
        <time>2018-07-18T11:47:54Z</time>
      </trkpt>
      <trkpt lat="47.78855" lon="-3.70223">
        <ele>15</ele>
        <time>2018-07-18T11:47:55Z</time>
      </trkpt>
      <trkpt lat="47.78851" lon="-3.70218">
        <ele>15</ele>
        <time>2018-07-18T11:47:56Z</time>
      </trkpt>
      <trkpt lat="47.78848" lon="-3.70213">
        <ele>15</ele>
        <time>2018-07-18T11:47:57Z</time>
      </trkpt>
      <trkpt lat="47.78845" lon="-3.70207">
        <ele>14</ele>
        <time>2018-07-18T11:47:58Z</time>
      </trkpt>
      <trkpt lat="47.78841" lon="-3.70201">
        <ele>14</ele>
        <time>2018-07-18T11:47:59Z</time>
      </trkpt>
      <trkpt lat="47.78838" lon="-3.70195">
        <ele>14</ele>
        <time>2018-07-18T11:48:00Z</time>
      </trkpt>
      <trkpt lat="47.78835" lon="-3.7019">
        <ele>14</ele>
        <time>2018-07-18T11:48:01Z</time>
      </trkpt>
      <trkpt lat="47.78833" lon="-3.70186">
        <ele>14</ele>
        <time>2018-07-18T11:48:02Z</time>
      </trkpt>
      <trkpt lat="47.78831" lon="-3.70184">
        <ele>14</ele>
        <time>2018-07-18T11:48:03Z</time>
      </trkpt>
      <trkpt lat="47.7883" lon="-3.70181">
        <ele>13</ele>
        <time>2018-07-18T11:48:04Z</time>
      </trkpt>
      <trkpt lat="47.78829" lon="-3.70178">
        <ele>13</ele>
        <time>2018-07-18T11:48:05Z</time>
      </trkpt>
      <trkpt lat="47.78829" lon="-3.70176">
        <ele>13</ele>
        <time>2018-07-18T11:48:06Z</time>
      </trkpt>
      <trkpt lat="47.78828" lon="-3.70175">
        <ele>13</ele>
        <time>2018-07-18T11:48:07Z</time>
      </trkpt>
      <trkpt lat="47.78828" lon="-3.70174">
        <ele>13</ele>
        <time>2018-07-18T11:48:08Z</time>
      </trkpt>
      <trkpt lat="47.78828" lon="-3.70173">
        <ele>13</ele>
        <time>2018-07-18T11:48:09Z</time>
      </trkpt>
      <trkpt lat="47.78828" lon="-3.70172">
        <ele>13</ele>
        <time>2018-07-18T11:48:10Z</time>
      </trkpt>
      <trkpt lat="47.78829" lon="-3.7017">
        <ele>13</ele>
        <time>2018-07-18T11:48:11Z</time>
      </trkpt>
      <trkpt lat="47.7883" lon="-3.70167">
        <ele>13</ele>
        <time>2018-07-18T11:48:12Z</time>
      </trkpt>
      <trkpt lat="47.78831" lon="-3.70164">
        <ele>13</ele>
        <time>2018-07-18T11:48:13Z</time>
      </trkpt>
      <trkpt lat="47.7883" lon="-3.70159">
        <ele>13</ele>
        <time>2018-07-18T11:48:14Z</time>
      </trkpt>
      <trkpt lat="47.78829" lon="-3.70155">
        <ele>13</ele>
        <time>2018-07-18T11:48:15Z</time>
      </trkpt>
      <trkpt lat="47.78829" lon="-3.7015">
        <ele>13</ele>
        <time>2018-07-18T11:48:16Z</time>
      </trkpt>
      <trkpt lat="47.78827" lon="-3.70145">
        <ele>13</ele>
        <time>2018-07-18T11:48:17Z</time>
      </trkpt>
      <trkpt lat="47.78826" lon="-3.70141">
        <ele>13</ele>
        <time>2018-07-18T11:48:18Z</time>
      </trkpt>
      <trkpt lat="47.78825" lon="-3.70136">
        <ele>14</ele>
        <time>2018-07-18T11:48:19Z</time>
      </trkpt>
      <trkpt lat="47.78824" lon="-3.70131">
        <ele>14</ele>
        <time>2018-07-18T11:48:20Z</time>
      </trkpt>
      <trkpt lat="47.78822" lon="-3.70126">
        <ele>14</ele>
        <time>2018-07-18T11:48:21Z</time>
      </trkpt>
      <trkpt lat="47.78821" lon="-3.70121">
        <ele>14</ele>
        <time>2018-07-18T11:48:22Z</time>
      </trkpt>
      <trkpt lat="47.7882" lon="-3.70116">
        <ele>14</ele>
        <time>2018-07-18T11:48:23Z</time>
      </trkpt>
      <trkpt lat="47.7882" lon="-3.70112">
        <ele>14</ele>
        <time>2018-07-18T11:48:24Z</time>
      </trkpt>
      <trkpt lat="47.78819" lon="-3.70106">
        <ele>14</ele>
        <time>2018-07-18T11:48:25Z</time>
      </trkpt>
      <trkpt lat="47.78818" lon="-3.70101">
        <ele>14</ele>
        <time>2018-07-18T11:48:26Z</time>
      </trkpt>
      <trkpt lat="47.78817" lon="-3.70095">
        <ele>14</ele>
        <time>2018-07-18T11:48:27Z</time>
      </trkpt>
      <trkpt lat="47.78816" lon="-3.7009">
        <ele>14</ele>
        <time>2018-07-18T11:48:28Z</time>
      </trkpt>
      <trkpt lat="47.78815" lon="-3.70084">
        <ele>14</ele>
        <time>2018-07-18T11:48:29Z</time>
      </trkpt>
      <trkpt lat="47.78815" lon="-3.70079">
        <ele>14</ele>
        <time>2018-07-18T11:48:30Z</time>
      </trkpt>
      <trkpt lat="47.78814" lon="-3.70074">
        <ele>14</ele>
        <time>2018-07-18T11:48:31Z</time>
      </trkpt>
      <trkpt lat="47.78813" lon="-3.70069">
        <ele>14</ele>
        <time>2018-07-18T11:48:32Z</time>
      </trkpt>
      <trkpt lat="47.78811" lon="-3.70064">
        <ele>14</ele>
        <time>2018-07-18T11:48:33Z</time>
      </trkpt>
      <trkpt lat="47.7881" lon="-3.7006">
        <ele>14</ele>
        <time>2018-07-18T11:48:34Z</time>
      </trkpt>
      <trkpt lat="47.78809" lon="-3.70057">
        <ele>14</ele>
        <time>2018-07-18T11:48:35Z</time>
      </trkpt>
      <trkpt lat="47.78809" lon="-3.70056">
        <ele>14</ele>
        <time>2018-07-18T11:48:36Z</time>
      </trkpt>
      <trkpt lat="47.78809" lon="-3.70056">
        <ele>15</ele>
        <time>2018-07-18T11:48:37Z</time>
      </trkpt>
      <trkpt lat="47.78808" lon="-3.70056">
        <ele>15</ele>
        <time>2018-07-18T11:48:38Z</time>
      </trkpt>
      <trkpt lat="47.78807" lon="-3.70057">
        <ele>15</ele>
        <time>2018-07-18T11:48:39Z</time>
      </trkpt>
      <trkpt lat="47.78805" lon="-3.70057">
        <ele>15</ele>
        <time>2018-07-18T11:48:40Z</time>
      </trkpt>
      <trkpt lat="47.78803" lon="-3.70057">
        <ele>15</ele>
        <time>2018-07-18T11:48:41Z</time>
      </trkpt>
      <trkpt lat="47.78801" lon="-3.70058">
        <ele>15</ele>
        <time>2018-07-18T11:48:42Z</time>
      </trkpt>
      <trkpt lat="47.78799" lon="-3.7006">
        <ele>15</ele>
        <time>2018-07-18T11:48:43Z</time>
      </trkpt>
      <trkpt lat="47.78796" lon="-3.70063">
        <ele>15</ele>
        <time>2018-07-18T11:48:44Z</time>
      </trkpt>
      <trkpt lat="47.78793" lon="-3.70066">
        <ele>15</ele>
        <time>2018-07-18T11:48:45Z</time>
      </trkpt>
      <trkpt lat="47.7879" lon="-3.70068">
        <ele>15</ele>
        <time>2018-07-18T11:48:46Z</time>
      </trkpt>
      <trkpt lat="47.78787" lon="-3.70069">
        <ele>15</ele>
        <time>2018-07-18T11:48:47Z</time>
      </trkpt>
      <trkpt lat="47.78783" lon="-3.70068">
        <ele>15</ele>
        <time>2018-07-18T11:48:48Z</time>
      </trkpt>
      <trkpt lat="47.7878" lon="-3.70066">
        <ele>15</ele>
        <time>2018-07-18T11:48:49Z</time>
      </trkpt>
      <trkpt lat="47.78776" lon="-3.70064">
        <ele>15</ele>
        <time>2018-07-18T11:48:50Z</time>
      </trkpt>
      <trkpt lat="47.78773" lon="-3.70062">
        <ele>15</ele>
        <time>2018-07-18T11:48:51Z</time>
      </trkpt>
      <trkpt lat="47.78769" lon="-3.7006">
        <ele>15</ele>
        <time>2018-07-18T11:48:52Z</time>
      </trkpt>
      <trkpt lat="47.78765" lon="-3.70057">
        <ele>15</ele>
        <time>2018-07-18T11:48:53Z</time>
      </trkpt>
      <trkpt lat="47.78761" lon="-3.70055">
        <ele>15</ele>
        <time>2018-07-18T11:48:54Z</time>
      </trkpt>
      <trkpt lat="47.78757" lon="-3.70053">
        <ele>15</ele>
        <time>2018-07-18T11:48:55Z</time>
      </trkpt>
      <trkpt lat="47.78753" lon="-3.70049">
        <ele>14</ele>
        <time>2018-07-18T11:48:56Z</time>
      </trkpt>
      <trkpt lat="47.7875" lon="-3.70045">
        <ele>14</ele>
        <time>2018-07-18T11:48:57Z</time>
      </trkpt>
      <trkpt lat="47.78747" lon="-3.7004">
        <ele>14</ele>
        <time>2018-07-18T11:48:58Z</time>
      </trkpt>
      <trkpt lat="47.78745" lon="-3.70035">
        <ele>14</ele>
        <time>2018-07-18T11:48:59Z</time>
      </trkpt>
      <trkpt lat="47.78742" lon="-3.7003">
        <ele>14</ele>
        <time>2018-07-18T11:49:00Z</time>
      </trkpt>
      <trkpt lat="47.78739" lon="-3.70026">
        <ele>14</ele>
        <time>2018-07-18T11:49:01Z</time>
      </trkpt>
      <trkpt lat="47.78737" lon="-3.70022">
        <ele>14</ele>
        <time>2018-07-18T11:49:02Z</time>
      </trkpt>
      <trkpt lat="47.78734" lon="-3.70018">
        <ele>14</ele>
        <time>2018-07-18T11:49:03Z</time>
      </trkpt>
      <trkpt lat="47.7873" lon="-3.70014">
        <ele>14</ele>
        <time>2018-07-18T11:49:04Z</time>
      </trkpt>
      <trkpt lat="47.78726" lon="-3.70011">
        <ele>14</ele>
        <time>2018-07-18T11:49:05Z</time>
      </trkpt>
      <trkpt lat="47.78721" lon="-3.70009">
        <ele>13</ele>
        <time>2018-07-18T11:49:06Z</time>
      </trkpt>
      <trkpt lat="47.78716" lon="-3.70007">
        <ele>13</ele>
        <time>2018-07-18T11:49:07Z</time>
      </trkpt>
      <trkpt lat="47.7871" lon="-3.70005">
        <ele>13</ele>
        <time>2018-07-18T11:49:08Z</time>
      </trkpt>
      <trkpt lat="47.78704" lon="-3.70003">
        <ele>12</ele>
        <time>2018-07-18T11:49:09Z</time>
      </trkpt>
      <trkpt lat="47.78698" lon="-3.70001">
        <ele>12</ele>
        <time>2018-07-18T11:49:10Z</time>
      </trkpt>
      <trkpt lat="47.78692" lon="-3.69999">
        <ele>12</ele>
        <time>2018-07-18T11:49:11Z</time>
      </trkpt>
      <trkpt lat="47.78687" lon="-3.69996">
        <ele>11</ele>
        <time>2018-07-18T11:49:12Z</time>
      </trkpt>
      <trkpt lat="47.78682" lon="-3.6999">
        <ele>11</ele>
        <time>2018-07-18T11:49:13Z</time>
      </trkpt>
      <trkpt lat="47.78678" lon="-3.69984">
        <ele>11</ele>
        <time>2018-07-18T11:49:14Z</time>
      </trkpt>
      <trkpt lat="47.78676" lon="-3.69976">
        <ele>10</ele>
        <time>2018-07-18T11:49:15Z</time>
      </trkpt>
      <trkpt lat="47.78675" lon="-3.6997">
        <ele>10</ele>
        <time>2018-07-18T11:49:16Z</time>
      </trkpt>
      <trkpt lat="47.78675" lon="-3.69964">
        <ele>10</ele>
        <time>2018-07-18T11:49:17Z</time>
      </trkpt>
      <trkpt lat="47.78674" lon="-3.69958">
        <ele>10</ele>
        <time>2018-07-18T11:49:18Z</time>
      </trkpt>
      <trkpt lat="47.78673" lon="-3.69952">
        <ele>10</ele>
        <time>2018-07-18T11:49:19Z</time>
      </trkpt>
      <trkpt lat="47.78671" lon="-3.69948">
        <ele>10</ele>
        <time>2018-07-18T11:49:20Z</time>
      </trkpt>
      <trkpt lat="47.78668" lon="-3.69944">
        <ele>10</ele>
        <time>2018-07-18T11:49:21Z</time>
      </trkpt>
      <trkpt lat="47.78665" lon="-3.69939">
        <ele>10</ele>
        <time>2018-07-18T11:49:22Z</time>
      </trkpt>
      <trkpt lat="47.78664" lon="-3.69933">
        <ele>9</ele>
        <time>2018-07-18T11:49:23Z</time>
      </trkpt>
      <trkpt lat="47.78663" lon="-3.69926">
        <ele>9</ele>
        <time>2018-07-18T11:49:24Z</time>
      </trkpt>
      <trkpt lat="47.78663" lon="-3.69919">
        <ele>9</ele>
        <time>2018-07-18T11:49:25Z</time>
      </trkpt>
      <trkpt lat="47.78664" lon="-3.69912">
        <ele>9</ele>
        <time>2018-07-18T11:49:26Z</time>
      </trkpt>
      <trkpt lat="47.78664" lon="-3.69906">
        <ele>9</ele>
        <time>2018-07-18T11:49:27Z</time>
      </trkpt>
      <trkpt lat="47.78665" lon="-3.69899">
        <ele>9</ele>
        <time>2018-07-18T11:49:28Z</time>
      </trkpt>
      <trkpt lat="47.78665" lon="-3.69893">
        <ele>9</ele>
        <time>2018-07-18T11:49:29Z</time>
      </trkpt>
      <trkpt lat="47.78665" lon="-3.69887">
        <ele>9</ele>
        <time>2018-07-18T11:49:30Z</time>
      </trkpt>
      <trkpt lat="47.78665" lon="-3.69881">
        <ele>9</ele>
        <time>2018-07-18T11:49:31Z</time>
      </trkpt>
      <trkpt lat="47.78664" lon="-3.69875">
        <ele>9</ele>
        <time>2018-07-18T11:49:32Z</time>
      </trkpt>
      <trkpt lat="47.78664" lon="-3.69869">
        <ele>9</ele>
        <time>2018-07-18T11:49:33Z</time>
      </trkpt>
      <trkpt lat="47.78663" lon="-3.69864">
        <ele>9</ele>
        <time>2018-07-18T11:49:34Z</time>
      </trkpt>
      <trkpt lat="47.78662" lon="-3.69858">
        <ele>9</ele>
        <time>2018-07-18T11:49:35Z</time>
      </trkpt>
      <trkpt lat="47.78659" lon="-3.69852">
        <ele>9</ele>
        <time>2018-07-18T11:49:36Z</time>
      </trkpt>
      <trkpt lat="47.78657" lon="-3.69846">
        <ele>9</ele>
        <time>2018-07-18T11:49:37Z</time>
      </trkpt>
      <trkpt lat="47.78655" lon="-3.69841">
        <ele>10</ele>
        <time>2018-07-18T11:49:38Z</time>
      </trkpt>
      <trkpt lat="47.78653" lon="-3.69836">
        <ele>10</ele>
        <time>2018-07-18T11:49:39Z</time>
      </trkpt>
      <trkpt lat="47.7865" lon="-3.69832">
        <ele>10</ele>
        <time>2018-07-18T11:49:40Z</time>
      </trkpt>
      <trkpt lat="47.78647" lon="-3.69828">
        <ele>10</ele>
        <time>2018-07-18T11:49:41Z</time>
      </trkpt>
      <trkpt lat="47.78645" lon="-3.69824">
        <ele>10</ele>
        <time>2018-07-18T11:49:42Z</time>
      </trkpt>
      <trkpt lat="47.78644" lon="-3.69819">
        <ele>10</ele>
        <time>2018-07-18T11:49:43Z</time>
      </trkpt>
      <trkpt lat="47.78643" lon="-3.69814">
        <ele>10</ele>
        <time>2018-07-18T11:49:44Z</time>
      </trkpt>
      <trkpt lat="47.78642" lon="-3.69809">
        <ele>10</ele>
        <time>2018-07-18T11:49:45Z</time>
      </trkpt>
      <trkpt lat="47.78641" lon="-3.69804">
        <ele>10</ele>
        <time>2018-07-18T11:49:46Z</time>
      </trkpt>
      <trkpt lat="47.7864" lon="-3.69799">
        <ele>10</ele>
        <time>2018-07-18T11:49:47Z</time>
      </trkpt>
      <trkpt lat="47.78638" lon="-3.69794">
        <ele>10</ele>
        <time>2018-07-18T11:49:48Z</time>
      </trkpt>
      <trkpt lat="47.78635" lon="-3.69789">
        <ele>10</ele>
        <time>2018-07-18T11:49:49Z</time>
      </trkpt>
      <trkpt lat="47.78632" lon="-3.69784">
        <ele>10</ele>
        <time>2018-07-18T11:49:50Z</time>
      </trkpt>
      <trkpt lat="47.78631" lon="-3.69778">
        <ele>9</ele>
        <time>2018-07-18T11:49:51Z</time>
      </trkpt>
      <trkpt lat="47.78632" lon="-3.69772">
        <ele>9</ele>
        <time>2018-07-18T11:49:52Z</time>
      </trkpt>
      <trkpt lat="47.78632" lon="-3.69765">
        <ele>9</ele>
        <time>2018-07-18T11:49:53Z</time>
      </trkpt>
      <trkpt lat="47.78632" lon="-3.69759">
        <ele>9</ele>
        <time>2018-07-18T11:49:54Z</time>
      </trkpt>
      <trkpt lat="47.78631" lon="-3.69753">
        <ele>9</ele>
        <time>2018-07-18T11:49:55Z</time>
      </trkpt>
      <trkpt lat="47.7863" lon="-3.69747">
        <ele>9</ele>
        <time>2018-07-18T11:49:56Z</time>
      </trkpt>
      <trkpt lat="47.78629" lon="-3.6974">
        <ele>9</ele>
        <time>2018-07-18T11:49:57Z</time>
      </trkpt>
      <trkpt lat="47.78628" lon="-3.69734">
        <ele>9</ele>
        <time>2018-07-18T11:49:58Z</time>
      </trkpt>
      <trkpt lat="47.78626" lon="-3.69728">
        <ele>9</ele>
        <time>2018-07-18T11:49:59Z</time>
      </trkpt>
      <trkpt lat="47.78625" lon="-3.69722">
        <ele>9</ele>
        <time>2018-07-18T11:50:00Z</time>
      </trkpt>
      <trkpt lat="47.78624" lon="-3.69715">
        <ele>9</ele>
        <time>2018-07-18T11:50:01Z</time>
      </trkpt>
      <trkpt lat="47.78624" lon="-3.69709">
        <ele>9</ele>
        <time>2018-07-18T11:50:02Z</time>
      </trkpt>
      <trkpt lat="47.78624" lon="-3.69702">
        <ele>9</ele>
        <time>2018-07-18T11:50:03Z</time>
      </trkpt>
      <trkpt lat="47.78624" lon="-3.69695">
        <ele>9</ele>
        <time>2018-07-18T11:50:04Z</time>
      </trkpt>
      <trkpt lat="47.78625" lon="-3.69688">
        <ele>9</ele>
        <time>2018-07-18T11:50:05Z</time>
      </trkpt>
      <trkpt lat="47.78626" lon="-3.69681">
        <ele>9</ele>
        <time>2018-07-18T11:50:06Z</time>
      </trkpt>
      <trkpt lat="47.78628" lon="-3.69675">
        <ele>8</ele>
        <time>2018-07-18T11:50:07Z</time>
      </trkpt>
      <trkpt lat="47.7863" lon="-3.69668">
        <ele>8</ele>
        <time>2018-07-18T11:50:08Z</time>
      </trkpt>
      <trkpt lat="47.78632" lon="-3.6966">
        <ele>8</ele>
        <time>2018-07-18T11:50:09Z</time>
      </trkpt>
      <trkpt lat="47.78635" lon="-3.69654">
        <ele>8</ele>
        <time>2018-07-18T11:50:10Z</time>
      </trkpt>
      <trkpt lat="47.78638" lon="-3.69649">
        <ele>8</ele>
        <time>2018-07-18T11:50:11Z</time>
      </trkpt>
      <trkpt lat="47.78642" lon="-3.69646">
        <ele>9</ele>
        <time>2018-07-18T11:50:12Z</time>
      </trkpt>
      <trkpt lat="47.78645" lon="-3.69644">
        <ele>9</ele>
        <time>2018-07-18T11:50:13Z</time>
      </trkpt>
      <trkpt lat="47.78649" lon="-3.69642">
        <ele>9</ele>
        <time>2018-07-18T11:50:14Z</time>
      </trkpt>
      <trkpt lat="47.78653" lon="-3.69641">
        <ele>9</ele>
        <time>2018-07-18T11:50:15Z</time>
      </trkpt>
      <trkpt lat="47.78656" lon="-3.69638">
        <ele>9</ele>
        <time>2018-07-18T11:50:16Z</time>
      </trkpt>
      <trkpt lat="47.78658" lon="-3.69635">
        <ele>9</ele>
        <time>2018-07-18T11:50:17Z</time>
      </trkpt>
      <trkpt lat="47.7866" lon="-3.69631">
        <ele>9</ele>
        <time>2018-07-18T11:50:18Z</time>
      </trkpt>
      <trkpt lat="47.78662" lon="-3.69627">
        <ele>9</ele>
        <time>2018-07-18T11:50:19Z</time>
      </trkpt>
      <trkpt lat="47.78664" lon="-3.69625">
        <ele>9</ele>
        <time>2018-07-18T11:50:20Z</time>
      </trkpt>
      <trkpt lat="47.78665" lon="-3.69622">
        <ele>9</ele>
        <time>2018-07-18T11:50:21Z</time>
      </trkpt>
      <trkpt lat="47.78666" lon="-3.69619">
        <ele>9</ele>
        <time>2018-07-18T11:50:22Z</time>
      </trkpt>
      <trkpt lat="47.78667" lon="-3.69615">
        <ele>9</ele>
        <time>2018-07-18T11:50:23Z</time>
      </trkpt>
      <trkpt lat="47.78669" lon="-3.6961">
        <ele>9</ele>
        <time>2018-07-18T11:50:24Z</time>
      </trkpt>
      <trkpt lat="47.78671" lon="-3.69605">
        <ele>9</ele>
        <time>2018-07-18T11:50:25Z</time>
      </trkpt>
      <trkpt lat="47.78673" lon="-3.69599">
        <ele>9</ele>
        <time>2018-07-18T11:50:26Z</time>
      </trkpt>
      <trkpt lat="47.78675" lon="-3.69593">
        <ele>9</ele>
        <time>2018-07-18T11:50:27Z</time>
      </trkpt>
      <trkpt lat="47.78678" lon="-3.69589">
        <ele>8</ele>
        <time>2018-07-18T11:50:28Z</time>
      </trkpt>
      <trkpt lat="47.78681" lon="-3.69587">
        <ele>8</ele>
        <time>2018-07-18T11:50:29Z</time>
      </trkpt>
      <trkpt lat="47.78684" lon="-3.69586">
        <ele>8</ele>
        <time>2018-07-18T11:50:30Z</time>
      </trkpt>
      <trkpt lat="47.78686" lon="-3.69585">
        <ele>8</ele>
        <time>2018-07-18T11:50:31Z</time>
      </trkpt>
      <trkpt lat="47.78688" lon="-3.69584">
        <ele>8</ele>
        <time>2018-07-18T11:50:32Z</time>
      </trkpt>
      <trkpt lat="47.78689" lon="-3.69583">
        <ele>8</ele>
        <time>2018-07-18T11:50:33Z</time>
      </trkpt>
      <trkpt lat="47.78692" lon="-3.69581">
        <ele>8</ele>
        <time>2018-07-18T11:50:34Z</time>
      </trkpt>
      <trkpt lat="47.78695" lon="-3.69579">
        <ele>8</ele>
        <time>2018-07-18T11:50:35Z</time>
      </trkpt>
      <trkpt lat="47.78698" lon="-3.69577">
        <ele>8</ele>
        <time>2018-07-18T11:50:36Z</time>
      </trkpt>
      <trkpt lat="47.78701" lon="-3.69575">
        <ele>8</ele>
        <time>2018-07-18T11:50:37Z</time>
      </trkpt>
      <trkpt lat="47.78704" lon="-3.69572">
        <ele>8</ele>
        <time>2018-07-18T11:50:38Z</time>
      </trkpt>
      <trkpt lat="47.78707" lon="-3.6957">
        <ele>7</ele>
        <time>2018-07-18T11:50:39Z</time>
      </trkpt>
      <trkpt lat="47.78711" lon="-3.69568">
        <ele>7</ele>
        <time>2018-07-18T11:50:40Z</time>
      </trkpt>
      <trkpt lat="47.78713" lon="-3.69566">
        <ele>7</ele>
        <time>2018-07-18T11:50:41Z</time>
      </trkpt>
      <trkpt lat="47.78715" lon="-3.69563">
        <ele>7</ele>
        <time>2018-07-18T11:50:42Z</time>
      </trkpt>
      <trkpt lat="47.78717" lon="-3.6956">
        <ele>6</ele>
        <time>2018-07-18T11:50:43Z</time>
      </trkpt>
      <trkpt lat="47.78717" lon="-3.69558">
        <ele>6</ele>
        <time>2018-07-18T11:50:44Z</time>
      </trkpt>
      <trkpt lat="47.78716" lon="-3.69556">
        <ele>6</ele>
        <time>2018-07-18T11:50:45Z</time>
      </trkpt>
      <trkpt lat="47.78715" lon="-3.69553">
        <ele>6</ele>
        <time>2018-07-18T11:50:46Z</time>
      </trkpt>
      <trkpt lat="47.78716" lon="-3.69549">
        <ele>5</ele>
        <time>2018-07-18T11:50:47Z</time>
      </trkpt>
      <trkpt lat="47.78718" lon="-3.69544">
        <ele>5</ele>
        <time>2018-07-18T11:50:48Z</time>
      </trkpt>
      <trkpt lat="47.7872" lon="-3.6954">
        <ele>5</ele>
        <time>2018-07-18T11:50:49Z</time>
      </trkpt>
      <trkpt lat="47.78721" lon="-3.69536">
        <ele>5</ele>
        <time>2018-07-18T11:50:50Z</time>
      </trkpt>
      <trkpt lat="47.78722" lon="-3.69533">
        <ele>5</ele>
        <time>2018-07-18T11:50:51Z</time>
      </trkpt>
      <trkpt lat="47.78722" lon="-3.6953">
        <ele>5</ele>
        <time>2018-07-18T11:50:52Z</time>
      </trkpt>
      <trkpt lat="47.78723" lon="-3.69528">
        <ele>5</ele>
        <time>2018-07-18T11:50:53Z</time>
      </trkpt>
      <trkpt lat="47.78723" lon="-3.69528">
        <ele>5</ele>
        <time>2018-07-18T11:50:54Z</time>
      </trkpt>
      <trkpt lat="47.78723" lon="-3.69528">
        <ele>5</ele>
        <time>2018-07-18T11:50:55Z</time>
      </trkpt>
      <trkpt lat="47.78723" lon="-3.69528">
        <ele>5</ele>
        <time>2018-07-18T11:50:56Z</time>
      </trkpt>
      <trkpt lat="47.78722" lon="-3.69526">
        <ele>5</ele>
        <time>2018-07-18T11:50:57Z</time>
      </trkpt>
      <trkpt lat="47.78721" lon="-3.69524">
        <ele>5</ele>
        <time>2018-07-18T11:50:58Z</time>
      </trkpt>
      <trkpt lat="47.78719" lon="-3.69522">
        <ele>5</ele>
        <time>2018-07-18T11:50:59Z</time>
      </trkpt>
      <trkpt lat="47.78718" lon="-3.6952">
        <ele>5</ele>
        <time>2018-07-18T11:51:00Z</time>
      </trkpt>
      <trkpt lat="47.78716" lon="-3.69518">
        <ele>5</ele>
        <time>2018-07-18T11:51:01Z</time>
      </trkpt>
      <trkpt lat="47.78714" lon="-3.69515">
        <ele>5</ele>
        <time>2018-07-18T11:51:02Z</time>
      </trkpt>
      <trkpt lat="47.78712" lon="-3.69512">
        <ele>5</ele>
        <time>2018-07-18T11:51:03Z</time>
      </trkpt>
      <trkpt lat="47.7871" lon="-3.6951">
        <ele>5</ele>
        <time>2018-07-18T11:51:04Z</time>
      </trkpt>
      <trkpt lat="47.78708" lon="-3.69507">
        <ele>5</ele>
        <time>2018-07-18T11:51:05Z</time>
      </trkpt>
      <trkpt lat="47.78706" lon="-3.69503">
        <ele>5</ele>
        <time>2018-07-18T11:51:06Z</time>
      </trkpt>
      <trkpt lat="47.78704" lon="-3.695">
        <ele>5</ele>
        <time>2018-07-18T11:51:07Z</time>
      </trkpt>
      <trkpt lat="47.78702" lon="-3.69497">
        <ele>5</ele>
        <time>2018-07-18T11:51:08Z</time>
      </trkpt>
      <trkpt lat="47.787" lon="-3.69494">
        <ele>5</ele>
        <time>2018-07-18T11:51:09Z</time>
      </trkpt>
      <trkpt lat="47.78698" lon="-3.69491">
        <ele>5</ele>
        <time>2018-07-18T11:51:10Z</time>
      </trkpt>
      <trkpt lat="47.78696" lon="-3.69489">
        <ele>5</ele>
        <time>2018-07-18T11:51:11Z</time>
      </trkpt>
      <trkpt lat="47.78694" lon="-3.69488">
        <ele>5</ele>
        <time>2018-07-18T11:51:12Z</time>
      </trkpt>
      <trkpt lat="47.78692" lon="-3.69488">
        <ele>5</ele>
        <time>2018-07-18T11:51:13Z</time>
      </trkpt>
      <trkpt lat="47.7869" lon="-3.69488">
        <ele>5</ele>
        <time>2018-07-18T11:51:14Z</time>
      </trkpt>
      <trkpt lat="47.78689" lon="-3.69488">
        <ele>5</ele>
        <time>2018-07-18T11:51:15Z</time>
      </trkpt>
      <trkpt lat="47.78688" lon="-3.69487">
        <ele>5</ele>
        <time>2018-07-18T11:51:16Z</time>
      </trkpt>
      <trkpt lat="47.78687" lon="-3.69487">
        <ele>5</ele>
        <time>2018-07-18T11:51:17Z</time>
      </trkpt>
      <trkpt lat="47.78685" lon="-3.69488">
        <ele>5</ele>
        <time>2018-07-18T11:51:18Z</time>
      </trkpt>
      <trkpt lat="47.78684" lon="-3.69489">
        <ele>5</ele>
        <time>2018-07-18T11:51:19Z</time>
      </trkpt>
      <trkpt lat="47.78682" lon="-3.6949">
        <ele>5</ele>
        <time>2018-07-18T11:51:20Z</time>
      </trkpt>
      <trkpt lat="47.7868" lon="-3.69491">
        <ele>5</ele>
        <time>2018-07-18T11:51:21Z</time>
      </trkpt>
      <trkpt lat="47.78678" lon="-3.69493">
        <ele>6</ele>
        <time>2018-07-18T11:51:22Z</time>
      </trkpt>
      <trkpt lat="47.78676" lon="-3.69493">
        <ele>6</ele>
        <time>2018-07-18T11:51:23Z</time>
      </trkpt>
      <trkpt lat="47.78674" lon="-3.69494">
        <ele>6</ele>
        <time>2018-07-18T11:51:24Z</time>
      </trkpt>
      <trkpt lat="47.78672" lon="-3.69494">
        <ele>6</ele>
        <time>2018-07-18T11:51:25Z</time>
      </trkpt>
      <trkpt lat="47.78669" lon="-3.69495">
        <ele>6</ele>
        <time>2018-07-18T11:51:26Z</time>
      </trkpt>
      <trkpt lat="47.78668" lon="-3.69497">
        <ele>6</ele>
        <time>2018-07-18T11:51:27Z</time>
      </trkpt>
      <trkpt lat="47.78665" lon="-3.69498">
        <ele>6</ele>
        <time>2018-07-18T11:51:28Z</time>
      </trkpt>
      <trkpt lat="47.78662" lon="-3.69499">
        <ele>7</ele>
        <time>2018-07-18T11:51:29Z</time>
      </trkpt>
      <trkpt lat="47.7866" lon="-3.695">
        <ele>7</ele>
        <time>2018-07-18T11:51:30Z</time>
      </trkpt>
      <trkpt lat="47.78657" lon="-3.69502">
        <ele>7</ele>
        <time>2018-07-18T11:51:31Z</time>
      </trkpt>
      <trkpt lat="47.78654" lon="-3.69504">
        <ele>7</ele>
        <time>2018-07-18T11:51:32Z</time>
      </trkpt>
      <trkpt lat="47.78651" lon="-3.69505">
        <ele>7</ele>
        <time>2018-07-18T11:51:33Z</time>
      </trkpt>
      <trkpt lat="47.78649" lon="-3.69507">
        <ele>7</ele>
        <time>2018-07-18T11:51:34Z</time>
      </trkpt>
      <trkpt lat="47.78646" lon="-3.69509">
        <ele>7</ele>
        <time>2018-07-18T11:51:35Z</time>
      </trkpt>
      <trkpt lat="47.78644" lon="-3.69511">
        <ele>7</ele>
        <time>2018-07-18T11:51:36Z</time>
      </trkpt>
      <trkpt lat="47.78641" lon="-3.69514">
        <ele>7</ele>
        <time>2018-07-18T11:51:37Z</time>
      </trkpt>
      <trkpt lat="47.78639" lon="-3.69516">
        <ele>7</ele>
        <time>2018-07-18T11:51:38Z</time>
      </trkpt>
      <trkpt lat="47.78636" lon="-3.6952">
        <ele>7</ele>
        <time>2018-07-18T11:51:39Z</time>
      </trkpt>
      <trkpt lat="47.78633" lon="-3.69523">
        <ele>7</ele>
        <time>2018-07-18T11:51:40Z</time>
      </trkpt>
      <trkpt lat="47.7863" lon="-3.69526">
        <ele>7</ele>
        <time>2018-07-18T11:51:41Z</time>
      </trkpt>
      <trkpt lat="47.78628" lon="-3.69529">
        <ele>7</ele>
        <time>2018-07-18T11:51:42Z</time>
      </trkpt>
      <trkpt lat="47.78626" lon="-3.69532">
        <ele>7</ele>
        <time>2018-07-18T11:51:43Z</time>
      </trkpt>
      <trkpt lat="47.78623" lon="-3.69536">
        <ele>7</ele>
        <time>2018-07-18T11:51:44Z</time>
      </trkpt>
      <trkpt lat="47.78622" lon="-3.6954">
        <ele>7</ele>
        <time>2018-07-18T11:51:45Z</time>
      </trkpt>
      <trkpt lat="47.7862" lon="-3.69544">
        <ele>7</ele>
        <time>2018-07-18T11:51:46Z</time>
      </trkpt>
      <trkpt lat="47.78619" lon="-3.69548">
        <ele>7</ele>
        <time>2018-07-18T11:51:47Z</time>
      </trkpt>
      <trkpt lat="47.78617" lon="-3.69552">
        <ele>7</ele>
        <time>2018-07-18T11:51:48Z</time>
      </trkpt>
      <trkpt lat="47.78615" lon="-3.69555">
        <ele>7</ele>
        <time>2018-07-18T11:51:49Z</time>
      </trkpt>
      <trkpt lat="47.78612" lon="-3.69557">
        <ele>7</ele>
        <time>2018-07-18T11:51:50Z</time>
      </trkpt>
      <trkpt lat="47.78609" lon="-3.69559">
        <ele>7</ele>
        <time>2018-07-18T11:51:51Z</time>
      </trkpt>
      <trkpt lat="47.78606" lon="-3.6956">
        <ele>7</ele>
        <time>2018-07-18T11:51:52Z</time>
      </trkpt>
      <trkpt lat="47.78603" lon="-3.69559">
        <ele>7</ele>
        <time>2018-07-18T11:51:53Z</time>
      </trkpt>
      <trkpt lat="47.786" lon="-3.69559">
        <ele>7</ele>
        <time>2018-07-18T11:51:54Z</time>
      </trkpt>
      <trkpt lat="47.78597" lon="-3.69558">
        <ele>7</ele>
        <time>2018-07-18T11:51:55Z</time>
      </trkpt>
      <trkpt lat="47.78594" lon="-3.69557">
        <ele>7</ele>
        <time>2018-07-18T11:51:56Z</time>
      </trkpt>
      <trkpt lat="47.78591" lon="-3.69555">
        <ele>7</ele>
        <time>2018-07-18T11:51:57Z</time>
      </trkpt>
      <trkpt lat="47.78588" lon="-3.69553">
        <ele>7</ele>
        <time>2018-07-18T11:51:58Z</time>
      </trkpt>
      <trkpt lat="47.78585" lon="-3.6955">
        <ele>7</ele>
        <time>2018-07-18T11:51:59Z</time>
      </trkpt>
      <trkpt lat="47.78582" lon="-3.69547">
        <ele>7</ele>
        <time>2018-07-18T11:52:00Z</time>
      </trkpt>
      <trkpt lat="47.78578" lon="-3.69546">
        <ele>7</ele>
        <time>2018-07-18T11:52:01Z</time>
      </trkpt>
      <trkpt lat="47.78574" lon="-3.69545">
        <ele>7</ele>
        <time>2018-07-18T11:52:02Z</time>
      </trkpt>
      <trkpt lat="47.78571" lon="-3.69545">
        <ele>7</ele>
        <time>2018-07-18T11:52:03Z</time>
      </trkpt>
      <trkpt lat="47.78568" lon="-3.69546">
        <ele>7</ele>
        <time>2018-07-18T11:52:04Z</time>
      </trkpt>
      <trkpt lat="47.78565" lon="-3.69547">
        <ele>7</ele>
        <time>2018-07-18T11:52:05Z</time>
      </trkpt>
      <trkpt lat="47.78563" lon="-3.69549">
        <ele>7</ele>
        <time>2018-07-18T11:52:06Z</time>
      </trkpt>
      <trkpt lat="47.7856" lon="-3.6955">
        <ele>7</ele>
        <time>2018-07-18T11:52:07Z</time>
      </trkpt>
      <trkpt lat="47.78557" lon="-3.69552">
        <ele>7</ele>
        <time>2018-07-18T11:52:08Z</time>
      </trkpt>
      <trkpt lat="47.78553" lon="-3.69553">
        <ele>7</ele>
        <time>2018-07-18T11:52:09Z</time>
      </trkpt>
      <trkpt lat="47.7855" lon="-3.69552">
        <ele>7</ele>
        <time>2018-07-18T11:52:10Z</time>
      </trkpt>
      <trkpt lat="47.78546" lon="-3.69551">
        <ele>7</ele>
        <time>2018-07-18T11:52:11Z</time>
      </trkpt>
      <trkpt lat="47.78542" lon="-3.6955">
        <ele>7</ele>
        <time>2018-07-18T11:52:12Z</time>
      </trkpt>
      <trkpt lat="47.78538" lon="-3.69547">
        <ele>7</ele>
        <time>2018-07-18T11:52:13Z</time>
      </trkpt>
      <trkpt lat="47.78535" lon="-3.69542">
        <ele>6</ele>
        <time>2018-07-18T11:52:14Z</time>
      </trkpt>
      <trkpt lat="47.78532" lon="-3.69537">
        <ele>6</ele>
        <time>2018-07-18T11:52:15Z</time>
      </trkpt>
      <trkpt lat="47.78529" lon="-3.69532">
        <ele>6</ele>
        <time>2018-07-18T11:52:16Z</time>
      </trkpt>
      <trkpt lat="47.78527" lon="-3.69526">
        <ele>6</ele>
        <time>2018-07-18T11:52:17Z</time>
      </trkpt>
      <trkpt lat="47.78525" lon="-3.69521">
        <ele>6</ele>
        <time>2018-07-18T11:52:18Z</time>
      </trkpt>
      <trkpt lat="47.78524" lon="-3.69515">
        <ele>6</ele>
        <time>2018-07-18T11:52:19Z</time>
      </trkpt>
      <trkpt lat="47.78523" lon="-3.69509">
        <ele>7</ele>
        <time>2018-07-18T11:52:20Z</time>
      </trkpt>
      <trkpt lat="47.78521" lon="-3.69504">
        <ele>7</ele>
        <time>2018-07-18T11:52:21Z</time>
      </trkpt>
      <trkpt lat="47.7852" lon="-3.69499">
        <ele>7</ele>
        <time>2018-07-18T11:52:22Z</time>
      </trkpt>
      <trkpt lat="47.7852" lon="-3.69494">
        <ele>7</ele>
        <time>2018-07-18T11:52:23Z</time>
      </trkpt>
      <trkpt lat="47.78519" lon="-3.69489">
        <ele>7</ele>
        <time>2018-07-18T11:52:24Z</time>
      </trkpt>
      <trkpt lat="47.78519" lon="-3.69484">
        <ele>7</ele>
        <time>2018-07-18T11:52:25Z</time>
      </trkpt>
      <trkpt lat="47.7852" lon="-3.69479">
        <ele>7</ele>
        <time>2018-07-18T11:52:26Z</time>
      </trkpt>
      <trkpt lat="47.7852" lon="-3.69475">
        <ele>7</ele>
        <time>2018-07-18T11:52:27Z</time>
      </trkpt>
      <trkpt lat="47.78521" lon="-3.6947">
        <ele>7</ele>
        <time>2018-07-18T11:52:28Z</time>
      </trkpt>
      <trkpt lat="47.78522" lon="-3.69465">
        <ele>7</ele>
        <time>2018-07-18T11:52:29Z</time>
      </trkpt>
      <trkpt lat="47.78523" lon="-3.69459">
        <ele>7</ele>
        <time>2018-07-18T11:52:30Z</time>
      </trkpt>
      <trkpt lat="47.78524" lon="-3.69454">
        <ele>7</ele>
        <time>2018-07-18T11:52:31Z</time>
      </trkpt>
      <trkpt lat="47.78525" lon="-3.69449">
        <ele>7</ele>
        <time>2018-07-18T11:52:32Z</time>
      </trkpt>
      <trkpt lat="47.78526" lon="-3.69443">
        <ele>8</ele>
        <time>2018-07-18T11:52:33Z</time>
      </trkpt>
      <trkpt lat="47.78526" lon="-3.69438">
        <ele>8</ele>
        <time>2018-07-18T11:52:34Z</time>
      </trkpt>
      <trkpt lat="47.78527" lon="-3.69432">
        <ele>8</ele>
        <time>2018-07-18T11:52:35Z</time>
      </trkpt>
      <trkpt lat="47.78528" lon="-3.69427">
        <ele>8</ele>
        <time>2018-07-18T11:52:36Z</time>
      </trkpt>
      <trkpt lat="47.78528" lon="-3.69423">
        <ele>8</ele>
        <time>2018-07-18T11:52:37Z</time>
      </trkpt>
      <trkpt lat="47.78528" lon="-3.69419">
        <ele>8</ele>
        <time>2018-07-18T11:52:38Z</time>
      </trkpt>
      <trkpt lat="47.78527" lon="-3.69416">
        <ele>8</ele>
        <time>2018-07-18T11:52:39Z</time>
      </trkpt>
      <trkpt lat="47.78526" lon="-3.69414">
        <ele>8</ele>
        <time>2018-07-18T11:52:40Z</time>
      </trkpt>
      <trkpt lat="47.78525" lon="-3.69411">
        <ele>8</ele>
        <time>2018-07-18T11:52:41Z</time>
      </trkpt>
      <trkpt lat="47.78524" lon="-3.69407">
        <ele>8</ele>
        <time>2018-07-18T11:52:42Z</time>
      </trkpt>
      <trkpt lat="47.78522" lon="-3.69404">
        <ele>8</ele>
        <time>2018-07-18T11:52:43Z</time>
      </trkpt>
      <trkpt lat="47.7852" lon="-3.694">
        <ele>8</ele>
        <time>2018-07-18T11:52:44Z</time>
      </trkpt>
      <trkpt lat="47.78517" lon="-3.69398">
        <ele>8</ele>
        <time>2018-07-18T11:52:45Z</time>
      </trkpt>
      <trkpt lat="47.78515" lon="-3.69394">
        <ele>8</ele>
        <time>2018-07-18T11:52:46Z</time>
      </trkpt>
      <trkpt lat="47.78514" lon="-3.6939">
        <ele>8</ele>
        <time>2018-07-18T11:52:47Z</time>
      </trkpt>
      <trkpt lat="47.78515" lon="-3.69385">
        <ele>8</ele>
        <time>2018-07-18T11:52:48Z</time>
      </trkpt>
      <trkpt lat="47.78516" lon="-3.69381">
        <ele>8</ele>
        <time>2018-07-18T11:52:49Z</time>
      </trkpt>
      <trkpt lat="47.78518" lon="-3.69377">
        <ele>8</ele>
        <time>2018-07-18T11:52:50Z</time>
      </trkpt>
      <trkpt lat="47.7852" lon="-3.69373">
        <ele>8</ele>
        <time>2018-07-18T11:52:51Z</time>
      </trkpt>
      <trkpt lat="47.7852" lon="-3.6937">
        <ele>8</ele>
        <time>2018-07-18T11:52:52Z</time>
      </trkpt>
      <trkpt lat="47.7852" lon="-3.69367">
        <ele>8</ele>
        <time>2018-07-18T11:52:53Z</time>
      </trkpt>
      <trkpt lat="47.7852" lon="-3.69364">
        <ele>8</ele>
        <time>2018-07-18T11:52:54Z</time>
      </trkpt>
      <trkpt lat="47.78519" lon="-3.6936">
        <ele>7</ele>
        <time>2018-07-18T11:52:55Z</time>
      </trkpt>
      <trkpt lat="47.78518" lon="-3.69357">
        <ele>7</ele>
        <time>2018-07-18T11:52:56Z</time>
      </trkpt>
      <trkpt lat="47.78519" lon="-3.69354">
        <ele>7</ele>
        <time>2018-07-18T11:52:57Z</time>
      </trkpt>
      <trkpt lat="47.7852" lon="-3.69351">
        <ele>7</ele>
        <time>2018-07-18T11:52:58Z</time>
      </trkpt>
      <trkpt lat="47.78521" lon="-3.69351">
        <ele>7</ele>
        <time>2018-07-18T11:52:59Z</time>
      </trkpt>
      <trkpt lat="47.78521" lon="-3.6935">
        <ele>7</ele>
        <time>2018-07-18T11:53:00Z</time>
      </trkpt>
      <trkpt lat="47.78521" lon="-3.6935">
        <ele>7</ele>
        <time>2018-07-18T11:53:01Z</time>
      </trkpt>
      <trkpt lat="47.78521" lon="-3.69349">
        <ele>6</ele>
        <time>2018-07-18T11:53:02Z</time>
      </trkpt>
      <trkpt lat="47.78521" lon="-3.69348">
        <ele>6</ele>
        <time>2018-07-18T11:53:03Z</time>
      </trkpt>
      <trkpt lat="47.78521" lon="-3.69347">
        <ele>6</ele>
        <time>2018-07-18T11:53:04Z</time>
      </trkpt>
      <trkpt lat="47.78521" lon="-3.69347">
        <ele>6</ele>
        <time>2018-07-18T11:53:05Z</time>
      </trkpt>
      <trkpt lat="47.78522" lon="-3.69346">
        <ele>6</ele>
        <time>2018-07-18T11:53:06Z</time>
      </trkpt>
      <trkpt lat="47.78523" lon="-3.69345">
        <ele>6</ele>
        <time>2018-07-18T11:53:07Z</time>
      </trkpt>
      <trkpt lat="47.78523" lon="-3.69344">
        <ele>6</ele>
        <time>2018-07-18T11:53:08Z</time>
      </trkpt>
      <trkpt lat="47.78523" lon="-3.69344">
        <ele>6</ele>
        <time>2018-07-18T11:53:09Z</time>
      </trkpt>
      <trkpt lat="47.78523" lon="-3.69344">
        <ele>6</ele>
        <time>2018-07-18T11:53:10Z</time>
      </trkpt>
      <trkpt lat="47.78523" lon="-3.69344">
        <ele>6</ele>
        <time>2018-07-18T11:53:11Z</time>
      </trkpt>
      <trkpt lat="47.78523" lon="-3.6934">
        <ele>5</ele>
        <time>2018-07-18T11:53:12Z</time>
      </trkpt>
      <trkpt lat="47.78522" lon="-3.69337">
        <ele>5</ele>
        <time>2018-07-18T11:53:13Z</time>
      </trkpt>
      <trkpt lat="47.78522" lon="-3.69333">
        <ele>5</ele>
        <time>2018-07-18T11:53:14Z</time>
      </trkpt>
      <trkpt lat="47.78521" lon="-3.69329">
        <ele>5</ele>
        <time>2018-07-18T11:53:15Z</time>
      </trkpt>
      <trkpt lat="47.78521" lon="-3.69326">
        <ele>5</ele>
        <time>2018-07-18T11:53:16Z</time>
      </trkpt>
      <trkpt lat="47.7852" lon="-3.69323">
        <ele>5</ele>
        <time>2018-07-18T11:53:17Z</time>
      </trkpt>
      <trkpt lat="47.78518" lon="-3.6932">
        <ele>5</ele>
        <time>2018-07-18T11:53:18Z</time>
      </trkpt>
      <trkpt lat="47.78516" lon="-3.69318">
        <ele>5</ele>
        <time>2018-07-18T11:53:19Z</time>
      </trkpt>
      <trkpt lat="47.78514" lon="-3.69317">
        <ele>5</ele>
        <time>2018-07-18T11:53:20Z</time>
      </trkpt>
      <trkpt lat="47.78513" lon="-3.69315">
        <ele>5</ele>
        <time>2018-07-18T11:53:21Z</time>
      </trkpt>
      <trkpt lat="47.78511" lon="-3.69312">
        <ele>5</ele>
        <time>2018-07-18T11:53:22Z</time>
      </trkpt>
      <trkpt lat="47.78509" lon="-3.6931">
        <ele>5</ele>
        <time>2018-07-18T11:53:23Z</time>
      </trkpt>
      <trkpt lat="47.78508" lon="-3.69309">
        <ele>5</ele>
        <time>2018-07-18T11:53:24Z</time>
      </trkpt>
      <trkpt lat="47.78506" lon="-3.69308">
        <ele>6</ele>
        <time>2018-07-18T11:53:25Z</time>
      </trkpt>
      <trkpt lat="47.78504" lon="-3.69307">
        <ele>6</ele>
        <time>2018-07-18T11:53:26Z</time>
      </trkpt>
      <trkpt lat="47.78502" lon="-3.69307">
        <ele>6</ele>
        <time>2018-07-18T11:53:27Z</time>
      </trkpt>
      <trkpt lat="47.785" lon="-3.69306">
        <ele>6</ele>
        <time>2018-07-18T11:53:28Z</time>
      </trkpt>
      <trkpt lat="47.78498" lon="-3.69306">
        <ele>6</ele>
        <time>2018-07-18T11:53:29Z</time>
      </trkpt>
      <trkpt lat="47.78496" lon="-3.69306">
        <ele>6</ele>
        <time>2018-07-18T11:53:30Z</time>
      </trkpt>
      <trkpt lat="47.78494" lon="-3.69307">
        <ele>6</ele>
        <time>2018-07-18T11:53:31Z</time>
      </trkpt>
      <trkpt lat="47.78492" lon="-3.69307">
        <ele>7</ele>
        <time>2018-07-18T11:53:32Z</time>
      </trkpt>
      <trkpt lat="47.78491" lon="-3.69306">
        <ele>7</ele>
        <time>2018-07-18T11:53:33Z</time>
      </trkpt>
      <trkpt lat="47.7849" lon="-3.69306">
        <ele>7</ele>
        <time>2018-07-18T11:53:34Z</time>
      </trkpt>
      <trkpt lat="47.78489" lon="-3.69306">
        <ele>7</ele>
        <time>2018-07-18T11:53:35Z</time>
      </trkpt>
      <trkpt lat="47.78488" lon="-3.69306">
        <ele>7</ele>
        <time>2018-07-18T11:53:36Z</time>
      </trkpt>
      <trkpt lat="47.78486" lon="-3.69306">
        <ele>7</ele>
        <time>2018-07-18T11:53:37Z</time>
      </trkpt>
      <trkpt lat="47.78485" lon="-3.69306">
        <ele>7</ele>
        <time>2018-07-18T11:53:38Z</time>
      </trkpt>
      <trkpt lat="47.78484" lon="-3.69305">
        <ele>7</ele>
        <time>2018-07-18T11:53:39Z</time>
      </trkpt>
      <trkpt lat="47.78482" lon="-3.69303">
        <ele>7</ele>
        <time>2018-07-18T11:53:40Z</time>
      </trkpt>
      <trkpt lat="47.78481" lon="-3.69301">
        <ele>7</ele>
        <time>2018-07-18T11:53:41Z</time>
      </trkpt>
      <trkpt lat="47.78479" lon="-3.693">
        <ele>7</ele>
        <time>2018-07-18T11:53:42Z</time>
      </trkpt>
      <trkpt lat="47.78478" lon="-3.69298">
        <ele>8</ele>
        <time>2018-07-18T11:53:43Z</time>
      </trkpt>
      <trkpt lat="47.78476" lon="-3.69295">
        <ele>8</ele>
        <time>2018-07-18T11:53:44Z</time>
      </trkpt>
      <trkpt lat="47.78474" lon="-3.69293">
        <ele>8</ele>
        <time>2018-07-18T11:53:45Z</time>
      </trkpt>
      <trkpt lat="47.78472" lon="-3.69291">
        <ele>8</ele>
        <time>2018-07-18T11:53:46Z</time>
      </trkpt>
      <trkpt lat="47.7847" lon="-3.69288">
        <ele>8</ele>
        <time>2018-07-18T11:53:47Z</time>
      </trkpt>
      <trkpt lat="47.78468" lon="-3.69286">
        <ele>8</ele>
        <time>2018-07-18T11:53:48Z</time>
      </trkpt>
      <trkpt lat="47.78466" lon="-3.69283">
        <ele>8</ele>
        <time>2018-07-18T11:53:49Z</time>
      </trkpt>
      <trkpt lat="47.78464" lon="-3.6928">
        <ele>9</ele>
        <time>2018-07-18T11:53:50Z</time>
      </trkpt>
      <trkpt lat="47.78462" lon="-3.69278">
        <ele>9</ele>
        <time>2018-07-18T11:53:51Z</time>
      </trkpt>
      <trkpt lat="47.7846" lon="-3.69275">
        <ele>9</ele>
        <time>2018-07-18T11:53:52Z</time>
      </trkpt>
      <trkpt lat="47.78458" lon="-3.69272">
        <ele>9</ele>
        <time>2018-07-18T11:53:53Z</time>
      </trkpt>
      <trkpt lat="47.78456" lon="-3.69269">
        <ele>9</ele>
        <time>2018-07-18T11:53:54Z</time>
      </trkpt>
      <trkpt lat="47.78453" lon="-3.69266">
        <ele>9</ele>
        <time>2018-07-18T11:53:55Z</time>
      </trkpt>
      <trkpt lat="47.78451" lon="-3.69263">
        <ele>9</ele>
        <time>2018-07-18T11:53:56Z</time>
      </trkpt>
      <trkpt lat="47.78448" lon="-3.6926">
        <ele>10</ele>
        <time>2018-07-18T11:53:57Z</time>
      </trkpt>
      <trkpt lat="47.78446" lon="-3.69257">
        <ele>10</ele>
        <time>2018-07-18T11:53:58Z</time>
      </trkpt>
      <trkpt lat="47.78444" lon="-3.69254">
        <ele>10</ele>
        <time>2018-07-18T11:53:59Z</time>
      </trkpt>
      <trkpt lat="47.78441" lon="-3.69251">
        <ele>10</ele>
        <time>2018-07-18T11:54:00Z</time>
      </trkpt>
      <trkpt lat="47.78439" lon="-3.69248">
        <ele>10</ele>
        <time>2018-07-18T11:54:01Z</time>
      </trkpt>
      <trkpt lat="47.78436" lon="-3.69244">
        <ele>10</ele>
        <time>2018-07-18T11:54:02Z</time>
      </trkpt>
      <trkpt lat="47.78433" lon="-3.69241">
        <ele>11</ele>
        <time>2018-07-18T11:54:03Z</time>
      </trkpt>
      <trkpt lat="47.78431" lon="-3.69237">
        <ele>11</ele>
        <time>2018-07-18T11:54:04Z</time>
      </trkpt>
      <trkpt lat="47.78428" lon="-3.69233">
        <ele>11</ele>
        <time>2018-07-18T11:54:05Z</time>
      </trkpt>
      <trkpt lat="47.78425" lon="-3.69229">
        <ele>11</ele>
        <time>2018-07-18T11:54:06Z</time>
      </trkpt>
      <trkpt lat="47.78423" lon="-3.69225">
        <ele>11</ele>
        <time>2018-07-18T11:54:07Z</time>
      </trkpt>
      <trkpt lat="47.78421" lon="-3.69221">
        <ele>11</ele>
        <time>2018-07-18T11:54:08Z</time>
      </trkpt>
      <trkpt lat="47.78418" lon="-3.69217">
        <ele>11</ele>
        <time>2018-07-18T11:54:09Z</time>
      </trkpt>
      <trkpt lat="47.78416" lon="-3.69214">
        <ele>11</ele>
        <time>2018-07-18T11:54:10Z</time>
      </trkpt>
      <trkpt lat="47.78413" lon="-3.6921">
        <ele>12</ele>
        <time>2018-07-18T11:54:11Z</time>
      </trkpt>
      <trkpt lat="47.78411" lon="-3.69206">
        <ele>12</ele>
        <time>2018-07-18T11:54:12Z</time>
      </trkpt>
      <trkpt lat="47.78409" lon="-3.69202">
        <ele>12</ele>
        <time>2018-07-18T11:54:13Z</time>
      </trkpt>
      <trkpt lat="47.78406" lon="-3.69197">
        <ele>12</ele>
        <time>2018-07-18T11:54:14Z</time>
      </trkpt>
      <trkpt lat="47.78404" lon="-3.69193">
        <ele>12</ele>
        <time>2018-07-18T11:54:15Z</time>
      </trkpt>
      <trkpt lat="47.78402" lon="-3.69188">
        <ele>12</ele>
        <time>2018-07-18T11:54:16Z</time>
      </trkpt>
      <trkpt lat="47.78399" lon="-3.69183">
        <ele>12</ele>
        <time>2018-07-18T11:54:17Z</time>
      </trkpt>
      <trkpt lat="47.78397" lon="-3.69179">
        <ele>13</ele>
        <time>2018-07-18T11:54:18Z</time>
      </trkpt>
      <trkpt lat="47.78395" lon="-3.69174">
        <ele>13</ele>
        <time>2018-07-18T11:54:19Z</time>
      </trkpt>
      <trkpt lat="47.78392" lon="-3.69169">
        <ele>13</ele>
        <time>2018-07-18T11:54:20Z</time>
      </trkpt>
      <trkpt lat="47.7839" lon="-3.69164">
        <ele>13</ele>
        <time>2018-07-18T11:54:21Z</time>
      </trkpt>
      <trkpt lat="47.78387" lon="-3.69159">
        <ele>13</ele>
        <time>2018-07-18T11:54:22Z</time>
      </trkpt>
      <trkpt lat="47.78385" lon="-3.69155">
        <ele>13</ele>
        <time>2018-07-18T11:54:23Z</time>
      </trkpt>
      <trkpt lat="47.78382" lon="-3.6915">
        <ele>13</ele>
        <time>2018-07-18T11:54:24Z</time>
      </trkpt>
      <trkpt lat="47.7838" lon="-3.69146">
        <ele>13</ele>
        <time>2018-07-18T11:54:25Z</time>
      </trkpt>
      <trkpt lat="47.78377" lon="-3.69141">
        <ele>13</ele>
        <time>2018-07-18T11:54:26Z</time>
      </trkpt>
      <trkpt lat="47.78375" lon="-3.69136">
        <ele>13</ele>
        <time>2018-07-18T11:54:27Z</time>
      </trkpt>
      <trkpt lat="47.78373" lon="-3.69131">
        <ele>14</ele>
        <time>2018-07-18T11:54:28Z</time>
      </trkpt>
      <trkpt lat="47.78371" lon="-3.69125">
        <ele>14</ele>
        <time>2018-07-18T11:54:29Z</time>
      </trkpt>
      <trkpt lat="47.78369" lon="-3.69119">
        <ele>14</ele>
        <time>2018-07-18T11:54:30Z</time>
      </trkpt>
      <trkpt lat="47.78367" lon="-3.69113">
        <ele>14</ele>
        <time>2018-07-18T11:54:31Z</time>
      </trkpt>
      <trkpt lat="47.78366" lon="-3.69107">
        <ele>14</ele>
        <time>2018-07-18T11:54:32Z</time>
      </trkpt>
      <trkpt lat="47.78364" lon="-3.69101">
        <ele>14</ele>
        <time>2018-07-18T11:54:33Z</time>
      </trkpt>
      <trkpt lat="47.78363" lon="-3.69096">
        <ele>14</ele>
        <time>2018-07-18T11:54:34Z</time>
      </trkpt>
      <trkpt lat="47.78361" lon="-3.69091">
        <ele>14</ele>
        <time>2018-07-18T11:54:35Z</time>
      </trkpt>
      <trkpt lat="47.7836" lon="-3.69087">
        <ele>14</ele>
        <time>2018-07-18T11:54:36Z</time>
      </trkpt>
      <trkpt lat="47.78359" lon="-3.69084">
        <ele>14</ele>
        <time>2018-07-18T11:54:37Z</time>
      </trkpt>
      <trkpt lat="47.78357" lon="-3.69084">
        <ele>14</ele>
        <time>2018-07-18T11:54:38Z</time>
      </trkpt>
      <trkpt lat="47.78354" lon="-3.69086">
        <ele>14</ele>
        <time>2018-07-18T11:54:39Z</time>
      </trkpt>
      <trkpt lat="47.7835" lon="-3.69087">
        <ele>14</ele>
        <time>2018-07-18T11:54:40Z</time>
      </trkpt>
      <trkpt lat="47.78346" lon="-3.69089">
        <ele>13</ele>
        <time>2018-07-18T11:54:41Z</time>
      </trkpt>
      <trkpt lat="47.78342" lon="-3.6909">
        <ele>13</ele>
        <time>2018-07-18T11:54:42Z</time>
      </trkpt>
      <trkpt lat="47.78338" lon="-3.69092">
        <ele>13</ele>
        <time>2018-07-18T11:54:43Z</time>
      </trkpt>
      <trkpt lat="47.78333" lon="-3.69094">
        <ele>13</ele>
        <time>2018-07-18T11:54:44Z</time>
      </trkpt>
      <trkpt lat="47.78328" lon="-3.69096">
        <ele>12</ele>
        <time>2018-07-18T11:54:45Z</time>
      </trkpt>
      <trkpt lat="47.78323" lon="-3.69098">
        <ele>12</ele>
        <time>2018-07-18T11:54:46Z</time>
      </trkpt>
      <trkpt lat="47.78318" lon="-3.691">
        <ele>12</ele>
        <time>2018-07-18T11:54:47Z</time>
      </trkpt>
      <trkpt lat="47.78313" lon="-3.69103">
        <ele>11</ele>
        <time>2018-07-18T11:54:48Z</time>
      </trkpt>
      <trkpt lat="47.78307" lon="-3.69105">
        <ele>11</ele>
        <time>2018-07-18T11:54:49Z</time>
      </trkpt>
      <trkpt lat="47.78301" lon="-3.69107">
        <ele>10</ele>
        <time>2018-07-18T11:54:50Z</time>
      </trkpt>
      <trkpt lat="47.78295" lon="-3.6911">
        <ele>10</ele>
        <time>2018-07-18T11:54:51Z</time>
      </trkpt>
      <trkpt lat="47.7829" lon="-3.69111">
        <ele>10</ele>
        <time>2018-07-18T11:54:52Z</time>
      </trkpt>
      <trkpt lat="47.78286" lon="-3.69113">
        <ele>10</ele>
        <time>2018-07-18T11:54:53Z</time>
      </trkpt>
      <trkpt lat="47.78282" lon="-3.69114">
        <ele>9</ele>
        <time>2018-07-18T11:54:54Z</time>
      </trkpt>
      <trkpt lat="47.78279" lon="-3.69112">
        <ele>9</ele>
        <time>2018-07-18T11:54:55Z</time>
      </trkpt>
      <trkpt lat="47.78277" lon="-3.69109">
        <ele>9</ele>
        <time>2018-07-18T11:54:56Z</time>
      </trkpt>
      <trkpt lat="47.78276" lon="-3.69104">
        <ele>9</ele>
        <time>2018-07-18T11:54:57Z</time>
      </trkpt>
      <trkpt lat="47.78275" lon="-3.69099">
        <ele>9</ele>
        <time>2018-07-18T11:54:58Z</time>
      </trkpt>
      <trkpt lat="47.78273" lon="-3.69093">
        <ele>8</ele>
        <time>2018-07-18T11:54:59Z</time>
      </trkpt>
      <trkpt lat="47.78271" lon="-3.69088">
        <ele>8</ele>
        <time>2018-07-18T11:55:00Z</time>
      </trkpt>
      <trkpt lat="47.78267" lon="-3.69084">
        <ele>8</ele>
        <time>2018-07-18T11:55:01Z</time>
      </trkpt>
      <trkpt lat="47.78264" lon="-3.69079">
        <ele>8</ele>
        <time>2018-07-18T11:55:02Z</time>
      </trkpt>
      <trkpt lat="47.7826" lon="-3.69073">
        <ele>7</ele>
        <time>2018-07-18T11:55:03Z</time>
      </trkpt>
      <trkpt lat="47.78257" lon="-3.69067">
        <ele>7</ele>
        <time>2018-07-18T11:55:04Z</time>
      </trkpt>
      <trkpt lat="47.78254" lon="-3.69063">
        <ele>7</ele>
        <time>2018-07-18T11:55:05Z</time>
      </trkpt>
      <trkpt lat="47.78251" lon="-3.69062">
        <ele>7</ele>
        <time>2018-07-18T11:55:06Z</time>
      </trkpt>
      <trkpt lat="47.78248" lon="-3.69063">
        <ele>8</ele>
        <time>2018-07-18T11:55:07Z</time>
      </trkpt>
      <trkpt lat="47.78246" lon="-3.69065">
        <ele>8</ele>
        <time>2018-07-18T11:55:08Z</time>
      </trkpt>
      <trkpt lat="47.78243" lon="-3.69067">
        <ele>8</ele>
        <time>2018-07-18T11:55:09Z</time>
      </trkpt>
      <trkpt lat="47.7824" lon="-3.69069">
        <ele>8</ele>
        <time>2018-07-18T11:55:10Z</time>
      </trkpt>
      <trkpt lat="47.78237" lon="-3.69069">
        <ele>8</ele>
        <time>2018-07-18T11:55:11Z</time>
      </trkpt>
      <trkpt lat="47.78234" lon="-3.69068">
        <ele>8</ele>
        <time>2018-07-18T11:55:12Z</time>
      </trkpt>
      <trkpt lat="47.78231" lon="-3.69067">
        <ele>8</ele>
        <time>2018-07-18T11:55:13Z</time>
      </trkpt>
      <trkpt lat="47.78227" lon="-3.69065">
        <ele>8</ele>
        <time>2018-07-18T11:55:14Z</time>
      </trkpt>
      <trkpt lat="47.78223" lon="-3.69065">
        <ele>8</ele>
        <time>2018-07-18T11:55:15Z</time>
      </trkpt>
      <trkpt lat="47.78219" lon="-3.69065">
        <ele>8</ele>
        <time>2018-07-18T11:55:16Z</time>
      </trkpt>
      <trkpt lat="47.78215" lon="-3.69064">
        <ele>8</ele>
        <time>2018-07-18T11:55:17Z</time>
      </trkpt>
      <trkpt lat="47.7821" lon="-3.69064">
        <ele>8</ele>
        <time>2018-07-18T11:55:18Z</time>
      </trkpt>
      <trkpt lat="47.78206" lon="-3.69063">
        <ele>8</ele>
        <time>2018-07-18T11:55:19Z</time>
      </trkpt>
      <trkpt lat="47.78202" lon="-3.69062">
        <ele>7</ele>
        <time>2018-07-18T11:55:20Z</time>
      </trkpt>
      <trkpt lat="47.78198" lon="-3.69061">
        <ele>7</ele>
        <time>2018-07-18T11:55:21Z</time>
      </trkpt>
      <trkpt lat="47.78193" lon="-3.69059">
        <ele>7</ele>
        <time>2018-07-18T11:55:22Z</time>
      </trkpt>
      <trkpt lat="47.78189" lon="-3.69057">
        <ele>7</ele>
        <time>2018-07-18T11:55:23Z</time>
      </trkpt>
      <trkpt lat="47.78185" lon="-3.69054">
        <ele>7</ele>
        <time>2018-07-18T11:55:24Z</time>
      </trkpt>
      <trkpt lat="47.7818" lon="-3.69051">
        <ele>7</ele>
        <time>2018-07-18T11:55:25Z</time>
      </trkpt>
      <trkpt lat="47.78176" lon="-3.69046">
        <ele>7</ele>
        <time>2018-07-18T11:55:26Z</time>
      </trkpt>
      <trkpt lat="47.78172" lon="-3.69043">
        <ele>7</ele>
        <time>2018-07-18T11:55:27Z</time>
      </trkpt>
      <trkpt lat="47.78168" lon="-3.69039">
        <ele>7</ele>
        <time>2018-07-18T11:55:28Z</time>
      </trkpt>
      <trkpt lat="47.78163" lon="-3.69036">
        <ele>7</ele>
        <time>2018-07-18T11:55:29Z</time>
      </trkpt>
      <trkpt lat="47.78159" lon="-3.69033">
        <ele>7</ele>
        <time>2018-07-18T11:55:30Z</time>
      </trkpt>
      <trkpt lat="47.78155" lon="-3.69029">
        <ele>7</ele>
        <time>2018-07-18T11:55:31Z</time>
      </trkpt>
      <trkpt lat="47.7815" lon="-3.69026">
        <ele>7</ele>
        <time>2018-07-18T11:55:32Z</time>
      </trkpt>
      <trkpt lat="47.78146" lon="-3.69022">
        <ele>7</ele>
        <time>2018-07-18T11:55:33Z</time>
      </trkpt>
      <trkpt lat="47.78142" lon="-3.69018">
        <ele>7</ele>
        <time>2018-07-18T11:55:34Z</time>
      </trkpt>
      <trkpt lat="47.78138" lon="-3.69014">
        <ele>7</ele>
        <time>2018-07-18T11:55:35Z</time>
      </trkpt>
      <trkpt lat="47.78134" lon="-3.6901">
        <ele>7</ele>
        <time>2018-07-18T11:55:36Z</time>
      </trkpt>
      <trkpt lat="47.78131" lon="-3.69005">
        <ele>7</ele>
        <time>2018-07-18T11:55:37Z</time>
      </trkpt>
      <trkpt lat="47.7813" lon="-3.68999">
        <ele>7</ele>
        <time>2018-07-18T11:55:38Z</time>
      </trkpt>
      <trkpt lat="47.78129" lon="-3.68993">
        <ele>7</ele>
        <time>2018-07-18T11:55:39Z</time>
      </trkpt>
      <trkpt lat="47.7813" lon="-3.68987">
        <ele>7</ele>
        <time>2018-07-18T11:55:40Z</time>
      </trkpt>
      <trkpt lat="47.78131" lon="-3.68981">
        <ele>7</ele>
        <time>2018-07-18T11:55:41Z</time>
      </trkpt>
      <trkpt lat="47.78133" lon="-3.68976">
        <ele>7</ele>
        <time>2018-07-18T11:55:42Z</time>
      </trkpt>
      <trkpt lat="47.78135" lon="-3.68972">
        <ele>7</ele>
        <time>2018-07-18T11:55:43Z</time>
      </trkpt>
      <trkpt lat="47.78136" lon="-3.68966">
        <ele>7</ele>
        <time>2018-07-18T11:55:44Z</time>
      </trkpt>
      <trkpt lat="47.78137" lon="-3.6896">
        <ele>7</ele>
        <time>2018-07-18T11:55:45Z</time>
      </trkpt>
      <trkpt lat="47.78136" lon="-3.68953">
        <ele>7</ele>
        <time>2018-07-18T11:55:46Z</time>
      </trkpt>
      <trkpt lat="47.78134" lon="-3.68947">
        <ele>7</ele>
        <time>2018-07-18T11:55:47Z</time>
      </trkpt>
      <trkpt lat="47.78132" lon="-3.68941">
        <ele>7</ele>
        <time>2018-07-18T11:55:48Z</time>
      </trkpt>
      <trkpt lat="47.7813" lon="-3.68935">
        <ele>7</ele>
        <time>2018-07-18T11:55:49Z</time>
      </trkpt>
      <trkpt lat="47.78129" lon="-3.68928">
        <ele>7</ele>
        <time>2018-07-18T11:55:50Z</time>
      </trkpt>
      <trkpt lat="47.78128" lon="-3.68921">
        <ele>7</ele>
        <time>2018-07-18T11:55:51Z</time>
      </trkpt>
      <trkpt lat="47.78128" lon="-3.68914">
        <ele>7</ele>
        <time>2018-07-18T11:55:52Z</time>
      </trkpt>
      <trkpt lat="47.78128" lon="-3.68908">
        <ele>7</ele>
        <time>2018-07-18T11:55:53Z</time>
      </trkpt>
      <trkpt lat="47.78128" lon="-3.68902">
        <ele>7</ele>
        <time>2018-07-18T11:55:54Z</time>
      </trkpt>
      <trkpt lat="47.78127" lon="-3.68896">
        <ele>7</ele>
        <time>2018-07-18T11:55:55Z</time>
      </trkpt>
      <trkpt lat="47.78126" lon="-3.6889">
        <ele>7</ele>
        <time>2018-07-18T11:55:56Z</time>
      </trkpt>
      <trkpt lat="47.78125" lon="-3.68883">
        <ele>7</ele>
        <time>2018-07-18T11:55:57Z</time>
      </trkpt>
      <trkpt lat="47.78123" lon="-3.68877">
        <ele>7</ele>
        <time>2018-07-18T11:55:58Z</time>
      </trkpt>
      <trkpt lat="47.78122" lon="-3.68871">
        <ele>7</ele>
        <time>2018-07-18T11:55:59Z</time>
      </trkpt>
      <trkpt lat="47.78121" lon="-3.68864">
        <ele>7</ele>
        <time>2018-07-18T11:56:00Z</time>
      </trkpt>
      <trkpt lat="47.78121" lon="-3.68858">
        <ele>7</ele>
        <time>2018-07-18T11:56:01Z</time>
      </trkpt>
      <trkpt lat="47.78121" lon="-3.68852">
        <ele>7</ele>
        <time>2018-07-18T11:56:02Z</time>
      </trkpt>
      <trkpt lat="47.78123" lon="-3.68847">
        <ele>7</ele>
        <time>2018-07-18T11:56:03Z</time>
      </trkpt>
      <trkpt lat="47.78123" lon="-3.68842">
        <ele>7</ele>
        <time>2018-07-18T11:56:04Z</time>
      </trkpt>
      <trkpt lat="47.78124" lon="-3.68836">
        <ele>7</ele>
        <time>2018-07-18T11:56:05Z</time>
      </trkpt>
      <trkpt lat="47.78125" lon="-3.6883">
        <ele>7</ele>
        <time>2018-07-18T11:56:06Z</time>
      </trkpt>
      <trkpt lat="47.78125" lon="-3.68824">
        <ele>7</ele>
        <time>2018-07-18T11:56:07Z</time>
      </trkpt>
      <trkpt lat="47.78126" lon="-3.68818">
        <ele>7</ele>
        <time>2018-07-18T11:56:08Z</time>
      </trkpt>
      <trkpt lat="47.78126" lon="-3.68811">
        <ele>7</ele>
        <time>2018-07-18T11:56:09Z</time>
      </trkpt>
      <trkpt lat="47.78127" lon="-3.68804">
        <ele>7</ele>
        <time>2018-07-18T11:56:10Z</time>
      </trkpt>
      <trkpt lat="47.78127" lon="-3.68797">
        <ele>7</ele>
        <time>2018-07-18T11:56:11Z</time>
      </trkpt>
      <trkpt lat="47.78127" lon="-3.6879">
        <ele>7</ele>
        <time>2018-07-18T11:56:12Z</time>
      </trkpt>
      <trkpt lat="47.78126" lon="-3.68784">
        <ele>7</ele>
        <time>2018-07-18T11:56:13Z</time>
      </trkpt>
      <trkpt lat="47.78124" lon="-3.68779">
        <ele>7</ele>
        <time>2018-07-18T11:56:14Z</time>
      </trkpt>
      <trkpt lat="47.78121" lon="-3.68774">
        <ele>7</ele>
        <time>2018-07-18T11:56:15Z</time>
      </trkpt>
      <trkpt lat="47.78119" lon="-3.6877">
        <ele>7</ele>
        <time>2018-07-18T11:56:16Z</time>
      </trkpt>
      <trkpt lat="47.78116" lon="-3.68768">
        <ele>6</ele>
        <time>2018-07-18T11:56:17Z</time>
      </trkpt>
      <trkpt lat="47.78111" lon="-3.68768">
        <ele>6</ele>
        <time>2018-07-18T11:56:18Z</time>
      </trkpt>
      <trkpt lat="47.78107" lon="-3.6877">
        <ele>6</ele>
        <time>2018-07-18T11:56:19Z</time>
      </trkpt>
      <trkpt lat="47.78103" lon="-3.68772">
        <ele>6</ele>
        <time>2018-07-18T11:56:20Z</time>
      </trkpt>
      <trkpt lat="47.78098" lon="-3.68773">
        <ele>6</ele>
        <time>2018-07-18T11:56:21Z</time>
      </trkpt>
      <trkpt lat="47.78094" lon="-3.68775">
        <ele>6</ele>
        <time>2018-07-18T11:56:22Z</time>
      </trkpt>
      <trkpt lat="47.7809" lon="-3.68776">
        <ele>6</ele>
        <time>2018-07-18T11:56:23Z</time>
      </trkpt>
      <trkpt lat="47.78086" lon="-3.68776">
        <ele>5</ele>
        <time>2018-07-18T11:56:24Z</time>
      </trkpt>
      <trkpt lat="47.78082" lon="-3.68776">
        <ele>5</ele>
        <time>2018-07-18T11:56:25Z</time>
      </trkpt>
      <trkpt lat="47.78077" lon="-3.68776">
        <ele>5</ele>
        <time>2018-07-18T11:56:26Z</time>
      </trkpt>
      <trkpt lat="47.78073" lon="-3.68776">
        <ele>5</ele>
        <time>2018-07-18T11:56:27Z</time>
      </trkpt>
      <trkpt lat="47.78068" lon="-3.68775">
        <ele>5</ele>
        <time>2018-07-18T11:56:28Z</time>
      </trkpt>
      <trkpt lat="47.78064" lon="-3.68774">
        <ele>5</ele>
        <time>2018-07-18T11:56:29Z</time>
      </trkpt>
      <trkpt lat="47.7806" lon="-3.68773">
        <ele>5</ele>
        <time>2018-07-18T11:56:30Z</time>
      </trkpt>
      <trkpt lat="47.78055" lon="-3.68772">
        <ele>5</ele>
        <time>2018-07-18T11:56:31Z</time>
      </trkpt>
      <trkpt lat="47.7805" lon="-3.6877">
        <ele>5</ele>
        <time>2018-07-18T11:56:32Z</time>
      </trkpt>
      <trkpt lat="47.78046" lon="-3.68766">
        <ele>5</ele>
        <time>2018-07-18T11:56:33Z</time>
      </trkpt>
      <trkpt lat="47.78043" lon="-3.68762">
        <ele>5</ele>
        <time>2018-07-18T11:56:34Z</time>
      </trkpt>
      <trkpt lat="47.78039" lon="-3.68757">
        <ele>5</ele>
        <time>2018-07-18T11:56:35Z</time>
      </trkpt>
      <trkpt lat="47.78035" lon="-3.68754">
        <ele>5</ele>
        <time>2018-07-18T11:56:36Z</time>
      </trkpt>
      <trkpt lat="47.78032" lon="-3.6875">
        <ele>5</ele>
        <time>2018-07-18T11:56:37Z</time>
      </trkpt>
      <trkpt lat="47.78029" lon="-3.68749">
        <ele>5</ele>
        <time>2018-07-18T11:56:38Z</time>
      </trkpt>
      <trkpt lat="47.78026" lon="-3.6875">
        <ele>5</ele>
        <time>2018-07-18T11:56:39Z</time>
      </trkpt>
      <trkpt lat="47.78023" lon="-3.6875">
        <ele>5</ele>
        <time>2018-07-18T11:56:40Z</time>
      </trkpt>
      <trkpt lat="47.78019" lon="-3.68748">
        <ele>5</ele>
        <time>2018-07-18T11:56:41Z</time>
      </trkpt>
      <trkpt lat="47.78015" lon="-3.68745">
        <ele>5</ele>
        <time>2018-07-18T11:56:42Z</time>
      </trkpt>
      <trkpt lat="47.78012" lon="-3.68742">
        <ele>5</ele>
        <time>2018-07-18T11:56:43Z</time>
      </trkpt>
      <trkpt lat="47.78009" lon="-3.68737">
        <ele>5</ele>
        <time>2018-07-18T11:56:44Z</time>
      </trkpt>
      <trkpt lat="47.78006" lon="-3.68732">
        <ele>5</ele>
        <time>2018-07-18T11:56:45Z</time>
      </trkpt>
      <trkpt lat="47.78003" lon="-3.68729">
        <ele>5</ele>
        <time>2018-07-18T11:56:46Z</time>
      </trkpt>
      <trkpt lat="47.77999" lon="-3.68727">
        <ele>5</ele>
        <time>2018-07-18T11:56:47Z</time>
      </trkpt>
      <trkpt lat="47.77995" lon="-3.68725">
        <ele>5</ele>
        <time>2018-07-18T11:56:48Z</time>
      </trkpt>
      <trkpt lat="47.77992" lon="-3.68721">
        <ele>5</ele>
        <time>2018-07-18T11:56:49Z</time>
      </trkpt>
      <trkpt lat="47.7799" lon="-3.68716">
        <ele>5</ele>
        <time>2018-07-18T11:56:50Z</time>
      </trkpt>
      <trkpt lat="47.77987" lon="-3.68713">
        <ele>5</ele>
        <time>2018-07-18T11:56:51Z</time>
      </trkpt>
      <trkpt lat="47.77983" lon="-3.68713">
        <ele>5</ele>
        <time>2018-07-18T11:56:52Z</time>
      </trkpt>
      <trkpt lat="47.77979" lon="-3.68714">
        <ele>5</ele>
        <time>2018-07-18T11:56:53Z</time>
      </trkpt>
      <trkpt lat="47.77976" lon="-3.68716">
        <ele>5</ele>
        <time>2018-07-18T11:56:54Z</time>
      </trkpt>
      <trkpt lat="47.77971" lon="-3.68715">
        <ele>4</ele>
        <time>2018-07-18T11:56:55Z</time>
      </trkpt>
      <trkpt lat="47.77968" lon="-3.68711">
        <ele>4</ele>
        <time>2018-07-18T11:56:56Z</time>
      </trkpt>
      <trkpt lat="47.77966" lon="-3.68706">
        <ele>4</ele>
        <time>2018-07-18T11:56:57Z</time>
      </trkpt>
      <trkpt lat="47.77965" lon="-3.68701">
        <ele>4</ele>
        <time>2018-07-18T11:56:58Z</time>
      </trkpt>
      <trkpt lat="47.77966" lon="-3.68695">
        <ele>4</ele>
        <time>2018-07-18T11:56:59Z</time>
      </trkpt>
      <trkpt lat="47.77969" lon="-3.68691">
        <ele>4</ele>
        <time>2018-07-18T11:57:00Z</time>
      </trkpt>
      <trkpt lat="47.77972" lon="-3.68689">
        <ele>4</ele>
        <time>2018-07-18T11:57:01Z</time>
      </trkpt>
      <trkpt lat="47.77976" lon="-3.68687">
        <ele>4</ele>
        <time>2018-07-18T11:57:02Z</time>
      </trkpt>
      <trkpt lat="47.7798" lon="-3.68686">
        <ele>4</ele>
        <time>2018-07-18T11:57:03Z</time>
      </trkpt>
      <trkpt lat="47.77984" lon="-3.68684">
        <ele>4</ele>
        <time>2018-07-18T11:57:04Z</time>
      </trkpt>
      <trkpt lat="47.77987" lon="-3.6868">
        <ele>4</ele>
        <time>2018-07-18T11:57:05Z</time>
      </trkpt>
      <trkpt lat="47.77988" lon="-3.68674">
        <ele>4</ele>
        <time>2018-07-18T11:57:06Z</time>
      </trkpt>
      <trkpt lat="47.77989" lon="-3.68668">
        <ele>4</ele>
        <time>2018-07-18T11:57:07Z</time>
      </trkpt>
      <trkpt lat="47.77989" lon="-3.68661">
        <ele>4</ele>
        <time>2018-07-18T11:57:08Z</time>
      </trkpt>
      <trkpt lat="47.77989" lon="-3.68654">
        <ele>4</ele>
        <time>2018-07-18T11:57:09Z</time>
      </trkpt>
      <trkpt lat="47.77989" lon="-3.68647">
        <ele>4</ele>
        <time>2018-07-18T11:57:10Z</time>
      </trkpt>
      <trkpt lat="47.77991" lon="-3.6864">
        <ele>4</ele>
        <time>2018-07-18T11:57:11Z</time>
      </trkpt>
      <trkpt lat="47.77993" lon="-3.68634">
        <ele>4</ele>
        <time>2018-07-18T11:57:12Z</time>
      </trkpt>
      <trkpt lat="47.77996" lon="-3.68628">
        <ele>4</ele>
        <time>2018-07-18T11:57:13Z</time>
      </trkpt>
      <trkpt lat="47.77999" lon="-3.68623">
        <ele>4</ele>
        <time>2018-07-18T11:57:14Z</time>
      </trkpt>
      <trkpt lat="47.78003" lon="-3.68617">
        <ele>5</ele>
        <time>2018-07-18T11:57:15Z</time>
      </trkpt>
      <trkpt lat="47.78006" lon="-3.68612">
        <ele>5</ele>
        <time>2018-07-18T11:57:16Z</time>
      </trkpt>
      <trkpt lat="47.78009" lon="-3.68606">
        <ele>5</ele>
        <time>2018-07-18T11:57:17Z</time>
      </trkpt>
      <trkpt lat="47.78011" lon="-3.68599">
        <ele>5</ele>
        <time>2018-07-18T11:57:18Z</time>
      </trkpt>
      <trkpt lat="47.78012" lon="-3.68592">
        <ele>5</ele>
        <time>2018-07-18T11:57:19Z</time>
      </trkpt>
      <trkpt lat="47.78013" lon="-3.68585">
        <ele>4</ele>
        <time>2018-07-18T11:57:20Z</time>
      </trkpt>
      <trkpt lat="47.78012" lon="-3.68577">
        <ele>4</ele>
        <time>2018-07-18T11:57:21Z</time>
      </trkpt>
      <trkpt lat="47.78011" lon="-3.68569">
        <ele>4</ele>
        <time>2018-07-18T11:57:22Z</time>
      </trkpt>
      <trkpt lat="47.78009" lon="-3.68562">
        <ele>4</ele>
        <time>2018-07-18T11:57:23Z</time>
      </trkpt>
      <trkpt lat="47.78006" lon="-3.68556">
        <ele>4</ele>
        <time>2018-07-18T11:57:24Z</time>
      </trkpt>
      <trkpt lat="47.78003" lon="-3.68551">
        <ele>4</ele>
        <time>2018-07-18T11:57:25Z</time>
      </trkpt>
      <trkpt lat="47.77999" lon="-3.68547">
        <ele>3</ele>
        <time>2018-07-18T11:57:26Z</time>
      </trkpt>
      <trkpt lat="47.77996" lon="-3.68543">
        <ele>3</ele>
        <time>2018-07-18T11:57:27Z</time>
      </trkpt>
      <trkpt lat="47.77993" lon="-3.68539">
        <ele>3</ele>
        <time>2018-07-18T11:57:28Z</time>
      </trkpt>
      <trkpt lat="47.7799" lon="-3.68534">
        <ele>3</ele>
        <time>2018-07-18T11:57:29Z</time>
      </trkpt>
      <trkpt lat="47.77987" lon="-3.68533">
        <ele>3</ele>
        <time>2018-07-18T11:57:30Z</time>
      </trkpt>
      <trkpt lat="47.77983" lon="-3.68532">
        <ele>3</ele>
        <time>2018-07-18T11:57:31Z</time>
      </trkpt>
      <trkpt lat="47.77979" lon="-3.68532">
        <ele>3</ele>
        <time>2018-07-18T11:57:32Z</time>
      </trkpt>
      <trkpt lat="47.77974" lon="-3.68534">
        <ele>3</ele>
        <time>2018-07-18T11:57:33Z</time>
      </trkpt>
      <trkpt lat="47.77969" lon="-3.68535">
        <ele>3</ele>
        <time>2018-07-18T11:57:34Z</time>
      </trkpt>
      <trkpt lat="47.77965" lon="-3.68535">
        <ele>3</ele>
        <time>2018-07-18T11:57:35Z</time>
      </trkpt>
      <trkpt lat="47.7796" lon="-3.68534">
        <ele>3</ele>
        <time>2018-07-18T11:57:36Z</time>
      </trkpt>
      <trkpt lat="47.77955" lon="-3.68532">
        <ele>3</ele>
        <time>2018-07-18T11:57:37Z</time>
      </trkpt>
      <trkpt lat="47.77951" lon="-3.6853">
        <ele>3</ele>
        <time>2018-07-18T11:57:38Z</time>
      </trkpt>
      <trkpt lat="47.77947" lon="-3.68527">
        <ele>3</ele>
        <time>2018-07-18T11:57:39Z</time>
      </trkpt>
      <trkpt lat="47.77944" lon="-3.68524">
        <ele>3</ele>
        <time>2018-07-18T11:57:40Z</time>
      </trkpt>
      <trkpt lat="47.7794" lon="-3.6852">
        <ele>3</ele>
        <time>2018-07-18T11:57:41Z</time>
      </trkpt>
      <trkpt lat="47.77938" lon="-3.68515">
        <ele>3</ele>
        <time>2018-07-18T11:57:42Z</time>
      </trkpt>
      <trkpt lat="47.77936" lon="-3.68509">
        <ele>3</ele>
        <time>2018-07-18T11:57:43Z</time>
      </trkpt>
      <trkpt lat="47.77937" lon="-3.68503">
        <ele>3</ele>
        <time>2018-07-18T11:57:44Z</time>
      </trkpt>
      <trkpt lat="47.77936" lon="-3.68497">
        <ele>3</ele>
        <time>2018-07-18T11:57:45Z</time>
      </trkpt>
      <trkpt lat="47.77934" lon="-3.68493">
        <ele>3</ele>
        <time>2018-07-18T11:57:46Z</time>
      </trkpt>
      <trkpt lat="47.77932" lon="-3.68489">
        <ele>3</ele>
        <time>2018-07-18T11:57:47Z</time>
      </trkpt>
      <trkpt lat="47.7793" lon="-3.68484">
        <ele>3</ele>
        <time>2018-07-18T11:57:48Z</time>
      </trkpt>
      <trkpt lat="47.77928" lon="-3.68478">
        <ele>3</ele>
        <time>2018-07-18T11:57:49Z</time>
      </trkpt>
      <trkpt lat="47.77927" lon="-3.68472">
        <ele>3</ele>
        <time>2018-07-18T11:57:50Z</time>
      </trkpt>
      <trkpt lat="47.77926" lon="-3.68465">
        <ele>3</ele>
        <time>2018-07-18T11:57:51Z</time>
      </trkpt>
      <trkpt lat="47.77926" lon="-3.68459">
        <ele>4</ele>
        <time>2018-07-18T11:57:52Z</time>
      </trkpt>
      <trkpt lat="47.77926" lon="-3.68452">
        <ele>4</ele>
        <time>2018-07-18T11:57:53Z</time>
      </trkpt>
      <trkpt lat="47.77927" lon="-3.68445">
        <ele>4</ele>
        <time>2018-07-18T11:57:54Z</time>
      </trkpt>
      <trkpt lat="47.77928" lon="-3.68438">
        <ele>4</ele>
        <time>2018-07-18T11:57:55Z</time>
      </trkpt>
      <trkpt lat="47.77928" lon="-3.68431">
        <ele>4</ele>
        <time>2018-07-18T11:57:56Z</time>
      </trkpt>
      <trkpt lat="47.77928" lon="-3.68425">
        <ele>4</ele>
        <time>2018-07-18T11:57:57Z</time>
      </trkpt>
      <trkpt lat="47.77929" lon="-3.68417">
        <ele>4</ele>
        <time>2018-07-18T11:57:58Z</time>
      </trkpt>
      <trkpt lat="47.77928" lon="-3.6841">
        <ele>4</ele>
        <time>2018-07-18T11:57:59Z</time>
      </trkpt>
      <trkpt lat="47.77928" lon="-3.68402">
        <ele>4</ele>
        <time>2018-07-18T11:58:00Z</time>
      </trkpt>
      <trkpt lat="47.77929" lon="-3.68395">
        <ele>4</ele>
        <time>2018-07-18T11:58:01Z</time>
      </trkpt>
      <trkpt lat="47.77931" lon="-3.68388">
        <ele>4</ele>
        <time>2018-07-18T11:58:02Z</time>
      </trkpt>
      <trkpt lat="47.77933" lon="-3.68381">
        <ele>4</ele>
        <time>2018-07-18T11:58:03Z</time>
      </trkpt>
      <trkpt lat="47.77936" lon="-3.68375">
        <ele>4</ele>
        <time>2018-07-18T11:58:04Z</time>
      </trkpt>
      <trkpt lat="47.7794" lon="-3.68372">
        <ele>4</ele>
        <time>2018-07-18T11:58:05Z</time>
      </trkpt>
      <trkpt lat="47.77944" lon="-3.68368">
        <ele>4</ele>
        <time>2018-07-18T11:58:06Z</time>
      </trkpt>
      <trkpt lat="47.77947" lon="-3.68364">
        <ele>5</ele>
        <time>2018-07-18T11:58:07Z</time>
      </trkpt>
      <trkpt lat="47.7795" lon="-3.6836">
        <ele>5</ele>
        <time>2018-07-18T11:58:08Z</time>
      </trkpt>
      <trkpt lat="47.77953" lon="-3.68357">
        <ele>5</ele>
        <time>2018-07-18T11:58:09Z</time>
      </trkpt>
      <trkpt lat="47.77956" lon="-3.68354">
        <ele>5</ele>
        <time>2018-07-18T11:58:10Z</time>
      </trkpt>
      <trkpt lat="47.77959" lon="-3.6835">
        <ele>5</ele>
        <time>2018-07-18T11:58:11Z</time>
      </trkpt>
      <trkpt lat="47.77962" lon="-3.68346">
        <ele>6</ele>
        <time>2018-07-18T11:58:12Z</time>
      </trkpt>
      <trkpt lat="47.77963" lon="-3.68342">
        <ele>6</ele>
        <time>2018-07-18T11:58:13Z</time>
      </trkpt>
      <trkpt lat="47.77965" lon="-3.68338">
        <ele>6</ele>
        <time>2018-07-18T11:58:14Z</time>
      </trkpt>
      <trkpt lat="47.77967" lon="-3.68333">
        <ele>5</ele>
        <time>2018-07-18T11:58:15Z</time>
      </trkpt>
      <trkpt lat="47.77969" lon="-3.68329">
        <ele>5</ele>
        <time>2018-07-18T11:58:16Z</time>
      </trkpt>
      <trkpt lat="47.7797" lon="-3.68324">
        <ele>5</ele>
        <time>2018-07-18T11:58:17Z</time>
      </trkpt>
      <trkpt lat="47.77971" lon="-3.6832">
        <ele>5</ele>
        <time>2018-07-18T11:58:18Z</time>
      </trkpt>
      <trkpt lat="47.7797" lon="-3.68317">
        <ele>5</ele>
        <time>2018-07-18T11:58:19Z</time>
      </trkpt>
      <trkpt lat="47.77969" lon="-3.68313">
        <ele>5</ele>
        <time>2018-07-18T11:58:20Z</time>
      </trkpt>
      <trkpt lat="47.77967" lon="-3.6831">
        <ele>4</ele>
        <time>2018-07-18T11:58:21Z</time>
      </trkpt>
      <trkpt lat="47.77965" lon="-3.68308">
        <ele>4</ele>
        <time>2018-07-18T11:58:22Z</time>
      </trkpt>
      <trkpt lat="47.77964" lon="-3.68306">
        <ele>4</ele>
        <time>2018-07-18T11:58:23Z</time>
      </trkpt>
      <trkpt lat="47.77962" lon="-3.68303">
        <ele>4</ele>
        <time>2018-07-18T11:58:24Z</time>
      </trkpt>
      <trkpt lat="47.77959" lon="-3.68302">
        <ele>4</ele>
        <time>2018-07-18T11:58:25Z</time>
      </trkpt>
      <trkpt lat="47.77957" lon="-3.68302">
        <ele>4</ele>
        <time>2018-07-18T11:58:26Z</time>
      </trkpt>
      <trkpt lat="47.77955" lon="-3.68301">
        <ele>5</ele>
        <time>2018-07-18T11:58:27Z</time>
      </trkpt>
      <trkpt lat="47.77952" lon="-3.68301">
        <ele>5</ele>
        <time>2018-07-18T11:58:28Z</time>
      </trkpt>
      <trkpt lat="47.77949" lon="-3.683">
        <ele>5</ele>
        <time>2018-07-18T11:58:29Z</time>
      </trkpt>
      <trkpt lat="47.77946" lon="-3.683">
        <ele>5</ele>
        <time>2018-07-18T11:58:30Z</time>
      </trkpt>
      <trkpt lat="47.77943" lon="-3.68299">
        <ele>5</ele>
        <time>2018-07-18T11:58:31Z</time>
      </trkpt>
      <trkpt lat="47.7794" lon="-3.68298">
        <ele>5</ele>
        <time>2018-07-18T11:58:32Z</time>
      </trkpt>
      <trkpt lat="47.77936" lon="-3.68298">
        <ele>5</ele>
        <time>2018-07-18T11:58:33Z</time>
      </trkpt>
      <trkpt lat="47.77932" lon="-3.68298">
        <ele>5</ele>
        <time>2018-07-18T11:58:34Z</time>
      </trkpt>
      <trkpt lat="47.77928" lon="-3.68298">
        <ele>5</ele>
        <time>2018-07-18T11:58:35Z</time>
      </trkpt>
      <trkpt lat="47.77923" lon="-3.68298">
        <ele>5</ele>
        <time>2018-07-18T11:58:36Z</time>
      </trkpt>
      <trkpt lat="47.7792" lon="-3.68298">
        <ele>5</ele>
        <time>2018-07-18T11:58:37Z</time>
      </trkpt>
      <trkpt lat="47.77916" lon="-3.68298">
        <ele>5</ele>
        <time>2018-07-18T11:58:38Z</time>
      </trkpt>
      <trkpt lat="47.77913" lon="-3.68298">
        <ele>5</ele>
        <time>2018-07-18T11:58:39Z</time>
      </trkpt>
      <trkpt lat="47.7791" lon="-3.68298">
        <ele>5</ele>
        <time>2018-07-18T11:58:40Z</time>
      </trkpt>
      <trkpt lat="47.77907" lon="-3.68299">
        <ele>5</ele>
        <time>2018-07-18T11:58:41Z</time>
      </trkpt>
      <trkpt lat="47.77904" lon="-3.683">
        <ele>5</ele>
        <time>2018-07-18T11:58:42Z</time>
      </trkpt>
      <trkpt lat="47.779" lon="-3.68301">
        <ele>5</ele>
        <time>2018-07-18T11:58:43Z</time>
      </trkpt>
      <trkpt lat="47.77896" lon="-3.68304">
        <ele>5</ele>
        <time>2018-07-18T11:58:44Z</time>
      </trkpt>
      <trkpt lat="47.77892" lon="-3.68304">
        <ele>5</ele>
        <time>2018-07-18T11:58:45Z</time>
      </trkpt>
      <trkpt lat="47.77888" lon="-3.68305">
        <ele>5</ele>
        <time>2018-07-18T11:58:46Z</time>
      </trkpt>
      <trkpt lat="47.77884" lon="-3.68306">
        <ele>5</ele>
        <time>2018-07-18T11:58:47Z</time>
      </trkpt>
      <trkpt lat="47.77881" lon="-3.68306">
        <ele>5</ele>
        <time>2018-07-18T11:58:48Z</time>
      </trkpt>
      <trkpt lat="47.77877" lon="-3.68306">
        <ele>5</ele>
        <time>2018-07-18T11:58:49Z</time>
      </trkpt>
      <trkpt lat="47.77873" lon="-3.68305">
        <ele>5</ele>
        <time>2018-07-18T11:58:50Z</time>
      </trkpt>
      <trkpt lat="47.77869" lon="-3.68304">
        <ele>6</ele>
        <time>2018-07-18T11:58:51Z</time>
      </trkpt>
      <trkpt lat="47.77866" lon="-3.68303">
        <ele>6</ele>
        <time>2018-07-18T11:58:52Z</time>
      </trkpt>
      <trkpt lat="47.77862" lon="-3.68302">
        <ele>6</ele>
        <time>2018-07-18T11:58:53Z</time>
      </trkpt>
      <trkpt lat="47.77858" lon="-3.683">
        <ele>6</ele>
        <time>2018-07-18T11:58:54Z</time>
      </trkpt>
      <trkpt lat="47.77854" lon="-3.68298">
        <ele>5</ele>
        <time>2018-07-18T11:58:55Z</time>
      </trkpt>
      <trkpt lat="47.7785" lon="-3.68295">
        <ele>5</ele>
        <time>2018-07-18T11:58:56Z</time>
      </trkpt>
      <trkpt lat="47.77845" lon="-3.68292">
        <ele>5</ele>
        <time>2018-07-18T11:58:57Z</time>
      </trkpt>
      <trkpt lat="47.77841" lon="-3.6829">
        <ele>5</ele>
        <time>2018-07-18T11:58:58Z</time>
      </trkpt>
      <trkpt lat="47.77838" lon="-3.68287">
        <ele>5</ele>
        <time>2018-07-18T11:58:59Z</time>
      </trkpt>
      <trkpt lat="47.77834" lon="-3.68284">
        <ele>5</ele>
        <time>2018-07-18T11:59:00Z</time>
      </trkpt>
      <trkpt lat="47.77831" lon="-3.6828">
        <ele>6</ele>
        <time>2018-07-18T11:59:01Z</time>
      </trkpt>
      <trkpt lat="47.77827" lon="-3.68277">
        <ele>6</ele>
        <time>2018-07-18T11:59:02Z</time>
      </trkpt>
      <trkpt lat="47.77824" lon="-3.68274">
        <ele>6</ele>
        <time>2018-07-18T11:59:03Z</time>
      </trkpt>
      <trkpt lat="47.7782" lon="-3.6827">
        <ele>6</ele>
        <time>2018-07-18T11:59:04Z</time>
      </trkpt>
      <trkpt lat="47.77816" lon="-3.68268">
        <ele>6</ele>
        <time>2018-07-18T11:59:05Z</time>
      </trkpt>
      <trkpt lat="47.77812" lon="-3.68265">
        <ele>6</ele>
        <time>2018-07-18T11:59:06Z</time>
      </trkpt>
      <trkpt lat="47.77807" lon="-3.68263">
        <ele>6</ele>
        <time>2018-07-18T11:59:07Z</time>
      </trkpt>
      <trkpt lat="47.77803" lon="-3.68261">
        <ele>6</ele>
        <time>2018-07-18T11:59:08Z</time>
      </trkpt>
      <trkpt lat="47.77799" lon="-3.68259">
        <ele>6</ele>
        <time>2018-07-18T11:59:09Z</time>
      </trkpt>
      <trkpt lat="47.77795" lon="-3.68258">
        <ele>7</ele>
        <time>2018-07-18T11:59:10Z</time>
      </trkpt>
      <trkpt lat="47.7779" lon="-3.68257">
        <ele>7</ele>
        <time>2018-07-18T11:59:11Z</time>
      </trkpt>
      <trkpt lat="47.77786" lon="-3.68255">
        <ele>7</ele>
        <time>2018-07-18T11:59:12Z</time>
      </trkpt>
      <trkpt lat="47.77783" lon="-3.68253">
        <ele>7</ele>
        <time>2018-07-18T11:59:13Z</time>
      </trkpt>
      <trkpt lat="47.77779" lon="-3.68251">
        <ele>7</ele>
        <time>2018-07-18T11:59:14Z</time>
      </trkpt>
      <trkpt lat="47.77776" lon="-3.68249">
        <ele>7</ele>
        <time>2018-07-18T11:59:15Z</time>
      </trkpt>
      <trkpt lat="47.77773" lon="-3.68246">
        <ele>7</ele>
        <time>2018-07-18T11:59:16Z</time>
      </trkpt>
      <trkpt lat="47.7777" lon="-3.68244">
        <ele>8</ele>
        <time>2018-07-18T11:59:17Z</time>
      </trkpt>
      <trkpt lat="47.77767" lon="-3.68243">
        <ele>8</ele>
        <time>2018-07-18T11:59:18Z</time>
      </trkpt>
      <trkpt lat="47.77765" lon="-3.68241">
        <ele>8</ele>
        <time>2018-07-18T11:59:19Z</time>
      </trkpt>
      <trkpt lat="47.77762" lon="-3.68239">
        <ele>8</ele>
        <time>2018-07-18T11:59:20Z</time>
      </trkpt>
      <trkpt lat="47.77761" lon="-3.68236">
        <ele>8</ele>
        <time>2018-07-18T11:59:21Z</time>
      </trkpt>
      <trkpt lat="47.77759" lon="-3.68232">
        <ele>8</ele>
        <time>2018-07-18T11:59:22Z</time>
      </trkpt>
      <trkpt lat="47.77758" lon="-3.68229">
        <ele>8</ele>
        <time>2018-07-18T11:59:23Z</time>
      </trkpt>
      <trkpt lat="47.77756" lon="-3.68225">
        <ele>8</ele>
        <time>2018-07-18T11:59:24Z</time>
      </trkpt>
      <trkpt lat="47.77754" lon="-3.68221">
        <ele>8</ele>
        <time>2018-07-18T11:59:25Z</time>
      </trkpt>
      <trkpt lat="47.77752" lon="-3.68217">
        <ele>8</ele>
        <time>2018-07-18T11:59:26Z</time>
      </trkpt>
      <trkpt lat="47.7775" lon="-3.68212">
        <ele>9</ele>
        <time>2018-07-18T11:59:27Z</time>
      </trkpt>
      <trkpt lat="47.77748" lon="-3.68208">
        <ele>9</ele>
        <time>2018-07-18T11:59:28Z</time>
      </trkpt>
      <trkpt lat="47.77747" lon="-3.68203">
        <ele>9</ele>
        <time>2018-07-18T11:59:29Z</time>
      </trkpt>
      <trkpt lat="47.77745" lon="-3.68198">
        <ele>9</ele>
        <time>2018-07-18T11:59:30Z</time>
      </trkpt>
      <trkpt lat="47.77744" lon="-3.68192">
        <ele>9</ele>
        <time>2018-07-18T11:59:31Z</time>
      </trkpt>
      <trkpt lat="47.77743" lon="-3.68187">
        <ele>9</ele>
        <time>2018-07-18T11:59:32Z</time>
      </trkpt>
      <trkpt lat="47.77743" lon="-3.68182">
        <ele>10</ele>
        <time>2018-07-18T11:59:33Z</time>
      </trkpt>
      <trkpt lat="47.77742" lon="-3.68176">
        <ele>10</ele>
        <time>2018-07-18T11:59:34Z</time>
      </trkpt>
      <trkpt lat="47.77742" lon="-3.68171">
        <ele>10</ele>
        <time>2018-07-18T11:59:35Z</time>
      </trkpt>
      <trkpt lat="47.77741" lon="-3.68165">
        <ele>10</ele>
        <time>2018-07-18T11:59:36Z</time>
      </trkpt>
      <trkpt lat="47.77739" lon="-3.68159">
        <ele>10</ele>
        <time>2018-07-18T11:59:37Z</time>
      </trkpt>
      <trkpt lat="47.77736" lon="-3.68154">
        <ele>10</ele>
        <time>2018-07-18T11:59:38Z</time>
      </trkpt>
      <trkpt lat="47.77733" lon="-3.68148">
        <ele>10</ele>
        <time>2018-07-18T11:59:39Z</time>
      </trkpt>
      <trkpt lat="47.7773" lon="-3.68142">
        <ele>9</ele>
        <time>2018-07-18T11:59:40Z</time>
      </trkpt>
      <trkpt lat="47.77728" lon="-3.68137">
        <ele>9</ele>
        <time>2018-07-18T11:59:41Z</time>
      </trkpt>
      <trkpt lat="47.77726" lon="-3.6813">
        <ele>9</ele>
        <time>2018-07-18T11:59:42Z</time>
      </trkpt>
      <trkpt lat="47.77724" lon="-3.68124">
        <ele>9</ele>
        <time>2018-07-18T11:59:43Z</time>
      </trkpt>
      <trkpt lat="47.77723" lon="-3.68118">
        <ele>9</ele>
        <time>2018-07-18T11:59:44Z</time>
      </trkpt>
      <trkpt lat="47.77722" lon="-3.68111">
        <ele>9</ele>
        <time>2018-07-18T11:59:45Z</time>
      </trkpt>
      <trkpt lat="47.7772" lon="-3.68104">
        <ele>9</ele>
        <time>2018-07-18T11:59:46Z</time>
      </trkpt>
      <trkpt lat="47.77717" lon="-3.68098">
        <ele>8</ele>
        <time>2018-07-18T11:59:47Z</time>
      </trkpt>
      <trkpt lat="47.77714" lon="-3.68092">
        <ele>8</ele>
        <time>2018-07-18T11:59:48Z</time>
      </trkpt>
      <trkpt lat="47.77713" lon="-3.68086">
        <ele>8</ele>
        <time>2018-07-18T11:59:49Z</time>
      </trkpt>
      <trkpt lat="47.77712" lon="-3.6808">
        <ele>8</ele>
        <time>2018-07-18T11:59:50Z</time>
      </trkpt>
      <trkpt lat="47.77711" lon="-3.68076">
        <ele>8</ele>
        <time>2018-07-18T11:59:51Z</time>
      </trkpt>
      <trkpt lat="47.77711" lon="-3.68071">
        <ele>8</ele>
        <time>2018-07-18T11:59:52Z</time>
      </trkpt>
      <trkpt lat="47.77711" lon="-3.68066">
        <ele>8</ele>
        <time>2018-07-18T11:59:53Z</time>
      </trkpt>
      <trkpt lat="47.77711" lon="-3.6806">
        <ele>8</ele>
        <time>2018-07-18T11:59:54Z</time>
      </trkpt>
      <trkpt lat="47.77712" lon="-3.68054">
        <ele>7</ele>
        <time>2018-07-18T11:59:55Z</time>
      </trkpt>
      <trkpt lat="47.77712" lon="-3.68048">
        <ele>8</ele>
        <time>2018-07-18T11:59:56Z</time>
      </trkpt>
      <trkpt lat="47.77714" lon="-3.68041">
        <ele>8</ele>
        <time>2018-07-18T11:59:57Z</time>
      </trkpt>
      <trkpt lat="47.77715" lon="-3.68035">
        <ele>8</ele>
        <time>2018-07-18T11:59:58Z</time>
      </trkpt>
      <trkpt lat="47.77716" lon="-3.68028">
        <ele>8</ele>
        <time>2018-07-18T11:59:59Z</time>
      </trkpt>
      <trkpt lat="47.77717" lon="-3.68021">
        <ele>8</ele>
        <time>2018-07-18T12:00:00Z</time>
      </trkpt>
      <trkpt lat="47.77717" lon="-3.68014">
        <ele>8</ele>
        <time>2018-07-18T12:00:01Z</time>
      </trkpt>
      <trkpt lat="47.77717" lon="-3.68007">
        <ele>7</ele>
        <time>2018-07-18T12:00:02Z</time>
      </trkpt>
      <trkpt lat="47.77717" lon="-3.67999">
        <ele>7</ele>
        <time>2018-07-18T12:00:03Z</time>
      </trkpt>
      <trkpt lat="47.77718" lon="-3.67992">
        <ele>7</ele>
        <time>2018-07-18T12:00:04Z</time>
      </trkpt>
      <trkpt lat="47.77719" lon="-3.67985">
        <ele>7</ele>
        <time>2018-07-18T12:00:05Z</time>
      </trkpt>
      <trkpt lat="47.77721" lon="-3.67978">
        <ele>7</ele>
        <time>2018-07-18T12:00:06Z</time>
      </trkpt>
      <trkpt lat="47.77722" lon="-3.67972">
        <ele>7</ele>
        <time>2018-07-18T12:00:07Z</time>
      </trkpt>
      <trkpt lat="47.77723" lon="-3.67965">
        <ele>7</ele>
        <time>2018-07-18T12:00:08Z</time>
      </trkpt>
      <trkpt lat="47.77723" lon="-3.67959">
        <ele>7</ele>
        <time>2018-07-18T12:00:09Z</time>
      </trkpt>
      <trkpt lat="47.77723" lon="-3.67952">
        <ele>7</ele>
        <time>2018-07-18T12:00:10Z</time>
      </trkpt>
      <trkpt lat="47.77724" lon="-3.67944">
        <ele>6</ele>
        <time>2018-07-18T12:00:11Z</time>
      </trkpt>
      <trkpt lat="47.77726" lon="-3.67936">
        <ele>6</ele>
        <time>2018-07-18T12:00:12Z</time>
      </trkpt>
      <trkpt lat="47.77728" lon="-3.67928">
        <ele>6</ele>
        <time>2018-07-18T12:00:13Z</time>
      </trkpt>
      <trkpt lat="47.7773" lon="-3.67922">
        <ele>6</ele>
        <time>2018-07-18T12:00:14Z</time>
      </trkpt>
      <trkpt lat="47.7773" lon="-3.67918">
        <ele>6</ele>
        <time>2018-07-18T12:00:15Z</time>
      </trkpt>
      <trkpt lat="47.77729" lon="-3.67913">
        <ele>6</ele>
        <time>2018-07-18T12:00:16Z</time>
      </trkpt>
      <trkpt lat="47.77726" lon="-3.67909">
        <ele>6</ele>
        <time>2018-07-18T12:00:17Z</time>
      </trkpt>
      <trkpt lat="47.77723" lon="-3.67905">
        <ele>5</ele>
        <time>2018-07-18T12:00:18Z</time>
      </trkpt>
      <trkpt lat="47.77718" lon="-3.67903">
        <ele>5</ele>
        <time>2018-07-18T12:00:19Z</time>
      </trkpt>
      <trkpt lat="47.77714" lon="-3.67899">
        <ele>5</ele>
        <time>2018-07-18T12:00:20Z</time>
      </trkpt>
      <trkpt lat="47.7771" lon="-3.67896">
        <ele>5</ele>
        <time>2018-07-18T12:00:21Z</time>
      </trkpt>
      <trkpt lat="47.77706" lon="-3.67893">
        <ele>5</ele>
        <time>2018-07-18T12:00:22Z</time>
      </trkpt>
      <trkpt lat="47.77702" lon="-3.67889">
        <ele>5</ele>
        <time>2018-07-18T12:00:23Z</time>
      </trkpt>
      <trkpt lat="47.77699" lon="-3.67885">
        <ele>5</ele>
        <time>2018-07-18T12:00:24Z</time>
      </trkpt>
      <trkpt lat="47.77696" lon="-3.67881">
        <ele>5</ele>
        <time>2018-07-18T12:00:25Z</time>
      </trkpt>
      <trkpt lat="47.77694" lon="-3.67876">
        <ele>5</ele>
        <time>2018-07-18T12:00:26Z</time>
      </trkpt>
      <trkpt lat="47.77691" lon="-3.67871">
        <ele>5</ele>
        <time>2018-07-18T12:00:27Z</time>
      </trkpt>
      <trkpt lat="47.7769" lon="-3.67866">
        <ele>5</ele>
        <time>2018-07-18T12:00:28Z</time>
      </trkpt>
      <trkpt lat="47.77687" lon="-3.67861">
        <ele>5</ele>
        <time>2018-07-18T12:00:29Z</time>
      </trkpt>
      <trkpt lat="47.77685" lon="-3.67856">
        <ele>6</ele>
        <time>2018-07-18T12:00:30Z</time>
      </trkpt>
      <trkpt lat="47.77683" lon="-3.6785">
        <ele>6</ele>
        <time>2018-07-18T12:00:31Z</time>
      </trkpt>
      <trkpt lat="47.77681" lon="-3.67844">
        <ele>6</ele>
        <time>2018-07-18T12:00:32Z</time>
      </trkpt>
      <trkpt lat="47.77678" lon="-3.67838">
        <ele>5</ele>
        <time>2018-07-18T12:00:33Z</time>
      </trkpt>
      <trkpt lat="47.77676" lon="-3.67831">
        <ele>5</ele>
        <time>2018-07-18T12:00:34Z</time>
      </trkpt>
      <trkpt lat="47.77674" lon="-3.67825">
        <ele>5</ele>
        <time>2018-07-18T12:00:35Z</time>
      </trkpt>
      <trkpt lat="47.77672" lon="-3.67818">
        <ele>5</ele>
        <time>2018-07-18T12:00:36Z</time>
      </trkpt>
      <trkpt lat="47.77669" lon="-3.67813">
        <ele>5</ele>
        <time>2018-07-18T12:00:37Z</time>
      </trkpt>
      <trkpt lat="47.77665" lon="-3.67808">
        <ele>5</ele>
        <time>2018-07-18T12:00:38Z</time>
      </trkpt>
      <trkpt lat="47.77663" lon="-3.67804">
        <ele>5</ele>
        <time>2018-07-18T12:00:39Z</time>
      </trkpt>
      <trkpt lat="47.77661" lon="-3.67798">
        <ele>5</ele>
        <time>2018-07-18T12:00:40Z</time>
      </trkpt>
      <trkpt lat="47.77661" lon="-3.67793">
        <ele>5</ele>
        <time>2018-07-18T12:00:41Z</time>
      </trkpt>
      <trkpt lat="47.77661" lon="-3.67788">
        <ele>5</ele>
        <time>2018-07-18T12:00:42Z</time>
      </trkpt>
      <trkpt lat="47.77661" lon="-3.67782">
        <ele>5</ele>
        <time>2018-07-18T12:00:43Z</time>
      </trkpt>
      <trkpt lat="47.77661" lon="-3.67776">
        <ele>5</ele>
        <time>2018-07-18T12:00:44Z</time>
      </trkpt>
      <trkpt lat="47.77662" lon="-3.6777">
        <ele>5</ele>
        <time>2018-07-18T12:00:45Z</time>
      </trkpt>
      <trkpt lat="47.77664" lon="-3.67764">
        <ele>5</ele>
        <time>2018-07-18T12:00:46Z</time>
      </trkpt>
      <trkpt lat="47.77664" lon="-3.67758">
        <ele>6</ele>
        <time>2018-07-18T12:00:47Z</time>
      </trkpt>
      <trkpt lat="47.77665" lon="-3.67752">
        <ele>6</ele>
        <time>2018-07-18T12:00:48Z</time>
      </trkpt>
      <trkpt lat="47.77665" lon="-3.67747">
        <ele>6</ele>
        <time>2018-07-18T12:00:49Z</time>
      </trkpt>
      <trkpt lat="47.77664" lon="-3.67743">
        <ele>6</ele>
        <time>2018-07-18T12:00:50Z</time>
      </trkpt>
      <trkpt lat="47.77661" lon="-3.67742">
        <ele>6</ele>
        <time>2018-07-18T12:00:51Z</time>
      </trkpt>
      <trkpt lat="47.77657" lon="-3.67742">
        <ele>6</ele>
        <time>2018-07-18T12:00:52Z</time>
      </trkpt>
      <trkpt lat="47.77654" lon="-3.67741">
        <ele>6</ele>
        <time>2018-07-18T12:00:53Z</time>
      </trkpt>
      <trkpt lat="47.7765" lon="-3.67738">
        <ele>6</ele>
        <time>2018-07-18T12:00:54Z</time>
      </trkpt>
      <trkpt lat="47.77647" lon="-3.67735">
        <ele>6</ele>
        <time>2018-07-18T12:00:55Z</time>
      </trkpt>
      <trkpt lat="47.77644" lon="-3.6773">
        <ele>6</ele>
        <time>2018-07-18T12:00:56Z</time>
      </trkpt>
      <trkpt lat="47.77643" lon="-3.67725">
        <ele>6</ele>
        <time>2018-07-18T12:00:57Z</time>
      </trkpt>
      <trkpt lat="47.77642" lon="-3.67719">
        <ele>6</ele>
        <time>2018-07-18T12:00:58Z</time>
      </trkpt>
      <trkpt lat="47.77641" lon="-3.67712">
        <ele>6</ele>
        <time>2018-07-18T12:00:59Z</time>
      </trkpt>
      <trkpt lat="47.7764" lon="-3.67705">
        <ele>6</ele>
        <time>2018-07-18T12:01:00Z</time>
      </trkpt>
      <trkpt lat="47.7764" lon="-3.67698">
        <ele>6</ele>
        <time>2018-07-18T12:01:01Z</time>
      </trkpt>
      <trkpt lat="47.77641" lon="-3.67692">
        <ele>6</ele>
        <time>2018-07-18T12:01:02Z</time>
      </trkpt>
      <trkpt lat="47.77644" lon="-3.67687">
        <ele>6</ele>
        <time>2018-07-18T12:01:03Z</time>
      </trkpt>
      <trkpt lat="47.77647" lon="-3.67682">
        <ele>6</ele>
        <time>2018-07-18T12:01:04Z</time>
      </trkpt>
      <trkpt lat="47.77649" lon="-3.67678">
        <ele>6</ele>
        <time>2018-07-18T12:01:05Z</time>
      </trkpt>
      <trkpt lat="47.77651" lon="-3.67673">
        <ele>6</ele>
        <time>2018-07-18T12:01:06Z</time>
      </trkpt>
      <trkpt lat="47.77654" lon="-3.67668">
        <ele>6</ele>
        <time>2018-07-18T12:01:07Z</time>
      </trkpt>
      <trkpt lat="47.77657" lon="-3.67663">
        <ele>6</ele>
        <time>2018-07-18T12:01:08Z</time>
      </trkpt>
      <trkpt lat="47.77659" lon="-3.67659">
        <ele>6</ele>
        <time>2018-07-18T12:01:09Z</time>
      </trkpt>
      <trkpt lat="47.77661" lon="-3.67653">
        <ele>6</ele>
        <time>2018-07-18T12:01:10Z</time>
      </trkpt>
      <trkpt lat="47.77661" lon="-3.67647">
        <ele>5</ele>
        <time>2018-07-18T12:01:11Z</time>
      </trkpt>
      <trkpt lat="47.77661" lon="-3.6764">
        <ele>5</ele>
        <time>2018-07-18T12:01:12Z</time>
      </trkpt>
      <trkpt lat="47.77662" lon="-3.67634">
        <ele>5</ele>
        <time>2018-07-18T12:01:13Z</time>
      </trkpt>
      <trkpt lat="47.77662" lon="-3.67627">
        <ele>5</ele>
        <time>2018-07-18T12:01:14Z</time>
      </trkpt>
      <trkpt lat="47.77662" lon="-3.6762">
        <ele>5</ele>
        <time>2018-07-18T12:01:15Z</time>
      </trkpt>
      <trkpt lat="47.77661" lon="-3.67613">
        <ele>5</ele>
        <time>2018-07-18T12:01:16Z</time>
      </trkpt>
      <trkpt lat="47.7766" lon="-3.67606">
        <ele>4</ele>
        <time>2018-07-18T12:01:17Z</time>
      </trkpt>
      <trkpt lat="47.7766" lon="-3.67599">
        <ele>4</ele>
        <time>2018-07-18T12:01:18Z</time>
      </trkpt>
      <trkpt lat="47.77661" lon="-3.67592">
        <ele>4</ele>
        <time>2018-07-18T12:01:19Z</time>
      </trkpt>
      <trkpt lat="47.77663" lon="-3.67585">
        <ele>4</ele>
        <time>2018-07-18T12:01:20Z</time>
      </trkpt>
      <trkpt lat="47.77666" lon="-3.6758">
        <ele>4</ele>
        <time>2018-07-18T12:01:21Z</time>
      </trkpt>
      <trkpt lat="47.77669" lon="-3.67575">
        <ele>4</ele>
        <time>2018-07-18T12:01:22Z</time>
      </trkpt>
      <trkpt lat="47.77673" lon="-3.67571">
        <ele>3</ele>
        <time>2018-07-18T12:01:23Z</time>
      </trkpt>
      <trkpt lat="47.77674" lon="-3.67566">
        <ele>3</ele>
        <time>2018-07-18T12:01:24Z</time>
      </trkpt>
      <trkpt lat="47.77674" lon="-3.67561">
        <ele>4</ele>
        <time>2018-07-18T12:01:25Z</time>
      </trkpt>
      <trkpt lat="47.77674" lon="-3.67555">
        <ele>4</ele>
        <time>2018-07-18T12:01:26Z</time>
      </trkpt>
      <trkpt lat="47.77673" lon="-3.6755">
        <ele>4</ele>
        <time>2018-07-18T12:01:27Z</time>
      </trkpt>
      <trkpt lat="47.77671" lon="-3.67544">
        <ele>4</ele>
        <time>2018-07-18T12:01:28Z</time>
      </trkpt>
      <trkpt lat="47.77669" lon="-3.67538">
        <ele>4</ele>
        <time>2018-07-18T12:01:29Z</time>
      </trkpt>
      <trkpt lat="47.77668" lon="-3.67532">
        <ele>4</ele>
        <time>2018-07-18T12:01:30Z</time>
      </trkpt>
      <trkpt lat="47.77668" lon="-3.67525">
        <ele>4</ele>
        <time>2018-07-18T12:01:31Z</time>
      </trkpt>
      <trkpt lat="47.77669" lon="-3.67519">
        <ele>4</ele>
        <time>2018-07-18T12:01:32Z</time>
      </trkpt>
      <trkpt lat="47.77671" lon="-3.67513">
        <ele>4</ele>
        <time>2018-07-18T12:01:33Z</time>
      </trkpt>
      <trkpt lat="47.77672" lon="-3.67507">
        <ele>4</ele>
        <time>2018-07-18T12:01:34Z</time>
      </trkpt>
      <trkpt lat="47.77671" lon="-3.67502">
        <ele>4</ele>
        <time>2018-07-18T12:01:35Z</time>
      </trkpt>
      <trkpt lat="47.77669" lon="-3.67498">
        <ele>4</ele>
        <time>2018-07-18T12:01:36Z</time>
      </trkpt>
      <trkpt lat="47.77666" lon="-3.67494">
        <ele>4</ele>
        <time>2018-07-18T12:01:37Z</time>
      </trkpt>
      <trkpt lat="47.77664" lon="-3.6749">
        <ele>4</ele>
        <time>2018-07-18T12:01:38Z</time>
      </trkpt>
      <trkpt lat="47.77662" lon="-3.67484">
        <ele>4</ele>
        <time>2018-07-18T12:01:39Z</time>
      </trkpt>
      <trkpt lat="47.77661" lon="-3.67478">
        <ele>4</ele>
        <time>2018-07-18T12:01:40Z</time>
      </trkpt>
      <trkpt lat="47.77661" lon="-3.67472">
        <ele>4</ele>
        <time>2018-07-18T12:01:41Z</time>
      </trkpt>
      <trkpt lat="47.77661" lon="-3.67466">
        <ele>4</ele>
        <time>2018-07-18T12:01:42Z</time>
      </trkpt>
      <trkpt lat="47.77661" lon="-3.6746">
        <ele>4</ele>
        <time>2018-07-18T12:01:43Z</time>
      </trkpt>
      <trkpt lat="47.77661" lon="-3.67455">
        <ele>5</ele>
        <time>2018-07-18T12:01:44Z</time>
      </trkpt>
      <trkpt lat="47.77662" lon="-3.67449">
        <ele>5</ele>
        <time>2018-07-18T12:01:45Z</time>
      </trkpt>
      <trkpt lat="47.77663" lon="-3.67443">
        <ele>5</ele>
        <time>2018-07-18T12:01:46Z</time>
      </trkpt>
      <trkpt lat="47.77664" lon="-3.67438">
        <ele>5</ele>
        <time>2018-07-18T12:01:47Z</time>
      </trkpt>
      <trkpt lat="47.77666" lon="-3.67432">
        <ele>5</ele>
        <time>2018-07-18T12:01:48Z</time>
      </trkpt>
      <trkpt lat="47.77667" lon="-3.67427">
        <ele>5</ele>
        <time>2018-07-18T12:01:49Z</time>
      </trkpt>
      <trkpt lat="47.77669" lon="-3.67423">
        <ele>5</ele>
        <time>2018-07-18T12:01:50Z</time>
      </trkpt>
      <trkpt lat="47.77671" lon="-3.67419">
        <ele>5</ele>
        <time>2018-07-18T12:01:51Z</time>
      </trkpt>
      <trkpt lat="47.77674" lon="-3.67417">
        <ele>5</ele>
        <time>2018-07-18T12:01:52Z</time>
      </trkpt>
      <trkpt lat="47.77677" lon="-3.67416">
        <ele>5</ele>
        <time>2018-07-18T12:01:53Z</time>
      </trkpt>
      <trkpt lat="47.7768" lon="-3.67415">
        <ele>5</ele>
        <time>2018-07-18T12:01:54Z</time>
      </trkpt>
      <trkpt lat="47.77682" lon="-3.67412">
        <ele>5</ele>
        <time>2018-07-18T12:01:55Z</time>
      </trkpt>
      <trkpt lat="47.77684" lon="-3.67409">
        <ele>5</ele>
        <time>2018-07-18T12:01:56Z</time>
      </trkpt>
      <trkpt lat="47.77687" lon="-3.67405">
        <ele>6</ele>
        <time>2018-07-18T12:01:57Z</time>
      </trkpt>
      <trkpt lat="47.7769" lon="-3.67403">
        <ele>6</ele>
        <time>2018-07-18T12:01:58Z</time>
      </trkpt>
      <trkpt lat="47.77694" lon="-3.67403">
        <ele>6</ele>
        <time>2018-07-18T12:01:59Z</time>
      </trkpt>
      <trkpt lat="47.77697" lon="-3.67403">
        <ele>6</ele>
        <time>2018-07-18T12:02:00Z</time>
      </trkpt>
      <trkpt lat="47.77701" lon="-3.67402">
        <ele>6</ele>
        <time>2018-07-18T12:02:01Z</time>
      </trkpt>
      <trkpt lat="47.77704" lon="-3.674">
        <ele>7</ele>
        <time>2018-07-18T12:02:02Z</time>
      </trkpt>
      <trkpt lat="47.77705" lon="-3.67395">
        <ele>7</ele>
        <time>2018-07-18T12:02:03Z</time>
      </trkpt>
      <trkpt lat="47.77706" lon="-3.6739">
        <ele>7</ele>
        <time>2018-07-18T12:02:04Z</time>
      </trkpt>
      <trkpt lat="47.77704" lon="-3.67385">
        <ele>7</ele>
        <time>2018-07-18T12:02:05Z</time>
      </trkpt>
      <trkpt lat="47.77703" lon="-3.67379">
        <ele>7</ele>
        <time>2018-07-18T12:02:06Z</time>
      </trkpt>
      <trkpt lat="47.77701" lon="-3.67374">
        <ele>7</ele>
        <time>2018-07-18T12:02:07Z</time>
      </trkpt>
      <trkpt lat="47.77701" lon="-3.67368">
        <ele>6</ele>
        <time>2018-07-18T12:02:08Z</time>
      </trkpt>
      <trkpt lat="47.77703" lon="-3.67363">
        <ele>6</ele>
        <time>2018-07-18T12:02:09Z</time>
      </trkpt>
      <trkpt lat="47.77705" lon="-3.6736">
        <ele>6</ele>
        <time>2018-07-18T12:02:10Z</time>
      </trkpt>
      <trkpt lat="47.77707" lon="-3.67355">
        <ele>6</ele>
        <time>2018-07-18T12:02:11Z</time>
      </trkpt>
      <trkpt lat="47.77709" lon="-3.6735">
        <ele>6</ele>
        <time>2018-07-18T12:02:12Z</time>
      </trkpt>
      <trkpt lat="47.77711" lon="-3.67344">
        <ele>6</ele>
        <time>2018-07-18T12:02:13Z</time>
      </trkpt>
      <trkpt lat="47.77712" lon="-3.67338">
        <ele>6</ele>
        <time>2018-07-18T12:02:14Z</time>
      </trkpt>
      <trkpt lat="47.77713" lon="-3.67331">
        <ele>6</ele>
        <time>2018-07-18T12:02:15Z</time>
      </trkpt>
      <trkpt lat="47.77715" lon="-3.67325">
        <ele>6</ele>
        <time>2018-07-18T12:02:16Z</time>
      </trkpt>
      <trkpt lat="47.77717" lon="-3.67318">
        <ele>6</ele>
        <time>2018-07-18T12:02:17Z</time>
      </trkpt>
      <trkpt lat="47.77719" lon="-3.67311">
        <ele>6</ele>
        <time>2018-07-18T12:02:18Z</time>
      </trkpt>
      <trkpt lat="47.77722" lon="-3.67304">
        <ele>6</ele>
        <time>2018-07-18T12:02:19Z</time>
      </trkpt>
      <trkpt lat="47.77725" lon="-3.67299">
        <ele>6</ele>
        <time>2018-07-18T12:02:20Z</time>
      </trkpt>
      <trkpt lat="47.7773" lon="-3.67296">
        <ele>6</ele>
        <time>2018-07-18T12:02:21Z</time>
      </trkpt>
      <trkpt lat="47.77734" lon="-3.67294">
        <ele>6</ele>
        <time>2018-07-18T12:02:22Z</time>
      </trkpt>
      <trkpt lat="47.77739" lon="-3.67293">
        <ele>6</ele>
        <time>2018-07-18T12:02:23Z</time>
      </trkpt>
      <trkpt lat="47.77744" lon="-3.67292">
        <ele>6</ele>
        <time>2018-07-18T12:02:24Z</time>
      </trkpt>
      <trkpt lat="47.77749" lon="-3.67292">
        <ele>6</ele>
        <time>2018-07-18T12:02:25Z</time>
      </trkpt>
      <trkpt lat="47.77753" lon="-3.67291">
        <ele>6</ele>
        <time>2018-07-18T12:02:26Z</time>
      </trkpt>
      <trkpt lat="47.77758" lon="-3.6729">
        <ele>6</ele>
        <time>2018-07-18T12:02:27Z</time>
      </trkpt>
      <trkpt lat="47.77762" lon="-3.67289">
        <ele>6</ele>
        <time>2018-07-18T12:02:28Z</time>
      </trkpt>
      <trkpt lat="47.77767" lon="-3.67287">
        <ele>6</ele>
        <time>2018-07-18T12:02:29Z</time>
      </trkpt>
      <trkpt lat="47.77771" lon="-3.67283">
        <ele>6</ele>
        <time>2018-07-18T12:02:30Z</time>
      </trkpt>
      <trkpt lat="47.77774" lon="-3.67278">
        <ele>6</ele>
        <time>2018-07-18T12:02:31Z</time>
      </trkpt>
      <trkpt lat="47.77778" lon="-3.67272">
        <ele>6</ele>
        <time>2018-07-18T12:02:32Z</time>
      </trkpt>
      <trkpt lat="47.77781" lon="-3.67267">
        <ele>6</ele>
        <time>2018-07-18T12:02:33Z</time>
      </trkpt>
      <trkpt lat="47.77785" lon="-3.67263">
        <ele>6</ele>
        <time>2018-07-18T12:02:34Z</time>
      </trkpt>
      <trkpt lat="47.77789" lon="-3.67258">
        <ele>6</ele>
        <time>2018-07-18T12:02:35Z</time>
      </trkpt>
      <trkpt lat="47.77792" lon="-3.67253">
        <ele>6</ele>
        <time>2018-07-18T12:02:36Z</time>
      </trkpt>
      <trkpt lat="47.77796" lon="-3.67248">
        <ele>6</ele>
        <time>2018-07-18T12:02:37Z</time>
      </trkpt>
      <trkpt lat="47.77801" lon="-3.67245">
        <ele>6</ele>
        <time>2018-07-18T12:02:38Z</time>
      </trkpt>
      <trkpt lat="47.77805" lon="-3.67243">
        <ele>6</ele>
        <time>2018-07-18T12:02:39Z</time>
      </trkpt>
      <trkpt lat="47.77809" lon="-3.67241">
        <ele>6</ele>
        <time>2018-07-18T12:02:40Z</time>
      </trkpt>
      <trkpt lat="47.77814" lon="-3.67239">
        <ele>6</ele>
        <time>2018-07-18T12:02:41Z</time>
      </trkpt>
      <trkpt lat="47.77819" lon="-3.67237">
        <ele>6</ele>
        <time>2018-07-18T12:02:42Z</time>
      </trkpt>
      <trkpt lat="47.77823" lon="-3.67236">
        <ele>6</ele>
        <time>2018-07-18T12:02:43Z</time>
      </trkpt>
      <trkpt lat="47.77828" lon="-3.67237">
        <ele>6</ele>
        <time>2018-07-18T12:02:44Z</time>
      </trkpt>
      <trkpt lat="47.77831" lon="-3.67239">
        <ele>6</ele>
        <time>2018-07-18T12:02:45Z</time>
      </trkpt>
      <trkpt lat="47.77835" lon="-3.67241">
        <ele>6</ele>
        <time>2018-07-18T12:02:46Z</time>
      </trkpt>
      <trkpt lat="47.77839" lon="-3.67243">
        <ele>6</ele>
        <time>2018-07-18T12:02:47Z</time>
      </trkpt>
      <trkpt lat="47.77843" lon="-3.67245">
        <ele>6</ele>
        <time>2018-07-18T12:02:48Z</time>
      </trkpt>
      <trkpt lat="47.77847" lon="-3.67247">
        <ele>6</ele>
        <time>2018-07-18T12:02:49Z</time>
      </trkpt>
      <trkpt lat="47.77851" lon="-3.6725">
        <ele>6</ele>
        <time>2018-07-18T12:02:50Z</time>
      </trkpt>
      <trkpt lat="47.77854" lon="-3.67253">
        <ele>7</ele>
        <time>2018-07-18T12:02:51Z</time>
      </trkpt>
      <trkpt lat="47.77858" lon="-3.67256">
        <ele>7</ele>
        <time>2018-07-18T12:02:52Z</time>
      </trkpt>
      <trkpt lat="47.77861" lon="-3.6726">
        <ele>7</ele>
        <time>2018-07-18T12:02:53Z</time>
      </trkpt>
      <trkpt lat="47.77865" lon="-3.67263">
        <ele>7</ele>
        <time>2018-07-18T12:02:54Z</time>
      </trkpt>
      <trkpt lat="47.7787" lon="-3.67265">
        <ele>7</ele>
        <time>2018-07-18T12:02:55Z</time>
      </trkpt>
      <trkpt lat="47.77874" lon="-3.67266">
        <ele>7</ele>
        <time>2018-07-18T12:02:56Z</time>
      </trkpt>
      <trkpt lat="47.77878" lon="-3.67267">
        <ele>7</ele>
        <time>2018-07-18T12:02:57Z</time>
      </trkpt>
      <trkpt lat="47.77883" lon="-3.67267">
        <ele>7</ele>
        <time>2018-07-18T12:02:58Z</time>
      </trkpt>
      <trkpt lat="47.77887" lon="-3.67268">
        <ele>7</ele>
        <time>2018-07-18T12:02:59Z</time>
      </trkpt>
      <trkpt lat="47.7789" lon="-3.67269">
        <ele>7</ele>
        <time>2018-07-18T12:03:00Z</time>
      </trkpt>
      <trkpt lat="47.77894" lon="-3.67271">
        <ele>7</ele>
        <time>2018-07-18T12:03:01Z</time>
      </trkpt>
      <trkpt lat="47.77898" lon="-3.67273">
        <ele>7</ele>
        <time>2018-07-18T12:03:02Z</time>
      </trkpt>
      <trkpt lat="47.77902" lon="-3.67275">
        <ele>7</ele>
        <time>2018-07-18T12:03:03Z</time>
      </trkpt>
      <trkpt lat="47.77905" lon="-3.67278">
        <ele>7</ele>
        <time>2018-07-18T12:03:04Z</time>
      </trkpt>
      <trkpt lat="47.77909" lon="-3.67281">
        <ele>7</ele>
        <time>2018-07-18T12:03:05Z</time>
      </trkpt>
      <trkpt lat="47.77912" lon="-3.67283">
        <ele>7</ele>
        <time>2018-07-18T12:03:06Z</time>
      </trkpt>
      <trkpt lat="47.77916" lon="-3.67283">
        <ele>7</ele>
        <time>2018-07-18T12:03:07Z</time>
      </trkpt>
      <trkpt lat="47.7792" lon="-3.67283">
        <ele>7</ele>
        <time>2018-07-18T12:03:08Z</time>
      </trkpt>
      <trkpt lat="47.77924" lon="-3.67282">
        <ele>7</ele>
        <time>2018-07-18T12:03:09Z</time>
      </trkpt>
      <trkpt lat="47.77927" lon="-3.67281">
        <ele>7</ele>
        <time>2018-07-18T12:03:10Z</time>
      </trkpt>
      <trkpt lat="47.77931" lon="-3.6728">
        <ele>7</ele>
        <time>2018-07-18T12:03:11Z</time>
      </trkpt>
      <trkpt lat="47.77934" lon="-3.67279">
        <ele>7</ele>
        <time>2018-07-18T12:03:12Z</time>
      </trkpt>
      <trkpt lat="47.77938" lon="-3.67279">
        <ele>7</ele>
        <time>2018-07-18T12:03:13Z</time>
      </trkpt>
      <trkpt lat="47.77941" lon="-3.67278">
        <ele>8</ele>
        <time>2018-07-18T12:03:14Z</time>
      </trkpt>
      <trkpt lat="47.77945" lon="-3.67277">
        <ele>8</ele>
        <time>2018-07-18T12:03:15Z</time>
      </trkpt>
      <trkpt lat="47.77949" lon="-3.67276">
        <ele>8</ele>
        <time>2018-07-18T12:03:16Z</time>
      </trkpt>
      <trkpt lat="47.77953" lon="-3.67275">
        <ele>8</ele>
        <time>2018-07-18T12:03:17Z</time>
      </trkpt>
      <trkpt lat="47.77956" lon="-3.67274">
        <ele>8</ele>
        <time>2018-07-18T12:03:18Z</time>
      </trkpt>
      <trkpt lat="47.77959" lon="-3.67273">
        <ele>8</ele>
        <time>2018-07-18T12:03:19Z</time>
      </trkpt>
      <trkpt lat="47.77962" lon="-3.67272">
        <ele>8</ele>
        <time>2018-07-18T12:03:20Z</time>
      </trkpt>
      <trkpt lat="47.77965" lon="-3.67272">
        <ele>8</ele>
        <time>2018-07-18T12:03:21Z</time>
      </trkpt>
      <trkpt lat="47.77966" lon="-3.67269">
        <ele>8</ele>
        <time>2018-07-18T12:03:22Z</time>
      </trkpt>
      <trkpt lat="47.77968" lon="-3.67267">
        <ele>8</ele>
        <time>2018-07-18T12:03:23Z</time>
      </trkpt>
      <trkpt lat="47.77969" lon="-3.67265">
        <ele>9</ele>
        <time>2018-07-18T12:03:24Z</time>
      </trkpt>
      <trkpt lat="47.7797" lon="-3.67262">
        <ele>9</ele>
        <time>2018-07-18T12:03:25Z</time>
      </trkpt>
      <trkpt lat="47.77971" lon="-3.6726">
        <ele>9</ele>
        <time>2018-07-18T12:03:26Z</time>
      </trkpt>
      <trkpt lat="47.77973" lon="-3.67258">
        <ele>9</ele>
        <time>2018-07-18T12:03:27Z</time>
      </trkpt>
      <trkpt lat="47.77974" lon="-3.67255">
        <ele>9</ele>
        <time>2018-07-18T12:03:28Z</time>
      </trkpt>
      <trkpt lat="47.77976" lon="-3.67252">
        <ele>9</ele>
        <time>2018-07-18T12:03:29Z</time>
      </trkpt>
      <trkpt lat="47.77977" lon="-3.67249">
        <ele>9</ele>
        <time>2018-07-18T12:03:30Z</time>
      </trkpt>
      <trkpt lat="47.77979" lon="-3.67246">
        <ele>10</ele>
        <time>2018-07-18T12:03:31Z</time>
      </trkpt>
      <trkpt lat="47.77981" lon="-3.67244">
        <ele>10</ele>
        <time>2018-07-18T12:03:32Z</time>
      </trkpt>
      <trkpt lat="47.77984" lon="-3.67242">
        <ele>10</ele>
        <time>2018-07-18T12:03:33Z</time>
      </trkpt>
      <trkpt lat="47.77986" lon="-3.6724">
        <ele>10</ele>
        <time>2018-07-18T12:03:34Z</time>
      </trkpt>
      <trkpt lat="47.77989" lon="-3.67239">
        <ele>10</ele>
        <time>2018-07-18T12:03:35Z</time>
      </trkpt>
      <trkpt lat="47.77991" lon="-3.67238">
        <ele>10</ele>
        <time>2018-07-18T12:03:36Z</time>
      </trkpt>
      <trkpt lat="47.77994" lon="-3.67237">
        <ele>11</ele>
        <time>2018-07-18T12:03:37Z</time>
      </trkpt>
      <trkpt lat="47.77997" lon="-3.67235">
        <ele>11</ele>
        <time>2018-07-18T12:03:38Z</time>
      </trkpt>
      <trkpt lat="47.77999" lon="-3.67234">
        <ele>11</ele>
        <time>2018-07-18T12:03:39Z</time>
      </trkpt>
      <trkpt lat="47.78002" lon="-3.67233">
        <ele>11</ele>
        <time>2018-07-18T12:03:40Z</time>
      </trkpt>
      <trkpt lat="47.78005" lon="-3.67231">
        <ele>12</ele>
        <time>2018-07-18T12:03:41Z</time>
      </trkpt>
      <trkpt lat="47.78007" lon="-3.67229">
        <ele>12</ele>
        <time>2018-07-18T12:03:42Z</time>
      </trkpt>
      <trkpt lat="47.78009" lon="-3.67227">
        <ele>12</ele>
        <time>2018-07-18T12:03:43Z</time>
      </trkpt>
      <trkpt lat="47.78012" lon="-3.67224">
        <ele>12</ele>
        <time>2018-07-18T12:03:44Z</time>
      </trkpt>
      <trkpt lat="47.78014" lon="-3.67222">
        <ele>13</ele>
        <time>2018-07-18T12:03:45Z</time>
      </trkpt>
      <trkpt lat="47.78016" lon="-3.6722">
        <ele>13</ele>
        <time>2018-07-18T12:03:46Z</time>
      </trkpt>
      <trkpt lat="47.78019" lon="-3.67217">
        <ele>13</ele>
        <time>2018-07-18T12:03:47Z</time>
      </trkpt>
      <trkpt lat="47.78022" lon="-3.67216">
        <ele>13</ele>
        <time>2018-07-18T12:03:48Z</time>
      </trkpt>
      <trkpt lat="47.78025" lon="-3.67214">
        <ele>13</ele>
        <time>2018-07-18T12:03:49Z</time>
      </trkpt>
      <trkpt lat="47.78027" lon="-3.67213">
        <ele>13</ele>
        <time>2018-07-18T12:03:50Z</time>
      </trkpt>
      <trkpt lat="47.7803" lon="-3.67211">
        <ele>13</ele>
        <time>2018-07-18T12:03:51Z</time>
      </trkpt>
      <trkpt lat="47.78033" lon="-3.6721">
        <ele>13</ele>
        <time>2018-07-18T12:03:52Z</time>
      </trkpt>
      <trkpt lat="47.78035" lon="-3.67209">
        <ele>14</ele>
        <time>2018-07-18T12:03:53Z</time>
      </trkpt>
      <trkpt lat="47.78038" lon="-3.67207">
        <ele>14</ele>
        <time>2018-07-18T12:03:54Z</time>
      </trkpt>
      <trkpt lat="47.78041" lon="-3.67206">
        <ele>14</ele>
        <time>2018-07-18T12:03:55Z</time>
      </trkpt>
      <trkpt lat="47.78044" lon="-3.67205">
        <ele>14</ele>
        <time>2018-07-18T12:03:56Z</time>
      </trkpt>
      <trkpt lat="47.78046" lon="-3.67205">
        <ele>14</ele>
        <time>2018-07-18T12:03:57Z</time>
      </trkpt>
      <trkpt lat="47.78049" lon="-3.67205">
        <ele>15</ele>
        <time>2018-07-18T12:03:58Z</time>
      </trkpt>
      <trkpt lat="47.78051" lon="-3.67205">
        <ele>15</ele>
        <time>2018-07-18T12:03:59Z</time>
      </trkpt>
      <trkpt lat="47.78054" lon="-3.67204">
        <ele>15</ele>
        <time>2018-07-18T12:04:00Z</time>
      </trkpt>
      <trkpt lat="47.78058" lon="-3.67203">
        <ele>15</ele>
        <time>2018-07-18T12:04:01Z</time>
      </trkpt>
      <trkpt lat="47.78061" lon="-3.67201">
        <ele>15</ele>
        <time>2018-07-18T12:04:02Z</time>
      </trkpt>
      <trkpt lat="47.78064" lon="-3.672">
        <ele>16</ele>
        <time>2018-07-18T12:04:03Z</time>
      </trkpt>
      <trkpt lat="47.78067" lon="-3.67199">
        <ele>16</ele>
        <time>2018-07-18T12:04:04Z</time>
      </trkpt>
      <trkpt lat="47.7807" lon="-3.67197">
        <ele>16</ele>
        <time>2018-07-18T12:04:05Z</time>
      </trkpt>
      <trkpt lat="47.78072" lon="-3.67196">
        <ele>16</ele>
        <time>2018-07-18T12:04:06Z</time>
      </trkpt>
      <trkpt lat="47.78075" lon="-3.67194">
        <ele>16</ele>
        <time>2018-07-18T12:04:07Z</time>
      </trkpt>
      <trkpt lat="47.78078" lon="-3.67192">
        <ele>17</ele>
        <time>2018-07-18T12:04:08Z</time>
      </trkpt>
      <trkpt lat="47.78081" lon="-3.6719">
        <ele>17</ele>
        <time>2018-07-18T12:04:09Z</time>
      </trkpt>
      <trkpt lat="47.78084" lon="-3.67187">
        <ele>17</ele>
        <time>2018-07-18T12:04:10Z</time>
      </trkpt>
      <trkpt lat="47.78087" lon="-3.67185">
        <ele>17</ele>
        <time>2018-07-18T12:04:11Z</time>
      </trkpt>
      <trkpt lat="47.78091" lon="-3.67183">
        <ele>17</ele>
        <time>2018-07-18T12:04:12Z</time>
      </trkpt>
      <trkpt lat="47.78094" lon="-3.67182">
        <ele>17</ele>
        <time>2018-07-18T12:04:13Z</time>
      </trkpt>
      <trkpt lat="47.78097" lon="-3.67181">
        <ele>17</ele>
        <time>2018-07-18T12:04:14Z</time>
      </trkpt>
      <trkpt lat="47.781" lon="-3.67181">
        <ele>17</ele>
        <time>2018-07-18T12:04:15Z</time>
      </trkpt>
      <trkpt lat="47.78103" lon="-3.67181">
        <ele>17</ele>
        <time>2018-07-18T12:04:16Z</time>
      </trkpt>
      <trkpt lat="47.78107" lon="-3.67181">
        <ele>17</ele>
        <time>2018-07-18T12:04:17Z</time>
      </trkpt>
      <trkpt lat="47.7811" lon="-3.67181">
        <ele>18</ele>
        <time>2018-07-18T12:04:18Z</time>
      </trkpt>
      <trkpt lat="47.78113" lon="-3.67181">
        <ele>18</ele>
        <time>2018-07-18T12:04:19Z</time>
      </trkpt>
      <trkpt lat="47.78116" lon="-3.67181">
        <ele>18</ele>
        <time>2018-07-18T12:04:20Z</time>
      </trkpt>
      <trkpt lat="47.78119" lon="-3.67181">
        <ele>18</ele>
        <time>2018-07-18T12:04:21Z</time>
      </trkpt>
      <trkpt lat="47.78121" lon="-3.67182">
        <ele>18</ele>
        <time>2018-07-18T12:04:22Z</time>
      </trkpt>
      <trkpt lat="47.78124" lon="-3.67182">
        <ele>19</ele>
        <time>2018-07-18T12:04:23Z</time>
      </trkpt>
      <trkpt lat="47.78127" lon="-3.67182">
        <ele>19</ele>
        <time>2018-07-18T12:04:24Z</time>
      </trkpt>
      <trkpt lat="47.7813" lon="-3.67182">
        <ele>19</ele>
        <time>2018-07-18T12:04:25Z</time>
      </trkpt>
      <trkpt lat="47.78133" lon="-3.67182">
        <ele>20</ele>
        <time>2018-07-18T12:04:26Z</time>
      </trkpt>
      <trkpt lat="47.78136" lon="-3.67182">
        <ele>20</ele>
        <time>2018-07-18T12:04:27Z</time>
      </trkpt>
      <trkpt lat="47.78139" lon="-3.67182">
        <ele>20</ele>
        <time>2018-07-18T12:04:28Z</time>
      </trkpt>
      <trkpt lat="47.78141" lon="-3.67183">
        <ele>20</ele>
        <time>2018-07-18T12:04:29Z</time>
      </trkpt>
      <trkpt lat="47.78144" lon="-3.67183">
        <ele>21</ele>
        <time>2018-07-18T12:04:30Z</time>
      </trkpt>
      <trkpt lat="47.78147" lon="-3.67183">
        <ele>21</ele>
        <time>2018-07-18T12:04:31Z</time>
      </trkpt>
      <trkpt lat="47.7815" lon="-3.67184">
        <ele>21</ele>
        <time>2018-07-18T12:04:32Z</time>
      </trkpt>
      <trkpt lat="47.78152" lon="-3.67184">
        <ele>21</ele>
        <time>2018-07-18T12:04:33Z</time>
      </trkpt>
      <trkpt lat="47.78155" lon="-3.67183">
        <ele>22</ele>
        <time>2018-07-18T12:04:34Z</time>
      </trkpt>
      <trkpt lat="47.78157" lon="-3.67181">
        <ele>22</ele>
        <time>2018-07-18T12:04:35Z</time>
      </trkpt>
      <trkpt lat="47.78159" lon="-3.67178">
        <ele>22</ele>
        <time>2018-07-18T12:04:36Z</time>
      </trkpt>
      <trkpt lat="47.78161" lon="-3.67175">
        <ele>22</ele>
        <time>2018-07-18T12:04:37Z</time>
      </trkpt>
      <trkpt lat="47.78163" lon="-3.67172">
        <ele>22</ele>
        <time>2018-07-18T12:04:38Z</time>
      </trkpt>
      <trkpt lat="47.78165" lon="-3.6717">
        <ele>22</ele>
        <time>2018-07-18T12:04:39Z</time>
      </trkpt>
      <trkpt lat="47.78166" lon="-3.67169">
        <ele>22</ele>
        <time>2018-07-18T12:04:40Z</time>
      </trkpt>
      <trkpt lat="47.78166" lon="-3.67169">
        <ele>22</ele>
        <time>2018-07-18T12:04:41Z</time>
      </trkpt>
      <trkpt lat="47.78166" lon="-3.67169">
        <ele>22</ele>
        <time>2018-07-18T12:04:42Z</time>
      </trkpt>
      <trkpt lat="47.78166" lon="-3.67169">
        <ele>22</ele>
        <time>2018-07-18T12:04:43Z</time>
      </trkpt>
      <trkpt lat="47.78166" lon="-3.67169">
        <ele>23</ele>
        <time>2018-07-18T12:04:44Z</time>
      </trkpt>
      <trkpt lat="47.7817" lon="-3.67165">
        <ele>23</ele>
        <time>2018-07-18T12:04:45Z</time>
      </trkpt>
      <trkpt lat="47.78173" lon="-3.67163">
        <ele>23</ele>
        <time>2018-07-18T12:04:46Z</time>
      </trkpt>
      <trkpt lat="47.78176" lon="-3.67161">
        <ele>23</ele>
        <time>2018-07-18T12:04:47Z</time>
      </trkpt>
      <trkpt lat="47.78179" lon="-3.67158">
        <ele>23</ele>
        <time>2018-07-18T12:04:48Z</time>
      </trkpt>
      <trkpt lat="47.78182" lon="-3.67155">
        <ele>23</ele>
        <time>2018-07-18T12:04:49Z</time>
      </trkpt>
      <trkpt lat="47.78185" lon="-3.67152">
        <ele>23</ele>
        <time>2018-07-18T12:04:50Z</time>
      </trkpt>
      <trkpt lat="47.78186" lon="-3.6715">
        <ele>23</ele>
        <time>2018-07-18T12:04:51Z</time>
      </trkpt>
      <trkpt lat="47.7819" lon="-3.67147">
        <ele>23</ele>
        <time>2018-07-18T12:04:52Z</time>
      </trkpt>
      <trkpt lat="47.78193" lon="-3.67144">
        <ele>23</ele>
        <time>2018-07-18T12:04:53Z</time>
      </trkpt>
      <trkpt lat="47.78196" lon="-3.6714">
        <ele>23</ele>
        <time>2018-07-18T12:04:54Z</time>
      </trkpt>
      <trkpt lat="47.78198" lon="-3.67136">
        <ele>23</ele>
        <time>2018-07-18T12:04:55Z</time>
      </trkpt>
      <trkpt lat="47.782" lon="-3.67131">
        <ele>24</ele>
        <time>2018-07-18T12:04:56Z</time>
      </trkpt>
      <trkpt lat="47.78203" lon="-3.67126">
        <ele>24</ele>
        <time>2018-07-18T12:04:57Z</time>
      </trkpt>
      <trkpt lat="47.78205" lon="-3.67121">
        <ele>24</ele>
        <time>2018-07-18T12:04:58Z</time>
      </trkpt>
      <trkpt lat="47.78208" lon="-3.67117">
        <ele>24</ele>
        <time>2018-07-18T12:04:59Z</time>
      </trkpt>
      <trkpt lat="47.7821" lon="-3.67113">
        <ele>24</ele>
        <time>2018-07-18T12:05:00Z</time>
      </trkpt>
      <trkpt lat="47.78212" lon="-3.6711">
        <ele>24</ele>
        <time>2018-07-18T12:05:01Z</time>
      </trkpt>
      <trkpt lat="47.78213" lon="-3.67108">
        <ele>24</ele>
        <time>2018-07-18T12:05:02Z</time>
      </trkpt>
      <trkpt lat="47.78214" lon="-3.67107">
        <ele>24</ele>
        <time>2018-07-18T12:05:03Z</time>
      </trkpt>
      <trkpt lat="47.78214" lon="-3.67106">
        <ele>24</ele>
        <time>2018-07-18T12:05:04Z</time>
      </trkpt>
      <trkpt lat="47.78215" lon="-3.67105">
        <ele>24</ele>
        <time>2018-07-18T12:05:05Z</time>
      </trkpt>
      <trkpt lat="47.78215" lon="-3.67105">
        <ele>24</ele>
        <time>2018-07-18T12:05:06Z</time>
      </trkpt>
      <trkpt lat="47.78215" lon="-3.67105">
        <ele>24</ele>
        <time>2018-07-18T12:05:07Z</time>
      </trkpt>
      <trkpt lat="47.78215" lon="-3.67105">
        <ele>24</ele>
        <time>2018-07-18T12:05:08Z</time>
      </trkpt>
      <trkpt lat="47.78217" lon="-3.67106">
        <ele>24</ele>
        <time>2018-07-18T12:05:09Z</time>
      </trkpt>
      <trkpt lat="47.78218" lon="-3.67108">
        <ele>24</ele>
        <time>2018-07-18T12:05:10Z</time>
      </trkpt>
      <trkpt lat="47.7822" lon="-3.6711">
        <ele>25</ele>
        <time>2018-07-18T12:05:11Z</time>
      </trkpt>
      <trkpt lat="47.78222" lon="-3.67112">
        <ele>24</ele>
        <time>2018-07-18T12:05:12Z</time>
      </trkpt>
      <trkpt lat="47.78224" lon="-3.67114">
        <ele>24</ele>
        <time>2018-07-18T12:05:13Z</time>
      </trkpt>
      <trkpt lat="47.78227" lon="-3.67116">
        <ele>24</ele>
        <time>2018-07-18T12:05:14Z</time>
      </trkpt>
      <trkpt lat="47.78229" lon="-3.67119">
        <ele>24</ele>
        <time>2018-07-18T12:05:15Z</time>
      </trkpt>
      <trkpt lat="47.78232" lon="-3.67121">
        <ele>24</ele>
        <time>2018-07-18T12:05:16Z</time>
      </trkpt>
      <trkpt lat="47.78235" lon="-3.67124">
        <ele>24</ele>
        <time>2018-07-18T12:05:17Z</time>
      </trkpt>
      <trkpt lat="47.78238" lon="-3.67127">
        <ele>24</ele>
        <time>2018-07-18T12:05:18Z</time>
      </trkpt>
      <trkpt lat="47.78241" lon="-3.67131">
        <ele>24</ele>
        <time>2018-07-18T12:05:19Z</time>
      </trkpt>
      <trkpt lat="47.78244" lon="-3.67134">
        <ele>24</ele>
        <time>2018-07-18T12:05:20Z</time>
      </trkpt>
      <trkpt lat="47.78247" lon="-3.67137">
        <ele>24</ele>
        <time>2018-07-18T12:05:21Z</time>
      </trkpt>
      <trkpt lat="47.7825" lon="-3.6714">
        <ele>24</ele>
        <time>2018-07-18T12:05:22Z</time>
      </trkpt>
      <trkpt lat="47.78253" lon="-3.67143">
        <ele>24</ele>
        <time>2018-07-18T12:05:23Z</time>
      </trkpt>
      <trkpt lat="47.78257" lon="-3.67145">
        <ele>24</ele>
        <time>2018-07-18T12:05:24Z</time>
      </trkpt>
      <trkpt lat="47.78259" lon="-3.67149">
        <ele>24</ele>
        <time>2018-07-18T12:05:25Z</time>
      </trkpt>
      <trkpt lat="47.78263" lon="-3.67153">
        <ele>24</ele>
        <time>2018-07-18T12:05:26Z</time>
      </trkpt>
      <trkpt lat="47.78266" lon="-3.67156">
        <ele>24</ele>
        <time>2018-07-18T12:05:27Z</time>
      </trkpt>
      <trkpt lat="47.78269" lon="-3.67158">
        <ele>24</ele>
        <time>2018-07-18T12:05:28Z</time>
      </trkpt>
      <trkpt lat="47.78272" lon="-3.67161">
        <ele>24</ele>
        <time>2018-07-18T12:05:29Z</time>
      </trkpt>
      <trkpt lat="47.78275" lon="-3.67163">
        <ele>24</ele>
        <time>2018-07-18T12:05:30Z</time>
      </trkpt>
      <trkpt lat="47.78278" lon="-3.67164">
        <ele>24</ele>
        <time>2018-07-18T12:05:31Z</time>
      </trkpt>
      <trkpt lat="47.78281" lon="-3.67166">
        <ele>24</ele>
        <time>2018-07-18T12:05:32Z</time>
      </trkpt>
      <trkpt lat="47.78284" lon="-3.67166">
        <ele>24</ele>
        <time>2018-07-18T12:05:33Z</time>
      </trkpt>
      <trkpt lat="47.78287" lon="-3.67167">
        <ele>24</ele>
        <time>2018-07-18T12:05:34Z</time>
      </trkpt>
      <trkpt lat="47.7829" lon="-3.67167">
        <ele>24</ele>
        <time>2018-07-18T12:05:35Z</time>
      </trkpt>
      <trkpt lat="47.78294" lon="-3.67167">
        <ele>24</ele>
        <time>2018-07-18T12:05:36Z</time>
      </trkpt>
      <trkpt lat="47.78298" lon="-3.67167">
        <ele>25</ele>
        <time>2018-07-18T12:05:37Z</time>
      </trkpt>
      <trkpt lat="47.78302" lon="-3.67167">
        <ele>25</ele>
        <time>2018-07-18T12:05:38Z</time>
      </trkpt>
      <trkpt lat="47.78306" lon="-3.67166">
        <ele>25</ele>
        <time>2018-07-18T12:05:39Z</time>
      </trkpt>
      <trkpt lat="47.7831" lon="-3.67165">
        <ele>25</ele>
        <time>2018-07-18T12:05:40Z</time>
      </trkpt>
      <trkpt lat="47.78314" lon="-3.67164">
        <ele>25</ele>
        <time>2018-07-18T12:05:41Z</time>
      </trkpt>
      <trkpt lat="47.78318" lon="-3.67163">
        <ele>25</ele>
        <time>2018-07-18T12:05:42Z</time>
      </trkpt>
      <trkpt lat="47.78322" lon="-3.6716">
        <ele>25</ele>
        <time>2018-07-18T12:05:43Z</time>
      </trkpt>
      <trkpt lat="47.78325" lon="-3.67158">
        <ele>25</ele>
        <time>2018-07-18T12:05:44Z</time>
      </trkpt>
      <trkpt lat="47.78328" lon="-3.67154">
        <ele>25</ele>
        <time>2018-07-18T12:05:45Z</time>
      </trkpt>
      <trkpt lat="47.78332" lon="-3.67151">
        <ele>26</ele>
        <time>2018-07-18T12:05:46Z</time>
      </trkpt>
      <trkpt lat="47.78336" lon="-3.67149">
        <ele>26</ele>
        <time>2018-07-18T12:05:47Z</time>
      </trkpt>
      <trkpt lat="47.78339" lon="-3.67147">
        <ele>26</ele>
        <time>2018-07-18T12:05:48Z</time>
      </trkpt>
      <trkpt lat="47.78343" lon="-3.67146">
        <ele>26</ele>
        <time>2018-07-18T12:05:49Z</time>
      </trkpt>
      <trkpt lat="47.78347" lon="-3.67146">
        <ele>26</ele>
        <time>2018-07-18T12:05:50Z</time>
      </trkpt>
      <trkpt lat="47.7835" lon="-3.67147">
        <ele>26</ele>
        <time>2018-07-18T12:05:51Z</time>
      </trkpt>
      <trkpt lat="47.78352" lon="-3.67148">
        <ele>26</ele>
        <time>2018-07-18T12:05:52Z</time>
      </trkpt>
      <trkpt lat="47.78353" lon="-3.67148">
        <ele>26</ele>
        <time>2018-07-18T12:05:53Z</time>
      </trkpt>
      <trkpt lat="47.78354" lon="-3.67148">
        <ele>27</ele>
        <time>2018-07-18T12:05:54Z</time>
      </trkpt>
      <trkpt lat="47.78355" lon="-3.67148">
        <ele>27</ele>
        <time>2018-07-18T12:05:55Z</time>
      </trkpt>
      <trkpt lat="47.78355" lon="-3.67148">
        <ele>27</ele>
        <time>2018-07-18T12:05:56Z</time>
      </trkpt>
      <trkpt lat="47.78356" lon="-3.67148">
        <ele>27</ele>
        <time>2018-07-18T12:05:57Z</time>
      </trkpt>
      <trkpt lat="47.78356" lon="-3.67148">
        <ele>27</ele>
        <time>2018-07-18T12:05:58Z</time>
      </trkpt>
      <trkpt lat="47.78357" lon="-3.67148">
        <ele>27</ele>
        <time>2018-07-18T12:05:59Z</time>
      </trkpt>
      <trkpt lat="47.78359" lon="-3.6715">
        <ele>27</ele>
        <time>2018-07-18T12:06:00Z</time>
      </trkpt>
      <trkpt lat="47.78361" lon="-3.67151">
        <ele>27</ele>
        <time>2018-07-18T12:06:01Z</time>
      </trkpt>
      <trkpt lat="47.78363" lon="-3.67152">
        <ele>27</ele>
        <time>2018-07-18T12:06:02Z</time>
      </trkpt>
      <trkpt lat="47.78365" lon="-3.67153">
        <ele>27</ele>
        <time>2018-07-18T12:06:03Z</time>
      </trkpt>
      <trkpt lat="47.78367" lon="-3.67155">
        <ele>27</ele>
        <time>2018-07-18T12:06:04Z</time>
      </trkpt>
      <trkpt lat="47.7837" lon="-3.67155">
        <ele>27</ele>
        <time>2018-07-18T12:06:05Z</time>
      </trkpt>
      <trkpt lat="47.78373" lon="-3.67155">
        <ele>27</ele>
        <time>2018-07-18T12:06:06Z</time>
      </trkpt>
      <trkpt lat="47.78377" lon="-3.67155">
        <ele>27</ele>
        <time>2018-07-18T12:06:07Z</time>
      </trkpt>
      <trkpt lat="47.78381" lon="-3.67155">
        <ele>28</ele>
        <time>2018-07-18T12:06:08Z</time>
      </trkpt>
      <trkpt lat="47.78384" lon="-3.67155">
        <ele>28</ele>
        <time>2018-07-18T12:06:09Z</time>
      </trkpt>
      <trkpt lat="47.78386" lon="-3.67156">
        <ele>28</ele>
        <time>2018-07-18T12:06:10Z</time>
      </trkpt>
      <trkpt lat="47.78386" lon="-3.67156">
        <ele>28</ele>
        <time>2018-07-18T12:06:11Z</time>
      </trkpt>
      <trkpt lat="47.78387" lon="-3.67156">
        <ele>28</ele>
        <time>2018-07-18T12:06:12Z</time>
      </trkpt>
      <trkpt lat="47.78388" lon="-3.67156">
        <ele>28</ele>
        <time>2018-07-18T12:06:13Z</time>
      </trkpt>
      <trkpt lat="47.78388" lon="-3.67156">
        <ele>28</ele>
        <time>2018-07-18T12:06:14Z</time>
      </trkpt>
      <trkpt lat="47.78389" lon="-3.67155">
        <ele>29</ele>
        <time>2018-07-18T12:06:15Z</time>
      </trkpt>
      <trkpt lat="47.7839" lon="-3.67155">
        <ele>29</ele>
        <time>2018-07-18T12:06:16Z</time>
      </trkpt>
      <trkpt lat="47.7839" lon="-3.67155">
        <ele>29</ele>
        <time>2018-07-18T12:06:17Z</time>
      </trkpt>
      <trkpt lat="47.7839" lon="-3.67155">
        <ele>29</ele>
        <time>2018-07-18T12:06:18Z</time>
      </trkpt>
      <trkpt lat="47.78391" lon="-3.67154">
        <ele>29</ele>
        <time>2018-07-18T12:06:19Z</time>
      </trkpt>
      <trkpt lat="47.78392" lon="-3.67154">
        <ele>29</ele>
        <time>2018-07-18T12:06:20Z</time>
      </trkpt>
      <trkpt lat="47.78393" lon="-3.67153">
        <ele>29</ele>
        <time>2018-07-18T12:06:21Z</time>
      </trkpt>
      <trkpt lat="47.78393" lon="-3.67153">
        <ele>29</ele>
        <time>2018-07-18T12:06:22Z</time>
      </trkpt>
      <trkpt lat="47.78392" lon="-3.67153">
        <ele>29</ele>
        <time>2018-07-18T12:06:23Z</time>
      </trkpt>
      <trkpt lat="47.7839" lon="-3.67153">
        <ele>29</ele>
        <time>2018-07-18T12:06:24Z</time>
      </trkpt>
      <trkpt lat="47.78388" lon="-3.67152">
        <ele>29</ele>
        <time>2018-07-18T12:06:25Z</time>
      </trkpt>
      <trkpt lat="47.78386" lon="-3.67152">
        <ele>29</ele>
        <time>2018-07-18T12:06:26Z</time>
      </trkpt>
      <trkpt lat="47.78384" lon="-3.67152">
        <ele>29</ele>
        <time>2018-07-18T12:06:27Z</time>
      </trkpt>
      <trkpt lat="47.78382" lon="-3.67152">
        <ele>29</ele>
        <time>2018-07-18T12:06:28Z</time>
      </trkpt>
      <trkpt lat="47.7838" lon="-3.67153">
        <ele>29</ele>
        <time>2018-07-18T12:06:29Z</time>
      </trkpt>
      <trkpt lat="47.78377" lon="-3.67152">
        <ele>29</ele>
        <time>2018-07-18T12:06:30Z</time>
      </trkpt>
      <trkpt lat="47.78375" lon="-3.67152">
        <ele>29</ele>
        <time>2018-07-18T12:06:31Z</time>
      </trkpt>
      <trkpt lat="47.78373" lon="-3.67151">
        <ele>29</ele>
        <time>2018-07-18T12:06:32Z</time>
      </trkpt>
      <trkpt lat="47.7837" lon="-3.67151">
        <ele>29</ele>
        <time>2018-07-18T12:06:33Z</time>
      </trkpt>
      <trkpt lat="47.78368" lon="-3.67151">
        <ele>29</ele>
        <time>2018-07-18T12:06:34Z</time>
      </trkpt>
      <trkpt lat="47.78367" lon="-3.6715">
        <ele>29</ele>
        <time>2018-07-18T12:06:35Z</time>
      </trkpt>
      <trkpt lat="47.78367" lon="-3.67149">
        <ele>29</ele>
        <time>2018-07-18T12:06:36Z</time>
      </trkpt>
      <trkpt lat="47.78367" lon="-3.67148">
        <ele>29</ele>
        <time>2018-07-18T12:06:37Z</time>
      </trkpt>
      <trkpt lat="47.78367" lon="-3.67148">
        <ele>29</ele>
        <time>2018-07-18T12:06:38Z</time>
      </trkpt>
      <trkpt lat="47.78367" lon="-3.67148">
        <ele>29</ele>
        <time>2018-07-18T12:06:39Z</time>
      </trkpt>
      <trkpt lat="47.78368" lon="-3.67146">
        <ele>29</ele>
        <time>2018-07-18T12:06:40Z</time>
      </trkpt>
      <trkpt lat="47.78368" lon="-3.67146">
        <ele>29</ele>
        <time>2018-07-18T12:06:41Z</time>
      </trkpt>
      <trkpt lat="47.78368" lon="-3.67146">
        <ele>29</ele>
        <time>2018-07-18T12:06:42Z</time>
      </trkpt>
      <trkpt lat="47.78369" lon="-3.67146">
        <ele>29</ele>
        <time>2018-07-18T12:06:43Z</time>
      </trkpt>
      <trkpt lat="47.78369" lon="-3.67146">
        <ele>29</ele>
        <time>2018-07-18T12:06:44Z</time>
      </trkpt>
      <trkpt lat="47.7837" lon="-3.67146">
        <ele>29</ele>
        <time>2018-07-18T12:06:45Z</time>
      </trkpt>
      <trkpt lat="47.7837" lon="-3.67146">
        <ele>29</ele>
        <time>2018-07-18T12:06:46Z</time>
      </trkpt>
      <trkpt lat="47.7837" lon="-3.67146">
        <ele>29</ele>
        <time>2018-07-18T12:06:47Z</time>
      </trkpt>
      <trkpt lat="47.7837" lon="-3.67146">
        <ele>29</ele>
        <time>2018-07-18T12:06:48Z</time>
      </trkpt>
      <trkpt lat="47.7837" lon="-3.67146">
        <ele>29</ele>
        <time>2018-07-18T12:06:49Z</time>
      </trkpt>
      <trkpt lat="47.7837" lon="-3.67146">
        <ele>29</ele>
        <time>2018-07-18T12:06:50Z</time>
      </trkpt>
      <trkpt lat="47.78372" lon="-3.67146">
        <ele>29</ele>
        <time>2018-07-18T12:06:51Z</time>
      </trkpt>
      <trkpt lat="47.78372" lon="-3.67146">
        <ele>29</ele>
        <time>2018-07-18T12:06:52Z</time>
      </trkpt>
      <trkpt lat="47.78373" lon="-3.67146">
        <ele>28</ele>
        <time>2018-07-18T12:06:53Z</time>
      </trkpt>
      <trkpt lat="47.78373" lon="-3.67146">
        <ele>28</ele>
        <time>2018-07-18T12:06:54Z</time>
      </trkpt>
      <trkpt lat="47.78373" lon="-3.67146">
        <ele>28</ele>
        <time>2018-07-18T12:06:55Z</time>
      </trkpt>
      <trkpt lat="47.78374" lon="-3.67145">
        <ele>28</ele>
        <time>2018-07-18T12:06:56Z</time>
      </trkpt>
      <trkpt lat="47.78375" lon="-3.67145">
        <ele>28</ele>
        <time>2018-07-18T12:06:57Z</time>
      </trkpt>
      <trkpt lat="47.78376" lon="-3.67144">
        <ele>28</ele>
        <time>2018-07-18T12:06:58Z</time>
      </trkpt>
      <trkpt lat="47.78377" lon="-3.67143">
        <ele>28</ele>
        <time>2018-07-18T12:06:59Z</time>
      </trkpt>
      <trkpt lat="47.78379" lon="-3.67142">
        <ele>28</ele>
        <time>2018-07-18T12:07:00Z</time>
      </trkpt>
      <trkpt lat="47.7838" lon="-3.6714">
        <ele>28</ele>
        <time>2018-07-18T12:07:01Z</time>
      </trkpt>
      <trkpt lat="47.78382" lon="-3.67139">
        <ele>27</ele>
        <time>2018-07-18T12:07:02Z</time>
      </trkpt>
      <trkpt lat="47.78383" lon="-3.67138">
        <ele>27</ele>
        <time>2018-07-18T12:07:03Z</time>
      </trkpt>
      <trkpt lat="47.78383" lon="-3.67137">
        <ele>27</ele>
        <time>2018-07-18T12:07:04Z</time>
      </trkpt>
      <trkpt lat="47.78384" lon="-3.67137">
        <ele>27</ele>
        <time>2018-07-18T12:07:05Z</time>
      </trkpt>
      <trkpt lat="47.78384" lon="-3.67137">
        <ele>27</ele>
        <time>2018-07-18T12:07:06Z</time>
      </trkpt>
      <trkpt lat="47.78385" lon="-3.67136">
        <ele>26</ele>
        <time>2018-07-18T12:07:07Z</time>
      </trkpt>
      <trkpt lat="47.78385" lon="-3.67136">
        <ele>26</ele>
        <time>2018-07-18T12:07:08Z</time>
      </trkpt>
      <trkpt lat="47.78384" lon="-3.67133">
        <ele>25</ele>
        <time>2018-07-18T12:07:09Z</time>
      </trkpt>
      <trkpt lat="47.78384" lon="-3.67132">
        <ele>25</ele>
        <time>2018-07-18T12:07:10Z</time>
      </trkpt>
      <trkpt lat="47.78384" lon="-3.67131">
        <ele>25</ele>
        <time>2018-07-18T12:07:11Z</time>
      </trkpt>
      <trkpt lat="47.78384" lon="-3.67131">
        <ele>25</ele>
        <time>2018-07-18T12:07:12Z</time>
      </trkpt>
      <trkpt lat="47.78384" lon="-3.6713">
        <ele>25</ele>
        <time>2018-07-18T12:07:13Z</time>
      </trkpt>
      <trkpt lat="47.78384" lon="-3.67129">
        <ele>25</ele>
        <time>2018-07-18T12:07:14Z</time>
      </trkpt>
      <trkpt lat="47.78384" lon="-3.67128">
        <ele>24</ele>
        <time>2018-07-18T12:07:15Z</time>
      </trkpt>
      <trkpt lat="47.78384" lon="-3.67128">
        <ele>24</ele>
        <time>2018-07-18T12:07:16Z</time>
      </trkpt>
      <trkpt lat="47.78384" lon="-3.67127">
        <ele>24</ele>
        <time>2018-07-18T12:07:17Z</time>
      </trkpt>
      <trkpt lat="47.78384" lon="-3.67126">
        <ele>24</ele>
        <time>2018-07-18T12:07:18Z</time>
      </trkpt>
      <trkpt lat="47.78384" lon="-3.67125">
        <ele>24</ele>
        <time>2018-07-18T12:07:19Z</time>
      </trkpt>
      <trkpt lat="47.78385" lon="-3.67125">
        <ele>24</ele>
        <time>2018-07-18T12:07:20Z</time>
      </trkpt>
      <trkpt lat="47.78386" lon="-3.67124">
        <ele>23</ele>
        <time>2018-07-18T12:07:21Z</time>
      </trkpt>
      <trkpt lat="47.78386" lon="-3.67125">
        <ele>23</ele>
        <time>2018-07-18T12:07:22Z</time>
      </trkpt>
      <trkpt lat="47.78387" lon="-3.67124">
        <ele>23</ele>
        <time>2018-07-18T12:07:23Z</time>
      </trkpt>
      <trkpt lat="47.78387" lon="-3.67124">
        <ele>22</ele>
        <time>2018-07-18T12:07:24Z</time>
      </trkpt>
      <trkpt lat="47.78388" lon="-3.67123">
        <ele>22</ele>
        <time>2018-07-18T12:07:25Z</time>
      </trkpt>
      <trkpt lat="47.78388" lon="-3.67123">
        <ele>22</ele>
        <time>2018-07-18T12:07:26Z</time>
      </trkpt>
      <trkpt lat="47.78389" lon="-3.67122">
        <ele>21</ele>
        <time>2018-07-18T12:07:27Z</time>
      </trkpt>
      <trkpt lat="47.7839" lon="-3.67122">
        <ele>21</ele>
        <time>2018-07-18T12:07:28Z</time>
      </trkpt>
      <trkpt lat="47.78391" lon="-3.67122">
        <ele>21</ele>
        <time>2018-07-18T12:07:29Z</time>
      </trkpt>
      <trkpt lat="47.78392" lon="-3.67122">
        <ele>20</ele>
        <time>2018-07-18T12:07:30Z</time>
      </trkpt>
      <trkpt lat="47.78393" lon="-3.67122">
        <ele>20</ele>
        <time>2018-07-18T12:07:31Z</time>
      </trkpt>
      <trkpt lat="47.78393" lon="-3.67121">
        <ele>20</ele>
        <time>2018-07-18T12:07:32Z</time>
      </trkpt>
      <trkpt lat="47.78394" lon="-3.67121">
        <ele>20</ele>
        <time>2018-07-18T12:07:33Z</time>
      </trkpt>
      <trkpt lat="47.78395" lon="-3.6712">
        <ele>19</ele>
        <time>2018-07-18T12:07:34Z</time>
      </trkpt>
      <trkpt lat="47.78396" lon="-3.6712">
        <ele>19</ele>
        <time>2018-07-18T12:07:35Z</time>
      </trkpt>
      <trkpt lat="47.78397" lon="-3.6712">
        <ele>19</ele>
        <time>2018-07-18T12:07:36Z</time>
      </trkpt>
      <trkpt lat="47.78397" lon="-3.67119">
        <ele>19</ele>
        <time>2018-07-18T12:07:37Z</time>
      </trkpt>
      <trkpt lat="47.78398" lon="-3.67118">
        <ele>19</ele>
        <time>2018-07-18T12:07:38Z</time>
      </trkpt>
      <trkpt lat="47.78398" lon="-3.67118">
        <ele>18</ele>
        <time>2018-07-18T12:07:39Z</time>
      </trkpt>
      <trkpt lat="47.78399" lon="-3.67117">
        <ele>18</ele>
        <time>2018-07-18T12:07:40Z</time>
      </trkpt>
      <trkpt lat="47.78399" lon="-3.67116">
        <ele>18</ele>
        <time>2018-07-18T12:07:41Z</time>
      </trkpt>
      <trkpt lat="47.78399" lon="-3.67115">
        <ele>18</ele>
        <time>2018-07-18T12:07:42Z</time>
      </trkpt>
      <trkpt lat="47.784" lon="-3.67115">
        <ele>18</ele>
        <time>2018-07-18T12:07:43Z</time>
      </trkpt>
      <trkpt lat="47.784" lon="-3.67114">
        <ele>18</ele>
        <time>2018-07-18T12:07:44Z</time>
      </trkpt>
      <trkpt lat="47.78401" lon="-3.67113">
        <ele>18</ele>
        <time>2018-07-18T12:07:45Z</time>
      </trkpt>
      <trkpt lat="47.78402" lon="-3.67112">
        <ele>17</ele>
        <time>2018-07-18T12:07:46Z</time>
      </trkpt>
      <trkpt lat="47.78402" lon="-3.67111">
        <ele>17</ele>
        <time>2018-07-18T12:07:47Z</time>
      </trkpt>
      <trkpt lat="47.78403" lon="-3.6711">
        <ele>17</ele>
        <time>2018-07-18T12:07:48Z</time>
      </trkpt>
      <trkpt lat="47.78403" lon="-3.67108">
        <ele>16</ele>
        <time>2018-07-18T12:07:49Z</time>
      </trkpt>
      <trkpt lat="47.78404" lon="-3.67106">
        <ele>16</ele>
        <time>2018-07-18T12:07:50Z</time>
      </trkpt>
      <trkpt lat="47.78406" lon="-3.67104">
        <ele>16</ele>
        <time>2018-07-18T12:07:51Z</time>
      </trkpt>
      <trkpt lat="47.78407" lon="-3.67102">
        <ele>15</ele>
        <time>2018-07-18T12:07:52Z</time>
      </trkpt>
      <trkpt lat="47.7841" lon="-3.67101">
        <ele>15</ele>
        <time>2018-07-18T12:07:53Z</time>
      </trkpt>
      <trkpt lat="47.78412" lon="-3.67101">
        <ele>15</ele>
        <time>2018-07-18T12:07:54Z</time>
      </trkpt>
      <trkpt lat="47.78415" lon="-3.67101">
        <ele>15</ele>
        <time>2018-07-18T12:07:55Z</time>
      </trkpt>
      <trkpt lat="47.78418" lon="-3.67099">
        <ele>15</ele>
        <time>2018-07-18T12:07:56Z</time>
      </trkpt>
      <trkpt lat="47.7842" lon="-3.67097">
        <ele>14</ele>
        <time>2018-07-18T12:07:57Z</time>
      </trkpt>
      <trkpt lat="47.78423" lon="-3.67095">
        <ele>14</ele>
        <time>2018-07-18T12:07:58Z</time>
      </trkpt>
      <trkpt lat="47.78426" lon="-3.67094">
        <ele>14</ele>
        <time>2018-07-18T12:07:59Z</time>
      </trkpt>
      <trkpt lat="47.7843" lon="-3.67093">
        <ele>14</ele>
        <time>2018-07-18T12:08:00Z</time>
      </trkpt>
      <trkpt lat="47.78433" lon="-3.67092">
        <ele>14</ele>
        <time>2018-07-18T12:08:01Z</time>
      </trkpt>
      <trkpt lat="47.78437" lon="-3.67091">
        <ele>14</ele>
        <time>2018-07-18T12:08:02Z</time>
      </trkpt>
      <trkpt lat="47.7844" lon="-3.6709">
        <ele>13</ele>
        <time>2018-07-18T12:08:03Z</time>
      </trkpt>
      <trkpt lat="47.78443" lon="-3.67089">
        <ele>13</ele>
        <time>2018-07-18T12:08:04Z</time>
      </trkpt>
      <trkpt lat="47.78446" lon="-3.67088">
        <ele>13</ele>
        <time>2018-07-18T12:08:05Z</time>
      </trkpt>
      <trkpt lat="47.78449" lon="-3.67085">
        <ele>13</ele>
        <time>2018-07-18T12:08:06Z</time>
      </trkpt>
      <trkpt lat="47.78452" lon="-3.67083">
        <ele>13</ele>
        <time>2018-07-18T12:08:07Z</time>
      </trkpt>
      <trkpt lat="47.78456" lon="-3.67081">
        <ele>13</ele>
        <time>2018-07-18T12:08:08Z</time>
      </trkpt>
      <trkpt lat="47.78459" lon="-3.67079">
        <ele>13</ele>
        <time>2018-07-18T12:08:09Z</time>
      </trkpt>
      <trkpt lat="47.78463" lon="-3.67077">
        <ele>13</ele>
        <time>2018-07-18T12:08:10Z</time>
      </trkpt>
      <trkpt lat="47.78466" lon="-3.67075">
        <ele>12</ele>
        <time>2018-07-18T12:08:11Z</time>
      </trkpt>
      <trkpt lat="47.7847" lon="-3.67073">
        <ele>12</ele>
        <time>2018-07-18T12:08:12Z</time>
      </trkpt>
      <trkpt lat="47.78473" lon="-3.67072">
        <ele>12</ele>
        <time>2018-07-18T12:08:13Z</time>
      </trkpt>
      <trkpt lat="47.78477" lon="-3.67072">
        <ele>12</ele>
        <time>2018-07-18T12:08:14Z</time>
      </trkpt>
      <trkpt lat="47.7848" lon="-3.67072">
        <ele>12</ele>
        <time>2018-07-18T12:08:15Z</time>
      </trkpt>
      <trkpt lat="47.78484" lon="-3.67072">
        <ele>11</ele>
        <time>2018-07-18T12:08:16Z</time>
      </trkpt>
      <trkpt lat="47.78488" lon="-3.67073">
        <ele>11</ele>
        <time>2018-07-18T12:08:17Z</time>
      </trkpt>
      <trkpt lat="47.78492" lon="-3.67075">
        <ele>11</ele>
        <time>2018-07-18T12:08:18Z</time>
      </trkpt>
      <trkpt lat="47.78496" lon="-3.67076">
        <ele>10</ele>
        <time>2018-07-18T12:08:19Z</time>
      </trkpt>
      <trkpt lat="47.78501" lon="-3.67079">
        <ele>10</ele>
        <time>2018-07-18T12:08:20Z</time>
      </trkpt>
      <trkpt lat="47.78505" lon="-3.67081">
        <ele>9</ele>
        <time>2018-07-18T12:08:21Z</time>
      </trkpt>
      <trkpt lat="47.78508" lon="-3.67084">
        <ele>9</ele>
        <time>2018-07-18T12:08:22Z</time>
      </trkpt>
      <trkpt lat="47.78512" lon="-3.67087">
        <ele>8</ele>
        <time>2018-07-18T12:08:23Z</time>
      </trkpt>
      <trkpt lat="47.78515" lon="-3.6709">
        <ele>8</ele>
        <time>2018-07-18T12:08:24Z</time>
      </trkpt>
      <trkpt lat="47.78518" lon="-3.67093">
        <ele>8</ele>
        <time>2018-07-18T12:08:25Z</time>
      </trkpt>
      <trkpt lat="47.78521" lon="-3.67095">
        <ele>7</ele>
        <time>2018-07-18T12:08:26Z</time>
      </trkpt>
      <trkpt lat="47.78524" lon="-3.67098">
        <ele>7</ele>
        <time>2018-07-18T12:08:27Z</time>
      </trkpt>
      <trkpt lat="47.78527" lon="-3.67101">
        <ele>7</ele>
        <time>2018-07-18T12:08:28Z</time>
      </trkpt>
      <trkpt lat="47.78531" lon="-3.67103">
        <ele>6</ele>
        <time>2018-07-18T12:08:29Z</time>
      </trkpt>
      <trkpt lat="47.78534" lon="-3.67106">
        <ele>6</ele>
        <time>2018-07-18T12:08:30Z</time>
      </trkpt>
      <trkpt lat="47.78537" lon="-3.67109">
        <ele>6</ele>
        <time>2018-07-18T12:08:31Z</time>
      </trkpt>
      <trkpt lat="47.7854" lon="-3.67112">
        <ele>6</ele>
        <time>2018-07-18T12:08:32Z</time>
      </trkpt>
      <trkpt lat="47.78543" lon="-3.67115">
        <ele>6</ele>
        <time>2018-07-18T12:08:33Z</time>
      </trkpt>
      <trkpt lat="47.78546" lon="-3.67119">
        <ele>6</ele>
        <time>2018-07-18T12:08:34Z</time>
      </trkpt>
      <trkpt lat="47.78549" lon="-3.67122">
        <ele>6</ele>
        <time>2018-07-18T12:08:35Z</time>
      </trkpt>
      <trkpt lat="47.78552" lon="-3.67126">
        <ele>6</ele>
        <time>2018-07-18T12:08:36Z</time>
      </trkpt>
      <trkpt lat="47.78555" lon="-3.6713">
        <ele>6</ele>
        <time>2018-07-18T12:08:37Z</time>
      </trkpt>
      <trkpt lat="47.78557" lon="-3.67133">
        <ele>6</ele>
        <time>2018-07-18T12:08:38Z</time>
      </trkpt>
      <trkpt lat="47.7856" lon="-3.67137">
        <ele>6</ele>
        <time>2018-07-18T12:08:39Z</time>
      </trkpt>
      <trkpt lat="47.78562" lon="-3.67141">
        <ele>6</ele>
        <time>2018-07-18T12:08:40Z</time>
      </trkpt>
      <trkpt lat="47.78564" lon="-3.67145">
        <ele>6</ele>
        <time>2018-07-18T12:08:41Z</time>
      </trkpt>
      <trkpt lat="47.78567" lon="-3.6715">
        <ele>7</ele>
        <time>2018-07-18T12:08:42Z</time>
      </trkpt>
      <trkpt lat="47.78569" lon="-3.67155">
        <ele>7</ele>
        <time>2018-07-18T12:08:43Z</time>
      </trkpt>
      <trkpt lat="47.78571" lon="-3.6716">
        <ele>7</ele>
        <time>2018-07-18T12:08:44Z</time>
      </trkpt>
      <trkpt lat="47.78573" lon="-3.67165">
        <ele>7</ele>
        <time>2018-07-18T12:08:45Z</time>
      </trkpt>
      <trkpt lat="47.78574" lon="-3.6717">
        <ele>7</ele>
        <time>2018-07-18T12:08:46Z</time>
      </trkpt>
      <trkpt lat="47.78576" lon="-3.67175">
        <ele>7</ele>
        <time>2018-07-18T12:08:47Z</time>
      </trkpt>
      <trkpt lat="47.78577" lon="-3.6718">
        <ele>7</ele>
        <time>2018-07-18T12:08:48Z</time>
      </trkpt>
      <trkpt lat="47.78578" lon="-3.67186">
        <ele>8</ele>
        <time>2018-07-18T12:08:49Z</time>
      </trkpt>
      <trkpt lat="47.78578" lon="-3.67191">
        <ele>8</ele>
        <time>2018-07-18T12:08:50Z</time>
      </trkpt>
      <trkpt lat="47.78579" lon="-3.67196">
        <ele>8</ele>
        <time>2018-07-18T12:08:51Z</time>
      </trkpt>
      <trkpt lat="47.78579" lon="-3.67201">
        <ele>9</ele>
        <time>2018-07-18T12:08:52Z</time>
      </trkpt>
      <trkpt lat="47.7858" lon="-3.67206">
        <ele>9</ele>
        <time>2018-07-18T12:08:53Z</time>
      </trkpt>
      <trkpt lat="47.78582" lon="-3.6721">
        <ele>9</ele>
        <time>2018-07-18T12:08:54Z</time>
      </trkpt>
      <trkpt lat="47.78583" lon="-3.67213">
        <ele>9</ele>
        <time>2018-07-18T12:08:55Z</time>
      </trkpt>
      <trkpt lat="47.78585" lon="-3.67216">
        <ele>10</ele>
        <time>2018-07-18T12:08:56Z</time>
      </trkpt>
      <trkpt lat="47.78586" lon="-3.67218">
        <ele>10</ele>
        <time>2018-07-18T12:08:57Z</time>
      </trkpt>
      <trkpt lat="47.78589" lon="-3.6722">
        <ele>10</ele>
        <time>2018-07-18T12:08:58Z</time>
      </trkpt>
      <trkpt lat="47.78591" lon="-3.67219">
        <ele>10</ele>
        <time>2018-07-18T12:08:59Z</time>
      </trkpt>
      <trkpt lat="47.78593" lon="-3.67217">
        <ele>11</ele>
        <time>2018-07-18T12:09:00Z</time>
      </trkpt>
      <trkpt lat="47.78595" lon="-3.67214">
        <ele>11</ele>
        <time>2018-07-18T12:09:01Z</time>
      </trkpt>
      <trkpt lat="47.78595" lon="-3.6721">
        <ele>11</ele>
        <time>2018-07-18T12:09:02Z</time>
      </trkpt>
      <trkpt lat="47.78595" lon="-3.67205">
        <ele>11</ele>
        <time>2018-07-18T12:09:03Z</time>
      </trkpt>
      <trkpt lat="47.78595" lon="-3.672">
        <ele>11</ele>
        <time>2018-07-18T12:09:04Z</time>
      </trkpt>
      <trkpt lat="47.78595" lon="-3.67196">
        <ele>11</ele>
        <time>2018-07-18T12:09:05Z</time>
      </trkpt>
      <trkpt lat="47.78595" lon="-3.67191">
        <ele>12</ele>
        <time>2018-07-18T12:09:06Z</time>
      </trkpt>
      <trkpt lat="47.78595" lon="-3.67186">
        <ele>12</ele>
        <time>2018-07-18T12:09:07Z</time>
      </trkpt>
      <trkpt lat="47.78595" lon="-3.67181">
        <ele>12</ele>
        <time>2018-07-18T12:09:08Z</time>
      </trkpt>
      <trkpt lat="47.78595" lon="-3.67177">
        <ele>12</ele>
        <time>2018-07-18T12:09:09Z</time>
      </trkpt>
      <trkpt lat="47.78595" lon="-3.67172">
        <ele>12</ele>
        <time>2018-07-18T12:09:10Z</time>
      </trkpt>
      <trkpt lat="47.78595" lon="-3.67167">
        <ele>12</ele>
        <time>2018-07-18T12:09:11Z</time>
      </trkpt>
      <trkpt lat="47.78596" lon="-3.67161">
        <ele>12</ele>
        <time>2018-07-18T12:09:12Z</time>
      </trkpt>
      <trkpt lat="47.78596" lon="-3.67156">
        <ele>12</ele>
        <time>2018-07-18T12:09:13Z</time>
      </trkpt>
      <trkpt lat="47.78596" lon="-3.67151">
        <ele>12</ele>
        <time>2018-07-18T12:09:14Z</time>
      </trkpt>
      <trkpt lat="47.78596" lon="-3.67146">
        <ele>12</ele>
        <time>2018-07-18T12:09:15Z</time>
      </trkpt>
      <trkpt lat="47.78596" lon="-3.67141">
        <ele>12</ele>
        <time>2018-07-18T12:09:16Z</time>
      </trkpt>
      <trkpt lat="47.78596" lon="-3.67136">
        <ele>12</ele>
        <time>2018-07-18T12:09:17Z</time>
      </trkpt>
      <trkpt lat="47.78596" lon="-3.67131">
        <ele>12</ele>
        <time>2018-07-18T12:09:18Z</time>
      </trkpt>
      <trkpt lat="47.78596" lon="-3.67126">
        <ele>12</ele>
        <time>2018-07-18T12:09:19Z</time>
      </trkpt>
      <trkpt lat="47.78596" lon="-3.67121">
        <ele>12</ele>
        <time>2018-07-18T12:09:20Z</time>
      </trkpt>
      <trkpt lat="47.78596" lon="-3.67115">
        <ele>13</ele>
        <time>2018-07-18T12:09:21Z</time>
      </trkpt>
      <trkpt lat="47.78595" lon="-3.6711">
        <ele>13</ele>
        <time>2018-07-18T12:09:22Z</time>
      </trkpt>
      <trkpt lat="47.78595" lon="-3.67105">
        <ele>13</ele>
        <time>2018-07-18T12:09:23Z</time>
      </trkpt>
      <trkpt lat="47.78594" lon="-3.671">
        <ele>13</ele>
        <time>2018-07-18T12:09:24Z</time>
      </trkpt>
      <trkpt lat="47.78593" lon="-3.67095">
        <ele>13</ele>
        <time>2018-07-18T12:09:25Z</time>
      </trkpt>
      <trkpt lat="47.78593" lon="-3.6709">
        <ele>13</ele>
        <time>2018-07-18T12:09:26Z</time>
      </trkpt>
      <trkpt lat="47.78592" lon="-3.67085">
        <ele>13</ele>
        <time>2018-07-18T12:09:27Z</time>
      </trkpt>
      <trkpt lat="47.78592" lon="-3.6708">
        <ele>13</ele>
        <time>2018-07-18T12:09:28Z</time>
      </trkpt>
      <trkpt lat="47.78591" lon="-3.67076">
        <ele>13</ele>
        <time>2018-07-18T12:09:29Z</time>
      </trkpt>
      <trkpt lat="47.7859" lon="-3.67071">
        <ele>13</ele>
        <time>2018-07-18T12:09:30Z</time>
      </trkpt>
      <trkpt lat="47.7859" lon="-3.67066">
        <ele>14</ele>
        <time>2018-07-18T12:09:31Z</time>
      </trkpt>
      <trkpt lat="47.78589" lon="-3.67061">
        <ele>13</ele>
        <time>2018-07-18T12:09:32Z</time>
      </trkpt>
      <trkpt lat="47.78589" lon="-3.67056">
        <ele>14</ele>
        <time>2018-07-18T12:09:33Z</time>
      </trkpt>
      <trkpt lat="47.78589" lon="-3.6705">
        <ele>14</ele>
        <time>2018-07-18T12:09:34Z</time>
      </trkpt>
      <trkpt lat="47.78589" lon="-3.67045">
        <ele>14</ele>
        <time>2018-07-18T12:09:35Z</time>
      </trkpt>
      <trkpt lat="47.7859" lon="-3.67039">
        <ele>14</ele>
        <time>2018-07-18T12:09:36Z</time>
      </trkpt>
      <trkpt lat="47.7859" lon="-3.67034">
        <ele>14</ele>
        <time>2018-07-18T12:09:37Z</time>
      </trkpt>
      <trkpt lat="47.78592" lon="-3.67028">
        <ele>14</ele>
        <time>2018-07-18T12:09:38Z</time>
      </trkpt>
      <trkpt lat="47.78593" lon="-3.67023">
        <ele>14</ele>
        <time>2018-07-18T12:09:39Z</time>
      </trkpt>
      <trkpt lat="47.78595" lon="-3.67018">
        <ele>15</ele>
        <time>2018-07-18T12:09:40Z</time>
      </trkpt>
      <trkpt lat="47.78597" lon="-3.67013">
        <ele>15</ele>
        <time>2018-07-18T12:09:41Z</time>
      </trkpt>
      <trkpt lat="47.786" lon="-3.67009">
        <ele>15</ele>
        <time>2018-07-18T12:09:42Z</time>
      </trkpt>
      <trkpt lat="47.78603" lon="-3.67004">
        <ele>15</ele>
        <time>2018-07-18T12:09:43Z</time>
      </trkpt>
      <trkpt lat="47.78606" lon="-3.67">
        <ele>15</ele>
        <time>2018-07-18T12:09:44Z</time>
      </trkpt>
      <trkpt lat="47.78609" lon="-3.66997">
        <ele>15</ele>
        <time>2018-07-18T12:09:45Z</time>
      </trkpt>
      <trkpt lat="47.78613" lon="-3.66993">
        <ele>15</ele>
        <time>2018-07-18T12:09:46Z</time>
      </trkpt>
      <trkpt lat="47.78617" lon="-3.66989">
        <ele>15</ele>
        <time>2018-07-18T12:09:47Z</time>
      </trkpt>
      <trkpt lat="47.78621" lon="-3.66986">
        <ele>15</ele>
        <time>2018-07-18T12:09:48Z</time>
      </trkpt>
      <trkpt lat="47.78625" lon="-3.66983">
        <ele>15</ele>
        <time>2018-07-18T12:09:49Z</time>
      </trkpt>
      <trkpt lat="47.78628" lon="-3.6698">
        <ele>15</ele>
        <time>2018-07-18T12:09:50Z</time>
      </trkpt>
      <trkpt lat="47.78632" lon="-3.66976">
        <ele>15</ele>
        <time>2018-07-18T12:09:51Z</time>
      </trkpt>
      <trkpt lat="47.78635" lon="-3.66973">
        <ele>15</ele>
        <time>2018-07-18T12:09:52Z</time>
      </trkpt>
      <trkpt lat="47.78639" lon="-3.6697">
        <ele>15</ele>
        <time>2018-07-18T12:09:53Z</time>
      </trkpt>
      <trkpt lat="47.78644" lon="-3.66968">
        <ele>15</ele>
        <time>2018-07-18T12:09:54Z</time>
      </trkpt>
      <trkpt lat="47.78648" lon="-3.66965">
        <ele>15</ele>
        <time>2018-07-18T12:09:55Z</time>
      </trkpt>
      <trkpt lat="47.78653" lon="-3.66963">
        <ele>15</ele>
        <time>2018-07-18T12:09:56Z</time>
      </trkpt>
      <trkpt lat="47.78657" lon="-3.6696">
        <ele>15</ele>
        <time>2018-07-18T12:09:57Z</time>
      </trkpt>
      <trkpt lat="47.78662" lon="-3.66959">
        <ele>15</ele>
        <time>2018-07-18T12:09:58Z</time>
      </trkpt>
      <trkpt lat="47.78667" lon="-3.66958">
        <ele>15</ele>
        <time>2018-07-18T12:09:59Z</time>
      </trkpt>
      <trkpt lat="47.78671" lon="-3.66957">
        <ele>15</ele>
        <time>2018-07-18T12:10:00Z</time>
      </trkpt>
      <trkpt lat="47.78676" lon="-3.66956">
        <ele>15</ele>
        <time>2018-07-18T12:10:01Z</time>
      </trkpt>
      <trkpt lat="47.7868" lon="-3.66955">
        <ele>15</ele>
        <time>2018-07-18T12:10:02Z</time>
      </trkpt>
      <trkpt lat="47.78684" lon="-3.66954">
        <ele>15</ele>
        <time>2018-07-18T12:10:03Z</time>
      </trkpt>
      <trkpt lat="47.78688" lon="-3.66954">
        <ele>15</ele>
        <time>2018-07-18T12:10:04Z</time>
      </trkpt>
      <trkpt lat="47.78692" lon="-3.66954">
        <ele>15</ele>
        <time>2018-07-18T12:10:05Z</time>
      </trkpt>
      <trkpt lat="47.78697" lon="-3.66954">
        <ele>15</ele>
        <time>2018-07-18T12:10:06Z</time>
      </trkpt>
      <trkpt lat="47.78701" lon="-3.66954">
        <ele>15</ele>
        <time>2018-07-18T12:10:07Z</time>
      </trkpt>
      <trkpt lat="47.78706" lon="-3.66954">
        <ele>15</ele>
        <time>2018-07-18T12:10:08Z</time>
      </trkpt>
      <trkpt lat="47.78711" lon="-3.66954">
        <ele>15</ele>
        <time>2018-07-18T12:10:09Z</time>
      </trkpt>
      <trkpt lat="47.78716" lon="-3.66955">
        <ele>15</ele>
        <time>2018-07-18T12:10:10Z</time>
      </trkpt>
      <trkpt lat="47.78721" lon="-3.66956">
        <ele>15</ele>
        <time>2018-07-18T12:10:11Z</time>
      </trkpt>
      <trkpt lat="47.78726" lon="-3.66957">
        <ele>15</ele>
        <time>2018-07-18T12:10:12Z</time>
      </trkpt>
      <trkpt lat="47.78731" lon="-3.66957">
        <ele>15</ele>
        <time>2018-07-18T12:10:13Z</time>
      </trkpt>
      <trkpt lat="47.78735" lon="-3.66958">
        <ele>15</ele>
        <time>2018-07-18T12:10:14Z</time>
      </trkpt>
      <trkpt lat="47.78741" lon="-3.66959">
        <ele>14</ele>
        <time>2018-07-18T12:10:15Z</time>
      </trkpt>
      <trkpt lat="47.78746" lon="-3.66961">
        <ele>14</ele>
        <time>2018-07-18T12:10:16Z</time>
      </trkpt>
      <trkpt lat="47.78751" lon="-3.66962">
        <ele>14</ele>
        <time>2018-07-18T12:10:17Z</time>
      </trkpt>
      <trkpt lat="47.78756" lon="-3.66963">
        <ele>14</ele>
        <time>2018-07-18T12:10:18Z</time>
      </trkpt>
      <trkpt lat="47.78762" lon="-3.66964">
        <ele>14</ele>
        <time>2018-07-18T12:10:19Z</time>
      </trkpt>
      <trkpt lat="47.78767" lon="-3.66965">
        <ele>14</ele>
        <time>2018-07-18T12:10:20Z</time>
      </trkpt>
      <trkpt lat="47.78773" lon="-3.66966">
        <ele>14</ele>
        <time>2018-07-18T12:10:21Z</time>
      </trkpt>
      <trkpt lat="47.78778" lon="-3.66967">
        <ele>14</ele>
        <time>2018-07-18T12:10:22Z</time>
      </trkpt>
      <trkpt lat="47.78784" lon="-3.66968">
        <ele>14</ele>
        <time>2018-07-18T12:10:23Z</time>
      </trkpt>
      <trkpt lat="47.78789" lon="-3.66969">
        <ele>14</ele>
        <time>2018-07-18T12:10:24Z</time>
      </trkpt>
      <trkpt lat="47.78795" lon="-3.66971">
        <ele>14</ele>
        <time>2018-07-18T12:10:25Z</time>
      </trkpt>
      <trkpt lat="47.78801" lon="-3.66972">
        <ele>14</ele>
        <time>2018-07-18T12:10:26Z</time>
      </trkpt>
      <trkpt lat="47.78807" lon="-3.66974">
        <ele>14</ele>
        <time>2018-07-18T12:10:27Z</time>
      </trkpt>
      <trkpt lat="47.78813" lon="-3.66975">
        <ele>14</ele>
        <time>2018-07-18T12:10:28Z</time>
      </trkpt>
      <trkpt lat="47.78819" lon="-3.66976">
        <ele>14</ele>
        <time>2018-07-18T12:10:29Z</time>
      </trkpt>
      <trkpt lat="47.78824" lon="-3.66977">
        <ele>14</ele>
        <time>2018-07-18T12:10:30Z</time>
      </trkpt>
      <trkpt lat="47.78829" lon="-3.66978">
        <ele>14</ele>
        <time>2018-07-18T12:10:31Z</time>
      </trkpt>
      <trkpt lat="47.78835" lon="-3.66979">
        <ele>14</ele>
        <time>2018-07-18T12:10:32Z</time>
      </trkpt>
      <trkpt lat="47.78841" lon="-3.66978">
        <ele>14</ele>
        <time>2018-07-18T12:10:33Z</time>
      </trkpt>
      <trkpt lat="47.78846" lon="-3.66978">
        <ele>14</ele>
        <time>2018-07-18T12:10:34Z</time>
      </trkpt>
      <trkpt lat="47.78853" lon="-3.66977">
        <ele>14</ele>
        <time>2018-07-18T12:10:35Z</time>
      </trkpt>
      <trkpt lat="47.78859" lon="-3.66976">
        <ele>14</ele>
        <time>2018-07-18T12:10:36Z</time>
      </trkpt>
      <trkpt lat="47.78866" lon="-3.66975">
        <ele>14</ele>
        <time>2018-07-18T12:10:37Z</time>
      </trkpt>
      <trkpt lat="47.78873" lon="-3.66974">
        <ele>14</ele>
        <time>2018-07-18T12:10:38Z</time>
      </trkpt>
      <trkpt lat="47.78879" lon="-3.66973">
        <ele>14</ele>
        <time>2018-07-18T12:10:39Z</time>
      </trkpt>
      <trkpt lat="47.78886" lon="-3.66971">
        <ele>14</ele>
        <time>2018-07-18T12:10:40Z</time>
      </trkpt>
      <trkpt lat="47.78893" lon="-3.66969">
        <ele>15</ele>
        <time>2018-07-18T12:10:41Z</time>
      </trkpt>
      <trkpt lat="47.78899" lon="-3.66968">
        <ele>15</ele>
        <time>2018-07-18T12:10:42Z</time>
      </trkpt>
      <trkpt lat="47.78906" lon="-3.66966">
        <ele>15</ele>
        <time>2018-07-18T12:10:43Z</time>
      </trkpt>
      <trkpt lat="47.78913" lon="-3.66964">
        <ele>15</ele>
        <time>2018-07-18T12:10:44Z</time>
      </trkpt>
      <trkpt lat="47.7892" lon="-3.66962">
        <ele>15</ele>
        <time>2018-07-18T12:10:45Z</time>
      </trkpt>
      <trkpt lat="47.78927" lon="-3.6696">
        <ele>15</ele>
        <time>2018-07-18T12:10:46Z</time>
      </trkpt>
      <trkpt lat="47.78934" lon="-3.66957">
        <ele>15</ele>
        <time>2018-07-18T12:10:47Z</time>
      </trkpt>
      <trkpt lat="47.7894" lon="-3.66956">
        <ele>15</ele>
        <time>2018-07-18T12:10:48Z</time>
      </trkpt>
      <trkpt lat="47.78948" lon="-3.66954">
        <ele>15</ele>
        <time>2018-07-18T12:10:49Z</time>
      </trkpt>
      <trkpt lat="47.78955" lon="-3.66952">
        <ele>14</ele>
        <time>2018-07-18T12:10:50Z</time>
      </trkpt>
      <trkpt lat="47.78963" lon="-3.66949">
        <ele>14</ele>
        <time>2018-07-18T12:10:51Z</time>
      </trkpt>
      <trkpt lat="47.7897" lon="-3.66946">
        <ele>14</ele>
        <time>2018-07-18T12:10:52Z</time>
      </trkpt>
      <trkpt lat="47.78977" lon="-3.66943">
        <ele>14</ele>
        <time>2018-07-18T12:10:53Z</time>
      </trkpt>
      <trkpt lat="47.78984" lon="-3.66941">
        <ele>14</ele>
        <time>2018-07-18T12:10:54Z</time>
      </trkpt>
      <trkpt lat="47.78992" lon="-3.6694">
        <ele>14</ele>
        <time>2018-07-18T12:10:55Z</time>
      </trkpt>
      <trkpt lat="47.79" lon="-3.66937">
        <ele>13</ele>
        <time>2018-07-18T12:10:56Z</time>
      </trkpt>
      <trkpt lat="47.79008" lon="-3.66934">
        <ele>13</ele>
        <time>2018-07-18T12:10:57Z</time>
      </trkpt>
      <trkpt lat="47.79016" lon="-3.66931">
        <ele>13</ele>
        <time>2018-07-18T12:10:58Z</time>
      </trkpt>
      <trkpt lat="47.79024" lon="-3.66928">
        <ele>12</ele>
        <time>2018-07-18T12:10:59Z</time>
      </trkpt>
      <trkpt lat="47.79032" lon="-3.66924">
        <ele>12</ele>
        <time>2018-07-18T12:11:00Z</time>
      </trkpt>
      <trkpt lat="47.7904" lon="-3.66919">
        <ele>12</ele>
        <time>2018-07-18T12:11:01Z</time>
      </trkpt>
      <trkpt lat="47.79048" lon="-3.66914">
        <ele>12</ele>
        <time>2018-07-18T12:11:02Z</time>
      </trkpt>
      <trkpt lat="47.79055" lon="-3.66908">
        <ele>11</ele>
        <time>2018-07-18T12:11:03Z</time>
      </trkpt>
      <trkpt lat="47.79062" lon="-3.66901">
        <ele>11</ele>
        <time>2018-07-18T12:11:04Z</time>
      </trkpt>
      <trkpt lat="47.79069" lon="-3.66895">
        <ele>11</ele>
        <time>2018-07-18T12:11:05Z</time>
      </trkpt>
      <trkpt lat="47.79076" lon="-3.66888">
        <ele>11</ele>
        <time>2018-07-18T12:11:06Z</time>
      </trkpt>
      <trkpt lat="47.79082" lon="-3.66882">
        <ele>11</ele>
        <time>2018-07-18T12:11:07Z</time>
      </trkpt>
      <trkpt lat="47.79088" lon="-3.66876">
        <ele>11</ele>
        <time>2018-07-18T12:11:08Z</time>
      </trkpt>
      <trkpt lat="47.79093" lon="-3.6687">
        <ele>11</ele>
        <time>2018-07-18T12:11:09Z</time>
      </trkpt>
      <trkpt lat="47.79097" lon="-3.66865">
        <ele>11</ele>
        <time>2018-07-18T12:11:10Z</time>
      </trkpt>
      <trkpt lat="47.79101" lon="-3.6686">
        <ele>11</ele>
        <time>2018-07-18T12:11:11Z</time>
      </trkpt>
      <trkpt lat="47.79103" lon="-3.66857">
        <ele>11</ele>
        <time>2018-07-18T12:11:12Z</time>
      </trkpt>
      <trkpt lat="47.79104" lon="-3.66856">
        <ele>11</ele>
        <time>2018-07-18T12:11:13Z</time>
      </trkpt>
      <trkpt lat="47.79104" lon="-3.66856">
        <ele>11</ele>
        <time>2018-07-18T12:11:14Z</time>
      </trkpt>
      <trkpt lat="47.79104" lon="-3.66856">
        <ele>11</ele>
        <time>2018-07-18T12:11:15Z</time>
      </trkpt>
      <trkpt lat="47.79104" lon="-3.66856">
        <ele>11</ele>
        <time>2018-07-18T12:11:16Z</time>
      </trkpt>
      <trkpt lat="47.79106" lon="-3.66856">
        <ele>10</ele>
        <time>2018-07-18T12:11:17Z</time>
      </trkpt>
      <trkpt lat="47.79107" lon="-3.66855">
        <ele>10</ele>
        <time>2018-07-18T12:11:18Z</time>
      </trkpt>
      <trkpt lat="47.79108" lon="-3.66853">
        <ele>10</ele>
        <time>2018-07-18T12:11:19Z</time>
      </trkpt>
      <trkpt lat="47.79109" lon="-3.66852">
        <ele>10</ele>
        <time>2018-07-18T12:11:20Z</time>
      </trkpt>
      <trkpt lat="47.7911" lon="-3.6685">
        <ele>11</ele>
        <time>2018-07-18T12:11:21Z</time>
      </trkpt>
      <trkpt lat="47.79111" lon="-3.66847">
        <ele>11</ele>
        <time>2018-07-18T12:11:22Z</time>
      </trkpt>
      <trkpt lat="47.79111" lon="-3.66844">
        <ele>11</ele>
        <time>2018-07-18T12:11:23Z</time>
      </trkpt>
      <trkpt lat="47.79112" lon="-3.66841">
        <ele>11</ele>
        <time>2018-07-18T12:11:24Z</time>
      </trkpt>
      <trkpt lat="47.79113" lon="-3.66839">
        <ele>12</ele>
        <time>2018-07-18T12:11:25Z</time>
      </trkpt>
      <trkpt lat="47.79114" lon="-3.66837">
        <ele>12</ele>
        <time>2018-07-18T12:11:26Z</time>
      </trkpt>
      <trkpt lat="47.79114" lon="-3.66837">
        <ele>12</ele>
        <time>2018-07-18T12:11:27Z</time>
      </trkpt>
      <trkpt lat="47.79114" lon="-3.66837">
        <ele>12</ele>
        <time>2018-07-18T12:11:28Z</time>
      </trkpt>
      <trkpt lat="47.79114" lon="-3.66837">
        <ele>12</ele>
        <time>2018-07-18T12:11:29Z</time>
      </trkpt>
      <trkpt lat="47.79115" lon="-3.66837">
        <ele>12</ele>
        <time>2018-07-18T12:11:30Z</time>
      </trkpt>
      <trkpt lat="47.79116" lon="-3.66835">
        <ele>13</ele>
        <time>2018-07-18T12:11:31Z</time>
      </trkpt>
      <trkpt lat="47.79117" lon="-3.66833">
        <ele>13</ele>
        <time>2018-07-18T12:11:32Z</time>
      </trkpt>
      <trkpt lat="47.79117" lon="-3.6683">
        <ele>13</ele>
        <time>2018-07-18T12:11:33Z</time>
      </trkpt>
      <trkpt lat="47.79117" lon="-3.66828">
        <ele>13</ele>
        <time>2018-07-18T12:11:34Z</time>
      </trkpt>
      <trkpt lat="47.79117" lon="-3.66825">
        <ele>13</ele>
        <time>2018-07-18T12:11:35Z</time>
      </trkpt>
      <trkpt lat="47.79118" lon="-3.66822">
        <ele>13</ele>
        <time>2018-07-18T12:11:36Z</time>
      </trkpt>
      <trkpt lat="47.79117" lon="-3.66818">
        <ele>13</ele>
        <time>2018-07-18T12:11:37Z</time>
      </trkpt>
      <trkpt lat="47.79117" lon="-3.66814">
        <ele>13</ele>
        <time>2018-07-18T12:11:38Z</time>
      </trkpt>
      <trkpt lat="47.79116" lon="-3.66811">
        <ele>13</ele>
        <time>2018-07-18T12:11:39Z</time>
      </trkpt>
      <trkpt lat="47.79115" lon="-3.66809">
        <ele>13</ele>
        <time>2018-07-18T12:11:40Z</time>
      </trkpt>
      <trkpt lat="47.79115" lon="-3.66806">
        <ele>13</ele>
        <time>2018-07-18T12:11:41Z</time>
      </trkpt>
      <trkpt lat="47.79114" lon="-3.66803">
        <ele>13</ele>
        <time>2018-07-18T12:11:42Z</time>
      </trkpt>
      <trkpt lat="47.79114" lon="-3.668">
        <ele>13</ele>
        <time>2018-07-18T12:11:43Z</time>
      </trkpt>
      <trkpt lat="47.79114" lon="-3.66797">
        <ele>13</ele>
        <time>2018-07-18T12:11:44Z</time>
      </trkpt>
      <trkpt lat="47.79115" lon="-3.66793">
        <ele>13</ele>
        <time>2018-07-18T12:11:45Z</time>
      </trkpt>
      <trkpt lat="47.79115" lon="-3.6679">
        <ele>13</ele>
        <time>2018-07-18T12:11:46Z</time>
      </trkpt>
      <trkpt lat="47.79115" lon="-3.66787">
        <ele>13</ele>
        <time>2018-07-18T12:11:47Z</time>
      </trkpt>
      <trkpt lat="47.79114" lon="-3.66783">
        <ele>13</ele>
        <time>2018-07-18T12:11:48Z</time>
      </trkpt>
      <trkpt lat="47.79114" lon="-3.66779">
        <ele>13</ele>
        <time>2018-07-18T12:11:49Z</time>
      </trkpt>
      <trkpt lat="47.79113" lon="-3.66776">
        <ele>13</ele>
        <time>2018-07-18T12:11:50Z</time>
      </trkpt>
      <trkpt lat="47.79111" lon="-3.66772">
        <ele>12</ele>
        <time>2018-07-18T12:11:51Z</time>
      </trkpt>
      <trkpt lat="47.79111" lon="-3.66768">
        <ele>12</ele>
        <time>2018-07-18T12:11:52Z</time>
      </trkpt>
      <trkpt lat="47.7911" lon="-3.66764">
        <ele>12</ele>
        <time>2018-07-18T12:11:53Z</time>
      </trkpt>
      <trkpt lat="47.7911" lon="-3.6676">
        <ele>12</ele>
        <time>2018-07-18T12:11:54Z</time>
      </trkpt>
      <trkpt lat="47.79109" lon="-3.66756">
        <ele>12</ele>
        <time>2018-07-18T12:11:55Z</time>
      </trkpt>
      <trkpt lat="47.79108" lon="-3.66753">
        <ele>11</ele>
        <time>2018-07-18T12:11:56Z</time>
      </trkpt>
      <trkpt lat="47.79108" lon="-3.66749">
        <ele>11</ele>
        <time>2018-07-18T12:11:57Z</time>
      </trkpt>
      <trkpt lat="47.79106" lon="-3.66745">
        <ele>11</ele>
        <time>2018-07-18T12:11:58Z</time>
      </trkpt>
      <trkpt lat="47.79106" lon="-3.66741">
        <ele>10</ele>
        <time>2018-07-18T12:11:59Z</time>
      </trkpt>
      <trkpt lat="47.79105" lon="-3.66737">
        <ele>10</ele>
        <time>2018-07-18T12:12:00Z</time>
      </trkpt>
      <trkpt lat="47.79104" lon="-3.66732">
        <ele>10</ele>
        <time>2018-07-18T12:12:01Z</time>
      </trkpt>
      <trkpt lat="47.79103" lon="-3.66728">
        <ele>9</ele>
        <time>2018-07-18T12:12:02Z</time>
      </trkpt>
      <trkpt lat="47.79102" lon="-3.66723">
        <ele>9</ele>
        <time>2018-07-18T12:12:03Z</time>
      </trkpt>
      <trkpt lat="47.79101" lon="-3.66718">
        <ele>9</ele>
        <time>2018-07-18T12:12:04Z</time>
      </trkpt>
      <trkpt lat="47.791" lon="-3.66713">
        <ele>9</ele>
        <time>2018-07-18T12:12:05Z</time>
      </trkpt>
      <trkpt lat="47.79099" lon="-3.66708">
        <ele>9</ele>
        <time>2018-07-18T12:12:06Z</time>
      </trkpt>
      <trkpt lat="47.79098" lon="-3.66704">
        <ele>8</ele>
        <time>2018-07-18T12:12:07Z</time>
      </trkpt>
      <trkpt lat="47.79096" lon="-3.66699">
        <ele>8</ele>
        <time>2018-07-18T12:12:08Z</time>
      </trkpt>
      <trkpt lat="47.79095" lon="-3.66694">
        <ele>8</ele>
        <time>2018-07-18T12:12:09Z</time>
      </trkpt>
      <trkpt lat="47.79094" lon="-3.66689">
        <ele>8</ele>
        <time>2018-07-18T12:12:10Z</time>
      </trkpt>
      <trkpt lat="47.79094" lon="-3.66684">
        <ele>8</ele>
        <time>2018-07-18T12:12:11Z</time>
      </trkpt>
      <trkpt lat="47.79093" lon="-3.66679">
        <ele>8</ele>
        <time>2018-07-18T12:12:12Z</time>
      </trkpt>
      <trkpt lat="47.79092" lon="-3.66675">
        <ele>8</ele>
        <time>2018-07-18T12:12:13Z</time>
      </trkpt>
      <trkpt lat="47.79091" lon="-3.66669">
        <ele>8</ele>
        <time>2018-07-18T12:12:14Z</time>
      </trkpt>
      <trkpt lat="47.7909" lon="-3.66665">
        <ele>8</ele>
        <time>2018-07-18T12:12:15Z</time>
      </trkpt>
      <trkpt lat="47.79088" lon="-3.6666">
        <ele>8</ele>
        <time>2018-07-18T12:12:16Z</time>
      </trkpt>
      <trkpt lat="47.79087" lon="-3.66654">
        <ele>8</ele>
        <time>2018-07-18T12:12:17Z</time>
      </trkpt>
      <trkpt lat="47.79086" lon="-3.66649">
        <ele>8</ele>
        <time>2018-07-18T12:12:18Z</time>
      </trkpt>
      <trkpt lat="47.79085" lon="-3.66644">
        <ele>8</ele>
        <time>2018-07-18T12:12:19Z</time>
      </trkpt>
      <trkpt lat="47.79084" lon="-3.66639">
        <ele>8</ele>
        <time>2018-07-18T12:12:20Z</time>
      </trkpt>
      <trkpt lat="47.79083" lon="-3.66634">
        <ele>8</ele>
        <time>2018-07-18T12:12:21Z</time>
      </trkpt>
      <trkpt lat="47.79082" lon="-3.66629">
        <ele>8</ele>
        <time>2018-07-18T12:12:22Z</time>
      </trkpt>
      <trkpt lat="47.79082" lon="-3.66624">
        <ele>8</ele>
        <time>2018-07-18T12:12:23Z</time>
      </trkpt>
      <trkpt lat="47.79081" lon="-3.66619">
        <ele>8</ele>
        <time>2018-07-18T12:12:24Z</time>
      </trkpt>
      <trkpt lat="47.7908" lon="-3.66614">
        <ele>8</ele>
        <time>2018-07-18T12:12:25Z</time>
      </trkpt>
      <trkpt lat="47.79079" lon="-3.66609">
        <ele>8</ele>
        <time>2018-07-18T12:12:26Z</time>
      </trkpt>
      <trkpt lat="47.79078" lon="-3.66604">
        <ele>8</ele>
        <time>2018-07-18T12:12:27Z</time>
      </trkpt>
      <trkpt lat="47.79078" lon="-3.66599">
        <ele>9</ele>
        <time>2018-07-18T12:12:28Z</time>
      </trkpt>
      <trkpt lat="47.79078" lon="-3.66594">
        <ele>9</ele>
        <time>2018-07-18T12:12:29Z</time>
      </trkpt>
      <trkpt lat="47.79077" lon="-3.66589">
        <ele>10</ele>
        <time>2018-07-18T12:12:30Z</time>
      </trkpt>
      <trkpt lat="47.79076" lon="-3.66584">
        <ele>10</ele>
        <time>2018-07-18T12:12:31Z</time>
      </trkpt>
      <trkpt lat="47.79076" lon="-3.66579">
        <ele>10</ele>
        <time>2018-07-18T12:12:32Z</time>
      </trkpt>
      <trkpt lat="47.79075" lon="-3.66574">
        <ele>11</ele>
        <time>2018-07-18T12:12:33Z</time>
      </trkpt>
      <trkpt lat="47.79075" lon="-3.66569">
        <ele>12</ele>
        <time>2018-07-18T12:12:34Z</time>
      </trkpt>
      <trkpt lat="47.79074" lon="-3.66563">
        <ele>12</ele>
        <time>2018-07-18T12:12:35Z</time>
      </trkpt>
      <trkpt lat="47.79073" lon="-3.66558">
        <ele>13</ele>
        <time>2018-07-18T12:12:36Z</time>
      </trkpt>
      <trkpt lat="47.79072" lon="-3.66552">
        <ele>13</ele>
        <time>2018-07-18T12:12:37Z</time>
      </trkpt>
      <trkpt lat="47.79072" lon="-3.66547">
        <ele>13</ele>
        <time>2018-07-18T12:12:38Z</time>
      </trkpt>
      <trkpt lat="47.79071" lon="-3.66541">
        <ele>14</ele>
        <time>2018-07-18T12:12:39Z</time>
      </trkpt>
      <trkpt lat="47.79071" lon="-3.66536">
        <ele>14</ele>
        <time>2018-07-18T12:12:40Z</time>
      </trkpt>
      <trkpt lat="47.7907" lon="-3.6653">
        <ele>15</ele>
        <time>2018-07-18T12:12:41Z</time>
      </trkpt>
      <trkpt lat="47.7907" lon="-3.66524">
        <ele>15</ele>
        <time>2018-07-18T12:12:42Z</time>
      </trkpt>
      <trkpt lat="47.7907" lon="-3.66518">
        <ele>15</ele>
        <time>2018-07-18T12:12:43Z</time>
      </trkpt>
      <trkpt lat="47.7907" lon="-3.66513">
        <ele>16</ele>
        <time>2018-07-18T12:12:44Z</time>
      </trkpt>
      <trkpt lat="47.7907" lon="-3.66507">
        <ele>16</ele>
        <time>2018-07-18T12:12:45Z</time>
      </trkpt>
      <trkpt lat="47.7907" lon="-3.66502">
        <ele>16</ele>
        <time>2018-07-18T12:12:46Z</time>
      </trkpt>
      <trkpt lat="47.7907" lon="-3.66496">
        <ele>17</ele>
        <time>2018-07-18T12:12:47Z</time>
      </trkpt>
      <trkpt lat="47.79071" lon="-3.66491">
        <ele>17</ele>
        <time>2018-07-18T12:12:48Z</time>
      </trkpt>
      <trkpt lat="47.79071" lon="-3.66486">
        <ele>17</ele>
        <time>2018-07-18T12:12:49Z</time>
      </trkpt>
      <trkpt lat="47.79071" lon="-3.6648">
        <ele>17</ele>
        <time>2018-07-18T12:12:50Z</time>
      </trkpt>
      <trkpt lat="47.79072" lon="-3.66475">
        <ele>17</ele>
        <time>2018-07-18T12:12:51Z</time>
      </trkpt>
      <trkpt lat="47.79072" lon="-3.6647">
        <ele>18</ele>
        <time>2018-07-18T12:12:52Z</time>
      </trkpt>
      <trkpt lat="47.79073" lon="-3.66466">
        <ele>18</ele>
        <time>2018-07-18T12:12:53Z</time>
      </trkpt>
      <trkpt lat="47.79073" lon="-3.66462">
        <ele>18</ele>
        <time>2018-07-18T12:12:54Z</time>
      </trkpt>
      <trkpt lat="47.79073" lon="-3.66458">
        <ele>18</ele>
        <time>2018-07-18T12:12:55Z</time>
      </trkpt>
      <trkpt lat="47.79074" lon="-3.66456">
        <ele>18</ele>
        <time>2018-07-18T12:12:56Z</time>
      </trkpt>
      <trkpt lat="47.79074" lon="-3.66455">
        <ele>18</ele>
        <time>2018-07-18T12:12:57Z</time>
      </trkpt>
      <trkpt lat="47.79074" lon="-3.66455">
        <ele>19</ele>
        <time>2018-07-18T12:12:58Z</time>
      </trkpt>
      <trkpt lat="47.79074" lon="-3.66454">
        <ele>19</ele>
        <time>2018-07-18T12:12:59Z</time>
      </trkpt>
      <trkpt lat="47.79074" lon="-3.66454">
        <ele>19</ele>
        <time>2018-07-18T12:13:00Z</time>
      </trkpt>
      <trkpt lat="47.79073" lon="-3.66452">
        <ele>20</ele>
        <time>2018-07-18T12:13:01Z</time>
      </trkpt>
      <trkpt lat="47.79074" lon="-3.66449">
        <ele>20</ele>
        <time>2018-07-18T12:13:02Z</time>
      </trkpt>
      <trkpt lat="47.79075" lon="-3.66446">
        <ele>20</ele>
        <time>2018-07-18T12:13:03Z</time>
      </trkpt>
      <trkpt lat="47.79076" lon="-3.66442">
        <ele>20</ele>
        <time>2018-07-18T12:13:04Z</time>
      </trkpt>
      <trkpt lat="47.79077" lon="-3.66438">
        <ele>20</ele>
        <time>2018-07-18T12:13:05Z</time>
      </trkpt>
      <trkpt lat="47.79077" lon="-3.66432">
        <ele>20</ele>
        <time>2018-07-18T12:13:06Z</time>
      </trkpt>
      <trkpt lat="47.79078" lon="-3.66427">
        <ele>21</ele>
        <time>2018-07-18T12:13:07Z</time>
      </trkpt>
      <trkpt lat="47.79079" lon="-3.66422">
        <ele>21</ele>
        <time>2018-07-18T12:13:08Z</time>
      </trkpt>
      <trkpt lat="47.79079" lon="-3.66416">
        <ele>21</ele>
        <time>2018-07-18T12:13:09Z</time>
      </trkpt>
      <trkpt lat="47.7908" lon="-3.6641">
        <ele>21</ele>
        <time>2018-07-18T12:13:10Z</time>
      </trkpt>
      <trkpt lat="47.79081" lon="-3.66405">
        <ele>22</ele>
        <time>2018-07-18T12:13:11Z</time>
      </trkpt>
      <trkpt lat="47.79081" lon="-3.66399">
        <ele>22</ele>
        <time>2018-07-18T12:13:12Z</time>
      </trkpt>
      <trkpt lat="47.79082" lon="-3.66393">
        <ele>22</ele>
        <time>2018-07-18T12:13:13Z</time>
      </trkpt>
      <trkpt lat="47.79083" lon="-3.66387">
        <ele>23</ele>
        <time>2018-07-18T12:13:14Z</time>
      </trkpt>
      <trkpt lat="47.79083" lon="-3.66381">
        <ele>23</ele>
        <time>2018-07-18T12:13:15Z</time>
      </trkpt>
      <trkpt lat="47.79084" lon="-3.66375">
        <ele>23</ele>
        <time>2018-07-18T12:13:16Z</time>
      </trkpt>
      <trkpt lat="47.79085" lon="-3.66369">
        <ele>23</ele>
        <time>2018-07-18T12:13:17Z</time>
      </trkpt>
      <trkpt lat="47.79086" lon="-3.66363">
        <ele>24</ele>
        <time>2018-07-18T12:13:18Z</time>
      </trkpt>
      <trkpt lat="47.79086" lon="-3.66357">
        <ele>24</ele>
        <time>2018-07-18T12:13:19Z</time>
      </trkpt>
      <trkpt lat="47.79087" lon="-3.66352">
        <ele>24</ele>
        <time>2018-07-18T12:13:20Z</time>
      </trkpt>
      <trkpt lat="47.79088" lon="-3.66346">
        <ele>24</ele>
        <time>2018-07-18T12:13:21Z</time>
      </trkpt>
      <trkpt lat="47.79089" lon="-3.6634">
        <ele>24</ele>
        <time>2018-07-18T12:13:22Z</time>
      </trkpt>
      <trkpt lat="47.79089" lon="-3.66334">
        <ele>25</ele>
        <time>2018-07-18T12:13:23Z</time>
      </trkpt>
      <trkpt lat="47.7909" lon="-3.66328">
        <ele>25</ele>
        <time>2018-07-18T12:13:24Z</time>
      </trkpt>
      <trkpt lat="47.79091" lon="-3.66322">
        <ele>25</ele>
        <time>2018-07-18T12:13:25Z</time>
      </trkpt>
      <trkpt lat="47.79092" lon="-3.66316">
        <ele>25</ele>
        <time>2018-07-18T12:13:26Z</time>
      </trkpt>
      <trkpt lat="47.79093" lon="-3.66311">
        <ele>25</ele>
        <time>2018-07-18T12:13:27Z</time>
      </trkpt>
      <trkpt lat="47.79093" lon="-3.66304">
        <ele>25</ele>
        <time>2018-07-18T12:13:28Z</time>
      </trkpt>
      <trkpt lat="47.79094" lon="-3.66299">
        <ele>26</ele>
        <time>2018-07-18T12:13:29Z</time>
      </trkpt>
      <trkpt lat="47.79094" lon="-3.66293">
        <ele>26</ele>
        <time>2018-07-18T12:13:30Z</time>
      </trkpt>
      <trkpt lat="47.79094" lon="-3.66288">
        <ele>26</ele>
        <time>2018-07-18T12:13:31Z</time>
      </trkpt>
      <trkpt lat="47.79095" lon="-3.66282">
        <ele>26</ele>
        <time>2018-07-18T12:13:32Z</time>
      </trkpt>
      <trkpt lat="47.79097" lon="-3.66276">
        <ele>26</ele>
        <time>2018-07-18T12:13:33Z</time>
      </trkpt>
      <trkpt lat="47.79099" lon="-3.66271">
        <ele>26</ele>
        <time>2018-07-18T12:13:34Z</time>
      </trkpt>
      <trkpt lat="47.79101" lon="-3.66266">
        <ele>26</ele>
        <time>2018-07-18T12:13:35Z</time>
      </trkpt>
      <trkpt lat="47.79104" lon="-3.66262">
        <ele>26</ele>
        <time>2018-07-18T12:13:36Z</time>
      </trkpt>
      <trkpt lat="47.79108" lon="-3.66257">
        <ele>26</ele>
        <time>2018-07-18T12:13:37Z</time>
      </trkpt>
      <trkpt lat="47.79111" lon="-3.66253">
        <ele>26</ele>
        <time>2018-07-18T12:13:38Z</time>
      </trkpt>
      <trkpt lat="47.79114" lon="-3.66249">
        <ele>26</ele>
        <time>2018-07-18T12:13:39Z</time>
      </trkpt>
      <trkpt lat="47.79118" lon="-3.66245">
        <ele>27</ele>
        <time>2018-07-18T12:13:40Z</time>
      </trkpt>
      <trkpt lat="47.79121" lon="-3.66241">
        <ele>27</ele>
        <time>2018-07-18T12:13:41Z</time>
      </trkpt>
      <trkpt lat="47.79124" lon="-3.66237">
        <ele>27</ele>
        <time>2018-07-18T12:13:42Z</time>
      </trkpt>
      <trkpt lat="47.79128" lon="-3.66232">
        <ele>27</ele>
        <time>2018-07-18T12:13:43Z</time>
      </trkpt>
      <trkpt lat="47.79131" lon="-3.66227">
        <ele>27</ele>
        <time>2018-07-18T12:13:44Z</time>
      </trkpt>
      <trkpt lat="47.79135" lon="-3.66222">
        <ele>27</ele>
        <time>2018-07-18T12:13:45Z</time>
      </trkpt>
      <trkpt lat="47.79138" lon="-3.66217">
        <ele>27</ele>
        <time>2018-07-18T12:13:46Z</time>
      </trkpt>
      <trkpt lat="47.79141" lon="-3.66212">
        <ele>27</ele>
        <time>2018-07-18T12:13:47Z</time>
      </trkpt>
      <trkpt lat="47.79145" lon="-3.66207">
        <ele>27</ele>
        <time>2018-07-18T12:13:48Z</time>
      </trkpt>
      <trkpt lat="47.79148" lon="-3.66201">
        <ele>27</ele>
        <time>2018-07-18T12:13:49Z</time>
      </trkpt>
      <trkpt lat="47.79151" lon="-3.66196">
        <ele>27</ele>
        <time>2018-07-18T12:13:50Z</time>
      </trkpt>
      <trkpt lat="47.79154" lon="-3.6619">
        <ele>27</ele>
        <time>2018-07-18T12:13:51Z</time>
      </trkpt>
      <trkpt lat="47.79157" lon="-3.66184">
        <ele>27</ele>
        <time>2018-07-18T12:13:52Z</time>
      </trkpt>
      <trkpt lat="47.7916" lon="-3.66177">
        <ele>27</ele>
        <time>2018-07-18T12:13:53Z</time>
      </trkpt>
      <trkpt lat="47.79163" lon="-3.66171">
        <ele>27</ele>
        <time>2018-07-18T12:13:54Z</time>
      </trkpt>
      <trkpt lat="47.79166" lon="-3.66164">
        <ele>27</ele>
        <time>2018-07-18T12:13:55Z</time>
      </trkpt>
      <trkpt lat="47.79169" lon="-3.66158">
        <ele>27</ele>
        <time>2018-07-18T12:13:56Z</time>
      </trkpt>
      <trkpt lat="47.79171" lon="-3.66151">
        <ele>27</ele>
        <time>2018-07-18T12:13:57Z</time>
      </trkpt>
      <trkpt lat="47.79174" lon="-3.66144">
        <ele>27</ele>
        <time>2018-07-18T12:13:58Z</time>
      </trkpt>
      <trkpt lat="47.79177" lon="-3.66138">
        <ele>28</ele>
        <time>2018-07-18T12:13:59Z</time>
      </trkpt>
      <trkpt lat="47.7918" lon="-3.66131">
        <ele>28</ele>
        <time>2018-07-18T12:14:00Z</time>
      </trkpt>
      <trkpt lat="47.79182" lon="-3.66124">
        <ele>28</ele>
        <time>2018-07-18T12:14:01Z</time>
      </trkpt>
      <trkpt lat="47.79185" lon="-3.66117">
        <ele>28</ele>
        <time>2018-07-18T12:14:02Z</time>
      </trkpt>
      <trkpt lat="47.79188" lon="-3.6611">
        <ele>28</ele>
        <time>2018-07-18T12:14:03Z</time>
      </trkpt>
      <trkpt lat="47.79191" lon="-3.66103">
        <ele>28</ele>
        <time>2018-07-18T12:14:04Z</time>
      </trkpt>
      <trkpt lat="47.79194" lon="-3.66096">
        <ele>28</ele>
        <time>2018-07-18T12:14:05Z</time>
      </trkpt>
      <trkpt lat="47.79196" lon="-3.66088">
        <ele>28</ele>
        <time>2018-07-18T12:14:06Z</time>
      </trkpt>
      <trkpt lat="47.79199" lon="-3.66081">
        <ele>28</ele>
        <time>2018-07-18T12:14:07Z</time>
      </trkpt>
      <trkpt lat="47.79202" lon="-3.66074">
        <ele>28</ele>
        <time>2018-07-18T12:14:08Z</time>
      </trkpt>
      <trkpt lat="47.79204" lon="-3.66066">
        <ele>28</ele>
        <time>2018-07-18T12:14:09Z</time>
      </trkpt>
      <trkpt lat="47.79206" lon="-3.66059">
        <ele>28</ele>
        <time>2018-07-18T12:14:10Z</time>
      </trkpt>
      <trkpt lat="47.79209" lon="-3.66052">
        <ele>28</ele>
        <time>2018-07-18T12:14:11Z</time>
      </trkpt>
      <trkpt lat="47.7921" lon="-3.66044">
        <ele>28</ele>
        <time>2018-07-18T12:14:12Z</time>
      </trkpt>
      <trkpt lat="47.79213" lon="-3.66037">
        <ele>29</ele>
        <time>2018-07-18T12:14:13Z</time>
      </trkpt>
      <trkpt lat="47.79214" lon="-3.66029">
        <ele>29</ele>
        <time>2018-07-18T12:14:14Z</time>
      </trkpt>
      <trkpt lat="47.79216" lon="-3.66022">
        <ele>29</ele>
        <time>2018-07-18T12:14:15Z</time>
      </trkpt>
      <trkpt lat="47.79217" lon="-3.66014">
        <ele>29</ele>
        <time>2018-07-18T12:14:16Z</time>
      </trkpt>
      <trkpt lat="47.79218" lon="-3.66006">
        <ele>29</ele>
        <time>2018-07-18T12:14:17Z</time>
      </trkpt>
      <trkpt lat="47.7922" lon="-3.65998">
        <ele>29</ele>
        <time>2018-07-18T12:14:18Z</time>
      </trkpt>
      <trkpt lat="47.7922" lon="-3.65989">
        <ele>29</ele>
        <time>2018-07-18T12:14:19Z</time>
      </trkpt>
      <trkpt lat="47.79221" lon="-3.65982">
        <ele>29</ele>
        <time>2018-07-18T12:14:20Z</time>
      </trkpt>
      <trkpt lat="47.79222" lon="-3.65974">
        <ele>29</ele>
        <time>2018-07-18T12:14:21Z</time>
      </trkpt>
      <trkpt lat="47.79222" lon="-3.65966">
        <ele>29</ele>
        <time>2018-07-18T12:14:22Z</time>
      </trkpt>
      <trkpt lat="47.79223" lon="-3.65958">
        <ele>29</ele>
        <time>2018-07-18T12:14:23Z</time>
      </trkpt>
      <trkpt lat="47.79223" lon="-3.6595">
        <ele>29</ele>
        <time>2018-07-18T12:14:24Z</time>
      </trkpt>
      <trkpt lat="47.79223" lon="-3.65942">
        <ele>29</ele>
        <time>2018-07-18T12:14:25Z</time>
      </trkpt>
      <trkpt lat="47.79223" lon="-3.65934">
        <ele>29</ele>
        <time>2018-07-18T12:14:26Z</time>
      </trkpt>
      <trkpt lat="47.79223" lon="-3.65926">
        <ele>29</ele>
        <time>2018-07-18T12:14:27Z</time>
      </trkpt>
      <trkpt lat="47.79223" lon="-3.65918">
        <ele>29</ele>
        <time>2018-07-18T12:14:28Z</time>
      </trkpt>
      <trkpt lat="47.79223" lon="-3.6591">
        <ele>29</ele>
        <time>2018-07-18T12:14:29Z</time>
      </trkpt>
      <trkpt lat="47.79223" lon="-3.65901">
        <ele>29</ele>
        <time>2018-07-18T12:14:30Z</time>
      </trkpt>
      <trkpt lat="47.79223" lon="-3.65893">
        <ele>29</ele>
        <time>2018-07-18T12:14:31Z</time>
      </trkpt>
      <trkpt lat="47.79223" lon="-3.65885">
        <ele>29</ele>
        <time>2018-07-18T12:14:32Z</time>
      </trkpt>
      <trkpt lat="47.79223" lon="-3.65877">
        <ele>29</ele>
        <time>2018-07-18T12:14:33Z</time>
      </trkpt>
      <trkpt lat="47.79223" lon="-3.65869">
        <ele>29</ele>
        <time>2018-07-18T12:14:34Z</time>
      </trkpt>
      <trkpt lat="47.79223" lon="-3.65861">
        <ele>29</ele>
        <time>2018-07-18T12:14:35Z</time>
      </trkpt>
      <trkpt lat="47.79222" lon="-3.65854">
        <ele>29</ele>
        <time>2018-07-18T12:14:36Z</time>
      </trkpt>
      <trkpt lat="47.79222" lon="-3.65847">
        <ele>29</ele>
        <time>2018-07-18T12:14:37Z</time>
      </trkpt>
      <trkpt lat="47.79222" lon="-3.6584">
        <ele>29</ele>
        <time>2018-07-18T12:14:38Z</time>
      </trkpt>
      <trkpt lat="47.79222" lon="-3.65833">
        <ele>29</ele>
        <time>2018-07-18T12:14:39Z</time>
      </trkpt>
      <trkpt lat="47.79223" lon="-3.65825">
        <ele>29</ele>
        <time>2018-07-18T12:14:40Z</time>
      </trkpt>
      <trkpt lat="47.79223" lon="-3.65818">
        <ele>30</ele>
        <time>2018-07-18T12:14:41Z</time>
      </trkpt>
      <trkpt lat="47.79224" lon="-3.65809">
        <ele>30</ele>
        <time>2018-07-18T12:14:42Z</time>
      </trkpt>
      <trkpt lat="47.79225" lon="-3.65802">
        <ele>30</ele>
        <time>2018-07-18T12:14:43Z</time>
      </trkpt>
      <trkpt lat="47.79226" lon="-3.65793">
        <ele>30</ele>
        <time>2018-07-18T12:14:44Z</time>
      </trkpt>
      <trkpt lat="47.79227" lon="-3.65785">
        <ele>30</ele>
        <time>2018-07-18T12:14:45Z</time>
      </trkpt>
      <trkpt lat="47.79228" lon="-3.65776">
        <ele>30</ele>
        <time>2018-07-18T12:14:46Z</time>
      </trkpt>
      <trkpt lat="47.79229" lon="-3.65768">
        <ele>30</ele>
        <time>2018-07-18T12:14:47Z</time>
      </trkpt>
      <trkpt lat="47.7923" lon="-3.65759">
        <ele>30</ele>
        <time>2018-07-18T12:14:48Z</time>
      </trkpt>
      <trkpt lat="47.79232" lon="-3.6575">
        <ele>30</ele>
        <time>2018-07-18T12:14:49Z</time>
      </trkpt>
      <trkpt lat="47.79233" lon="-3.65741">
        <ele>30</ele>
        <time>2018-07-18T12:14:50Z</time>
      </trkpt>
      <trkpt lat="47.79234" lon="-3.65732">
        <ele>30</ele>
        <time>2018-07-18T12:14:51Z</time>
      </trkpt>
      <trkpt lat="47.79236" lon="-3.65723">
        <ele>30</ele>
        <time>2018-07-18T12:14:52Z</time>
      </trkpt>
      <trkpt lat="47.79237" lon="-3.65714">
        <ele>29</ele>
        <time>2018-07-18T12:14:53Z</time>
      </trkpt>
      <trkpt lat="47.79239" lon="-3.65705">
        <ele>29</ele>
        <time>2018-07-18T12:14:54Z</time>
      </trkpt>
      <trkpt lat="47.7924" lon="-3.65696">
        <ele>29</ele>
        <time>2018-07-18T12:14:55Z</time>
      </trkpt>
      <trkpt lat="47.79241" lon="-3.65687">
        <ele>29</ele>
        <time>2018-07-18T12:14:56Z</time>
      </trkpt>
      <trkpt lat="47.79243" lon="-3.65678">
        <ele>29</ele>
        <time>2018-07-18T12:14:57Z</time>
      </trkpt>
      <trkpt lat="47.79244" lon="-3.65668">
        <ele>29</ele>
        <time>2018-07-18T12:14:58Z</time>
      </trkpt>
      <trkpt lat="47.79246" lon="-3.65658">
        <ele>29</ele>
        <time>2018-07-18T12:14:59Z</time>
      </trkpt>
      <trkpt lat="47.79247" lon="-3.65648">
        <ele>29</ele>
        <time>2018-07-18T12:15:00Z</time>
      </trkpt>
      <trkpt lat="47.79248" lon="-3.65638">
        <ele>29</ele>
        <time>2018-07-18T12:15:01Z</time>
      </trkpt>
      <trkpt lat="47.7925" lon="-3.65629">
        <ele>28</ele>
        <time>2018-07-18T12:15:02Z</time>
      </trkpt>
      <trkpt lat="47.79251" lon="-3.65619">
        <ele>28</ele>
        <time>2018-07-18T12:15:03Z</time>
      </trkpt>
      <trkpt lat="47.79253" lon="-3.6561">
        <ele>28</ele>
        <time>2018-07-18T12:15:04Z</time>
      </trkpt>
      <trkpt lat="47.79254" lon="-3.656">
        <ele>28</ele>
        <time>2018-07-18T12:15:05Z</time>
      </trkpt>
      <trkpt lat="47.79256" lon="-3.65591">
        <ele>28</ele>
        <time>2018-07-18T12:15:06Z</time>
      </trkpt>
      <trkpt lat="47.79257" lon="-3.65581">
        <ele>28</ele>
        <time>2018-07-18T12:15:07Z</time>
      </trkpt>
      <trkpt lat="47.79259" lon="-3.65572">
        <ele>28</ele>
        <time>2018-07-18T12:15:08Z</time>
      </trkpt>
      <trkpt lat="47.7926" lon="-3.65562">
        <ele>28</ele>
        <time>2018-07-18T12:15:09Z</time>
      </trkpt>
      <trkpt lat="47.79262" lon="-3.65552">
        <ele>28</ele>
        <time>2018-07-18T12:15:10Z</time>
      </trkpt>
      <trkpt lat="47.79263" lon="-3.65543">
        <ele>27</ele>
        <time>2018-07-18T12:15:11Z</time>
      </trkpt>
      <trkpt lat="47.79264" lon="-3.65533">
        <ele>27</ele>
        <time>2018-07-18T12:15:12Z</time>
      </trkpt>
      <trkpt lat="47.79265" lon="-3.65523">
        <ele>27</ele>
        <time>2018-07-18T12:15:13Z</time>
      </trkpt>
      <trkpt lat="47.79266" lon="-3.65513">
        <ele>27</ele>
        <time>2018-07-18T12:15:14Z</time>
      </trkpt>
      <trkpt lat="47.79266" lon="-3.65503">
        <ele>27</ele>
        <time>2018-07-18T12:15:15Z</time>
      </trkpt>
      <trkpt lat="47.79266" lon="-3.65492">
        <ele>27</ele>
        <time>2018-07-18T12:15:16Z</time>
      </trkpt>
      <trkpt lat="47.79265" lon="-3.65482">
        <ele>27</ele>
        <time>2018-07-18T12:15:17Z</time>
      </trkpt>
      <trkpt lat="47.79264" lon="-3.65472">
        <ele>26</ele>
        <time>2018-07-18T12:15:18Z</time>
      </trkpt>
      <trkpt lat="47.79263" lon="-3.65462">
        <ele>26</ele>
        <time>2018-07-18T12:15:19Z</time>
      </trkpt>
      <trkpt lat="47.79262" lon="-3.65453">
        <ele>26</ele>
        <time>2018-07-18T12:15:20Z</time>
      </trkpt>
      <trkpt lat="47.79261" lon="-3.65443">
        <ele>26</ele>
        <time>2018-07-18T12:15:21Z</time>
      </trkpt>
      <trkpt lat="47.7926" lon="-3.65433">
        <ele>26</ele>
        <time>2018-07-18T12:15:22Z</time>
      </trkpt>
      <trkpt lat="47.79259" lon="-3.65422">
        <ele>26</ele>
        <time>2018-07-18T12:15:23Z</time>
      </trkpt>
      <trkpt lat="47.79257" lon="-3.65412">
        <ele>25</ele>
        <time>2018-07-18T12:15:24Z</time>
      </trkpt>
      <trkpt lat="47.79257" lon="-3.65401">
        <ele>25</ele>
        <time>2018-07-18T12:15:25Z</time>
      </trkpt>
      <trkpt lat="47.79256" lon="-3.6539">
        <ele>25</ele>
        <time>2018-07-18T12:15:26Z</time>
      </trkpt>
      <trkpt lat="47.79257" lon="-3.65379">
        <ele>25</ele>
        <time>2018-07-18T12:15:27Z</time>
      </trkpt>
      <trkpt lat="47.79257" lon="-3.65368">
        <ele>25</ele>
        <time>2018-07-18T12:15:28Z</time>
      </trkpt>
      <trkpt lat="47.79257" lon="-3.65357">
        <ele>25</ele>
        <time>2018-07-18T12:15:29Z</time>
      </trkpt>
      <trkpt lat="47.79257" lon="-3.65345">
        <ele>24</ele>
        <time>2018-07-18T12:15:30Z</time>
      </trkpt>
      <trkpt lat="47.79254" lon="-3.65335">
        <ele>24</ele>
        <time>2018-07-18T12:15:31Z</time>
      </trkpt>
      <trkpt lat="47.79251" lon="-3.65325">
        <ele>24</ele>
        <time>2018-07-18T12:15:32Z</time>
      </trkpt>
      <trkpt lat="47.79249" lon="-3.65316">
        <ele>24</ele>
        <time>2018-07-18T12:15:33Z</time>
      </trkpt>
      <trkpt lat="47.79247" lon="-3.65306">
        <ele>24</ele>
        <time>2018-07-18T12:15:34Z</time>
      </trkpt>
      <trkpt lat="47.79246" lon="-3.65297">
        <ele>24</ele>
        <time>2018-07-18T12:15:35Z</time>
      </trkpt>
      <trkpt lat="47.79245" lon="-3.65288">
        <ele>24</ele>
        <time>2018-07-18T12:15:36Z</time>
      </trkpt>
      <trkpt lat="47.79245" lon="-3.65279">
        <ele>24</ele>
        <time>2018-07-18T12:15:37Z</time>
      </trkpt>
      <trkpt lat="47.79243" lon="-3.65269">
        <ele>24</ele>
        <time>2018-07-18T12:15:38Z</time>
      </trkpt>
      <trkpt lat="47.79242" lon="-3.6526">
        <ele>24</ele>
        <time>2018-07-18T12:15:39Z</time>
      </trkpt>
      <trkpt lat="47.7924" lon="-3.65251">
        <ele>24</ele>
        <time>2018-07-18T12:15:40Z</time>
      </trkpt>
      <trkpt lat="47.79238" lon="-3.65242">
        <ele>24</ele>
        <time>2018-07-18T12:15:41Z</time>
      </trkpt>
      <trkpt lat="47.79236" lon="-3.65233">
        <ele>24</ele>
        <time>2018-07-18T12:15:42Z</time>
      </trkpt>
      <trkpt lat="47.79234" lon="-3.65224">
        <ele>24</ele>
        <time>2018-07-18T12:15:43Z</time>
      </trkpt>
      <trkpt lat="47.79233" lon="-3.65215">
        <ele>24</ele>
        <time>2018-07-18T12:15:44Z</time>
      </trkpt>
      <trkpt lat="47.79232" lon="-3.65207">
        <ele>24</ele>
        <time>2018-07-18T12:15:45Z</time>
      </trkpt>
      <trkpt lat="47.7923" lon="-3.65198">
        <ele>24</ele>
        <time>2018-07-18T12:15:46Z</time>
      </trkpt>
      <trkpt lat="47.79229" lon="-3.6519">
        <ele>23</ele>
        <time>2018-07-18T12:15:47Z</time>
      </trkpt>
      <trkpt lat="47.79228" lon="-3.65181">
        <ele>23</ele>
        <time>2018-07-18T12:15:48Z</time>
      </trkpt>
      <trkpt lat="47.79228" lon="-3.65172">
        <ele>23</ele>
        <time>2018-07-18T12:15:49Z</time>
      </trkpt>
      <trkpt lat="47.79228" lon="-3.65164">
        <ele>23</ele>
        <time>2018-07-18T12:15:50Z</time>
      </trkpt>
      <trkpt lat="47.79228" lon="-3.65155">
        <ele>23</ele>
        <time>2018-07-18T12:15:51Z</time>
      </trkpt>
      <trkpt lat="47.79228" lon="-3.65147">
        <ele>23</ele>
        <time>2018-07-18T12:15:52Z</time>
      </trkpt>
      <trkpt lat="47.79228" lon="-3.65139">
        <ele>23</ele>
        <time>2018-07-18T12:15:53Z</time>
      </trkpt>
      <trkpt lat="47.79229" lon="-3.65131">
        <ele>23</ele>
        <time>2018-07-18T12:15:54Z</time>
      </trkpt>
      <trkpt lat="47.79229" lon="-3.65124">
        <ele>23</ele>
        <time>2018-07-18T12:15:55Z</time>
      </trkpt>
      <trkpt lat="47.7923" lon="-3.65117">
        <ele>23</ele>
        <time>2018-07-18T12:15:56Z</time>
      </trkpt>
      <trkpt lat="47.79231" lon="-3.65109">
        <ele>23</ele>
        <time>2018-07-18T12:15:57Z</time>
      </trkpt>
      <trkpt lat="47.79232" lon="-3.65101">
        <ele>23</ele>
        <time>2018-07-18T12:15:58Z</time>
      </trkpt>
      <trkpt lat="47.79233" lon="-3.65093">
        <ele>23</ele>
        <time>2018-07-18T12:15:59Z</time>
      </trkpt>
      <trkpt lat="47.79234" lon="-3.65085">
        <ele>23</ele>
        <time>2018-07-18T12:16:00Z</time>
      </trkpt>
      <trkpt lat="47.79235" lon="-3.65076">
        <ele>23</ele>
        <time>2018-07-18T12:16:01Z</time>
      </trkpt>
      <trkpt lat="47.79236" lon="-3.65067">
        <ele>24</ele>
        <time>2018-07-18T12:16:02Z</time>
      </trkpt>
      <trkpt lat="47.79237" lon="-3.65059">
        <ele>24</ele>
        <time>2018-07-18T12:16:03Z</time>
      </trkpt>
      <trkpt lat="47.79238" lon="-3.6505">
        <ele>24</ele>
        <time>2018-07-18T12:16:04Z</time>
      </trkpt>
      <trkpt lat="47.79239" lon="-3.65041">
        <ele>24</ele>
        <time>2018-07-18T12:16:05Z</time>
      </trkpt>
      <trkpt lat="47.7924" lon="-3.65032">
        <ele>24</ele>
        <time>2018-07-18T12:16:06Z</time>
      </trkpt>
      <trkpt lat="47.79241" lon="-3.65023">
        <ele>24</ele>
        <time>2018-07-18T12:16:07Z</time>
      </trkpt>
      <trkpt lat="47.79243" lon="-3.65014">
        <ele>24</ele>
        <time>2018-07-18T12:16:08Z</time>
      </trkpt>
      <trkpt lat="47.79243" lon="-3.65005">
        <ele>24</ele>
        <time>2018-07-18T12:16:09Z</time>
      </trkpt>
      <trkpt lat="47.79245" lon="-3.64997">
        <ele>24</ele>
        <time>2018-07-18T12:16:10Z</time>
      </trkpt>
      <trkpt lat="47.79246" lon="-3.64988">
        <ele>24</ele>
        <time>2018-07-18T12:16:11Z</time>
      </trkpt>
      <trkpt lat="47.79246" lon="-3.64979">
        <ele>24</ele>
        <time>2018-07-18T12:16:12Z</time>
      </trkpt>
      <trkpt lat="47.79248" lon="-3.64971">
        <ele>25</ele>
        <time>2018-07-18T12:16:13Z</time>
      </trkpt>
      <trkpt lat="47.79249" lon="-3.64962">
        <ele>25</ele>
        <time>2018-07-18T12:16:14Z</time>
      </trkpt>
      <trkpt lat="47.7925" lon="-3.64953">
        <ele>25</ele>
        <time>2018-07-18T12:16:15Z</time>
      </trkpt>
      <trkpt lat="47.79251" lon="-3.64945">
        <ele>25</ele>
        <time>2018-07-18T12:16:16Z</time>
      </trkpt>
      <trkpt lat="47.79252" lon="-3.64936">
        <ele>25</ele>
        <time>2018-07-18T12:16:17Z</time>
      </trkpt>
      <trkpt lat="47.79253" lon="-3.64927">
        <ele>25</ele>
        <time>2018-07-18T12:16:18Z</time>
      </trkpt>
      <trkpt lat="47.79254" lon="-3.64918">
        <ele>25</ele>
        <time>2018-07-18T12:16:19Z</time>
      </trkpt>
      <trkpt lat="47.79255" lon="-3.64909">
        <ele>25</ele>
        <time>2018-07-18T12:16:20Z</time>
      </trkpt>
      <trkpt lat="47.79256" lon="-3.64901">
        <ele>25</ele>
        <time>2018-07-18T12:16:21Z</time>
      </trkpt>
      <trkpt lat="47.79258" lon="-3.64893">
        <ele>25</ele>
        <time>2018-07-18T12:16:22Z</time>
      </trkpt>
      <trkpt lat="47.79258" lon="-3.64885">
        <ele>25</ele>
        <time>2018-07-18T12:16:23Z</time>
      </trkpt>
      <trkpt lat="47.79259" lon="-3.64877">
        <ele>25</ele>
        <time>2018-07-18T12:16:24Z</time>
      </trkpt>
      <trkpt lat="47.7926" lon="-3.64868">
        <ele>25</ele>
        <time>2018-07-18T12:16:25Z</time>
      </trkpt>
      <trkpt lat="47.79261" lon="-3.6486">
        <ele>26</ele>
        <time>2018-07-18T12:16:26Z</time>
      </trkpt>
      <trkpt lat="47.79262" lon="-3.64852">
        <ele>26</ele>
        <time>2018-07-18T12:16:27Z</time>
      </trkpt>
      <trkpt lat="47.79263" lon="-3.64844">
        <ele>26</ele>
        <time>2018-07-18T12:16:28Z</time>
      </trkpt>
      <trkpt lat="47.79264" lon="-3.64836">
        <ele>26</ele>
        <time>2018-07-18T12:16:29Z</time>
      </trkpt>
      <trkpt lat="47.79265" lon="-3.64828">
        <ele>26</ele>
        <time>2018-07-18T12:16:30Z</time>
      </trkpt>
      <trkpt lat="47.79266" lon="-3.64821">
        <ele>26</ele>
        <time>2018-07-18T12:16:31Z</time>
      </trkpt>
      <trkpt lat="47.79267" lon="-3.64814">
        <ele>26</ele>
        <time>2018-07-18T12:16:32Z</time>
      </trkpt>
      <trkpt lat="47.79267" lon="-3.64807">
        <ele>26</ele>
        <time>2018-07-18T12:16:33Z</time>
      </trkpt>
      <trkpt lat="47.79267" lon="-3.648">
        <ele>26</ele>
        <time>2018-07-18T12:16:34Z</time>
      </trkpt>
      <trkpt lat="47.79265" lon="-3.64794">
        <ele>26</ele>
        <time>2018-07-18T12:16:35Z</time>
      </trkpt>
      <trkpt lat="47.79262" lon="-3.64788">
        <ele>26</ele>
        <time>2018-07-18T12:16:36Z</time>
      </trkpt>
      <trkpt lat="47.79258" lon="-3.64784">
        <ele>26</ele>
        <time>2018-07-18T12:16:37Z</time>
      </trkpt>
      <trkpt lat="47.79253" lon="-3.64782">
        <ele>26</ele>
        <time>2018-07-18T12:16:38Z</time>
      </trkpt>
      <trkpt lat="47.79248" lon="-3.64781">
        <ele>27</ele>
        <time>2018-07-18T12:16:39Z</time>
      </trkpt>
      <trkpt lat="47.79243" lon="-3.6478">
        <ele>27</ele>
        <time>2018-07-18T12:16:40Z</time>
      </trkpt>
      <trkpt lat="47.79237" lon="-3.64779">
        <ele>27</ele>
        <time>2018-07-18T12:16:41Z</time>
      </trkpt>
      <trkpt lat="47.79232" lon="-3.64778">
        <ele>27</ele>
        <time>2018-07-18T12:16:42Z</time>
      </trkpt>
      <trkpt lat="47.79226" lon="-3.64778">
        <ele>27</ele>
        <time>2018-07-18T12:16:43Z</time>
      </trkpt>
      <trkpt lat="47.7922" lon="-3.64777">
        <ele>27</ele>
        <time>2018-07-18T12:16:44Z</time>
      </trkpt>
      <trkpt lat="47.79215" lon="-3.64776">
        <ele>27</ele>
        <time>2018-07-18T12:16:45Z</time>
      </trkpt>
      <trkpt lat="47.7921" lon="-3.64775">
        <ele>27</ele>
        <time>2018-07-18T12:16:46Z</time>
      </trkpt>
      <trkpt lat="47.79204" lon="-3.64774">
        <ele>27</ele>
        <time>2018-07-18T12:16:47Z</time>
      </trkpt>
      <trkpt lat="47.79199" lon="-3.64773">
        <ele>27</ele>
        <time>2018-07-18T12:16:48Z</time>
      </trkpt>
      <trkpt lat="47.79194" lon="-3.64772">
        <ele>28</ele>
        <time>2018-07-18T12:16:49Z</time>
      </trkpt>
      <trkpt lat="47.79189" lon="-3.64771">
        <ele>28</ele>
        <time>2018-07-18T12:16:50Z</time>
      </trkpt>
      <trkpt lat="47.79184" lon="-3.64771">
        <ele>28</ele>
        <time>2018-07-18T12:16:51Z</time>
      </trkpt>
      <trkpt lat="47.79178" lon="-3.64771">
        <ele>28</ele>
        <time>2018-07-18T12:16:52Z</time>
      </trkpt>
      <trkpt lat="47.79173" lon="-3.64771">
        <ele>28</ele>
        <time>2018-07-18T12:16:53Z</time>
      </trkpt>
      <trkpt lat="47.79168" lon="-3.64771">
        <ele>28</ele>
        <time>2018-07-18T12:16:54Z</time>
      </trkpt>
      <trkpt lat="47.79163" lon="-3.6477">
        <ele>28</ele>
        <time>2018-07-18T12:16:55Z</time>
      </trkpt>
      <trkpt lat="47.79157" lon="-3.6477">
        <ele>28</ele>
        <time>2018-07-18T12:16:56Z</time>
      </trkpt>
      <trkpt lat="47.79152" lon="-3.6477">
        <ele>28</ele>
        <time>2018-07-18T12:16:57Z</time>
      </trkpt>
      <trkpt lat="47.79146" lon="-3.6477">
        <ele>28</ele>
        <time>2018-07-18T12:16:58Z</time>
      </trkpt>
      <trkpt lat="47.7914" lon="-3.6477">
        <ele>28</ele>
        <time>2018-07-18T12:16:59Z</time>
      </trkpt>
      <trkpt lat="47.79134" lon="-3.64771">
        <ele>28</ele>
        <time>2018-07-18T12:17:00Z</time>
      </trkpt>
      <trkpt lat="47.79128" lon="-3.64771">
        <ele>28</ele>
        <time>2018-07-18T12:17:01Z</time>
      </trkpt>
      <trkpt lat="47.79122" lon="-3.64771">
        <ele>28</ele>
        <time>2018-07-18T12:17:02Z</time>
      </trkpt>
      <trkpt lat="47.79116" lon="-3.64772">
        <ele>28</ele>
        <time>2018-07-18T12:17:03Z</time>
      </trkpt>
      <trkpt lat="47.7911" lon="-3.64774">
        <ele>28</ele>
        <time>2018-07-18T12:17:04Z</time>
      </trkpt>
      <trkpt lat="47.79103" lon="-3.64775">
        <ele>28</ele>
        <time>2018-07-18T12:17:05Z</time>
      </trkpt>
      <trkpt lat="47.79096" lon="-3.64775">
        <ele>28</ele>
        <time>2018-07-18T12:17:06Z</time>
      </trkpt>
      <trkpt lat="47.7909" lon="-3.64776">
        <ele>28</ele>
        <time>2018-07-18T12:17:07Z</time>
      </trkpt>
      <trkpt lat="47.79083" lon="-3.64777">
        <ele>28</ele>
        <time>2018-07-18T12:17:08Z</time>
      </trkpt>
      <trkpt lat="47.79077" lon="-3.64778">
        <ele>28</ele>
        <time>2018-07-18T12:17:09Z</time>
      </trkpt>
      <trkpt lat="47.7907" lon="-3.6478">
        <ele>29</ele>
        <time>2018-07-18T12:17:10Z</time>
      </trkpt>
      <trkpt lat="47.79064" lon="-3.64781">
        <ele>29</ele>
        <time>2018-07-18T12:17:11Z</time>
      </trkpt>
      <trkpt lat="47.79058" lon="-3.64782">
        <ele>29</ele>
        <time>2018-07-18T12:17:12Z</time>
      </trkpt>
      <trkpt lat="47.79052" lon="-3.64784">
        <ele>29</ele>
        <time>2018-07-18T12:17:13Z</time>
      </trkpt>
      <trkpt lat="47.79046" lon="-3.64785">
        <ele>29</ele>
        <time>2018-07-18T12:17:14Z</time>
      </trkpt>
      <trkpt lat="47.7904" lon="-3.64786">
        <ele>29</ele>
        <time>2018-07-18T12:17:15Z</time>
      </trkpt>
      <trkpt lat="47.79034" lon="-3.64787">
        <ele>29</ele>
        <time>2018-07-18T12:17:16Z</time>
      </trkpt>
      <trkpt lat="47.79028" lon="-3.64788">
        <ele>29</ele>
        <time>2018-07-18T12:17:17Z</time>
      </trkpt>
      <trkpt lat="47.79022" lon="-3.64789">
        <ele>29</ele>
        <time>2018-07-18T12:17:18Z</time>
      </trkpt>
      <trkpt lat="47.79016" lon="-3.6479">
        <ele>29</ele>
        <time>2018-07-18T12:17:19Z</time>
      </trkpt>
      <trkpt lat="47.7901" lon="-3.64791">
        <ele>29</ele>
        <time>2018-07-18T12:17:20Z</time>
      </trkpt>
      <trkpt lat="47.79004" lon="-3.64792">
        <ele>29</ele>
        <time>2018-07-18T12:17:21Z</time>
      </trkpt>
      <trkpt lat="47.78999" lon="-3.64793">
        <ele>29</ele>
        <time>2018-07-18T12:17:22Z</time>
      </trkpt>
      <trkpt lat="47.78994" lon="-3.64793">
        <ele>29</ele>
        <time>2018-07-18T12:17:23Z</time>
      </trkpt>
      <trkpt lat="47.78989" lon="-3.64793">
        <ele>29</ele>
        <time>2018-07-18T12:17:24Z</time>
      </trkpt>
      <trkpt lat="47.78984" lon="-3.64792">
        <ele>29</ele>
        <time>2018-07-18T12:17:25Z</time>
      </trkpt>
      <trkpt lat="47.78981" lon="-3.6479">
        <ele>29</ele>
        <time>2018-07-18T12:17:26Z</time>
      </trkpt>
      <trkpt lat="47.78978" lon="-3.64787">
        <ele>29</ele>
        <time>2018-07-18T12:17:27Z</time>
      </trkpt>
      <trkpt lat="47.78977" lon="-3.64785">
        <ele>29</ele>
        <time>2018-07-18T12:17:28Z</time>
      </trkpt>
      <trkpt lat="47.78975" lon="-3.64781">
        <ele>29</ele>
        <time>2018-07-18T12:17:29Z</time>
      </trkpt>
      <trkpt lat="47.78974" lon="-3.64779">
        <ele>29</ele>
        <time>2018-07-18T12:17:30Z</time>
      </trkpt>
      <trkpt lat="47.78971" lon="-3.64775">
        <ele>29</ele>
        <time>2018-07-18T12:17:31Z</time>
      </trkpt>
      <trkpt lat="47.78967" lon="-3.64772">
        <ele>29</ele>
        <time>2018-07-18T12:17:32Z</time>
      </trkpt>
      <trkpt lat="47.78964" lon="-3.64769">
        <ele>29</ele>
        <time>2018-07-18T12:17:33Z</time>
      </trkpt>
      <trkpt lat="47.78962" lon="-3.64765">
        <ele>29</ele>
        <time>2018-07-18T12:17:34Z</time>
      </trkpt>
      <trkpt lat="47.78958" lon="-3.64762">
        <ele>29</ele>
        <time>2018-07-18T12:17:35Z</time>
      </trkpt>
      <trkpt lat="47.78955" lon="-3.64758">
        <ele>29</ele>
        <time>2018-07-18T12:17:36Z</time>
      </trkpt>
      <trkpt lat="47.78952" lon="-3.64754">
        <ele>29</ele>
        <time>2018-07-18T12:17:37Z</time>
      </trkpt>
      <trkpt lat="47.78948" lon="-3.64749">
        <ele>29</ele>
        <time>2018-07-18T12:17:38Z</time>
      </trkpt>
      <trkpt lat="47.78944" lon="-3.64743">
        <ele>29</ele>
        <time>2018-07-18T12:17:39Z</time>
      </trkpt>
      <trkpt lat="47.7894" lon="-3.64738">
        <ele>29</ele>
        <time>2018-07-18T12:17:40Z</time>
      </trkpt>
      <trkpt lat="47.78934" lon="-3.64732">
        <ele>29</ele>
        <time>2018-07-18T12:17:41Z</time>
      </trkpt>
      <trkpt lat="47.78929" lon="-3.64725">
        <ele>29</ele>
        <time>2018-07-18T12:17:42Z</time>
      </trkpt>
      <trkpt lat="47.78924" lon="-3.64719">
        <ele>29</ele>
        <time>2018-07-18T12:17:43Z</time>
      </trkpt>
      <trkpt lat="47.78919" lon="-3.64713">
        <ele>29</ele>
        <time>2018-07-18T12:17:44Z</time>
      </trkpt>
      <trkpt lat="47.78914" lon="-3.64708">
        <ele>29</ele>
        <time>2018-07-18T12:17:45Z</time>
      </trkpt>
      <trkpt lat="47.78909" lon="-3.64703">
        <ele>29</ele>
        <time>2018-07-18T12:17:46Z</time>
      </trkpt>
      <trkpt lat="47.78904" lon="-3.64697">
        <ele>29</ele>
        <time>2018-07-18T12:17:47Z</time>
      </trkpt>
      <trkpt lat="47.78898" lon="-3.64692">
        <ele>29</ele>
        <time>2018-07-18T12:17:48Z</time>
      </trkpt>
      <trkpt lat="47.78892" lon="-3.64688">
        <ele>29</ele>
        <time>2018-07-18T12:17:49Z</time>
      </trkpt>
      <trkpt lat="47.78887" lon="-3.64684">
        <ele>29</ele>
        <time>2018-07-18T12:17:50Z</time>
      </trkpt>
      <trkpt lat="47.78882" lon="-3.6468">
        <ele>29</ele>
        <time>2018-07-18T12:17:51Z</time>
      </trkpt>
      <trkpt lat="47.78879" lon="-3.64676">
        <ele>28</ele>
        <time>2018-07-18T12:17:52Z</time>
      </trkpt>
      <trkpt lat="47.78877" lon="-3.64672">
        <ele>28</ele>
        <time>2018-07-18T12:17:53Z</time>
      </trkpt>
      <trkpt lat="47.78876" lon="-3.64666">
        <ele>28</ele>
        <time>2018-07-18T12:17:54Z</time>
      </trkpt>
      <trkpt lat="47.78874" lon="-3.64661">
        <ele>28</ele>
        <time>2018-07-18T12:17:55Z</time>
      </trkpt>
      <trkpt lat="47.78871" lon="-3.64657">
        <ele>28</ele>
        <time>2018-07-18T12:17:56Z</time>
      </trkpt>
      <trkpt lat="47.78868" lon="-3.64653">
        <ele>28</ele>
        <time>2018-07-18T12:17:57Z</time>
      </trkpt>
      <trkpt lat="47.78864" lon="-3.6465">
        <ele>28</ele>
        <time>2018-07-18T12:17:58Z</time>
      </trkpt>
      <trkpt lat="47.78859" lon="-3.64647">
        <ele>28</ele>
        <time>2018-07-18T12:17:59Z</time>
      </trkpt>
      <trkpt lat="47.78854" lon="-3.64644">
        <ele>27</ele>
        <time>2018-07-18T12:18:00Z</time>
      </trkpt>
      <trkpt lat="47.78848" lon="-3.64641">
        <ele>27</ele>
        <time>2018-07-18T12:18:01Z</time>
      </trkpt>
      <trkpt lat="47.78842" lon="-3.64637">
        <ele>27</ele>
        <time>2018-07-18T12:18:02Z</time>
      </trkpt>
      <trkpt lat="47.78836" lon="-3.64632">
        <ele>27</ele>
        <time>2018-07-18T12:18:03Z</time>
      </trkpt>
      <trkpt lat="47.78829" lon="-3.64627">
        <ele>27</ele>
        <time>2018-07-18T12:18:04Z</time>
      </trkpt>
      <trkpt lat="47.78823" lon="-3.64624">
        <ele>26</ele>
        <time>2018-07-18T12:18:05Z</time>
      </trkpt>
      <trkpt lat="47.78817" lon="-3.64621">
        <ele>26</ele>
        <time>2018-07-18T12:18:06Z</time>
      </trkpt>
      <trkpt lat="47.78813" lon="-3.64619">
        <ele>26</ele>
        <time>2018-07-18T12:18:07Z</time>
      </trkpt>
      <trkpt lat="47.78809" lon="-3.64616">
        <ele>26</ele>
        <time>2018-07-18T12:18:08Z</time>
      </trkpt>
      <trkpt lat="47.78806" lon="-3.64614">
        <ele>26</ele>
        <time>2018-07-18T12:18:09Z</time>
      </trkpt>
      <trkpt lat="47.78803" lon="-3.64613">
        <ele>25</ele>
        <time>2018-07-18T12:18:10Z</time>
      </trkpt>
      <trkpt lat="47.78799" lon="-3.6461">
        <ele>25</ele>
        <time>2018-07-18T12:18:11Z</time>
      </trkpt>
      <trkpt lat="47.78795" lon="-3.64607">
        <ele>25</ele>
        <time>2018-07-18T12:18:12Z</time>
      </trkpt>
      <trkpt lat="47.7879" lon="-3.64605">
        <ele>25</ele>
        <time>2018-07-18T12:18:13Z</time>
      </trkpt>
      <trkpt lat="47.78786" lon="-3.64603">
        <ele>24</ele>
        <time>2018-07-18T12:18:14Z</time>
      </trkpt>
      <trkpt lat="47.78781" lon="-3.646">
        <ele>24</ele>
        <time>2018-07-18T12:18:15Z</time>
      </trkpt>
      <trkpt lat="47.78775" lon="-3.64597">
        <ele>24</ele>
        <time>2018-07-18T12:18:16Z</time>
      </trkpt>
      <trkpt lat="47.78769" lon="-3.64594">
        <ele>23</ele>
        <time>2018-07-18T12:18:17Z</time>
      </trkpt>
      <trkpt lat="47.78762" lon="-3.6459">
        <ele>23</ele>
        <time>2018-07-18T12:18:18Z</time>
      </trkpt>
      <trkpt lat="47.78756" lon="-3.64587">
        <ele>22</ele>
        <time>2018-07-18T12:18:19Z</time>
      </trkpt>
      <trkpt lat="47.7875" lon="-3.64586">
        <ele>22</ele>
        <time>2018-07-18T12:18:20Z</time>
      </trkpt>
      <trkpt lat="47.78745" lon="-3.64584">
        <ele>22</ele>
        <time>2018-07-18T12:18:21Z</time>
      </trkpt>
      <trkpt lat="47.78741" lon="-3.64583">
        <ele>21</ele>
        <time>2018-07-18T12:18:22Z</time>
      </trkpt>
      <trkpt lat="47.78738" lon="-3.64582">
        <ele>21</ele>
        <time>2018-07-18T12:18:23Z</time>
      </trkpt>
      <trkpt lat="47.78735" lon="-3.6458">
        <ele>20</ele>
        <time>2018-07-18T12:18:24Z</time>
      </trkpt>
      <trkpt lat="47.78733" lon="-3.64578">
        <ele>20</ele>
        <time>2018-07-18T12:18:25Z</time>
      </trkpt>
      <trkpt lat="47.78732" lon="-3.64576">
        <ele>19</ele>
        <time>2018-07-18T12:18:26Z</time>
      </trkpt>
      <trkpt lat="47.78732" lon="-3.64574">
        <ele>19</ele>
        <time>2018-07-18T12:18:27Z</time>
      </trkpt>
      <trkpt lat="47.78732" lon="-3.64572">
        <ele>19</ele>
        <time>2018-07-18T12:18:28Z</time>
      </trkpt>
      <trkpt lat="47.78732" lon="-3.6457">
        <ele>18</ele>
        <time>2018-07-18T12:18:29Z</time>
      </trkpt>
      <trkpt lat="47.78732" lon="-3.64567">
        <ele>18</ele>
        <time>2018-07-18T12:18:30Z</time>
      </trkpt>
      <trkpt lat="47.78733" lon="-3.64562">
        <ele>18</ele>
        <time>2018-07-18T12:18:31Z</time>
      </trkpt>
      <trkpt lat="47.78732" lon="-3.64558">
        <ele>17</ele>
        <time>2018-07-18T12:18:32Z</time>
      </trkpt>
      <trkpt lat="47.78733" lon="-3.64554">
        <ele>17</ele>
        <time>2018-07-18T12:18:33Z</time>
      </trkpt>
      <trkpt lat="47.78734" lon="-3.6455">
        <ele>17</ele>
        <time>2018-07-18T12:18:34Z</time>
      </trkpt>
      <trkpt lat="47.78735" lon="-3.64547">
        <ele>17</ele>
        <time>2018-07-18T12:18:35Z</time>
      </trkpt>
      <trkpt lat="47.78737" lon="-3.64544">
        <ele>17</ele>
        <time>2018-07-18T12:18:36Z</time>
      </trkpt>
      <trkpt lat="47.78739" lon="-3.64542">
        <ele>17</ele>
        <time>2018-07-18T12:18:37Z</time>
      </trkpt>
      <trkpt lat="47.7874" lon="-3.64541">
        <ele>16</ele>
        <time>2018-07-18T12:18:38Z</time>
      </trkpt>
      <trkpt lat="47.78742" lon="-3.64539">
        <ele>16</ele>
        <time>2018-07-18T12:18:39Z</time>
      </trkpt>
      <trkpt lat="47.78744" lon="-3.64538">
        <ele>16</ele>
        <time>2018-07-18T12:18:40Z</time>
      </trkpt>
      <trkpt lat="47.78747" lon="-3.64537">
        <ele>16</ele>
        <time>2018-07-18T12:18:41Z</time>
      </trkpt>
      <trkpt lat="47.7875" lon="-3.64536">
        <ele>16</ele>
        <time>2018-07-18T12:18:42Z</time>
      </trkpt>
      <trkpt lat="47.78753" lon="-3.64534">
        <ele>16</ele>
        <time>2018-07-18T12:18:43Z</time>
      </trkpt>
      <trkpt lat="47.78757" lon="-3.64533">
        <ele>16</ele>
        <time>2018-07-18T12:18:44Z</time>
      </trkpt>
      <trkpt lat="47.78759" lon="-3.64532">
        <ele>16</ele>
        <time>2018-07-18T12:18:45Z</time>
      </trkpt>
      <trkpt lat="47.78762" lon="-3.6453">
        <ele>16</ele>
        <time>2018-07-18T12:18:46Z</time>
      </trkpt>
      <trkpt lat="47.78764" lon="-3.64529">
        <ele>16</ele>
        <time>2018-07-18T12:18:47Z</time>
      </trkpt>
      <trkpt lat="47.78767" lon="-3.64528">
        <ele>16</ele>
        <time>2018-07-18T12:18:48Z</time>
      </trkpt>
      <trkpt lat="47.7877" lon="-3.64526">
        <ele>16</ele>
        <time>2018-07-18T12:18:49Z</time>
      </trkpt>
      <trkpt lat="47.78773" lon="-3.64523">
        <ele>16</ele>
        <time>2018-07-18T12:18:50Z</time>
      </trkpt>
      <trkpt lat="47.78776" lon="-3.64519">
        <ele>16</ele>
        <time>2018-07-18T12:18:51Z</time>
      </trkpt>
      <trkpt lat="47.78778" lon="-3.64515">
        <ele>16</ele>
        <time>2018-07-18T12:18:52Z</time>
      </trkpt>
      <trkpt lat="47.7878" lon="-3.64509">
        <ele>16</ele>
        <time>2018-07-18T12:18:53Z</time>
      </trkpt>
      <trkpt lat="47.78781" lon="-3.64504">
        <ele>16</ele>
        <time>2018-07-18T12:18:54Z</time>
      </trkpt>
      <trkpt lat="47.78784" lon="-3.64498">
        <ele>16</ele>
        <time>2018-07-18T12:18:55Z</time>
      </trkpt>
      <trkpt lat="47.78786" lon="-3.64492">
        <ele>15</ele>
        <time>2018-07-18T12:18:56Z</time>
      </trkpt>
      <trkpt lat="47.7879" lon="-3.64485">
        <ele>15</ele>
        <time>2018-07-18T12:18:57Z</time>
      </trkpt>
      <trkpt lat="47.78793" lon="-3.64478">
        <ele>15</ele>
        <time>2018-07-18T12:18:58Z</time>
      </trkpt>
      <trkpt lat="47.78796" lon="-3.64471">
        <ele>15</ele>
        <time>2018-07-18T12:18:59Z</time>
      </trkpt>
      <trkpt lat="47.788" lon="-3.64464">
        <ele>15</ele>
        <time>2018-07-18T12:19:00Z</time>
      </trkpt>
      <trkpt lat="47.78803" lon="-3.64457">
        <ele>15</ele>
        <time>2018-07-18T12:19:01Z</time>
      </trkpt>
      <trkpt lat="47.78806" lon="-3.64451">
        <ele>15</ele>
        <time>2018-07-18T12:19:02Z</time>
      </trkpt>
      <trkpt lat="47.78809" lon="-3.64445">
        <ele>15</ele>
        <time>2018-07-18T12:19:03Z</time>
      </trkpt>
      <trkpt lat="47.78813" lon="-3.64437">
        <ele>15</ele>
        <time>2018-07-18T12:19:04Z</time>
      </trkpt>
      <trkpt lat="47.78818" lon="-3.6443">
        <ele>15</ele>
        <time>2018-07-18T12:19:05Z</time>
      </trkpt>
      <trkpt lat="47.78822" lon="-3.64424">
        <ele>15</ele>
        <time>2018-07-18T12:19:06Z</time>
      </trkpt>
      <trkpt lat="47.78826" lon="-3.64417">
        <ele>15</ele>
        <time>2018-07-18T12:19:07Z</time>
      </trkpt>
      <trkpt lat="47.7883" lon="-3.64412">
        <ele>15</ele>
        <time>2018-07-18T12:19:08Z</time>
      </trkpt>
      <trkpt lat="47.78833" lon="-3.64407">
        <ele>15</ele>
        <time>2018-07-18T12:19:09Z</time>
      </trkpt>
      <trkpt lat="47.78837" lon="-3.64402">
        <ele>14</ele>
        <time>2018-07-18T12:19:10Z</time>
      </trkpt>
      <trkpt lat="47.78841" lon="-3.64397">
        <ele>14</ele>
        <time>2018-07-18T12:19:11Z</time>
      </trkpt>
      <trkpt lat="47.78845" lon="-3.64392">
        <ele>14</ele>
        <time>2018-07-18T12:19:12Z</time>
      </trkpt>
      <trkpt lat="47.78849" lon="-3.64387">
        <ele>14</ele>
        <time>2018-07-18T12:19:13Z</time>
      </trkpt>
      <trkpt lat="47.78852" lon="-3.64383">
        <ele>14</ele>
        <time>2018-07-18T12:19:14Z</time>
      </trkpt>
      <trkpt lat="47.78856" lon="-3.6438">
        <ele>14</ele>
        <time>2018-07-18T12:19:15Z</time>
      </trkpt>
      <trkpt lat="47.7886" lon="-3.64378">
        <ele>14</ele>
        <time>2018-07-18T12:19:16Z</time>
      </trkpt>
      <trkpt lat="47.78864" lon="-3.64377">
        <ele>13</ele>
        <time>2018-07-18T12:19:17Z</time>
      </trkpt>
      <trkpt lat="47.78868" lon="-3.64377">
        <ele>13</ele>
        <time>2018-07-18T12:19:18Z</time>
      </trkpt>
      <trkpt lat="47.78872" lon="-3.64377">
        <ele>13</ele>
        <time>2018-07-18T12:19:19Z</time>
      </trkpt>
      <trkpt lat="47.78876" lon="-3.64377">
        <ele>13</ele>
        <time>2018-07-18T12:19:20Z</time>
      </trkpt>
      <trkpt lat="47.78881" lon="-3.64377">
        <ele>13</ele>
        <time>2018-07-18T12:19:21Z</time>
      </trkpt>
      <trkpt lat="47.78885" lon="-3.64376">
        <ele>13</ele>
        <time>2018-07-18T12:19:22Z</time>
      </trkpt>
      <trkpt lat="47.78889" lon="-3.64377">
        <ele>13</ele>
        <time>2018-07-18T12:19:23Z</time>
      </trkpt>
      <trkpt lat="47.78893" lon="-3.64379">
        <ele>13</ele>
        <time>2018-07-18T12:19:24Z</time>
      </trkpt>
      <trkpt lat="47.78896" lon="-3.64381">
        <ele>13</ele>
        <time>2018-07-18T12:19:25Z</time>
      </trkpt>
      <trkpt lat="47.78899" lon="-3.64384">
        <ele>13</ele>
        <time>2018-07-18T12:19:26Z</time>
      </trkpt>
      <trkpt lat="47.78902" lon="-3.64387">
        <ele>13</ele>
        <time>2018-07-18T12:19:27Z</time>
      </trkpt>
      <trkpt lat="47.78904" lon="-3.64392">
        <ele>13</ele>
        <time>2018-07-18T12:19:28Z</time>
      </trkpt>
      <trkpt lat="47.78907" lon="-3.64397">
        <ele>13</ele>
        <time>2018-07-18T12:19:29Z</time>
      </trkpt>
      <trkpt lat="47.78908" lon="-3.64401">
        <ele>13</ele>
        <time>2018-07-18T12:19:30Z</time>
      </trkpt>
      <trkpt lat="47.78911" lon="-3.64406">
        <ele>13</ele>
        <time>2018-07-18T12:19:31Z</time>
      </trkpt>
      <trkpt lat="47.78914" lon="-3.64409">
        <ele>13</ele>
        <time>2018-07-18T12:19:32Z</time>
      </trkpt>
      <trkpt lat="47.78916" lon="-3.64411">
        <ele>13</ele>
        <time>2018-07-18T12:19:33Z</time>
      </trkpt>
      <trkpt lat="47.78919" lon="-3.64413">
        <ele>13</ele>
        <time>2018-07-18T12:19:34Z</time>
      </trkpt>
      <trkpt lat="47.78922" lon="-3.64413">
        <ele>13</ele>
        <time>2018-07-18T12:19:35Z</time>
      </trkpt>
      <trkpt lat="47.78925" lon="-3.64411">
        <ele>13</ele>
        <time>2018-07-18T12:19:36Z</time>
      </trkpt>
      <trkpt lat="47.78927" lon="-3.64408">
        <ele>13</ele>
        <time>2018-07-18T12:19:37Z</time>
      </trkpt>
      <trkpt lat="47.78929" lon="-3.64404">
        <ele>13</ele>
        <time>2018-07-18T12:19:38Z</time>
      </trkpt>
      <trkpt lat="47.7893" lon="-3.64398">
        <ele>13</ele>
        <time>2018-07-18T12:19:39Z</time>
      </trkpt>
      <trkpt lat="47.78931" lon="-3.64392">
        <ele>12</ele>
        <time>2018-07-18T12:19:40Z</time>
      </trkpt>
      <trkpt lat="47.78933" lon="-3.64385">
        <ele>12</ele>
        <time>2018-07-18T12:19:41Z</time>
      </trkpt>
      <trkpt lat="47.78934" lon="-3.64377">
        <ele>12</ele>
        <time>2018-07-18T12:19:42Z</time>
      </trkpt>
      <trkpt lat="47.78936" lon="-3.64368">
        <ele>12</ele>
        <time>2018-07-18T12:19:43Z</time>
      </trkpt>
      <trkpt lat="47.78938" lon="-3.6436">
        <ele>12</ele>
        <time>2018-07-18T12:19:44Z</time>
      </trkpt>
      <trkpt lat="47.7894" lon="-3.64353">
        <ele>12</ele>
        <time>2018-07-18T12:19:45Z</time>
      </trkpt>
      <trkpt lat="47.78943" lon="-3.64347">
        <ele>12</ele>
        <time>2018-07-18T12:19:46Z</time>
      </trkpt>
      <trkpt lat="47.78947" lon="-3.64342">
        <ele>11</ele>
        <time>2018-07-18T12:19:47Z</time>
      </trkpt>
      <trkpt lat="47.78951" lon="-3.64341">
        <ele>11</ele>
        <time>2018-07-18T12:19:48Z</time>
      </trkpt>
      <trkpt lat="47.78955" lon="-3.6434">
        <ele>11</ele>
        <time>2018-07-18T12:19:49Z</time>
      </trkpt>
      <trkpt lat="47.78957" lon="-3.6434">
        <ele>11</ele>
        <time>2018-07-18T12:19:50Z</time>
      </trkpt>
      <trkpt lat="47.78958" lon="-3.6434">
        <ele>11</ele>
        <time>2018-07-18T12:19:51Z</time>
      </trkpt>
      <trkpt lat="47.78958" lon="-3.64339">
        <ele>11</ele>
        <time>2018-07-18T12:19:52Z</time>
      </trkpt>
      <trkpt lat="47.78959" lon="-3.64339">
        <ele>11</ele>
        <time>2018-07-18T12:19:53Z</time>
      </trkpt>
      <trkpt lat="47.7896" lon="-3.64338">
        <ele>11</ele>
        <time>2018-07-18T12:19:54Z</time>
      </trkpt>
      <trkpt lat="47.7896" lon="-3.64338">
        <ele>11</ele>
        <time>2018-07-18T12:19:55Z</time>
      </trkpt>
      <trkpt lat="47.78961" lon="-3.64338">
        <ele>11</ele>
        <time>2018-07-18T12:19:56Z</time>
      </trkpt>
      <trkpt lat="47.78961" lon="-3.64337">
        <ele>11</ele>
        <time>2018-07-18T12:19:57Z</time>
      </trkpt>
      <trkpt lat="47.78962" lon="-3.64337">
        <ele>11</ele>
        <time>2018-07-18T12:19:58Z</time>
      </trkpt>
      <trkpt lat="47.78963" lon="-3.64337">
        <ele>11</ele>
        <time>2018-07-18T12:19:59Z</time>
      </trkpt>
      <trkpt lat="47.78963" lon="-3.64337">
        <ele>11</ele>
        <time>2018-07-18T12:20:00Z</time>
      </trkpt>
      <trkpt lat="47.78964" lon="-3.64337">
        <ele>10</ele>
        <time>2018-07-18T12:20:01Z</time>
      </trkpt>
      <trkpt lat="47.78965" lon="-3.64337">
        <ele>10</ele>
        <time>2018-07-18T12:20:02Z</time>
      </trkpt>
      <trkpt lat="47.78966" lon="-3.64338">
        <ele>10</ele>
        <time>2018-07-18T12:20:03Z</time>
      </trkpt>
      <trkpt lat="47.78967" lon="-3.64338">
        <ele>10</ele>
        <time>2018-07-18T12:20:04Z</time>
      </trkpt>
      <trkpt lat="47.78967" lon="-3.64338">
        <ele>10</ele>
        <time>2018-07-18T12:20:05Z</time>
      </trkpt>
      <trkpt lat="47.78968" lon="-3.64338">
        <ele>10</ele>
        <time>2018-07-18T12:20:06Z</time>
      </trkpt>
      <trkpt lat="47.78968" lon="-3.64338">
        <ele>10</ele>
        <time>2018-07-18T12:20:07Z</time>
      </trkpt>
      <trkpt lat="47.78969" lon="-3.64338">
        <ele>10</ele>
        <time>2018-07-18T12:20:08Z</time>
      </trkpt>
      <trkpt lat="47.7897" lon="-3.64338">
        <ele>10</ele>
        <time>2018-07-18T12:20:09Z</time>
      </trkpt>
      <trkpt lat="47.7897" lon="-3.64338">
        <ele>10</ele>
        <time>2018-07-18T12:20:10Z</time>
      </trkpt>
      <trkpt lat="47.7897" lon="-3.64338">
        <ele>10</ele>
        <time>2018-07-18T12:20:11Z</time>
      </trkpt>
      <trkpt lat="47.7897" lon="-3.64338">
        <ele>10</ele>
        <time>2018-07-18T12:20:12Z</time>
      </trkpt>
      <trkpt lat="47.78973" lon="-3.64337">
        <ele>10</ele>
        <time>2018-07-18T12:20:13Z</time>
      </trkpt>
      <trkpt lat="47.78974" lon="-3.64337">
        <ele>10</ele>
        <time>2018-07-18T12:20:14Z</time>
      </trkpt>
      <trkpt lat="47.78976" lon="-3.64336">
        <ele>10</ele>
        <time>2018-07-18T12:20:15Z</time>
      </trkpt>
      <trkpt lat="47.78978" lon="-3.64335">
        <ele>10</ele>
        <time>2018-07-18T12:20:16Z</time>
      </trkpt>
      <trkpt lat="47.7898" lon="-3.64335">
        <ele>10</ele>
        <time>2018-07-18T12:20:17Z</time>
      </trkpt>
      <trkpt lat="47.78983" lon="-3.64334">
        <ele>10</ele>
        <time>2018-07-18T12:20:18Z</time>
      </trkpt>
      <trkpt lat="47.78986" lon="-3.64334">
        <ele>10</ele>
        <time>2018-07-18T12:20:19Z</time>
      </trkpt>
      <trkpt lat="47.78989" lon="-3.64332">
        <ele>11</ele>
        <time>2018-07-18T12:20:20Z</time>
      </trkpt>
      <trkpt lat="47.78992" lon="-3.6433">
        <ele>11</ele>
        <time>2018-07-18T12:20:21Z</time>
      </trkpt>
      <trkpt lat="47.78996" lon="-3.64327">
        <ele>11</ele>
        <time>2018-07-18T12:20:22Z</time>
      </trkpt>
      <trkpt lat="47.79" lon="-3.64325">
        <ele>11</ele>
        <time>2018-07-18T12:20:23Z</time>
      </trkpt>
      <trkpt lat="47.79004" lon="-3.64323">
        <ele>11</ele>
        <time>2018-07-18T12:20:24Z</time>
      </trkpt>
      <trkpt lat="47.79007" lon="-3.64321">
        <ele>11</ele>
        <time>2018-07-18T12:20:25Z</time>
      </trkpt>
      <trkpt lat="47.79011" lon="-3.6432">
        <ele>11</ele>
        <time>2018-07-18T12:20:26Z</time>
      </trkpt>
      <trkpt lat="47.79014" lon="-3.64319">
        <ele>11</ele>
        <time>2018-07-18T12:20:27Z</time>
      </trkpt>
      <trkpt lat="47.79017" lon="-3.64317">
        <ele>11</ele>
        <time>2018-07-18T12:20:28Z</time>
      </trkpt>
      <trkpt lat="47.7902" lon="-3.64314">
        <ele>11</ele>
        <time>2018-07-18T12:20:29Z</time>
      </trkpt>
      <trkpt lat="47.79023" lon="-3.64311">
        <ele>12</ele>
        <time>2018-07-18T12:20:30Z</time>
      </trkpt>
      <trkpt lat="47.79025" lon="-3.64307">
        <ele>12</ele>
        <time>2018-07-18T12:20:31Z</time>
      </trkpt>
      <trkpt lat="47.79027" lon="-3.64304">
        <ele>11</ele>
        <time>2018-07-18T12:20:32Z</time>
      </trkpt>
      <trkpt lat="47.79029" lon="-3.643">
        <ele>11</ele>
        <time>2018-07-18T12:20:33Z</time>
      </trkpt>
      <trkpt lat="47.79031" lon="-3.64296">
        <ele>11</ele>
        <time>2018-07-18T12:20:34Z</time>
      </trkpt>
      <trkpt lat="47.79033" lon="-3.64292">
        <ele>11</ele>
        <time>2018-07-18T12:20:35Z</time>
      </trkpt>
      <trkpt lat="47.79036" lon="-3.64288">
        <ele>11</ele>
        <time>2018-07-18T12:20:36Z</time>
      </trkpt>
      <trkpt lat="47.7904" lon="-3.64285">
        <ele>11</ele>
        <time>2018-07-18T12:20:37Z</time>
      </trkpt>
      <trkpt lat="47.79043" lon="-3.64284">
        <ele>11</ele>
        <time>2018-07-18T12:20:38Z</time>
      </trkpt>
      <trkpt lat="47.79046" lon="-3.64284">
        <ele>11</ele>
        <time>2018-07-18T12:20:39Z</time>
      </trkpt>
      <trkpt lat="47.79049" lon="-3.64285">
        <ele>11</ele>
        <time>2018-07-18T12:20:40Z</time>
      </trkpt>
      <trkpt lat="47.79051" lon="-3.64287">
        <ele>11</ele>
        <time>2018-07-18T12:20:41Z</time>
      </trkpt>
      <trkpt lat="47.79054" lon="-3.64289">
        <ele>11</ele>
        <time>2018-07-18T12:20:42Z</time>
      </trkpt>
      <trkpt lat="47.79057" lon="-3.64291">
        <ele>11</ele>
        <time>2018-07-18T12:20:43Z</time>
      </trkpt>
      <trkpt lat="47.7906" lon="-3.64293">
        <ele>11</ele>
        <time>2018-07-18T12:20:44Z</time>
      </trkpt>
      <trkpt lat="47.79063" lon="-3.64294">
        <ele>11</ele>
        <time>2018-07-18T12:20:45Z</time>
      </trkpt>
      <trkpt lat="47.79068" lon="-3.64294">
        <ele>12</ele>
        <time>2018-07-18T12:20:46Z</time>
      </trkpt>
      <trkpt lat="47.79072" lon="-3.64292">
        <ele>12</ele>
        <time>2018-07-18T12:20:47Z</time>
      </trkpt>
      <trkpt lat="47.79075" lon="-3.64289">
        <ele>12</ele>
        <time>2018-07-18T12:20:48Z</time>
      </trkpt>
      <trkpt lat="47.79078" lon="-3.64285">
        <ele>12</ele>
        <time>2018-07-18T12:20:49Z</time>
      </trkpt>
      <trkpt lat="47.79079" lon="-3.64282">
        <ele>12</ele>
        <time>2018-07-18T12:20:50Z</time>
      </trkpt>
      <trkpt lat="47.7908" lon="-3.64278">
        <ele>12</ele>
        <time>2018-07-18T12:20:51Z</time>
      </trkpt>
      <trkpt lat="47.79081" lon="-3.64274">
        <ele>12</ele>
        <time>2018-07-18T12:20:52Z</time>
      </trkpt>
      <trkpt lat="47.79082" lon="-3.64269">
        <ele>12</ele>
        <time>2018-07-18T12:20:53Z</time>
      </trkpt>
      <trkpt lat="47.79082" lon="-3.64263">
        <ele>12</ele>
        <time>2018-07-18T12:20:54Z</time>
      </trkpt>
      <trkpt lat="47.79082" lon="-3.64258">
        <ele>12</ele>
        <time>2018-07-18T12:20:55Z</time>
      </trkpt>
      <trkpt lat="47.79082" lon="-3.64252">
        <ele>12</ele>
        <time>2018-07-18T12:20:56Z</time>
      </trkpt>
      <trkpt lat="47.79083" lon="-3.64247">
        <ele>12</ele>
        <time>2018-07-18T12:20:57Z</time>
      </trkpt>
      <trkpt lat="47.79083" lon="-3.64241">
        <ele>12</ele>
        <time>2018-07-18T12:20:58Z</time>
      </trkpt>
      <trkpt lat="47.79083" lon="-3.64235">
        <ele>12</ele>
        <time>2018-07-18T12:20:59Z</time>
      </trkpt>
      <trkpt lat="47.79083" lon="-3.64229">
        <ele>12</ele>
        <time>2018-07-18T12:21:00Z</time>
      </trkpt>
      <trkpt lat="47.79082" lon="-3.64223">
        <ele>12</ele>
        <time>2018-07-18T12:21:01Z</time>
      </trkpt>
      <trkpt lat="47.79082" lon="-3.64217">
        <ele>12</ele>
        <time>2018-07-18T12:21:02Z</time>
      </trkpt>
      <trkpt lat="47.79082" lon="-3.64214">
        <ele>12</ele>
        <time>2018-07-18T12:21:03Z</time>
      </trkpt>
      <trkpt lat="47.79082" lon="-3.64212">
        <ele>12</ele>
        <time>2018-07-18T12:21:04Z</time>
      </trkpt>
      <trkpt lat="47.79081" lon="-3.64211">
        <ele>12</ele>
        <time>2018-07-18T12:21:05Z</time>
      </trkpt>
      <trkpt lat="47.79081" lon="-3.6421">
        <ele>12</ele>
        <time>2018-07-18T12:21:06Z</time>
      </trkpt>
      <trkpt lat="47.7908" lon="-3.64209">
        <ele>12</ele>
        <time>2018-07-18T12:21:07Z</time>
      </trkpt>
      <trkpt lat="47.79079" lon="-3.64206">
        <ele>11</ele>
        <time>2018-07-18T12:21:08Z</time>
      </trkpt>
      <trkpt lat="47.79078" lon="-3.64202">
        <ele>11</ele>
        <time>2018-07-18T12:21:09Z</time>
      </trkpt>
      <trkpt lat="47.79079" lon="-3.64198">
        <ele>11</ele>
        <time>2018-07-18T12:21:10Z</time>
      </trkpt>
      <trkpt lat="47.79079" lon="-3.64193">
        <ele>11</ele>
        <time>2018-07-18T12:21:11Z</time>
      </trkpt>
      <trkpt lat="47.79079" lon="-3.64188">
        <ele>11</ele>
        <time>2018-07-18T12:21:12Z</time>
      </trkpt>
      <trkpt lat="47.79079" lon="-3.64183">
        <ele>11</ele>
        <time>2018-07-18T12:21:13Z</time>
      </trkpt>
      <trkpt lat="47.79078" lon="-3.64177">
        <ele>11</ele>
        <time>2018-07-18T12:21:14Z</time>
      </trkpt>
      <trkpt lat="47.79077" lon="-3.64173">
        <ele>11</ele>
        <time>2018-07-18T12:21:15Z</time>
      </trkpt>
      <trkpt lat="47.79077" lon="-3.64167">
        <ele>11</ele>
        <time>2018-07-18T12:21:16Z</time>
      </trkpt>
      <trkpt lat="47.79076" lon="-3.64162">
        <ele>11</ele>
        <time>2018-07-18T12:21:17Z</time>
      </trkpt>
      <trkpt lat="47.79074" lon="-3.64157">
        <ele>11</ele>
        <time>2018-07-18T12:21:18Z</time>
      </trkpt>
      <trkpt lat="47.79073" lon="-3.64151">
        <ele>11</ele>
        <time>2018-07-18T12:21:19Z</time>
      </trkpt>
      <trkpt lat="47.79072" lon="-3.64147">
        <ele>10</ele>
        <time>2018-07-18T12:21:20Z</time>
      </trkpt>
      <trkpt lat="47.79071" lon="-3.64142">
        <ele>10</ele>
        <time>2018-07-18T12:21:21Z</time>
      </trkpt>
      <trkpt lat="47.79071" lon="-3.64138">
        <ele>10</ele>
        <time>2018-07-18T12:21:22Z</time>
      </trkpt>
      <trkpt lat="47.79071" lon="-3.64133">
        <ele>10</ele>
        <time>2018-07-18T12:21:23Z</time>
      </trkpt>
      <trkpt lat="47.7907" lon="-3.64129">
        <ele>10</ele>
        <time>2018-07-18T12:21:24Z</time>
      </trkpt>
      <trkpt lat="47.79069" lon="-3.64125">
        <ele>10</ele>
        <time>2018-07-18T12:21:25Z</time>
      </trkpt>
      <trkpt lat="47.7907" lon="-3.64121">
        <ele>10</ele>
        <time>2018-07-18T12:21:26Z</time>
      </trkpt>
      <trkpt lat="47.7907" lon="-3.64117">
        <ele>10</ele>
        <time>2018-07-18T12:21:27Z</time>
      </trkpt>
      <trkpt lat="47.7907" lon="-3.64112">
        <ele>10</ele>
        <time>2018-07-18T12:21:28Z</time>
      </trkpt>
      <trkpt lat="47.7907" lon="-3.64108">
        <ele>10</ele>
        <time>2018-07-18T12:21:29Z</time>
      </trkpt>
      <trkpt lat="47.7907" lon="-3.64103">
        <ele>10</ele>
        <time>2018-07-18T12:21:30Z</time>
      </trkpt>
      <trkpt lat="47.79069" lon="-3.64098">
        <ele>10</ele>
        <time>2018-07-18T12:21:31Z</time>
      </trkpt>
      <trkpt lat="47.79069" lon="-3.64093">
        <ele>10</ele>
        <time>2018-07-18T12:21:32Z</time>
      </trkpt>
      <trkpt lat="47.79069" lon="-3.64088">
        <ele>9</ele>
        <time>2018-07-18T12:21:33Z</time>
      </trkpt>
      <trkpt lat="47.79069" lon="-3.64084">
        <ele>9</ele>
        <time>2018-07-18T12:21:34Z</time>
      </trkpt>
      <trkpt lat="47.79069" lon="-3.6408">
        <ele>9</ele>
        <time>2018-07-18T12:21:35Z</time>
      </trkpt>
      <trkpt lat="47.7907" lon="-3.64075">
        <ele>9</ele>
        <time>2018-07-18T12:21:36Z</time>
      </trkpt>
      <trkpt lat="47.79071" lon="-3.64069">
        <ele>9</ele>
        <time>2018-07-18T12:21:37Z</time>
      </trkpt>
      <trkpt lat="47.79073" lon="-3.64063">
        <ele>9</ele>
        <time>2018-07-18T12:21:38Z</time>
      </trkpt>
      <trkpt lat="47.79076" lon="-3.64059">
        <ele>9</ele>
        <time>2018-07-18T12:21:39Z</time>
      </trkpt>
      <trkpt lat="47.79079" lon="-3.64057">
        <ele>9</ele>
        <time>2018-07-18T12:21:40Z</time>
      </trkpt>
      <trkpt lat="47.79082" lon="-3.64055">
        <ele>9</ele>
        <time>2018-07-18T12:21:41Z</time>
      </trkpt>
      <trkpt lat="47.79084" lon="-3.64052">
        <ele>10</ele>
        <time>2018-07-18T12:21:42Z</time>
      </trkpt>
      <trkpt lat="47.79086" lon="-3.6405">
        <ele>10</ele>
        <time>2018-07-18T12:21:43Z</time>
      </trkpt>
      <trkpt lat="47.79088" lon="-3.64048">
        <ele>10</ele>
        <time>2018-07-18T12:21:44Z</time>
      </trkpt>
      <trkpt lat="47.7909" lon="-3.64047">
        <ele>10</ele>
        <time>2018-07-18T12:21:45Z</time>
      </trkpt>
      <trkpt lat="47.79092" lon="-3.64045">
        <ele>10</ele>
        <time>2018-07-18T12:21:46Z</time>
      </trkpt>
      <trkpt lat="47.79094" lon="-3.64043">
        <ele>10</ele>
        <time>2018-07-18T12:21:47Z</time>
      </trkpt>
      <trkpt lat="47.79096" lon="-3.64042">
        <ele>10</ele>
        <time>2018-07-18T12:21:48Z</time>
      </trkpt>
      <trkpt lat="47.79099" lon="-3.6404">
        <ele>10</ele>
        <time>2018-07-18T12:21:49Z</time>
      </trkpt>
      <trkpt lat="47.79101" lon="-3.64037">
        <ele>10</ele>
        <time>2018-07-18T12:21:50Z</time>
      </trkpt>
      <trkpt lat="47.79104" lon="-3.64034">
        <ele>10</ele>
        <time>2018-07-18T12:21:51Z</time>
      </trkpt>
      <trkpt lat="47.79108" lon="-3.64032">
        <ele>10</ele>
        <time>2018-07-18T12:21:52Z</time>
      </trkpt>
      <trkpt lat="47.79112" lon="-3.6403">
        <ele>10</ele>
        <time>2018-07-18T12:21:53Z</time>
      </trkpt>
      <trkpt lat="47.79116" lon="-3.64028">
        <ele>10</ele>
        <time>2018-07-18T12:21:54Z</time>
      </trkpt>
      <trkpt lat="47.79119" lon="-3.64026">
        <ele>10</ele>
        <time>2018-07-18T12:21:55Z</time>
      </trkpt>
      <trkpt lat="47.79123" lon="-3.64023">
        <ele>10</ele>
        <time>2018-07-18T12:21:56Z</time>
      </trkpt>
      <trkpt lat="47.79126" lon="-3.64021">
        <ele>10</ele>
        <time>2018-07-18T12:21:57Z</time>
      </trkpt>
      <trkpt lat="47.79128" lon="-3.64018">
        <ele>11</ele>
        <time>2018-07-18T12:21:58Z</time>
      </trkpt>
      <trkpt lat="47.79131" lon="-3.64016">
        <ele>11</ele>
        <time>2018-07-18T12:21:59Z</time>
      </trkpt>
      <trkpt lat="47.79133" lon="-3.64013">
        <ele>11</ele>
        <time>2018-07-18T12:22:00Z</time>
      </trkpt>
      <trkpt lat="47.79136" lon="-3.64009">
        <ele>11</ele>
        <time>2018-07-18T12:22:01Z</time>
      </trkpt>
      <trkpt lat="47.79139" lon="-3.64006">
        <ele>11</ele>
        <time>2018-07-18T12:22:02Z</time>
      </trkpt>
      <trkpt lat="47.79141" lon="-3.64003">
        <ele>11</ele>
        <time>2018-07-18T12:22:03Z</time>
      </trkpt>
      <trkpt lat="47.79144" lon="-3.64">
        <ele>11</ele>
        <time>2018-07-18T12:22:04Z</time>
      </trkpt>
      <trkpt lat="47.79147" lon="-3.63997">
        <ele>11</ele>
        <time>2018-07-18T12:22:05Z</time>
      </trkpt>
      <trkpt lat="47.79149" lon="-3.63993">
        <ele>12</ele>
        <time>2018-07-18T12:22:06Z</time>
      </trkpt>
      <trkpt lat="47.79151" lon="-3.6399">
        <ele>12</ele>
        <time>2018-07-18T12:22:07Z</time>
      </trkpt>
      <trkpt lat="47.79153" lon="-3.63989">
        <ele>12</ele>
        <time>2018-07-18T12:22:08Z</time>
      </trkpt>
      <trkpt lat="47.79155" lon="-3.63987">
        <ele>12</ele>
        <time>2018-07-18T12:22:09Z</time>
      </trkpt>
      <trkpt lat="47.79157" lon="-3.63984">
        <ele>12</ele>
        <time>2018-07-18T12:22:10Z</time>
      </trkpt>
      <trkpt lat="47.7916" lon="-3.63981">
        <ele>12</ele>
        <time>2018-07-18T12:22:11Z</time>
      </trkpt>
      <trkpt lat="47.79162" lon="-3.63978">
        <ele>12</ele>
        <time>2018-07-18T12:22:12Z</time>
      </trkpt>
      <trkpt lat="47.79165" lon="-3.63974">
        <ele>13</ele>
        <time>2018-07-18T12:22:13Z</time>
      </trkpt>
      <trkpt lat="47.79169" lon="-3.63971">
        <ele>13</ele>
        <time>2018-07-18T12:22:14Z</time>
      </trkpt>
      <trkpt lat="47.79172" lon="-3.63967">
        <ele>13</ele>
        <time>2018-07-18T12:22:15Z</time>
      </trkpt>
      <trkpt lat="47.79175" lon="-3.63964">
        <ele>13</ele>
        <time>2018-07-18T12:22:16Z</time>
      </trkpt>
      <trkpt lat="47.79177" lon="-3.63961">
        <ele>13</ele>
        <time>2018-07-18T12:22:17Z</time>
      </trkpt>
      <trkpt lat="47.7918" lon="-3.63958">
        <ele>13</ele>
        <time>2018-07-18T12:22:18Z</time>
      </trkpt>
      <trkpt lat="47.79182" lon="-3.63954">
        <ele>14</ele>
        <time>2018-07-18T12:22:19Z</time>
      </trkpt>
      <trkpt lat="47.79184" lon="-3.6395">
        <ele>14</ele>
        <time>2018-07-18T12:22:20Z</time>
      </trkpt>
      <trkpt lat="47.79187" lon="-3.63946">
        <ele>14</ele>
        <time>2018-07-18T12:22:21Z</time>
      </trkpt>
      <trkpt lat="47.7919" lon="-3.63942">
        <ele>14</ele>
        <time>2018-07-18T12:22:22Z</time>
      </trkpt>
      <trkpt lat="47.79191" lon="-3.6394">
        <ele>14</ele>
        <time>2018-07-18T12:22:23Z</time>
      </trkpt>
      <trkpt lat="47.79192" lon="-3.6394">
        <ele>14</ele>
        <time>2018-07-18T12:22:24Z</time>
      </trkpt>
      <trkpt lat="47.79193" lon="-3.63939">
        <ele>14</ele>
        <time>2018-07-18T12:22:25Z</time>
      </trkpt>
      <trkpt lat="47.79193" lon="-3.63938">
        <ele>14</ele>
        <time>2018-07-18T12:22:26Z</time>
      </trkpt>
      <trkpt lat="47.79194" lon="-3.63938">
        <ele>14</ele>
        <time>2018-07-18T12:22:27Z</time>
      </trkpt>
      <trkpt lat="47.79194" lon="-3.63937">
        <ele>14</ele>
        <time>2018-07-18T12:22:28Z</time>
      </trkpt>
      <trkpt lat="47.79197" lon="-3.63934">
        <ele>14</ele>
        <time>2018-07-18T12:22:29Z</time>
      </trkpt>
      <trkpt lat="47.79198" lon="-3.63933">
        <ele>14</ele>
        <time>2018-07-18T12:22:30Z</time>
      </trkpt>
      <trkpt lat="47.79198" lon="-3.63931">
        <ele>14</ele>
        <time>2018-07-18T12:22:31Z</time>
      </trkpt>
      <trkpt lat="47.79199" lon="-3.6393">
        <ele>13</ele>
        <time>2018-07-18T12:22:32Z</time>
      </trkpt>
      <trkpt lat="47.792" lon="-3.63929">
        <ele>13</ele>
        <time>2018-07-18T12:22:33Z</time>
      </trkpt>
      <trkpt lat="47.79201" lon="-3.63928">
        <ele>13</ele>
        <time>2018-07-18T12:22:34Z</time>
      </trkpt>
      <trkpt lat="47.79201" lon="-3.63927">
        <ele>12</ele>
        <time>2018-07-18T12:22:35Z</time>
      </trkpt>
      <trkpt lat="47.79201" lon="-3.63927">
        <ele>12</ele>
        <time>2018-07-18T12:22:36Z</time>
      </trkpt>
      <trkpt lat="47.79201" lon="-3.63927">
        <ele>12</ele>
        <time>2018-07-18T12:22:37Z</time>
      </trkpt>
      <trkpt lat="47.79202" lon="-3.63927">
        <ele>12</ele>
        <time>2018-07-18T12:22:38Z</time>
      </trkpt>
      <trkpt lat="47.79203" lon="-3.63925">
        <ele>11</ele>
        <time>2018-07-18T12:22:39Z</time>
      </trkpt>
      <trkpt lat="47.79205" lon="-3.63924">
        <ele>11</ele>
        <time>2018-07-18T12:22:40Z</time>
      </trkpt>
      <trkpt lat="47.79207" lon="-3.63922">
        <ele>11</ele>
        <time>2018-07-18T12:22:41Z</time>
      </trkpt>
      <trkpt lat="47.7921" lon="-3.6392">
        <ele>11</ele>
        <time>2018-07-18T12:22:42Z</time>
      </trkpt>
      <trkpt lat="47.79212" lon="-3.63918">
        <ele>11</ele>
        <time>2018-07-18T12:22:43Z</time>
      </trkpt>
      <trkpt lat="47.79214" lon="-3.63917">
        <ele>11</ele>
        <time>2018-07-18T12:22:44Z</time>
      </trkpt>
      <trkpt lat="47.79216" lon="-3.63913">
        <ele>11</ele>
        <time>2018-07-18T12:22:45Z</time>
      </trkpt>
      <trkpt lat="47.79218" lon="-3.6391">
        <ele>11</ele>
        <time>2018-07-18T12:22:46Z</time>
      </trkpt>
      <trkpt lat="47.7922" lon="-3.63906">
        <ele>10</ele>
        <time>2018-07-18T12:22:47Z</time>
      </trkpt>
      <trkpt lat="47.79222" lon="-3.63902">
        <ele>10</ele>
        <time>2018-07-18T12:22:48Z</time>
      </trkpt>
      <trkpt lat="47.79223" lon="-3.63899">
        <ele>10</ele>
        <time>2018-07-18T12:22:49Z</time>
      </trkpt>
      <trkpt lat="47.79226" lon="-3.63895">
        <ele>10</ele>
        <time>2018-07-18T12:22:50Z</time>
      </trkpt>
      <trkpt lat="47.79229" lon="-3.63891">
        <ele>10</ele>
        <time>2018-07-18T12:22:51Z</time>
      </trkpt>
      <trkpt lat="47.79231" lon="-3.63889">
        <ele>10</ele>
        <time>2018-07-18T12:22:52Z</time>
      </trkpt>
      <trkpt lat="47.79233" lon="-3.63887">
        <ele>10</ele>
        <time>2018-07-18T12:22:53Z</time>
      </trkpt>
      <trkpt lat="47.79235" lon="-3.63885">
        <ele>10</ele>
        <time>2018-07-18T12:22:54Z</time>
      </trkpt>
      <trkpt lat="47.79237" lon="-3.63884">
        <ele>10</ele>
        <time>2018-07-18T12:22:55Z</time>
      </trkpt>
      <trkpt lat="47.79238" lon="-3.63882">
        <ele>10</ele>
        <time>2018-07-18T12:22:56Z</time>
      </trkpt>
      <trkpt lat="47.79239" lon="-3.63881">
        <ele>10</ele>
        <time>2018-07-18T12:22:57Z</time>
      </trkpt>
      <trkpt lat="47.79241" lon="-3.63878">
        <ele>10</ele>
        <time>2018-07-18T12:22:58Z</time>
      </trkpt>
      <trkpt lat="47.79243" lon="-3.63875">
        <ele>10</ele>
        <time>2018-07-18T12:22:59Z</time>
      </trkpt>
      <trkpt lat="47.79246" lon="-3.63872">
        <ele>10</ele>
        <time>2018-07-18T12:23:00Z</time>
      </trkpt>
      <trkpt lat="47.79249" lon="-3.6387">
        <ele>10</ele>
        <time>2018-07-18T12:23:01Z</time>
      </trkpt>
      <trkpt lat="47.79252" lon="-3.63867">
        <ele>10</ele>
        <time>2018-07-18T12:23:02Z</time>
      </trkpt>
      <trkpt lat="47.79254" lon="-3.63864">
        <ele>10</ele>
        <time>2018-07-18T12:23:03Z</time>
      </trkpt>
      <trkpt lat="47.79256" lon="-3.63861">
        <ele>10</ele>
        <time>2018-07-18T12:23:04Z</time>
      </trkpt>
      <trkpt lat="47.79259" lon="-3.63858">
        <ele>10</ele>
        <time>2018-07-18T12:23:05Z</time>
      </trkpt>
      <trkpt lat="47.79262" lon="-3.63855">
        <ele>10</ele>
        <time>2018-07-18T12:23:06Z</time>
      </trkpt>
      <trkpt lat="47.79264" lon="-3.63853">
        <ele>11</ele>
        <time>2018-07-18T12:23:07Z</time>
      </trkpt>
      <trkpt lat="47.79266" lon="-3.6385">
        <ele>11</ele>
        <time>2018-07-18T12:23:08Z</time>
      </trkpt>
      <trkpt lat="47.79268" lon="-3.63847">
        <ele>11</ele>
        <time>2018-07-18T12:23:09Z</time>
      </trkpt>
      <trkpt lat="47.79269" lon="-3.63845">
        <ele>11</ele>
        <time>2018-07-18T12:23:10Z</time>
      </trkpt>
      <trkpt lat="47.7927" lon="-3.63844">
        <ele>11</ele>
        <time>2018-07-18T12:23:11Z</time>
      </trkpt>
      <trkpt lat="47.79271" lon="-3.63843">
        <ele>12</ele>
        <time>2018-07-18T12:23:12Z</time>
      </trkpt>
      <trkpt lat="47.79271" lon="-3.63842">
        <ele>12</ele>
        <time>2018-07-18T12:23:13Z</time>
      </trkpt>
      <trkpt lat="47.79272" lon="-3.63842">
        <ele>12</ele>
        <time>2018-07-18T12:23:14Z</time>
      </trkpt>
      <trkpt lat="47.79272" lon="-3.63841">
        <ele>12</ele>
        <time>2018-07-18T12:23:15Z</time>
      </trkpt>
      <trkpt lat="47.79275" lon="-3.63837">
        <ele>13</ele>
        <time>2018-07-18T12:23:16Z</time>
      </trkpt>
      <trkpt lat="47.79275" lon="-3.63837">
        <ele>13</ele>
        <time>2018-07-18T12:23:17Z</time>
      </trkpt>
      <trkpt lat="47.79274" lon="-3.63837">
        <ele>13</ele>
        <time>2018-07-18T12:23:18Z</time>
      </trkpt>
      <trkpt lat="47.79273" lon="-3.63837">
        <ele>13</ele>
        <time>2018-07-18T12:23:19Z</time>
      </trkpt>
      <trkpt lat="47.79273" lon="-3.63837">
        <ele>13</ele>
        <time>2018-07-18T12:23:20Z</time>
      </trkpt>
      <trkpt lat="47.79273" lon="-3.63837">
        <ele>13</ele>
        <time>2018-07-18T12:23:21Z</time>
      </trkpt>
      <trkpt lat="47.79273" lon="-3.63837">
        <ele>13</ele>
        <time>2018-07-18T12:23:22Z</time>
      </trkpt>
      <trkpt lat="47.79273" lon="-3.63836">
        <ele>13</ele>
        <time>2018-07-18T12:23:23Z</time>
      </trkpt>
      <trkpt lat="47.79273" lon="-3.63835">
        <ele>13</ele>
        <time>2018-07-18T12:23:24Z</time>
      </trkpt>
      <trkpt lat="47.79272" lon="-3.63833">
        <ele>13</ele>
        <time>2018-07-18T12:23:25Z</time>
      </trkpt>
      <trkpt lat="47.79272" lon="-3.6383">
        <ele>13</ele>
        <time>2018-07-18T12:23:26Z</time>
      </trkpt>
      <trkpt lat="47.79272" lon="-3.63827">
        <ele>13</ele>
        <time>2018-07-18T12:23:27Z</time>
      </trkpt>
      <trkpt lat="47.79271" lon="-3.63823">
        <ele>13</ele>
        <time>2018-07-18T12:23:28Z</time>
      </trkpt>
      <trkpt lat="47.7927" lon="-3.6382">
        <ele>13</ele>
        <time>2018-07-18T12:23:29Z</time>
      </trkpt>
      <trkpt lat="47.79269" lon="-3.63816">
        <ele>13</ele>
        <time>2018-07-18T12:23:30Z</time>
      </trkpt>
      <trkpt lat="47.79268" lon="-3.63813">
        <ele>13</ele>
        <time>2018-07-18T12:23:31Z</time>
      </trkpt>
      <trkpt lat="47.79267" lon="-3.6381">
        <ele>13</ele>
        <time>2018-07-18T12:23:32Z</time>
      </trkpt>
      <trkpt lat="47.79266" lon="-3.63806">
        <ele>13</ele>
        <time>2018-07-18T12:23:33Z</time>
      </trkpt>
      <trkpt lat="47.79265" lon="-3.63804">
        <ele>13</ele>
        <time>2018-07-18T12:23:34Z</time>
      </trkpt>
      <trkpt lat="47.79265" lon="-3.63802">
        <ele>13</ele>
        <time>2018-07-18T12:23:35Z</time>
      </trkpt>
      <trkpt lat="47.79265" lon="-3.63802">
        <ele>13</ele>
        <time>2018-07-18T12:23:36Z</time>
      </trkpt>
      <trkpt lat="47.79265" lon="-3.63801">
        <ele>13</ele>
        <time>2018-07-18T12:23:37Z</time>
      </trkpt>
      <trkpt lat="47.79266" lon="-3.63801">
        <ele>13</ele>
        <time>2018-07-18T12:23:38Z</time>
      </trkpt>
      <trkpt lat="47.79266" lon="-3.63801">
        <ele>13</ele>
        <time>2018-07-18T12:23:39Z</time>
      </trkpt>
      <trkpt lat="47.79267" lon="-3.63799">
        <ele>12</ele>
        <time>2018-07-18T12:23:40Z</time>
      </trkpt>
      <trkpt lat="47.79268" lon="-3.63798">
        <ele>12</ele>
        <time>2018-07-18T12:23:41Z</time>
      </trkpt>
      <trkpt lat="47.79269" lon="-3.63796">
        <ele>12</ele>
        <time>2018-07-18T12:23:42Z</time>
      </trkpt>
      <trkpt lat="47.79271" lon="-3.63794">
        <ele>12</ele>
        <time>2018-07-18T12:23:43Z</time>
      </trkpt>
      <trkpt lat="47.79272" lon="-3.63792">
        <ele>12</ele>
        <time>2018-07-18T12:23:44Z</time>
      </trkpt>
      <trkpt lat="47.79274" lon="-3.63789">
        <ele>11</ele>
        <time>2018-07-18T12:23:45Z</time>
      </trkpt>
      <trkpt lat="47.79276" lon="-3.63786">
        <ele>11</ele>
        <time>2018-07-18T12:23:46Z</time>
      </trkpt>
      <trkpt lat="47.79277" lon="-3.63784">
        <ele>11</ele>
        <time>2018-07-18T12:23:47Z</time>
      </trkpt>
      <trkpt lat="47.79279" lon="-3.63781">
        <ele>11</ele>
        <time>2018-07-18T12:23:48Z</time>
      </trkpt>
      <trkpt lat="47.79281" lon="-3.63778">
        <ele>11</ele>
        <time>2018-07-18T12:23:49Z</time>
      </trkpt>
      <trkpt lat="47.79283" lon="-3.63775">
        <ele>11</ele>
        <time>2018-07-18T12:23:50Z</time>
      </trkpt>
      <trkpt lat="47.79284" lon="-3.63773">
        <ele>11</ele>
        <time>2018-07-18T12:23:51Z</time>
      </trkpt>
      <trkpt lat="47.79286" lon="-3.6377">
        <ele>11</ele>
        <time>2018-07-18T12:23:52Z</time>
      </trkpt>
      <trkpt lat="47.79287" lon="-3.63767">
        <ele>11</ele>
        <time>2018-07-18T12:23:53Z</time>
      </trkpt>
      <trkpt lat="47.79288" lon="-3.63764">
        <ele>11</ele>
        <time>2018-07-18T12:23:54Z</time>
      </trkpt>
      <trkpt lat="47.7929" lon="-3.63761">
        <ele>10</ele>
        <time>2018-07-18T12:23:55Z</time>
      </trkpt>
      <trkpt lat="47.79292" lon="-3.63758">
        <ele>10</ele>
        <time>2018-07-18T12:23:56Z</time>
      </trkpt>
      <trkpt lat="47.79293" lon="-3.63755">
        <ele>10</ele>
        <time>2018-07-18T12:23:57Z</time>
      </trkpt>
      <trkpt lat="47.79294" lon="-3.63753">
        <ele>10</ele>
        <time>2018-07-18T12:23:58Z</time>
      </trkpt>
      <trkpt lat="47.79295" lon="-3.63751">
        <ele>10</ele>
        <time>2018-07-18T12:23:59Z</time>
      </trkpt>
      <trkpt lat="47.79296" lon="-3.63748">
        <ele>10</ele>
        <time>2018-07-18T12:24:00Z</time>
      </trkpt>
      <trkpt lat="47.79298" lon="-3.63744">
        <ele>10</ele>
        <time>2018-07-18T12:24:01Z</time>
      </trkpt>
      <trkpt lat="47.79299" lon="-3.63741">
        <ele>10</ele>
        <time>2018-07-18T12:24:02Z</time>
      </trkpt>
      <trkpt lat="47.793" lon="-3.63739">
        <ele>10</ele>
        <time>2018-07-18T12:24:03Z</time>
      </trkpt>
      <trkpt lat="47.79301" lon="-3.63736">
        <ele>9</ele>
        <time>2018-07-18T12:24:04Z</time>
      </trkpt>
      <trkpt lat="47.79302" lon="-3.63732">
        <ele>9</ele>
        <time>2018-07-18T12:24:05Z</time>
      </trkpt>
      <trkpt lat="47.79303" lon="-3.63729">
        <ele>9</ele>
        <time>2018-07-18T12:24:06Z</time>
      </trkpt>
      <trkpt lat="47.79304" lon="-3.63726">
        <ele>9</ele>
        <time>2018-07-18T12:24:07Z</time>
      </trkpt>
      <trkpt lat="47.79304" lon="-3.63723">
        <ele>9</ele>
        <time>2018-07-18T12:24:08Z</time>
      </trkpt>
      <trkpt lat="47.79304" lon="-3.63719">
        <ele>9</ele>
        <time>2018-07-18T12:24:09Z</time>
      </trkpt>
      <trkpt lat="47.79305" lon="-3.63716">
        <ele>9</ele>
        <time>2018-07-18T12:24:10Z</time>
      </trkpt>
      <trkpt lat="47.79305" lon="-3.63713">
        <ele>9</ele>
        <time>2018-07-18T12:24:11Z</time>
      </trkpt>
      <trkpt lat="47.79306" lon="-3.6371">
        <ele>9</ele>
        <time>2018-07-18T12:24:12Z</time>
      </trkpt>
      <trkpt lat="47.79306" lon="-3.63707">
        <ele>9</ele>
        <time>2018-07-18T12:24:13Z</time>
      </trkpt>
      <trkpt lat="47.79307" lon="-3.63704">
        <ele>9</ele>
        <time>2018-07-18T12:24:14Z</time>
      </trkpt>
      <trkpt lat="47.79308" lon="-3.63701">
        <ele>10</ele>
        <time>2018-07-18T12:24:15Z</time>
      </trkpt>
      <trkpt lat="47.79308" lon="-3.63698">
        <ele>10</ele>
        <time>2018-07-18T12:24:16Z</time>
      </trkpt>
      <trkpt lat="47.79309" lon="-3.63695">
        <ele>10</ele>
        <time>2018-07-18T12:24:17Z</time>
      </trkpt>
      <trkpt lat="47.7931" lon="-3.63691">
        <ele>10</ele>
        <time>2018-07-18T12:24:18Z</time>
      </trkpt>
      <trkpt lat="47.79311" lon="-3.63687">
        <ele>10</ele>
        <time>2018-07-18T12:24:19Z</time>
      </trkpt>
      <trkpt lat="47.79311" lon="-3.63683">
        <ele>10</ele>
        <time>2018-07-18T12:24:20Z</time>
      </trkpt>
      <trkpt lat="47.79312" lon="-3.6368">
        <ele>10</ele>
        <time>2018-07-18T12:24:21Z</time>
      </trkpt>
      <trkpt lat="47.79313" lon="-3.63677">
        <ele>10</ele>
        <time>2018-07-18T12:24:22Z</time>
      </trkpt>
      <trkpt lat="47.79313" lon="-3.63674">
        <ele>11</ele>
        <time>2018-07-18T12:24:23Z</time>
      </trkpt>
      <trkpt lat="47.79313" lon="-3.63671">
        <ele>11</ele>
        <time>2018-07-18T12:24:24Z</time>
      </trkpt>
      <trkpt lat="47.79312" lon="-3.63669">
        <ele>11</ele>
        <time>2018-07-18T12:24:25Z</time>
      </trkpt>
      <trkpt lat="47.79311" lon="-3.63669">
        <ele>11</ele>
        <time>2018-07-18T12:24:26Z</time>
      </trkpt>
      <trkpt lat="47.79309" lon="-3.63669">
        <ele>11</ele>
        <time>2018-07-18T12:24:27Z</time>
      </trkpt>
      <trkpt lat="47.79307" lon="-3.6367">
        <ele>11</ele>
        <time>2018-07-18T12:24:28Z</time>
      </trkpt>
      <trkpt lat="47.79305" lon="-3.63671">
        <ele>12</ele>
        <time>2018-07-18T12:24:29Z</time>
      </trkpt>
      <trkpt lat="47.79303" lon="-3.63672">
        <ele>12</ele>
        <time>2018-07-18T12:24:30Z</time>
      </trkpt>
      <trkpt lat="47.79301" lon="-3.63673">
        <ele>12</ele>
        <time>2018-07-18T12:24:31Z</time>
      </trkpt>
      <trkpt lat="47.79299" lon="-3.63675">
        <ele>12</ele>
        <time>2018-07-18T12:24:32Z</time>
      </trkpt>
      <trkpt lat="47.79297" lon="-3.63676">
        <ele>12</ele>
        <time>2018-07-18T12:24:33Z</time>
      </trkpt>
      <trkpt lat="47.79295" lon="-3.63677">
        <ele>12</ele>
        <time>2018-07-18T12:24:34Z</time>
      </trkpt>
      <trkpt lat="47.79293" lon="-3.63679">
        <ele>12</ele>
        <time>2018-07-18T12:24:35Z</time>
      </trkpt>
      <trkpt lat="47.79291" lon="-3.63681">
        <ele>12</ele>
        <time>2018-07-18T12:24:36Z</time>
      </trkpt>
      <trkpt lat="47.79289" lon="-3.63682">
        <ele>12</ele>
        <time>2018-07-18T12:24:37Z</time>
      </trkpt>
      <trkpt lat="47.79287" lon="-3.63684">
        <ele>12</ele>
        <time>2018-07-18T12:24:38Z</time>
      </trkpt>
      <trkpt lat="47.79285" lon="-3.63685">
        <ele>12</ele>
        <time>2018-07-18T12:24:39Z</time>
      </trkpt>
      <trkpt lat="47.79282" lon="-3.63688">
        <ele>13</ele>
        <time>2018-07-18T12:24:40Z</time>
      </trkpt>
      <trkpt lat="47.7928" lon="-3.63691">
        <ele>13</ele>
        <time>2018-07-18T12:24:41Z</time>
      </trkpt>
      <trkpt lat="47.79277" lon="-3.63693">
        <ele>13</ele>
        <time>2018-07-18T12:24:42Z</time>
      </trkpt>
      <trkpt lat="47.79275" lon="-3.63695">
        <ele>13</ele>
        <time>2018-07-18T12:24:43Z</time>
      </trkpt>
      <trkpt lat="47.79273" lon="-3.63697">
        <ele>13</ele>
        <time>2018-07-18T12:24:44Z</time>
      </trkpt>
      <trkpt lat="47.79271" lon="-3.637">
        <ele>13</ele>
        <time>2018-07-18T12:24:45Z</time>
      </trkpt>
      <trkpt lat="47.79268" lon="-3.63702">
        <ele>13</ele>
        <time>2018-07-18T12:24:46Z</time>
      </trkpt>
      <trkpt lat="47.79266" lon="-3.63704">
        <ele>13</ele>
        <time>2018-07-18T12:24:47Z</time>
      </trkpt>
      <trkpt lat="47.79264" lon="-3.63706">
        <ele>14</ele>
        <time>2018-07-18T12:24:48Z</time>
      </trkpt>
      <trkpt lat="47.79262" lon="-3.63709">
        <ele>14</ele>
        <time>2018-07-18T12:24:49Z</time>
      </trkpt>
      <trkpt lat="47.7926" lon="-3.63711">
        <ele>14</ele>
        <time>2018-07-18T12:24:50Z</time>
      </trkpt>
      <trkpt lat="47.79258" lon="-3.63713">
        <ele>14</ele>
        <time>2018-07-18T12:24:51Z</time>
      </trkpt>
      <trkpt lat="47.79256" lon="-3.63715">
        <ele>14</ele>
        <time>2018-07-18T12:24:52Z</time>
      </trkpt>
      <trkpt lat="47.79254" lon="-3.63717">
        <ele>14</ele>
        <time>2018-07-18T12:24:53Z</time>
      </trkpt>
      <trkpt lat="47.79251" lon="-3.63719">
        <ele>14</ele>
        <time>2018-07-18T12:24:54Z</time>
      </trkpt>
      <trkpt lat="47.79249" lon="-3.63721">
        <ele>14</ele>
        <time>2018-07-18T12:24:55Z</time>
      </trkpt>
      <trkpt lat="47.79247" lon="-3.63723">
        <ele>14</ele>
        <time>2018-07-18T12:24:56Z</time>
      </trkpt>
      <trkpt lat="47.79244" lon="-3.63725">
        <ele>14</ele>
        <time>2018-07-18T12:24:57Z</time>
      </trkpt>
      <trkpt lat="47.79242" lon="-3.63727">
        <ele>14</ele>
        <time>2018-07-18T12:24:58Z</time>
      </trkpt>
      <trkpt lat="47.79239" lon="-3.63729">
        <ele>14</ele>
        <time>2018-07-18T12:24:59Z</time>
      </trkpt>
      <trkpt lat="47.79236" lon="-3.63731">
        <ele>14</ele>
        <time>2018-07-18T12:25:00Z</time>
      </trkpt>
      <trkpt lat="47.79233" lon="-3.63733">
        <ele>15</ele>
        <time>2018-07-18T12:25:01Z</time>
      </trkpt>
      <trkpt lat="47.7923" lon="-3.63735">
        <ele>15</ele>
        <time>2018-07-18T12:25:02Z</time>
      </trkpt>
      <trkpt lat="47.79227" lon="-3.63737">
        <ele>15</ele>
        <time>2018-07-18T12:25:03Z</time>
      </trkpt>
      <trkpt lat="47.79225" lon="-3.63739">
        <ele>15</ele>
        <time>2018-07-18T12:25:04Z</time>
      </trkpt>
      <trkpt lat="47.79222" lon="-3.63741">
        <ele>15</ele>
        <time>2018-07-18T12:25:05Z</time>
      </trkpt>
      <trkpt lat="47.79219" lon="-3.63744">
        <ele>16</ele>
        <time>2018-07-18T12:25:06Z</time>
      </trkpt>
      <trkpt lat="47.79217" lon="-3.63746">
        <ele>16</ele>
        <time>2018-07-18T12:25:07Z</time>
      </trkpt>
      <trkpt lat="47.79214" lon="-3.63748">
        <ele>16</ele>
        <time>2018-07-18T12:25:08Z</time>
      </trkpt>
      <trkpt lat="47.79211" lon="-3.63751">
        <ele>16</ele>
        <time>2018-07-18T12:25:09Z</time>
      </trkpt>
      <trkpt lat="47.79208" lon="-3.63754">
        <ele>16</ele>
        <time>2018-07-18T12:25:10Z</time>
      </trkpt>
      <trkpt lat="47.79205" lon="-3.63756">
        <ele>17</ele>
        <time>2018-07-18T12:25:11Z</time>
      </trkpt>
      <trkpt lat="47.79202" lon="-3.63758">
        <ele>17</ele>
        <time>2018-07-18T12:25:12Z</time>
      </trkpt>
      <trkpt lat="47.792" lon="-3.63761">
        <ele>17</ele>
        <time>2018-07-18T12:25:13Z</time>
      </trkpt>
      <trkpt lat="47.79197" lon="-3.63764">
        <ele>17</ele>
        <time>2018-07-18T12:25:14Z</time>
      </trkpt>
      <trkpt lat="47.79194" lon="-3.63766">
        <ele>17</ele>
        <time>2018-07-18T12:25:15Z</time>
      </trkpt>
      <trkpt lat="47.79191" lon="-3.63769">
        <ele>17</ele>
        <time>2018-07-18T12:25:16Z</time>
      </trkpt>
      <trkpt lat="47.79188" lon="-3.63771">
        <ele>18</ele>
        <time>2018-07-18T12:25:17Z</time>
      </trkpt>
      <trkpt lat="47.79184" lon="-3.63773">
        <ele>18</ele>
        <time>2018-07-18T12:25:18Z</time>
      </trkpt>
      <trkpt lat="47.79181" lon="-3.63776">
        <ele>18</ele>
        <time>2018-07-18T12:25:19Z</time>
      </trkpt>
      <trkpt lat="47.79178" lon="-3.63779">
        <ele>18</ele>
        <time>2018-07-18T12:25:20Z</time>
      </trkpt>
      <trkpt lat="47.79175" lon="-3.63781">
        <ele>18</ele>
        <time>2018-07-18T12:25:21Z</time>
      </trkpt>
      <trkpt lat="47.79172" lon="-3.63784">
        <ele>18</ele>
        <time>2018-07-18T12:25:22Z</time>
      </trkpt>
      <trkpt lat="47.79169" lon="-3.63786">
        <ele>18</ele>
        <time>2018-07-18T12:25:23Z</time>
      </trkpt>
      <trkpt lat="47.79165" lon="-3.63789">
        <ele>19</ele>
        <time>2018-07-18T12:25:24Z</time>
      </trkpt>
      <trkpt lat="47.79162" lon="-3.63792">
        <ele>19</ele>
        <time>2018-07-18T12:25:25Z</time>
      </trkpt>
      <trkpt lat="47.79159" lon="-3.63794">
        <ele>19</ele>
        <time>2018-07-18T12:25:26Z</time>
      </trkpt>
      <trkpt lat="47.79155" lon="-3.63796">
        <ele>19</ele>
        <time>2018-07-18T12:25:27Z</time>
      </trkpt>
      <trkpt lat="47.79152" lon="-3.63798">
        <ele>19</ele>
        <time>2018-07-18T12:25:28Z</time>
      </trkpt>
      <trkpt lat="47.79149" lon="-3.638">
        <ele>19</ele>
        <time>2018-07-18T12:25:29Z</time>
      </trkpt>
      <trkpt lat="47.79146" lon="-3.63802">
        <ele>19</ele>
        <time>2018-07-18T12:25:30Z</time>
      </trkpt>
      <trkpt lat="47.79143" lon="-3.63804">
        <ele>20</ele>
        <time>2018-07-18T12:25:31Z</time>
      </trkpt>
      <trkpt lat="47.79139" lon="-3.63806">
        <ele>20</ele>
        <time>2018-07-18T12:25:32Z</time>
      </trkpt>
      <trkpt lat="47.79136" lon="-3.63808">
        <ele>20</ele>
        <time>2018-07-18T12:25:33Z</time>
      </trkpt>
      <trkpt lat="47.79132" lon="-3.6381">
        <ele>20</ele>
        <time>2018-07-18T12:25:34Z</time>
      </trkpt>
      <trkpt lat="47.79127" lon="-3.63812">
        <ele>20</ele>
        <time>2018-07-18T12:25:35Z</time>
      </trkpt>
      <trkpt lat="47.79122" lon="-3.63813">
        <ele>20</ele>
        <time>2018-07-18T12:25:36Z</time>
      </trkpt>
      <trkpt lat="47.79116" lon="-3.63814">
        <ele>19</ele>
        <time>2018-07-18T12:25:37Z</time>
      </trkpt>
      <trkpt lat="47.7911" lon="-3.63815">
        <ele>19</ele>
        <time>2018-07-18T12:25:38Z</time>
      </trkpt>
      <trkpt lat="47.79104" lon="-3.63816">
        <ele>19</ele>
        <time>2018-07-18T12:25:39Z</time>
      </trkpt>
      <trkpt lat="47.79097" lon="-3.63816">
        <ele>19</ele>
        <time>2018-07-18T12:25:40Z</time>
      </trkpt>
      <trkpt lat="47.7909" lon="-3.63815">
        <ele>19</ele>
        <time>2018-07-18T12:25:41Z</time>
      </trkpt>
      <trkpt lat="47.79082" lon="-3.63815">
        <ele>18</ele>
        <time>2018-07-18T12:25:42Z</time>
      </trkpt>
      <trkpt lat="47.79075" lon="-3.63815">
        <ele>18</ele>
        <time>2018-07-18T12:25:43Z</time>
      </trkpt>
      <trkpt lat="47.79067" lon="-3.63814">
        <ele>18</ele>
        <time>2018-07-18T12:25:44Z</time>
      </trkpt>
      <trkpt lat="47.79059" lon="-3.63814">
        <ele>18</ele>
        <time>2018-07-18T12:25:45Z</time>
      </trkpt>
      <trkpt lat="47.79051" lon="-3.63813">
        <ele>17</ele>
        <time>2018-07-18T12:25:46Z</time>
      </trkpt>
      <trkpt lat="47.79043" lon="-3.63811">
        <ele>17</ele>
        <time>2018-07-18T12:25:47Z</time>
      </trkpt>
      <trkpt lat="47.79036" lon="-3.63807">
        <ele>17</ele>
        <time>2018-07-18T12:25:48Z</time>
      </trkpt>
      <trkpt lat="47.79029" lon="-3.63803">
        <ele>17</ele>
        <time>2018-07-18T12:25:49Z</time>
      </trkpt>
      <trkpt lat="47.79023" lon="-3.63796">
        <ele>17</ele>
        <time>2018-07-18T12:25:50Z</time>
      </trkpt>
      <trkpt lat="47.79017" lon="-3.6379">
        <ele>17</ele>
        <time>2018-07-18T12:25:51Z</time>
      </trkpt>
      <trkpt lat="47.79012" lon="-3.63783">
        <ele>17</ele>
        <time>2018-07-18T12:25:52Z</time>
      </trkpt>
      <trkpt lat="47.79008" lon="-3.63776">
        <ele>17</ele>
        <time>2018-07-18T12:25:53Z</time>
      </trkpt>
      <trkpt lat="47.79004" lon="-3.6377">
        <ele>18</ele>
        <time>2018-07-18T12:25:54Z</time>
      </trkpt>
      <trkpt lat="47.79002" lon="-3.63763">
        <ele>18</ele>
        <time>2018-07-18T12:25:55Z</time>
      </trkpt>
      <trkpt lat="47.79" lon="-3.63756">
        <ele>18</ele>
        <time>2018-07-18T12:25:56Z</time>
      </trkpt>
      <trkpt lat="47.79" lon="-3.63749">
        <ele>18</ele>
        <time>2018-07-18T12:25:57Z</time>
      </trkpt>
      <trkpt lat="47.78999" lon="-3.63743">
        <ele>19</ele>
        <time>2018-07-18T12:25:58Z</time>
      </trkpt>
      <trkpt lat="47.78998" lon="-3.63736">
        <ele>19</ele>
        <time>2018-07-18T12:25:59Z</time>
      </trkpt>
      <trkpt lat="47.78997" lon="-3.6373">
        <ele>19</ele>
        <time>2018-07-18T12:26:00Z</time>
      </trkpt>
      <trkpt lat="47.78996" lon="-3.63724">
        <ele>19</ele>
        <time>2018-07-18T12:26:01Z</time>
      </trkpt>
      <trkpt lat="47.78995" lon="-3.63717">
        <ele>19</ele>
        <time>2018-07-18T12:26:02Z</time>
      </trkpt>
      <trkpt lat="47.78994" lon="-3.63711">
        <ele>19</ele>
        <time>2018-07-18T12:26:03Z</time>
      </trkpt>
      <trkpt lat="47.78993" lon="-3.63706">
        <ele>19</ele>
        <time>2018-07-18T12:26:04Z</time>
      </trkpt>
      <trkpt lat="47.78991" lon="-3.63701">
        <ele>19</ele>
        <time>2018-07-18T12:26:05Z</time>
      </trkpt>
      <trkpt lat="47.78987" lon="-3.63697">
        <ele>19</ele>
        <time>2018-07-18T12:26:06Z</time>
      </trkpt>
      <trkpt lat="47.78983" lon="-3.63693">
        <ele>19</ele>
        <time>2018-07-18T12:26:07Z</time>
      </trkpt>
      <trkpt lat="47.78977" lon="-3.63691">
        <ele>19</ele>
        <time>2018-07-18T12:26:08Z</time>
      </trkpt>
      <trkpt lat="47.78972" lon="-3.63689">
        <ele>19</ele>
        <time>2018-07-18T12:26:09Z</time>
      </trkpt>
      <trkpt lat="47.78967" lon="-3.63689">
        <ele>19</ele>
        <time>2018-07-18T12:26:10Z</time>
      </trkpt>
      <trkpt lat="47.78962" lon="-3.63689">
        <ele>19</ele>
        <time>2018-07-18T12:26:11Z</time>
      </trkpt>
      <trkpt lat="47.78957" lon="-3.63691">
        <ele>19</ele>
        <time>2018-07-18T12:26:12Z</time>
      </trkpt>
      <trkpt lat="47.78953" lon="-3.63692">
        <ele>19</ele>
        <time>2018-07-18T12:26:13Z</time>
      </trkpt>
      <trkpt lat="47.78948" lon="-3.63693">
        <ele>19</ele>
        <time>2018-07-18T12:26:14Z</time>
      </trkpt>
      <trkpt lat="47.78944" lon="-3.63693">
        <ele>19</ele>
        <time>2018-07-18T12:26:15Z</time>
      </trkpt>
      <trkpt lat="47.78939" lon="-3.63693">
        <ele>19</ele>
        <time>2018-07-18T12:26:16Z</time>
      </trkpt>
      <trkpt lat="47.78935" lon="-3.63693">
        <ele>19</ele>
        <time>2018-07-18T12:26:17Z</time>
      </trkpt>
      <trkpt lat="47.78932" lon="-3.63693">
        <ele>19</ele>
        <time>2018-07-18T12:26:18Z</time>
      </trkpt>
      <trkpt lat="47.78928" lon="-3.63692">
        <ele>19</ele>
        <time>2018-07-18T12:26:19Z</time>
      </trkpt>
      <trkpt lat="47.78924" lon="-3.63691">
        <ele>19</ele>
        <time>2018-07-18T12:26:20Z</time>
      </trkpt>
      <trkpt lat="47.7892" lon="-3.63691">
        <ele>19</ele>
        <time>2018-07-18T12:26:21Z</time>
      </trkpt>
      <trkpt lat="47.78916" lon="-3.63691">
        <ele>19</ele>
        <time>2018-07-18T12:26:22Z</time>
      </trkpt>
      <trkpt lat="47.78912" lon="-3.6369">
        <ele>19</ele>
        <time>2018-07-18T12:26:23Z</time>
      </trkpt>
      <trkpt lat="47.78908" lon="-3.63689">
        <ele>19</ele>
        <time>2018-07-18T12:26:24Z</time>
      </trkpt>
      <trkpt lat="47.78905" lon="-3.63689">
        <ele>19</ele>
        <time>2018-07-18T12:26:25Z</time>
      </trkpt>
      <trkpt lat="47.78901" lon="-3.63689">
        <ele>19</ele>
        <time>2018-07-18T12:26:26Z</time>
      </trkpt>
      <trkpt lat="47.78897" lon="-3.63688">
        <ele>19</ele>
        <time>2018-07-18T12:26:27Z</time>
      </trkpt>
      <trkpt lat="47.78893" lon="-3.63686">
        <ele>19</ele>
        <time>2018-07-18T12:26:28Z</time>
      </trkpt>
      <trkpt lat="47.7889" lon="-3.63684">
        <ele>19</ele>
        <time>2018-07-18T12:26:29Z</time>
      </trkpt>
      <trkpt lat="47.78887" lon="-3.6368">
        <ele>19</ele>
        <time>2018-07-18T12:26:30Z</time>
      </trkpt>
      <trkpt lat="47.78884" lon="-3.63675">
        <ele>19</ele>
        <time>2018-07-18T12:26:31Z</time>
      </trkpt>
      <trkpt lat="47.78882" lon="-3.63671">
        <ele>19</ele>
        <time>2018-07-18T12:26:32Z</time>
      </trkpt>
      <trkpt lat="47.78881" lon="-3.63665">
        <ele>19</ele>
        <time>2018-07-18T12:26:33Z</time>
      </trkpt>
      <trkpt lat="47.7888" lon="-3.6366">
        <ele>19</ele>
        <time>2018-07-18T12:26:34Z</time>
      </trkpt>
      <trkpt lat="47.78879" lon="-3.63654">
        <ele>19</ele>
        <time>2018-07-18T12:26:35Z</time>
      </trkpt>
      <trkpt lat="47.78879" lon="-3.63648">
        <ele>19</ele>
        <time>2018-07-18T12:26:36Z</time>
      </trkpt>
      <trkpt lat="47.78878" lon="-3.63642">
        <ele>19</ele>
        <time>2018-07-18T12:26:37Z</time>
      </trkpt>
      <trkpt lat="47.78878" lon="-3.63636">
        <ele>19</ele>
        <time>2018-07-18T12:26:38Z</time>
      </trkpt>
      <trkpt lat="47.78879" lon="-3.6363">
        <ele>20</ele>
        <time>2018-07-18T12:26:39Z</time>
      </trkpt>
      <trkpt lat="47.7888" lon="-3.63624">
        <ele>20</ele>
        <time>2018-07-18T12:26:40Z</time>
      </trkpt>
      <trkpt lat="47.78882" lon="-3.63617">
        <ele>20</ele>
        <time>2018-07-18T12:26:41Z</time>
      </trkpt>
      <trkpt lat="47.78883" lon="-3.63611">
        <ele>20</ele>
        <time>2018-07-18T12:26:42Z</time>
      </trkpt>
      <trkpt lat="47.78884" lon="-3.63605">
        <ele>21</ele>
        <time>2018-07-18T12:26:43Z</time>
      </trkpt>
      <trkpt lat="47.78885" lon="-3.63598">
        <ele>21</ele>
        <time>2018-07-18T12:26:44Z</time>
      </trkpt>
      <trkpt lat="47.78887" lon="-3.63592">
        <ele>21</ele>
        <time>2018-07-18T12:26:45Z</time>
      </trkpt>
      <trkpt lat="47.78889" lon="-3.63586">
        <ele>21</ele>
        <time>2018-07-18T12:26:46Z</time>
      </trkpt>
      <trkpt lat="47.78891" lon="-3.6358">
        <ele>21</ele>
        <time>2018-07-18T12:26:47Z</time>
      </trkpt>
      <trkpt lat="47.78892" lon="-3.63574">
        <ele>22</ele>
        <time>2018-07-18T12:26:48Z</time>
      </trkpt>
      <trkpt lat="47.78894" lon="-3.63568">
        <ele>22</ele>
        <time>2018-07-18T12:26:49Z</time>
      </trkpt>
      <trkpt lat="47.78894" lon="-3.63563">
        <ele>22</ele>
        <time>2018-07-18T12:26:50Z</time>
      </trkpt>
      <trkpt lat="47.78892" lon="-3.63557">
        <ele>22</ele>
        <time>2018-07-18T12:26:51Z</time>
      </trkpt>
      <trkpt lat="47.7889" lon="-3.63554">
        <ele>22</ele>
        <time>2018-07-18T12:26:52Z</time>
      </trkpt>
      <trkpt lat="47.78887" lon="-3.63553">
        <ele>23</ele>
        <time>2018-07-18T12:26:53Z</time>
      </trkpt>
      <trkpt lat="47.78884" lon="-3.63554">
        <ele>23</ele>
        <time>2018-07-18T12:26:54Z</time>
      </trkpt>
      <trkpt lat="47.7888" lon="-3.63555">
        <ele>23</ele>
        <time>2018-07-18T12:26:55Z</time>
      </trkpt>
      <trkpt lat="47.78877" lon="-3.63557">
        <ele>23</ele>
        <time>2018-07-18T12:26:56Z</time>
      </trkpt>
      <trkpt lat="47.78874" lon="-3.6356">
        <ele>23</ele>
        <time>2018-07-18T12:26:57Z</time>
      </trkpt>
      <trkpt lat="47.7887" lon="-3.63564">
        <ele>24</ele>
        <time>2018-07-18T12:26:58Z</time>
      </trkpt>
      <trkpt lat="47.78867" lon="-3.63567">
        <ele>24</ele>
        <time>2018-07-18T12:26:59Z</time>
      </trkpt>
      <trkpt lat="47.78864" lon="-3.63571">
        <ele>24</ele>
        <time>2018-07-18T12:27:00Z</time>
      </trkpt>
      <trkpt lat="47.7886" lon="-3.63575">
        <ele>24</ele>
        <time>2018-07-18T12:27:01Z</time>
      </trkpt>
      <trkpt lat="47.78856" lon="-3.63579">
        <ele>24</ele>
        <time>2018-07-18T12:27:02Z</time>
      </trkpt>
      <trkpt lat="47.78853" lon="-3.63582">
        <ele>24</ele>
        <time>2018-07-18T12:27:03Z</time>
      </trkpt>
      <trkpt lat="47.78849" lon="-3.63585">
        <ele>24</ele>
        <time>2018-07-18T12:27:04Z</time>
      </trkpt>
      <trkpt lat="47.78846" lon="-3.63586">
        <ele>24</ele>
        <time>2018-07-18T12:27:05Z</time>
      </trkpt>
      <trkpt lat="47.78842" lon="-3.63589">
        <ele>24</ele>
        <time>2018-07-18T12:27:06Z</time>
      </trkpt>
      <trkpt lat="47.78839" lon="-3.63592">
        <ele>25</ele>
        <time>2018-07-18T12:27:07Z</time>
      </trkpt>
      <trkpt lat="47.78836" lon="-3.63594">
        <ele>25</ele>
        <time>2018-07-18T12:27:08Z</time>
      </trkpt>
      <trkpt lat="47.78833" lon="-3.63596">
        <ele>25</ele>
        <time>2018-07-18T12:27:09Z</time>
      </trkpt>
      <trkpt lat="47.7883" lon="-3.63597">
        <ele>25</ele>
        <time>2018-07-18T12:27:10Z</time>
      </trkpt>
      <trkpt lat="47.78829" lon="-3.63597">
        <ele>25</ele>
        <time>2018-07-18T12:27:11Z</time>
      </trkpt>
      <trkpt lat="47.78827" lon="-3.63596">
        <ele>25</ele>
        <time>2018-07-18T12:27:12Z</time>
      </trkpt>
      <trkpt lat="47.78824" lon="-3.63596">
        <ele>25</ele>
        <time>2018-07-18T12:27:13Z</time>
      </trkpt>
      <trkpt lat="47.78822" lon="-3.63596">
        <ele>25</ele>
        <time>2018-07-18T12:27:14Z</time>
      </trkpt>
      <trkpt lat="47.78821" lon="-3.63597">
        <ele>26</ele>
        <time>2018-07-18T12:27:15Z</time>
      </trkpt>
      <trkpt lat="47.7882" lon="-3.63597">
        <ele>26</ele>
        <time>2018-07-18T12:27:16Z</time>
      </trkpt>
      <trkpt lat="47.7882" lon="-3.63597">
        <ele>26</ele>
        <time>2018-07-18T12:27:17Z</time>
      </trkpt>
      <trkpt lat="47.7882" lon="-3.63597">
        <ele>26</ele>
        <time>2018-07-18T12:27:18Z</time>
      </trkpt>
      <trkpt lat="47.7882" lon="-3.63597">
        <ele>26</ele>
        <time>2018-07-18T12:27:19Z</time>
      </trkpt>
      <trkpt lat="47.78822" lon="-3.63597">
        <ele>25</ele>
        <time>2018-07-18T12:27:20Z</time>
      </trkpt>
      <trkpt lat="47.78823" lon="-3.63597">
        <ele>25</ele>
        <time>2018-07-18T12:27:21Z</time>
      </trkpt>
      <trkpt lat="47.78825" lon="-3.63597">
        <ele>25</ele>
        <time>2018-07-18T12:27:22Z</time>
      </trkpt>
      <trkpt lat="47.78828" lon="-3.63597">
        <ele>24</ele>
        <time>2018-07-18T12:27:23Z</time>
      </trkpt>
      <trkpt lat="47.78832" lon="-3.63596">
        <ele>24</ele>
        <time>2018-07-18T12:27:24Z</time>
      </trkpt>
      <trkpt lat="47.78835" lon="-3.63594">
        <ele>24</ele>
        <time>2018-07-18T12:27:25Z</time>
      </trkpt>
      <trkpt lat="47.78838" lon="-3.63591">
        <ele>23</ele>
        <time>2018-07-18T12:27:26Z</time>
      </trkpt>
      <trkpt lat="47.78842" lon="-3.63588">
        <ele>23</ele>
        <time>2018-07-18T12:27:27Z</time>
      </trkpt>
      <trkpt lat="47.78846" lon="-3.63586">
        <ele>23</ele>
        <time>2018-07-18T12:27:28Z</time>
      </trkpt>
      <trkpt lat="47.7885" lon="-3.63583">
        <ele>23</ele>
        <time>2018-07-18T12:27:29Z</time>
      </trkpt>
      <trkpt lat="47.78854" lon="-3.63579">
        <ele>22</ele>
        <time>2018-07-18T12:27:30Z</time>
      </trkpt>
      <trkpt lat="47.78858" lon="-3.63574">
        <ele>22</ele>
        <time>2018-07-18T12:27:31Z</time>
      </trkpt>
      <trkpt lat="47.78862" lon="-3.63569">
        <ele>22</ele>
        <time>2018-07-18T12:27:32Z</time>
      </trkpt>
      <trkpt lat="47.78866" lon="-3.63565">
        <ele>22</ele>
        <time>2018-07-18T12:27:33Z</time>
      </trkpt>
      <trkpt lat="47.7887" lon="-3.63561">
        <ele>21</ele>
        <time>2018-07-18T12:27:34Z</time>
      </trkpt>
      <trkpt lat="47.78875" lon="-3.63558">
        <ele>21</ele>
        <time>2018-07-18T12:27:35Z</time>
      </trkpt>
      <trkpt lat="47.7888" lon="-3.63555">
        <ele>21</ele>
        <time>2018-07-18T12:27:36Z</time>
      </trkpt>
      <trkpt lat="47.78884" lon="-3.63553">
        <ele>21</ele>
        <time>2018-07-18T12:27:37Z</time>
      </trkpt>
      <trkpt lat="47.78889" lon="-3.6355">
        <ele>21</ele>
        <time>2018-07-18T12:27:38Z</time>
      </trkpt>
      <trkpt lat="47.78893" lon="-3.63547">
        <ele>21</ele>
        <time>2018-07-18T12:27:39Z</time>
      </trkpt>
      <trkpt lat="47.78896" lon="-3.63542">
        <ele>20</ele>
        <time>2018-07-18T12:27:40Z</time>
      </trkpt>
      <trkpt lat="47.78899" lon="-3.63537">
        <ele>20</ele>
        <time>2018-07-18T12:27:41Z</time>
      </trkpt>
      <trkpt lat="47.78901" lon="-3.63532">
        <ele>20</ele>
        <time>2018-07-18T12:27:42Z</time>
      </trkpt>
      <trkpt lat="47.78903" lon="-3.63527">
        <ele>20</ele>
        <time>2018-07-18T12:27:43Z</time>
      </trkpt>
      <trkpt lat="47.78905" lon="-3.63521">
        <ele>20</ele>
        <time>2018-07-18T12:27:44Z</time>
      </trkpt>
      <trkpt lat="47.78907" lon="-3.63517">
        <ele>20</ele>
        <time>2018-07-18T12:27:45Z</time>
      </trkpt>
      <trkpt lat="47.78908" lon="-3.63511">
        <ele>20</ele>
        <time>2018-07-18T12:27:46Z</time>
      </trkpt>
      <trkpt lat="47.78911" lon="-3.63507">
        <ele>20</ele>
        <time>2018-07-18T12:27:47Z</time>
      </trkpt>
      <trkpt lat="47.78912" lon="-3.63502">
        <ele>20</ele>
        <time>2018-07-18T12:27:48Z</time>
      </trkpt>
      <trkpt lat="47.78914" lon="-3.63497">
        <ele>20</ele>
        <time>2018-07-18T12:27:49Z</time>
      </trkpt>
      <trkpt lat="47.78916" lon="-3.63492">
        <ele>20</ele>
        <time>2018-07-18T12:27:50Z</time>
      </trkpt>
      <trkpt lat="47.78917" lon="-3.63486">
        <ele>20</ele>
        <time>2018-07-18T12:27:51Z</time>
      </trkpt>
      <trkpt lat="47.78916" lon="-3.63481">
        <ele>20</ele>
        <time>2018-07-18T12:27:52Z</time>
      </trkpt>
      <trkpt lat="47.78915" lon="-3.63476">
        <ele>20</ele>
        <time>2018-07-18T12:27:53Z</time>
      </trkpt>
      <trkpt lat="47.78913" lon="-3.63471">
        <ele>20</ele>
        <time>2018-07-18T12:27:54Z</time>
      </trkpt>
      <trkpt lat="47.78911" lon="-3.63467">
        <ele>20</ele>
        <time>2018-07-18T12:27:55Z</time>
      </trkpt>
      <trkpt lat="47.78908" lon="-3.63462">
        <ele>20</ele>
        <time>2018-07-18T12:27:56Z</time>
      </trkpt>
      <trkpt lat="47.78906" lon="-3.63458">
        <ele>20</ele>
        <time>2018-07-18T12:27:57Z</time>
      </trkpt>
      <trkpt lat="47.78904" lon="-3.63453">
        <ele>20</ele>
        <time>2018-07-18T12:27:58Z</time>
      </trkpt>
      <trkpt lat="47.78902" lon="-3.63448">
        <ele>20</ele>
        <time>2018-07-18T12:27:59Z</time>
      </trkpt>
      <trkpt lat="47.789" lon="-3.63443">
        <ele>21</ele>
        <time>2018-07-18T12:28:00Z</time>
      </trkpt>
      <trkpt lat="47.78898" lon="-3.63439">
        <ele>21</ele>
        <time>2018-07-18T12:28:01Z</time>
      </trkpt>
      <trkpt lat="47.78895" lon="-3.63434">
        <ele>21</ele>
        <time>2018-07-18T12:28:02Z</time>
      </trkpt>
      <trkpt lat="47.78893" lon="-3.63431">
        <ele>21</ele>
        <time>2018-07-18T12:28:03Z</time>
      </trkpt>
      <trkpt lat="47.7889" lon="-3.63427">
        <ele>21</ele>
        <time>2018-07-18T12:28:04Z</time>
      </trkpt>
      <trkpt lat="47.78888" lon="-3.63424">
        <ele>21</ele>
        <time>2018-07-18T12:28:05Z</time>
      </trkpt>
      <trkpt lat="47.78885" lon="-3.63423">
        <ele>21</ele>
        <time>2018-07-18T12:28:06Z</time>
      </trkpt>
      <trkpt lat="47.78882" lon="-3.63422">
        <ele>21</ele>
        <time>2018-07-18T12:28:07Z</time>
      </trkpt>
      <trkpt lat="47.78878" lon="-3.63421">
        <ele>22</ele>
        <time>2018-07-18T12:28:08Z</time>
      </trkpt>
      <trkpt lat="47.78875" lon="-3.63419">
        <ele>22</ele>
        <time>2018-07-18T12:28:09Z</time>
      </trkpt>
      <trkpt lat="47.78872" lon="-3.63418">
        <ele>22</ele>
        <time>2018-07-18T12:28:10Z</time>
      </trkpt>
      <trkpt lat="47.78869" lon="-3.63417">
        <ele>23</ele>
        <time>2018-07-18T12:28:11Z</time>
      </trkpt>
      <trkpt lat="47.78866" lon="-3.63416">
        <ele>23</ele>
        <time>2018-07-18T12:28:12Z</time>
      </trkpt>
      <trkpt lat="47.78864" lon="-3.63415">
        <ele>23</ele>
        <time>2018-07-18T12:28:13Z</time>
      </trkpt>
      <trkpt lat="47.78862" lon="-3.63414">
        <ele>24</ele>
        <time>2018-07-18T12:28:14Z</time>
      </trkpt>
      <trkpt lat="47.78862" lon="-3.63414">
        <ele>24</ele>
        <time>2018-07-18T12:28:15Z</time>
      </trkpt>
      <trkpt lat="47.78861" lon="-3.63413">
        <ele>24</ele>
        <time>2018-07-18T12:28:16Z</time>
      </trkpt>
      <trkpt lat="47.78861" lon="-3.63413">
        <ele>24</ele>
        <time>2018-07-18T12:28:17Z</time>
      </trkpt>
      <trkpt lat="47.78861" lon="-3.63413">
        <ele>25</ele>
        <time>2018-07-18T12:28:18Z</time>
      </trkpt>
      <trkpt lat="47.78861" lon="-3.63413">
        <ele>25</ele>
        <time>2018-07-18T12:28:19Z</time>
      </trkpt>
      <trkpt lat="47.78859" lon="-3.63411">
        <ele>27</ele>
        <time>2018-07-18T12:28:20Z</time>
      </trkpt>
      <trkpt lat="47.78858" lon="-3.6341">
        <ele>27</ele>
        <time>2018-07-18T12:28:21Z</time>
      </trkpt>
      <trkpt lat="47.78857" lon="-3.63409">
        <ele>27</ele>
        <time>2018-07-18T12:28:22Z</time>
      </trkpt>
      <trkpt lat="47.78857" lon="-3.63407">
        <ele>27</ele>
        <time>2018-07-18T12:28:23Z</time>
      </trkpt>
      <trkpt lat="47.78856" lon="-3.63405">
        <ele>27</ele>
        <time>2018-07-18T12:28:24Z</time>
      </trkpt>
      <trkpt lat="47.78855" lon="-3.63402">
        <ele>27</ele>
        <time>2018-07-18T12:28:25Z</time>
      </trkpt>
      <trkpt lat="47.78855" lon="-3.634">
        <ele>27</ele>
        <time>2018-07-18T12:28:26Z</time>
      </trkpt>
      <trkpt lat="47.78854" lon="-3.63397">
        <ele>27</ele>
        <time>2018-07-18T12:28:27Z</time>
      </trkpt>
      <trkpt lat="47.78853" lon="-3.63393">
        <ele>27</ele>
        <time>2018-07-18T12:28:28Z</time>
      </trkpt>
      <trkpt lat="47.78852" lon="-3.63389">
        <ele>27</ele>
        <time>2018-07-18T12:28:29Z</time>
      </trkpt>
      <trkpt lat="47.78852" lon="-3.63385">
        <ele>27</ele>
        <time>2018-07-18T12:28:30Z</time>
      </trkpt>
      <trkpt lat="47.78851" lon="-3.63382">
        <ele>27</ele>
        <time>2018-07-18T12:28:31Z</time>
      </trkpt>
      <trkpt lat="47.78851" lon="-3.63378">
        <ele>27</ele>
        <time>2018-07-18T12:28:32Z</time>
      </trkpt>
      <trkpt lat="47.7885" lon="-3.63373">
        <ele>27</ele>
        <time>2018-07-18T12:28:33Z</time>
      </trkpt>
      <trkpt lat="47.7885" lon="-3.6337">
        <ele>27</ele>
        <time>2018-07-18T12:28:34Z</time>
      </trkpt>
      <trkpt lat="47.78849" lon="-3.63365">
        <ele>27</ele>
        <time>2018-07-18T12:28:35Z</time>
      </trkpt>
      <trkpt lat="47.78848" lon="-3.6336">
        <ele>27</ele>
        <time>2018-07-18T12:28:36Z</time>
      </trkpt>
      <trkpt lat="47.78846" lon="-3.63356">
        <ele>27</ele>
        <time>2018-07-18T12:28:37Z</time>
      </trkpt>
      <trkpt lat="47.78845" lon="-3.63352">
        <ele>26</ele>
        <time>2018-07-18T12:28:38Z</time>
      </trkpt>
      <trkpt lat="47.78844" lon="-3.63348">
        <ele>26</ele>
        <time>2018-07-18T12:28:39Z</time>
      </trkpt>
      <trkpt lat="47.78844" lon="-3.63344">
        <ele>26</ele>
        <time>2018-07-18T12:28:40Z</time>
      </trkpt>
      <trkpt lat="47.78845" lon="-3.63339">
        <ele>26</ele>
        <time>2018-07-18T12:28:41Z</time>
      </trkpt>
      <trkpt lat="47.78845" lon="-3.63333">
        <ele>27</ele>
        <time>2018-07-18T12:28:42Z</time>
      </trkpt>
      <trkpt lat="47.78846" lon="-3.63326">
        <ele>27</ele>
        <time>2018-07-18T12:28:43Z</time>
      </trkpt>
      <trkpt lat="47.78846" lon="-3.63319">
        <ele>27</ele>
        <time>2018-07-18T12:28:44Z</time>
      </trkpt>
      <trkpt lat="47.78846" lon="-3.63311">
        <ele>28</ele>
        <time>2018-07-18T12:28:45Z</time>
      </trkpt>
      <trkpt lat="47.78844" lon="-3.63304">
        <ele>28</ele>
        <time>2018-07-18T12:28:46Z</time>
      </trkpt>
      <trkpt lat="47.78842" lon="-3.63298">
        <ele>28</ele>
        <time>2018-07-18T12:28:47Z</time>
      </trkpt>
      <trkpt lat="47.7884" lon="-3.63293">
        <ele>28</ele>
        <time>2018-07-18T12:28:48Z</time>
      </trkpt>
      <trkpt lat="47.78836" lon="-3.6329">
        <ele>29</ele>
        <time>2018-07-18T12:28:49Z</time>
      </trkpt>
      <trkpt lat="47.78832" lon="-3.63289">
        <ele>29</ele>
        <time>2018-07-18T12:28:50Z</time>
      </trkpt>
      <trkpt lat="47.78827" lon="-3.63288">
        <ele>29</ele>
        <time>2018-07-18T12:28:51Z</time>
      </trkpt>
      <trkpt lat="47.78823" lon="-3.63287">
        <ele>29</ele>
        <time>2018-07-18T12:28:52Z</time>
      </trkpt>
      <trkpt lat="47.78818" lon="-3.63286">
        <ele>29</ele>
        <time>2018-07-18T12:28:53Z</time>
      </trkpt>
      <trkpt lat="47.78813" lon="-3.63284">
        <ele>29</ele>
        <time>2018-07-18T12:28:54Z</time>
      </trkpt>
      <trkpt lat="47.78808" lon="-3.63283">
        <ele>29</ele>
        <time>2018-07-18T12:28:55Z</time>
      </trkpt>
      <trkpt lat="47.78803" lon="-3.63282">
        <ele>29</ele>
        <time>2018-07-18T12:28:56Z</time>
      </trkpt>
      <trkpt lat="47.78799" lon="-3.63281">
        <ele>29</ele>
        <time>2018-07-18T12:28:57Z</time>
      </trkpt>
      <trkpt lat="47.78793" lon="-3.6328">
        <ele>29</ele>
        <time>2018-07-18T12:28:58Z</time>
      </trkpt>
      <trkpt lat="47.78789" lon="-3.63279">
        <ele>29</ele>
        <time>2018-07-18T12:28:59Z</time>
      </trkpt>
      <trkpt lat="47.78783" lon="-3.63278">
        <ele>29</ele>
        <time>2018-07-18T12:29:00Z</time>
      </trkpt>
      <trkpt lat="47.78779" lon="-3.63278">
        <ele>29</ele>
        <time>2018-07-18T12:29:01Z</time>
      </trkpt>
      <trkpt lat="47.78774" lon="-3.63277">
        <ele>29</ele>
        <time>2018-07-18T12:29:02Z</time>
      </trkpt>
      <trkpt lat="47.7877" lon="-3.63275">
        <ele>29</ele>
        <time>2018-07-18T12:29:03Z</time>
      </trkpt>
      <trkpt lat="47.78766" lon="-3.63273">
        <ele>29</ele>
        <time>2018-07-18T12:29:04Z</time>
      </trkpt>
      <trkpt lat="47.78762" lon="-3.63269">
        <ele>29</ele>
        <time>2018-07-18T12:29:05Z</time>
      </trkpt>
      <trkpt lat="47.7876" lon="-3.63264">
        <ele>29</ele>
        <time>2018-07-18T12:29:06Z</time>
      </trkpt>
      <trkpt lat="47.78758" lon="-3.63258">
        <ele>29</ele>
        <time>2018-07-18T12:29:07Z</time>
      </trkpt>
      <trkpt lat="47.78756" lon="-3.63251">
        <ele>29</ele>
        <time>2018-07-18T12:29:08Z</time>
      </trkpt>
      <trkpt lat="47.78755" lon="-3.63244">
        <ele>29</ele>
        <time>2018-07-18T12:29:09Z</time>
      </trkpt>
      <trkpt lat="47.78754" lon="-3.63237">
        <ele>29</ele>
        <time>2018-07-18T12:29:10Z</time>
      </trkpt>
      <trkpt lat="47.78753" lon="-3.6323">
        <ele>29</ele>
        <time>2018-07-18T12:29:11Z</time>
      </trkpt>
      <trkpt lat="47.78752" lon="-3.63222">
        <ele>29</ele>
        <time>2018-07-18T12:29:12Z</time>
      </trkpt>
      <trkpt lat="47.78751" lon="-3.63215">
        <ele>29</ele>
        <time>2018-07-18T12:29:13Z</time>
      </trkpt>
      <trkpt lat="47.78749" lon="-3.63208">
        <ele>29</ele>
        <time>2018-07-18T12:29:14Z</time>
      </trkpt>
      <trkpt lat="47.78747" lon="-3.63201">
        <ele>29</ele>
        <time>2018-07-18T12:29:15Z</time>
      </trkpt>
      <trkpt lat="47.78745" lon="-3.63196">
        <ele>29</ele>
        <time>2018-07-18T12:29:16Z</time>
      </trkpt>
      <trkpt lat="47.78743" lon="-3.63191">
        <ele>29</ele>
        <time>2018-07-18T12:29:17Z</time>
      </trkpt>
      <trkpt lat="47.7874" lon="-3.63188">
        <ele>29</ele>
        <time>2018-07-18T12:29:18Z</time>
      </trkpt>
      <trkpt lat="47.78735" lon="-3.63187">
        <ele>29</ele>
        <time>2018-07-18T12:29:19Z</time>
      </trkpt>
      <trkpt lat="47.78731" lon="-3.63189">
        <ele>29</ele>
        <time>2018-07-18T12:29:20Z</time>
      </trkpt>
      <trkpt lat="47.78725" lon="-3.63191">
        <ele>30</ele>
        <time>2018-07-18T12:29:21Z</time>
      </trkpt>
      <trkpt lat="47.7872" lon="-3.63192">
        <ele>30</ele>
        <time>2018-07-18T12:29:22Z</time>
      </trkpt>
      <trkpt lat="47.78714" lon="-3.63195">
        <ele>30</ele>
        <time>2018-07-18T12:29:23Z</time>
      </trkpt>
      <trkpt lat="47.78709" lon="-3.63197">
        <ele>30</ele>
        <time>2018-07-18T12:29:24Z</time>
      </trkpt>
      <trkpt lat="47.78703" lon="-3.63199">
        <ele>30</ele>
        <time>2018-07-18T12:29:25Z</time>
      </trkpt>
      <trkpt lat="47.78698" lon="-3.63201">
        <ele>30</ele>
        <time>2018-07-18T12:29:26Z</time>
      </trkpt>
      <trkpt lat="47.78692" lon="-3.63204">
        <ele>30</ele>
        <time>2018-07-18T12:29:27Z</time>
      </trkpt>
      <trkpt lat="47.78686" lon="-3.63206">
        <ele>30</ele>
        <time>2018-07-18T12:29:28Z</time>
      </trkpt>
      <trkpt lat="47.7868" lon="-3.63208">
        <ele>30</ele>
        <time>2018-07-18T12:29:29Z</time>
      </trkpt>
      <trkpt lat="47.78674" lon="-3.63209">
        <ele>30</ele>
        <time>2018-07-18T12:29:30Z</time>
      </trkpt>
      <trkpt lat="47.78668" lon="-3.63211">
        <ele>30</ele>
        <time>2018-07-18T12:29:31Z</time>
      </trkpt>
      <trkpt lat="47.78662" lon="-3.63212">
        <ele>30</ele>
        <time>2018-07-18T12:29:32Z</time>
      </trkpt>
      <trkpt lat="47.78656" lon="-3.63214">
        <ele>30</ele>
        <time>2018-07-18T12:29:33Z</time>
      </trkpt>
      <trkpt lat="47.78651" lon="-3.63215">
        <ele>30</ele>
        <time>2018-07-18T12:29:34Z</time>
      </trkpt>
      <trkpt lat="47.78645" lon="-3.63218">
        <ele>30</ele>
        <time>2018-07-18T12:29:35Z</time>
      </trkpt>
      <trkpt lat="47.78639" lon="-3.63221">
        <ele>30</ele>
        <time>2018-07-18T12:29:36Z</time>
      </trkpt>
      <trkpt lat="47.78633" lon="-3.63225">
        <ele>30</ele>
        <time>2018-07-18T12:29:37Z</time>
      </trkpt>
      <trkpt lat="47.78628" lon="-3.63229">
        <ele>30</ele>
        <time>2018-07-18T12:29:38Z</time>
      </trkpt>
      <trkpt lat="47.78622" lon="-3.63234">
        <ele>30</ele>
        <time>2018-07-18T12:29:39Z</time>
      </trkpt>
      <trkpt lat="47.78616" lon="-3.63239">
        <ele>29</ele>
        <time>2018-07-18T12:29:40Z</time>
      </trkpt>
      <trkpt lat="47.78609" lon="-3.63243">
        <ele>29</ele>
        <time>2018-07-18T12:29:41Z</time>
      </trkpt>
      <trkpt lat="47.78602" lon="-3.63247">
        <ele>29</ele>
        <time>2018-07-18T12:29:42Z</time>
      </trkpt>
      <trkpt lat="47.78596" lon="-3.6325">
        <ele>29</ele>
        <time>2018-07-18T12:29:43Z</time>
      </trkpt>
      <trkpt lat="47.78592" lon="-3.63253">
        <ele>28</ele>
        <time>2018-07-18T12:29:44Z</time>
      </trkpt>
      <trkpt lat="47.78588" lon="-3.63256">
        <ele>28</ele>
        <time>2018-07-18T12:29:45Z</time>
      </trkpt>
      <trkpt lat="47.78586" lon="-3.63258">
        <ele>28</ele>
        <time>2018-07-18T12:29:46Z</time>
      </trkpt>
      <trkpt lat="47.78586" lon="-3.63258">
        <ele>27</ele>
        <time>2018-07-18T12:29:47Z</time>
      </trkpt>
      <trkpt lat="47.78586" lon="-3.63259">
        <ele>27</ele>
        <time>2018-07-18T12:29:48Z</time>
      </trkpt>
      <trkpt lat="47.78585" lon="-3.63259">
        <ele>27</ele>
        <time>2018-07-18T12:29:49Z</time>
      </trkpt>
      <trkpt lat="47.78585" lon="-3.63259">
        <ele>27</ele>
        <time>2018-07-18T12:29:50Z</time>
      </trkpt>
      <trkpt lat="47.78583" lon="-3.63262">
        <ele>25</ele>
        <time>2018-07-18T12:29:51Z</time>
      </trkpt>
      <trkpt lat="47.78582" lon="-3.63263">
        <ele>25</ele>
        <time>2018-07-18T12:29:52Z</time>
      </trkpt>
      <trkpt lat="47.78581" lon="-3.63264">
        <ele>25</ele>
        <time>2018-07-18T12:29:53Z</time>
      </trkpt>
      <trkpt lat="47.7858" lon="-3.63265">
        <ele>25</ele>
        <time>2018-07-18T12:29:54Z</time>
      </trkpt>
      <trkpt lat="47.78578" lon="-3.63266">
        <ele>25</ele>
        <time>2018-07-18T12:29:55Z</time>
      </trkpt>
      <trkpt lat="47.78577" lon="-3.63267">
        <ele>25</ele>
        <time>2018-07-18T12:29:56Z</time>
      </trkpt>
      <trkpt lat="47.78575" lon="-3.63268">
        <ele>25</ele>
        <time>2018-07-18T12:29:57Z</time>
      </trkpt>
      <trkpt lat="47.78573" lon="-3.6327">
        <ele>25</ele>
        <time>2018-07-18T12:29:58Z</time>
      </trkpt>
      <trkpt lat="47.78572" lon="-3.63271">
        <ele>25</ele>
        <time>2018-07-18T12:29:59Z</time>
      </trkpt>
      <trkpt lat="47.78571" lon="-3.63272">
        <ele>25</ele>
        <time>2018-07-18T12:30:00Z</time>
      </trkpt>
      <trkpt lat="47.7857" lon="-3.63274">
        <ele>25</ele>
        <time>2018-07-18T12:30:01Z</time>
      </trkpt>
      <trkpt lat="47.78568" lon="-3.63276">
        <ele>25</ele>
        <time>2018-07-18T12:30:02Z</time>
      </trkpt>
      <trkpt lat="47.78567" lon="-3.63278">
        <ele>25</ele>
        <time>2018-07-18T12:30:03Z</time>
      </trkpt>
      <trkpt lat="47.78565" lon="-3.63281">
        <ele>25</ele>
        <time>2018-07-18T12:30:04Z</time>
      </trkpt>
      <trkpt lat="47.78563" lon="-3.63284">
        <ele>25</ele>
        <time>2018-07-18T12:30:05Z</time>
      </trkpt>
      <trkpt lat="47.78561" lon="-3.63288">
        <ele>25</ele>
        <time>2018-07-18T12:30:06Z</time>
      </trkpt>
      <trkpt lat="47.78559" lon="-3.63293">
        <ele>25</ele>
        <time>2018-07-18T12:30:07Z</time>
      </trkpt>
      <trkpt lat="47.78557" lon="-3.63298">
        <ele>25</ele>
        <time>2018-07-18T12:30:08Z</time>
      </trkpt>
      <trkpt lat="47.78556" lon="-3.63304">
        <ele>25</ele>
        <time>2018-07-18T12:30:09Z</time>
      </trkpt>
      <trkpt lat="47.78554" lon="-3.63309">
        <ele>25</ele>
        <time>2018-07-18T12:30:10Z</time>
      </trkpt>
      <trkpt lat="47.78552" lon="-3.63315">
        <ele>25</ele>
        <time>2018-07-18T12:30:11Z</time>
      </trkpt>
      <trkpt lat="47.78549" lon="-3.63322">
        <ele>24</ele>
        <time>2018-07-18T12:30:12Z</time>
      </trkpt>
      <trkpt lat="47.78547" lon="-3.63329">
        <ele>24</ele>
        <time>2018-07-18T12:30:13Z</time>
      </trkpt>
      <trkpt lat="47.78546" lon="-3.63336">
        <ele>24</ele>
        <time>2018-07-18T12:30:14Z</time>
      </trkpt>
      <trkpt lat="47.78545" lon="-3.63343">
        <ele>24</ele>
        <time>2018-07-18T12:30:15Z</time>
      </trkpt>
      <trkpt lat="47.78545" lon="-3.63349">
        <ele>23</ele>
        <time>2018-07-18T12:30:16Z</time>
      </trkpt>
      <trkpt lat="47.78545" lon="-3.63357">
        <ele>23</ele>
        <time>2018-07-18T12:30:17Z</time>
      </trkpt>
      <trkpt lat="47.78545" lon="-3.63365">
        <ele>23</ele>
        <time>2018-07-18T12:30:18Z</time>
      </trkpt>
      <trkpt lat="47.78546" lon="-3.63372">
        <ele>23</ele>
        <time>2018-07-18T12:30:19Z</time>
      </trkpt>
      <trkpt lat="47.78547" lon="-3.63379">
        <ele>23</ele>
        <time>2018-07-18T12:30:20Z</time>
      </trkpt>
      <trkpt lat="47.78548" lon="-3.63386">
        <ele>22</ele>
        <time>2018-07-18T12:30:21Z</time>
      </trkpt>
      <trkpt lat="47.7855" lon="-3.63393">
        <ele>22</ele>
        <time>2018-07-18T12:30:22Z</time>
      </trkpt>
      <trkpt lat="47.78551" lon="-3.634">
        <ele>22</ele>
        <time>2018-07-18T12:30:23Z</time>
      </trkpt>
      <trkpt lat="47.78552" lon="-3.63407">
        <ele>22</ele>
        <time>2018-07-18T12:30:24Z</time>
      </trkpt>
      <trkpt lat="47.78553" lon="-3.63413">
        <ele>22</ele>
        <time>2018-07-18T12:30:25Z</time>
      </trkpt>
      <trkpt lat="47.78554" lon="-3.63418">
        <ele>22</ele>
        <time>2018-07-18T12:30:26Z</time>
      </trkpt>
      <trkpt lat="47.78555" lon="-3.63423">
        <ele>22</ele>
        <time>2018-07-18T12:30:27Z</time>
      </trkpt>
      <trkpt lat="47.78556" lon="-3.63428">
        <ele>22</ele>
        <time>2018-07-18T12:30:28Z</time>
      </trkpt>
      <trkpt lat="47.78557" lon="-3.63433">
        <ele>22</ele>
        <time>2018-07-18T12:30:29Z</time>
      </trkpt>
      <trkpt lat="47.78558" lon="-3.63439">
        <ele>22</ele>
        <time>2018-07-18T12:30:30Z</time>
      </trkpt>
      <trkpt lat="47.78559" lon="-3.63445">
        <ele>22</ele>
        <time>2018-07-18T12:30:31Z</time>
      </trkpt>
      <trkpt lat="47.7856" lon="-3.6345">
        <ele>23</ele>
        <time>2018-07-18T12:30:32Z</time>
      </trkpt>
      <trkpt lat="47.78561" lon="-3.63456">
        <ele>23</ele>
        <time>2018-07-18T12:30:33Z</time>
      </trkpt>
      <trkpt lat="47.78563" lon="-3.63462">
        <ele>23</ele>
        <time>2018-07-18T12:30:34Z</time>
      </trkpt>
      <trkpt lat="47.78565" lon="-3.63467">
        <ele>23</ele>
        <time>2018-07-18T12:30:35Z</time>
      </trkpt>
      <trkpt lat="47.78567" lon="-3.63473">
        <ele>23</ele>
        <time>2018-07-18T12:30:36Z</time>
      </trkpt>
      <trkpt lat="47.78569" lon="-3.63479">
        <ele>24</ele>
        <time>2018-07-18T12:30:37Z</time>
      </trkpt>
      <trkpt lat="47.78572" lon="-3.63485">
        <ele>24</ele>
        <time>2018-07-18T12:30:38Z</time>
      </trkpt>
      <trkpt lat="47.78574" lon="-3.63491">
        <ele>24</ele>
        <time>2018-07-18T12:30:39Z</time>
      </trkpt>
      <trkpt lat="47.78576" lon="-3.63497">
        <ele>24</ele>
        <time>2018-07-18T12:30:40Z</time>
      </trkpt>
      <trkpt lat="47.78578" lon="-3.63502">
        <ele>24</ele>
        <time>2018-07-18T12:30:41Z</time>
      </trkpt>
      <trkpt lat="47.7858" lon="-3.63508">
        <ele>25</ele>
        <time>2018-07-18T12:30:42Z</time>
      </trkpt>
      <trkpt lat="47.78582" lon="-3.63514">
        <ele>25</ele>
        <time>2018-07-18T12:30:43Z</time>
      </trkpt>
      <trkpt lat="47.78584" lon="-3.6352">
        <ele>25</ele>
        <time>2018-07-18T12:30:44Z</time>
      </trkpt>
      <trkpt lat="47.78585" lon="-3.63526">
        <ele>26</ele>
        <time>2018-07-18T12:30:45Z</time>
      </trkpt>
      <trkpt lat="47.78587" lon="-3.63532">
        <ele>26</ele>
        <time>2018-07-18T12:30:46Z</time>
      </trkpt>
      <trkpt lat="47.78589" lon="-3.63538">
        <ele>26</ele>
        <time>2018-07-18T12:30:47Z</time>
      </trkpt>
      <trkpt lat="47.7859" lon="-3.63544">
        <ele>26</ele>
        <time>2018-07-18T12:30:48Z</time>
      </trkpt>
      <trkpt lat="47.78592" lon="-3.6355">
        <ele>27</ele>
        <time>2018-07-18T12:30:49Z</time>
      </trkpt>
      <trkpt lat="47.78593" lon="-3.63557">
        <ele>27</ele>
        <time>2018-07-18T12:30:50Z</time>
      </trkpt>
      <trkpt lat="47.78595" lon="-3.63562">
        <ele>27</ele>
        <time>2018-07-18T12:30:51Z</time>
      </trkpt>
      <trkpt lat="47.78597" lon="-3.63568">
        <ele>27</ele>
        <time>2018-07-18T12:30:52Z</time>
      </trkpt>
      <trkpt lat="47.78598" lon="-3.63574">
        <ele>28</ele>
        <time>2018-07-18T12:30:53Z</time>
      </trkpt>
      <trkpt lat="47.78599" lon="-3.6358">
        <ele>28</ele>
        <time>2018-07-18T12:30:54Z</time>
      </trkpt>
      <trkpt lat="47.786" lon="-3.63587">
        <ele>28</ele>
        <time>2018-07-18T12:30:55Z</time>
      </trkpt>
      <trkpt lat="47.78601" lon="-3.63593">
        <ele>28</ele>
        <time>2018-07-18T12:30:56Z</time>
      </trkpt>
      <trkpt lat="47.78602" lon="-3.63599">
        <ele>29</ele>
        <time>2018-07-18T12:30:57Z</time>
      </trkpt>
      <trkpt lat="47.78603" lon="-3.63604">
        <ele>29</ele>
        <time>2018-07-18T12:30:58Z</time>
      </trkpt>
      <trkpt lat="47.78603" lon="-3.63609">
        <ele>29</ele>
        <time>2018-07-18T12:30:59Z</time>
      </trkpt>
      <trkpt lat="47.78602" lon="-3.63613">
        <ele>29</ele>
        <time>2018-07-18T12:31:00Z</time>
      </trkpt>
      <trkpt lat="47.786" lon="-3.63616">
        <ele>29</ele>
        <time>2018-07-18T12:31:01Z</time>
      </trkpt>
      <trkpt lat="47.78596" lon="-3.63618">
        <ele>29</ele>
        <time>2018-07-18T12:31:02Z</time>
      </trkpt>
      <trkpt lat="47.78593" lon="-3.6362">
        <ele>29</ele>
        <time>2018-07-18T12:31:03Z</time>
      </trkpt>
      <trkpt lat="47.78589" lon="-3.63622">
        <ele>29</ele>
        <time>2018-07-18T12:31:04Z</time>
      </trkpt>
      <trkpt lat="47.78585" lon="-3.63625">
        <ele>29</ele>
        <time>2018-07-18T12:31:05Z</time>
      </trkpt>
      <trkpt lat="47.78581" lon="-3.63628">
        <ele>29</ele>
        <time>2018-07-18T12:31:06Z</time>
      </trkpt>
      <trkpt lat="47.78577" lon="-3.63631">
        <ele>29</ele>
        <time>2018-07-18T12:31:07Z</time>
      </trkpt>
      <trkpt lat="47.78573" lon="-3.63634">
        <ele>29</ele>
        <time>2018-07-18T12:31:08Z</time>
      </trkpt>
      <trkpt lat="47.78569" lon="-3.63637">
        <ele>29</ele>
        <time>2018-07-18T12:31:09Z</time>
      </trkpt>
      <trkpt lat="47.78565" lon="-3.6364">
        <ele>29</ele>
        <time>2018-07-18T12:31:10Z</time>
      </trkpt>
      <trkpt lat="47.78561" lon="-3.63643">
        <ele>29</ele>
        <time>2018-07-18T12:31:11Z</time>
      </trkpt>
      <trkpt lat="47.78557" lon="-3.63646">
        <ele>29</ele>
        <time>2018-07-18T12:31:12Z</time>
      </trkpt>
      <trkpt lat="47.78553" lon="-3.6365">
        <ele>29</ele>
        <time>2018-07-18T12:31:13Z</time>
      </trkpt>
      <trkpt lat="47.78549" lon="-3.63654">
        <ele>29</ele>
        <time>2018-07-18T12:31:14Z</time>
      </trkpt>
      <trkpt lat="47.78545" lon="-3.63658">
        <ele>29</ele>
        <time>2018-07-18T12:31:15Z</time>
      </trkpt>
      <trkpt lat="47.78541" lon="-3.63661">
        <ele>29</ele>
        <time>2018-07-18T12:31:16Z</time>
      </trkpt>
      <trkpt lat="47.78537" lon="-3.63665">
        <ele>29</ele>
        <time>2018-07-18T12:31:17Z</time>
      </trkpt>
      <trkpt lat="47.78533" lon="-3.63669">
        <ele>29</ele>
        <time>2018-07-18T12:31:18Z</time>
      </trkpt>
      <trkpt lat="47.78528" lon="-3.63672">
        <ele>29</ele>
        <time>2018-07-18T12:31:19Z</time>
      </trkpt>
      <trkpt lat="47.78524" lon="-3.63675">
        <ele>29</ele>
        <time>2018-07-18T12:31:20Z</time>
      </trkpt>
      <trkpt lat="47.7852" lon="-3.63679">
        <ele>29</ele>
        <time>2018-07-18T12:31:21Z</time>
      </trkpt>
      <trkpt lat="47.78516" lon="-3.63682">
        <ele>29</ele>
        <time>2018-07-18T12:31:22Z</time>
      </trkpt>
      <trkpt lat="47.78512" lon="-3.63685">
        <ele>29</ele>
        <time>2018-07-18T12:31:23Z</time>
      </trkpt>
      <trkpt lat="47.78508" lon="-3.63688">
        <ele>29</ele>
        <time>2018-07-18T12:31:24Z</time>
      </trkpt>
      <trkpt lat="47.78504" lon="-3.63691">
        <ele>29</ele>
        <time>2018-07-18T12:31:25Z</time>
      </trkpt>
      <trkpt lat="47.785" lon="-3.63694">
        <ele>29</ele>
        <time>2018-07-18T12:31:26Z</time>
      </trkpt>
      <trkpt lat="47.78495" lon="-3.63698">
        <ele>29</ele>
        <time>2018-07-18T12:31:27Z</time>
      </trkpt>
      <trkpt lat="47.78491" lon="-3.63702">
        <ele>29</ele>
        <time>2018-07-18T12:31:28Z</time>
      </trkpt>
      <trkpt lat="47.78486" lon="-3.63706">
        <ele>29</ele>
        <time>2018-07-18T12:31:29Z</time>
      </trkpt>
      <trkpt lat="47.78482" lon="-3.63711">
        <ele>29</ele>
        <time>2018-07-18T12:31:30Z</time>
      </trkpt>
      <trkpt lat="47.78479" lon="-3.63714">
        <ele>29</ele>
        <time>2018-07-18T12:31:31Z</time>
      </trkpt>
      <trkpt lat="47.78477" lon="-3.63719">
        <ele>29</ele>
        <time>2018-07-18T12:31:32Z</time>
      </trkpt>
      <trkpt lat="47.78473" lon="-3.63724">
        <ele>29</ele>
        <time>2018-07-18T12:31:33Z</time>
      </trkpt>
      <trkpt lat="47.78469" lon="-3.6373">
        <ele>29</ele>
        <time>2018-07-18T12:31:34Z</time>
      </trkpt>
      <trkpt lat="47.78465" lon="-3.63736">
        <ele>29</ele>
        <time>2018-07-18T12:31:35Z</time>
      </trkpt>
      <trkpt lat="47.78462" lon="-3.63742">
        <ele>29</ele>
        <time>2018-07-18T12:31:36Z</time>
      </trkpt>
      <trkpt lat="47.78458" lon="-3.63748">
        <ele>29</ele>
        <time>2018-07-18T12:31:37Z</time>
      </trkpt>
      <trkpt lat="47.78454" lon="-3.63753">
        <ele>29</ele>
        <time>2018-07-18T12:31:38Z</time>
      </trkpt>
      <trkpt lat="47.78452" lon="-3.63758">
        <ele>29</ele>
        <time>2018-07-18T12:31:39Z</time>
      </trkpt>
      <trkpt lat="47.78449" lon="-3.63763">
        <ele>29</ele>
        <time>2018-07-18T12:31:40Z</time>
      </trkpt>
      <trkpt lat="47.78446" lon="-3.63768">
        <ele>29</ele>
        <time>2018-07-18T12:31:41Z</time>
      </trkpt>
      <trkpt lat="47.78442" lon="-3.63773">
        <ele>29</ele>
        <time>2018-07-18T12:31:42Z</time>
      </trkpt>
      <trkpt lat="47.78438" lon="-3.63777">
        <ele>29</ele>
        <time>2018-07-18T12:31:43Z</time>
      </trkpt>
      <trkpt lat="47.78435" lon="-3.63783">
        <ele>29</ele>
        <time>2018-07-18T12:31:44Z</time>
      </trkpt>
      <trkpt lat="47.78431" lon="-3.63787">
        <ele>29</ele>
        <time>2018-07-18T12:31:45Z</time>
      </trkpt>
      <trkpt lat="47.78427" lon="-3.63792">
        <ele>29</ele>
        <time>2018-07-18T12:31:46Z</time>
      </trkpt>
      <trkpt lat="47.78423" lon="-3.63797">
        <ele>29</ele>
        <time>2018-07-18T12:31:47Z</time>
      </trkpt>
      <trkpt lat="47.78419" lon="-3.63803">
        <ele>29</ele>
        <time>2018-07-18T12:31:48Z</time>
      </trkpt>
      <trkpt lat="47.78416" lon="-3.63808">
        <ele>29</ele>
        <time>2018-07-18T12:31:49Z</time>
      </trkpt>
      <trkpt lat="47.78412" lon="-3.63813">
        <ele>29</ele>
        <time>2018-07-18T12:31:50Z</time>
      </trkpt>
      <trkpt lat="47.78408" lon="-3.63817">
        <ele>29</ele>
        <time>2018-07-18T12:31:51Z</time>
      </trkpt>
      <trkpt lat="47.78404" lon="-3.63821">
        <ele>29</ele>
        <time>2018-07-18T12:31:52Z</time>
      </trkpt>
      <trkpt lat="47.784" lon="-3.63826">
        <ele>29</ele>
        <time>2018-07-18T12:31:53Z</time>
      </trkpt>
      <trkpt lat="47.78396" lon="-3.6383">
        <ele>29</ele>
        <time>2018-07-18T12:31:54Z</time>
      </trkpt>
      <trkpt lat="47.78392" lon="-3.63834">
        <ele>29</ele>
        <time>2018-07-18T12:31:55Z</time>
      </trkpt>
      <trkpt lat="47.78387" lon="-3.63838">
        <ele>28</ele>
        <time>2018-07-18T12:31:56Z</time>
      </trkpt>
      <trkpt lat="47.78383" lon="-3.63842">
        <ele>28</ele>
        <time>2018-07-18T12:31:57Z</time>
      </trkpt>
      <trkpt lat="47.78378" lon="-3.63847">
        <ele>28</ele>
        <time>2018-07-18T12:31:58Z</time>
      </trkpt>
      <trkpt lat="47.78374" lon="-3.63852">
        <ele>28</ele>
        <time>2018-07-18T12:31:59Z</time>
      </trkpt>
      <trkpt lat="47.7837" lon="-3.63856">
        <ele>28</ele>
        <time>2018-07-18T12:32:00Z</time>
      </trkpt>
      <trkpt lat="47.78366" lon="-3.63861">
        <ele>28</ele>
        <time>2018-07-18T12:32:01Z</time>
      </trkpt>
      <trkpt lat="47.78361" lon="-3.63867">
        <ele>28</ele>
        <time>2018-07-18T12:32:02Z</time>
      </trkpt>
      <trkpt lat="47.78357" lon="-3.63872">
        <ele>28</ele>
        <time>2018-07-18T12:32:03Z</time>
      </trkpt>
      <trkpt lat="47.78353" lon="-3.63878">
        <ele>28</ele>
        <time>2018-07-18T12:32:04Z</time>
      </trkpt>
      <trkpt lat="47.78349" lon="-3.63884">
        <ele>28</ele>
        <time>2018-07-18T12:32:05Z</time>
      </trkpt>
      <trkpt lat="47.78345" lon="-3.6389">
        <ele>28</ele>
        <time>2018-07-18T12:32:06Z</time>
      </trkpt>
      <trkpt lat="47.78341" lon="-3.63895">
        <ele>27</ele>
        <time>2018-07-18T12:32:07Z</time>
      </trkpt>
      <trkpt lat="47.78338" lon="-3.63901">
        <ele>27</ele>
        <time>2018-07-18T12:32:08Z</time>
      </trkpt>
      <trkpt lat="47.78335" lon="-3.63908">
        <ele>27</ele>
        <time>2018-07-18T12:32:09Z</time>
      </trkpt>
      <trkpt lat="47.78331" lon="-3.63914">
        <ele>27</ele>
        <time>2018-07-18T12:32:10Z</time>
      </trkpt>
      <trkpt lat="47.78328" lon="-3.63921">
        <ele>27</ele>
        <time>2018-07-18T12:32:11Z</time>
      </trkpt>
      <trkpt lat="47.78325" lon="-3.63927">
        <ele>27</ele>
        <time>2018-07-18T12:32:12Z</time>
      </trkpt>
      <trkpt lat="47.78322" lon="-3.63932">
        <ele>27</ele>
        <time>2018-07-18T12:32:13Z</time>
      </trkpt>
      <trkpt lat="47.78319" lon="-3.63938">
        <ele>27</ele>
        <time>2018-07-18T12:32:14Z</time>
      </trkpt>
      <trkpt lat="47.78317" lon="-3.63944">
        <ele>27</ele>
        <time>2018-07-18T12:32:15Z</time>
      </trkpt>
      <trkpt lat="47.78315" lon="-3.63949">
        <ele>27</ele>
        <time>2018-07-18T12:32:16Z</time>
      </trkpt>
      <trkpt lat="47.78313" lon="-3.63955">
        <ele>27</ele>
        <time>2018-07-18T12:32:17Z</time>
      </trkpt>
      <trkpt lat="47.78312" lon="-3.63963">
        <ele>28</ele>
        <time>2018-07-18T12:32:18Z</time>
      </trkpt>
      <trkpt lat="47.78311" lon="-3.6397">
        <ele>28</ele>
        <time>2018-07-18T12:32:19Z</time>
      </trkpt>
      <trkpt lat="47.78311" lon="-3.63977">
        <ele>28</ele>
        <time>2018-07-18T12:32:20Z</time>
      </trkpt>
      <trkpt lat="47.7831" lon="-3.63984">
        <ele>28</ele>
        <time>2018-07-18T12:32:21Z</time>
      </trkpt>
      <trkpt lat="47.78309" lon="-3.63992">
        <ele>28</ele>
        <time>2018-07-18T12:32:22Z</time>
      </trkpt>
      <trkpt lat="47.78308" lon="-3.63998">
        <ele>28</ele>
        <time>2018-07-18T12:32:23Z</time>
      </trkpt>
      <trkpt lat="47.78306" lon="-3.64004">
        <ele>28</ele>
        <time>2018-07-18T12:32:24Z</time>
      </trkpt>
      <trkpt lat="47.78304" lon="-3.6401">
        <ele>28</ele>
        <time>2018-07-18T12:32:25Z</time>
      </trkpt>
      <trkpt lat="47.78303" lon="-3.64016">
        <ele>28</ele>
        <time>2018-07-18T12:32:26Z</time>
      </trkpt>
      <trkpt lat="47.78301" lon="-3.64022">
        <ele>28</ele>
        <time>2018-07-18T12:32:27Z</time>
      </trkpt>
      <trkpt lat="47.78298" lon="-3.64028">
        <ele>28</ele>
        <time>2018-07-18T12:32:28Z</time>
      </trkpt>
      <trkpt lat="47.78296" lon="-3.64035">
        <ele>28</ele>
        <time>2018-07-18T12:32:29Z</time>
      </trkpt>
      <trkpt lat="47.78294" lon="-3.64041">
        <ele>28</ele>
        <time>2018-07-18T12:32:30Z</time>
      </trkpt>
      <trkpt lat="47.78291" lon="-3.64048">
        <ele>28</ele>
        <time>2018-07-18T12:32:31Z</time>
      </trkpt>
      <trkpt lat="47.78289" lon="-3.64054">
        <ele>28</ele>
        <time>2018-07-18T12:32:32Z</time>
      </trkpt>
      <trkpt lat="47.78287" lon="-3.6406">
        <ele>28</ele>
        <time>2018-07-18T12:32:33Z</time>
      </trkpt>
      <trkpt lat="47.78285" lon="-3.64067">
        <ele>28</ele>
        <time>2018-07-18T12:32:34Z</time>
      </trkpt>
      <trkpt lat="47.78284" lon="-3.64073">
        <ele>27</ele>
        <time>2018-07-18T12:32:35Z</time>
      </trkpt>
      <trkpt lat="47.78283" lon="-3.64078">
        <ele>27</ele>
        <time>2018-07-18T12:32:36Z</time>
      </trkpt>
      <trkpt lat="47.78282" lon="-3.64081">
        <ele>27</ele>
        <time>2018-07-18T12:32:37Z</time>
      </trkpt>
      <trkpt lat="47.78281" lon="-3.64084">
        <ele>27</ele>
        <time>2018-07-18T12:32:38Z</time>
      </trkpt>
      <trkpt lat="47.78281" lon="-3.64087">
        <ele>27</ele>
        <time>2018-07-18T12:32:39Z</time>
      </trkpt>
      <trkpt lat="47.7828" lon="-3.6409">
        <ele>27</ele>
        <time>2018-07-18T12:32:40Z</time>
      </trkpt>
      <trkpt lat="47.78278" lon="-3.64094">
        <ele>27</ele>
        <time>2018-07-18T12:32:41Z</time>
      </trkpt>
      <trkpt lat="47.78277" lon="-3.64098">
        <ele>27</ele>
        <time>2018-07-18T12:32:42Z</time>
      </trkpt>
      <trkpt lat="47.78276" lon="-3.64103">
        <ele>27</ele>
        <time>2018-07-18T12:32:43Z</time>
      </trkpt>
      <trkpt lat="47.78275" lon="-3.64108">
        <ele>28</ele>
        <time>2018-07-18T12:32:44Z</time>
      </trkpt>
      <trkpt lat="47.78274" lon="-3.64115">
        <ele>28</ele>
        <time>2018-07-18T12:32:45Z</time>
      </trkpt>
      <trkpt lat="47.78272" lon="-3.64121">
        <ele>28</ele>
        <time>2018-07-18T12:32:46Z</time>
      </trkpt>
      <trkpt lat="47.78271" lon="-3.64128">
        <ele>28</ele>
        <time>2018-07-18T12:32:47Z</time>
      </trkpt>
      <trkpt lat="47.78269" lon="-3.64135">
        <ele>28</ele>
        <time>2018-07-18T12:32:48Z</time>
      </trkpt>
      <trkpt lat="47.78268" lon="-3.64142">
        <ele>28</ele>
        <time>2018-07-18T12:32:49Z</time>
      </trkpt>
      <trkpt lat="47.78266" lon="-3.64149">
        <ele>28</ele>
        <time>2018-07-18T12:32:50Z</time>
      </trkpt>
      <trkpt lat="47.78264" lon="-3.64157">
        <ele>28</ele>
        <time>2018-07-18T12:32:51Z</time>
      </trkpt>
      <trkpt lat="47.78262" lon="-3.64164">
        <ele>29</ele>
        <time>2018-07-18T12:32:52Z</time>
      </trkpt>
      <trkpt lat="47.78259" lon="-3.64171">
        <ele>29</ele>
        <time>2018-07-18T12:32:53Z</time>
      </trkpt>
      <trkpt lat="47.78257" lon="-3.64177">
        <ele>29</ele>
        <time>2018-07-18T12:32:54Z</time>
      </trkpt>
      <trkpt lat="47.78254" lon="-3.64184">
        <ele>29</ele>
        <time>2018-07-18T12:32:55Z</time>
      </trkpt>
      <trkpt lat="47.78251" lon="-3.6419">
        <ele>29</ele>
        <time>2018-07-18T12:32:56Z</time>
      </trkpt>
      <trkpt lat="47.78248" lon="-3.64196">
        <ele>29</ele>
        <time>2018-07-18T12:32:57Z</time>
      </trkpt>
      <trkpt lat="47.78244" lon="-3.64202">
        <ele>29</ele>
        <time>2018-07-18T12:32:58Z</time>
      </trkpt>
      <trkpt lat="47.7824" lon="-3.64208">
        <ele>29</ele>
        <time>2018-07-18T12:32:59Z</time>
      </trkpt>
      <trkpt lat="47.78236" lon="-3.64214">
        <ele>29</ele>
        <time>2018-07-18T12:33:00Z</time>
      </trkpt>
      <trkpt lat="47.78232" lon="-3.6422">
        <ele>29</ele>
        <time>2018-07-18T12:33:01Z</time>
      </trkpt>
      <trkpt lat="47.78228" lon="-3.64225">
        <ele>29</ele>
        <time>2018-07-18T12:33:02Z</time>
      </trkpt>
      <trkpt lat="47.78223" lon="-3.6423">
        <ele>29</ele>
        <time>2018-07-18T12:33:03Z</time>
      </trkpt>
      <trkpt lat="47.78219" lon="-3.64235">
        <ele>29</ele>
        <time>2018-07-18T12:33:04Z</time>
      </trkpt>
      <trkpt lat="47.78215" lon="-3.6424">
        <ele>30</ele>
        <time>2018-07-18T12:33:05Z</time>
      </trkpt>
      <trkpt lat="47.78211" lon="-3.64245">
        <ele>30</ele>
        <time>2018-07-18T12:33:06Z</time>
      </trkpt>
      <trkpt lat="47.78206" lon="-3.6425">
        <ele>29</ele>
        <time>2018-07-18T12:33:07Z</time>
      </trkpt>
      <trkpt lat="47.78202" lon="-3.64256">
        <ele>29</ele>
        <time>2018-07-18T12:33:08Z</time>
      </trkpt>
      <trkpt lat="47.78199" lon="-3.64261">
        <ele>29</ele>
        <time>2018-07-18T12:33:09Z</time>
      </trkpt>
      <trkpt lat="47.78196" lon="-3.64268">
        <ele>29</ele>
        <time>2018-07-18T12:33:10Z</time>
      </trkpt>
      <trkpt lat="47.78193" lon="-3.64274">
        <ele>29</ele>
        <time>2018-07-18T12:33:11Z</time>
      </trkpt>
      <trkpt lat="47.7819" lon="-3.64281">
        <ele>29</ele>
        <time>2018-07-18T12:33:12Z</time>
      </trkpt>
      <trkpt lat="47.78189" lon="-3.64288">
        <ele>29</ele>
        <time>2018-07-18T12:33:13Z</time>
      </trkpt>
      <trkpt lat="47.78187" lon="-3.64296">
        <ele>29</ele>
        <time>2018-07-18T12:33:14Z</time>
      </trkpt>
      <trkpt lat="47.78186" lon="-3.64304">
        <ele>29</ele>
        <time>2018-07-18T12:33:15Z</time>
      </trkpt>
      <trkpt lat="47.78185" lon="-3.64312">
        <ele>29</ele>
        <time>2018-07-18T12:33:16Z</time>
      </trkpt>
      <trkpt lat="47.78185" lon="-3.6432">
        <ele>28</ele>
        <time>2018-07-18T12:33:17Z</time>
      </trkpt>
      <trkpt lat="47.78184" lon="-3.64328">
        <ele>28</ele>
        <time>2018-07-18T12:33:18Z</time>
      </trkpt>
      <trkpt lat="47.78184" lon="-3.64337">
        <ele>28</ele>
        <time>2018-07-18T12:33:19Z</time>
      </trkpt>
      <trkpt lat="47.78184" lon="-3.64345">
        <ele>28</ele>
        <time>2018-07-18T12:33:20Z</time>
      </trkpt>
      <trkpt lat="47.78183" lon="-3.64354">
        <ele>28</ele>
        <time>2018-07-18T12:33:21Z</time>
      </trkpt>
      <trkpt lat="47.78183" lon="-3.64363">
        <ele>28</ele>
        <time>2018-07-18T12:33:22Z</time>
      </trkpt>
      <trkpt lat="47.78183" lon="-3.64372">
        <ele>28</ele>
        <time>2018-07-18T12:33:23Z</time>
      </trkpt>
      <trkpt lat="47.78182" lon="-3.64381">
        <ele>28</ele>
        <time>2018-07-18T12:33:24Z</time>
      </trkpt>
      <trkpt lat="47.78182" lon="-3.6439">
        <ele>28</ele>
        <time>2018-07-18T12:33:25Z</time>
      </trkpt>
      <trkpt lat="47.7818" lon="-3.644">
        <ele>28</ele>
        <time>2018-07-18T12:33:26Z</time>
      </trkpt>
      <trkpt lat="47.78179" lon="-3.64409">
        <ele>28</ele>
        <time>2018-07-18T12:33:27Z</time>
      </trkpt>
      <trkpt lat="47.78178" lon="-3.64418">
        <ele>28</ele>
        <time>2018-07-18T12:33:28Z</time>
      </trkpt>
      <trkpt lat="47.78176" lon="-3.64427">
        <ele>28</ele>
        <time>2018-07-18T12:33:29Z</time>
      </trkpt>
      <trkpt lat="47.78174" lon="-3.64435">
        <ele>28</ele>
        <time>2018-07-18T12:33:30Z</time>
      </trkpt>
      <trkpt lat="47.78172" lon="-3.64444">
        <ele>28</ele>
        <time>2018-07-18T12:33:31Z</time>
      </trkpt>
      <trkpt lat="47.7817" lon="-3.64452">
        <ele>28</ele>
        <time>2018-07-18T12:33:32Z</time>
      </trkpt>
      <trkpt lat="47.78169" lon="-3.6446">
        <ele>28</ele>
        <time>2018-07-18T12:33:33Z</time>
      </trkpt>
      <trkpt lat="47.78167" lon="-3.64468">
        <ele>28</ele>
        <time>2018-07-18T12:33:34Z</time>
      </trkpt>
      <trkpt lat="47.78166" lon="-3.64476">
        <ele>28</ele>
        <time>2018-07-18T12:33:35Z</time>
      </trkpt>
      <trkpt lat="47.78166" lon="-3.64481">
        <ele>28</ele>
        <time>2018-07-18T12:33:36Z</time>
      </trkpt>
      <trkpt lat="47.78166" lon="-3.64486">
        <ele>28</ele>
        <time>2018-07-18T12:33:37Z</time>
      </trkpt>
      <trkpt lat="47.78166" lon="-3.64491">
        <ele>28</ele>
        <time>2018-07-18T12:33:38Z</time>
      </trkpt>
      <trkpt lat="47.78166" lon="-3.64496">
        <ele>27</ele>
        <time>2018-07-18T12:33:39Z</time>
      </trkpt>
      <trkpt lat="47.78166" lon="-3.64502">
        <ele>27</ele>
        <time>2018-07-18T12:33:40Z</time>
      </trkpt>
      <trkpt lat="47.78165" lon="-3.64508">
        <ele>27</ele>
        <time>2018-07-18T12:33:41Z</time>
      </trkpt>
      <trkpt lat="47.78165" lon="-3.64515">
        <ele>27</ele>
        <time>2018-07-18T12:33:42Z</time>
      </trkpt>
      <trkpt lat="47.78165" lon="-3.64523">
        <ele>27</ele>
        <time>2018-07-18T12:33:43Z</time>
      </trkpt>
      <trkpt lat="47.78164" lon="-3.6453">
        <ele>27</ele>
        <time>2018-07-18T12:33:44Z</time>
      </trkpt>
      <trkpt lat="47.78163" lon="-3.64538">
        <ele>27</ele>
        <time>2018-07-18T12:33:45Z</time>
      </trkpt>
      <trkpt lat="47.78162" lon="-3.64546">
        <ele>27</ele>
        <time>2018-07-18T12:33:46Z</time>
      </trkpt>
      <trkpt lat="47.78162" lon="-3.64554">
        <ele>27</ele>
        <time>2018-07-18T12:33:47Z</time>
      </trkpt>
      <trkpt lat="47.78161" lon="-3.64561">
        <ele>27</ele>
        <time>2018-07-18T12:33:48Z</time>
      </trkpt>
      <trkpt lat="47.7816" lon="-3.64567">
        <ele>27</ele>
        <time>2018-07-18T12:33:49Z</time>
      </trkpt>
      <trkpt lat="47.7816" lon="-3.64575">
        <ele>27</ele>
        <time>2018-07-18T12:33:50Z</time>
      </trkpt>
      <trkpt lat="47.78159" lon="-3.64584">
        <ele>27</ele>
        <time>2018-07-18T12:33:51Z</time>
      </trkpt>
      <trkpt lat="47.78159" lon="-3.64592">
        <ele>27</ele>
        <time>2018-07-18T12:33:52Z</time>
      </trkpt>
      <trkpt lat="47.78159" lon="-3.64601">
        <ele>27</ele>
        <time>2018-07-18T12:33:53Z</time>
      </trkpt>
      <trkpt lat="47.78158" lon="-3.64609">
        <ele>27</ele>
        <time>2018-07-18T12:33:54Z</time>
      </trkpt>
      <trkpt lat="47.78158" lon="-3.64617">
        <ele>28</ele>
        <time>2018-07-18T12:33:55Z</time>
      </trkpt>
      <trkpt lat="47.78158" lon="-3.64626">
        <ele>28</ele>
        <time>2018-07-18T12:33:56Z</time>
      </trkpt>
      <trkpt lat="47.78158" lon="-3.64634">
        <ele>28</ele>
        <time>2018-07-18T12:33:57Z</time>
      </trkpt>
      <trkpt lat="47.78158" lon="-3.64643">
        <ele>28</ele>
        <time>2018-07-18T12:33:58Z</time>
      </trkpt>
      <trkpt lat="47.78158" lon="-3.64651">
        <ele>28</ele>
        <time>2018-07-18T12:33:59Z</time>
      </trkpt>
      <trkpt lat="47.78158" lon="-3.64659">
        <ele>28</ele>
        <time>2018-07-18T12:34:00Z</time>
      </trkpt>
      <trkpt lat="47.78159" lon="-3.64667">
        <ele>27</ele>
        <time>2018-07-18T12:34:01Z</time>
      </trkpt>
      <trkpt lat="47.78159" lon="-3.64675">
        <ele>27</ele>
        <time>2018-07-18T12:34:02Z</time>
      </trkpt>
      <trkpt lat="47.78159" lon="-3.64683">
        <ele>27</ele>
        <time>2018-07-18T12:34:03Z</time>
      </trkpt>
      <trkpt lat="47.78159" lon="-3.6469">
        <ele>27</ele>
        <time>2018-07-18T12:34:04Z</time>
      </trkpt>
      <trkpt lat="47.78157" lon="-3.64698">
        <ele>27</ele>
        <time>2018-07-18T12:34:05Z</time>
      </trkpt>
      <trkpt lat="47.78155" lon="-3.64706">
        <ele>27</ele>
        <time>2018-07-18T12:34:06Z</time>
      </trkpt>
      <trkpt lat="47.78153" lon="-3.64715">
        <ele>27</ele>
        <time>2018-07-18T12:34:07Z</time>
      </trkpt>
      <trkpt lat="47.7815" lon="-3.64723">
        <ele>26</ele>
        <time>2018-07-18T12:34:08Z</time>
      </trkpt>
      <trkpt lat="47.78146" lon="-3.64732">
        <ele>26</ele>
        <time>2018-07-18T12:34:09Z</time>
      </trkpt>
      <trkpt lat="47.78144" lon="-3.64741">
        <ele>26</ele>
        <time>2018-07-18T12:34:10Z</time>
      </trkpt>
      <trkpt lat="47.78143" lon="-3.64751">
        <ele>25</ele>
        <time>2018-07-18T12:34:11Z</time>
      </trkpt>
      <trkpt lat="47.78142" lon="-3.6476">
        <ele>25</ele>
        <time>2018-07-18T12:34:12Z</time>
      </trkpt>
      <trkpt lat="47.7814" lon="-3.6477">
        <ele>24</ele>
        <time>2018-07-18T12:34:13Z</time>
      </trkpt>
      <trkpt lat="47.78139" lon="-3.6478">
        <ele>24</ele>
        <time>2018-07-18T12:34:14Z</time>
      </trkpt>
      <trkpt lat="47.78137" lon="-3.6479">
        <ele>23</ele>
        <time>2018-07-18T12:34:15Z</time>
      </trkpt>
      <trkpt lat="47.78135" lon="-3.648">
        <ele>23</ele>
        <time>2018-07-18T12:34:16Z</time>
      </trkpt>
      <trkpt lat="47.78132" lon="-3.64808">
        <ele>22</ele>
        <time>2018-07-18T12:34:17Z</time>
      </trkpt>
      <trkpt lat="47.78127" lon="-3.64815">
        <ele>22</ele>
        <time>2018-07-18T12:34:18Z</time>
      </trkpt>
      <trkpt lat="47.78122" lon="-3.64821">
        <ele>22</ele>
        <time>2018-07-18T12:34:19Z</time>
      </trkpt>
      <trkpt lat="47.78116" lon="-3.64825">
        <ele>21</ele>
        <time>2018-07-18T12:34:20Z</time>
      </trkpt>
      <trkpt lat="47.78111" lon="-3.64828">
        <ele>21</ele>
        <time>2018-07-18T12:34:21Z</time>
      </trkpt>
      <trkpt lat="47.78106" lon="-3.64832">
        <ele>21</ele>
        <time>2018-07-18T12:34:22Z</time>
      </trkpt>
      <trkpt lat="47.78101" lon="-3.64834">
        <ele>21</ele>
        <time>2018-07-18T12:34:23Z</time>
      </trkpt>
      <trkpt lat="47.78095" lon="-3.64836">
        <ele>21</ele>
        <time>2018-07-18T12:34:24Z</time>
      </trkpt>
      <trkpt lat="47.7809" lon="-3.64836">
        <ele>21</ele>
        <time>2018-07-18T12:34:25Z</time>
      </trkpt>
      <trkpt lat="47.78085" lon="-3.64834">
        <ele>21</ele>
        <time>2018-07-18T12:34:26Z</time>
      </trkpt>
      <trkpt lat="47.7808" lon="-3.64833">
        <ele>21</ele>
        <time>2018-07-18T12:34:27Z</time>
      </trkpt>
      <trkpt lat="47.78075" lon="-3.64832">
        <ele>21</ele>
        <time>2018-07-18T12:34:28Z</time>
      </trkpt>
      <trkpt lat="47.7807" lon="-3.64832">
        <ele>21</ele>
        <time>2018-07-18T12:34:29Z</time>
      </trkpt>
      <trkpt lat="47.78065" lon="-3.64832">
        <ele>21</ele>
        <time>2018-07-18T12:34:30Z</time>
      </trkpt>
      <trkpt lat="47.78061" lon="-3.64833">
        <ele>21</ele>
        <time>2018-07-18T12:34:31Z</time>
      </trkpt>
      <trkpt lat="47.78056" lon="-3.64834">
        <ele>20</ele>
        <time>2018-07-18T12:34:32Z</time>
      </trkpt>
      <trkpt lat="47.78052" lon="-3.64837">
        <ele>20</ele>
        <time>2018-07-18T12:34:33Z</time>
      </trkpt>
      <trkpt lat="47.78048" lon="-3.6484">
        <ele>20</ele>
        <time>2018-07-18T12:34:34Z</time>
      </trkpt>
      <trkpt lat="47.78044" lon="-3.64845">
        <ele>20</ele>
        <time>2018-07-18T12:34:35Z</time>
      </trkpt>
      <trkpt lat="47.7804" lon="-3.6485">
        <ele>20</ele>
        <time>2018-07-18T12:34:36Z</time>
      </trkpt>
      <trkpt lat="47.78037" lon="-3.64854">
        <ele>19</ele>
        <time>2018-07-18T12:34:37Z</time>
      </trkpt>
      <trkpt lat="47.78033" lon="-3.64859">
        <ele>19</ele>
        <time>2018-07-18T12:34:38Z</time>
      </trkpt>
      <trkpt lat="47.7803" lon="-3.64863">
        <ele>19</ele>
        <time>2018-07-18T12:34:39Z</time>
      </trkpt>
      <trkpt lat="47.78028" lon="-3.64866">
        <ele>19</ele>
        <time>2018-07-18T12:34:40Z</time>
      </trkpt>
      <trkpt lat="47.78026" lon="-3.64867">
        <ele>19</ele>
        <time>2018-07-18T12:34:41Z</time>
      </trkpt>
      <trkpt lat="47.78023" lon="-3.64868">
        <ele>18</ele>
        <time>2018-07-18T12:34:42Z</time>
      </trkpt>
      <trkpt lat="47.78021" lon="-3.64868">
        <ele>18</ele>
        <time>2018-07-18T12:34:43Z</time>
      </trkpt>
      <trkpt lat="47.78019" lon="-3.64868">
        <ele>18</ele>
        <time>2018-07-18T12:34:44Z</time>
      </trkpt>
      <trkpt lat="47.78018" lon="-3.64869">
        <ele>18</ele>
        <time>2018-07-18T12:34:45Z</time>
      </trkpt>
      <trkpt lat="47.78018" lon="-3.64869">
        <ele>18</ele>
        <time>2018-07-18T12:34:46Z</time>
      </trkpt>
      <trkpt lat="47.78018" lon="-3.64869">
        <ele>18</ele>
        <time>2018-07-18T12:34:47Z</time>
      </trkpt>
      <trkpt lat="47.78018" lon="-3.64869">
        <ele>18</ele>
        <time>2018-07-18T12:34:48Z</time>
      </trkpt>
      <trkpt lat="47.78018" lon="-3.64869">
        <ele>18</ele>
        <time>2018-07-18T12:34:49Z</time>
      </trkpt>
      <trkpt lat="47.78016" lon="-3.6487">
        <ele>18</ele>
        <time>2018-07-18T12:34:50Z</time>
      </trkpt>
      <trkpt lat="47.78014" lon="-3.6487">
        <ele>18</ele>
        <time>2018-07-18T12:34:51Z</time>
      </trkpt>
      <trkpt lat="47.78012" lon="-3.64869">
        <ele>18</ele>
        <time>2018-07-18T12:34:52Z</time>
      </trkpt>
      <trkpt lat="47.78009" lon="-3.64868">
        <ele>18</ele>
        <time>2018-07-18T12:34:53Z</time>
      </trkpt>
      <trkpt lat="47.78006" lon="-3.64868">
        <ele>18</ele>
        <time>2018-07-18T12:34:54Z</time>
      </trkpt>
      <trkpt lat="47.78002" lon="-3.64867">
        <ele>18</ele>
        <time>2018-07-18T12:34:55Z</time>
      </trkpt>
      <trkpt lat="47.77999" lon="-3.64867">
        <ele>18</ele>
        <time>2018-07-18T12:34:56Z</time>
      </trkpt>
      <trkpt lat="47.77996" lon="-3.64867">
        <ele>18</ele>
        <time>2018-07-18T12:34:57Z</time>
      </trkpt>
      <trkpt lat="47.77993" lon="-3.64867">
        <ele>18</ele>
        <time>2018-07-18T12:34:58Z</time>
      </trkpt>
      <trkpt lat="47.77989" lon="-3.64868">
        <ele>18</ele>
        <time>2018-07-18T12:34:59Z</time>
      </trkpt>
      <trkpt lat="47.77987" lon="-3.64869">
        <ele>19</ele>
        <time>2018-07-18T12:35:00Z</time>
      </trkpt>
      <trkpt lat="47.77985" lon="-3.6487">
        <ele>19</ele>
        <time>2018-07-18T12:35:01Z</time>
      </trkpt>
      <trkpt lat="47.77983" lon="-3.64873">
        <ele>19</ele>
        <time>2018-07-18T12:35:02Z</time>
      </trkpt>
      <trkpt lat="47.77982" lon="-3.64875">
        <ele>19</ele>
        <time>2018-07-18T12:35:03Z</time>
      </trkpt>
      <trkpt lat="47.77981" lon="-3.64879">
        <ele>19</ele>
        <time>2018-07-18T12:35:04Z</time>
      </trkpt>
      <trkpt lat="47.7798" lon="-3.64882">
        <ele>18</ele>
        <time>2018-07-18T12:35:05Z</time>
      </trkpt>
      <trkpt lat="47.77978" lon="-3.64885">
        <ele>18</ele>
        <time>2018-07-18T12:35:06Z</time>
      </trkpt>
      <trkpt lat="47.77975" lon="-3.64886">
        <ele>18</ele>
        <time>2018-07-18T12:35:07Z</time>
      </trkpt>
      <trkpt lat="47.77973" lon="-3.64884">
        <ele>18</ele>
        <time>2018-07-18T12:35:08Z</time>
      </trkpt>
      <trkpt lat="47.7797" lon="-3.64881">
        <ele>18</ele>
        <time>2018-07-18T12:35:09Z</time>
      </trkpt>
      <trkpt lat="47.77969" lon="-3.64878">
        <ele>18</ele>
        <time>2018-07-18T12:35:10Z</time>
      </trkpt>
      <trkpt lat="47.77968" lon="-3.64873">
        <ele>18</ele>
        <time>2018-07-18T12:35:11Z</time>
      </trkpt>
      <trkpt lat="47.77967" lon="-3.64868">
        <ele>18</ele>
        <time>2018-07-18T12:35:12Z</time>
      </trkpt>
      <trkpt lat="47.77967" lon="-3.64862">
        <ele>18</ele>
        <time>2018-07-18T12:35:13Z</time>
      </trkpt>
      <trkpt lat="47.77966" lon="-3.64856">
        <ele>18</ele>
        <time>2018-07-18T12:35:14Z</time>
      </trkpt>
      <trkpt lat="47.77966" lon="-3.64851">
        <ele>19</ele>
        <time>2018-07-18T12:35:15Z</time>
      </trkpt>
      <trkpt lat="47.77966" lon="-3.64846">
        <ele>19</ele>
        <time>2018-07-18T12:35:16Z</time>
      </trkpt>
      <trkpt lat="47.77966" lon="-3.64843">
        <ele>19</ele>
        <time>2018-07-18T12:35:17Z</time>
      </trkpt>
      <trkpt lat="47.77965" lon="-3.64839">
        <ele>19</ele>
        <time>2018-07-18T12:35:18Z</time>
      </trkpt>
      <trkpt lat="47.77963" lon="-3.64836">
        <ele>19</ele>
        <time>2018-07-18T12:35:19Z</time>
      </trkpt>
      <trkpt lat="47.7796" lon="-3.64834">
        <ele>19</ele>
        <time>2018-07-18T12:35:20Z</time>
      </trkpt>
      <trkpt lat="47.77959" lon="-3.6483">
        <ele>18</ele>
        <time>2018-07-18T12:35:21Z</time>
      </trkpt>
      <trkpt lat="47.77956" lon="-3.64826">
        <ele>18</ele>
        <time>2018-07-18T12:35:22Z</time>
      </trkpt>
      <trkpt lat="47.77955" lon="-3.64823">
        <ele>18</ele>
        <time>2018-07-18T12:35:23Z</time>
      </trkpt>
      <trkpt lat="47.77955" lon="-3.64821">
        <ele>18</ele>
        <time>2018-07-18T12:35:24Z</time>
      </trkpt>
      <trkpt lat="47.77954" lon="-3.64819">
        <ele>18</ele>
        <time>2018-07-18T12:35:25Z</time>
      </trkpt>
      <trkpt lat="47.77954" lon="-3.64817">
        <ele>18</ele>
        <time>2018-07-18T12:35:26Z</time>
      </trkpt>
      <trkpt lat="47.77954" lon="-3.64815">
        <ele>18</ele>
        <time>2018-07-18T12:35:27Z</time>
      </trkpt>
      <trkpt lat="47.77954" lon="-3.64814">
        <ele>17</ele>
        <time>2018-07-18T12:35:28Z</time>
      </trkpt>
      <trkpt lat="47.77953" lon="-3.64811">
        <ele>17</ele>
        <time>2018-07-18T12:35:29Z</time>
      </trkpt>
      <trkpt lat="47.77953" lon="-3.64809">
        <ele>17</ele>
        <time>2018-07-18T12:35:30Z</time>
      </trkpt>
      <trkpt lat="47.77953" lon="-3.64808">
        <ele>17</ele>
        <time>2018-07-18T12:35:31Z</time>
      </trkpt>
      <trkpt lat="47.77954" lon="-3.64807">
        <ele>17</ele>
        <time>2018-07-18T12:35:32Z</time>
      </trkpt>
      <trkpt lat="47.77953" lon="-3.64807">
        <ele>17</ele>
        <time>2018-07-18T12:35:33Z</time>
      </trkpt>
      <trkpt lat="47.77953" lon="-3.64807">
        <ele>17</ele>
        <time>2018-07-18T12:35:34Z</time>
      </trkpt>
      <trkpt lat="47.77953" lon="-3.64807">
        <ele>17</ele>
        <time>2018-07-18T12:35:35Z</time>
      </trkpt>
      <trkpt lat="47.77952" lon="-3.64806">
        <ele>17</ele>
        <time>2018-07-18T12:35:36Z</time>
      </trkpt>
      <trkpt lat="47.77952" lon="-3.64805">
        <ele>17</ele>
        <time>2018-07-18T12:35:37Z</time>
      </trkpt>
      <trkpt lat="47.77952" lon="-3.64805">
        <ele>17</ele>
        <time>2018-07-18T12:35:38Z</time>
      </trkpt>
      <trkpt lat="47.77952" lon="-3.64804">
        <ele>17</ele>
        <time>2018-07-18T12:35:39Z</time>
      </trkpt>
      <trkpt lat="47.77952" lon="-3.64803">
        <ele>16</ele>
        <time>2018-07-18T12:35:40Z</time>
      </trkpt>
      <trkpt lat="47.77952" lon="-3.64801">
        <ele>16</ele>
        <time>2018-07-18T12:35:41Z</time>
      </trkpt>
      <trkpt lat="47.77952" lon="-3.64801">
        <ele>16</ele>
        <time>2018-07-18T12:35:42Z</time>
      </trkpt>
      <trkpt lat="47.77952" lon="-3.648">
        <ele>16</ele>
        <time>2018-07-18T12:35:43Z</time>
      </trkpt>
      <trkpt lat="47.77952" lon="-3.648">
        <ele>16</ele>
        <time>2018-07-18T12:35:44Z</time>
      </trkpt>
      <trkpt lat="47.77952" lon="-3.64799">
        <ele>16</ele>
        <time>2018-07-18T12:35:45Z</time>
      </trkpt>
      <trkpt lat="47.77952" lon="-3.64796">
        <ele>16</ele>
        <time>2018-07-18T12:35:46Z</time>
      </trkpt>
      <trkpt lat="47.77952" lon="-3.64792">
        <ele>16</ele>
        <time>2018-07-18T12:35:47Z</time>
      </trkpt>
      <trkpt lat="47.7795" lon="-3.64787">
        <ele>15</ele>
        <time>2018-07-18T12:35:48Z</time>
      </trkpt>
      <trkpt lat="47.7795" lon="-3.64781">
        <ele>15</ele>
        <time>2018-07-18T12:35:49Z</time>
      </trkpt>
      <trkpt lat="47.7795" lon="-3.64775">
        <ele>15</ele>
        <time>2018-07-18T12:35:50Z</time>
      </trkpt>
      <trkpt lat="47.77948" lon="-3.6477">
        <ele>14</ele>
        <time>2018-07-18T12:35:51Z</time>
      </trkpt>
      <trkpt lat="47.77946" lon="-3.64766">
        <ele>14</ele>
        <time>2018-07-18T12:35:52Z</time>
      </trkpt>
      <trkpt lat="47.77944" lon="-3.64761">
        <ele>14</ele>
        <time>2018-07-18T12:35:53Z</time>
      </trkpt>
      <trkpt lat="47.77943" lon="-3.64758">
        <ele>14</ele>
        <time>2018-07-18T12:35:54Z</time>
      </trkpt>
      <trkpt lat="47.77941" lon="-3.64757">
        <ele>14</ele>
        <time>2018-07-18T12:35:55Z</time>
      </trkpt>
      <trkpt lat="47.77939" lon="-3.64756">
        <ele>14</ele>
        <time>2018-07-18T12:35:56Z</time>
      </trkpt>
      <trkpt lat="47.77937" lon="-3.64756">
        <ele>14</ele>
        <time>2018-07-18T12:35:57Z</time>
      </trkpt>
      <trkpt lat="47.77935" lon="-3.64757">
        <ele>14</ele>
        <time>2018-07-18T12:35:58Z</time>
      </trkpt>
      <trkpt lat="47.77933" lon="-3.64757">
        <ele>14</ele>
        <time>2018-07-18T12:35:59Z</time>
      </trkpt>
      <trkpt lat="47.77931" lon="-3.64757">
        <ele>13</ele>
        <time>2018-07-18T12:36:00Z</time>
      </trkpt>
      <trkpt lat="47.77928" lon="-3.64756">
        <ele>13</ele>
        <time>2018-07-18T12:36:01Z</time>
      </trkpt>
      <trkpt lat="47.77925" lon="-3.64755">
        <ele>13</ele>
        <time>2018-07-18T12:36:02Z</time>
      </trkpt>
      <trkpt lat="47.77923" lon="-3.64752">
        <ele>13</ele>
        <time>2018-07-18T12:36:03Z</time>
      </trkpt>
      <trkpt lat="47.7792" lon="-3.64749">
        <ele>13</ele>
        <time>2018-07-18T12:36:04Z</time>
      </trkpt>
      <trkpt lat="47.77919" lon="-3.64745">
        <ele>13</ele>
        <time>2018-07-18T12:36:05Z</time>
      </trkpt>
      <trkpt lat="47.77917" lon="-3.64742">
        <ele>13</ele>
        <time>2018-07-18T12:36:06Z</time>
      </trkpt>
      <trkpt lat="47.77916" lon="-3.64738">
        <ele>13</ele>
        <time>2018-07-18T12:36:07Z</time>
      </trkpt>
      <trkpt lat="47.77914" lon="-3.64735">
        <ele>13</ele>
        <time>2018-07-18T12:36:08Z</time>
      </trkpt>
      <trkpt lat="47.77911" lon="-3.64732">
        <ele>13</ele>
        <time>2018-07-18T12:36:09Z</time>
      </trkpt>
      <trkpt lat="47.77909" lon="-3.64728">
        <ele>13</ele>
        <time>2018-07-18T12:36:10Z</time>
      </trkpt>
      <trkpt lat="47.77907" lon="-3.64723">
        <ele>13</ele>
        <time>2018-07-18T12:36:11Z</time>
      </trkpt>
      <trkpt lat="47.77906" lon="-3.64718">
        <ele>13</ele>
        <time>2018-07-18T12:36:12Z</time>
      </trkpt>
      <trkpt lat="47.77905" lon="-3.64712">
        <ele>13</ele>
        <time>2018-07-18T12:36:13Z</time>
      </trkpt>
      <trkpt lat="47.77905" lon="-3.64708">
        <ele>13</ele>
        <time>2018-07-18T12:36:14Z</time>
      </trkpt>
      <trkpt lat="47.77904" lon="-3.64703">
        <ele>13</ele>
        <time>2018-07-18T12:36:15Z</time>
      </trkpt>
      <trkpt lat="47.77904" lon="-3.64699">
        <ele>13</ele>
        <time>2018-07-18T12:36:16Z</time>
      </trkpt>
      <trkpt lat="47.77904" lon="-3.64694">
        <ele>13</ele>
        <time>2018-07-18T12:36:17Z</time>
      </trkpt>
      <trkpt lat="47.77905" lon="-3.6469">
        <ele>13</ele>
        <time>2018-07-18T12:36:18Z</time>
      </trkpt>
      <trkpt lat="47.77905" lon="-3.64686">
        <ele>14</ele>
        <time>2018-07-18T12:36:19Z</time>
      </trkpt>
      <trkpt lat="47.77906" lon="-3.64683">
        <ele>14</ele>
        <time>2018-07-18T12:36:20Z</time>
      </trkpt>
      <trkpt lat="47.77905" lon="-3.64679">
        <ele>14</ele>
        <time>2018-07-18T12:36:21Z</time>
      </trkpt>
      <trkpt lat="47.77906" lon="-3.64675">
        <ele>14</ele>
        <time>2018-07-18T12:36:22Z</time>
      </trkpt>
      <trkpt lat="47.77907" lon="-3.64671">
        <ele>14</ele>
        <time>2018-07-18T12:36:23Z</time>
      </trkpt>
      <trkpt lat="47.77907" lon="-3.64667">
        <ele>14</ele>
        <time>2018-07-18T12:36:24Z</time>
      </trkpt>
      <trkpt lat="47.77907" lon="-3.64662">
        <ele>14</ele>
        <time>2018-07-18T12:36:25Z</time>
      </trkpt>
      <trkpt lat="47.77906" lon="-3.64657">
        <ele>13</ele>
        <time>2018-07-18T12:36:26Z</time>
      </trkpt>
      <trkpt lat="47.77906" lon="-3.64652">
        <ele>13</ele>
        <time>2018-07-18T12:36:27Z</time>
      </trkpt>
      <trkpt lat="47.77906" lon="-3.64647">
        <ele>13</ele>
        <time>2018-07-18T12:36:28Z</time>
      </trkpt>
      <trkpt lat="47.77906" lon="-3.64644">
        <ele>13</ele>
        <time>2018-07-18T12:36:29Z</time>
      </trkpt>
      <trkpt lat="47.77906" lon="-3.6464">
        <ele>13</ele>
        <time>2018-07-18T12:36:30Z</time>
      </trkpt>
      <trkpt lat="47.77904" lon="-3.64639">
        <ele>13</ele>
        <time>2018-07-18T12:36:31Z</time>
      </trkpt>
      <trkpt lat="47.77902" lon="-3.64637">
        <ele>12</ele>
        <time>2018-07-18T12:36:32Z</time>
      </trkpt>
      <trkpt lat="47.779" lon="-3.64637">
        <ele>12</ele>
        <time>2018-07-18T12:36:33Z</time>
      </trkpt>
      <trkpt lat="47.779" lon="-3.64636">
        <ele>12</ele>
        <time>2018-07-18T12:36:34Z</time>
      </trkpt>
      <trkpt lat="47.779" lon="-3.64636">
        <ele>12</ele>
        <time>2018-07-18T12:36:35Z</time>
      </trkpt>
      <trkpt lat="47.779" lon="-3.64636">
        <ele>12</ele>
        <time>2018-07-18T12:36:36Z</time>
      </trkpt>
      <trkpt lat="47.779" lon="-3.64636">
        <ele>12</ele>
        <time>2018-07-18T12:36:37Z</time>
      </trkpt>
      <trkpt lat="47.77899" lon="-3.64637">
        <ele>11</ele>
        <time>2018-07-18T12:36:38Z</time>
      </trkpt>
      <trkpt lat="47.77898" lon="-3.64637">
        <ele>11</ele>
        <time>2018-07-18T12:36:39Z</time>
      </trkpt>
      <trkpt lat="47.77898" lon="-3.64637">
        <ele>11</ele>
        <time>2018-07-18T12:36:40Z</time>
      </trkpt>
      <trkpt lat="47.77897" lon="-3.64638">
        <ele>11</ele>
        <time>2018-07-18T12:36:41Z</time>
      </trkpt>
      <trkpt lat="47.77897" lon="-3.64638">
        <ele>10</ele>
        <time>2018-07-18T12:36:42Z</time>
      </trkpt>
      <trkpt lat="47.77896" lon="-3.64639">
        <ele>10</ele>
        <time>2018-07-18T12:36:43Z</time>
      </trkpt>
      <trkpt lat="47.77896" lon="-3.64639">
        <ele>10</ele>
        <time>2018-07-18T12:36:44Z</time>
      </trkpt>
      <trkpt lat="47.77895" lon="-3.64639">
        <ele>9</ele>
        <time>2018-07-18T12:36:45Z</time>
      </trkpt>
      <trkpt lat="47.77894" lon="-3.64639">
        <ele>9</ele>
        <time>2018-07-18T12:36:46Z</time>
      </trkpt>
      <trkpt lat="47.77894" lon="-3.64639">
        <ele>9</ele>
        <time>2018-07-18T12:36:47Z</time>
      </trkpt>
      <trkpt lat="47.77893" lon="-3.64638">
        <ele>8</ele>
        <time>2018-07-18T12:36:48Z</time>
      </trkpt>
      <trkpt lat="47.77893" lon="-3.64637">
        <ele>8</ele>
        <time>2018-07-18T12:36:49Z</time>
      </trkpt>
      <trkpt lat="47.77893" lon="-3.64637">
        <ele>8</ele>
        <time>2018-07-18T12:36:50Z</time>
      </trkpt>
      <trkpt lat="47.77892" lon="-3.64636">
        <ele>7</ele>
        <time>2018-07-18T12:36:51Z</time>
      </trkpt>
      <trkpt lat="47.77892" lon="-3.64636">
        <ele>7</ele>
        <time>2018-07-18T12:36:52Z</time>
      </trkpt>
      <trkpt lat="47.77891" lon="-3.64635">
        <ele>7</ele>
        <time>2018-07-18T12:36:53Z</time>
      </trkpt>
      <trkpt lat="47.7789" lon="-3.64635">
        <ele>6</ele>
        <time>2018-07-18T12:36:54Z</time>
      </trkpt>
      <trkpt lat="47.77889" lon="-3.64634">
        <ele>6</ele>
        <time>2018-07-18T12:36:55Z</time>
      </trkpt>
      <trkpt lat="47.77889" lon="-3.64634">
        <ele>6</ele>
        <time>2018-07-18T12:36:56Z</time>
      </trkpt>
      <trkpt lat="47.77888" lon="-3.64633">
        <ele>6</ele>
        <time>2018-07-18T12:36:57Z</time>
      </trkpt>
      <trkpt lat="47.77887" lon="-3.64632">
        <ele>5</ele>
        <time>2018-07-18T12:36:58Z</time>
      </trkpt>
      <trkpt lat="47.77887" lon="-3.64631">
        <ele>5</ele>
        <time>2018-07-18T12:36:59Z</time>
      </trkpt>
      <trkpt lat="47.77886" lon="-3.6463">
        <ele>5</ele>
        <time>2018-07-18T12:37:00Z</time>
      </trkpt>
      <trkpt lat="47.77885" lon="-3.64628">
        <ele>5</ele>
        <time>2018-07-18T12:37:01Z</time>
      </trkpt>
      <trkpt lat="47.77884" lon="-3.64627">
        <ele>5</ele>
        <time>2018-07-18T12:37:02Z</time>
      </trkpt>
      <trkpt lat="47.77883" lon="-3.64626">
        <ele>5</ele>
        <time>2018-07-18T12:37:03Z</time>
      </trkpt>
      <trkpt lat="47.77883" lon="-3.64626">
        <ele>5</ele>
        <time>2018-07-18T12:37:04Z</time>
      </trkpt>
      <trkpt lat="47.77882" lon="-3.64625">
        <ele>5</ele>
        <time>2018-07-18T12:37:05Z</time>
      </trkpt>
      <trkpt lat="47.77881" lon="-3.64626">
        <ele>5</ele>
        <time>2018-07-18T12:37:06Z</time>
      </trkpt>
      <trkpt lat="47.77881" lon="-3.64626">
        <ele>5</ele>
        <time>2018-07-18T12:37:07Z</time>
      </trkpt>
      <trkpt lat="47.77881" lon="-3.64626">
        <ele>5</ele>
        <time>2018-07-18T12:37:08Z</time>
      </trkpt>
      <trkpt lat="47.77881" lon="-3.64626">
        <ele>5</ele>
        <time>2018-07-18T12:37:09Z</time>
      </trkpt>
      <trkpt lat="47.7788" lon="-3.64625">
        <ele>5</ele>
        <time>2018-07-18T12:37:10Z</time>
      </trkpt>
      <trkpt lat="47.77879" lon="-3.64625">
        <ele>5</ele>
        <time>2018-07-18T12:37:11Z</time>
      </trkpt>
      <trkpt lat="47.77877" lon="-3.64625">
        <ele>5</ele>
        <time>2018-07-18T12:37:12Z</time>
      </trkpt>
      <trkpt lat="47.77876" lon="-3.64625">
        <ele>5</ele>
        <time>2018-07-18T12:37:13Z</time>
      </trkpt>
      <trkpt lat="47.77874" lon="-3.64626">
        <ele>5</ele>
        <time>2018-07-18T12:37:14Z</time>
      </trkpt>
      <trkpt lat="47.77874" lon="-3.64626">
        <ele>5</ele>
        <time>2018-07-18T12:37:15Z</time>
      </trkpt>
      <trkpt lat="47.77873" lon="-3.64626">
        <ele>5</ele>
        <time>2018-07-18T12:37:16Z</time>
      </trkpt>
      <trkpt lat="47.77873" lon="-3.64626">
        <ele>5</ele>
        <time>2018-07-18T12:37:17Z</time>
      </trkpt>
      <trkpt lat="47.77872" lon="-3.64626">
        <ele>5</ele>
        <time>2018-07-18T12:37:18Z</time>
      </trkpt>
      <trkpt lat="47.77871" lon="-3.64626">
        <ele>5</ele>
        <time>2018-07-18T12:37:19Z</time>
      </trkpt>
      <trkpt lat="47.7787" lon="-3.64626">
        <ele>6</ele>
        <time>2018-07-18T12:37:20Z</time>
      </trkpt>
      <trkpt lat="47.7787" lon="-3.64626">
        <ele>6</ele>
        <time>2018-07-18T12:37:21Z</time>
      </trkpt>
      <trkpt lat="47.77869" lon="-3.64626">
        <ele>6</ele>
        <time>2018-07-18T12:37:22Z</time>
      </trkpt>
      <trkpt lat="47.77868" lon="-3.64626">
        <ele>6</ele>
        <time>2018-07-18T12:37:23Z</time>
      </trkpt>
      <trkpt lat="47.77867" lon="-3.64625">
        <ele>6</ele>
        <time>2018-07-18T12:37:24Z</time>
      </trkpt>
      <trkpt lat="47.77867" lon="-3.64624">
        <ele>6</ele>
        <time>2018-07-18T12:37:25Z</time>
      </trkpt>
      <trkpt lat="47.77866" lon="-3.64623">
        <ele>6</ele>
        <time>2018-07-18T12:37:26Z</time>
      </trkpt>
      <trkpt lat="47.77865" lon="-3.64621">
        <ele>6</ele>
        <time>2018-07-18T12:37:27Z</time>
      </trkpt>
      <trkpt lat="47.77864" lon="-3.6462">
        <ele>6</ele>
        <time>2018-07-18T12:37:28Z</time>
      </trkpt>
      <trkpt lat="47.77864" lon="-3.6462">
        <ele>6</ele>
        <time>2018-07-18T12:37:29Z</time>
      </trkpt>
      <trkpt lat="47.77864" lon="-3.6462">
        <ele>6</ele>
        <time>2018-07-18T12:37:30Z</time>
      </trkpt>
      <trkpt lat="47.77864" lon="-3.6462">
        <ele>6</ele>
        <time>2018-07-18T12:37:31Z</time>
      </trkpt>
      <trkpt lat="47.77864" lon="-3.6462">
        <ele>6</ele>
        <time>2018-07-18T12:37:32Z</time>
      </trkpt>
      <trkpt lat="47.77863" lon="-3.6462">
        <ele>6</ele>
        <time>2018-07-18T12:37:33Z</time>
      </trkpt>
      <trkpt lat="47.77863" lon="-3.64619">
        <ele>6</ele>
        <time>2018-07-18T12:37:34Z</time>
      </trkpt>
      <trkpt lat="47.77862" lon="-3.64618">
        <ele>6</ele>
        <time>2018-07-18T12:37:35Z</time>
      </trkpt>
      <trkpt lat="47.77861" lon="-3.64618">
        <ele>6</ele>
        <time>2018-07-18T12:37:36Z</time>
      </trkpt>
      <trkpt lat="47.77861" lon="-3.64618">
        <ele>6</ele>
        <time>2018-07-18T12:37:37Z</time>
      </trkpt>
      <trkpt lat="47.77861" lon="-3.64618">
        <ele>6</ele>
        <time>2018-07-18T12:37:38Z</time>
      </trkpt>
      <trkpt lat="47.7786" lon="-3.64618">
        <ele>6</ele>
        <time>2018-07-18T12:37:39Z</time>
      </trkpt>
      <trkpt lat="47.77859" lon="-3.64617">
        <ele>6</ele>
        <time>2018-07-18T12:37:40Z</time>
      </trkpt>
      <trkpt lat="47.77857" lon="-3.64616">
        <ele>6</ele>
        <time>2018-07-18T12:37:41Z</time>
      </trkpt>
      <trkpt lat="47.77856" lon="-3.64615">
        <ele>6</ele>
        <time>2018-07-18T12:37:42Z</time>
      </trkpt>
      <trkpt lat="47.77854" lon="-3.64613">
        <ele>6</ele>
        <time>2018-07-18T12:37:43Z</time>
      </trkpt>
      <trkpt lat="47.77853" lon="-3.64612">
        <ele>7</ele>
        <time>2018-07-18T12:37:44Z</time>
      </trkpt>
      <trkpt lat="47.77851" lon="-3.6461">
        <ele>7</ele>
        <time>2018-07-18T12:37:45Z</time>
      </trkpt>
      <trkpt lat="47.7785" lon="-3.64609">
        <ele>7</ele>
        <time>2018-07-18T12:37:46Z</time>
      </trkpt>
      <trkpt lat="47.77848" lon="-3.64608">
        <ele>7</ele>
        <time>2018-07-18T12:37:47Z</time>
      </trkpt>
      <trkpt lat="47.77846" lon="-3.64607">
        <ele>8</ele>
        <time>2018-07-18T12:37:48Z</time>
      </trkpt>
      <trkpt lat="47.77844" lon="-3.64606">
        <ele>8</ele>
        <time>2018-07-18T12:37:49Z</time>
      </trkpt>
      <trkpt lat="47.77842" lon="-3.64605">
        <ele>8</ele>
        <time>2018-07-18T12:37:50Z</time>
      </trkpt>
      <trkpt lat="47.7784" lon="-3.64604">
        <ele>8</ele>
        <time>2018-07-18T12:37:51Z</time>
      </trkpt>
      <trkpt lat="47.77838" lon="-3.64603">
        <ele>9</ele>
        <time>2018-07-18T12:37:52Z</time>
      </trkpt>
      <trkpt lat="47.77836" lon="-3.64601">
        <ele>9</ele>
        <time>2018-07-18T12:37:53Z</time>
      </trkpt>
      <trkpt lat="47.77834" lon="-3.646">
        <ele>9</ele>
        <time>2018-07-18T12:37:54Z</time>
      </trkpt>
      <trkpt lat="47.77832" lon="-3.64599">
        <ele>9</ele>
        <time>2018-07-18T12:37:55Z</time>
      </trkpt>
      <trkpt lat="47.7783" lon="-3.64598">
        <ele>10</ele>
        <time>2018-07-18T12:37:56Z</time>
      </trkpt>
      <trkpt lat="47.77828" lon="-3.64597">
        <ele>10</ele>
        <time>2018-07-18T12:37:57Z</time>
      </trkpt>
      <trkpt lat="47.77827" lon="-3.64595">
        <ele>10</ele>
        <time>2018-07-18T12:37:58Z</time>
      </trkpt>
      <trkpt lat="47.77825" lon="-3.64594">
        <ele>10</ele>
        <time>2018-07-18T12:37:59Z</time>
      </trkpt>
      <trkpt lat="47.77822" lon="-3.64592">
        <ele>10</ele>
        <time>2018-07-18T12:38:00Z</time>
      </trkpt>
      <trkpt lat="47.7782" lon="-3.64591">
        <ele>10</ele>
        <time>2018-07-18T12:38:01Z</time>
      </trkpt>
      <trkpt lat="47.77817" lon="-3.6459">
        <ele>11</ele>
        <time>2018-07-18T12:38:02Z</time>
      </trkpt>
      <trkpt lat="47.77815" lon="-3.64588">
        <ele>11</ele>
        <time>2018-07-18T12:38:03Z</time>
      </trkpt>
      <trkpt lat="47.77812" lon="-3.64587">
        <ele>11</ele>
        <time>2018-07-18T12:38:04Z</time>
      </trkpt>
      <trkpt lat="47.7781" lon="-3.64585">
        <ele>11</ele>
        <time>2018-07-18T12:38:05Z</time>
      </trkpt>
      <trkpt lat="47.77808" lon="-3.64583">
        <ele>11</ele>
        <time>2018-07-18T12:38:06Z</time>
      </trkpt>
      <trkpt lat="47.77806" lon="-3.64582">
        <ele>11</ele>
        <time>2018-07-18T12:38:07Z</time>
      </trkpt>
      <trkpt lat="47.77803" lon="-3.64581">
        <ele>12</ele>
        <time>2018-07-18T12:38:08Z</time>
      </trkpt>
      <trkpt lat="47.77801" lon="-3.6458">
        <ele>12</ele>
        <time>2018-07-18T12:38:09Z</time>
      </trkpt>
      <trkpt lat="47.77798" lon="-3.6458">
        <ele>12</ele>
        <time>2018-07-18T12:38:10Z</time>
      </trkpt>
      <trkpt lat="47.77796" lon="-3.64579">
        <ele>12</ele>
        <time>2018-07-18T12:38:11Z</time>
      </trkpt>
      <trkpt lat="47.77794" lon="-3.6458">
        <ele>13</ele>
        <time>2018-07-18T12:38:12Z</time>
      </trkpt>
      <trkpt lat="47.77791" lon="-3.6458">
        <ele>13</ele>
        <time>2018-07-18T12:38:13Z</time>
      </trkpt>
      <trkpt lat="47.77788" lon="-3.6458">
        <ele>13</ele>
        <time>2018-07-18T12:38:14Z</time>
      </trkpt>
      <trkpt lat="47.77784" lon="-3.6458">
        <ele>13</ele>
        <time>2018-07-18T12:38:15Z</time>
      </trkpt>
      <trkpt lat="47.7778" lon="-3.64578">
        <ele>13</ele>
        <time>2018-07-18T12:38:16Z</time>
      </trkpt>
      <trkpt lat="47.77776" lon="-3.64576">
        <ele>13</ele>
        <time>2018-07-18T12:38:17Z</time>
      </trkpt>
      <trkpt lat="47.77773" lon="-3.64573">
        <ele>13</ele>
        <time>2018-07-18T12:38:18Z</time>
      </trkpt>
      <trkpt lat="47.77772" lon="-3.64571">
        <ele>13</ele>
        <time>2018-07-18T12:38:19Z</time>
      </trkpt>
      <trkpt lat="47.77772" lon="-3.64571">
        <ele>13</ele>
        <time>2018-07-18T12:38:20Z</time>
      </trkpt>
      <trkpt lat="47.77772" lon="-3.64571">
        <ele>13</ele>
        <time>2018-07-18T12:38:21Z</time>
      </trkpt>
      <trkpt lat="47.77772" lon="-3.64571">
        <ele>13</ele>
        <time>2018-07-18T12:38:22Z</time>
      </trkpt>
      <trkpt lat="47.77772" lon="-3.64571">
        <ele>13</ele>
        <time>2018-07-18T12:38:23Z</time>
      </trkpt>
      <trkpt lat="47.7777" lon="-3.6457">
        <ele>13</ele>
        <time>2018-07-18T12:38:24Z</time>
      </trkpt>
      <trkpt lat="47.7777" lon="-3.6457">
        <ele>13</ele>
        <time>2018-07-18T12:38:25Z</time>
      </trkpt>
      <trkpt lat="47.77769" lon="-3.64569">
        <ele>13</ele>
        <time>2018-07-18T12:38:26Z</time>
      </trkpt>
      <trkpt lat="47.77768" lon="-3.64567">
        <ele>13</ele>
        <time>2018-07-18T12:38:27Z</time>
      </trkpt>
      <trkpt lat="47.77767" lon="-3.64566">
        <ele>13</ele>
        <time>2018-07-18T12:38:28Z</time>
      </trkpt>
      <trkpt lat="47.77765" lon="-3.64564">
        <ele>13</ele>
        <time>2018-07-18T12:38:29Z</time>
      </trkpt>
      <trkpt lat="47.77764" lon="-3.64563">
        <ele>13</ele>
        <time>2018-07-18T12:38:30Z</time>
      </trkpt>
      <trkpt lat="47.77764" lon="-3.64561">
        <ele>13</ele>
        <time>2018-07-18T12:38:31Z</time>
      </trkpt>
      <trkpt lat="47.77763" lon="-3.6456">
        <ele>14</ele>
        <time>2018-07-18T12:38:32Z</time>
      </trkpt>
      <trkpt lat="47.77762" lon="-3.64558">
        <ele>14</ele>
        <time>2018-07-18T12:38:33Z</time>
      </trkpt>
      <trkpt lat="47.77762" lon="-3.64556">
        <ele>14</ele>
        <time>2018-07-18T12:38:34Z</time>
      </trkpt>
      <trkpt lat="47.77761" lon="-3.64554">
        <ele>15</ele>
        <time>2018-07-18T12:38:35Z</time>
      </trkpt>
      <trkpt lat="47.7776" lon="-3.64551">
        <ele>15</ele>
        <time>2018-07-18T12:38:36Z</time>
      </trkpt>
      <trkpt lat="47.77759" lon="-3.64549">
        <ele>15</ele>
        <time>2018-07-18T12:38:37Z</time>
      </trkpt>
      <trkpt lat="47.77759" lon="-3.64548">
        <ele>15</ele>
        <time>2018-07-18T12:38:38Z</time>
      </trkpt>
      <trkpt lat="47.77757" lon="-3.64545">
        <ele>16</ele>
        <time>2018-07-18T12:38:39Z</time>
      </trkpt>
      <trkpt lat="47.77756" lon="-3.64544">
        <ele>16</ele>
        <time>2018-07-18T12:38:40Z</time>
      </trkpt>
      <trkpt lat="47.77755" lon="-3.64541">
        <ele>16</ele>
        <time>2018-07-18T12:38:41Z</time>
      </trkpt>
      <trkpt lat="47.77755" lon="-3.64539">
        <ele>16</ele>
        <time>2018-07-18T12:38:42Z</time>
      </trkpt>
      <trkpt lat="47.77754" lon="-3.64536">
        <ele>17</ele>
        <time>2018-07-18T12:38:43Z</time>
      </trkpt>
      <trkpt lat="47.77754" lon="-3.64534">
        <ele>17</ele>
        <time>2018-07-18T12:38:44Z</time>
      </trkpt>
      <trkpt lat="47.77755" lon="-3.64531">
        <ele>17</ele>
        <time>2018-07-18T12:38:45Z</time>
      </trkpt>
      <trkpt lat="47.77755" lon="-3.64529">
        <ele>18</ele>
        <time>2018-07-18T12:38:46Z</time>
      </trkpt>
      <trkpt lat="47.77755" lon="-3.64526">
        <ele>18</ele>
        <time>2018-07-18T12:38:47Z</time>
      </trkpt>
      <trkpt lat="47.77755" lon="-3.64523">
        <ele>18</ele>
        <time>2018-07-18T12:38:48Z</time>
      </trkpt>
      <trkpt lat="47.77755" lon="-3.64521">
        <ele>19</ele>
        <time>2018-07-18T12:38:49Z</time>
      </trkpt>
      <trkpt lat="47.77756" lon="-3.64518">
        <ele>19</ele>
        <time>2018-07-18T12:38:50Z</time>
      </trkpt>
      <trkpt lat="47.77756" lon="-3.64516">
        <ele>19</ele>
        <time>2018-07-18T12:38:51Z</time>
      </trkpt>
      <trkpt lat="47.77756" lon="-3.64513">
        <ele>19</ele>
        <time>2018-07-18T12:38:52Z</time>
      </trkpt>
      <trkpt lat="47.77755" lon="-3.64511">
        <ele>19</ele>
        <time>2018-07-18T12:38:53Z</time>
      </trkpt>
      <trkpt lat="47.77756" lon="-3.64508">
        <ele>20</ele>
        <time>2018-07-18T12:38:54Z</time>
      </trkpt>
      <trkpt lat="47.77756" lon="-3.64505">
        <ele>20</ele>
        <time>2018-07-18T12:38:55Z</time>
      </trkpt>
      <trkpt lat="47.77756" lon="-3.64502">
        <ele>20</ele>
        <time>2018-07-18T12:38:56Z</time>
      </trkpt>
      <trkpt lat="47.77756" lon="-3.64499">
        <ele>20</ele>
        <time>2018-07-18T12:38:57Z</time>
      </trkpt>
      <trkpt lat="47.77756" lon="-3.64496">
        <ele>20</ele>
        <time>2018-07-18T12:38:58Z</time>
      </trkpt>
      <trkpt lat="47.77757" lon="-3.64493">
        <ele>21</ele>
        <time>2018-07-18T12:38:59Z</time>
      </trkpt>
      <trkpt lat="47.77757" lon="-3.6449">
        <ele>21</ele>
        <time>2018-07-18T12:39:00Z</time>
      </trkpt>
      <trkpt lat="47.77758" lon="-3.64488">
        <ele>21</ele>
        <time>2018-07-18T12:39:01Z</time>
      </trkpt>
      <trkpt lat="47.77758" lon="-3.64485">
        <ele>21</ele>
        <time>2018-07-18T12:39:02Z</time>
      </trkpt>
      <trkpt lat="47.77758" lon="-3.64482">
        <ele>21</ele>
        <time>2018-07-18T12:39:03Z</time>
      </trkpt>
      <trkpt lat="47.77759" lon="-3.64479">
        <ele>22</ele>
        <time>2018-07-18T12:39:04Z</time>
      </trkpt>
      <trkpt lat="47.77759" lon="-3.64476">
        <ele>22</ele>
        <time>2018-07-18T12:39:05Z</time>
      </trkpt>
      <trkpt lat="47.77759" lon="-3.64473">
        <ele>22</ele>
        <time>2018-07-18T12:39:06Z</time>
      </trkpt>
      <trkpt lat="47.7776" lon="-3.6447">
        <ele>22</ele>
        <time>2018-07-18T12:39:07Z</time>
      </trkpt>
      <trkpt lat="47.7776" lon="-3.64468">
        <ele>22</ele>
        <time>2018-07-18T12:39:08Z</time>
      </trkpt>
      <trkpt lat="47.7776" lon="-3.64465">
        <ele>22</ele>
        <time>2018-07-18T12:39:09Z</time>
      </trkpt>
      <trkpt lat="47.77761" lon="-3.64462">
        <ele>23</ele>
        <time>2018-07-18T12:39:10Z</time>
      </trkpt>
      <trkpt lat="47.77761" lon="-3.64459">
        <ele>23</ele>
        <time>2018-07-18T12:39:11Z</time>
      </trkpt>
      <trkpt lat="47.77761" lon="-3.64456">
        <ele>23</ele>
        <time>2018-07-18T12:39:12Z</time>
      </trkpt>
      <trkpt lat="47.77762" lon="-3.64453">
        <ele>23</ele>
        <time>2018-07-18T12:39:13Z</time>
      </trkpt>
      <trkpt lat="47.77762" lon="-3.6445">
        <ele>23</ele>
        <time>2018-07-18T12:39:14Z</time>
      </trkpt>
      <trkpt lat="47.77762" lon="-3.64447">
        <ele>23</ele>
        <time>2018-07-18T12:39:15Z</time>
      </trkpt>
      <trkpt lat="47.77762" lon="-3.64443">
        <ele>24</ele>
        <time>2018-07-18T12:39:16Z</time>
      </trkpt>
      <trkpt lat="47.77762" lon="-3.6444">
        <ele>24</ele>
        <time>2018-07-18T12:39:17Z</time>
      </trkpt>
      <trkpt lat="47.77762" lon="-3.64437">
        <ele>24</ele>
        <time>2018-07-18T12:39:18Z</time>
      </trkpt>
      <trkpt lat="47.77762" lon="-3.64433">
        <ele>24</ele>
        <time>2018-07-18T12:39:19Z</time>
      </trkpt>
      <trkpt lat="47.77761" lon="-3.6443">
        <ele>24</ele>
        <time>2018-07-18T12:39:20Z</time>
      </trkpt>
      <trkpt lat="47.77761" lon="-3.64427">
        <ele>24</ele>
        <time>2018-07-18T12:39:21Z</time>
      </trkpt>
      <trkpt lat="47.7776" lon="-3.64423">
        <ele>24</ele>
        <time>2018-07-18T12:39:22Z</time>
      </trkpt>
      <trkpt lat="47.7776" lon="-3.6442">
        <ele>24</ele>
        <time>2018-07-18T12:39:23Z</time>
      </trkpt>
      <trkpt lat="47.7776" lon="-3.64416">
        <ele>24</ele>
        <time>2018-07-18T12:39:24Z</time>
      </trkpt>
      <trkpt lat="47.77759" lon="-3.64413">
        <ele>24</ele>
        <time>2018-07-18T12:39:25Z</time>
      </trkpt>
      <trkpt lat="47.77756" lon="-3.64411">
        <ele>24</ele>
        <time>2018-07-18T12:39:26Z</time>
      </trkpt>
      <trkpt lat="47.77754" lon="-3.6441">
        <ele>24</ele>
        <time>2018-07-18T12:39:27Z</time>
      </trkpt>
      <trkpt lat="47.77751" lon="-3.6441">
        <ele>24</ele>
        <time>2018-07-18T12:39:28Z</time>
      </trkpt>
      <trkpt lat="47.77748" lon="-3.6441">
        <ele>25</ele>
        <time>2018-07-18T12:39:29Z</time>
      </trkpt>
      <trkpt lat="47.77745" lon="-3.6441">
        <ele>25</ele>
        <time>2018-07-18T12:39:30Z</time>
      </trkpt>
      <trkpt lat="47.77742" lon="-3.6441">
        <ele>25</ele>
        <time>2018-07-18T12:39:31Z</time>
      </trkpt>
      <trkpt lat="47.77739" lon="-3.6441">
        <ele>25</ele>
        <time>2018-07-18T12:39:32Z</time>
      </trkpt>
      <trkpt lat="47.77735" lon="-3.6441">
        <ele>25</ele>
        <time>2018-07-18T12:39:33Z</time>
      </trkpt>
      <trkpt lat="47.77732" lon="-3.6441">
        <ele>25</ele>
        <time>2018-07-18T12:39:34Z</time>
      </trkpt>
      <trkpt lat="47.77728" lon="-3.6441">
        <ele>24</ele>
        <time>2018-07-18T12:39:35Z</time>
      </trkpt>
      <trkpt lat="47.77725" lon="-3.6441">
        <ele>24</ele>
        <time>2018-07-18T12:39:36Z</time>
      </trkpt>
      <trkpt lat="47.77721" lon="-3.6441">
        <ele>24</ele>
        <time>2018-07-18T12:39:37Z</time>
      </trkpt>
      <trkpt lat="47.77717" lon="-3.6441">
        <ele>24</ele>
        <time>2018-07-18T12:39:38Z</time>
      </trkpt>
      <trkpt lat="47.77713" lon="-3.6441">
        <ele>24</ele>
        <time>2018-07-18T12:39:39Z</time>
      </trkpt>
      <trkpt lat="47.77709" lon="-3.6441">
        <ele>24</ele>
        <time>2018-07-18T12:39:40Z</time>
      </trkpt>
      <trkpt lat="47.77705" lon="-3.6441">
        <ele>24</ele>
        <time>2018-07-18T12:39:41Z</time>
      </trkpt>
      <trkpt lat="47.777" lon="-3.6441">
        <ele>24</ele>
        <time>2018-07-18T12:39:42Z</time>
      </trkpt>
      <trkpt lat="47.77696" lon="-3.6441">
        <ele>24</ele>
        <time>2018-07-18T12:39:43Z</time>
      </trkpt>
      <trkpt lat="47.77692" lon="-3.6441">
        <ele>24</ele>
        <time>2018-07-18T12:39:44Z</time>
      </trkpt>
      <trkpt lat="47.77688" lon="-3.64409">
        <ele>24</ele>
        <time>2018-07-18T12:39:45Z</time>
      </trkpt>
      <trkpt lat="47.77684" lon="-3.64408">
        <ele>24</ele>
        <time>2018-07-18T12:39:46Z</time>
      </trkpt>
      <trkpt lat="47.7768" lon="-3.64407">
        <ele>24</ele>
        <time>2018-07-18T12:39:47Z</time>
      </trkpt>
      <trkpt lat="47.77676" lon="-3.64404">
        <ele>24</ele>
        <time>2018-07-18T12:39:48Z</time>
      </trkpt>
      <trkpt lat="47.77674" lon="-3.644">
        <ele>24</ele>
        <time>2018-07-18T12:39:49Z</time>
      </trkpt>
      <trkpt lat="47.77671" lon="-3.64395">
        <ele>24</ele>
        <time>2018-07-18T12:39:50Z</time>
      </trkpt>
      <trkpt lat="47.7767" lon="-3.64391">
        <ele>24</ele>
        <time>2018-07-18T12:39:51Z</time>
      </trkpt>
      <trkpt lat="47.77667" lon="-3.64386">
        <ele>24</ele>
        <time>2018-07-18T12:39:52Z</time>
      </trkpt>
      <trkpt lat="47.77665" lon="-3.64381">
        <ele>24</ele>
        <time>2018-07-18T12:39:53Z</time>
      </trkpt>
      <trkpt lat="47.77663" lon="-3.64376">
        <ele>24</ele>
        <time>2018-07-18T12:39:54Z</time>
      </trkpt>
      <trkpt lat="47.77661" lon="-3.6437">
        <ele>24</ele>
        <time>2018-07-18T12:39:55Z</time>
      </trkpt>
      <trkpt lat="47.77659" lon="-3.64364">
        <ele>24</ele>
        <time>2018-07-18T12:39:56Z</time>
      </trkpt>
      <trkpt lat="47.77657" lon="-3.64359">
        <ele>24</ele>
        <time>2018-07-18T12:39:57Z</time>
      </trkpt>
      <trkpt lat="47.77654" lon="-3.64353">
        <ele>24</ele>
        <time>2018-07-18T12:39:58Z</time>
      </trkpt>
      <trkpt lat="47.77652" lon="-3.64348">
        <ele>24</ele>
        <time>2018-07-18T12:39:59Z</time>
      </trkpt>
      <trkpt lat="47.77649" lon="-3.64343">
        <ele>24</ele>
        <time>2018-07-18T12:40:00Z</time>
      </trkpt>
      <trkpt lat="47.77647" lon="-3.64337">
        <ele>24</ele>
        <time>2018-07-18T12:40:01Z</time>
      </trkpt>
      <trkpt lat="47.77644" lon="-3.64332">
        <ele>24</ele>
        <time>2018-07-18T12:40:02Z</time>
      </trkpt>
      <trkpt lat="47.77643" lon="-3.64326">
        <ele>24</ele>
        <time>2018-07-18T12:40:03Z</time>
      </trkpt>
      <trkpt lat="47.77642" lon="-3.6432">
        <ele>24</ele>
        <time>2018-07-18T12:40:04Z</time>
      </trkpt>
      <trkpt lat="47.77642" lon="-3.64313">
        <ele>24</ele>
        <time>2018-07-18T12:40:05Z</time>
      </trkpt>
      <trkpt lat="47.77642" lon="-3.64305">
        <ele>24</ele>
        <time>2018-07-18T12:40:06Z</time>
      </trkpt>
      <trkpt lat="47.77643" lon="-3.64298">
        <ele>24</ele>
        <time>2018-07-18T12:40:07Z</time>
      </trkpt>
      <trkpt lat="47.77644" lon="-3.64291">
        <ele>24</ele>
        <time>2018-07-18T12:40:08Z</time>
      </trkpt>
      <trkpt lat="47.77644" lon="-3.64283">
        <ele>24</ele>
        <time>2018-07-18T12:40:09Z</time>
      </trkpt>
      <trkpt lat="47.77645" lon="-3.64275">
        <ele>24</ele>
        <time>2018-07-18T12:40:10Z</time>
      </trkpt>
      <trkpt lat="47.77645" lon="-3.64268">
        <ele>24</ele>
        <time>2018-07-18T12:40:11Z</time>
      </trkpt>
      <trkpt lat="47.77646" lon="-3.64261">
        <ele>24</ele>
        <time>2018-07-18T12:40:12Z</time>
      </trkpt>
      <trkpt lat="47.77647" lon="-3.64254">
        <ele>25</ele>
        <time>2018-07-18T12:40:13Z</time>
      </trkpt>
      <trkpt lat="47.77648" lon="-3.64247">
        <ele>25</ele>
        <time>2018-07-18T12:40:14Z</time>
      </trkpt>
      <trkpt lat="47.77649" lon="-3.64239">
        <ele>25</ele>
        <time>2018-07-18T12:40:15Z</time>
      </trkpt>
      <trkpt lat="47.7765" lon="-3.64232">
        <ele>25</ele>
        <time>2018-07-18T12:40:16Z</time>
      </trkpt>
      <trkpt lat="47.77651" lon="-3.64225">
        <ele>25</ele>
        <time>2018-07-18T12:40:17Z</time>
      </trkpt>
      <trkpt lat="47.77653" lon="-3.64217">
        <ele>25</ele>
        <time>2018-07-18T12:40:18Z</time>
      </trkpt>
      <trkpt lat="47.77654" lon="-3.64209">
        <ele>25</ele>
        <time>2018-07-18T12:40:19Z</time>
      </trkpt>
      <trkpt lat="47.77654" lon="-3.64201">
        <ele>25</ele>
        <time>2018-07-18T12:40:20Z</time>
      </trkpt>
      <trkpt lat="47.77655" lon="-3.64193">
        <ele>25</ele>
        <time>2018-07-18T12:40:21Z</time>
      </trkpt>
      <trkpt lat="47.77656" lon="-3.64185">
        <ele>25</ele>
        <time>2018-07-18T12:40:22Z</time>
      </trkpt>
      <trkpt lat="47.77657" lon="-3.64177">
        <ele>25</ele>
        <time>2018-07-18T12:40:23Z</time>
      </trkpt>
      <trkpt lat="47.77658" lon="-3.64169">
        <ele>25</ele>
        <time>2018-07-18T12:40:24Z</time>
      </trkpt>
      <trkpt lat="47.77659" lon="-3.64161">
        <ele>25</ele>
        <time>2018-07-18T12:40:25Z</time>
      </trkpt>
      <trkpt lat="47.7766" lon="-3.64154">
        <ele>25</ele>
        <time>2018-07-18T12:40:26Z</time>
      </trkpt>
      <trkpt lat="47.77658" lon="-3.64148">
        <ele>25</ele>
        <time>2018-07-18T12:40:27Z</time>
      </trkpt>
      <trkpt lat="47.77654" lon="-3.64145">
        <ele>25</ele>
        <time>2018-07-18T12:40:28Z</time>
      </trkpt>
      <trkpt lat="47.7765" lon="-3.64143">
        <ele>25</ele>
        <time>2018-07-18T12:40:29Z</time>
      </trkpt>
      <trkpt lat="47.77645" lon="-3.64141">
        <ele>25</ele>
        <time>2018-07-18T12:40:30Z</time>
      </trkpt>
      <trkpt lat="47.77641" lon="-3.6414">
        <ele>25</ele>
        <time>2018-07-18T12:40:31Z</time>
      </trkpt>
      <trkpt lat="47.77636" lon="-3.64138">
        <ele>25</ele>
        <time>2018-07-18T12:40:32Z</time>
      </trkpt>
      <trkpt lat="47.77631" lon="-3.64134">
        <ele>24</ele>
        <time>2018-07-18T12:40:33Z</time>
      </trkpt>
      <trkpt lat="47.77629" lon="-3.64129">
        <ele>24</ele>
        <time>2018-07-18T12:40:34Z</time>
      </trkpt>
      <trkpt lat="47.77628" lon="-3.64123">
        <ele>24</ele>
        <time>2018-07-18T12:40:35Z</time>
      </trkpt>
      <trkpt lat="47.77628" lon="-3.64116">
        <ele>23</ele>
        <time>2018-07-18T12:40:36Z</time>
      </trkpt>
      <trkpt lat="47.77629" lon="-3.64109">
        <ele>23</ele>
        <time>2018-07-18T12:40:37Z</time>
      </trkpt>
      <trkpt lat="47.7763" lon="-3.64102">
        <ele>23</ele>
        <time>2018-07-18T12:40:38Z</time>
      </trkpt>
      <trkpt lat="47.77631" lon="-3.64095">
        <ele>23</ele>
        <time>2018-07-18T12:40:39Z</time>
      </trkpt>
      <trkpt lat="47.77631" lon="-3.64089">
        <ele>23</ele>
        <time>2018-07-18T12:40:40Z</time>
      </trkpt>
      <trkpt lat="47.77632" lon="-3.64085">
        <ele>23</ele>
        <time>2018-07-18T12:40:41Z</time>
      </trkpt>
      <trkpt lat="47.77632" lon="-3.64084">
        <ele>22</ele>
        <time>2018-07-18T12:40:42Z</time>
      </trkpt>
      <trkpt lat="47.77632" lon="-3.64084">
        <ele>22</ele>
        <time>2018-07-18T12:40:43Z</time>
      </trkpt>
      <trkpt lat="47.77632" lon="-3.64083">
        <ele>22</ele>
        <time>2018-07-18T12:40:44Z</time>
      </trkpt>
      <trkpt lat="47.77632" lon="-3.64081">
        <ele>22</ele>
        <time>2018-07-18T12:40:45Z</time>
      </trkpt>
      <trkpt lat="47.77633" lon="-3.64077">
        <ele>22</ele>
        <time>2018-07-18T12:40:46Z</time>
      </trkpt>
      <trkpt lat="47.77633" lon="-3.64072">
        <ele>22</ele>
        <time>2018-07-18T12:40:47Z</time>
      </trkpt>
      <trkpt lat="47.77633" lon="-3.64067">
        <ele>22</ele>
        <time>2018-07-18T12:40:48Z</time>
      </trkpt>
      <trkpt lat="47.77634" lon="-3.64062">
        <ele>22</ele>
        <time>2018-07-18T12:40:49Z</time>
      </trkpt>
      <trkpt lat="47.77635" lon="-3.64056">
        <ele>22</ele>
        <time>2018-07-18T12:40:50Z</time>
      </trkpt>
      <trkpt lat="47.77636" lon="-3.64052">
        <ele>22</ele>
        <time>2018-07-18T12:40:51Z</time>
      </trkpt>
      <trkpt lat="47.77639" lon="-3.64051">
        <ele>22</ele>
        <time>2018-07-18T12:40:52Z</time>
      </trkpt>
      <trkpt lat="47.77641" lon="-3.6405">
        <ele>22</ele>
        <time>2018-07-18T12:40:53Z</time>
      </trkpt>
      <trkpt lat="47.77644" lon="-3.64048">
        <ele>22</ele>
        <time>2018-07-18T12:40:54Z</time>
      </trkpt>
      <trkpt lat="47.77647" lon="-3.64046">
        <ele>22</ele>
        <time>2018-07-18T12:40:55Z</time>
      </trkpt>
      <trkpt lat="47.77649" lon="-3.64044">
        <ele>21</ele>
        <time>2018-07-18T12:40:56Z</time>
      </trkpt>
      <trkpt lat="47.77651" lon="-3.64042">
        <ele>21</ele>
        <time>2018-07-18T12:40:57Z</time>
      </trkpt>
      <trkpt lat="47.77653" lon="-3.64042">
        <ele>21</ele>
        <time>2018-07-18T12:40:58Z</time>
      </trkpt>
      <trkpt lat="47.77654" lon="-3.64041">
        <ele>21</ele>
        <time>2018-07-18T12:40:59Z</time>
      </trkpt>
      <trkpt lat="47.77654" lon="-3.64041">
        <ele>21</ele>
        <time>2018-07-18T12:41:00Z</time>
      </trkpt>
      <trkpt lat="47.77654" lon="-3.64041">
        <ele>21</ele>
        <time>2018-07-18T12:41:01Z</time>
      </trkpt>
      <trkpt lat="47.77654" lon="-3.64041">
        <ele>21</ele>
        <time>2018-07-18T12:41:02Z</time>
      </trkpt>
      <trkpt lat="47.77654" lon="-3.64041">
        <ele>21</ele>
        <time>2018-07-18T12:41:03Z</time>
      </trkpt>
      <trkpt lat="47.77655" lon="-3.64038">
        <ele>20</ele>
        <time>2018-07-18T12:41:04Z</time>
      </trkpt>
      <trkpt lat="47.77655" lon="-3.64036">
        <ele>20</ele>
        <time>2018-07-18T12:41:05Z</time>
      </trkpt>
      <trkpt lat="47.77654" lon="-3.64033">
        <ele>20</ele>
        <time>2018-07-18T12:41:06Z</time>
      </trkpt>
      <trkpt lat="47.77654" lon="-3.6403">
        <ele>20</ele>
        <time>2018-07-18T12:41:07Z</time>
      </trkpt>
      <trkpt lat="47.77654" lon="-3.64026">
        <ele>20</ele>
        <time>2018-07-18T12:41:08Z</time>
      </trkpt>
      <trkpt lat="47.77654" lon="-3.64022">
        <ele>20</ele>
        <time>2018-07-18T12:41:09Z</time>
      </trkpt>
      <trkpt lat="47.77654" lon="-3.64019">
        <ele>19</ele>
        <time>2018-07-18T12:41:10Z</time>
      </trkpt>
      <trkpt lat="47.77656" lon="-3.64016">
        <ele>19</ele>
        <time>2018-07-18T12:41:11Z</time>
      </trkpt>
      <trkpt lat="47.77657" lon="-3.64013">
        <ele>19</ele>
        <time>2018-07-18T12:41:12Z</time>
      </trkpt>
      <trkpt lat="47.77659" lon="-3.6401">
        <ele>19</ele>
        <time>2018-07-18T12:41:13Z</time>
      </trkpt>
      <trkpt lat="47.7766" lon="-3.64007">
        <ele>20</ele>
        <time>2018-07-18T12:41:14Z</time>
      </trkpt>
      <trkpt lat="47.77661" lon="-3.64003">
        <ele>20</ele>
        <time>2018-07-18T12:41:15Z</time>
      </trkpt>
      <trkpt lat="47.77661" lon="-3.63999">
        <ele>20</ele>
        <time>2018-07-18T12:41:16Z</time>
      </trkpt>
      <trkpt lat="47.77662" lon="-3.63995">
        <ele>20</ele>
        <time>2018-07-18T12:41:17Z</time>
      </trkpt>
      <trkpt lat="47.77664" lon="-3.6399">
        <ele>20</ele>
        <time>2018-07-18T12:41:18Z</time>
      </trkpt>
      <trkpt lat="47.77665" lon="-3.63986">
        <ele>20</ele>
        <time>2018-07-18T12:41:19Z</time>
      </trkpt>
      <trkpt lat="47.77667" lon="-3.63983">
        <ele>20</ele>
        <time>2018-07-18T12:41:20Z</time>
      </trkpt>
      <trkpt lat="47.77669" lon="-3.6398">
        <ele>20</ele>
        <time>2018-07-18T12:41:21Z</time>
      </trkpt>
      <trkpt lat="47.77672" lon="-3.63978">
        <ele>20</ele>
        <time>2018-07-18T12:41:22Z</time>
      </trkpt>
      <trkpt lat="47.77676" lon="-3.63975">
        <ele>20</ele>
        <time>2018-07-18T12:41:23Z</time>
      </trkpt>
      <trkpt lat="47.77679" lon="-3.63972">
        <ele>20</ele>
        <time>2018-07-18T12:41:24Z</time>
      </trkpt>
      <trkpt lat="47.77683" lon="-3.6397">
        <ele>20</ele>
        <time>2018-07-18T12:41:25Z</time>
      </trkpt>
      <trkpt lat="47.77685" lon="-3.63969">
        <ele>20</ele>
        <time>2018-07-18T12:41:26Z</time>
      </trkpt>
      <trkpt lat="47.77688" lon="-3.63969">
        <ele>20</ele>
        <time>2018-07-18T12:41:27Z</time>
      </trkpt>
      <trkpt lat="47.7769" lon="-3.63969">
        <ele>19</ele>
        <time>2018-07-18T12:41:28Z</time>
      </trkpt>
      <trkpt lat="47.7769" lon="-3.63967">
        <ele>19</ele>
        <time>2018-07-18T12:41:29Z</time>
      </trkpt>
      <trkpt lat="47.77691" lon="-3.63966">
        <ele>19</ele>
        <time>2018-07-18T12:41:30Z</time>
      </trkpt>
      <trkpt lat="47.7769" lon="-3.63965">
        <ele>19</ele>
        <time>2018-07-18T12:41:31Z</time>
      </trkpt>
      <trkpt lat="47.7769" lon="-3.63964">
        <ele>19</ele>
        <time>2018-07-18T12:41:32Z</time>
      </trkpt>
      <trkpt lat="47.7769" lon="-3.63964">
        <ele>19</ele>
        <time>2018-07-18T12:41:33Z</time>
      </trkpt>
      <trkpt lat="47.7769" lon="-3.63963">
        <ele>19</ele>
        <time>2018-07-18T12:41:34Z</time>
      </trkpt>
      <trkpt lat="47.7769" lon="-3.63963">
        <ele>19</ele>
        <time>2018-07-18T12:41:35Z</time>
      </trkpt>
      <trkpt lat="47.77691" lon="-3.63962">
        <ele>19</ele>
        <time>2018-07-18T12:41:36Z</time>
      </trkpt>
      <trkpt lat="47.7769" lon="-3.6396">
        <ele>19</ele>
        <time>2018-07-18T12:41:37Z</time>
      </trkpt>
      <trkpt lat="47.77691" lon="-3.63959">
        <ele>19</ele>
        <time>2018-07-18T12:41:38Z</time>
      </trkpt>
      <trkpt lat="47.77692" lon="-3.63959">
        <ele>19</ele>
        <time>2018-07-18T12:41:39Z</time>
      </trkpt>
      <trkpt lat="47.77692" lon="-3.63959">
        <ele>19</ele>
        <time>2018-07-18T12:41:40Z</time>
      </trkpt>
      <trkpt lat="47.77693" lon="-3.63959">
        <ele>19</ele>
        <time>2018-07-18T12:41:41Z</time>
      </trkpt>
      <trkpt lat="47.77694" lon="-3.63959">
        <ele>19</ele>
        <time>2018-07-18T12:41:42Z</time>
      </trkpt>
      <trkpt lat="47.77694" lon="-3.63958">
        <ele>19</ele>
        <time>2018-07-18T12:41:43Z</time>
      </trkpt>
      <trkpt lat="47.77694" lon="-3.63957">
        <ele>19</ele>
        <time>2018-07-18T12:41:44Z</time>
      </trkpt>
      <trkpt lat="47.77695" lon="-3.63956">
        <ele>19</ele>
        <time>2018-07-18T12:41:45Z</time>
      </trkpt>
      <trkpt lat="47.77695" lon="-3.63956">
        <ele>19</ele>
        <time>2018-07-18T12:41:46Z</time>
      </trkpt>
      <trkpt lat="47.77695" lon="-3.63955">
        <ele>19</ele>
        <time>2018-07-18T12:41:47Z</time>
      </trkpt>
      <trkpt lat="47.77695" lon="-3.63955">
        <ele>19</ele>
        <time>2018-07-18T12:41:48Z</time>
      </trkpt>
      <trkpt lat="47.77696" lon="-3.63955">
        <ele>19</ele>
        <time>2018-07-18T12:41:49Z</time>
      </trkpt>
      <trkpt lat="47.77697" lon="-3.63955">
        <ele>19</ele>
        <time>2018-07-18T12:41:50Z</time>
      </trkpt>
      <trkpt lat="47.77697" lon="-3.63955">
        <ele>19</ele>
        <time>2018-07-18T12:41:51Z</time>
      </trkpt>
      <trkpt lat="47.77698" lon="-3.63954">
        <ele>19</ele>
        <time>2018-07-18T12:41:52Z</time>
      </trkpt>
      <trkpt lat="47.77699" lon="-3.63954">
        <ele>19</ele>
        <time>2018-07-18T12:41:53Z</time>
      </trkpt>
      <trkpt lat="47.77701" lon="-3.63952">
        <ele>19</ele>
        <time>2018-07-18T12:41:54Z</time>
      </trkpt>
      <trkpt lat="47.77703" lon="-3.63951">
        <ele>19</ele>
        <time>2018-07-18T12:41:55Z</time>
      </trkpt>
      <trkpt lat="47.77706" lon="-3.6395">
        <ele>19</ele>
        <time>2018-07-18T12:41:56Z</time>
      </trkpt>
      <trkpt lat="47.77708" lon="-3.63949">
        <ele>19</ele>
        <time>2018-07-18T12:41:57Z</time>
      </trkpt>
      <trkpt lat="47.77709" lon="-3.63947">
        <ele>19</ele>
        <time>2018-07-18T12:41:58Z</time>
      </trkpt>
      <trkpt lat="47.7771" lon="-3.63944">
        <ele>18</ele>
        <time>2018-07-18T12:41:59Z</time>
      </trkpt>
      <trkpt lat="47.77711" lon="-3.6394">
        <ele>18</ele>
        <time>2018-07-18T12:42:00Z</time>
      </trkpt>
      <trkpt lat="47.77713" lon="-3.63935">
        <ele>18</ele>
        <time>2018-07-18T12:42:01Z</time>
      </trkpt>
      <trkpt lat="47.77715" lon="-3.63931">
        <ele>18</ele>
        <time>2018-07-18T12:42:02Z</time>
      </trkpt>
      <trkpt lat="47.77719" lon="-3.63928">
        <ele>18</ele>
        <time>2018-07-18T12:42:03Z</time>
      </trkpt>
      <trkpt lat="47.77721" lon="-3.63926">
        <ele>18</ele>
        <time>2018-07-18T12:42:04Z</time>
      </trkpt>
      <trkpt lat="47.77722" lon="-3.63924">
        <ele>17</ele>
        <time>2018-07-18T12:42:05Z</time>
      </trkpt>
      <trkpt lat="47.77723" lon="-3.63924">
        <ele>17</ele>
        <time>2018-07-18T12:42:06Z</time>
      </trkpt>
      <trkpt lat="47.77723" lon="-3.63924">
        <ele>17</ele>
        <time>2018-07-18T12:42:07Z</time>
      </trkpt>
      <trkpt lat="47.77724" lon="-3.63924">
        <ele>17</ele>
        <time>2018-07-18T12:42:08Z</time>
      </trkpt>
      <trkpt lat="47.77724" lon="-3.63923">
        <ele>16</ele>
        <time>2018-07-18T12:42:09Z</time>
      </trkpt>
      <trkpt lat="47.77724" lon="-3.63921">
        <ele>15</ele>
        <time>2018-07-18T12:42:10Z</time>
      </trkpt>
      <trkpt lat="47.77724" lon="-3.63919">
        <ele>15</ele>
        <time>2018-07-18T12:42:11Z</time>
      </trkpt>
      <trkpt lat="47.77723" lon="-3.63917">
        <ele>15</ele>
        <time>2018-07-18T12:42:12Z</time>
      </trkpt>
      <trkpt lat="47.77723" lon="-3.63916">
        <ele>14</ele>
        <time>2018-07-18T12:42:13Z</time>
      </trkpt>
      <trkpt lat="47.77723" lon="-3.63914">
        <ele>14</ele>
        <time>2018-07-18T12:42:14Z</time>
      </trkpt>
      <trkpt lat="47.77723" lon="-3.63912">
        <ele>13</ele>
        <time>2018-07-18T12:42:15Z</time>
      </trkpt>
      <trkpt lat="47.77723" lon="-3.6391">
        <ele>13</ele>
        <time>2018-07-18T12:42:16Z</time>
      </trkpt>
      <trkpt lat="47.77723" lon="-3.63908">
        <ele>13</ele>
        <time>2018-07-18T12:42:17Z</time>
      </trkpt>
      <trkpt lat="47.77723" lon="-3.63906">
        <ele>12</ele>
        <time>2018-07-18T12:42:18Z</time>
      </trkpt>
      <trkpt lat="47.77722" lon="-3.63905">
        <ele>12</ele>
        <time>2018-07-18T12:42:19Z</time>
      </trkpt>
      <trkpt lat="47.77722" lon="-3.63902">
        <ele>12</ele>
        <time>2018-07-18T12:42:20Z</time>
      </trkpt>
      <trkpt lat="47.77722" lon="-3.63901">
        <ele>11</ele>
        <time>2018-07-18T12:42:21Z</time>
      </trkpt>
      <trkpt lat="47.77721" lon="-3.63899">
        <ele>11</ele>
        <time>2018-07-18T12:42:22Z</time>
      </trkpt>
      <trkpt lat="47.77721" lon="-3.63897">
        <ele>11</ele>
        <time>2018-07-18T12:42:23Z</time>
      </trkpt>
      <trkpt lat="47.77722" lon="-3.63896">
        <ele>11</ele>
        <time>2018-07-18T12:42:24Z</time>
      </trkpt>
      <trkpt lat="47.77722" lon="-3.63895">
        <ele>10</ele>
        <time>2018-07-18T12:42:25Z</time>
      </trkpt>
      <trkpt lat="47.77722" lon="-3.63894">
        <ele>10</ele>
        <time>2018-07-18T12:42:26Z</time>
      </trkpt>
      <trkpt lat="47.77722" lon="-3.63893">
        <ele>10</ele>
        <time>2018-07-18T12:42:27Z</time>
      </trkpt>
      <trkpt lat="47.77722" lon="-3.63892">
        <ele>10</ele>
        <time>2018-07-18T12:42:28Z</time>
      </trkpt>
      <trkpt lat="47.77723" lon="-3.63891">
        <ele>10</ele>
        <time>2018-07-18T12:42:29Z</time>
      </trkpt>
      <trkpt lat="47.77723" lon="-3.63891">
        <ele>10</ele>
        <time>2018-07-18T12:42:30Z</time>
      </trkpt>
      <trkpt lat="47.77723" lon="-3.63891">
        <ele>10</ele>
        <time>2018-07-18T12:42:31Z</time>
      </trkpt>
      <trkpt lat="47.77722" lon="-3.63889">
        <ele>10</ele>
        <time>2018-07-18T12:42:32Z</time>
      </trkpt>
      <trkpt lat="47.77721" lon="-3.63888">
        <ele>10</ele>
        <time>2018-07-18T12:42:33Z</time>
      </trkpt>
      <trkpt lat="47.7772" lon="-3.63888">
        <ele>10</ele>
        <time>2018-07-18T12:42:34Z</time>
      </trkpt>
      <trkpt lat="47.7772" lon="-3.63887">
        <ele>10</ele>
        <time>2018-07-18T12:42:35Z</time>
      </trkpt>
      <trkpt lat="47.77719" lon="-3.63886">
        <ele>10</ele>
        <time>2018-07-18T12:42:36Z</time>
      </trkpt>
      <trkpt lat="47.77719" lon="-3.63886">
        <ele>10</ele>
        <time>2018-07-18T12:42:37Z</time>
      </trkpt>
      <trkpt lat="47.77719" lon="-3.63886">
        <ele>10</ele>
        <time>2018-07-18T12:42:38Z</time>
      </trkpt>
      <trkpt lat="47.77719" lon="-3.63886">
        <ele>10</ele>
        <time>2018-07-18T12:42:39Z</time>
      </trkpt>
      <trkpt lat="47.77719" lon="-3.63886">
        <ele>10</ele>
        <time>2018-07-18T12:42:40Z</time>
      </trkpt>
      <trkpt lat="47.77718" lon="-3.63885">
        <ele>10</ele>
        <time>2018-07-18T12:42:41Z</time>
      </trkpt>
      <trkpt lat="47.77718" lon="-3.63884">
        <ele>10</ele>
        <time>2018-07-18T12:42:42Z</time>
      </trkpt>
      <trkpt lat="47.77718" lon="-3.63883">
        <ele>10</ele>
        <time>2018-07-18T12:42:43Z</time>
      </trkpt>
      <trkpt lat="47.77717" lon="-3.63882">
        <ele>10</ele>
        <time>2018-07-18T12:42:44Z</time>
      </trkpt>
      <trkpt lat="47.77717" lon="-3.63882">
        <ele>10</ele>
        <time>2018-07-18T12:42:45Z</time>
      </trkpt>
      <trkpt lat="47.77717" lon="-3.63881">
        <ele>10</ele>
        <time>2018-07-18T12:42:46Z</time>
      </trkpt>
      <trkpt lat="47.77716" lon="-3.63881">
        <ele>10</ele>
        <time>2018-07-18T12:42:47Z</time>
      </trkpt>
      <trkpt lat="47.77716" lon="-3.6388">
        <ele>11</ele>
        <time>2018-07-18T12:42:48Z</time>
      </trkpt>
      <trkpt lat="47.77715" lon="-3.63879">
        <ele>11</ele>
        <time>2018-07-18T12:42:49Z</time>
      </trkpt>
      <trkpt lat="47.77715" lon="-3.63879">
        <ele>11</ele>
        <time>2018-07-18T12:42:50Z</time>
      </trkpt>
      <trkpt lat="47.77715" lon="-3.63878">
        <ele>11</ele>
        <time>2018-07-18T12:42:51Z</time>
      </trkpt>
      <trkpt lat="47.77714" lon="-3.63878">
        <ele>11</ele>
        <time>2018-07-18T12:42:52Z</time>
      </trkpt>
      <trkpt lat="47.77714" lon="-3.63877">
        <ele>11</ele>
        <time>2018-07-18T12:42:53Z</time>
      </trkpt>
      <trkpt lat="47.77714" lon="-3.63876">
        <ele>12</ele>
        <time>2018-07-18T12:42:54Z</time>
      </trkpt>
      <trkpt lat="47.77714" lon="-3.63876">
        <ele>12</ele>
        <time>2018-07-18T12:42:55Z</time>
      </trkpt>
      <trkpt lat="47.77713" lon="-3.63874">
        <ele>12</ele>
        <time>2018-07-18T12:42:56Z</time>
      </trkpt>
      <trkpt lat="47.77713" lon="-3.63872">
        <ele>12</ele>
        <time>2018-07-18T12:42:57Z</time>
      </trkpt>
      <trkpt lat="47.77713" lon="-3.63871">
        <ele>12</ele>
        <time>2018-07-18T12:42:58Z</time>
      </trkpt>
      <trkpt lat="47.77713" lon="-3.6387">
        <ele>12</ele>
        <time>2018-07-18T12:42:59Z</time>
      </trkpt>
      <trkpt lat="47.77713" lon="-3.63869">
        <ele>12</ele>
        <time>2018-07-18T12:43:00Z</time>
      </trkpt>
      <trkpt lat="47.77713" lon="-3.63868">
        <ele>12</ele>
        <time>2018-07-18T12:43:01Z</time>
      </trkpt>
      <trkpt lat="47.77714" lon="-3.63866">
        <ele>12</ele>
        <time>2018-07-18T12:43:02Z</time>
      </trkpt>
      <trkpt lat="47.77714" lon="-3.63865">
        <ele>12</ele>
        <time>2018-07-18T12:43:03Z</time>
      </trkpt>
      <trkpt lat="47.77714" lon="-3.63865">
        <ele>12</ele>
        <time>2018-07-18T12:43:04Z</time>
      </trkpt>
      <trkpt lat="47.77714" lon="-3.63865">
        <ele>12</ele>
        <time>2018-07-18T12:43:05Z</time>
      </trkpt>
      <trkpt lat="47.77714" lon="-3.63865">
        <ele>12</ele>
        <time>2018-07-18T12:43:06Z</time>
      </trkpt>
      <trkpt lat="47.77714" lon="-3.63865">
        <ele>12</ele>
        <time>2018-07-18T12:43:07Z</time>
      </trkpt>
      <trkpt lat="47.77714" lon="-3.63863">
        <ele>11</ele>
        <time>2018-07-18T12:43:08Z</time>
      </trkpt>
      <trkpt lat="47.77714" lon="-3.63861">
        <ele>11</ele>
        <time>2018-07-18T12:43:09Z</time>
      </trkpt>
      <trkpt lat="47.77714" lon="-3.63859">
        <ele>11</ele>
        <time>2018-07-18T12:43:10Z</time>
      </trkpt>
      <trkpt lat="47.77715" lon="-3.63857">
        <ele>11</ele>
        <time>2018-07-18T12:43:11Z</time>
      </trkpt>
      <trkpt lat="47.77715" lon="-3.63855">
        <ele>12</ele>
        <time>2018-07-18T12:43:12Z</time>
      </trkpt>
      <trkpt lat="47.77716" lon="-3.63852">
        <ele>12</ele>
        <time>2018-07-18T12:43:13Z</time>
      </trkpt>
      <trkpt lat="47.77717" lon="-3.6385">
        <ele>12</ele>
        <time>2018-07-18T12:43:14Z</time>
      </trkpt>
      <trkpt lat="47.77717" lon="-3.63847">
        <ele>12</ele>
        <time>2018-07-18T12:43:15Z</time>
      </trkpt>
      <trkpt lat="47.77718" lon="-3.63844">
        <ele>12</ele>
        <time>2018-07-18T12:43:16Z</time>
      </trkpt>
      <trkpt lat="47.77719" lon="-3.63841">
        <ele>12</ele>
        <time>2018-07-18T12:43:17Z</time>
      </trkpt>
      <trkpt lat="47.77719" lon="-3.63838">
        <ele>13</ele>
        <time>2018-07-18T12:43:18Z</time>
      </trkpt>
      <trkpt lat="47.77719" lon="-3.63835">
        <ele>13</ele>
        <time>2018-07-18T12:43:19Z</time>
      </trkpt>
      <trkpt lat="47.77719" lon="-3.63832">
        <ele>13</ele>
        <time>2018-07-18T12:43:20Z</time>
      </trkpt>
      <trkpt lat="47.7772" lon="-3.63829">
        <ele>13</ele>
        <time>2018-07-18T12:43:21Z</time>
      </trkpt>
      <trkpt lat="47.7772" lon="-3.63826">
        <ele>13</ele>
        <time>2018-07-18T12:43:22Z</time>
      </trkpt>
      <trkpt lat="47.7772" lon="-3.63823">
        <ele>14</ele>
        <time>2018-07-18T12:43:23Z</time>
      </trkpt>
      <trkpt lat="47.77721" lon="-3.6382">
        <ele>14</ele>
        <time>2018-07-18T12:43:24Z</time>
      </trkpt>
      <trkpt lat="47.77722" lon="-3.63818">
        <ele>14</ele>
        <time>2018-07-18T12:43:25Z</time>
      </trkpt>
      <trkpt lat="47.77722" lon="-3.63816">
        <ele>14</ele>
        <time>2018-07-18T12:43:26Z</time>
      </trkpt>
      <trkpt lat="47.77723" lon="-3.63814">
        <ele>14</ele>
        <time>2018-07-18T12:43:27Z</time>
      </trkpt>
      <trkpt lat="47.77724" lon="-3.63812">
        <ele>15</ele>
        <time>2018-07-18T12:43:28Z</time>
      </trkpt>
      <trkpt lat="47.77726" lon="-3.63811">
        <ele>15</ele>
        <time>2018-07-18T12:43:29Z</time>
      </trkpt>
      <trkpt lat="47.77727" lon="-3.63809">
        <ele>15</ele>
        <time>2018-07-18T12:43:30Z</time>
      </trkpt>
      <trkpt lat="47.77728" lon="-3.63808">
        <ele>15</ele>
        <time>2018-07-18T12:43:31Z</time>
      </trkpt>
      <trkpt lat="47.77729" lon="-3.63806">
        <ele>15</ele>
        <time>2018-07-18T12:43:32Z</time>
      </trkpt>
      <trkpt lat="47.7773" lon="-3.63804">
        <ele>15</ele>
        <time>2018-07-18T12:43:33Z</time>
      </trkpt>
      <trkpt lat="47.77732" lon="-3.63802">
        <ele>16</ele>
        <time>2018-07-18T12:43:34Z</time>
      </trkpt>
      <trkpt lat="47.77734" lon="-3.63799">
        <ele>16</ele>
        <time>2018-07-18T12:43:35Z</time>
      </trkpt>
      <trkpt lat="47.77735" lon="-3.63797">
        <ele>16</ele>
        <time>2018-07-18T12:43:36Z</time>
      </trkpt>
      <trkpt lat="47.77736" lon="-3.63794">
        <ele>17</ele>
        <time>2018-07-18T12:43:37Z</time>
      </trkpt>
      <trkpt lat="47.77738" lon="-3.63792">
        <ele>17</ele>
        <time>2018-07-18T12:43:38Z</time>
      </trkpt>
      <trkpt lat="47.77739" lon="-3.6379">
        <ele>17</ele>
        <time>2018-07-18T12:43:39Z</time>
      </trkpt>
      <trkpt lat="47.77741" lon="-3.63787">
        <ele>17</ele>
        <time>2018-07-18T12:43:40Z</time>
      </trkpt>
      <trkpt lat="47.77743" lon="-3.63784">
        <ele>18</ele>
        <time>2018-07-18T12:43:41Z</time>
      </trkpt>
      <trkpt lat="47.77745" lon="-3.63782">
        <ele>18</ele>
        <time>2018-07-18T12:43:42Z</time>
      </trkpt>
      <trkpt lat="47.77746" lon="-3.63779">
        <ele>18</ele>
        <time>2018-07-18T12:43:43Z</time>
      </trkpt>
      <trkpt lat="47.77748" lon="-3.63776">
        <ele>18</ele>
        <time>2018-07-18T12:43:44Z</time>
      </trkpt>
      <trkpt lat="47.77749" lon="-3.63773">
        <ele>18</ele>
        <time>2018-07-18T12:43:45Z</time>
      </trkpt>
      <trkpt lat="47.77751" lon="-3.63769">
        <ele>19</ele>
        <time>2018-07-18T12:43:46Z</time>
      </trkpt>
      <trkpt lat="47.77752" lon="-3.63766">
        <ele>19</ele>
        <time>2018-07-18T12:43:47Z</time>
      </trkpt>
      <trkpt lat="47.77753" lon="-3.63762">
        <ele>19</ele>
        <time>2018-07-18T12:43:48Z</time>
      </trkpt>
      <trkpt lat="47.77755" lon="-3.63757">
        <ele>19</ele>
        <time>2018-07-18T12:43:49Z</time>
      </trkpt>
      <trkpt lat="47.77756" lon="-3.63754">
        <ele>19</ele>
        <time>2018-07-18T12:43:50Z</time>
      </trkpt>
      <trkpt lat="47.77757" lon="-3.63749">
        <ele>20</ele>
        <time>2018-07-18T12:43:51Z</time>
      </trkpt>
      <trkpt lat="47.77758" lon="-3.63745">
        <ele>20</ele>
        <time>2018-07-18T12:43:52Z</time>
      </trkpt>
      <trkpt lat="47.77759" lon="-3.63741">
        <ele>20</ele>
        <time>2018-07-18T12:43:53Z</time>
      </trkpt>
      <trkpt lat="47.7776" lon="-3.63736">
        <ele>20</ele>
        <time>2018-07-18T12:43:54Z</time>
      </trkpt>
      <trkpt lat="47.77761" lon="-3.63731">
        <ele>20</ele>
        <time>2018-07-18T12:43:55Z</time>
      </trkpt>
      <trkpt lat="47.77761" lon="-3.63727">
        <ele>20</ele>
        <time>2018-07-18T12:43:56Z</time>
      </trkpt>
      <trkpt lat="47.77762" lon="-3.63722">
        <ele>21</ele>
        <time>2018-07-18T12:43:57Z</time>
      </trkpt>
      <trkpt lat="47.77762" lon="-3.63717">
        <ele>21</ele>
        <time>2018-07-18T12:43:58Z</time>
      </trkpt>
      <trkpt lat="47.77763" lon="-3.63713">
        <ele>21</ele>
        <time>2018-07-18T12:43:59Z</time>
      </trkpt>
      <trkpt lat="47.77764" lon="-3.63708">
        <ele>21</ele>
        <time>2018-07-18T12:44:00Z</time>
      </trkpt>
      <trkpt lat="47.77765" lon="-3.63704">
        <ele>21</ele>
        <time>2018-07-18T12:44:01Z</time>
      </trkpt>
      <trkpt lat="47.77767" lon="-3.63699">
        <ele>22</ele>
        <time>2018-07-18T12:44:02Z</time>
      </trkpt>
      <trkpt lat="47.77768" lon="-3.63695">
        <ele>22</ele>
        <time>2018-07-18T12:44:03Z</time>
      </trkpt>
      <trkpt lat="47.77769" lon="-3.63691">
        <ele>22</ele>
        <time>2018-07-18T12:44:04Z</time>
      </trkpt>
      <trkpt lat="47.7777" lon="-3.63687">
        <ele>22</ele>
        <time>2018-07-18T12:44:05Z</time>
      </trkpt>
      <trkpt lat="47.77771" lon="-3.63683">
        <ele>22</ele>
        <time>2018-07-18T12:44:06Z</time>
      </trkpt>
      <trkpt lat="47.77772" lon="-3.63681">
        <ele>23</ele>
        <time>2018-07-18T12:44:07Z</time>
      </trkpt>
      <trkpt lat="47.77773" lon="-3.63679">
        <ele>23</ele>
        <time>2018-07-18T12:44:08Z</time>
      </trkpt>
      <trkpt lat="47.77773" lon="-3.63678">
        <ele>23</ele>
        <time>2018-07-18T12:44:09Z</time>
      </trkpt>
      <trkpt lat="47.77773" lon="-3.63678">
        <ele>23</ele>
        <time>2018-07-18T12:44:10Z</time>
      </trkpt>
      <trkpt lat="47.77773" lon="-3.63678">
        <ele>23</ele>
        <time>2018-07-18T12:44:11Z</time>
      </trkpt>
      <trkpt lat="47.77775" lon="-3.63676">
        <ele>23</ele>
        <time>2018-07-18T12:44:12Z</time>
      </trkpt>
      <trkpt lat="47.77777" lon="-3.63676">
        <ele>23</ele>
        <time>2018-07-18T12:44:13Z</time>
      </trkpt>
      <trkpt lat="47.77779" lon="-3.63677">
        <ele>23</ele>
        <time>2018-07-18T12:44:14Z</time>
      </trkpt>
      <trkpt lat="47.77782" lon="-3.63678">
        <ele>23</ele>
        <time>2018-07-18T12:44:15Z</time>
      </trkpt>
      <trkpt lat="47.77785" lon="-3.63679">
        <ele>23</ele>
        <time>2018-07-18T12:44:16Z</time>
      </trkpt>
      <trkpt lat="47.77788" lon="-3.6368">
        <ele>24</ele>
        <time>2018-07-18T12:44:17Z</time>
      </trkpt>
      <trkpt lat="47.77791" lon="-3.63681">
        <ele>24</ele>
        <time>2018-07-18T12:44:18Z</time>
      </trkpt>
      <trkpt lat="47.77794" lon="-3.63681">
        <ele>24</ele>
        <time>2018-07-18T12:44:19Z</time>
      </trkpt>
      <trkpt lat="47.77798" lon="-3.63682">
        <ele>24</ele>
        <time>2018-07-18T12:44:20Z</time>
      </trkpt>
      <trkpt lat="47.77801" lon="-3.63682">
        <ele>24</ele>
        <time>2018-07-18T12:44:21Z</time>
      </trkpt>
      <trkpt lat="47.77805" lon="-3.6368">
        <ele>24</ele>
        <time>2018-07-18T12:44:22Z</time>
      </trkpt>
      <trkpt lat="47.77808" lon="-3.63678">
        <ele>24</ele>
        <time>2018-07-18T12:44:23Z</time>
      </trkpt>
      <trkpt lat="47.7781" lon="-3.63674">
        <ele>25</ele>
        <time>2018-07-18T12:44:24Z</time>
      </trkpt>
      <trkpt lat="47.77812" lon="-3.6367">
        <ele>25</ele>
        <time>2018-07-18T12:44:25Z</time>
      </trkpt>
      <trkpt lat="47.77814" lon="-3.63665">
        <ele>25</ele>
        <time>2018-07-18T12:44:26Z</time>
      </trkpt>
      <trkpt lat="47.77816" lon="-3.6366">
        <ele>25</ele>
        <time>2018-07-18T12:44:27Z</time>
      </trkpt>
      <trkpt lat="47.77818" lon="-3.63655">
        <ele>26</ele>
        <time>2018-07-18T12:44:28Z</time>
      </trkpt>
      <trkpt lat="47.77819" lon="-3.6365">
        <ele>26</ele>
        <time>2018-07-18T12:44:29Z</time>
      </trkpt>
      <trkpt lat="47.7782" lon="-3.63645">
        <ele>26</ele>
        <time>2018-07-18T12:44:30Z</time>
      </trkpt>
      <trkpt lat="47.77822" lon="-3.63641">
        <ele>26</ele>
        <time>2018-07-18T12:44:31Z</time>
      </trkpt>
      <trkpt lat="47.77823" lon="-3.63636">
        <ele>26</ele>
        <time>2018-07-18T12:44:32Z</time>
      </trkpt>
      <trkpt lat="47.77824" lon="-3.6363">
        <ele>26</ele>
        <time>2018-07-18T12:44:33Z</time>
      </trkpt>
      <trkpt lat="47.77826" lon="-3.63625">
        <ele>27</ele>
        <time>2018-07-18T12:44:34Z</time>
      </trkpt>
      <trkpt lat="47.77828" lon="-3.6362">
        <ele>27</ele>
        <time>2018-07-18T12:44:35Z</time>
      </trkpt>
      <trkpt lat="47.77829" lon="-3.63614">
        <ele>27</ele>
        <time>2018-07-18T12:44:36Z</time>
      </trkpt>
      <trkpt lat="47.77831" lon="-3.63608">
        <ele>27</ele>
        <time>2018-07-18T12:44:37Z</time>
      </trkpt>
      <trkpt lat="47.77832" lon="-3.63602">
        <ele>27</ele>
        <time>2018-07-18T12:44:38Z</time>
      </trkpt>
      <trkpt lat="47.77833" lon="-3.63596">
        <ele>27</ele>
        <time>2018-07-18T12:44:39Z</time>
      </trkpt>
      <trkpt lat="47.77834" lon="-3.63589">
        <ele>27</ele>
        <time>2018-07-18T12:44:40Z</time>
      </trkpt>
      <trkpt lat="47.77835" lon="-3.63583">
        <ele>27</ele>
        <time>2018-07-18T12:44:41Z</time>
      </trkpt>
      <trkpt lat="47.77837" lon="-3.63576">
        <ele>27</ele>
        <time>2018-07-18T12:44:42Z</time>
      </trkpt>
      <trkpt lat="47.77838" lon="-3.63569">
        <ele>27</ele>
        <time>2018-07-18T12:44:43Z</time>
      </trkpt>
      <trkpt lat="47.77838" lon="-3.63562">
        <ele>27</ele>
        <time>2018-07-18T12:44:44Z</time>
      </trkpt>
      <trkpt lat="47.77839" lon="-3.63556">
        <ele>27</ele>
        <time>2018-07-18T12:44:45Z</time>
      </trkpt>
      <trkpt lat="47.7784" lon="-3.63549">
        <ele>28</ele>
        <time>2018-07-18T12:44:46Z</time>
      </trkpt>
      <trkpt lat="47.77841" lon="-3.63542">
        <ele>28</ele>
        <time>2018-07-18T12:44:47Z</time>
      </trkpt>
      <trkpt lat="47.77841" lon="-3.63535">
        <ele>28</ele>
        <time>2018-07-18T12:44:48Z</time>
      </trkpt>
      <trkpt lat="47.77841" lon="-3.63528">
        <ele>28</ele>
        <time>2018-07-18T12:44:49Z</time>
      </trkpt>
      <trkpt lat="47.77842" lon="-3.63521">
        <ele>28</ele>
        <time>2018-07-18T12:44:50Z</time>
      </trkpt>
      <trkpt lat="47.77843" lon="-3.63514">
        <ele>28</ele>
        <time>2018-07-18T12:44:51Z</time>
      </trkpt>
      <trkpt lat="47.77843" lon="-3.63508">
        <ele>28</ele>
        <time>2018-07-18T12:44:52Z</time>
      </trkpt>
      <trkpt lat="47.77843" lon="-3.63501">
        <ele>28</ele>
        <time>2018-07-18T12:44:53Z</time>
      </trkpt>
      <trkpt lat="47.77844" lon="-3.63494">
        <ele>28</ele>
        <time>2018-07-18T12:44:54Z</time>
      </trkpt>
      <trkpt lat="47.77844" lon="-3.63488">
        <ele>28</ele>
        <time>2018-07-18T12:44:55Z</time>
      </trkpt>
      <trkpt lat="47.77845" lon="-3.63481">
        <ele>28</ele>
        <time>2018-07-18T12:44:56Z</time>
      </trkpt>
      <trkpt lat="47.77845" lon="-3.63475">
        <ele>28</ele>
        <time>2018-07-18T12:44:57Z</time>
      </trkpt>
      <trkpt lat="47.77845" lon="-3.6347">
        <ele>28</ele>
        <time>2018-07-18T12:44:58Z</time>
      </trkpt>
      <trkpt lat="47.77845" lon="-3.63467">
        <ele>28</ele>
        <time>2018-07-18T12:44:59Z</time>
      </trkpt>
      <trkpt lat="47.77844" lon="-3.63466">
        <ele>28</ele>
        <time>2018-07-18T12:45:00Z</time>
      </trkpt>
      <trkpt lat="47.77843" lon="-3.63466">
        <ele>28</ele>
        <time>2018-07-18T12:45:01Z</time>
      </trkpt>
      <trkpt lat="47.77841" lon="-3.63467">
        <ele>28</ele>
        <time>2018-07-18T12:45:02Z</time>
      </trkpt>
      <trkpt lat="47.77838" lon="-3.63468">
        <ele>28</ele>
        <time>2018-07-18T12:45:03Z</time>
      </trkpt>
      <trkpt lat="47.77836" lon="-3.63469">
        <ele>28</ele>
        <time>2018-07-18T12:45:04Z</time>
      </trkpt>
      <trkpt lat="47.77833" lon="-3.6347">
        <ele>28</ele>
        <time>2018-07-18T12:45:05Z</time>
      </trkpt>
      <trkpt lat="47.7783" lon="-3.63471">
        <ele>28</ele>
        <time>2018-07-18T12:45:06Z</time>
      </trkpt>
      <trkpt lat="47.77827" lon="-3.63471">
        <ele>28</ele>
        <time>2018-07-18T12:45:07Z</time>
      </trkpt>
      <trkpt lat="47.77824" lon="-3.63471">
        <ele>28</ele>
        <time>2018-07-18T12:45:08Z</time>
      </trkpt>
      <trkpt lat="47.7782" lon="-3.63471">
        <ele>28</ele>
        <time>2018-07-18T12:45:09Z</time>
      </trkpt>
      <trkpt lat="47.77817" lon="-3.63472">
        <ele>28</ele>
        <time>2018-07-18T12:45:10Z</time>
      </trkpt>
      <trkpt lat="47.77813" lon="-3.63472">
        <ele>28</ele>
        <time>2018-07-18T12:45:11Z</time>
      </trkpt>
      <trkpt lat="47.77809" lon="-3.63472">
        <ele>28</ele>
        <time>2018-07-18T12:45:12Z</time>
      </trkpt>
      <trkpt lat="47.77804" lon="-3.63472">
        <ele>28</ele>
        <time>2018-07-18T12:45:13Z</time>
      </trkpt>
      <trkpt lat="47.778" lon="-3.63472">
        <ele>28</ele>
        <time>2018-07-18T12:45:14Z</time>
      </trkpt>
      <trkpt lat="47.77796" lon="-3.63472">
        <ele>27</ele>
        <time>2018-07-18T12:45:15Z</time>
      </trkpt>
      <trkpt lat="47.77791" lon="-3.63472">
        <ele>27</ele>
        <time>2018-07-18T12:45:16Z</time>
      </trkpt>
      <trkpt lat="47.77787" lon="-3.63473">
        <ele>27</ele>
        <time>2018-07-18T12:45:17Z</time>
      </trkpt>
      <trkpt lat="47.77783" lon="-3.63473">
        <ele>27</ele>
        <time>2018-07-18T12:45:18Z</time>
      </trkpt>
      <trkpt lat="47.77779" lon="-3.63474">
        <ele>27</ele>
        <time>2018-07-18T12:45:19Z</time>
      </trkpt>
      <trkpt lat="47.77776" lon="-3.63474">
        <ele>27</ele>
        <time>2018-07-18T12:45:20Z</time>
      </trkpt>
      <trkpt lat="47.77772" lon="-3.63474">
        <ele>27</ele>
        <time>2018-07-18T12:45:21Z</time>
      </trkpt>
      <trkpt lat="47.77768" lon="-3.63474">
        <ele>27</ele>
        <time>2018-07-18T12:45:22Z</time>
      </trkpt>
      <trkpt lat="47.77764" lon="-3.63474">
        <ele>27</ele>
        <time>2018-07-18T12:45:23Z</time>
      </trkpt>
      <trkpt lat="47.7776" lon="-3.63474">
        <ele>27</ele>
        <time>2018-07-18T12:45:24Z</time>
      </trkpt>
      <trkpt lat="47.77756" lon="-3.63474">
        <ele>27</ele>
        <time>2018-07-18T12:45:25Z</time>
      </trkpt>
      <trkpt lat="47.77751" lon="-3.63474">
        <ele>27</ele>
        <time>2018-07-18T12:45:26Z</time>
      </trkpt>
      <trkpt lat="47.77747" lon="-3.63475">
        <ele>26</ele>
        <time>2018-07-18T12:45:27Z</time>
      </trkpt>
      <trkpt lat="47.77742" lon="-3.63475">
        <ele>26</ele>
        <time>2018-07-18T12:45:28Z</time>
      </trkpt>
      <trkpt lat="47.77737" lon="-3.63477">
        <ele>26</ele>
        <time>2018-07-18T12:45:29Z</time>
      </trkpt>
      <trkpt lat="47.77733" lon="-3.63478">
        <ele>26</ele>
        <time>2018-07-18T12:45:30Z</time>
      </trkpt>
      <trkpt lat="47.77728" lon="-3.6348">
        <ele>25</ele>
        <time>2018-07-18T12:45:31Z</time>
      </trkpt>
      <trkpt lat="47.77723" lon="-3.63481">
        <ele>25</ele>
        <time>2018-07-18T12:45:32Z</time>
      </trkpt>
      <trkpt lat="47.77719" lon="-3.63482">
        <ele>25</ele>
        <time>2018-07-18T12:45:33Z</time>
      </trkpt>
      <trkpt lat="47.77714" lon="-3.63483">
        <ele>25</ele>
        <time>2018-07-18T12:45:34Z</time>
      </trkpt>
      <trkpt lat="47.7771" lon="-3.63485">
        <ele>25</ele>
        <time>2018-07-18T12:45:35Z</time>
      </trkpt>
      <trkpt lat="47.77705" lon="-3.63486">
        <ele>24</ele>
        <time>2018-07-18T12:45:36Z</time>
      </trkpt>
      <trkpt lat="47.77701" lon="-3.63488">
        <ele>24</ele>
        <time>2018-07-18T12:45:37Z</time>
      </trkpt>
      <trkpt lat="47.77696" lon="-3.6349">
        <ele>24</ele>
        <time>2018-07-18T12:45:38Z</time>
      </trkpt>
      <trkpt lat="47.77691" lon="-3.63491">
        <ele>24</ele>
        <time>2018-07-18T12:45:39Z</time>
      </trkpt>
      <trkpt lat="47.77687" lon="-3.63492">
        <ele>24</ele>
        <time>2018-07-18T12:45:40Z</time>
      </trkpt>
      <trkpt lat="47.77682" lon="-3.63494">
        <ele>24</ele>
        <time>2018-07-18T12:45:41Z</time>
      </trkpt>
      <trkpt lat="47.77678" lon="-3.63495">
        <ele>24</ele>
        <time>2018-07-18T12:45:42Z</time>
      </trkpt>
      <trkpt lat="47.77674" lon="-3.63496">
        <ele>24</ele>
        <time>2018-07-18T12:45:43Z</time>
      </trkpt>
      <trkpt lat="47.77669" lon="-3.63497">
        <ele>24</ele>
        <time>2018-07-18T12:45:44Z</time>
      </trkpt>
      <trkpt lat="47.77664" lon="-3.63498">
        <ele>24</ele>
        <time>2018-07-18T12:45:45Z</time>
      </trkpt>
      <trkpt lat="47.7766" lon="-3.63498">
        <ele>24</ele>
        <time>2018-07-18T12:45:46Z</time>
      </trkpt>
      <trkpt lat="47.77657" lon="-3.63496">
        <ele>24</ele>
        <time>2018-07-18T12:45:47Z</time>
      </trkpt>
      <trkpt lat="47.77654" lon="-3.63493">
        <ele>24</ele>
        <time>2018-07-18T12:45:48Z</time>
      </trkpt>
      <trkpt lat="47.77651" lon="-3.63488">
        <ele>24</ele>
        <time>2018-07-18T12:45:49Z</time>
      </trkpt>
      <trkpt lat="47.7765" lon="-3.63483">
        <ele>24</ele>
        <time>2018-07-18T12:45:50Z</time>
      </trkpt>
      <trkpt lat="47.77648" lon="-3.63477">
        <ele>24</ele>
        <time>2018-07-18T12:45:51Z</time>
      </trkpt>
      <trkpt lat="47.77645" lon="-3.63472">
        <ele>24</ele>
        <time>2018-07-18T12:45:52Z</time>
      </trkpt>
      <trkpt lat="47.77642" lon="-3.63468">
        <ele>24</ele>
        <time>2018-07-18T12:45:53Z</time>
      </trkpt>
      <trkpt lat="47.77639" lon="-3.63464">
        <ele>24</ele>
        <time>2018-07-18T12:45:54Z</time>
      </trkpt>
      <trkpt lat="47.77636" lon="-3.63459">
        <ele>24</ele>
        <time>2018-07-18T12:45:55Z</time>
      </trkpt>
      <trkpt lat="47.77633" lon="-3.63456">
        <ele>24</ele>
        <time>2018-07-18T12:45:56Z</time>
      </trkpt>
      <trkpt lat="47.7763" lon="-3.63451">
        <ele>24</ele>
        <time>2018-07-18T12:45:57Z</time>
      </trkpt>
      <trkpt lat="47.77628" lon="-3.63446">
        <ele>24</ele>
        <time>2018-07-18T12:45:58Z</time>
      </trkpt>
      <trkpt lat="47.77628" lon="-3.6344">
        <ele>24</ele>
        <time>2018-07-18T12:45:59Z</time>
      </trkpt>
      <trkpt lat="47.77628" lon="-3.63434">
        <ele>24</ele>
        <time>2018-07-18T12:46:00Z</time>
      </trkpt>
      <trkpt lat="47.77627" lon="-3.63428">
        <ele>24</ele>
        <time>2018-07-18T12:46:01Z</time>
      </trkpt>
      <trkpt lat="47.77624" lon="-3.63424">
        <ele>25</ele>
        <time>2018-07-18T12:46:02Z</time>
      </trkpt>
      <trkpt lat="47.77621" lon="-3.63421">
        <ele>25</ele>
        <time>2018-07-18T12:46:03Z</time>
      </trkpt>
      <trkpt lat="47.77617" lon="-3.63419">
        <ele>25</ele>
        <time>2018-07-18T12:46:04Z</time>
      </trkpt>
      <trkpt lat="47.77613" lon="-3.63417">
        <ele>25</ele>
        <time>2018-07-18T12:46:05Z</time>
      </trkpt>
      <trkpt lat="47.77609" lon="-3.63415">
        <ele>25</ele>
        <time>2018-07-18T12:46:06Z</time>
      </trkpt>
      <trkpt lat="47.77604" lon="-3.63412">
        <ele>25</ele>
        <time>2018-07-18T12:46:07Z</time>
      </trkpt>
      <trkpt lat="47.77599" lon="-3.63411">
        <ele>25</ele>
        <time>2018-07-18T12:46:08Z</time>
      </trkpt>
      <trkpt lat="47.77595" lon="-3.63411">
        <ele>25</ele>
        <time>2018-07-18T12:46:09Z</time>
      </trkpt>
      <trkpt lat="47.7759" lon="-3.63413">
        <ele>25</ele>
        <time>2018-07-18T12:46:10Z</time>
      </trkpt>
      <trkpt lat="47.77586" lon="-3.63416">
        <ele>25</ele>
        <time>2018-07-18T12:46:11Z</time>
      </trkpt>
      <trkpt lat="47.77581" lon="-3.63418">
        <ele>25</ele>
        <time>2018-07-18T12:46:12Z</time>
      </trkpt>
      <trkpt lat="47.77576" lon="-3.63421">
        <ele>25</ele>
        <time>2018-07-18T12:46:13Z</time>
      </trkpt>
      <trkpt lat="47.77572" lon="-3.63423">
        <ele>25</ele>
        <time>2018-07-18T12:46:14Z</time>
      </trkpt>
      <trkpt lat="47.77566" lon="-3.63425">
        <ele>25</ele>
        <time>2018-07-18T12:46:15Z</time>
      </trkpt>
      <trkpt lat="47.77561" lon="-3.63428">
        <ele>24</ele>
        <time>2018-07-18T12:46:16Z</time>
      </trkpt>
      <trkpt lat="47.77556" lon="-3.6343">
        <ele>24</ele>
        <time>2018-07-18T12:46:17Z</time>
      </trkpt>
      <trkpt lat="47.7755" lon="-3.63432">
        <ele>24</ele>
        <time>2018-07-18T12:46:18Z</time>
      </trkpt>
      <trkpt lat="47.77545" lon="-3.63434">
        <ele>24</ele>
        <time>2018-07-18T12:46:19Z</time>
      </trkpt>
      <trkpt lat="47.7754" lon="-3.63436">
        <ele>24</ele>
        <time>2018-07-18T12:46:20Z</time>
      </trkpt>
      <trkpt lat="47.77535" lon="-3.63441">
        <ele>23</ele>
        <time>2018-07-18T12:46:21Z</time>
      </trkpt>
      <trkpt lat="47.7753" lon="-3.63447">
        <ele>23</ele>
        <time>2018-07-18T12:46:22Z</time>
      </trkpt>
      <trkpt lat="47.77526" lon="-3.63452">
        <ele>23</ele>
        <time>2018-07-18T12:46:23Z</time>
      </trkpt>
      <trkpt lat="47.77521" lon="-3.63457">
        <ele>23</ele>
        <time>2018-07-18T12:46:24Z</time>
      </trkpt>
      <trkpt lat="47.77515" lon="-3.63461">
        <ele>22</ele>
        <time>2018-07-18T12:46:25Z</time>
      </trkpt>
      <trkpt lat="47.77509" lon="-3.63462">
        <ele>22</ele>
        <time>2018-07-18T12:46:26Z</time>
      </trkpt>
      <trkpt lat="47.77503" lon="-3.63462">
        <ele>21</ele>
        <time>2018-07-18T12:46:27Z</time>
      </trkpt>
      <trkpt lat="47.77497" lon="-3.6346">
        <ele>21</ele>
        <time>2018-07-18T12:46:28Z</time>
      </trkpt>
      <trkpt lat="47.77491" lon="-3.63459">
        <ele>20</ele>
        <time>2018-07-18T12:46:29Z</time>
      </trkpt>
      <trkpt lat="47.77485" lon="-3.63458">
        <ele>20</ele>
        <time>2018-07-18T12:46:30Z</time>
      </trkpt>
      <trkpt lat="47.77479" lon="-3.63456">
        <ele>19</ele>
        <time>2018-07-18T12:46:31Z</time>
      </trkpt>
      <trkpt lat="47.77473" lon="-3.63455">
        <ele>19</ele>
        <time>2018-07-18T12:46:32Z</time>
      </trkpt>
      <trkpt lat="47.77468" lon="-3.63451">
        <ele>18</ele>
        <time>2018-07-18T12:46:33Z</time>
      </trkpt>
      <trkpt lat="47.77462" lon="-3.63448">
        <ele>18</ele>
        <time>2018-07-18T12:46:34Z</time>
      </trkpt>
      <trkpt lat="47.77457" lon="-3.63447">
        <ele>17</ele>
        <time>2018-07-18T12:46:35Z</time>
      </trkpt>
      <trkpt lat="47.77453" lon="-3.63447">
        <ele>16</ele>
        <time>2018-07-18T12:46:36Z</time>
      </trkpt>
      <trkpt lat="47.7745" lon="-3.63445">
        <ele>16</ele>
        <time>2018-07-18T12:46:37Z</time>
      </trkpt>
      <trkpt lat="47.77449" lon="-3.63442">
        <ele>16</ele>
        <time>2018-07-18T12:46:38Z</time>
      </trkpt>
      <trkpt lat="47.77448" lon="-3.63441">
        <ele>16</ele>
        <time>2018-07-18T12:46:39Z</time>
      </trkpt>
      <trkpt lat="47.77448" lon="-3.63441">
        <ele>16</ele>
        <time>2018-07-18T12:46:40Z</time>
      </trkpt>
      <trkpt lat="47.77448" lon="-3.63441">
        <ele>16</ele>
        <time>2018-07-18T12:46:41Z</time>
      </trkpt>
      <trkpt lat="47.77448" lon="-3.63441">
        <ele>16</ele>
        <time>2018-07-18T12:46:42Z</time>
      </trkpt>
      <trkpt lat="47.77448" lon="-3.63441">
        <ele>16</ele>
        <time>2018-07-18T12:46:43Z</time>
      </trkpt>
      <trkpt lat="47.77446" lon="-3.63439">
        <ele>16</ele>
        <time>2018-07-18T12:46:44Z</time>
      </trkpt>
      <trkpt lat="47.77446" lon="-3.63437">
        <ele>16</ele>
        <time>2018-07-18T12:46:45Z</time>
      </trkpt>
      <trkpt lat="47.77445" lon="-3.63434">
        <ele>16</ele>
        <time>2018-07-18T12:46:46Z</time>
      </trkpt>
      <trkpt lat="47.77445" lon="-3.63431">
        <ele>16</ele>
        <time>2018-07-18T12:46:47Z</time>
      </trkpt>
      <trkpt lat="47.77445" lon="-3.63427">
        <ele>16</ele>
        <time>2018-07-18T12:46:48Z</time>
      </trkpt>
      <trkpt lat="47.77444" lon="-3.6342">
        <ele>16</ele>
        <time>2018-07-18T12:46:49Z</time>
      </trkpt>
      <trkpt lat="47.77444" lon="-3.6342">
        <ele>16</ele>
        <time>2018-07-18T12:46:50Z</time>
      </trkpt>
      <trkpt lat="47.77445" lon="-3.63416">
        <ele>16</ele>
        <time>2018-07-18T12:46:51Z</time>
      </trkpt>
      <trkpt lat="47.77446" lon="-3.63412">
        <ele>16</ele>
        <time>2018-07-18T12:46:52Z</time>
      </trkpt>
      <trkpt lat="47.77446" lon="-3.63407">
        <ele>16</ele>
        <time>2018-07-18T12:46:53Z</time>
      </trkpt>
      <trkpt lat="47.77447" lon="-3.63403">
        <ele>17</ele>
        <time>2018-07-18T12:46:54Z</time>
      </trkpt>
      <trkpt lat="47.77448" lon="-3.63398">
        <ele>17</ele>
        <time>2018-07-18T12:46:55Z</time>
      </trkpt>
      <trkpt lat="47.77449" lon="-3.63394">
        <ele>17</ele>
        <time>2018-07-18T12:46:56Z</time>
      </trkpt>
      <trkpt lat="47.77451" lon="-3.63389">
        <ele>17</ele>
        <time>2018-07-18T12:46:57Z</time>
      </trkpt>
      <trkpt lat="47.77452" lon="-3.63384">
        <ele>17</ele>
        <time>2018-07-18T12:46:58Z</time>
      </trkpt>
      <trkpt lat="47.77453" lon="-3.63379">
        <ele>17</ele>
        <time>2018-07-18T12:46:59Z</time>
      </trkpt>
      <trkpt lat="47.77453" lon="-3.63374">
        <ele>17</ele>
        <time>2018-07-18T12:47:00Z</time>
      </trkpt>
      <trkpt lat="47.77453" lon="-3.63369">
        <ele>17</ele>
        <time>2018-07-18T12:47:01Z</time>
      </trkpt>
      <trkpt lat="47.77454" lon="-3.63364">
        <ele>17</ele>
        <time>2018-07-18T12:47:02Z</time>
      </trkpt>
      <trkpt lat="47.77456" lon="-3.63358">
        <ele>17</ele>
        <time>2018-07-18T12:47:03Z</time>
      </trkpt>
      <trkpt lat="47.77458" lon="-3.63353">
        <ele>17</ele>
        <time>2018-07-18T12:47:04Z</time>
      </trkpt>
      <trkpt lat="47.7746" lon="-3.63347">
        <ele>17</ele>
        <time>2018-07-18T12:47:05Z</time>
      </trkpt>
      <trkpt lat="47.77461" lon="-3.63342">
        <ele>17</ele>
        <time>2018-07-18T12:47:06Z</time>
      </trkpt>
      <trkpt lat="47.77463" lon="-3.63337">
        <ele>17</ele>
        <time>2018-07-18T12:47:07Z</time>
      </trkpt>
      <trkpt lat="47.77463" lon="-3.63332">
        <ele>17</ele>
        <time>2018-07-18T12:47:08Z</time>
      </trkpt>
      <trkpt lat="47.77463" lon="-3.63327">
        <ele>17</ele>
        <time>2018-07-18T12:47:09Z</time>
      </trkpt>
      <trkpt lat="47.77461" lon="-3.63323">
        <ele>17</ele>
        <time>2018-07-18T12:47:10Z</time>
      </trkpt>
      <trkpt lat="47.77458" lon="-3.63322">
        <ele>17</ele>
        <time>2018-07-18T12:47:11Z</time>
      </trkpt>
      <trkpt lat="47.77454" lon="-3.63322">
        <ele>17</ele>
        <time>2018-07-18T12:47:12Z</time>
      </trkpt>
      <trkpt lat="47.7745" lon="-3.63321">
        <ele>17</ele>
        <time>2018-07-18T12:47:13Z</time>
      </trkpt>
      <trkpt lat="47.77446" lon="-3.63321">
        <ele>17</ele>
        <time>2018-07-18T12:47:14Z</time>
      </trkpt>
      <trkpt lat="47.77443" lon="-3.6332">
        <ele>17</ele>
        <time>2018-07-18T12:47:15Z</time>
      </trkpt>
      <trkpt lat="47.77439" lon="-3.63319">
        <ele>17</ele>
        <time>2018-07-18T12:47:16Z</time>
      </trkpt>
      <trkpt lat="47.77435" lon="-3.63317">
        <ele>17</ele>
        <time>2018-07-18T12:47:17Z</time>
      </trkpt>
      <trkpt lat="47.77432" lon="-3.63316">
        <ele>17</ele>
        <time>2018-07-18T12:47:18Z</time>
      </trkpt>
      <trkpt lat="47.77428" lon="-3.63314">
        <ele>17</ele>
        <time>2018-07-18T12:47:19Z</time>
      </trkpt>
      <trkpt lat="47.77424" lon="-3.63313">
        <ele>17</ele>
        <time>2018-07-18T12:47:20Z</time>
      </trkpt>
      <trkpt lat="47.77421" lon="-3.63314">
        <ele>17</ele>
        <time>2018-07-18T12:47:21Z</time>
      </trkpt>
      <trkpt lat="47.77418" lon="-3.63315">
        <ele>17</ele>
        <time>2018-07-18T12:47:22Z</time>
      </trkpt>
      <trkpt lat="47.77414" lon="-3.63315">
        <ele>17</ele>
        <time>2018-07-18T12:47:23Z</time>
      </trkpt>
      <trkpt lat="47.7741" lon="-3.63315">
        <ele>17</ele>
        <time>2018-07-18T12:47:24Z</time>
      </trkpt>
      <trkpt lat="47.77406" lon="-3.63314">
        <ele>17</ele>
        <time>2018-07-18T12:47:25Z</time>
      </trkpt>
      <trkpt lat="47.77402" lon="-3.63314">
        <ele>17</ele>
        <time>2018-07-18T12:47:26Z</time>
      </trkpt>
      <trkpt lat="47.77398" lon="-3.63314">
        <ele>17</ele>
        <time>2018-07-18T12:47:27Z</time>
      </trkpt>
      <trkpt lat="47.77394" lon="-3.63313">
        <ele>17</ele>
        <time>2018-07-18T12:47:28Z</time>
      </trkpt>
      <trkpt lat="47.7739" lon="-3.63312">
        <ele>17</ele>
        <time>2018-07-18T12:47:29Z</time>
      </trkpt>
      <trkpt lat="47.77387" lon="-3.63311">
        <ele>17</ele>
        <time>2018-07-18T12:47:30Z</time>
      </trkpt>
      <trkpt lat="47.77383" lon="-3.63309">
        <ele>17</ele>
        <time>2018-07-18T12:47:31Z</time>
      </trkpt>
      <trkpt lat="47.77379" lon="-3.63307">
        <ele>18</ele>
        <time>2018-07-18T12:47:32Z</time>
      </trkpt>
      <trkpt lat="47.77376" lon="-3.63305">
        <ele>18</ele>
        <time>2018-07-18T12:47:33Z</time>
      </trkpt>
      <trkpt lat="47.77372" lon="-3.63303">
        <ele>18</ele>
        <time>2018-07-18T12:47:34Z</time>
      </trkpt>
      <trkpt lat="47.77369" lon="-3.63301">
        <ele>18</ele>
        <time>2018-07-18T12:47:35Z</time>
      </trkpt>
      <trkpt lat="47.77366" lon="-3.63298">
        <ele>18</ele>
        <time>2018-07-18T12:47:36Z</time>
      </trkpt>
      <trkpt lat="47.77362" lon="-3.63296">
        <ele>18</ele>
        <time>2018-07-18T12:47:37Z</time>
      </trkpt>
      <trkpt lat="47.77359" lon="-3.63293">
        <ele>18</ele>
        <time>2018-07-18T12:47:38Z</time>
      </trkpt>
      <trkpt lat="47.77355" lon="-3.63291">
        <ele>19</ele>
        <time>2018-07-18T12:47:39Z</time>
      </trkpt>
      <trkpt lat="47.77351" lon="-3.63288">
        <ele>19</ele>
        <time>2018-07-18T12:47:40Z</time>
      </trkpt>
      <trkpt lat="47.77347" lon="-3.63284">
        <ele>19</ele>
        <time>2018-07-18T12:47:41Z</time>
      </trkpt>
      <trkpt lat="47.77344" lon="-3.6328">
        <ele>19</ele>
        <time>2018-07-18T12:47:42Z</time>
      </trkpt>
      <trkpt lat="47.77342" lon="-3.63275">
        <ele>19</ele>
        <time>2018-07-18T12:47:43Z</time>
      </trkpt>
      <trkpt lat="47.7734" lon="-3.6327">
        <ele>19</ele>
        <time>2018-07-18T12:47:44Z</time>
      </trkpt>
      <trkpt lat="47.77338" lon="-3.63265">
        <ele>19</ele>
        <time>2018-07-18T12:47:45Z</time>
      </trkpt>
      <trkpt lat="47.77337" lon="-3.6326">
        <ele>19</ele>
        <time>2018-07-18T12:47:46Z</time>
      </trkpt>
      <trkpt lat="47.77336" lon="-3.63255">
        <ele>19</ele>
        <time>2018-07-18T12:47:47Z</time>
      </trkpt>
      <trkpt lat="47.77336" lon="-3.63251">
        <ele>19</ele>
        <time>2018-07-18T12:47:48Z</time>
      </trkpt>
      <trkpt lat="47.77335" lon="-3.63246">
        <ele>19</ele>
        <time>2018-07-18T12:47:49Z</time>
      </trkpt>
      <trkpt lat="47.77334" lon="-3.63238">
        <ele>20</ele>
        <time>2018-07-18T12:47:50Z</time>
      </trkpt>
      <trkpt lat="47.77334" lon="-3.63238">
        <ele>20</ele>
        <time>2018-07-18T12:47:51Z</time>
      </trkpt>
      <trkpt lat="47.77333" lon="-3.63233">
        <ele>20</ele>
        <time>2018-07-18T12:47:52Z</time>
      </trkpt>
      <trkpt lat="47.77333" lon="-3.63228">
        <ele>20</ele>
        <time>2018-07-18T12:47:53Z</time>
      </trkpt>
      <trkpt lat="47.77332" lon="-3.63222">
        <ele>20</ele>
        <time>2018-07-18T12:47:54Z</time>
      </trkpt>
      <trkpt lat="47.77331" lon="-3.63217">
        <ele>20</ele>
        <time>2018-07-18T12:47:55Z</time>
      </trkpt>
      <trkpt lat="47.7733" lon="-3.63211">
        <ele>20</ele>
        <time>2018-07-18T12:47:56Z</time>
      </trkpt>
      <trkpt lat="47.77329" lon="-3.63206">
        <ele>20</ele>
        <time>2018-07-18T12:47:57Z</time>
      </trkpt>
      <trkpt lat="47.77329" lon="-3.632">
        <ele>20</ele>
        <time>2018-07-18T12:47:58Z</time>
      </trkpt>
      <trkpt lat="47.7733" lon="-3.63196">
        <ele>20</ele>
        <time>2018-07-18T12:47:59Z</time>
      </trkpt>
      <trkpt lat="47.77332" lon="-3.63192">
        <ele>21</ele>
        <time>2018-07-18T12:48:00Z</time>
      </trkpt>
      <trkpt lat="47.77333" lon="-3.63187">
        <ele>21</ele>
        <time>2018-07-18T12:48:01Z</time>
      </trkpt>
      <trkpt lat="47.77335" lon="-3.63182">
        <ele>21</ele>
        <time>2018-07-18T12:48:02Z</time>
      </trkpt>
      <trkpt lat="47.77335" lon="-3.63177">
        <ele>21</ele>
        <time>2018-07-18T12:48:03Z</time>
      </trkpt>
      <trkpt lat="47.77335" lon="-3.63171">
        <ele>21</ele>
        <time>2018-07-18T12:48:04Z</time>
      </trkpt>
      <trkpt lat="47.77334" lon="-3.63165">
        <ele>21</ele>
        <time>2018-07-18T12:48:05Z</time>
      </trkpt>
      <trkpt lat="47.77333" lon="-3.63159">
        <ele>21</ele>
        <time>2018-07-18T12:48:06Z</time>
      </trkpt>
      <trkpt lat="47.77333" lon="-3.63153">
        <ele>21</ele>
        <time>2018-07-18T12:48:07Z</time>
      </trkpt>
      <trkpt lat="47.77333" lon="-3.63147">
        <ele>21</ele>
        <time>2018-07-18T12:48:08Z</time>
      </trkpt>
      <trkpt lat="47.77334" lon="-3.63141">
        <ele>21</ele>
        <time>2018-07-18T12:48:09Z</time>
      </trkpt>
      <trkpt lat="47.77334" lon="-3.63135">
        <ele>21</ele>
        <time>2018-07-18T12:48:10Z</time>
      </trkpt>
      <trkpt lat="47.77334" lon="-3.63129">
        <ele>21</ele>
        <time>2018-07-18T12:48:11Z</time>
      </trkpt>
      <trkpt lat="47.77334" lon="-3.63123">
        <ele>21</ele>
        <time>2018-07-18T12:48:12Z</time>
      </trkpt>
      <trkpt lat="47.77335" lon="-3.63117">
        <ele>21</ele>
        <time>2018-07-18T12:48:13Z</time>
      </trkpt>
      <trkpt lat="47.77335" lon="-3.63111">
        <ele>21</ele>
        <time>2018-07-18T12:48:14Z</time>
      </trkpt>
      <trkpt lat="47.77336" lon="-3.63106">
        <ele>21</ele>
        <time>2018-07-18T12:48:15Z</time>
      </trkpt>
      <trkpt lat="47.77336" lon="-3.63101">
        <ele>21</ele>
        <time>2018-07-18T12:48:16Z</time>
      </trkpt>
      <trkpt lat="47.77336" lon="-3.63096">
        <ele>21</ele>
        <time>2018-07-18T12:48:17Z</time>
      </trkpt>
      <trkpt lat="47.77335" lon="-3.63091">
        <ele>21</ele>
        <time>2018-07-18T12:48:18Z</time>
      </trkpt>
      <trkpt lat="47.77335" lon="-3.63085">
        <ele>21</ele>
        <time>2018-07-18T12:48:19Z</time>
      </trkpt>
      <trkpt lat="47.77335" lon="-3.63079">
        <ele>21</ele>
        <time>2018-07-18T12:48:20Z</time>
      </trkpt>
      <trkpt lat="47.77335" lon="-3.63073">
        <ele>20</ele>
        <time>2018-07-18T12:48:21Z</time>
      </trkpt>
      <trkpt lat="47.77335" lon="-3.63067">
        <ele>20</ele>
        <time>2018-07-18T12:48:22Z</time>
      </trkpt>
      <trkpt lat="47.77335" lon="-3.6306">
        <ele>20</ele>
        <time>2018-07-18T12:48:23Z</time>
      </trkpt>
      <trkpt lat="47.77335" lon="-3.63053">
        <ele>20</ele>
        <time>2018-07-18T12:48:24Z</time>
      </trkpt>
      <trkpt lat="47.77336" lon="-3.63046">
        <ele>20</ele>
        <time>2018-07-18T12:48:25Z</time>
      </trkpt>
      <trkpt lat="47.77336" lon="-3.63038">
        <ele>19</ele>
        <time>2018-07-18T12:48:26Z</time>
      </trkpt>
      <trkpt lat="47.77337" lon="-3.63022">
        <ele>19</ele>
        <time>2018-07-18T12:48:27Z</time>
      </trkpt>
      <trkpt lat="47.77337" lon="-3.63022">
        <ele>19</ele>
        <time>2018-07-18T12:48:28Z</time>
      </trkpt>
      <trkpt lat="47.77338" lon="-3.63013">
        <ele>18</ele>
        <time>2018-07-18T12:48:29Z</time>
      </trkpt>
      <trkpt lat="47.77338" lon="-3.63003">
        <ele>18</ele>
        <time>2018-07-18T12:48:30Z</time>
      </trkpt>
      <trkpt lat="47.77339" lon="-3.62994">
        <ele>18</ele>
        <time>2018-07-18T12:48:31Z</time>
      </trkpt>
      <trkpt lat="47.7734" lon="-3.62988">
        <ele>17</ele>
        <time>2018-07-18T12:48:32Z</time>
      </trkpt>
      <trkpt lat="47.77341" lon="-3.62984">
        <ele>17</ele>
        <time>2018-07-18T12:48:33Z</time>
      </trkpt>
      <trkpt lat="47.77343" lon="-3.62982">
        <ele>17</ele>
        <time>2018-07-18T12:48:34Z</time>
      </trkpt>
      <trkpt lat="47.77344" lon="-3.6298">
        <ele>17</ele>
        <time>2018-07-18T12:48:35Z</time>
      </trkpt>
      <trkpt lat="47.77345" lon="-3.62979">
        <ele>17</ele>
        <time>2018-07-18T12:48:36Z</time>
      </trkpt>
      <trkpt lat="47.77345" lon="-3.62979">
        <ele>17</ele>
        <time>2018-07-18T12:48:37Z</time>
      </trkpt>
      <trkpt lat="47.77345" lon="-3.62979">
        <ele>16</ele>
        <time>2018-07-18T12:48:38Z</time>
      </trkpt>
      <trkpt lat="47.77345" lon="-3.62979">
        <ele>16</ele>
        <time>2018-07-18T12:48:39Z</time>
      </trkpt>
      <trkpt lat="47.77343" lon="-3.62976">
        <ele>16</ele>
        <time>2018-07-18T12:48:40Z</time>
      </trkpt>
      <trkpt lat="47.77343" lon="-3.62976">
        <ele>16</ele>
        <time>2018-07-18T12:48:41Z</time>
      </trkpt>
      <trkpt lat="47.7734" lon="-3.62972">
        <ele>16</ele>
        <time>2018-07-18T12:48:42Z</time>
      </trkpt>
      <trkpt lat="47.77338" lon="-3.62969">
        <ele>16</ele>
        <time>2018-07-18T12:48:43Z</time>
      </trkpt>
      <trkpt lat="47.77338" lon="-3.62967">
        <ele>16</ele>
        <time>2018-07-18T12:48:44Z</time>
      </trkpt>
      <trkpt lat="47.77338" lon="-3.62967">
        <ele>16</ele>
        <time>2018-07-18T12:48:45Z</time>
      </trkpt>
      <trkpt lat="47.77336" lon="-3.62964">
        <ele>16</ele>
        <time>2018-07-18T12:48:46Z</time>
      </trkpt>
      <trkpt lat="47.77336" lon="-3.62964">
        <ele>16</ele>
        <time>2018-07-18T12:48:47Z</time>
      </trkpt>
      <trkpt lat="47.77332" lon="-3.62959">
        <ele>16</ele>
        <time>2018-07-18T12:48:48Z</time>
      </trkpt>
      <trkpt lat="47.77332" lon="-3.62959">
        <ele>16</ele>
        <time>2018-07-18T12:48:49Z</time>
      </trkpt>
      <trkpt lat="47.77326" lon="-3.62955">
        <ele>16</ele>
        <time>2018-07-18T12:48:50Z</time>
      </trkpt>
      <trkpt lat="47.77326" lon="-3.62955">
        <ele>16</ele>
        <time>2018-07-18T12:48:51Z</time>
      </trkpt>
      <trkpt lat="47.77323" lon="-3.62953">
        <ele>16</ele>
        <time>2018-07-18T12:48:52Z</time>
      </trkpt>
      <trkpt lat="47.77319" lon="-3.62951">
        <ele>16</ele>
        <time>2018-07-18T12:48:53Z</time>
      </trkpt>
      <trkpt lat="47.77319" lon="-3.6295">
        <ele>16</ele>
        <time>2018-07-18T12:48:54Z</time>
      </trkpt>
      <trkpt lat="47.77319" lon="-3.62948">
        <ele>16</ele>
        <time>2018-07-18T12:48:55Z</time>
      </trkpt>
      <trkpt lat="47.7732" lon="-3.62946">
        <ele>16</ele>
        <time>2018-07-18T12:48:56Z</time>
      </trkpt>
      <trkpt lat="47.77322" lon="-3.62945">
        <ele>16</ele>
        <time>2018-07-18T12:48:57Z</time>
      </trkpt>
      <trkpt lat="47.77322" lon="-3.62945">
        <ele>16</ele>
        <time>2018-07-18T12:48:58Z</time>
      </trkpt>
      <trkpt lat="47.77328" lon="-3.6294">
        <ele>15</ele>
        <time>2018-07-18T12:48:59Z</time>
      </trkpt>
      <trkpt lat="47.7733" lon="-3.62937">
        <ele>15</ele>
        <time>2018-07-18T12:49:00Z</time>
      </trkpt>
      <trkpt lat="47.7733" lon="-3.62937">
        <ele>15</ele>
        <time>2018-07-18T12:49:01Z</time>
      </trkpt>
      <trkpt lat="47.77336" lon="-3.6293">
        <ele>15</ele>
        <time>2018-07-18T12:49:02Z</time>
      </trkpt>
      <trkpt lat="47.77339" lon="-3.62927">
        <ele>15</ele>
        <time>2018-07-18T12:49:03Z</time>
      </trkpt>
      <trkpt lat="47.77344" lon="-3.62924">
        <ele>14</ele>
        <time>2018-07-18T12:49:04Z</time>
      </trkpt>
      <trkpt lat="47.77347" lon="-3.62921">
        <ele>14</ele>
        <time>2018-07-18T12:49:05Z</time>
      </trkpt>
      <trkpt lat="47.77351" lon="-3.62917">
        <ele>14</ele>
        <time>2018-07-18T12:49:06Z</time>
      </trkpt>
      <trkpt lat="47.77353" lon="-3.62912">
        <ele>14</ele>
        <time>2018-07-18T12:49:07Z</time>
      </trkpt>
      <trkpt lat="47.77356" lon="-3.62908">
        <ele>14</ele>
        <time>2018-07-18T12:49:08Z</time>
      </trkpt>
      <trkpt lat="47.77359" lon="-3.62904">
        <ele>14</ele>
        <time>2018-07-18T12:49:09Z</time>
      </trkpt>
      <trkpt lat="47.77359" lon="-3.62904">
        <ele>14</ele>
        <time>2018-07-18T12:49:10Z</time>
      </trkpt>
      <trkpt lat="47.77363" lon="-3.62898">
        <ele>13</ele>
        <time>2018-07-18T12:49:11Z</time>
      </trkpt>
      <trkpt lat="47.77363" lon="-3.62898">
        <ele>13</ele>
        <time>2018-07-18T12:49:12Z</time>
      </trkpt>
      <trkpt lat="47.77369" lon="-3.62892">
        <ele>13</ele>
        <time>2018-07-18T12:49:13Z</time>
      </trkpt>
      <trkpt lat="47.77372" lon="-3.62892">
        <ele>13</ele>
        <time>2018-07-18T12:49:14Z</time>
      </trkpt>
      <trkpt lat="47.77375" lon="-3.62893">
        <ele>12</ele>
        <time>2018-07-18T12:49:15Z</time>
      </trkpt>
      <trkpt lat="47.77378" lon="-3.62895">
        <ele>12</ele>
        <time>2018-07-18T12:49:16Z</time>
      </trkpt>
      <trkpt lat="47.77381" lon="-3.62899">
        <ele>12</ele>
        <time>2018-07-18T12:49:17Z</time>
      </trkpt>
      <trkpt lat="47.77383" lon="-3.62901">
        <ele>11</ele>
        <time>2018-07-18T12:49:18Z</time>
      </trkpt>
      <trkpt lat="47.77383" lon="-3.62901">
        <ele>11</ele>
        <time>2018-07-18T12:49:19Z</time>
      </trkpt>
      <trkpt lat="47.7739" lon="-3.62903">
        <ele>11</ele>
        <time>2018-07-18T12:49:20Z</time>
      </trkpt>
      <trkpt lat="47.77393" lon="-3.62902">
        <ele>11</ele>
        <time>2018-07-18T12:49:21Z</time>
      </trkpt>
      <trkpt lat="47.77393" lon="-3.62902">
        <ele>11</ele>
        <time>2018-07-18T12:49:22Z</time>
      </trkpt>
      <trkpt lat="47.77399" lon="-3.62901">
        <ele>10</ele>
        <time>2018-07-18T12:49:23Z</time>
      </trkpt>
      <trkpt lat="47.77401" lon="-3.62902">
        <ele>10</ele>
        <time>2018-07-18T12:49:24Z</time>
      </trkpt>
      <trkpt lat="47.77403" lon="-3.62903">
        <ele>10</ele>
        <time>2018-07-18T12:49:25Z</time>
      </trkpt>
      <trkpt lat="47.77405" lon="-3.62903">
        <ele>10</ele>
        <time>2018-07-18T12:49:26Z</time>
      </trkpt>
      <trkpt lat="47.77408" lon="-3.62903">
        <ele>10</ele>
        <time>2018-07-18T12:49:27Z</time>
      </trkpt>
      <trkpt lat="47.7741" lon="-3.62901">
        <ele>10</ele>
        <time>2018-07-18T12:49:28Z</time>
      </trkpt>
      <trkpt lat="47.77412" lon="-3.62899">
        <ele>10</ele>
        <time>2018-07-18T12:49:29Z</time>
      </trkpt>
      <trkpt lat="47.77415" lon="-3.62897">
        <ele>10</ele>
        <time>2018-07-18T12:49:30Z</time>
      </trkpt>
      <trkpt lat="47.77417" lon="-3.62895">
        <ele>10</ele>
        <time>2018-07-18T12:49:31Z</time>
      </trkpt>
      <trkpt lat="47.77418" lon="-3.62894">
        <ele>10</ele>
        <time>2018-07-18T12:49:32Z</time>
      </trkpt>
      <trkpt lat="47.7742" lon="-3.62893">
        <ele>10</ele>
        <time>2018-07-18T12:49:33Z</time>
      </trkpt>
      <trkpt lat="47.77422" lon="-3.62892">
        <ele>10</ele>
        <time>2018-07-18T12:49:34Z</time>
      </trkpt>
      <trkpt lat="47.77425" lon="-3.6289">
        <ele>10</ele>
        <time>2018-07-18T12:49:35Z</time>
      </trkpt>
      <trkpt lat="47.77428" lon="-3.62888">
        <ele>10</ele>
        <time>2018-07-18T12:49:36Z</time>
      </trkpt>
      <trkpt lat="47.77429" lon="-3.62887">
        <ele>10</ele>
        <time>2018-07-18T12:49:37Z</time>
      </trkpt>
      <trkpt lat="47.77429" lon="-3.62887">
        <ele>10</ele>
        <time>2018-07-18T12:49:38Z</time>
      </trkpt>
      <trkpt lat="47.7743" lon="-3.62887">
        <ele>9</ele>
        <time>2018-07-18T12:49:39Z</time>
      </trkpt>
      <trkpt lat="47.7743" lon="-3.62887">
        <ele>9</ele>
        <time>2018-07-18T12:49:40Z</time>
      </trkpt>
      <trkpt lat="47.77431" lon="-3.62885">
        <ele>9</ele>
        <time>2018-07-18T12:49:41Z</time>
      </trkpt>
      <trkpt lat="47.77431" lon="-3.62884">
        <ele>9</ele>
        <time>2018-07-18T12:49:42Z</time>
      </trkpt>
      <trkpt lat="47.77431" lon="-3.62884">
        <ele>9</ele>
        <time>2018-07-18T12:49:43Z</time>
      </trkpt>
      <trkpt lat="47.77432" lon="-3.62883">
        <ele>9</ele>
        <time>2018-07-18T12:49:44Z</time>
      </trkpt>
      <trkpt lat="47.77433" lon="-3.62882">
        <ele>8</ele>
        <time>2018-07-18T12:49:45Z</time>
      </trkpt>
      <trkpt lat="47.77433" lon="-3.62881">
        <ele>8</ele>
        <time>2018-07-18T12:49:46Z</time>
      </trkpt>
      <trkpt lat="47.77434" lon="-3.62881">
        <ele>8</ele>
        <time>2018-07-18T12:49:47Z</time>
      </trkpt>
      <trkpt lat="47.77434" lon="-3.62881">
        <ele>8</ele>
        <time>2018-07-18T12:49:48Z</time>
      </trkpt>
      <trkpt lat="47.77434" lon="-3.62881">
        <ele>8</ele>
        <time>2018-07-18T12:49:49Z</time>
      </trkpt>
      <trkpt lat="47.77435" lon="-3.62881">
        <ele>8</ele>
        <time>2018-07-18T12:49:50Z</time>
      </trkpt>
      <trkpt lat="47.77435" lon="-3.62881">
        <ele>8</ele>
        <time>2018-07-18T12:49:51Z</time>
      </trkpt>
      <trkpt lat="47.77437" lon="-3.6288">
        <ele>7</ele>
        <time>2018-07-18T12:49:52Z</time>
      </trkpt>
      <trkpt lat="47.77437" lon="-3.62879">
        <ele>7</ele>
        <time>2018-07-18T12:49:53Z</time>
      </trkpt>
      <trkpt lat="47.77437" lon="-3.62879">
        <ele>7</ele>
        <time>2018-07-18T12:49:54Z</time>
      </trkpt>
      <trkpt lat="47.77437" lon="-3.62878">
        <ele>7</ele>
        <time>2018-07-18T12:49:55Z</time>
      </trkpt>
      <trkpt lat="47.77438" lon="-3.62877">
        <ele>7</ele>
        <time>2018-07-18T12:49:56Z</time>
      </trkpt>
      <trkpt lat="47.77439" lon="-3.62876">
        <ele>7</ele>
        <time>2018-07-18T12:49:57Z</time>
      </trkpt>
      <trkpt lat="47.77441" lon="-3.62875">
        <ele>7</ele>
        <time>2018-07-18T12:49:58Z</time>
      </trkpt>
      <trkpt lat="47.77443" lon="-3.62875">
        <ele>7</ele>
        <time>2018-07-18T12:49:59Z</time>
      </trkpt>
      <trkpt lat="47.77444" lon="-3.62874">
        <ele>7</ele>
        <time>2018-07-18T12:50:00Z</time>
      </trkpt>
      <trkpt lat="47.77444" lon="-3.62874">
        <ele>7</ele>
        <time>2018-07-18T12:50:01Z</time>
      </trkpt>
      <trkpt lat="47.77449" lon="-3.62874">
        <ele>7</ele>
        <time>2018-07-18T12:50:02Z</time>
      </trkpt>
      <trkpt lat="47.77451" lon="-3.62873">
        <ele>7</ele>
        <time>2018-07-18T12:50:03Z</time>
      </trkpt>
      <trkpt lat="47.77451" lon="-3.62873">
        <ele>7</ele>
        <time>2018-07-18T12:50:04Z</time>
      </trkpt>
      <trkpt lat="47.77455" lon="-3.6287">
        <ele>7</ele>
        <time>2018-07-18T12:50:05Z</time>
      </trkpt>
      <trkpt lat="47.77457" lon="-3.62869">
        <ele>7</ele>
        <time>2018-07-18T12:50:06Z</time>
      </trkpt>
      <trkpt lat="47.77458" lon="-3.62867">
        <ele>7</ele>
        <time>2018-07-18T12:50:07Z</time>
      </trkpt>
      <trkpt lat="47.77459" lon="-3.62864">
        <ele>7</ele>
        <time>2018-07-18T12:50:08Z</time>
      </trkpt>
      <trkpt lat="47.77459" lon="-3.62864">
        <ele>7</ele>
        <time>2018-07-18T12:50:09Z</time>
      </trkpt>
      <trkpt lat="47.77458" lon="-3.62856">
        <ele>7</ele>
        <time>2018-07-18T12:50:10Z</time>
      </trkpt>
      <trkpt lat="47.77459" lon="-3.62851">
        <ele>6</ele>
        <time>2018-07-18T12:50:11Z</time>
      </trkpt>
      <trkpt lat="47.7746" lon="-3.62845">
        <ele>6</ele>
        <time>2018-07-18T12:50:12Z</time>
      </trkpt>
      <trkpt lat="47.7746" lon="-3.62845">
        <ele>6</ele>
        <time>2018-07-18T12:50:13Z</time>
      </trkpt>
      <trkpt lat="47.77463" lon="-3.62831">
        <ele>6</ele>
        <time>2018-07-18T12:50:14Z</time>
      </trkpt>
      <trkpt lat="47.77465" lon="-3.62825">
        <ele>6</ele>
        <time>2018-07-18T12:50:15Z</time>
      </trkpt>
      <trkpt lat="47.77467" lon="-3.6282">
        <ele>6</ele>
        <time>2018-07-18T12:50:16Z</time>
      </trkpt>
      <trkpt lat="47.77469" lon="-3.62816">
        <ele>6</ele>
        <time>2018-07-18T12:50:17Z</time>
      </trkpt>
      <trkpt lat="47.77472" lon="-3.62813">
        <ele>6</ele>
        <time>2018-07-18T12:50:18Z</time>
      </trkpt>
      <trkpt lat="47.77474" lon="-3.62809">
        <ele>6</ele>
        <time>2018-07-18T12:50:19Z</time>
      </trkpt>
      <trkpt lat="47.77477" lon="-3.62806">
        <ele>6</ele>
        <time>2018-07-18T12:50:20Z</time>
      </trkpt>
      <trkpt lat="47.77479" lon="-3.62804">
        <ele>6</ele>
        <time>2018-07-18T12:50:21Z</time>
      </trkpt>
      <trkpt lat="47.77481" lon="-3.62802">
        <ele>6</ele>
        <time>2018-07-18T12:50:22Z</time>
      </trkpt>
      <trkpt lat="47.77481" lon="-3.62802">
        <ele>6</ele>
        <time>2018-07-18T12:50:23Z</time>
      </trkpt>
      <trkpt lat="47.77482" lon="-3.62801">
        <ele>6</ele>
        <time>2018-07-18T12:50:24Z</time>
      </trkpt>
      <trkpt lat="47.77482" lon="-3.62801">
        <ele>6</ele>
        <time>2018-07-18T12:50:25Z</time>
      </trkpt>
      <trkpt lat="47.77482" lon="-3.62801">
        <ele>6</ele>
        <time>2018-07-18T12:50:26Z</time>
      </trkpt>
      <trkpt lat="47.77483" lon="-3.62797">
        <ele>6</ele>
        <time>2018-07-18T12:50:28Z</time>
      </trkpt>
      <trkpt lat="47.77482" lon="-3.62796">
        <ele>6</ele>
        <time>2018-07-18T12:50:29Z</time>
      </trkpt>
      <trkpt lat="47.77482" lon="-3.62795">
        <ele>6</ele>
        <time>2018-07-18T12:50:30Z</time>
      </trkpt>
      <trkpt lat="47.77481" lon="-3.62795">
        <ele>5</ele>
        <time>2018-07-18T12:50:31Z</time>
      </trkpt>
      <trkpt lat="47.7748" lon="-3.62795">
        <ele>5</ele>
        <time>2018-07-18T12:50:32Z</time>
      </trkpt>
      <trkpt lat="47.7748" lon="-3.62795">
        <ele>5</ele>
        <time>2018-07-18T12:50:33Z</time>
      </trkpt>
      <trkpt lat="47.7748" lon="-3.62795">
        <ele>5</ele>
        <time>2018-07-18T12:50:34Z</time>
      </trkpt>
      <trkpt lat="47.7748" lon="-3.62795">
        <ele>5</ele>
        <time>2018-07-18T12:50:35Z</time>
      </trkpt>
      <trkpt lat="47.7748" lon="-3.62796">
        <ele>5</ele>
        <time>2018-07-18T12:50:36Z</time>
      </trkpt>
      <trkpt lat="47.7748" lon="-3.62796">
        <ele>4</ele>
        <time>2018-07-18T12:50:37Z</time>
      </trkpt>
      <trkpt lat="47.7748" lon="-3.62796">
        <ele>4</ele>
        <time>2018-07-18T12:50:38Z</time>
      </trkpt>
      <trkpt lat="47.77479" lon="-3.62796">
        <ele>4</ele>
        <time>2018-07-18T12:50:39Z</time>
      </trkpt>
      <trkpt lat="47.77477" lon="-3.62798">
        <ele>4</ele>
        <time>2018-07-18T12:50:40Z</time>
      </trkpt>
      <trkpt lat="47.77476" lon="-3.62798">
        <ele>4</ele>
        <time>2018-07-18T12:50:41Z</time>
      </trkpt>
      <trkpt lat="47.77474" lon="-3.62798">
        <ele>4</ele>
        <time>2018-07-18T12:50:42Z</time>
      </trkpt>
      <trkpt lat="47.77472" lon="-3.62797">
        <ele>4</ele>
        <time>2018-07-18T12:50:43Z</time>
      </trkpt>
      <trkpt lat="47.7747" lon="-3.62795">
        <ele>4</ele>
        <time>2018-07-18T12:50:44Z</time>
      </trkpt>
      <trkpt lat="47.77469" lon="-3.62793">
        <ele>4</ele>
        <time>2018-07-18T12:50:45Z</time>
      </trkpt>
      <trkpt lat="47.77468" lon="-3.6279">
        <ele>4</ele>
        <time>2018-07-18T12:50:46Z</time>
      </trkpt>
      <trkpt lat="47.77467" lon="-3.62787">
        <ele>4</ele>
        <time>2018-07-18T12:50:47Z</time>
      </trkpt>
      <trkpt lat="47.77464" lon="-3.62784">
        <ele>4</ele>
        <time>2018-07-18T12:50:48Z</time>
      </trkpt>
      <trkpt lat="47.77463" lon="-3.62781">
        <ele>4</ele>
        <time>2018-07-18T12:50:49Z</time>
      </trkpt>
      <trkpt lat="47.77461" lon="-3.62778">
        <ele>3</ele>
        <time>2018-07-18T12:50:50Z</time>
      </trkpt>
      <trkpt lat="47.77459" lon="-3.62775">
        <ele>3</ele>
        <time>2018-07-18T12:50:51Z</time>
      </trkpt>
      <trkpt lat="47.77457" lon="-3.62772">
        <ele>3</ele>
        <time>2018-07-18T12:50:52Z</time>
      </trkpt>
      <trkpt lat="47.77455" lon="-3.62769">
        <ele>3</ele>
        <time>2018-07-18T12:50:53Z</time>
      </trkpt>
      <trkpt lat="47.77454" lon="-3.62766">
        <ele>3</ele>
        <time>2018-07-18T12:50:54Z</time>
      </trkpt>
      <trkpt lat="47.77452" lon="-3.62763">
        <ele>3</ele>
        <time>2018-07-18T12:50:55Z</time>
      </trkpt>
      <trkpt lat="47.7745" lon="-3.62759">
        <ele>3</ele>
        <time>2018-07-18T12:50:56Z</time>
      </trkpt>
      <trkpt lat="47.77448" lon="-3.62756">
        <ele>3</ele>
        <time>2018-07-18T12:50:57Z</time>
      </trkpt>
      <trkpt lat="47.77446" lon="-3.62752">
        <ele>3</ele>
        <time>2018-07-18T12:50:58Z</time>
      </trkpt>
      <trkpt lat="47.77444" lon="-3.62748">
        <ele>3</ele>
        <time>2018-07-18T12:50:59Z</time>
      </trkpt>
      <trkpt lat="47.77442" lon="-3.62745">
        <ele>3</ele>
        <time>2018-07-18T12:51:00Z</time>
      </trkpt>
      <trkpt lat="47.77441" lon="-3.62742">
        <ele>3</ele>
        <time>2018-07-18T12:51:01Z</time>
      </trkpt>
      <trkpt lat="47.7744" lon="-3.62738">
        <ele>3</ele>
        <time>2018-07-18T12:51:02Z</time>
      </trkpt>
      <trkpt lat="47.7744" lon="-3.62734">
        <ele>3</ele>
        <time>2018-07-18T12:51:03Z</time>
      </trkpt>
      <trkpt lat="47.77439" lon="-3.6273">
        <ele>3</ele>
        <time>2018-07-18T12:51:04Z</time>
      </trkpt>
      <trkpt lat="47.77438" lon="-3.62727">
        <ele>3</ele>
        <time>2018-07-18T12:51:05Z</time>
      </trkpt>
      <trkpt lat="47.77437" lon="-3.62723">
        <ele>4</ele>
        <time>2018-07-18T12:51:06Z</time>
      </trkpt>
      <trkpt lat="47.77437" lon="-3.6272">
        <ele>4</ele>
        <time>2018-07-18T12:51:07Z</time>
      </trkpt>
      <trkpt lat="47.77436" lon="-3.62717">
        <ele>4</ele>
        <time>2018-07-18T12:51:08Z</time>
      </trkpt>
      <trkpt lat="47.77435" lon="-3.62715">
        <ele>4</ele>
        <time>2018-07-18T12:51:09Z</time>
      </trkpt>
      <trkpt lat="47.77433" lon="-3.62714">
        <ele>5</ele>
        <time>2018-07-18T12:51:10Z</time>
      </trkpt>
      <trkpt lat="47.77431" lon="-3.62713">
        <ele>5</ele>
        <time>2018-07-18T12:51:11Z</time>
      </trkpt>
      <trkpt lat="47.77429" lon="-3.62713">
        <ele>5</ele>
        <time>2018-07-18T12:51:12Z</time>
      </trkpt>
      <trkpt lat="47.77427" lon="-3.62713">
        <ele>5</ele>
        <time>2018-07-18T12:51:13Z</time>
      </trkpt>
      <trkpt lat="47.77425" lon="-3.62713">
        <ele>5</ele>
        <time>2018-07-18T12:51:14Z</time>
      </trkpt>
      <trkpt lat="47.77424" lon="-3.62713">
        <ele>5</ele>
        <time>2018-07-18T12:51:15Z</time>
      </trkpt>
      <trkpt lat="47.77422" lon="-3.62713">
        <ele>5</ele>
        <time>2018-07-18T12:51:16Z</time>
      </trkpt>
      <trkpt lat="47.77421" lon="-3.62713">
        <ele>5</ele>
        <time>2018-07-18T12:51:17Z</time>
      </trkpt>
      <trkpt lat="47.77421" lon="-3.62713">
        <ele>5</ele>
        <time>2018-07-18T12:51:18Z</time>
      </trkpt>
      <trkpt lat="47.77421" lon="-3.62713">
        <ele>5</ele>
        <time>2018-07-18T12:51:19Z</time>
      </trkpt>
      <trkpt lat="47.77421" lon="-3.62713">
        <ele>6</ele>
        <time>2018-07-18T12:51:20Z</time>
      </trkpt>
      <trkpt lat="47.77421" lon="-3.62713">
        <ele>6</ele>
        <time>2018-07-18T12:51:21Z</time>
      </trkpt>
      <trkpt lat="47.7742" lon="-3.62713">
        <ele>6</ele>
        <time>2018-07-18T12:51:22Z</time>
      </trkpt>
      <trkpt lat="47.77419" lon="-3.62711">
        <ele>6</ele>
        <time>2018-07-18T12:51:23Z</time>
      </trkpt>
      <trkpt lat="47.77418" lon="-3.62709">
        <ele>6</ele>
        <time>2018-07-18T12:51:24Z</time>
      </trkpt>
      <trkpt lat="47.77418" lon="-3.62707">
        <ele>6</ele>
        <time>2018-07-18T12:51:25Z</time>
      </trkpt>
      <trkpt lat="47.77417" lon="-3.62704">
        <ele>6</ele>
        <time>2018-07-18T12:51:26Z</time>
      </trkpt>
      <trkpt lat="47.77417" lon="-3.62701">
        <ele>6</ele>
        <time>2018-07-18T12:51:27Z</time>
      </trkpt>
      <trkpt lat="47.77416" lon="-3.62698">
        <ele>6</ele>
        <time>2018-07-18T12:51:28Z</time>
      </trkpt>
      <trkpt lat="47.77415" lon="-3.62695">
        <ele>6</ele>
        <time>2018-07-18T12:51:29Z</time>
      </trkpt>
      <trkpt lat="47.77415" lon="-3.62692">
        <ele>7</ele>
        <time>2018-07-18T12:51:30Z</time>
      </trkpt>
      <trkpt lat="47.77414" lon="-3.62689">
        <ele>7</ele>
        <time>2018-07-18T12:51:31Z</time>
      </trkpt>
      <trkpt lat="47.77413" lon="-3.62685">
        <ele>7</ele>
        <time>2018-07-18T12:51:32Z</time>
      </trkpt>
      <trkpt lat="47.77413" lon="-3.62682">
        <ele>7</ele>
        <time>2018-07-18T12:51:33Z</time>
      </trkpt>
      <trkpt lat="47.77413" lon="-3.62679">
        <ele>7</ele>
        <time>2018-07-18T12:51:34Z</time>
      </trkpt>
      <trkpt lat="47.77412" lon="-3.62676">
        <ele>7</ele>
        <time>2018-07-18T12:51:35Z</time>
      </trkpt>
      <trkpt lat="47.77413" lon="-3.62674">
        <ele>7</ele>
        <time>2018-07-18T12:51:36Z</time>
      </trkpt>
      <trkpt lat="47.77413" lon="-3.62671">
        <ele>7</ele>
        <time>2018-07-18T12:51:37Z</time>
      </trkpt>
      <trkpt lat="47.77413" lon="-3.62668">
        <ele>8</ele>
        <time>2018-07-18T12:51:38Z</time>
      </trkpt>
      <trkpt lat="47.77413" lon="-3.62666">
        <ele>8</ele>
        <time>2018-07-18T12:51:39Z</time>
      </trkpt>
      <trkpt lat="47.77413" lon="-3.62663">
        <ele>8</ele>
        <time>2018-07-18T12:51:40Z</time>
      </trkpt>
      <trkpt lat="47.77413" lon="-3.6266">
        <ele>8</ele>
        <time>2018-07-18T12:51:41Z</time>
      </trkpt>
      <trkpt lat="47.77414" lon="-3.62657">
        <ele>8</ele>
        <time>2018-07-18T12:51:42Z</time>
      </trkpt>
      <trkpt lat="47.77414" lon="-3.62653">
        <ele>8</ele>
        <time>2018-07-18T12:51:43Z</time>
      </trkpt>
      <trkpt lat="47.77414" lon="-3.6265">
        <ele>8</ele>
        <time>2018-07-18T12:51:44Z</time>
      </trkpt>
      <trkpt lat="47.77414" lon="-3.62646">
        <ele>8</ele>
        <time>2018-07-18T12:51:45Z</time>
      </trkpt>
      <trkpt lat="47.77415" lon="-3.62643">
        <ele>8</ele>
        <time>2018-07-18T12:51:46Z</time>
      </trkpt>
      <trkpt lat="47.77416" lon="-3.62638">
        <ele>9</ele>
        <time>2018-07-18T12:51:47Z</time>
      </trkpt>
      <trkpt lat="47.77417" lon="-3.62634">
        <ele>9</ele>
        <time>2018-07-18T12:51:48Z</time>
      </trkpt>
      <trkpt lat="47.77417" lon="-3.6263">
        <ele>9</ele>
        <time>2018-07-18T12:51:49Z</time>
      </trkpt>
      <trkpt lat="47.77418" lon="-3.62626">
        <ele>9</ele>
        <time>2018-07-18T12:51:50Z</time>
      </trkpt>
      <trkpt lat="47.77419" lon="-3.62622">
        <ele>9</ele>
        <time>2018-07-18T12:51:51Z</time>
      </trkpt>
      <trkpt lat="47.77419" lon="-3.62618">
        <ele>10</ele>
        <time>2018-07-18T12:51:52Z</time>
      </trkpt>
      <trkpt lat="47.7742" lon="-3.62615">
        <ele>10</ele>
        <time>2018-07-18T12:51:53Z</time>
      </trkpt>
      <trkpt lat="47.77421" lon="-3.62611">
        <ele>10</ele>
        <time>2018-07-18T12:51:54Z</time>
      </trkpt>
      <trkpt lat="47.77422" lon="-3.62607">
        <ele>10</ele>
        <time>2018-07-18T12:51:55Z</time>
      </trkpt>
      <trkpt lat="47.77423" lon="-3.62603">
        <ele>10</ele>
        <time>2018-07-18T12:51:56Z</time>
      </trkpt>
      <trkpt lat="47.77424" lon="-3.62599">
        <ele>11</ele>
        <time>2018-07-18T12:51:57Z</time>
      </trkpt>
      <trkpt lat="47.77424" lon="-3.62596">
        <ele>11</ele>
        <time>2018-07-18T12:51:58Z</time>
      </trkpt>
      <trkpt lat="47.77425" lon="-3.62593">
        <ele>11</ele>
        <time>2018-07-18T12:51:59Z</time>
      </trkpt>
      <trkpt lat="47.77426" lon="-3.62589">
        <ele>11</ele>
        <time>2018-07-18T12:52:00Z</time>
      </trkpt>
      <trkpt lat="47.77427" lon="-3.62585">
        <ele>11</ele>
        <time>2018-07-18T12:52:01Z</time>
      </trkpt>
      <trkpt lat="47.77428" lon="-3.62582">
        <ele>12</ele>
        <time>2018-07-18T12:52:02Z</time>
      </trkpt>
      <trkpt lat="47.77429" lon="-3.62578">
        <ele>12</ele>
        <time>2018-07-18T12:52:03Z</time>
      </trkpt>
      <trkpt lat="47.7743" lon="-3.62575">
        <ele>12</ele>
        <time>2018-07-18T12:52:04Z</time>
      </trkpt>
      <trkpt lat="47.77431" lon="-3.62573">
        <ele>13</ele>
        <time>2018-07-18T12:52:05Z</time>
      </trkpt>
      <trkpt lat="47.77431" lon="-3.62571">
        <ele>13</ele>
        <time>2018-07-18T12:52:06Z</time>
      </trkpt>
      <trkpt lat="47.77432" lon="-3.6257">
        <ele>13</ele>
        <time>2018-07-18T12:52:07Z</time>
      </trkpt>
      <trkpt lat="47.77432" lon="-3.6257">
        <ele>13</ele>
        <time>2018-07-18T12:52:08Z</time>
      </trkpt>
      <trkpt lat="47.77432" lon="-3.62569">
        <ele>13</ele>
        <time>2018-07-18T12:52:09Z</time>
      </trkpt>
      <trkpt lat="47.77432" lon="-3.62569">
        <ele>13</ele>
        <time>2018-07-18T12:52:10Z</time>
      </trkpt>
      <trkpt lat="47.77433" lon="-3.62565">
        <ele>14</ele>
        <time>2018-07-18T12:52:11Z</time>
      </trkpt>
      <trkpt lat="47.77433" lon="-3.62563">
        <ele>14</ele>
        <time>2018-07-18T12:52:12Z</time>
      </trkpt>
      <trkpt lat="47.77434" lon="-3.6256">
        <ele>14</ele>
        <time>2018-07-18T12:52:13Z</time>
      </trkpt>
      <trkpt lat="47.77435" lon="-3.62557">
        <ele>14</ele>
        <time>2018-07-18T12:52:14Z</time>
      </trkpt>
      <trkpt lat="47.77436" lon="-3.62554">
        <ele>15</ele>
        <time>2018-07-18T12:52:15Z</time>
      </trkpt>
      <trkpt lat="47.77437" lon="-3.62551">
        <ele>15</ele>
        <time>2018-07-18T12:52:16Z</time>
      </trkpt>
      <trkpt lat="47.77437" lon="-3.62548">
        <ele>15</ele>
        <time>2018-07-18T12:52:17Z</time>
      </trkpt>
      <trkpt lat="47.77438" lon="-3.62545">
        <ele>15</ele>
        <time>2018-07-18T12:52:18Z</time>
      </trkpt>
      <trkpt lat="47.77438" lon="-3.62543">
        <ele>15</ele>
        <time>2018-07-18T12:52:19Z</time>
      </trkpt>
      <trkpt lat="47.77439" lon="-3.6254">
        <ele>15</ele>
        <time>2018-07-18T12:52:20Z</time>
      </trkpt>
      <trkpt lat="47.77439" lon="-3.62537">
        <ele>15</ele>
        <time>2018-07-18T12:52:21Z</time>
      </trkpt>
      <trkpt lat="47.7744" lon="-3.62534">
        <ele>16</ele>
        <time>2018-07-18T12:52:22Z</time>
      </trkpt>
      <trkpt lat="47.77441" lon="-3.6253">
        <ele>16</ele>
        <time>2018-07-18T12:52:23Z</time>
      </trkpt>
      <trkpt lat="47.77442" lon="-3.62527">
        <ele>16</ele>
        <time>2018-07-18T12:52:24Z</time>
      </trkpt>
      <trkpt lat="47.77443" lon="-3.62524">
        <ele>16</ele>
        <time>2018-07-18T12:52:25Z</time>
      </trkpt>
      <trkpt lat="47.77444" lon="-3.62522">
        <ele>16</ele>
        <time>2018-07-18T12:52:26Z</time>
      </trkpt>
      <trkpt lat="47.77446" lon="-3.62519">
        <ele>16</ele>
        <time>2018-07-18T12:52:27Z</time>
      </trkpt>
      <trkpt lat="47.77448" lon="-3.62518">
        <ele>16</ele>
        <time>2018-07-18T12:52:28Z</time>
      </trkpt>
      <trkpt lat="47.7745" lon="-3.62516">
        <ele>17</ele>
        <time>2018-07-18T12:52:29Z</time>
      </trkpt>
      <trkpt lat="47.77452" lon="-3.62514">
        <ele>17</ele>
        <time>2018-07-18T12:52:30Z</time>
      </trkpt>
      <trkpt lat="47.77454" lon="-3.62513">
        <ele>17</ele>
        <time>2018-07-18T12:52:31Z</time>
      </trkpt>
      <trkpt lat="47.77457" lon="-3.62512">
        <ele>17</ele>
        <time>2018-07-18T12:52:32Z</time>
      </trkpt>
      <trkpt lat="47.77459" lon="-3.62511">
        <ele>17</ele>
        <time>2018-07-18T12:52:33Z</time>
      </trkpt>
      <trkpt lat="47.77461" lon="-3.6251">
        <ele>17</ele>
        <time>2018-07-18T12:52:34Z</time>
      </trkpt>
      <trkpt lat="47.77464" lon="-3.62509">
        <ele>18</ele>
        <time>2018-07-18T12:52:35Z</time>
      </trkpt>
      <trkpt lat="47.77466" lon="-3.62507">
        <ele>18</ele>
        <time>2018-07-18T12:52:36Z</time>
      </trkpt>
      <trkpt lat="47.77469" lon="-3.62506">
        <ele>18</ele>
        <time>2018-07-18T12:52:37Z</time>
      </trkpt>
      <trkpt lat="47.77471" lon="-3.62505">
        <ele>18</ele>
        <time>2018-07-18T12:52:38Z</time>
      </trkpt>
      <trkpt lat="47.77474" lon="-3.62504">
        <ele>18</ele>
        <time>2018-07-18T12:52:39Z</time>
      </trkpt>
      <trkpt lat="47.77476" lon="-3.62503">
        <ele>18</ele>
        <time>2018-07-18T12:52:40Z</time>
      </trkpt>
      <trkpt lat="47.77479" lon="-3.62502">
        <ele>18</ele>
        <time>2018-07-18T12:52:41Z</time>
      </trkpt>
      <trkpt lat="47.77481" lon="-3.62501">
        <ele>19</ele>
        <time>2018-07-18T12:52:42Z</time>
      </trkpt>
      <trkpt lat="47.77483" lon="-3.625">
        <ele>19</ele>
        <time>2018-07-18T12:52:43Z</time>
      </trkpt>
      <trkpt lat="47.77486" lon="-3.62499">
        <ele>19</ele>
        <time>2018-07-18T12:52:44Z</time>
      </trkpt>
      <trkpt lat="47.77488" lon="-3.62498">
        <ele>19</ele>
        <time>2018-07-18T12:52:45Z</time>
      </trkpt>
      <trkpt lat="47.7749" lon="-3.62496">
        <ele>19</ele>
        <time>2018-07-18T12:52:46Z</time>
      </trkpt>
      <trkpt lat="47.77493" lon="-3.62494">
        <ele>19</ele>
        <time>2018-07-18T12:52:47Z</time>
      </trkpt>
      <trkpt lat="47.77495" lon="-3.62492">
        <ele>19</ele>
        <time>2018-07-18T12:52:48Z</time>
      </trkpt>
      <trkpt lat="47.77496" lon="-3.62489">
        <ele>19</ele>
        <time>2018-07-18T12:52:49Z</time>
      </trkpt>
      <trkpt lat="47.77498" lon="-3.62487">
        <ele>20</ele>
        <time>2018-07-18T12:52:50Z</time>
      </trkpt>
      <trkpt lat="47.77499" lon="-3.62484">
        <ele>20</ele>
        <time>2018-07-18T12:52:51Z</time>
      </trkpt>
      <trkpt lat="47.775" lon="-3.62483">
        <ele>20</ele>
        <time>2018-07-18T12:52:52Z</time>
      </trkpt>
      <trkpt lat="47.77501" lon="-3.6248">
        <ele>20</ele>
        <time>2018-07-18T12:52:53Z</time>
      </trkpt>
      <trkpt lat="47.77502" lon="-3.62477">
        <ele>20</ele>
        <time>2018-07-18T12:52:54Z</time>
      </trkpt>
      <trkpt lat="47.77502" lon="-3.62474">
        <ele>20</ele>
        <time>2018-07-18T12:52:55Z</time>
      </trkpt>
      <trkpt lat="47.77501" lon="-3.62471">
        <ele>20</ele>
        <time>2018-07-18T12:52:56Z</time>
      </trkpt>
      <trkpt lat="47.775" lon="-3.62468">
        <ele>21</ele>
        <time>2018-07-18T12:52:57Z</time>
      </trkpt>
      <trkpt lat="47.77499" lon="-3.62465">
        <ele>21</ele>
        <time>2018-07-18T12:52:58Z</time>
      </trkpt>
      <trkpt lat="47.77498" lon="-3.62461">
        <ele>21</ele>
        <time>2018-07-18T12:52:59Z</time>
      </trkpt>
      <trkpt lat="47.77497" lon="-3.62458">
        <ele>21</ele>
        <time>2018-07-18T12:53:00Z</time>
      </trkpt>
      <trkpt lat="47.77495" lon="-3.62456">
        <ele>21</ele>
        <time>2018-07-18T12:53:01Z</time>
      </trkpt>
      <trkpt lat="47.77495" lon="-3.62453">
        <ele>21</ele>
        <time>2018-07-18T12:53:02Z</time>
      </trkpt>
      <trkpt lat="47.77494" lon="-3.6245">
        <ele>22</ele>
        <time>2018-07-18T12:53:03Z</time>
      </trkpt>
      <trkpt lat="47.77492" lon="-3.62447">
        <ele>22</ele>
        <time>2018-07-18T12:53:04Z</time>
      </trkpt>
      <trkpt lat="47.77489" lon="-3.62446">
        <ele>22</ele>
        <time>2018-07-18T12:53:05Z</time>
      </trkpt>
      <trkpt lat="47.77485" lon="-3.62445">
        <ele>22</ele>
        <time>2018-07-18T12:53:06Z</time>
      </trkpt>
      <trkpt lat="47.77482" lon="-3.62444">
        <ele>22</ele>
        <time>2018-07-18T12:53:07Z</time>
      </trkpt>
      <trkpt lat="47.77479" lon="-3.62443">
        <ele>22</ele>
        <time>2018-07-18T12:53:08Z</time>
      </trkpt>
      <trkpt lat="47.77476" lon="-3.62441">
        <ele>22</ele>
        <time>2018-07-18T12:53:09Z</time>
      </trkpt>
      <trkpt lat="47.77473" lon="-3.6244">
        <ele>22</ele>
        <time>2018-07-18T12:53:10Z</time>
      </trkpt>
      <trkpt lat="47.77469" lon="-3.62439">
        <ele>22</ele>
        <time>2018-07-18T12:53:11Z</time>
      </trkpt>
      <trkpt lat="47.77466" lon="-3.62438">
        <ele>22</ele>
        <time>2018-07-18T12:53:12Z</time>
      </trkpt>
      <trkpt lat="47.77462" lon="-3.62436">
        <ele>22</ele>
        <time>2018-07-18T12:53:13Z</time>
      </trkpt>
      <trkpt lat="47.77458" lon="-3.62434">
        <ele>22</ele>
        <time>2018-07-18T12:53:14Z</time>
      </trkpt>
      <trkpt lat="47.77454" lon="-3.62433">
        <ele>22</ele>
        <time>2018-07-18T12:53:15Z</time>
      </trkpt>
      <trkpt lat="47.77451" lon="-3.62431">
        <ele>22</ele>
        <time>2018-07-18T12:53:16Z</time>
      </trkpt>
      <trkpt lat="47.77447" lon="-3.6243">
        <ele>22</ele>
        <time>2018-07-18T12:53:17Z</time>
      </trkpt>
      <trkpt lat="47.77443" lon="-3.62428">
        <ele>22</ele>
        <time>2018-07-18T12:53:18Z</time>
      </trkpt>
      <trkpt lat="47.77438" lon="-3.62426">
        <ele>22</ele>
        <time>2018-07-18T12:53:19Z</time>
      </trkpt>
      <trkpt lat="47.77434" lon="-3.62424">
        <ele>22</ele>
        <time>2018-07-18T12:53:20Z</time>
      </trkpt>
      <trkpt lat="47.7743" lon="-3.62421">
        <ele>22</ele>
        <time>2018-07-18T12:53:21Z</time>
      </trkpt>
      <trkpt lat="47.77425" lon="-3.62419">
        <ele>22</ele>
        <time>2018-07-18T12:53:22Z</time>
      </trkpt>
      <trkpt lat="47.77421" lon="-3.62416">
        <ele>22</ele>
        <time>2018-07-18T12:53:23Z</time>
      </trkpt>
      <trkpt lat="47.77416" lon="-3.62414">
        <ele>22</ele>
        <time>2018-07-18T12:53:24Z</time>
      </trkpt>
      <trkpt lat="47.77412" lon="-3.62411">
        <ele>22</ele>
        <time>2018-07-18T12:53:25Z</time>
      </trkpt>
      <trkpt lat="47.77408" lon="-3.62408">
        <ele>22</ele>
        <time>2018-07-18T12:53:26Z</time>
      </trkpt>
      <trkpt lat="47.77403" lon="-3.62405">
        <ele>22</ele>
        <time>2018-07-18T12:53:27Z</time>
      </trkpt>
      <trkpt lat="47.77399" lon="-3.62403">
        <ele>23</ele>
        <time>2018-07-18T12:53:28Z</time>
      </trkpt>
      <trkpt lat="47.77394" lon="-3.624">
        <ele>23</ele>
        <time>2018-07-18T12:53:29Z</time>
      </trkpt>
      <trkpt lat="47.7739" lon="-3.62397">
        <ele>23</ele>
        <time>2018-07-18T12:53:30Z</time>
      </trkpt>
      <trkpt lat="47.77385" lon="-3.62394">
        <ele>23</ele>
        <time>2018-07-18T12:53:31Z</time>
      </trkpt>
      <trkpt lat="47.77381" lon="-3.62391">
        <ele>23</ele>
        <time>2018-07-18T12:53:32Z</time>
      </trkpt>
      <trkpt lat="47.77377" lon="-3.62388">
        <ele>23</ele>
        <time>2018-07-18T12:53:33Z</time>
      </trkpt>
      <trkpt lat="47.77373" lon="-3.62385">
        <ele>23</ele>
        <time>2018-07-18T12:53:34Z</time>
      </trkpt>
      <trkpt lat="47.77368" lon="-3.62382">
        <ele>23</ele>
        <time>2018-07-18T12:53:35Z</time>
      </trkpt>
      <trkpt lat="47.77364" lon="-3.62379">
        <ele>23</ele>
        <time>2018-07-18T12:53:36Z</time>
      </trkpt>
      <trkpt lat="47.77359" lon="-3.62375">
        <ele>23</ele>
        <time>2018-07-18T12:53:37Z</time>
      </trkpt>
      <trkpt lat="47.77355" lon="-3.62372">
        <ele>23</ele>
        <time>2018-07-18T12:53:38Z</time>
      </trkpt>
      <trkpt lat="47.77351" lon="-3.62369">
        <ele>23</ele>
        <time>2018-07-18T12:53:39Z</time>
      </trkpt>
      <trkpt lat="47.77347" lon="-3.62367">
        <ele>23</ele>
        <time>2018-07-18T12:53:40Z</time>
      </trkpt>
      <trkpt lat="47.77343" lon="-3.62364">
        <ele>23</ele>
        <time>2018-07-18T12:53:41Z</time>
      </trkpt>
      <trkpt lat="47.77339" lon="-3.62361">
        <ele>23</ele>
        <time>2018-07-18T12:53:42Z</time>
      </trkpt>
      <trkpt lat="47.77334" lon="-3.62359">
        <ele>23</ele>
        <time>2018-07-18T12:53:43Z</time>
      </trkpt>
      <trkpt lat="47.7733" lon="-3.62356">
        <ele>23</ele>
        <time>2018-07-18T12:53:44Z</time>
      </trkpt>
      <trkpt lat="47.77325" lon="-3.62353">
        <ele>23</ele>
        <time>2018-07-18T12:53:45Z</time>
      </trkpt>
      <trkpt lat="47.7732" lon="-3.62351">
        <ele>23</ele>
        <time>2018-07-18T12:53:46Z</time>
      </trkpt>
      <trkpt lat="47.77316" lon="-3.62348">
        <ele>23</ele>
        <time>2018-07-18T12:53:47Z</time>
      </trkpt>
      <trkpt lat="47.77311" lon="-3.62345">
        <ele>23</ele>
        <time>2018-07-18T12:53:48Z</time>
      </trkpt>
      <trkpt lat="47.77306" lon="-3.62342">
        <ele>23</ele>
        <time>2018-07-18T12:53:49Z</time>
      </trkpt>
      <trkpt lat="47.77302" lon="-3.62337">
        <ele>23</ele>
        <time>2018-07-18T12:53:50Z</time>
      </trkpt>
      <trkpt lat="47.77298" lon="-3.62332">
        <ele>23</ele>
        <time>2018-07-18T12:53:51Z</time>
      </trkpt>
      <trkpt lat="47.77296" lon="-3.62329">
        <ele>23</ele>
        <time>2018-07-18T12:53:52Z</time>
      </trkpt>
      <trkpt lat="47.77295" lon="-3.62328">
        <ele>23</ele>
        <time>2018-07-18T12:53:53Z</time>
      </trkpt>
      <trkpt lat="47.77295" lon="-3.62327">
        <ele>23</ele>
        <time>2018-07-18T12:53:54Z</time>
      </trkpt>
      <trkpt lat="47.77294" lon="-3.62327">
        <ele>23</ele>
        <time>2018-07-18T12:53:55Z</time>
      </trkpt>
      <trkpt lat="47.77294" lon="-3.62327">
        <ele>23</ele>
        <time>2018-07-18T12:53:56Z</time>
      </trkpt>
      <trkpt lat="47.77294" lon="-3.62326">
        <ele>23</ele>
        <time>2018-07-18T12:53:57Z</time>
      </trkpt>
      <trkpt lat="47.77295" lon="-3.62324">
        <ele>23</ele>
        <time>2018-07-18T12:53:58Z</time>
      </trkpt>
      <trkpt lat="47.77296" lon="-3.6232">
        <ele>23</ele>
        <time>2018-07-18T12:53:59Z</time>
      </trkpt>
      <trkpt lat="47.77296" lon="-3.62316">
        <ele>22</ele>
        <time>2018-07-18T12:54:00Z</time>
      </trkpt>
      <trkpt lat="47.77297" lon="-3.6231">
        <ele>22</ele>
        <time>2018-07-18T12:54:01Z</time>
      </trkpt>
      <trkpt lat="47.77298" lon="-3.62305">
        <ele>22</ele>
        <time>2018-07-18T12:54:02Z</time>
      </trkpt>
      <trkpt lat="47.773" lon="-3.623">
        <ele>22</ele>
        <time>2018-07-18T12:54:03Z</time>
      </trkpt>
      <trkpt lat="47.77301" lon="-3.62294">
        <ele>22</ele>
        <time>2018-07-18T12:54:04Z</time>
      </trkpt>
      <trkpt lat="47.77302" lon="-3.62289">
        <ele>22</ele>
        <time>2018-07-18T12:54:05Z</time>
      </trkpt>
      <trkpt lat="47.77303" lon="-3.62283">
        <ele>22</ele>
        <time>2018-07-18T12:54:06Z</time>
      </trkpt>
      <trkpt lat="47.77303" lon="-3.62277">
        <ele>22</ele>
        <time>2018-07-18T12:54:07Z</time>
      </trkpt>
      <trkpt lat="47.77305" lon="-3.62271">
        <ele>22</ele>
        <time>2018-07-18T12:54:08Z</time>
      </trkpt>
      <trkpt lat="47.77306" lon="-3.62263">
        <ele>21</ele>
        <time>2018-07-18T12:54:09Z</time>
      </trkpt>
      <trkpt lat="47.77307" lon="-3.62256">
        <ele>21</ele>
        <time>2018-07-18T12:54:10Z</time>
      </trkpt>
      <trkpt lat="47.77308" lon="-3.62248">
        <ele>21</ele>
        <time>2018-07-18T12:54:11Z</time>
      </trkpt>
      <trkpt lat="47.77309" lon="-3.6224">
        <ele>21</ele>
        <time>2018-07-18T12:54:12Z</time>
      </trkpt>
      <trkpt lat="47.77309" lon="-3.62231">
        <ele>21</ele>
        <time>2018-07-18T12:54:13Z</time>
      </trkpt>
      <trkpt lat="47.77309" lon="-3.62222">
        <ele>20</ele>
        <time>2018-07-18T12:54:14Z</time>
      </trkpt>
      <trkpt lat="47.77309" lon="-3.62213">
        <ele>20</ele>
        <time>2018-07-18T12:54:15Z</time>
      </trkpt>
      <trkpt lat="47.77309" lon="-3.62205">
        <ele>20</ele>
        <time>2018-07-18T12:54:16Z</time>
      </trkpt>
      <trkpt lat="47.77308" lon="-3.62196">
        <ele>20</ele>
        <time>2018-07-18T12:54:17Z</time>
      </trkpt>
      <trkpt lat="47.77308" lon="-3.62188">
        <ele>19</ele>
        <time>2018-07-18T12:54:18Z</time>
      </trkpt>
      <trkpt lat="47.77307" lon="-3.6218">
        <ele>19</ele>
        <time>2018-07-18T12:54:19Z</time>
      </trkpt>
      <trkpt lat="47.77307" lon="-3.62172">
        <ele>19</ele>
        <time>2018-07-18T12:54:20Z</time>
      </trkpt>
      <trkpt lat="47.77307" lon="-3.62163">
        <ele>19</ele>
        <time>2018-07-18T12:54:21Z</time>
      </trkpt>
      <trkpt lat="47.77308" lon="-3.62154">
        <ele>19</ele>
        <time>2018-07-18T12:54:22Z</time>
      </trkpt>
      <trkpt lat="47.77308" lon="-3.62147">
        <ele>19</ele>
        <time>2018-07-18T12:54:23Z</time>
      </trkpt>
      <trkpt lat="47.77308" lon="-3.62142">
        <ele>19</ele>
        <time>2018-07-18T12:54:24Z</time>
      </trkpt>
      <trkpt lat="47.77308" lon="-3.62141">
        <ele>19</ele>
        <time>2018-07-18T12:54:25Z</time>
      </trkpt>
      <trkpt lat="47.77308" lon="-3.6214">
        <ele>19</ele>
        <time>2018-07-18T12:54:26Z</time>
      </trkpt>
      <trkpt lat="47.77308" lon="-3.6214">
        <ele>19</ele>
        <time>2018-07-18T12:54:27Z</time>
      </trkpt>
      <trkpt lat="47.77308" lon="-3.6214">
        <ele>19</ele>
        <time>2018-07-18T12:54:28Z</time>
      </trkpt>
      <trkpt lat="47.77308" lon="-3.6214">
        <ele>19</ele>
        <time>2018-07-18T12:54:29Z</time>
      </trkpt>
      <trkpt lat="47.77306" lon="-3.62132">
        <ele>19</ele>
        <time>2018-07-18T12:54:30Z</time>
      </trkpt>
      <trkpt lat="47.77304" lon="-3.62128">
        <ele>19</ele>
        <time>2018-07-18T12:54:31Z</time>
      </trkpt>
      <trkpt lat="47.77301" lon="-3.62124">
        <ele>19</ele>
        <time>2018-07-18T12:54:32Z</time>
      </trkpt>
      <trkpt lat="47.77297" lon="-3.6212">
        <ele>19</ele>
        <time>2018-07-18T12:54:33Z</time>
      </trkpt>
      <trkpt lat="47.77293" lon="-3.62117">
        <ele>19</ele>
        <time>2018-07-18T12:54:34Z</time>
      </trkpt>
      <trkpt lat="47.77287" lon="-3.62115">
        <ele>19</ele>
        <time>2018-07-18T12:54:35Z</time>
      </trkpt>
      <trkpt lat="47.77282" lon="-3.62113">
        <ele>19</ele>
        <time>2018-07-18T12:54:36Z</time>
      </trkpt>
      <trkpt lat="47.77277" lon="-3.62111">
        <ele>19</ele>
        <time>2018-07-18T12:54:37Z</time>
      </trkpt>
      <trkpt lat="47.77274" lon="-3.62108">
        <ele>19</ele>
        <time>2018-07-18T12:54:38Z</time>
      </trkpt>
      <trkpt lat="47.77271" lon="-3.62106">
        <ele>19</ele>
        <time>2018-07-18T12:54:39Z</time>
      </trkpt>
      <trkpt lat="47.77269" lon="-3.62103">
        <ele>19</ele>
        <time>2018-07-18T12:54:40Z</time>
      </trkpt>
      <trkpt lat="47.77267" lon="-3.62101">
        <ele>18</ele>
        <time>2018-07-18T12:54:41Z</time>
      </trkpt>
      <trkpt lat="47.77264" lon="-3.62098">
        <ele>18</ele>
        <time>2018-07-18T12:54:42Z</time>
      </trkpt>
      <trkpt lat="47.77261" lon="-3.62096">
        <ele>18</ele>
        <time>2018-07-18T12:54:43Z</time>
      </trkpt>
      <trkpt lat="47.77258" lon="-3.62093">
        <ele>18</ele>
        <time>2018-07-18T12:54:44Z</time>
      </trkpt>
      <trkpt lat="47.77255" lon="-3.62091">
        <ele>17</ele>
        <time>2018-07-18T12:54:45Z</time>
      </trkpt>
      <trkpt lat="47.77252" lon="-3.6209">
        <ele>17</ele>
        <time>2018-07-18T12:54:46Z</time>
      </trkpt>
      <trkpt lat="47.77249" lon="-3.62089">
        <ele>17</ele>
        <time>2018-07-18T12:54:47Z</time>
      </trkpt>
      <trkpt lat="47.77247" lon="-3.62087">
        <ele>16</ele>
        <time>2018-07-18T12:54:48Z</time>
      </trkpt>
      <trkpt lat="47.77246" lon="-3.62085">
        <ele>16</ele>
        <time>2018-07-18T12:54:49Z</time>
      </trkpt>
      <trkpt lat="47.77246" lon="-3.62082">
        <ele>15</ele>
        <time>2018-07-18T12:54:50Z</time>
      </trkpt>
      <trkpt lat="47.77245" lon="-3.6208">
        <ele>15</ele>
        <time>2018-07-18T12:54:51Z</time>
      </trkpt>
      <trkpt lat="47.77244" lon="-3.62077">
        <ele>15</ele>
        <time>2018-07-18T12:54:52Z</time>
      </trkpt>
      <trkpt lat="47.77243" lon="-3.62075">
        <ele>14</ele>
        <time>2018-07-18T12:54:53Z</time>
      </trkpt>
      <trkpt lat="47.77242" lon="-3.62074">
        <ele>14</ele>
        <time>2018-07-18T12:54:54Z</time>
      </trkpt>
      <trkpt lat="47.77242" lon="-3.62074">
        <ele>13</ele>
        <time>2018-07-18T12:54:55Z</time>
      </trkpt>
      <trkpt lat="47.77242" lon="-3.62074">
        <ele>13</ele>
        <time>2018-07-18T12:54:56Z</time>
      </trkpt>
      <trkpt lat="47.77242" lon="-3.62073">
        <ele>13</ele>
        <time>2018-07-18T12:54:57Z</time>
      </trkpt>
      <trkpt lat="47.77241" lon="-3.62073">
        <ele>13</ele>
        <time>2018-07-18T12:54:58Z</time>
      </trkpt>
      <trkpt lat="47.77241" lon="-3.62072">
        <ele>12</ele>
        <time>2018-07-18T12:54:59Z</time>
      </trkpt>
      <trkpt lat="47.77241" lon="-3.62071">
        <ele>12</ele>
        <time>2018-07-18T12:55:00Z</time>
      </trkpt>
      <trkpt lat="47.77241" lon="-3.6207">
        <ele>12</ele>
        <time>2018-07-18T12:55:01Z</time>
      </trkpt>
      <trkpt lat="47.77242" lon="-3.6207">
        <ele>12</ele>
        <time>2018-07-18T12:55:02Z</time>
      </trkpt>
      <trkpt lat="47.77242" lon="-3.62069">
        <ele>12</ele>
        <time>2018-07-18T12:55:03Z</time>
      </trkpt>
      <trkpt lat="47.77243" lon="-3.62069">
        <ele>11</ele>
        <time>2018-07-18T12:55:04Z</time>
      </trkpt>
      <trkpt lat="47.77244" lon="-3.62068">
        <ele>11</ele>
        <time>2018-07-18T12:55:05Z</time>
      </trkpt>
      <trkpt lat="47.77244" lon="-3.62068">
        <ele>11</ele>
        <time>2018-07-18T12:55:06Z</time>
      </trkpt>
      <trkpt lat="47.77244" lon="-3.62069">
        <ele>11</ele>
        <time>2018-07-18T12:55:07Z</time>
      </trkpt>
      <trkpt lat="47.77244" lon="-3.62069">
        <ele>10</ele>
        <time>2018-07-18T12:55:08Z</time>
      </trkpt>
      <trkpt lat="47.77244" lon="-3.62069">
        <ele>10</ele>
        <time>2018-07-18T12:55:09Z</time>
      </trkpt>
      <trkpt lat="47.77245" lon="-3.62068">
        <ele>10</ele>
        <time>2018-07-18T12:55:10Z</time>
      </trkpt>
      <trkpt lat="47.77246" lon="-3.62068">
        <ele>10</ele>
        <time>2018-07-18T12:55:11Z</time>
      </trkpt>
      <trkpt lat="47.77248" lon="-3.62068">
        <ele>10</ele>
        <time>2018-07-18T12:55:12Z</time>
      </trkpt>
      <trkpt lat="47.7725" lon="-3.62068">
        <ele>10</ele>
        <time>2018-07-18T12:55:13Z</time>
      </trkpt>
      <trkpt lat="47.77252" lon="-3.62069">
        <ele>10</ele>
        <time>2018-07-18T12:55:14Z</time>
      </trkpt>
      <trkpt lat="47.77254" lon="-3.62069">
        <ele>9</ele>
        <time>2018-07-18T12:55:15Z</time>
      </trkpt>
      <trkpt lat="47.77256" lon="-3.6207">
        <ele>9</ele>
        <time>2018-07-18T12:55:16Z</time>
      </trkpt>
      <trkpt lat="47.77257" lon="-3.62069">
        <ele>9</ele>
        <time>2018-07-18T12:55:17Z</time>
      </trkpt>
      <trkpt lat="47.77259" lon="-3.62069">
        <ele>9</ele>
        <time>2018-07-18T12:55:18Z</time>
      </trkpt>
      <trkpt lat="47.77261" lon="-3.62068">
        <ele>9</ele>
        <time>2018-07-18T12:55:19Z</time>
      </trkpt>
      <trkpt lat="47.77263" lon="-3.62067">
        <ele>9</ele>
        <time>2018-07-18T12:55:20Z</time>
      </trkpt>
      <trkpt lat="47.77264" lon="-3.62065">
        <ele>9</ele>
        <time>2018-07-18T12:55:21Z</time>
      </trkpt>
      <trkpt lat="47.77265" lon="-3.62064">
        <ele>9</ele>
        <time>2018-07-18T12:55:22Z</time>
      </trkpt>
      <trkpt lat="47.77266" lon="-3.62063">
        <ele>10</ele>
        <time>2018-07-18T12:55:23Z</time>
      </trkpt>
      <trkpt lat="47.77267" lon="-3.62061">
        <ele>10</ele>
        <time>2018-07-18T12:55:24Z</time>
      </trkpt>
      <trkpt lat="47.77268" lon="-3.6206">
        <ele>10</ele>
        <time>2018-07-18T12:55:25Z</time>
      </trkpt>
      <trkpt lat="47.77269" lon="-3.62059">
        <ele>10</ele>
        <time>2018-07-18T12:55:26Z</time>
      </trkpt>
      <trkpt lat="47.77269" lon="-3.62058">
        <ele>10</ele>
        <time>2018-07-18T12:55:27Z</time>
      </trkpt>
      <trkpt lat="47.7727" lon="-3.62059">
        <ele>10</ele>
        <time>2018-07-18T12:55:28Z</time>
      </trkpt>
      <trkpt lat="47.7727" lon="-3.62058">
        <ele>10</ele>
        <time>2018-07-18T12:55:29Z</time>
      </trkpt>
      <trkpt lat="47.7727" lon="-3.62058">
        <ele>10</ele>
        <time>2018-07-18T12:55:30Z</time>
      </trkpt>
      <trkpt lat="47.77271" lon="-3.62057">
        <ele>10</ele>
        <time>2018-07-18T12:55:31Z</time>
      </trkpt>
      <trkpt lat="47.77271" lon="-3.62057">
        <ele>10</ele>
        <time>2018-07-18T12:55:32Z</time>
      </trkpt>
      <trkpt lat="47.77271" lon="-3.62056">
        <ele>10</ele>
        <time>2018-07-18T12:55:33Z</time>
      </trkpt>
      <trkpt lat="47.77271" lon="-3.62055">
        <ele>10</ele>
        <time>2018-07-18T12:55:34Z</time>
      </trkpt>
      <trkpt lat="47.77271" lon="-3.62054">
        <ele>10</ele>
        <time>2018-07-18T12:55:35Z</time>
      </trkpt>
      <trkpt lat="47.77271" lon="-3.62054">
        <ele>10</ele>
        <time>2018-07-18T12:55:36Z</time>
      </trkpt>
      <trkpt lat="47.7727" lon="-3.62053">
        <ele>10</ele>
        <time>2018-07-18T12:55:37Z</time>
      </trkpt>
      <trkpt lat="47.7727" lon="-3.62053">
        <ele>10</ele>
        <time>2018-07-18T12:55:38Z</time>
      </trkpt>
      <trkpt lat="47.77269" lon="-3.62053">
        <ele>10</ele>
        <time>2018-07-18T12:55:39Z</time>
      </trkpt>
      <trkpt lat="47.77268" lon="-3.62053">
        <ele>10</ele>
        <time>2018-07-18T12:55:40Z</time>
      </trkpt>
      <trkpt lat="47.77267" lon="-3.62054">
        <ele>10</ele>
        <time>2018-07-18T12:55:41Z</time>
      </trkpt>
      <trkpt lat="47.77266" lon="-3.62054">
        <ele>10</ele>
        <time>2018-07-18T12:55:42Z</time>
      </trkpt>
      <trkpt lat="47.77265" lon="-3.62054">
        <ele>10</ele>
        <time>2018-07-18T12:55:43Z</time>
      </trkpt>
      <trkpt lat="47.77265" lon="-3.62053">
        <ele>10</ele>
        <time>2018-07-18T12:55:44Z</time>
      </trkpt>
      <trkpt lat="47.77264" lon="-3.62053">
        <ele>10</ele>
        <time>2018-07-18T12:55:45Z</time>
      </trkpt>
      <trkpt lat="47.77263" lon="-3.62053">
        <ele>11</ele>
        <time>2018-07-18T12:55:46Z</time>
      </trkpt>
      <trkpt lat="47.77262" lon="-3.62053">
        <ele>11</ele>
        <time>2018-07-18T12:55:47Z</time>
      </trkpt>
      <trkpt lat="47.77262" lon="-3.62052">
        <ele>11</ele>
        <time>2018-07-18T12:55:48Z</time>
      </trkpt>
      <trkpt lat="47.77261" lon="-3.62051">
        <ele>11</ele>
        <time>2018-07-18T12:55:49Z</time>
      </trkpt>
      <trkpt lat="47.7726" lon="-3.6205">
        <ele>12</ele>
        <time>2018-07-18T12:55:50Z</time>
      </trkpt>
      <trkpt lat="47.7726" lon="-3.62049">
        <ele>12</ele>
        <time>2018-07-18T12:55:51Z</time>
      </trkpt>
      <trkpt lat="47.77259" lon="-3.62048">
        <ele>12</ele>
        <time>2018-07-18T12:55:52Z</time>
      </trkpt>
      <trkpt lat="47.77259" lon="-3.62048">
        <ele>12</ele>
        <time>2018-07-18T12:55:53Z</time>
      </trkpt>
      <trkpt lat="47.77259" lon="-3.62048">
        <ele>12</ele>
        <time>2018-07-18T12:55:54Z</time>
      </trkpt>
      <trkpt lat="47.77259" lon="-3.62048">
        <ele>13</ele>
        <time>2018-07-18T12:55:55Z</time>
      </trkpt>
      <trkpt lat="47.77259" lon="-3.62048">
        <ele>13</ele>
        <time>2018-07-18T12:55:56Z</time>
      </trkpt>
      <trkpt lat="47.77257" lon="-3.62046">
        <ele>13</ele>
        <time>2018-07-18T12:55:57Z</time>
      </trkpt>
      <trkpt lat="47.77256" lon="-3.62045">
        <ele>13</ele>
        <time>2018-07-18T12:55:58Z</time>
      </trkpt>
      <trkpt lat="47.77255" lon="-3.62044">
        <ele>13</ele>
        <time>2018-07-18T12:55:59Z</time>
      </trkpt>
      <trkpt lat="47.77254" lon="-3.62044">
        <ele>13</ele>
        <time>2018-07-18T12:56:00Z</time>
      </trkpt>
      <trkpt lat="47.77254" lon="-3.62043">
        <ele>14</ele>
        <time>2018-07-18T12:56:01Z</time>
      </trkpt>
      <trkpt lat="47.77254" lon="-3.62043">
        <ele>14</ele>
        <time>2018-07-18T12:56:02Z</time>
      </trkpt>
      <trkpt lat="47.77253" lon="-3.62043">
        <ele>14</ele>
        <time>2018-07-18T12:56:03Z</time>
      </trkpt>
      <trkpt lat="47.77253" lon="-3.62042">
        <ele>14</ele>
        <time>2018-07-18T12:56:04Z</time>
      </trkpt>
      <trkpt lat="47.77251" lon="-3.62041">
        <ele>14</ele>
        <time>2018-07-18T12:56:05Z</time>
      </trkpt>
      <trkpt lat="47.7725" lon="-3.62041">
        <ele>14</ele>
        <time>2018-07-18T12:56:06Z</time>
      </trkpt>
      <trkpt lat="47.77248" lon="-3.6204">
        <ele>14</ele>
        <time>2018-07-18T12:56:07Z</time>
      </trkpt>
      <trkpt lat="47.77247" lon="-3.62039">
        <ele>14</ele>
        <time>2018-07-18T12:56:08Z</time>
      </trkpt>
      <trkpt lat="47.77245" lon="-3.62037">
        <ele>14</ele>
        <time>2018-07-18T12:56:09Z</time>
      </trkpt>
      <trkpt lat="47.77243" lon="-3.62036">
        <ele>14</ele>
        <time>2018-07-18T12:56:10Z</time>
      </trkpt>
      <trkpt lat="47.77241" lon="-3.62036">
        <ele>14</ele>
        <time>2018-07-18T12:56:11Z</time>
      </trkpt>
      <trkpt lat="47.77239" lon="-3.62035">
        <ele>14</ele>
        <time>2018-07-18T12:56:12Z</time>
      </trkpt>
      <trkpt lat="47.77237" lon="-3.62034">
        <ele>14</ele>
        <time>2018-07-18T12:56:13Z</time>
      </trkpt>
      <trkpt lat="47.77235" lon="-3.62034">
        <ele>14</ele>
        <time>2018-07-18T12:56:14Z</time>
      </trkpt>
      <trkpt lat="47.77233" lon="-3.62033">
        <ele>14</ele>
        <time>2018-07-18T12:56:15Z</time>
      </trkpt>
      <trkpt lat="47.77231" lon="-3.62033">
        <ele>15</ele>
        <time>2018-07-18T12:56:16Z</time>
      </trkpt>
      <trkpt lat="47.77229" lon="-3.62032">
        <ele>15</ele>
        <time>2018-07-18T12:56:17Z</time>
      </trkpt>
      <trkpt lat="47.77227" lon="-3.62032">
        <ele>15</ele>
        <time>2018-07-18T12:56:18Z</time>
      </trkpt>
      <trkpt lat="47.77226" lon="-3.62031">
        <ele>15</ele>
        <time>2018-07-18T12:56:19Z</time>
      </trkpt>
      <trkpt lat="47.77223" lon="-3.62031">
        <ele>15</ele>
        <time>2018-07-18T12:56:20Z</time>
      </trkpt>
      <trkpt lat="47.77221" lon="-3.6203">
        <ele>14</ele>
        <time>2018-07-18T12:56:21Z</time>
      </trkpt>
      <trkpt lat="47.77218" lon="-3.6203">
        <ele>15</ele>
        <time>2018-07-18T12:56:22Z</time>
      </trkpt>
      <trkpt lat="47.77215" lon="-3.6203">
        <ele>15</ele>
        <time>2018-07-18T12:56:23Z</time>
      </trkpt>
      <trkpt lat="47.77213" lon="-3.6203">
        <ele>15</ele>
        <time>2018-07-18T12:56:24Z</time>
      </trkpt>
      <trkpt lat="47.77211" lon="-3.6203">
        <ele>15</ele>
        <time>2018-07-18T12:56:25Z</time>
      </trkpt>
      <trkpt lat="47.77209" lon="-3.6203">
        <ele>15</ele>
        <time>2018-07-18T12:56:26Z</time>
      </trkpt>
      <trkpt lat="47.77207" lon="-3.6203">
        <ele>15</ele>
        <time>2018-07-18T12:56:27Z</time>
      </trkpt>
      <trkpt lat="47.77206" lon="-3.62029">
        <ele>15</ele>
        <time>2018-07-18T12:56:28Z</time>
      </trkpt>
      <trkpt lat="47.77206" lon="-3.62028">
        <ele>15</ele>
        <time>2018-07-18T12:56:29Z</time>
      </trkpt>
      <trkpt lat="47.77206" lon="-3.62029">
        <ele>16</ele>
        <time>2018-07-18T12:56:30Z</time>
      </trkpt>
      <trkpt lat="47.77205" lon="-3.62029">
        <ele>16</ele>
        <time>2018-07-18T12:56:31Z</time>
      </trkpt>
      <trkpt lat="47.77205" lon="-3.62028">
        <ele>16</ele>
        <time>2018-07-18T12:56:32Z</time>
      </trkpt>
      <trkpt lat="47.77204" lon="-3.62027">
        <ele>16</ele>
        <time>2018-07-18T12:56:33Z</time>
      </trkpt>
      <trkpt lat="47.77203" lon="-3.62027">
        <ele>16</ele>
        <time>2018-07-18T12:56:34Z</time>
      </trkpt>
      <trkpt lat="47.77203" lon="-3.62026">
        <ele>17</ele>
        <time>2018-07-18T12:56:35Z</time>
      </trkpt>
      <trkpt lat="47.77202" lon="-3.62024">
        <ele>17</ele>
        <time>2018-07-18T12:56:36Z</time>
      </trkpt>
      <trkpt lat="47.77202" lon="-3.62024">
        <ele>17</ele>
        <time>2018-07-18T12:56:37Z</time>
      </trkpt>
      <trkpt lat="47.77201" lon="-3.62023">
        <ele>17</ele>
        <time>2018-07-18T12:56:38Z</time>
      </trkpt>
      <trkpt lat="47.77201" lon="-3.62022">
        <ele>17</ele>
        <time>2018-07-18T12:56:39Z</time>
      </trkpt>
      <trkpt lat="47.772" lon="-3.62021">
        <ele>18</ele>
        <time>2018-07-18T12:56:40Z</time>
      </trkpt>
      <trkpt lat="47.77199" lon="-3.6202">
        <ele>18</ele>
        <time>2018-07-18T12:56:41Z</time>
      </trkpt>
      <trkpt lat="47.77198" lon="-3.62019">
        <ele>18</ele>
        <time>2018-07-18T12:56:42Z</time>
      </trkpt>
      <trkpt lat="47.77198" lon="-3.62019">
        <ele>18</ele>
        <time>2018-07-18T12:56:43Z</time>
      </trkpt>
      <trkpt lat="47.77197" lon="-3.62018">
        <ele>18</ele>
        <time>2018-07-18T12:56:44Z</time>
      </trkpt>
      <trkpt lat="47.77196" lon="-3.62018">
        <ele>18</ele>
        <time>2018-07-18T12:56:45Z</time>
      </trkpt>
      <trkpt lat="47.77195" lon="-3.62017">
        <ele>19</ele>
        <time>2018-07-18T12:56:46Z</time>
      </trkpt>
      <trkpt lat="47.77194" lon="-3.62016">
        <ele>19</ele>
        <time>2018-07-18T12:56:47Z</time>
      </trkpt>
      <trkpt lat="47.77194" lon="-3.62016">
        <ele>19</ele>
        <time>2018-07-18T12:56:48Z</time>
      </trkpt>
      <trkpt lat="47.77194" lon="-3.62016">
        <ele>19</ele>
        <time>2018-07-18T12:56:49Z</time>
      </trkpt>
      <trkpt lat="47.77193" lon="-3.62016">
        <ele>19</ele>
        <time>2018-07-18T12:56:50Z</time>
      </trkpt>
      <trkpt lat="47.77193" lon="-3.62016">
        <ele>19</ele>
        <time>2018-07-18T12:56:51Z</time>
      </trkpt>
      <trkpt lat="47.77193" lon="-3.62016">
        <ele>19</ele>
        <time>2018-07-18T12:56:52Z</time>
      </trkpt>
      <trkpt lat="47.77192" lon="-3.62016">
        <ele>19</ele>
        <time>2018-07-18T12:56:53Z</time>
      </trkpt>
      <trkpt lat="47.77191" lon="-3.62016">
        <ele>19</ele>
        <time>2018-07-18T12:56:54Z</time>
      </trkpt>
      <trkpt lat="47.77189" lon="-3.62016">
        <ele>19</ele>
        <time>2018-07-18T12:56:55Z</time>
      </trkpt>
      <trkpt lat="47.77188" lon="-3.62016">
        <ele>19</ele>
        <time>2018-07-18T12:56:56Z</time>
      </trkpt>
      <trkpt lat="47.77186" lon="-3.62016">
        <ele>19</ele>
        <time>2018-07-18T12:56:57Z</time>
      </trkpt>
      <trkpt lat="47.77184" lon="-3.62016">
        <ele>19</ele>
        <time>2018-07-18T12:56:58Z</time>
      </trkpt>
      <trkpt lat="47.77182" lon="-3.62017">
        <ele>19</ele>
        <time>2018-07-18T12:56:59Z</time>
      </trkpt>
      <trkpt lat="47.77179" lon="-3.62017">
        <ele>19</ele>
        <time>2018-07-18T12:57:00Z</time>
      </trkpt>
      <trkpt lat="47.77177" lon="-3.62018">
        <ele>19</ele>
        <time>2018-07-18T12:57:01Z</time>
      </trkpt>
      <trkpt lat="47.77175" lon="-3.62018">
        <ele>19</ele>
        <time>2018-07-18T12:57:02Z</time>
      </trkpt>
      <trkpt lat="47.77172" lon="-3.62018">
        <ele>19</ele>
        <time>2018-07-18T12:57:03Z</time>
      </trkpt>
      <trkpt lat="47.77169" lon="-3.6202">
        <ele>19</ele>
        <time>2018-07-18T12:57:04Z</time>
      </trkpt>
      <trkpt lat="47.77167" lon="-3.62021">
        <ele>19</ele>
        <time>2018-07-18T12:57:05Z</time>
      </trkpt>
      <trkpt lat="47.77164" lon="-3.62021">
        <ele>19</ele>
        <time>2018-07-18T12:57:06Z</time>
      </trkpt>
      <trkpt lat="47.77162" lon="-3.62021">
        <ele>19</ele>
        <time>2018-07-18T12:57:07Z</time>
      </trkpt>
      <trkpt lat="47.7716" lon="-3.6202">
        <ele>19</ele>
        <time>2018-07-18T12:57:08Z</time>
      </trkpt>
      <trkpt lat="47.77159" lon="-3.62019">
        <ele>19</ele>
        <time>2018-07-18T12:57:09Z</time>
      </trkpt>
      <trkpt lat="47.77158" lon="-3.62017">
        <ele>19</ele>
        <time>2018-07-18T12:57:10Z</time>
      </trkpt>
      <trkpt lat="47.77157" lon="-3.62015">
        <ele>19</ele>
        <time>2018-07-18T12:57:11Z</time>
      </trkpt>
      <trkpt lat="47.77156" lon="-3.62013">
        <ele>19</ele>
        <time>2018-07-18T12:57:12Z</time>
      </trkpt>
      <trkpt lat="47.77155" lon="-3.6201">
        <ele>19</ele>
        <time>2018-07-18T12:57:13Z</time>
      </trkpt>
      <trkpt lat="47.77153" lon="-3.62007">
        <ele>20</ele>
        <time>2018-07-18T12:57:14Z</time>
      </trkpt>
      <trkpt lat="47.77152" lon="-3.62004">
        <ele>20</ele>
        <time>2018-07-18T12:57:15Z</time>
      </trkpt>
      <trkpt lat="47.77152" lon="-3.62001">
        <ele>20</ele>
        <time>2018-07-18T12:57:16Z</time>
      </trkpt>
      <trkpt lat="47.77151" lon="-3.61997">
        <ele>20</ele>
        <time>2018-07-18T12:57:17Z</time>
      </trkpt>
      <trkpt lat="47.77151" lon="-3.61993">
        <ele>20</ele>
        <time>2018-07-18T12:57:18Z</time>
      </trkpt>
      <trkpt lat="47.77151" lon="-3.61989">
        <ele>20</ele>
        <time>2018-07-18T12:57:19Z</time>
      </trkpt>
      <trkpt lat="47.77151" lon="-3.61985">
        <ele>20</ele>
        <time>2018-07-18T12:57:20Z</time>
      </trkpt>
      <trkpt lat="47.77151" lon="-3.61981">
        <ele>21</ele>
        <time>2018-07-18T12:57:21Z</time>
      </trkpt>
      <trkpt lat="47.77151" lon="-3.61977">
        <ele>21</ele>
        <time>2018-07-18T12:57:22Z</time>
      </trkpt>
      <trkpt lat="47.7715" lon="-3.61972">
        <ele>21</ele>
        <time>2018-07-18T12:57:23Z</time>
      </trkpt>
      <trkpt lat="47.7715" lon="-3.61968">
        <ele>21</ele>
        <time>2018-07-18T12:57:24Z</time>
      </trkpt>
      <trkpt lat="47.77149" lon="-3.61963">
        <ele>21</ele>
        <time>2018-07-18T12:57:25Z</time>
      </trkpt>
      <trkpt lat="47.77149" lon="-3.61959">
        <ele>21</ele>
        <time>2018-07-18T12:57:26Z</time>
      </trkpt>
      <trkpt lat="47.77149" lon="-3.61954">
        <ele>22</ele>
        <time>2018-07-18T12:57:27Z</time>
      </trkpt>
      <trkpt lat="47.77148" lon="-3.61949">
        <ele>22</ele>
        <time>2018-07-18T12:57:28Z</time>
      </trkpt>
      <trkpt lat="47.77148" lon="-3.61945">
        <ele>22</ele>
        <time>2018-07-18T12:57:29Z</time>
      </trkpt>
      <trkpt lat="47.77148" lon="-3.6194">
        <ele>22</ele>
        <time>2018-07-18T12:57:30Z</time>
      </trkpt>
      <trkpt lat="47.77147" lon="-3.61935">
        <ele>22</ele>
        <time>2018-07-18T12:57:31Z</time>
      </trkpt>
      <trkpt lat="47.77147" lon="-3.61931">
        <ele>22</ele>
        <time>2018-07-18T12:57:32Z</time>
      </trkpt>
      <trkpt lat="47.77146" lon="-3.61926">
        <ele>23</ele>
        <time>2018-07-18T12:57:33Z</time>
      </trkpt>
      <trkpt lat="47.77146" lon="-3.61921">
        <ele>23</ele>
        <time>2018-07-18T12:57:34Z</time>
      </trkpt>
      <trkpt lat="47.77145" lon="-3.61917">
        <ele>23</ele>
        <time>2018-07-18T12:57:35Z</time>
      </trkpt>
      <trkpt lat="47.77145" lon="-3.61912">
        <ele>23</ele>
        <time>2018-07-18T12:57:36Z</time>
      </trkpt>
      <trkpt lat="47.77145" lon="-3.61908">
        <ele>23</ele>
        <time>2018-07-18T12:57:37Z</time>
      </trkpt>
      <trkpt lat="47.77144" lon="-3.61903">
        <ele>24</ele>
        <time>2018-07-18T12:57:38Z</time>
      </trkpt>
      <trkpt lat="47.77144" lon="-3.61898">
        <ele>24</ele>
        <time>2018-07-18T12:57:39Z</time>
      </trkpt>
      <trkpt lat="47.77143" lon="-3.61893">
        <ele>24</ele>
        <time>2018-07-18T12:57:40Z</time>
      </trkpt>
      <trkpt lat="47.77143" lon="-3.61889">
        <ele>24</ele>
        <time>2018-07-18T12:57:41Z</time>
      </trkpt>
      <trkpt lat="47.77142" lon="-3.61884">
        <ele>24</ele>
        <time>2018-07-18T12:57:42Z</time>
      </trkpt>
      <trkpt lat="47.77142" lon="-3.61879">
        <ele>24</ele>
        <time>2018-07-18T12:57:43Z</time>
      </trkpt>
      <trkpt lat="47.77142" lon="-3.61874">
        <ele>25</ele>
        <time>2018-07-18T12:57:44Z</time>
      </trkpt>
      <trkpt lat="47.77141" lon="-3.61869">
        <ele>25</ele>
        <time>2018-07-18T12:57:45Z</time>
      </trkpt>
      <trkpt lat="47.77141" lon="-3.61864">
        <ele>25</ele>
        <time>2018-07-18T12:57:46Z</time>
      </trkpt>
      <trkpt lat="47.7714" lon="-3.61858">
        <ele>25</ele>
        <time>2018-07-18T12:57:47Z</time>
      </trkpt>
      <trkpt lat="47.77139" lon="-3.61853">
        <ele>25</ele>
        <time>2018-07-18T12:57:48Z</time>
      </trkpt>
      <trkpt lat="47.77139" lon="-3.61848">
        <ele>25</ele>
        <time>2018-07-18T12:57:49Z</time>
      </trkpt>
      <trkpt lat="47.77138" lon="-3.61843">
        <ele>25</ele>
        <time>2018-07-18T12:57:50Z</time>
      </trkpt>
      <trkpt lat="47.77137" lon="-3.61838">
        <ele>25</ele>
        <time>2018-07-18T12:57:51Z</time>
      </trkpt>
      <trkpt lat="47.77137" lon="-3.61833">
        <ele>25</ele>
        <time>2018-07-18T12:57:52Z</time>
      </trkpt>
      <trkpt lat="47.77136" lon="-3.61828">
        <ele>26</ele>
        <time>2018-07-18T12:57:53Z</time>
      </trkpt>
      <trkpt lat="47.77135" lon="-3.61822">
        <ele>26</ele>
        <time>2018-07-18T12:57:54Z</time>
      </trkpt>
      <trkpt lat="47.77135" lon="-3.61817">
        <ele>26</ele>
        <time>2018-07-18T12:57:55Z</time>
      </trkpt>
      <trkpt lat="47.77135" lon="-3.61811">
        <ele>26</ele>
        <time>2018-07-18T12:57:56Z</time>
      </trkpt>
      <trkpt lat="47.77134" lon="-3.61806">
        <ele>26</ele>
        <time>2018-07-18T12:57:57Z</time>
      </trkpt>
      <trkpt lat="47.77133" lon="-3.61802">
        <ele>26</ele>
        <time>2018-07-18T12:57:58Z</time>
      </trkpt>
      <trkpt lat="47.77133" lon="-3.61797">
        <ele>26</ele>
        <time>2018-07-18T12:57:59Z</time>
      </trkpt>
      <trkpt lat="47.77133" lon="-3.61791">
        <ele>26</ele>
        <time>2018-07-18T12:58:00Z</time>
      </trkpt>
      <trkpt lat="47.77133" lon="-3.61786">
        <ele>26</ele>
        <time>2018-07-18T12:58:01Z</time>
      </trkpt>
      <trkpt lat="47.77133" lon="-3.6178">
        <ele>26</ele>
        <time>2018-07-18T12:58:02Z</time>
      </trkpt>
      <trkpt lat="47.77133" lon="-3.61774">
        <ele>26</ele>
        <time>2018-07-18T12:58:03Z</time>
      </trkpt>
      <trkpt lat="47.77133" lon="-3.61769">
        <ele>26</ele>
        <time>2018-07-18T12:58:04Z</time>
      </trkpt>
      <trkpt lat="47.77133" lon="-3.61763">
        <ele>26</ele>
        <time>2018-07-18T12:58:05Z</time>
      </trkpt>
      <trkpt lat="47.77133" lon="-3.61757">
        <ele>26</ele>
        <time>2018-07-18T12:58:06Z</time>
      </trkpt>
      <trkpt lat="47.77133" lon="-3.61751">
        <ele>27</ele>
        <time>2018-07-18T12:58:07Z</time>
      </trkpt>
      <trkpt lat="47.77134" lon="-3.61745">
        <ele>27</ele>
        <time>2018-07-18T12:58:08Z</time>
      </trkpt>
      <trkpt lat="47.77134" lon="-3.61739">
        <ele>27</ele>
        <time>2018-07-18T12:58:09Z</time>
      </trkpt>
      <trkpt lat="47.77134" lon="-3.61733">
        <ele>27</ele>
        <time>2018-07-18T12:58:10Z</time>
      </trkpt>
      <trkpt lat="47.77134" lon="-3.61728">
        <ele>27</ele>
        <time>2018-07-18T12:58:11Z</time>
      </trkpt>
      <trkpt lat="47.77135" lon="-3.61722">
        <ele>27</ele>
        <time>2018-07-18T12:58:12Z</time>
      </trkpt>
      <trkpt lat="47.77135" lon="-3.61717">
        <ele>27</ele>
        <time>2018-07-18T12:58:13Z</time>
      </trkpt>
      <trkpt lat="47.77135" lon="-3.61712">
        <ele>28</ele>
        <time>2018-07-18T12:58:14Z</time>
      </trkpt>
      <trkpt lat="47.77136" lon="-3.61707">
        <ele>28</ele>
        <time>2018-07-18T12:58:15Z</time>
      </trkpt>
      <trkpt lat="47.77137" lon="-3.61702">
        <ele>28</ele>
        <time>2018-07-18T12:58:16Z</time>
      </trkpt>
      <trkpt lat="47.77138" lon="-3.61698">
        <ele>28</ele>
        <time>2018-07-18T12:58:17Z</time>
      </trkpt>
      <trkpt lat="47.7714" lon="-3.61695">
        <ele>28</ele>
        <time>2018-07-18T12:58:18Z</time>
      </trkpt>
      <trkpt lat="47.77141" lon="-3.61692">
        <ele>28</ele>
        <time>2018-07-18T12:58:19Z</time>
      </trkpt>
      <trkpt lat="47.77142" lon="-3.61688">
        <ele>29</ele>
        <time>2018-07-18T12:58:20Z</time>
      </trkpt>
      <trkpt lat="47.77142" lon="-3.61685">
        <ele>29</ele>
        <time>2018-07-18T12:58:21Z</time>
      </trkpt>
      <trkpt lat="47.77142" lon="-3.61683">
        <ele>29</ele>
        <time>2018-07-18T12:58:22Z</time>
      </trkpt>
      <trkpt lat="47.77142" lon="-3.61682">
        <ele>29</ele>
        <time>2018-07-18T12:58:23Z</time>
      </trkpt>
      <trkpt lat="47.77142" lon="-3.61682">
        <ele>29</ele>
        <time>2018-07-18T12:58:24Z</time>
      </trkpt>
      <trkpt lat="47.77142" lon="-3.61682">
        <ele>29</ele>
        <time>2018-07-18T12:58:25Z</time>
      </trkpt>
      <trkpt lat="47.77142" lon="-3.61682">
        <ele>29</ele>
        <time>2018-07-18T12:58:26Z</time>
      </trkpt>
      <trkpt lat="47.77142" lon="-3.6168">
        <ele>29</ele>
        <time>2018-07-18T12:58:27Z</time>
      </trkpt>
      <trkpt lat="47.77142" lon="-3.61677">
        <ele>29</ele>
        <time>2018-07-18T12:58:28Z</time>
      </trkpt>
      <trkpt lat="47.77142" lon="-3.61674">
        <ele>29</ele>
        <time>2018-07-18T12:58:29Z</time>
      </trkpt>
      <trkpt lat="47.77142" lon="-3.6167">
        <ele>29</ele>
        <time>2018-07-18T12:58:30Z</time>
      </trkpt>
      <trkpt lat="47.77143" lon="-3.61666">
        <ele>29</ele>
        <time>2018-07-18T12:58:31Z</time>
      </trkpt>
      <trkpt lat="47.77143" lon="-3.61661">
        <ele>30</ele>
        <time>2018-07-18T12:58:32Z</time>
      </trkpt>
      <trkpt lat="47.77144" lon="-3.61656">
        <ele>30</ele>
        <time>2018-07-18T12:58:33Z</time>
      </trkpt>
      <trkpt lat="47.77145" lon="-3.61652">
        <ele>30</ele>
        <time>2018-07-18T12:58:34Z</time>
      </trkpt>
      <trkpt lat="47.77145" lon="-3.61647">
        <ele>30</ele>
        <time>2018-07-18T12:58:35Z</time>
      </trkpt>
      <trkpt lat="47.77146" lon="-3.61643">
        <ele>30</ele>
        <time>2018-07-18T12:58:36Z</time>
      </trkpt>
      <trkpt lat="47.77147" lon="-3.61639">
        <ele>30</ele>
        <time>2018-07-18T12:58:37Z</time>
      </trkpt>
      <trkpt lat="47.77147" lon="-3.61634">
        <ele>30</ele>
        <time>2018-07-18T12:58:38Z</time>
      </trkpt>
      <trkpt lat="47.77148" lon="-3.61629">
        <ele>30</ele>
        <time>2018-07-18T12:58:39Z</time>
      </trkpt>
      <trkpt lat="47.77148" lon="-3.61624">
        <ele>30</ele>
        <time>2018-07-18T12:58:40Z</time>
      </trkpt>
      <trkpt lat="47.77149" lon="-3.61618">
        <ele>30</ele>
        <time>2018-07-18T12:58:41Z</time>
      </trkpt>
      <trkpt lat="47.77149" lon="-3.61612">
        <ele>30</ele>
        <time>2018-07-18T12:58:42Z</time>
      </trkpt>
      <trkpt lat="47.77149" lon="-3.61606">
        <ele>29</ele>
        <time>2018-07-18T12:58:43Z</time>
      </trkpt>
      <trkpt lat="47.77149" lon="-3.61599">
        <ele>29</ele>
        <time>2018-07-18T12:58:44Z</time>
      </trkpt>
      <trkpt lat="47.77149" lon="-3.61593">
        <ele>29</ele>
        <time>2018-07-18T12:58:45Z</time>
      </trkpt>
      <trkpt lat="47.77149" lon="-3.61586">
        <ele>29</ele>
        <time>2018-07-18T12:58:46Z</time>
      </trkpt>
      <trkpt lat="47.77149" lon="-3.61579">
        <ele>29</ele>
        <time>2018-07-18T12:58:47Z</time>
      </trkpt>
      <trkpt lat="47.77148" lon="-3.61572">
        <ele>29</ele>
        <time>2018-07-18T12:58:48Z</time>
      </trkpt>
      <trkpt lat="47.77148" lon="-3.61565">
        <ele>29</ele>
        <time>2018-07-18T12:58:49Z</time>
      </trkpt>
      <trkpt lat="47.77146" lon="-3.61558">
        <ele>28</ele>
        <time>2018-07-18T12:58:50Z</time>
      </trkpt>
      <trkpt lat="47.77145" lon="-3.61551">
        <ele>28</ele>
        <time>2018-07-18T12:58:51Z</time>
      </trkpt>
      <trkpt lat="47.77143" lon="-3.61542">
        <ele>28</ele>
        <time>2018-07-18T12:58:52Z</time>
      </trkpt>
      <trkpt lat="47.77142" lon="-3.61535">
        <ele>28</ele>
        <time>2018-07-18T12:58:53Z</time>
      </trkpt>
      <trkpt lat="47.77141" lon="-3.61526">
        <ele>27</ele>
        <time>2018-07-18T12:58:54Z</time>
      </trkpt>
      <trkpt lat="47.77139" lon="-3.61518">
        <ele>27</ele>
        <time>2018-07-18T12:58:55Z</time>
      </trkpt>
      <trkpt lat="47.77138" lon="-3.61509">
        <ele>27</ele>
        <time>2018-07-18T12:58:56Z</time>
      </trkpt>
      <trkpt lat="47.77136" lon="-3.615">
        <ele>26</ele>
        <time>2018-07-18T12:58:57Z</time>
      </trkpt>
      <trkpt lat="47.77135" lon="-3.61491">
        <ele>26</ele>
        <time>2018-07-18T12:58:58Z</time>
      </trkpt>
      <trkpt lat="47.77132" lon="-3.61482">
        <ele>26</ele>
        <time>2018-07-18T12:58:59Z</time>
      </trkpt>
      <trkpt lat="47.77131" lon="-3.61474">
        <ele>25</ele>
        <time>2018-07-18T12:59:00Z</time>
      </trkpt>
      <trkpt lat="47.77128" lon="-3.61466">
        <ele>25</ele>
        <time>2018-07-18T12:59:01Z</time>
      </trkpt>
      <trkpt lat="47.77126" lon="-3.6146">
        <ele>25</ele>
        <time>2018-07-18T12:59:02Z</time>
      </trkpt>
      <trkpt lat="47.77123" lon="-3.61454">
        <ele>24</ele>
        <time>2018-07-18T12:59:03Z</time>
      </trkpt>
      <trkpt lat="47.7712" lon="-3.61449">
        <ele>24</ele>
        <time>2018-07-18T12:59:04Z</time>
      </trkpt>
      <trkpt lat="47.77116" lon="-3.61446">
        <ele>23</ele>
        <time>2018-07-18T12:59:05Z</time>
      </trkpt>
      <trkpt lat="47.77111" lon="-3.61443">
        <ele>23</ele>
        <time>2018-07-18T12:59:06Z</time>
      </trkpt>
      <trkpt lat="47.77106" lon="-3.6144">
        <ele>22</ele>
        <time>2018-07-18T12:59:07Z</time>
      </trkpt>
      <trkpt lat="47.771" lon="-3.61438">
        <ele>22</ele>
        <time>2018-07-18T12:59:08Z</time>
      </trkpt>
      <trkpt lat="47.77093" lon="-3.61436">
        <ele>21</ele>
        <time>2018-07-18T12:59:09Z</time>
      </trkpt>
      <trkpt lat="47.77086" lon="-3.61433">
        <ele>20</ele>
        <time>2018-07-18T12:59:10Z</time>
      </trkpt>
      <trkpt lat="47.7708" lon="-3.61431">
        <ele>19</ele>
        <time>2018-07-18T12:59:11Z</time>
      </trkpt>
      <trkpt lat="47.77073" lon="-3.61429">
        <ele>19</ele>
        <time>2018-07-18T12:59:12Z</time>
      </trkpt>
      <trkpt lat="47.77066" lon="-3.61427">
        <ele>18</ele>
        <time>2018-07-18T12:59:13Z</time>
      </trkpt>
      <trkpt lat="47.77057" lon="-3.61425">
        <ele>17</ele>
        <time>2018-07-18T12:59:14Z</time>
      </trkpt>
      <trkpt lat="47.77049" lon="-3.61423">
        <ele>16</ele>
        <time>2018-07-18T12:59:15Z</time>
      </trkpt>
      <trkpt lat="47.7704" lon="-3.61421">
        <ele>15</ele>
        <time>2018-07-18T12:59:16Z</time>
      </trkpt>
      <trkpt lat="47.77031" lon="-3.61419">
        <ele>14</ele>
        <time>2018-07-18T12:59:17Z</time>
      </trkpt>
      <trkpt lat="47.77024" lon="-3.61418">
        <ele>13</ele>
        <time>2018-07-18T12:59:18Z</time>
      </trkpt>
      <trkpt lat="47.77018" lon="-3.61416">
        <ele>12</ele>
        <time>2018-07-18T12:59:19Z</time>
      </trkpt>
      <trkpt lat="47.77013" lon="-3.61411">
        <ele>12</ele>
        <time>2018-07-18T12:59:20Z</time>
      </trkpt>
      <trkpt lat="47.77009" lon="-3.61404">
        <ele>12</ele>
        <time>2018-07-18T12:59:21Z</time>
      </trkpt>
      <trkpt lat="47.77006" lon="-3.61398">
        <ele>11</ele>
        <time>2018-07-18T12:59:22Z</time>
      </trkpt>
      <trkpt lat="47.77002" lon="-3.61391">
        <ele>11</ele>
        <time>2018-07-18T12:59:23Z</time>
      </trkpt>
      <trkpt lat="47.76999" lon="-3.61384">
        <ele>11</ele>
        <time>2018-07-18T12:59:24Z</time>
      </trkpt>
      <trkpt lat="47.76997" lon="-3.61378">
        <ele>11</ele>
        <time>2018-07-18T12:59:25Z</time>
      </trkpt>
      <trkpt lat="47.76995" lon="-3.61372">
        <ele>11</ele>
        <time>2018-07-18T12:59:26Z</time>
      </trkpt>
      <trkpt lat="47.76992" lon="-3.61367">
        <ele>11</ele>
        <time>2018-07-18T12:59:27Z</time>
      </trkpt>
      <trkpt lat="47.76989" lon="-3.61363">
        <ele>11</ele>
        <time>2018-07-18T12:59:28Z</time>
      </trkpt>
      <trkpt lat="47.76985" lon="-3.61361">
        <ele>11</ele>
        <time>2018-07-18T12:59:29Z</time>
      </trkpt>
      <trkpt lat="47.76981" lon="-3.61361">
        <ele>11</ele>
        <time>2018-07-18T12:59:30Z</time>
      </trkpt>
      <trkpt lat="47.76977" lon="-3.61364">
        <ele>11</ele>
        <time>2018-07-18T12:59:31Z</time>
      </trkpt>
      <trkpt lat="47.76972" lon="-3.61366">
        <ele>11</ele>
        <time>2018-07-18T12:59:32Z</time>
      </trkpt>
      <trkpt lat="47.76968" lon="-3.61367">
        <ele>10</ele>
        <time>2018-07-18T12:59:33Z</time>
      </trkpt>
      <trkpt lat="47.76963" lon="-3.61366">
        <ele>10</ele>
        <time>2018-07-18T12:59:34Z</time>
      </trkpt>
      <trkpt lat="47.76958" lon="-3.61365">
        <ele>10</ele>
        <time>2018-07-18T12:59:35Z</time>
      </trkpt>
      <trkpt lat="47.76954" lon="-3.61364">
        <ele>10</ele>
        <time>2018-07-18T12:59:36Z</time>
      </trkpt>
      <trkpt lat="47.7695" lon="-3.61361">
        <ele>10</ele>
        <time>2018-07-18T12:59:37Z</time>
      </trkpt>
      <trkpt lat="47.76947" lon="-3.61359">
        <ele>10</ele>
        <time>2018-07-18T12:59:38Z</time>
      </trkpt>
      <trkpt lat="47.76943" lon="-3.61357">
        <ele>10</ele>
        <time>2018-07-18T12:59:39Z</time>
      </trkpt>
      <trkpt lat="47.76939" lon="-3.61354">
        <ele>10</ele>
        <time>2018-07-18T12:59:40Z</time>
      </trkpt>
      <trkpt lat="47.76935" lon="-3.61351">
        <ele>10</ele>
        <time>2018-07-18T12:59:41Z</time>
      </trkpt>
      <trkpt lat="47.76932" lon="-3.61347">
        <ele>10</ele>
        <time>2018-07-18T12:59:42Z</time>
      </trkpt>
      <trkpt lat="47.7693" lon="-3.61343">
        <ele>10</ele>
        <time>2018-07-18T12:59:43Z</time>
      </trkpt>
      <trkpt lat="47.76928" lon="-3.61338">
        <ele>10</ele>
        <time>2018-07-18T12:59:44Z</time>
      </trkpt>
      <trkpt lat="47.76926" lon="-3.61334">
        <ele>10</ele>
        <time>2018-07-18T12:59:45Z</time>
      </trkpt>
      <trkpt lat="47.76923" lon="-3.6133">
        <ele>10</ele>
        <time>2018-07-18T12:59:46Z</time>
      </trkpt>
      <trkpt lat="47.76921" lon="-3.61325">
        <ele>10</ele>
        <time>2018-07-18T12:59:47Z</time>
      </trkpt>
      <trkpt lat="47.76919" lon="-3.61321">
        <ele>10</ele>
        <time>2018-07-18T12:59:48Z</time>
      </trkpt>
      <trkpt lat="47.76917" lon="-3.61317">
        <ele>10</ele>
        <time>2018-07-18T12:59:49Z</time>
      </trkpt>
      <trkpt lat="47.76916" lon="-3.61312">
        <ele>10</ele>
        <time>2018-07-18T12:59:50Z</time>
      </trkpt>
      <trkpt lat="47.76915" lon="-3.61307">
        <ele>10</ele>
        <time>2018-07-18T12:59:51Z</time>
      </trkpt>
      <trkpt lat="47.76916" lon="-3.61302">
        <ele>10</ele>
        <time>2018-07-18T12:59:52Z</time>
      </trkpt>
      <trkpt lat="47.76918" lon="-3.61297">
        <ele>11</ele>
        <time>2018-07-18T12:59:53Z</time>
      </trkpt>
      <trkpt lat="47.76921" lon="-3.61293">
        <ele>10</ele>
        <time>2018-07-18T12:59:54Z</time>
      </trkpt>
      <trkpt lat="47.76924" lon="-3.61289">
        <ele>10</ele>
        <time>2018-07-18T12:59:55Z</time>
      </trkpt>
      <trkpt lat="47.76927" lon="-3.61285">
        <ele>10</ele>
        <time>2018-07-18T12:59:56Z</time>
      </trkpt>
      <trkpt lat="47.7693" lon="-3.61281">
        <ele>10</ele>
        <time>2018-07-18T12:59:57Z</time>
      </trkpt>
      <trkpt lat="47.76932" lon="-3.61276">
        <ele>10</ele>
        <time>2018-07-18T12:59:58Z</time>
      </trkpt>
      <trkpt lat="47.76936" lon="-3.61272">
        <ele>10</ele>
        <time>2018-07-18T12:59:59Z</time>
      </trkpt>
      <trkpt lat="47.76939" lon="-3.61268">
        <ele>10</ele>
        <time>2018-07-18T13:00:00Z</time>
      </trkpt>
      <trkpt lat="47.76942" lon="-3.61263">
        <ele>10</ele>
        <time>2018-07-18T13:00:01Z</time>
      </trkpt>
      <trkpt lat="47.76946" lon="-3.6126">
        <ele>10</ele>
        <time>2018-07-18T13:00:02Z</time>
      </trkpt>
      <trkpt lat="47.76951" lon="-3.61262">
        <ele>10</ele>
        <time>2018-07-18T13:00:03Z</time>
      </trkpt>
      <trkpt lat="47.76955" lon="-3.61264">
        <ele>10</ele>
        <time>2018-07-18T13:00:04Z</time>
      </trkpt>
      <trkpt lat="47.76959" lon="-3.61267">
        <ele>10</ele>
        <time>2018-07-18T13:00:05Z</time>
      </trkpt>
      <trkpt lat="47.76963" lon="-3.61271">
        <ele>10</ele>
        <time>2018-07-18T13:00:06Z</time>
      </trkpt>
      <trkpt lat="47.76966" lon="-3.61275">
        <ele>10</ele>
        <time>2018-07-18T13:00:07Z</time>
      </trkpt>
      <trkpt lat="47.7697" lon="-3.61279">
        <ele>10</ele>
        <time>2018-07-18T13:00:08Z</time>
      </trkpt>
      <trkpt lat="47.76974" lon="-3.61282">
        <ele>9</ele>
        <time>2018-07-18T13:00:09Z</time>
      </trkpt>
      <trkpt lat="47.76978" lon="-3.61285">
        <ele>9</ele>
        <time>2018-07-18T13:00:10Z</time>
      </trkpt>
      <trkpt lat="47.76981" lon="-3.61288">
        <ele>9</ele>
        <time>2018-07-18T13:00:11Z</time>
      </trkpt>
      <trkpt lat="47.76985" lon="-3.61287">
        <ele>9</ele>
        <time>2018-07-18T13:00:12Z</time>
      </trkpt>
      <trkpt lat="47.76988" lon="-3.61285">
        <ele>9</ele>
        <time>2018-07-18T13:00:13Z</time>
      </trkpt>
      <trkpt lat="47.76991" lon="-3.61283">
        <ele>9</ele>
        <time>2018-07-18T13:00:14Z</time>
      </trkpt>
      <trkpt lat="47.76995" lon="-3.61281">
        <ele>9</ele>
        <time>2018-07-18T13:00:15Z</time>
      </trkpt>
      <trkpt lat="47.76998" lon="-3.61279">
        <ele>9</ele>
        <time>2018-07-18T13:00:16Z</time>
      </trkpt>
      <trkpt lat="47.77002" lon="-3.61277">
        <ele>9</ele>
        <time>2018-07-18T13:00:17Z</time>
      </trkpt>
      <trkpt lat="47.77006" lon="-3.61277">
        <ele>9</ele>
        <time>2018-07-18T13:00:18Z</time>
      </trkpt>
      <trkpt lat="47.7701" lon="-3.61278">
        <ele>9</ele>
        <time>2018-07-18T13:00:19Z</time>
      </trkpt>
      <trkpt lat="47.77012" lon="-3.61279">
        <ele>8</ele>
        <time>2018-07-18T13:00:20Z</time>
      </trkpt>
      <trkpt lat="47.77014" lon="-3.61282">
        <ele>8</ele>
        <time>2018-07-18T13:00:21Z</time>
      </trkpt>
      <trkpt lat="47.77017" lon="-3.61285">
        <ele>8</ele>
        <time>2018-07-18T13:00:22Z</time>
      </trkpt>
      <trkpt lat="47.7702" lon="-3.6129">
        <ele>8</ele>
        <time>2018-07-18T13:00:23Z</time>
      </trkpt>
      <trkpt lat="47.77022" lon="-3.61295">
        <ele>8</ele>
        <time>2018-07-18T13:00:24Z</time>
      </trkpt>
      <trkpt lat="47.77024" lon="-3.61299">
        <ele>8</ele>
        <time>2018-07-18T13:00:25Z</time>
      </trkpt>
      <trkpt lat="47.77027" lon="-3.613">
        <ele>8</ele>
        <time>2018-07-18T13:00:26Z</time>
      </trkpt>
      <trkpt lat="47.7703" lon="-3.61301">
        <ele>8</ele>
        <time>2018-07-18T13:00:27Z</time>
      </trkpt>
      <trkpt lat="47.77034" lon="-3.61303">
        <ele>8</ele>
        <time>2018-07-18T13:00:28Z</time>
      </trkpt>
      <trkpt lat="47.77038" lon="-3.61303">
        <ele>7</ele>
        <time>2018-07-18T13:00:29Z</time>
      </trkpt>
      <trkpt lat="47.77042" lon="-3.61301">
        <ele>7</ele>
        <time>2018-07-18T13:00:30Z</time>
      </trkpt>
      <trkpt lat="47.77046" lon="-3.61299">
        <ele>7</ele>
        <time>2018-07-18T13:00:31Z</time>
      </trkpt>
      <trkpt lat="47.77049" lon="-3.61296">
        <ele>7</ele>
        <time>2018-07-18T13:00:32Z</time>
      </trkpt>
      <trkpt lat="47.77051" lon="-3.61291">
        <ele>7</ele>
        <time>2018-07-18T13:00:33Z</time>
      </trkpt>
      <trkpt lat="47.77052" lon="-3.61287">
        <ele>7</ele>
        <time>2018-07-18T13:00:34Z</time>
      </trkpt>
      <trkpt lat="47.77052" lon="-3.61282">
        <ele>7</ele>
        <time>2018-07-18T13:00:35Z</time>
      </trkpt>
      <trkpt lat="47.77051" lon="-3.61277">
        <ele>7</ele>
        <time>2018-07-18T13:00:36Z</time>
      </trkpt>
      <trkpt lat="47.7705" lon="-3.61272">
        <ele>7</ele>
        <time>2018-07-18T13:00:37Z</time>
      </trkpt>
      <trkpt lat="47.7705" lon="-3.61266">
        <ele>7</ele>
        <time>2018-07-18T13:00:38Z</time>
      </trkpt>
      <trkpt lat="47.77048" lon="-3.6126">
        <ele>7</ele>
        <time>2018-07-18T13:00:39Z</time>
      </trkpt>
      <trkpt lat="47.77047" lon="-3.61254">
        <ele>7</ele>
        <time>2018-07-18T13:00:40Z</time>
      </trkpt>
      <trkpt lat="47.77044" lon="-3.61249">
        <ele>7</ele>
        <time>2018-07-18T13:00:41Z</time>
      </trkpt>
      <trkpt lat="47.77041" lon="-3.61245">
        <ele>8</ele>
        <time>2018-07-18T13:00:42Z</time>
      </trkpt>
      <trkpt lat="47.77038" lon="-3.61241">
        <ele>8</ele>
        <time>2018-07-18T13:00:43Z</time>
      </trkpt>
      <trkpt lat="47.77036" lon="-3.61236">
        <ele>8</ele>
        <time>2018-07-18T13:00:44Z</time>
      </trkpt>
      <trkpt lat="47.77034" lon="-3.61231">
        <ele>8</ele>
        <time>2018-07-18T13:00:45Z</time>
      </trkpt>
      <trkpt lat="47.77033" lon="-3.61225">
        <ele>8</ele>
        <time>2018-07-18T13:00:46Z</time>
      </trkpt>
      <trkpt lat="47.77032" lon="-3.61218">
        <ele>7</ele>
        <time>2018-07-18T13:00:47Z</time>
      </trkpt>
      <trkpt lat="47.77032" lon="-3.61212">
        <ele>7</ele>
        <time>2018-07-18T13:00:48Z</time>
      </trkpt>
      <trkpt lat="47.77032" lon="-3.61205">
        <ele>7</ele>
        <time>2018-07-18T13:00:49Z</time>
      </trkpt>
      <trkpt lat="47.77032" lon="-3.61198">
        <ele>7</ele>
        <time>2018-07-18T13:00:50Z</time>
      </trkpt>
      <trkpt lat="47.77033" lon="-3.61192">
        <ele>7</ele>
        <time>2018-07-18T13:00:51Z</time>
      </trkpt>
      <trkpt lat="47.77034" lon="-3.61186">
        <ele>7</ele>
        <time>2018-07-18T13:00:52Z</time>
      </trkpt>
      <trkpt lat="47.77034" lon="-3.6118">
        <ele>7</ele>
        <time>2018-07-18T13:00:53Z</time>
      </trkpt>
      <trkpt lat="47.77035" lon="-3.61174">
        <ele>7</ele>
        <time>2018-07-18T13:00:54Z</time>
      </trkpt>
      <trkpt lat="47.77036" lon="-3.61167">
        <ele>7</ele>
        <time>2018-07-18T13:00:55Z</time>
      </trkpt>
      <trkpt lat="47.77037" lon="-3.61161">
        <ele>7</ele>
        <time>2018-07-18T13:00:56Z</time>
      </trkpt>
      <trkpt lat="47.77038" lon="-3.61155">
        <ele>7</ele>
        <time>2018-07-18T13:00:57Z</time>
      </trkpt>
      <trkpt lat="47.7704" lon="-3.6115">
        <ele>7</ele>
        <time>2018-07-18T13:00:58Z</time>
      </trkpt>
      <trkpt lat="47.77043" lon="-3.61145">
        <ele>7</ele>
        <time>2018-07-18T13:00:59Z</time>
      </trkpt>
      <trkpt lat="47.77046" lon="-3.6114">
        <ele>7</ele>
        <time>2018-07-18T13:01:00Z</time>
      </trkpt>
      <trkpt lat="47.77049" lon="-3.61136">
        <ele>7</ele>
        <time>2018-07-18T13:01:01Z</time>
      </trkpt>
      <trkpt lat="47.77052" lon="-3.61132">
        <ele>7</ele>
        <time>2018-07-18T13:01:02Z</time>
      </trkpt>
      <trkpt lat="47.77055" lon="-3.61128">
        <ele>7</ele>
        <time>2018-07-18T13:01:03Z</time>
      </trkpt>
      <trkpt lat="47.77057" lon="-3.61123">
        <ele>7</ele>
        <time>2018-07-18T13:01:04Z</time>
      </trkpt>
      <trkpt lat="47.77059" lon="-3.61118">
        <ele>7</ele>
        <time>2018-07-18T13:01:05Z</time>
      </trkpt>
      <trkpt lat="47.7706" lon="-3.61113">
        <ele>7</ele>
        <time>2018-07-18T13:01:06Z</time>
      </trkpt>
      <trkpt lat="47.7706" lon="-3.61108">
        <ele>7</ele>
        <time>2018-07-18T13:01:07Z</time>
      </trkpt>
      <trkpt lat="47.7706" lon="-3.61103">
        <ele>7</ele>
        <time>2018-07-18T13:01:08Z</time>
      </trkpt>
      <trkpt lat="47.77062" lon="-3.61099">
        <ele>7</ele>
        <time>2018-07-18T13:01:09Z</time>
      </trkpt>
      <trkpt lat="47.77064" lon="-3.61098">
        <ele>7</ele>
        <time>2018-07-18T13:01:10Z</time>
      </trkpt>
      <trkpt lat="47.77067" lon="-3.61096">
        <ele>7</ele>
        <time>2018-07-18T13:01:11Z</time>
      </trkpt>
      <trkpt lat="47.7707" lon="-3.61093">
        <ele>7</ele>
        <time>2018-07-18T13:01:12Z</time>
      </trkpt>
      <trkpt lat="47.77072" lon="-3.61089">
        <ele>7</ele>
        <time>2018-07-18T13:01:13Z</time>
      </trkpt>
      <trkpt lat="47.77073" lon="-3.61086">
        <ele>8</ele>
        <time>2018-07-18T13:01:14Z</time>
      </trkpt>
      <trkpt lat="47.77075" lon="-3.61084">
        <ele>8</ele>
        <time>2018-07-18T13:01:15Z</time>
      </trkpt>
      <trkpt lat="47.77077" lon="-3.61085">
        <ele>8</ele>
        <time>2018-07-18T13:01:16Z</time>
      </trkpt>
      <trkpt lat="47.77078" lon="-3.61085">
        <ele>8</ele>
        <time>2018-07-18T13:01:17Z</time>
      </trkpt>
      <trkpt lat="47.7708" lon="-3.61085">
        <ele>8</ele>
        <time>2018-07-18T13:01:18Z</time>
      </trkpt>
      <trkpt lat="47.77082" lon="-3.61084">
        <ele>9</ele>
        <time>2018-07-18T13:01:19Z</time>
      </trkpt>
      <trkpt lat="47.77084" lon="-3.61082">
        <ele>9</ele>
        <time>2018-07-18T13:01:20Z</time>
      </trkpt>
      <trkpt lat="47.77087" lon="-3.6108">
        <ele>9</ele>
        <time>2018-07-18T13:01:21Z</time>
      </trkpt>
      <trkpt lat="47.77089" lon="-3.61078">
        <ele>9</ele>
        <time>2018-07-18T13:01:22Z</time>
      </trkpt>
      <trkpt lat="47.77092" lon="-3.61074">
        <ele>9</ele>
        <time>2018-07-18T13:01:23Z</time>
      </trkpt>
      <trkpt lat="47.77093" lon="-3.6107">
        <ele>9</ele>
        <time>2018-07-18T13:01:24Z</time>
      </trkpt>
      <trkpt lat="47.77094" lon="-3.61065">
        <ele>9</ele>
        <time>2018-07-18T13:01:25Z</time>
      </trkpt>
      <trkpt lat="47.77095" lon="-3.61061">
        <ele>9</ele>
        <time>2018-07-18T13:01:26Z</time>
      </trkpt>
      <trkpt lat="47.77096" lon="-3.61056">
        <ele>10</ele>
        <time>2018-07-18T13:01:27Z</time>
      </trkpt>
      <trkpt lat="47.77097" lon="-3.61053">
        <ele>10</ele>
        <time>2018-07-18T13:01:28Z</time>
      </trkpt>
      <trkpt lat="47.77099" lon="-3.61052">
        <ele>10</ele>
        <time>2018-07-18T13:01:29Z</time>
      </trkpt>
      <trkpt lat="47.77101" lon="-3.61052">
        <ele>10</ele>
        <time>2018-07-18T13:01:30Z</time>
      </trkpt>
      <trkpt lat="47.77103" lon="-3.61051">
        <ele>10</ele>
        <time>2018-07-18T13:01:31Z</time>
      </trkpt>
      <trkpt lat="47.77105" lon="-3.61049">
        <ele>10</ele>
        <time>2018-07-18T13:01:32Z</time>
      </trkpt>
      <trkpt lat="47.77107" lon="-3.61046">
        <ele>10</ele>
        <time>2018-07-18T13:01:33Z</time>
      </trkpt>
      <trkpt lat="47.7711" lon="-3.61045">
        <ele>9</ele>
        <time>2018-07-18T13:01:34Z</time>
      </trkpt>
      <trkpt lat="47.77112" lon="-3.61046">
        <ele>9</ele>
        <time>2018-07-18T13:01:35Z</time>
      </trkpt>
      <trkpt lat="47.77114" lon="-3.61049">
        <ele>9</ele>
        <time>2018-07-18T13:01:36Z</time>
      </trkpt>
      <trkpt lat="47.77116" lon="-3.61051">
        <ele>9</ele>
        <time>2018-07-18T13:01:37Z</time>
      </trkpt>
      <trkpt lat="47.77119" lon="-3.61051">
        <ele>9</ele>
        <time>2018-07-18T13:01:38Z</time>
      </trkpt>
      <trkpt lat="47.77122" lon="-3.6105">
        <ele>9</ele>
        <time>2018-07-18T13:01:39Z</time>
      </trkpt>
      <trkpt lat="47.77125" lon="-3.61049">
        <ele>9</ele>
        <time>2018-07-18T13:01:40Z</time>
      </trkpt>
      <trkpt lat="47.77127" lon="-3.61046">
        <ele>9</ele>
        <time>2018-07-18T13:01:41Z</time>
      </trkpt>
      <trkpt lat="47.77128" lon="-3.61042">
        <ele>9</ele>
        <time>2018-07-18T13:01:42Z</time>
      </trkpt>
      <trkpt lat="47.7713" lon="-3.61039">
        <ele>9</ele>
        <time>2018-07-18T13:01:43Z</time>
      </trkpt>
      <trkpt lat="47.77133" lon="-3.61036">
        <ele>9</ele>
        <time>2018-07-18T13:01:44Z</time>
      </trkpt>
      <trkpt lat="47.77135" lon="-3.61035">
        <ele>9</ele>
        <time>2018-07-18T13:01:45Z</time>
      </trkpt>
      <trkpt lat="47.77138" lon="-3.61035">
        <ele>9</ele>
        <time>2018-07-18T13:01:46Z</time>
      </trkpt>
      <trkpt lat="47.77141" lon="-3.61037">
        <ele>9</ele>
        <time>2018-07-18T13:01:47Z</time>
      </trkpt>
      <trkpt lat="47.77142" lon="-3.6104">
        <ele>9</ele>
        <time>2018-07-18T13:01:48Z</time>
      </trkpt>
      <trkpt lat="47.77143" lon="-3.61043">
        <ele>9</ele>
        <time>2018-07-18T13:01:49Z</time>
      </trkpt>
      <trkpt lat="47.77144" lon="-3.61045">
        <ele>9</ele>
        <time>2018-07-18T13:01:50Z</time>
      </trkpt>
      <trkpt lat="47.77146" lon="-3.61047">
        <ele>9</ele>
        <time>2018-07-18T13:01:51Z</time>
      </trkpt>
      <trkpt lat="47.77148" lon="-3.61048">
        <ele>9</ele>
        <time>2018-07-18T13:01:52Z</time>
      </trkpt>
      <trkpt lat="47.7715" lon="-3.61049">
        <ele>9</ele>
        <time>2018-07-18T13:01:53Z</time>
      </trkpt>
      <trkpt lat="47.77153" lon="-3.61049">
        <ele>9</ele>
        <time>2018-07-18T13:01:54Z</time>
      </trkpt>
      <trkpt lat="47.77156" lon="-3.61047">
        <ele>9</ele>
        <time>2018-07-18T13:01:55Z</time>
      </trkpt>
      <trkpt lat="47.7716" lon="-3.61045">
        <ele>9</ele>
        <time>2018-07-18T13:01:56Z</time>
      </trkpt>
      <trkpt lat="47.77164" lon="-3.61043">
        <ele>9</ele>
        <time>2018-07-18T13:01:57Z</time>
      </trkpt>
      <trkpt lat="47.77167" lon="-3.6104">
        <ele>8</ele>
        <time>2018-07-18T13:01:58Z</time>
      </trkpt>
      <trkpt lat="47.7717" lon="-3.61036">
        <ele>8</ele>
        <time>2018-07-18T13:01:59Z</time>
      </trkpt>
      <trkpt lat="47.77172" lon="-3.61033">
        <ele>8</ele>
        <time>2018-07-18T13:02:00Z</time>
      </trkpt>
      <trkpt lat="47.77173" lon="-3.6103">
        <ele>8</ele>
        <time>2018-07-18T13:02:01Z</time>
      </trkpt>
      <trkpt lat="47.77174" lon="-3.61029">
        <ele>8</ele>
        <time>2018-07-18T13:02:02Z</time>
      </trkpt>
      <trkpt lat="47.77174" lon="-3.61029">
        <ele>8</ele>
        <time>2018-07-18T13:02:03Z</time>
      </trkpt>
      <trkpt lat="47.77174" lon="-3.61029">
        <ele>8</ele>
        <time>2018-07-18T13:02:04Z</time>
      </trkpt>
      <trkpt lat="47.77174" lon="-3.61029">
        <ele>8</ele>
        <time>2018-07-18T13:02:05Z</time>
      </trkpt>
      <trkpt lat="47.77174" lon="-3.61029">
        <ele>8</ele>
        <time>2018-07-18T13:02:06Z</time>
      </trkpt>
      <trkpt lat="47.77174" lon="-3.61028">
        <ele>8</ele>
        <time>2018-07-18T13:02:07Z</time>
      </trkpt>
      <trkpt lat="47.77174" lon="-3.61028">
        <ele>8</ele>
        <time>2018-07-18T13:02:08Z</time>
      </trkpt>
      <trkpt lat="47.77175" lon="-3.61027">
        <ele>8</ele>
        <time>2018-07-18T13:02:09Z</time>
      </trkpt>
      <trkpt lat="47.77175" lon="-3.61026">
        <ele>8</ele>
        <time>2018-07-18T13:02:10Z</time>
      </trkpt>
      <trkpt lat="47.77175" lon="-3.61025">
        <ele>8</ele>
        <time>2018-07-18T13:02:11Z</time>
      </trkpt>
      <trkpt lat="47.77176" lon="-3.61024">
        <ele>8</ele>
        <time>2018-07-18T13:02:12Z</time>
      </trkpt>
      <trkpt lat="47.77177" lon="-3.61023">
        <ele>8</ele>
        <time>2018-07-18T13:02:13Z</time>
      </trkpt>
      <trkpt lat="47.77177" lon="-3.61022">
        <ele>8</ele>
        <time>2018-07-18T13:02:14Z</time>
      </trkpt>
      <trkpt lat="47.77178" lon="-3.6102">
        <ele>8</ele>
        <time>2018-07-18T13:02:15Z</time>
      </trkpt>
      <trkpt lat="47.77179" lon="-3.61017">
        <ele>7</ele>
        <time>2018-07-18T13:02:16Z</time>
      </trkpt>
      <trkpt lat="47.77179" lon="-3.61013">
        <ele>7</ele>
        <time>2018-07-18T13:02:17Z</time>
      </trkpt>
      <trkpt lat="47.77179" lon="-3.61007">
        <ele>7</ele>
        <time>2018-07-18T13:02:18Z</time>
      </trkpt>
      <trkpt lat="47.77178" lon="-3.61002">
        <ele>7</ele>
        <time>2018-07-18T13:02:19Z</time>
      </trkpt>
      <trkpt lat="47.77178" lon="-3.60997">
        <ele>7</ele>
        <time>2018-07-18T13:02:20Z</time>
      </trkpt>
      <trkpt lat="47.77178" lon="-3.60992">
        <ele>7</ele>
        <time>2018-07-18T13:02:21Z</time>
      </trkpt>
      <trkpt lat="47.7718" lon="-3.60989">
        <ele>7</ele>
        <time>2018-07-18T13:02:22Z</time>
      </trkpt>
      <trkpt lat="47.77181" lon="-3.60989">
        <ele>7</ele>
        <time>2018-07-18T13:02:23Z</time>
      </trkpt>
      <trkpt lat="47.77183" lon="-3.6099">
        <ele>7</ele>
        <time>2018-07-18T13:02:24Z</time>
      </trkpt>
      <trkpt lat="47.77186" lon="-3.6099">
        <ele>7</ele>
        <time>2018-07-18T13:02:25Z</time>
      </trkpt>
      <trkpt lat="47.77188" lon="-3.60989">
        <ele>7</ele>
        <time>2018-07-18T13:02:26Z</time>
      </trkpt>
      <trkpt lat="47.77189" lon="-3.60987">
        <ele>7</ele>
        <time>2018-07-18T13:02:27Z</time>
      </trkpt>
      <trkpt lat="47.77191" lon="-3.60983">
        <ele>7</ele>
        <time>2018-07-18T13:02:28Z</time>
      </trkpt>
      <trkpt lat="47.77193" lon="-3.60981">
        <ele>7</ele>
        <time>2018-07-18T13:02:29Z</time>
      </trkpt>
      <trkpt lat="47.77196" lon="-3.60979">
        <ele>7</ele>
        <time>2018-07-18T13:02:30Z</time>
      </trkpt>
      <trkpt lat="47.77199" lon="-3.60977">
        <ele>7</ele>
        <time>2018-07-18T13:02:31Z</time>
      </trkpt>
      <trkpt lat="47.77203" lon="-3.60976">
        <ele>7</ele>
        <time>2018-07-18T13:02:32Z</time>
      </trkpt>
      <trkpt lat="47.77205" lon="-3.60977">
        <ele>7</ele>
        <time>2018-07-18T13:02:33Z</time>
      </trkpt>
      <trkpt lat="47.77207" lon="-3.60979">
        <ele>7</ele>
        <time>2018-07-18T13:02:34Z</time>
      </trkpt>
      <trkpt lat="47.77207" lon="-3.6098">
        <ele>7</ele>
        <time>2018-07-18T13:02:35Z</time>
      </trkpt>
      <trkpt lat="47.77207" lon="-3.6098">
        <ele>7</ele>
        <time>2018-07-18T13:02:36Z</time>
      </trkpt>
      <trkpt lat="47.77208" lon="-3.6098">
        <ele>7</ele>
        <time>2018-07-18T13:02:37Z</time>
      </trkpt>
      <trkpt lat="47.77208" lon="-3.60981">
        <ele>7</ele>
        <time>2018-07-18T13:02:38Z</time>
      </trkpt>
      <trkpt lat="47.77208" lon="-3.60982">
        <ele>7</ele>
        <time>2018-07-18T13:02:39Z</time>
      </trkpt>
      <trkpt lat="47.7721" lon="-3.60983">
        <ele>7</ele>
        <time>2018-07-18T13:02:40Z</time>
      </trkpt>
      <trkpt lat="47.77211" lon="-3.60984">
        <ele>7</ele>
        <time>2018-07-18T13:02:41Z</time>
      </trkpt>
      <trkpt lat="47.77211" lon="-3.60984">
        <ele>7</ele>
        <time>2018-07-18T13:02:42Z</time>
      </trkpt>
      <trkpt lat="47.77212" lon="-3.60984">
        <ele>7</ele>
        <time>2018-07-18T13:02:43Z</time>
      </trkpt>
      <trkpt lat="47.77214" lon="-3.60984">
        <ele>7</ele>
        <time>2018-07-18T13:02:44Z</time>
      </trkpt>
      <trkpt lat="47.77215" lon="-3.60983">
        <ele>7</ele>
        <time>2018-07-18T13:02:45Z</time>
      </trkpt>
      <trkpt lat="47.77216" lon="-3.60983">
        <ele>7</ele>
        <time>2018-07-18T13:02:46Z</time>
      </trkpt>
      <trkpt lat="47.77217" lon="-3.60983">
        <ele>7</ele>
        <time>2018-07-18T13:02:47Z</time>
      </trkpt>
      <trkpt lat="47.77217" lon="-3.60983">
        <ele>7</ele>
        <time>2018-07-18T13:02:48Z</time>
      </trkpt>
      <trkpt lat="47.77217" lon="-3.60983">
        <ele>7</ele>
        <time>2018-07-18T13:02:49Z</time>
      </trkpt>
      <trkpt lat="47.77218" lon="-3.60982">
        <ele>7</ele>
        <time>2018-07-18T13:02:50Z</time>
      </trkpt>
      <trkpt lat="47.77218" lon="-3.60982">
        <ele>7</ele>
        <time>2018-07-18T13:02:51Z</time>
      </trkpt>
      <trkpt lat="47.77219" lon="-3.60982">
        <ele>7</ele>
        <time>2018-07-18T13:02:52Z</time>
      </trkpt>
      <trkpt lat="47.77219" lon="-3.60982">
        <ele>7</ele>
        <time>2018-07-18T13:02:53Z</time>
      </trkpt>
      <trkpt lat="47.7722" lon="-3.60982">
        <ele>7</ele>
        <time>2018-07-18T13:02:54Z</time>
      </trkpt>
      <trkpt lat="47.77221" lon="-3.60981">
        <ele>7</ele>
        <time>2018-07-18T13:02:55Z</time>
      </trkpt>
      <trkpt lat="47.77221" lon="-3.60981">
        <ele>7</ele>
        <time>2018-07-18T13:02:56Z</time>
      </trkpt>
      <trkpt lat="47.77222" lon="-3.60981">
        <ele>7</ele>
        <time>2018-07-18T13:02:57Z</time>
      </trkpt>
      <trkpt lat="47.77223" lon="-3.60981">
        <ele>7</ele>
        <time>2018-07-18T13:02:58Z</time>
      </trkpt>
      <trkpt lat="47.77223" lon="-3.60981">
        <ele>7</ele>
        <time>2018-07-18T13:02:59Z</time>
      </trkpt>
      <trkpt lat="47.77223" lon="-3.60981">
        <ele>7</ele>
        <time>2018-07-18T13:03:00Z</time>
      </trkpt>
      <trkpt lat="47.77224" lon="-3.60981">
        <ele>7</ele>
        <time>2018-07-18T13:03:01Z</time>
      </trkpt>
      <trkpt lat="47.77225" lon="-3.60981">
        <ele>7</ele>
        <time>2018-07-18T13:03:02Z</time>
      </trkpt>
      <trkpt lat="47.77225" lon="-3.60981">
        <ele>7</ele>
        <time>2018-07-18T13:03:03Z</time>
      </trkpt>
      <trkpt lat="47.77225" lon="-3.60981">
        <ele>7</ele>
        <time>2018-07-18T13:03:04Z</time>
      </trkpt>
      <trkpt lat="47.77225" lon="-3.60981">
        <ele>7</ele>
        <time>2018-07-18T13:03:05Z</time>
      </trkpt>
      <trkpt lat="47.77225" lon="-3.60981">
        <ele>8</ele>
        <time>2018-07-18T13:03:06Z</time>
      </trkpt>
      <trkpt lat="47.77225" lon="-3.60981">
        <ele>8</ele>
        <time>2018-07-18T13:03:07Z</time>
      </trkpt>
      <trkpt lat="47.77227" lon="-3.60979">
        <ele>8</ele>
        <time>2018-07-18T13:03:08Z</time>
      </trkpt>
      <trkpt lat="47.77228" lon="-3.60977">
        <ele>8</ele>
        <time>2018-07-18T13:03:09Z</time>
      </trkpt>
      <trkpt lat="47.77229" lon="-3.60974">
        <ele>8</ele>
        <time>2018-07-18T13:03:10Z</time>
      </trkpt>
      <trkpt lat="47.77231" lon="-3.60971">
        <ele>8</ele>
        <time>2018-07-18T13:03:11Z</time>
      </trkpt>
      <trkpt lat="47.77234" lon="-3.60967">
        <ele>8</ele>
        <time>2018-07-18T13:03:12Z</time>
      </trkpt>
      <trkpt lat="47.77237" lon="-3.60963">
        <ele>8</ele>
        <time>2018-07-18T13:03:13Z</time>
      </trkpt>
      <trkpt lat="47.77242" lon="-3.60959">
        <ele>7</ele>
        <time>2018-07-18T13:03:14Z</time>
      </trkpt>
      <trkpt lat="47.77246" lon="-3.60955">
        <ele>7</ele>
        <time>2018-07-18T13:03:15Z</time>
      </trkpt>
      <trkpt lat="47.77251" lon="-3.60952">
        <ele>7</ele>
        <time>2018-07-18T13:03:16Z</time>
      </trkpt>
      <trkpt lat="47.77255" lon="-3.60948">
        <ele>6</ele>
        <time>2018-07-18T13:03:17Z</time>
      </trkpt>
      <trkpt lat="47.7726" lon="-3.60944">
        <ele>6</ele>
        <time>2018-07-18T13:03:18Z</time>
      </trkpt>
      <trkpt lat="47.77264" lon="-3.6094">
        <ele>6</ele>
        <time>2018-07-18T13:03:19Z</time>
      </trkpt>
      <trkpt lat="47.77267" lon="-3.60937">
        <ele>6</ele>
        <time>2018-07-18T13:03:20Z</time>
      </trkpt>
      <trkpt lat="47.77271" lon="-3.60934">
        <ele>6</ele>
        <time>2018-07-18T13:03:21Z</time>
      </trkpt>
      <trkpt lat="47.77273" lon="-3.6093">
        <ele>6</ele>
        <time>2018-07-18T13:03:22Z</time>
      </trkpt>
      <trkpt lat="47.77275" lon="-3.60928">
        <ele>6</ele>
        <time>2018-07-18T13:03:23Z</time>
      </trkpt>
      <trkpt lat="47.77277" lon="-3.60925">
        <ele>6</ele>
        <time>2018-07-18T13:03:24Z</time>
      </trkpt>
      <trkpt lat="47.77279" lon="-3.60923">
        <ele>5</ele>
        <time>2018-07-18T13:03:25Z</time>
      </trkpt>
      <trkpt lat="47.77281" lon="-3.60922">
        <ele>5</ele>
        <time>2018-07-18T13:03:26Z</time>
      </trkpt>
      <trkpt lat="47.77282" lon="-3.60923">
        <ele>5</ele>
        <time>2018-07-18T13:03:27Z</time>
      </trkpt>
      <trkpt lat="47.77283" lon="-3.60925">
        <ele>5</ele>
        <time>2018-07-18T13:03:28Z</time>
      </trkpt>
      <trkpt lat="47.77282" lon="-3.60928">
        <ele>5</ele>
        <time>2018-07-18T13:03:29Z</time>
      </trkpt>
      <trkpt lat="47.77281" lon="-3.6093">
        <ele>5</ele>
        <time>2018-07-18T13:03:30Z</time>
      </trkpt>
      <trkpt lat="47.77279" lon="-3.60932">
        <ele>5</ele>
        <time>2018-07-18T13:03:31Z</time>
      </trkpt>
      <trkpt lat="47.77278" lon="-3.60933">
        <ele>5</ele>
        <time>2018-07-18T13:03:32Z</time>
      </trkpt>
      <trkpt lat="47.77276" lon="-3.60933">
        <ele>5</ele>
        <time>2018-07-18T13:03:33Z</time>
      </trkpt>
      <trkpt lat="47.77276" lon="-3.60931">
        <ele>5</ele>
        <time>2018-07-18T13:03:34Z</time>
      </trkpt>
      <trkpt lat="47.77277" lon="-3.60929">
        <ele>5</ele>
        <time>2018-07-18T13:03:35Z</time>
      </trkpt>
      <trkpt lat="47.77279" lon="-3.60929">
        <ele>5</ele>
        <time>2018-07-18T13:03:36Z</time>
      </trkpt>
      <trkpt lat="47.7728" lon="-3.6093">
        <ele>5</ele>
        <time>2018-07-18T13:03:37Z</time>
      </trkpt>
      <trkpt lat="47.77282" lon="-3.60933">
        <ele>5</ele>
        <time>2018-07-18T13:03:38Z</time>
      </trkpt>
      <trkpt lat="47.77283" lon="-3.60934">
        <ele>4</ele>
        <time>2018-07-18T13:03:39Z</time>
      </trkpt>
      <trkpt lat="47.77285" lon="-3.60934">
        <ele>4</ele>
        <time>2018-07-18T13:03:40Z</time>
      </trkpt>
      <trkpt lat="47.77286" lon="-3.60934">
        <ele>4</ele>
        <time>2018-07-18T13:03:41Z</time>
      </trkpt>
      <trkpt lat="47.77287" lon="-3.60936">
        <ele>4</ele>
        <time>2018-07-18T13:03:42Z</time>
      </trkpt>
      <trkpt lat="47.77288" lon="-3.60936">
        <ele>4</ele>
        <time>2018-07-18T13:03:43Z</time>
      </trkpt>
      <trkpt lat="47.77288" lon="-3.60936">
        <ele>4</ele>
        <time>2018-07-18T13:03:44Z</time>
      </trkpt>
      <trkpt lat="47.77289" lon="-3.60936">
        <ele>4</ele>
        <time>2018-07-18T13:03:45Z</time>
      </trkpt>
      <trkpt lat="47.77289" lon="-3.60936">
        <ele>4</ele>
        <time>2018-07-18T13:03:46Z</time>
      </trkpt>
      <trkpt lat="47.7729" lon="-3.60937">
        <ele>4</ele>
        <time>2018-07-18T13:03:47Z</time>
      </trkpt>
      <trkpt lat="47.7729" lon="-3.60937">
        <ele>5</ele>
        <time>2018-07-18T13:03:48Z</time>
      </trkpt>
      <trkpt lat="47.7729" lon="-3.60937">
        <ele>5</ele>
        <time>2018-07-18T13:03:49Z</time>
      </trkpt>
      <trkpt lat="47.7729" lon="-3.60938">
        <ele>5</ele>
        <time>2018-07-18T13:03:50Z</time>
      </trkpt>
      <trkpt lat="47.7729" lon="-3.60939">
        <ele>5</ele>
        <time>2018-07-18T13:03:51Z</time>
      </trkpt>
      <trkpt lat="47.77291" lon="-3.60939">
        <ele>5</ele>
        <time>2018-07-18T13:03:52Z</time>
      </trkpt>
      <trkpt lat="47.77292" lon="-3.60939">
        <ele>5</ele>
        <time>2018-07-18T13:03:53Z</time>
      </trkpt>
      <trkpt lat="47.77293" lon="-3.60939">
        <ele>4</ele>
        <time>2018-07-18T13:03:54Z</time>
      </trkpt>
      <trkpt lat="47.77294" lon="-3.6094">
        <ele>4</ele>
        <time>2018-07-18T13:03:55Z</time>
      </trkpt>
      <trkpt lat="47.77295" lon="-3.6094">
        <ele>4</ele>
        <time>2018-07-18T13:03:56Z</time>
      </trkpt>
      <trkpt lat="47.77296" lon="-3.6094">
        <ele>4</ele>
        <time>2018-07-18T13:03:57Z</time>
      </trkpt>
      <trkpt lat="47.77296" lon="-3.6094">
        <ele>4</ele>
        <time>2018-07-18T13:03:58Z</time>
      </trkpt>
      <trkpt lat="47.77296" lon="-3.6094">
        <ele>4</ele>
        <time>2018-07-18T13:03:59Z</time>
      </trkpt>
      <trkpt lat="47.77296" lon="-3.6094">
        <ele>4</ele>
        <time>2018-07-18T13:04:00Z</time>
      </trkpt>
      <trkpt lat="47.77297" lon="-3.6094">
        <ele>4</ele>
        <time>2018-07-18T13:04:01Z</time>
      </trkpt>
      <trkpt lat="47.77298" lon="-3.6094">
        <ele>3</ele>
        <time>2018-07-18T13:04:02Z</time>
      </trkpt>
      <trkpt lat="47.77298" lon="-3.60941">
        <ele>3</ele>
        <time>2018-07-18T13:04:03Z</time>
      </trkpt>
      <trkpt lat="47.77298" lon="-3.60941">
        <ele>3</ele>
        <time>2018-07-18T13:04:04Z</time>
      </trkpt>
      <trkpt lat="47.77298" lon="-3.60941">
        <ele>3</ele>
        <time>2018-07-18T13:04:05Z</time>
      </trkpt>
      <trkpt lat="47.77299" lon="-3.60941">
        <ele>3</ele>
        <time>2018-07-18T13:04:06Z</time>
      </trkpt>
      <trkpt lat="47.773" lon="-3.60943">
        <ele>2</ele>
        <time>2018-07-18T13:04:07Z</time>
      </trkpt>
      <trkpt lat="47.773" lon="-3.60943">
        <ele>2</ele>
        <time>2018-07-18T13:04:08Z</time>
      </trkpt>
      <trkpt lat="47.77301" lon="-3.60944">
        <ele>2</ele>
        <time>2018-07-18T13:04:09Z</time>
      </trkpt>
      <trkpt lat="47.77302" lon="-3.60946">
        <ele>2</ele>
        <time>2018-07-18T13:04:10Z</time>
      </trkpt>
      <trkpt lat="47.77302" lon="-3.60947">
        <ele>1</ele>
        <time>2018-07-18T13:04:11Z</time>
      </trkpt>
      <trkpt lat="47.77303" lon="-3.60948">
        <ele>1</ele>
        <time>2018-07-18T13:04:12Z</time>
      </trkpt>
      <trkpt lat="47.77303" lon="-3.6095">
        <ele>1</ele>
        <time>2018-07-18T13:04:13Z</time>
      </trkpt>
      <trkpt lat="47.77304" lon="-3.60951">
        <ele>1</ele>
        <time>2018-07-18T13:04:14Z</time>
      </trkpt>
      <trkpt lat="47.77305" lon="-3.60952">
        <ele>1</ele>
        <time>2018-07-18T13:04:15Z</time>
      </trkpt>
      <trkpt lat="47.77305" lon="-3.60953">
        <ele>1</ele>
        <time>2018-07-18T13:04:16Z</time>
      </trkpt>
      <trkpt lat="47.77306" lon="-3.60954">
        <ele>1</ele>
        <time>2018-07-18T13:04:17Z</time>
      </trkpt>
      <trkpt lat="47.77306" lon="-3.60954">
        <ele>2</ele>
        <time>2018-07-18T13:04:18Z</time>
      </trkpt>
      <trkpt lat="47.77306" lon="-3.60954">
        <ele>2</ele>
        <time>2018-07-18T13:04:19Z</time>
      </trkpt>
      <trkpt lat="47.77306" lon="-3.60955">
        <ele>2</ele>
        <time>2018-07-18T13:04:20Z</time>
      </trkpt>
      <trkpt lat="47.77307" lon="-3.60955">
        <ele>2</ele>
        <time>2018-07-18T13:04:21Z</time>
      </trkpt>
      <trkpt lat="47.77307" lon="-3.60954">
        <ele>2</ele>
        <time>2018-07-18T13:04:22Z</time>
      </trkpt>
      <trkpt lat="47.77307" lon="-3.60954">
        <ele>3</ele>
        <time>2018-07-18T13:04:23Z</time>
      </trkpt>
      <trkpt lat="47.77307" lon="-3.60953">
        <ele>3</ele>
        <time>2018-07-18T13:04:24Z</time>
      </trkpt>
      <trkpt lat="47.77307" lon="-3.60952">
        <ele>3</ele>
        <time>2018-07-18T13:04:25Z</time>
      </trkpt>
      <trkpt lat="47.77307" lon="-3.60951">
        <ele>3</ele>
        <time>2018-07-18T13:04:26Z</time>
      </trkpt>
      <trkpt lat="47.77308" lon="-3.6095">
        <ele>3</ele>
        <time>2018-07-18T13:04:27Z</time>
      </trkpt>
      <trkpt lat="47.77309" lon="-3.60949">
        <ele>3</ele>
        <time>2018-07-18T13:04:28Z</time>
      </trkpt>
      <trkpt lat="47.77309" lon="-3.60948">
        <ele>3</ele>
        <time>2018-07-18T13:04:29Z</time>
      </trkpt>
      <trkpt lat="47.77309" lon="-3.60947">
        <ele>4</ele>
        <time>2018-07-18T13:04:30Z</time>
      </trkpt>
      <trkpt lat="47.77308" lon="-3.60946">
        <ele>4</ele>
        <time>2018-07-18T13:04:31Z</time>
      </trkpt>
      <trkpt lat="47.77308" lon="-3.60945">
        <ele>4</ele>
        <time>2018-07-18T13:04:32Z</time>
      </trkpt>
      <trkpt lat="47.77307" lon="-3.60944">
        <ele>4</ele>
        <time>2018-07-18T13:04:33Z</time>
      </trkpt>
      <trkpt lat="47.77307" lon="-3.60943">
        <ele>4</ele>
        <time>2018-07-18T13:04:34Z</time>
      </trkpt>
      <trkpt lat="47.77307" lon="-3.60943">
        <ele>4</ele>
        <time>2018-07-18T13:04:35Z</time>
      </trkpt>
      <trkpt lat="47.77307" lon="-3.60942">
        <ele>5</ele>
        <time>2018-07-18T13:04:36Z</time>
      </trkpt>
      <trkpt lat="47.77308" lon="-3.60941">
        <ele>5</ele>
        <time>2018-07-18T13:04:37Z</time>
      </trkpt>
      <trkpt lat="47.77308" lon="-3.60941">
        <ele>5</ele>
        <time>2018-07-18T13:04:38Z</time>
      </trkpt>
      <trkpt lat="47.77307" lon="-3.6094">
        <ele>5</ele>
        <time>2018-07-18T13:04:39Z</time>
      </trkpt>
      <trkpt lat="47.77306" lon="-3.60939">
        <ele>5</ele>
        <time>2018-07-18T13:04:40Z</time>
      </trkpt>
      <trkpt lat="47.77305" lon="-3.60938">
        <ele>4</ele>
        <time>2018-07-18T13:04:41Z</time>
      </trkpt>
      <trkpt lat="47.77303" lon="-3.60938">
        <ele>4</ele>
        <time>2018-07-18T13:04:42Z</time>
      </trkpt>
      <trkpt lat="47.77302" lon="-3.60937">
        <ele>4</ele>
        <time>2018-07-18T13:04:43Z</time>
      </trkpt>
      <trkpt lat="47.77301" lon="-3.60936">
        <ele>4</ele>
        <time>2018-07-18T13:04:44Z</time>
      </trkpt>
      <trkpt lat="47.773" lon="-3.60937">
        <ele>4</ele>
        <time>2018-07-18T13:04:45Z</time>
      </trkpt>
      <trkpt lat="47.773" lon="-3.60936">
        <ele>4</ele>
        <time>2018-07-18T13:04:46Z</time>
      </trkpt>
      <trkpt lat="47.77299" lon="-3.60937">
        <ele>4</ele>
        <time>2018-07-18T13:04:47Z</time>
      </trkpt>
      <trkpt lat="47.77299" lon="-3.60937">
        <ele>4</ele>
        <time>2018-07-18T13:04:48Z</time>
      </trkpt>
      <trkpt lat="47.77298" lon="-3.60938">
        <ele>4</ele>
        <time>2018-07-18T13:04:49Z</time>
      </trkpt>
      <trkpt lat="47.77298" lon="-3.60938">
        <ele>4</ele>
        <time>2018-07-18T13:04:50Z</time>
      </trkpt>
      <trkpt lat="47.77297" lon="-3.60939">
        <ele>4</ele>
        <time>2018-07-18T13:04:51Z</time>
      </trkpt>
      <trkpt lat="47.77297" lon="-3.6094">
        <ele>4</ele>
        <time>2018-07-18T13:04:52Z</time>
      </trkpt>
      <trkpt lat="47.77297" lon="-3.60941">
        <ele>4</ele>
        <time>2018-07-18T13:04:53Z</time>
      </trkpt>
      <trkpt lat="47.77296" lon="-3.60941">
        <ele>4</ele>
        <time>2018-07-18T13:04:54Z</time>
      </trkpt>
      <trkpt lat="47.77296" lon="-3.60943">
        <ele>4</ele>
        <time>2018-07-18T13:04:55Z</time>
      </trkpt>
      <trkpt lat="47.77295" lon="-3.60944">
        <ele>4</ele>
        <time>2018-07-18T13:04:56Z</time>
      </trkpt>
      <trkpt lat="47.77295" lon="-3.60944">
        <ele>4</ele>
        <time>2018-07-18T13:04:57Z</time>
      </trkpt>
      <trkpt lat="47.77294" lon="-3.60945">
        <ele>4</ele>
        <time>2018-07-18T13:04:58Z</time>
      </trkpt>
      <trkpt lat="47.77294" lon="-3.60947">
        <ele>4</ele>
        <time>2018-07-18T13:04:59Z</time>
      </trkpt>
      <trkpt lat="47.77294" lon="-3.60948">
        <ele>4</ele>
        <time>2018-07-18T13:05:00Z</time>
      </trkpt>
      <trkpt lat="47.77293" lon="-3.6095">
        <ele>4</ele>
        <time>2018-07-18T13:05:01Z</time>
      </trkpt>
      <trkpt lat="47.77293" lon="-3.6095">
        <ele>5</ele>
        <time>2018-07-18T13:05:02Z</time>
      </trkpt>
      <trkpt lat="47.77293" lon="-3.60951">
        <ele>5</ele>
        <time>2018-07-18T13:05:03Z</time>
      </trkpt>
      <trkpt lat="47.77293" lon="-3.60952">
        <ele>5</ele>
        <time>2018-07-18T13:05:04Z</time>
      </trkpt>
      <trkpt lat="47.77293" lon="-3.60953">
        <ele>5</ele>
        <time>2018-07-18T13:05:05Z</time>
      </trkpt>
      <trkpt lat="47.77293" lon="-3.60954">
        <ele>5</ele>
        <time>2018-07-18T13:05:06Z</time>
      </trkpt>
      <trkpt lat="47.77293" lon="-3.60955">
        <ele>5</ele>
        <time>2018-07-18T13:05:07Z</time>
      </trkpt>
      <trkpt lat="47.77292" lon="-3.60956">
        <ele>5</ele>
        <time>2018-07-18T13:05:08Z</time>
      </trkpt>
      <trkpt lat="47.77291" lon="-3.60957">
        <ele>6</ele>
        <time>2018-07-18T13:05:09Z</time>
      </trkpt>
      <trkpt lat="47.77291" lon="-3.60958">
        <ele>6</ele>
        <time>2018-07-18T13:05:10Z</time>
      </trkpt>
      <trkpt lat="47.7729" lon="-3.60959">
        <ele>6</ele>
        <time>2018-07-18T13:05:11Z</time>
      </trkpt>
      <trkpt lat="47.77289" lon="-3.6096">
        <ele>6</ele>
        <time>2018-07-18T13:05:12Z</time>
      </trkpt>
      <trkpt lat="47.77288" lon="-3.60961">
        <ele>6</ele>
        <time>2018-07-18T13:05:13Z</time>
      </trkpt>
      <trkpt lat="47.77287" lon="-3.60963">
        <ele>7</ele>
        <time>2018-07-18T13:05:14Z</time>
      </trkpt>
      <trkpt lat="47.77287" lon="-3.60964">
        <ele>7</ele>
        <time>2018-07-18T13:05:15Z</time>
      </trkpt>
      <trkpt lat="47.77287" lon="-3.60966">
        <ele>7</ele>
        <time>2018-07-18T13:05:16Z</time>
      </trkpt>
      <trkpt lat="47.77287" lon="-3.60966">
        <ele>7</ele>
        <time>2018-07-18T13:05:17Z</time>
      </trkpt>
      <trkpt lat="47.77287" lon="-3.60966">
        <ele>8</ele>
        <time>2018-07-18T13:05:18Z</time>
      </trkpt>
      <trkpt lat="47.77287" lon="-3.60967">
        <ele>8</ele>
        <time>2018-07-18T13:05:19Z</time>
      </trkpt>
      <trkpt lat="47.77286" lon="-3.60969">
        <ele>8</ele>
        <time>2018-07-18T13:05:20Z</time>
      </trkpt>
      <trkpt lat="47.77286" lon="-3.60971">
        <ele>8</ele>
        <time>2018-07-18T13:05:21Z</time>
      </trkpt>
      <trkpt lat="47.77285" lon="-3.60974">
        <ele>8</ele>
        <time>2018-07-18T13:05:22Z</time>
      </trkpt>
      <trkpt lat="47.77285" lon="-3.60977">
        <ele>8</ele>
        <time>2018-07-18T13:05:23Z</time>
      </trkpt>
      <trkpt lat="47.77286" lon="-3.6098">
        <ele>8</ele>
        <time>2018-07-18T13:05:24Z</time>
      </trkpt>
      <trkpt lat="47.77287" lon="-3.60983">
        <ele>9</ele>
        <time>2018-07-18T13:05:25Z</time>
      </trkpt>
      <trkpt lat="47.77289" lon="-3.60986">
        <ele>9</ele>
        <time>2018-07-18T13:05:26Z</time>
      </trkpt>
      <trkpt lat="47.7729" lon="-3.60989">
        <ele>9</ele>
        <time>2018-07-18T13:05:27Z</time>
      </trkpt>
      <trkpt lat="47.7729" lon="-3.60991">
        <ele>9</ele>
        <time>2018-07-18T13:05:28Z</time>
      </trkpt>
      <trkpt lat="47.77291" lon="-3.60994">
        <ele>9</ele>
        <time>2018-07-18T13:05:29Z</time>
      </trkpt>
      <trkpt lat="47.77291" lon="-3.60998">
        <ele>9</ele>
        <time>2018-07-18T13:05:30Z</time>
      </trkpt>
      <trkpt lat="47.77291" lon="-3.61001">
        <ele>9</ele>
        <time>2018-07-18T13:05:31Z</time>
      </trkpt>
      <trkpt lat="47.77291" lon="-3.61004">
        <ele>10</ele>
        <time>2018-07-18T13:05:32Z</time>
      </trkpt>
      <trkpt lat="47.77291" lon="-3.61008">
        <ele>10</ele>
        <time>2018-07-18T13:05:33Z</time>
      </trkpt>
      <trkpt lat="47.77291" lon="-3.61011">
        <ele>10</ele>
        <time>2018-07-18T13:05:34Z</time>
      </trkpt>
      <trkpt lat="47.77291" lon="-3.61015">
        <ele>10</ele>
        <time>2018-07-18T13:05:35Z</time>
      </trkpt>
      <trkpt lat="47.77291" lon="-3.61018">
        <ele>10</ele>
        <time>2018-07-18T13:05:36Z</time>
      </trkpt>
      <trkpt lat="47.77291" lon="-3.61022">
        <ele>11</ele>
        <time>2018-07-18T13:05:37Z</time>
      </trkpt>
      <trkpt lat="47.77291" lon="-3.61025">
        <ele>11</ele>
        <time>2018-07-18T13:05:38Z</time>
      </trkpt>
      <trkpt lat="47.77292" lon="-3.61028">
        <ele>11</ele>
        <time>2018-07-18T13:05:39Z</time>
      </trkpt>
      <trkpt lat="47.77292" lon="-3.61032">
        <ele>11</ele>
        <time>2018-07-18T13:05:40Z</time>
      </trkpt>
      <trkpt lat="47.77293" lon="-3.61035">
        <ele>12</ele>
        <time>2018-07-18T13:05:41Z</time>
      </trkpt>
      <trkpt lat="47.77293" lon="-3.61038">
        <ele>12</ele>
        <time>2018-07-18T13:05:42Z</time>
      </trkpt>
      <trkpt lat="47.77293" lon="-3.61041">
        <ele>12</ele>
        <time>2018-07-18T13:05:43Z</time>
      </trkpt>
      <trkpt lat="47.77293" lon="-3.61044">
        <ele>13</ele>
        <time>2018-07-18T13:05:44Z</time>
      </trkpt>
      <trkpt lat="47.77294" lon="-3.61047">
        <ele>13</ele>
        <time>2018-07-18T13:05:45Z</time>
      </trkpt>
      <trkpt lat="47.77296" lon="-3.61049">
        <ele>13</ele>
        <time>2018-07-18T13:05:46Z</time>
      </trkpt>
      <trkpt lat="47.77297" lon="-3.61049">
        <ele>13</ele>
        <time>2018-07-18T13:05:47Z</time>
      </trkpt>
      <trkpt lat="47.77299" lon="-3.6105">
        <ele>14</ele>
        <time>2018-07-18T13:05:48Z</time>
      </trkpt>
      <trkpt lat="47.773" lon="-3.61051">
        <ele>14</ele>
        <time>2018-07-18T13:05:49Z</time>
      </trkpt>
      <trkpt lat="47.77303" lon="-3.61051">
        <ele>14</ele>
        <time>2018-07-18T13:05:50Z</time>
      </trkpt>
      <trkpt lat="47.77305" lon="-3.61052">
        <ele>14</ele>
        <time>2018-07-18T13:05:51Z</time>
      </trkpt>
      <trkpt lat="47.77308" lon="-3.61053">
        <ele>14</ele>
        <time>2018-07-18T13:05:52Z</time>
      </trkpt>
      <trkpt lat="47.7731" lon="-3.61053">
        <ele>14</ele>
        <time>2018-07-18T13:05:53Z</time>
      </trkpt>
      <trkpt lat="47.77313" lon="-3.61054">
        <ele>14</ele>
        <time>2018-07-18T13:05:54Z</time>
      </trkpt>
      <trkpt lat="47.77316" lon="-3.61055">
        <ele>15</ele>
        <time>2018-07-18T13:05:55Z</time>
      </trkpt>
      <trkpt lat="47.77319" lon="-3.61057">
        <ele>15</ele>
        <time>2018-07-18T13:05:56Z</time>
      </trkpt>
      <trkpt lat="47.77323" lon="-3.6106">
        <ele>15</ele>
        <time>2018-07-18T13:05:57Z</time>
      </trkpt>
      <trkpt lat="47.77326" lon="-3.61063">
        <ele>15</ele>
        <time>2018-07-18T13:05:58Z</time>
      </trkpt>
      <trkpt lat="47.77328" lon="-3.61065">
        <ele>15</ele>
        <time>2018-07-18T13:05:59Z</time>
      </trkpt>
      <trkpt lat="47.77331" lon="-3.61068">
        <ele>15</ele>
        <time>2018-07-18T13:06:00Z</time>
      </trkpt>
      <trkpt lat="47.77333" lon="-3.6107">
        <ele>15</ele>
        <time>2018-07-18T13:06:01Z</time>
      </trkpt>
      <trkpt lat="47.77336" lon="-3.61072">
        <ele>15</ele>
        <time>2018-07-18T13:06:02Z</time>
      </trkpt>
      <trkpt lat="47.77339" lon="-3.61074">
        <ele>16</ele>
        <time>2018-07-18T13:06:03Z</time>
      </trkpt>
      <trkpt lat="47.77341" lon="-3.61076">
        <ele>16</ele>
        <time>2018-07-18T13:06:04Z</time>
      </trkpt>
      <trkpt lat="47.77345" lon="-3.61078">
        <ele>16</ele>
        <time>2018-07-18T13:06:05Z</time>
      </trkpt>
      <trkpt lat="47.77349" lon="-3.61081">
        <ele>16</ele>
        <time>2018-07-18T13:06:06Z</time>
      </trkpt>
      <trkpt lat="47.77353" lon="-3.61083">
        <ele>16</ele>
        <time>2018-07-18T13:06:07Z</time>
      </trkpt>
      <trkpt lat="47.77357" lon="-3.61086">
        <ele>16</ele>
        <time>2018-07-18T13:06:08Z</time>
      </trkpt>
      <trkpt lat="47.7736" lon="-3.61088">
        <ele>16</ele>
        <time>2018-07-18T13:06:09Z</time>
      </trkpt>
      <trkpt lat="47.77363" lon="-3.61092">
        <ele>16</ele>
        <time>2018-07-18T13:06:10Z</time>
      </trkpt>
      <trkpt lat="47.77366" lon="-3.61096">
        <ele>16</ele>
        <time>2018-07-18T13:06:11Z</time>
      </trkpt>
      <trkpt lat="47.77368" lon="-3.61101">
        <ele>16</ele>
        <time>2018-07-18T13:06:12Z</time>
      </trkpt>
      <trkpt lat="47.7737" lon="-3.61106">
        <ele>16</ele>
        <time>2018-07-18T13:06:13Z</time>
      </trkpt>
      <trkpt lat="47.77372" lon="-3.61111">
        <ele>16</ele>
        <time>2018-07-18T13:06:14Z</time>
      </trkpt>
      <trkpt lat="47.77373" lon="-3.61115">
        <ele>16</ele>
        <time>2018-07-18T13:06:15Z</time>
      </trkpt>
      <trkpt lat="47.77376" lon="-3.61117">
        <ele>16</ele>
        <time>2018-07-18T13:06:16Z</time>
      </trkpt>
      <trkpt lat="47.77377" lon="-3.61118">
        <ele>16</ele>
        <time>2018-07-18T13:06:17Z</time>
      </trkpt>
      <trkpt lat="47.77378" lon="-3.61118">
        <ele>16</ele>
        <time>2018-07-18T13:06:18Z</time>
      </trkpt>
      <trkpt lat="47.7738" lon="-3.61118">
        <ele>16</ele>
        <time>2018-07-18T13:06:19Z</time>
      </trkpt>
      <trkpt lat="47.77381" lon="-3.61115">
        <ele>16</ele>
        <time>2018-07-18T13:06:20Z</time>
      </trkpt>
      <trkpt lat="47.77382" lon="-3.61113">
        <ele>16</ele>
        <time>2018-07-18T13:06:21Z</time>
      </trkpt>
      <trkpt lat="47.77383" lon="-3.61111">
        <ele>16</ele>
        <time>2018-07-18T13:06:22Z</time>
      </trkpt>
      <trkpt lat="47.77384" lon="-3.61108">
        <ele>16</ele>
        <time>2018-07-18T13:06:23Z</time>
      </trkpt>
      <trkpt lat="47.77385" lon="-3.61105">
        <ele>15</ele>
        <time>2018-07-18T13:06:24Z</time>
      </trkpt>
      <trkpt lat="47.77386" lon="-3.61102">
        <ele>15</ele>
        <time>2018-07-18T13:06:25Z</time>
      </trkpt>
      <trkpt lat="47.77386" lon="-3.61101">
        <ele>15</ele>
        <time>2018-07-18T13:06:26Z</time>
      </trkpt>
      <trkpt lat="47.77386" lon="-3.611">
        <ele>15</ele>
        <time>2018-07-18T13:06:27Z</time>
      </trkpt>
      <trkpt lat="47.77387" lon="-3.611">
        <ele>15</ele>
        <time>2018-07-18T13:06:28Z</time>
      </trkpt>
      <trkpt lat="47.77387" lon="-3.611">
        <ele>15</ele>
        <time>2018-07-18T13:06:29Z</time>
      </trkpt>
      <trkpt lat="47.77387" lon="-3.611">
        <ele>15</ele>
        <time>2018-07-18T13:06:30Z</time>
      </trkpt>
      <trkpt lat="47.77387" lon="-3.611">
        <ele>15</ele>
        <time>2018-07-18T13:06:31Z</time>
      </trkpt>
      <trkpt lat="47.77389" lon="-3.61098">
        <ele>15</ele>
        <time>2018-07-18T13:06:32Z</time>
      </trkpt>
      <trkpt lat="47.7739" lon="-3.61097">
        <ele>15</ele>
        <time>2018-07-18T13:06:33Z</time>
      </trkpt>
      <trkpt lat="47.77392" lon="-3.61096">
        <ele>14</ele>
        <time>2018-07-18T13:06:34Z</time>
      </trkpt>
      <trkpt lat="47.77394" lon="-3.61096">
        <ele>14</ele>
        <time>2018-07-18T13:06:35Z</time>
      </trkpt>
      <trkpt lat="47.77395" lon="-3.61096">
        <ele>14</ele>
        <time>2018-07-18T13:06:36Z</time>
      </trkpt>
      <trkpt lat="47.77395" lon="-3.61096">
        <ele>14</ele>
        <time>2018-07-18T13:06:37Z</time>
      </trkpt>
      <trkpt lat="47.77396" lon="-3.61097">
        <ele>14</ele>
        <time>2018-07-18T13:06:38Z</time>
      </trkpt>
      <trkpt lat="47.77397" lon="-3.61097">
        <ele>14</ele>
        <time>2018-07-18T13:06:39Z</time>
      </trkpt>
      <trkpt lat="47.77397" lon="-3.61097">
        <ele>14</ele>
        <time>2018-07-18T13:06:40Z</time>
      </trkpt>
      <trkpt lat="47.77398" lon="-3.61097">
        <ele>15</ele>
        <time>2018-07-18T13:06:41Z</time>
      </trkpt>
      <trkpt lat="47.77398" lon="-3.61098">
        <ele>15</ele>
        <time>2018-07-18T13:06:42Z</time>
      </trkpt>
      <trkpt lat="47.77399" lon="-3.61098">
        <ele>15</ele>
        <time>2018-07-18T13:06:43Z</time>
      </trkpt>
      <trkpt lat="47.774" lon="-3.61098">
        <ele>15</ele>
        <time>2018-07-18T13:06:44Z</time>
      </trkpt>
      <trkpt lat="47.774" lon="-3.61098">
        <ele>15</ele>
        <time>2018-07-18T13:06:45Z</time>
      </trkpt>
      <trkpt lat="47.77401" lon="-3.61099">
        <ele>15</ele>
        <time>2018-07-18T13:06:46Z</time>
      </trkpt>
      <trkpt lat="47.77402" lon="-3.61099">
        <ele>15</ele>
        <time>2018-07-18T13:06:47Z</time>
      </trkpt>
      <trkpt lat="47.77403" lon="-3.61099">
        <ele>15</ele>
        <time>2018-07-18T13:06:48Z</time>
      </trkpt>
      <trkpt lat="47.77405" lon="-3.611">
        <ele>15</ele>
        <time>2018-07-18T13:06:49Z</time>
      </trkpt>
      <trkpt lat="47.77407" lon="-3.61101">
        <ele>15</ele>
        <time>2018-07-18T13:06:50Z</time>
      </trkpt>
      <trkpt lat="47.77409" lon="-3.61103">
        <ele>15</ele>
        <time>2018-07-18T13:06:51Z</time>
      </trkpt>
      <trkpt lat="47.77411" lon="-3.61105">
        <ele>15</ele>
        <time>2018-07-18T13:06:52Z</time>
      </trkpt>
      <trkpt lat="47.77413" lon="-3.61106">
        <ele>15</ele>
        <time>2018-07-18T13:06:53Z</time>
      </trkpt>
      <trkpt lat="47.77414" lon="-3.61106">
        <ele>15</ele>
        <time>2018-07-18T13:06:54Z</time>
      </trkpt>
      <trkpt lat="47.77417" lon="-3.61107">
        <ele>16</ele>
        <time>2018-07-18T13:06:55Z</time>
      </trkpt>
      <trkpt lat="47.77418" lon="-3.61108">
        <ele>16</ele>
        <time>2018-07-18T13:06:56Z</time>
      </trkpt>
      <trkpt lat="47.77419" lon="-3.61108">
        <ele>16</ele>
        <time>2018-07-18T13:06:57Z</time>
      </trkpt>
      <trkpt lat="47.7742" lon="-3.61108">
        <ele>16</ele>
        <time>2018-07-18T13:06:58Z</time>
      </trkpt>
      <trkpt lat="47.77421" lon="-3.61108">
        <ele>16</ele>
        <time>2018-07-18T13:06:59Z</time>
      </trkpt>
      <trkpt lat="47.77422" lon="-3.61108">
        <ele>16</ele>
        <time>2018-07-18T13:07:00Z</time>
      </trkpt>
      <trkpt lat="47.77423" lon="-3.61106">
        <ele>15</ele>
        <time>2018-07-18T13:07:01Z</time>
      </trkpt>
      <trkpt lat="47.77424" lon="-3.61105">
        <ele>15</ele>
        <time>2018-07-18T13:07:02Z</time>
      </trkpt>
      <trkpt lat="47.77425" lon="-3.61104">
        <ele>15</ele>
        <time>2018-07-18T13:07:03Z</time>
      </trkpt>
      <trkpt lat="47.77425" lon="-3.61103">
        <ele>16</ele>
        <time>2018-07-18T13:07:04Z</time>
      </trkpt>
      <trkpt lat="47.77426" lon="-3.61103">
        <ele>16</ele>
        <time>2018-07-18T13:07:05Z</time>
      </trkpt>
      <trkpt lat="47.77426" lon="-3.61103">
        <ele>15</ele>
        <time>2018-07-18T13:07:06Z</time>
      </trkpt>
      <trkpt lat="47.77426" lon="-3.61103">
        <ele>16</ele>
        <time>2018-07-18T13:07:07Z</time>
      </trkpt>
      <trkpt lat="47.77427" lon="-3.61103">
        <ele>16</ele>
        <time>2018-07-18T13:07:08Z</time>
      </trkpt>
      <trkpt lat="47.77428" lon="-3.61104">
        <ele>16</ele>
        <time>2018-07-18T13:07:09Z</time>
      </trkpt>
      <trkpt lat="47.77427" lon="-3.61103">
        <ele>15</ele>
        <time>2018-07-18T13:07:10Z</time>
      </trkpt>
      <trkpt lat="47.77425" lon="-3.61102">
        <ele>15</ele>
        <time>2018-07-18T13:07:11Z</time>
      </trkpt>
      <trkpt lat="47.77422" lon="-3.611">
        <ele>15</ele>
        <time>2018-07-18T13:07:12Z</time>
      </trkpt>
      <trkpt lat="47.7742" lon="-3.61098">
        <ele>15</ele>
        <time>2018-07-18T13:07:13Z</time>
      </trkpt>
      <trkpt lat="47.77418" lon="-3.61095">
        <ele>15</ele>
        <time>2018-07-18T13:07:14Z</time>
      </trkpt>
      <trkpt lat="47.77415" lon="-3.61093">
        <ele>15</ele>
        <time>2018-07-18T13:07:15Z</time>
      </trkpt>
      <trkpt lat="47.77413" lon="-3.61091">
        <ele>14</ele>
        <time>2018-07-18T13:07:16Z</time>
      </trkpt>
      <trkpt lat="47.77411" lon="-3.61088">
        <ele>14</ele>
        <time>2018-07-18T13:07:17Z</time>
      </trkpt>
      <trkpt lat="47.77408" lon="-3.61084">
        <ele>14</ele>
        <time>2018-07-18T13:07:18Z</time>
      </trkpt>
      <trkpt lat="47.77406" lon="-3.61081">
        <ele>14</ele>
        <time>2018-07-18T13:07:19Z</time>
      </trkpt>
      <trkpt lat="47.77402" lon="-3.61078">
        <ele>14</ele>
        <time>2018-07-18T13:07:20Z</time>
      </trkpt>
      <trkpt lat="47.77399" lon="-3.61075">
        <ele>13</ele>
        <time>2018-07-18T13:07:21Z</time>
      </trkpt>
      <trkpt lat="47.77396" lon="-3.61072">
        <ele>13</ele>
        <time>2018-07-18T13:07:22Z</time>
      </trkpt>
      <trkpt lat="47.77392" lon="-3.61069">
        <ele>13</ele>
        <time>2018-07-18T13:07:23Z</time>
      </trkpt>
      <trkpt lat="47.7739" lon="-3.61067">
        <ele>13</ele>
        <time>2018-07-18T13:07:24Z</time>
      </trkpt>
      <trkpt lat="47.77387" lon="-3.61065">
        <ele>13</ele>
        <time>2018-07-18T13:07:25Z</time>
      </trkpt>
      <trkpt lat="47.77385" lon="-3.61062">
        <ele>13</ele>
        <time>2018-07-18T13:07:26Z</time>
      </trkpt>
      <trkpt lat="47.77383" lon="-3.61058">
        <ele>13</ele>
        <time>2018-07-18T13:07:27Z</time>
      </trkpt>
      <trkpt lat="47.77381" lon="-3.61054">
        <ele>13</ele>
        <time>2018-07-18T13:07:28Z</time>
      </trkpt>
      <trkpt lat="47.77379" lon="-3.61049">
        <ele>13</ele>
        <time>2018-07-18T13:07:29Z</time>
      </trkpt>
      <trkpt lat="47.77379" lon="-3.61045">
        <ele>13</ele>
        <time>2018-07-18T13:07:30Z</time>
      </trkpt>
      <trkpt lat="47.77379" lon="-3.6104">
        <ele>12</ele>
        <time>2018-07-18T13:07:31Z</time>
      </trkpt>
      <trkpt lat="47.77378" lon="-3.61036">
        <ele>12</ele>
        <time>2018-07-18T13:07:32Z</time>
      </trkpt>
      <trkpt lat="47.77377" lon="-3.61031">
        <ele>12</ele>
        <time>2018-07-18T13:07:33Z</time>
      </trkpt>
      <trkpt lat="47.77375" lon="-3.61027">
        <ele>12</ele>
        <time>2018-07-18T13:07:34Z</time>
      </trkpt>
      <trkpt lat="47.77373" lon="-3.61022">
        <ele>12</ele>
        <time>2018-07-18T13:07:35Z</time>
      </trkpt>
      <trkpt lat="47.77371" lon="-3.61018">
        <ele>11</ele>
        <time>2018-07-18T13:07:36Z</time>
      </trkpt>
      <trkpt lat="47.77368" lon="-3.61013">
        <ele>11</ele>
        <time>2018-07-18T13:07:37Z</time>
      </trkpt>
      <trkpt lat="47.77367" lon="-3.61009">
        <ele>11</ele>
        <time>2018-07-18T13:07:38Z</time>
      </trkpt>
      <trkpt lat="47.77365" lon="-3.61005">
        <ele>11</ele>
        <time>2018-07-18T13:07:39Z</time>
      </trkpt>
      <trkpt lat="47.77364" lon="-3.61001">
        <ele>11</ele>
        <time>2018-07-18T13:07:40Z</time>
      </trkpt>
      <trkpt lat="47.77363" lon="-3.60998">
        <ele>10</ele>
        <time>2018-07-18T13:07:41Z</time>
      </trkpt>
      <trkpt lat="47.77361" lon="-3.60995">
        <ele>10</ele>
        <time>2018-07-18T13:07:42Z</time>
      </trkpt>
      <trkpt lat="47.77359" lon="-3.60991">
        <ele>10</ele>
        <time>2018-07-18T13:07:43Z</time>
      </trkpt>
      <trkpt lat="47.77357" lon="-3.60987">
        <ele>10</ele>
        <time>2018-07-18T13:07:44Z</time>
      </trkpt>
      <trkpt lat="47.77356" lon="-3.60983">
        <ele>9</ele>
        <time>2018-07-18T13:07:45Z</time>
      </trkpt>
      <trkpt lat="47.77355" lon="-3.60979">
        <ele>9</ele>
        <time>2018-07-18T13:07:46Z</time>
      </trkpt>
      <trkpt lat="47.77354" lon="-3.60976">
        <ele>9</ele>
        <time>2018-07-18T13:07:47Z</time>
      </trkpt>
      <trkpt lat="47.77354" lon="-3.60972">
        <ele>8</ele>
        <time>2018-07-18T13:07:48Z</time>
      </trkpt>
      <trkpt lat="47.77353" lon="-3.60969">
        <ele>8</ele>
        <time>2018-07-18T13:07:49Z</time>
      </trkpt>
      <trkpt lat="47.77353" lon="-3.60966">
        <ele>8</ele>
        <time>2018-07-18T13:07:50Z</time>
      </trkpt>
      <trkpt lat="47.77352" lon="-3.60963">
        <ele>8</ele>
        <time>2018-07-18T13:07:51Z</time>
      </trkpt>
      <trkpt lat="47.77351" lon="-3.6096">
        <ele>7</ele>
        <time>2018-07-18T13:07:52Z</time>
      </trkpt>
      <trkpt lat="47.7735" lon="-3.60956">
        <ele>7</ele>
        <time>2018-07-18T13:07:53Z</time>
      </trkpt>
      <trkpt lat="47.77349" lon="-3.60954">
        <ele>7</ele>
        <time>2018-07-18T13:07:54Z</time>
      </trkpt>
      <trkpt lat="47.77348" lon="-3.60952">
        <ele>6</ele>
        <time>2018-07-18T13:07:55Z</time>
      </trkpt>
      <trkpt lat="47.77348" lon="-3.6095">
        <ele>6</ele>
        <time>2018-07-18T13:07:56Z</time>
      </trkpt>
      <trkpt lat="47.77347" lon="-3.60947">
        <ele>6</ele>
        <time>2018-07-18T13:07:57Z</time>
      </trkpt>
      <trkpt lat="47.77346" lon="-3.60944">
        <ele>6</ele>
        <time>2018-07-18T13:07:58Z</time>
      </trkpt>
      <trkpt lat="47.77345" lon="-3.60941">
        <ele>5</ele>
        <time>2018-07-18T13:07:59Z</time>
      </trkpt>
      <trkpt lat="47.77344" lon="-3.60937">
        <ele>5</ele>
        <time>2018-07-18T13:08:00Z</time>
      </trkpt>
      <trkpt lat="47.77343" lon="-3.60933">
        <ele>4</ele>
        <time>2018-07-18T13:08:01Z</time>
      </trkpt>
      <trkpt lat="47.77342" lon="-3.6093">
        <ele>4</ele>
        <time>2018-07-18T13:08:02Z</time>
      </trkpt>
      <trkpt lat="47.77342" lon="-3.60926">
        <ele>4</ele>
        <time>2018-07-18T13:08:03Z</time>
      </trkpt>
      <trkpt lat="47.77341" lon="-3.60922">
        <ele>3</ele>
        <time>2018-07-18T13:08:04Z</time>
      </trkpt>
      <trkpt lat="47.7734" lon="-3.60918">
        <ele>3</ele>
        <time>2018-07-18T13:08:05Z</time>
      </trkpt>
      <trkpt lat="47.7734" lon="-3.60916">
        <ele>3</ele>
        <time>2018-07-18T13:08:06Z</time>
      </trkpt>
      <trkpt lat="47.77341" lon="-3.60914">
        <ele>4</ele>
        <time>2018-07-18T13:08:07Z</time>
      </trkpt>
      <trkpt lat="47.77343" lon="-3.60911">
        <ele>4</ele>
        <time>2018-07-18T13:08:08Z</time>
      </trkpt>
      <trkpt lat="47.77345" lon="-3.60909">
        <ele>4</ele>
        <time>2018-07-18T13:08:09Z</time>
      </trkpt>
      <trkpt lat="47.77346" lon="-3.60906">
        <ele>4</ele>
        <time>2018-07-18T13:08:10Z</time>
      </trkpt>
      <trkpt lat="47.77349" lon="-3.60904">
        <ele>4</ele>
        <time>2018-07-18T13:08:11Z</time>
      </trkpt>
      <trkpt lat="47.77352" lon="-3.60901">
        <ele>4</ele>
        <time>2018-07-18T13:08:12Z</time>
      </trkpt>
      <trkpt lat="47.77354" lon="-3.60899">
        <ele>5</ele>
        <time>2018-07-18T13:08:13Z</time>
      </trkpt>
      <trkpt lat="47.77357" lon="-3.60897">
        <ele>5</ele>
        <time>2018-07-18T13:08:14Z</time>
      </trkpt>
      <trkpt lat="47.7736" lon="-3.60894">
        <ele>5</ele>
        <time>2018-07-18T13:08:15Z</time>
      </trkpt>
      <trkpt lat="47.77362" lon="-3.60892">
        <ele>5</ele>
        <time>2018-07-18T13:08:16Z</time>
      </trkpt>
      <trkpt lat="47.77365" lon="-3.6089">
        <ele>5</ele>
        <time>2018-07-18T13:08:17Z</time>
      </trkpt>
      <trkpt lat="47.77367" lon="-3.60888">
        <ele>5</ele>
        <time>2018-07-18T13:08:18Z</time>
      </trkpt>
      <trkpt lat="47.77371" lon="-3.60885">
        <ele>5</ele>
        <time>2018-07-18T13:08:19Z</time>
      </trkpt>
      <trkpt lat="47.77375" lon="-3.60882">
        <ele>5</ele>
        <time>2018-07-18T13:08:20Z</time>
      </trkpt>
      <trkpt lat="47.77379" lon="-3.60879">
        <ele>5</ele>
        <time>2018-07-18T13:08:21Z</time>
      </trkpt>
      <trkpt lat="47.77382" lon="-3.60877">
        <ele>6</ele>
        <time>2018-07-18T13:08:22Z</time>
      </trkpt>
      <trkpt lat="47.77385" lon="-3.60875">
        <ele>6</ele>
        <time>2018-07-18T13:08:23Z</time>
      </trkpt>
      <trkpt lat="47.77386" lon="-3.60873">
        <ele>6</ele>
        <time>2018-07-18T13:08:24Z</time>
      </trkpt>
      <trkpt lat="47.77388" lon="-3.60872">
        <ele>6</ele>
        <time>2018-07-18T13:08:25Z</time>
      </trkpt>
      <trkpt lat="47.77389" lon="-3.60871">
        <ele>6</ele>
        <time>2018-07-18T13:08:26Z</time>
      </trkpt>
      <trkpt lat="47.77389" lon="-3.60871">
        <ele>6</ele>
        <time>2018-07-18T13:08:27Z</time>
      </trkpt>
      <trkpt lat="47.7739" lon="-3.60869">
        <ele>6</ele>
        <time>2018-07-18T13:08:28Z</time>
      </trkpt>
      <trkpt lat="47.77391" lon="-3.60867">
        <ele>6</ele>
        <time>2018-07-18T13:08:29Z</time>
      </trkpt>
      <trkpt lat="47.77391" lon="-3.60864">
        <ele>6</ele>
        <time>2018-07-18T13:08:30Z</time>
      </trkpt>
      <trkpt lat="47.77393" lon="-3.60862">
        <ele>6</ele>
        <time>2018-07-18T13:08:31Z</time>
      </trkpt>
      <trkpt lat="47.77394" lon="-3.6086">
        <ele>6</ele>
        <time>2018-07-18T13:08:32Z</time>
      </trkpt>
      <trkpt lat="47.77396" lon="-3.60857">
        <ele>6</ele>
        <time>2018-07-18T13:08:33Z</time>
      </trkpt>
      <trkpt lat="47.77398" lon="-3.60854">
        <ele>6</ele>
        <time>2018-07-18T13:08:34Z</time>
      </trkpt>
      <trkpt lat="47.774" lon="-3.60851">
        <ele>6</ele>
        <time>2018-07-18T13:08:35Z</time>
      </trkpt>
      <trkpt lat="47.77403" lon="-3.60848">
        <ele>7</ele>
        <time>2018-07-18T13:08:36Z</time>
      </trkpt>
      <trkpt lat="47.77405" lon="-3.60845">
        <ele>7</ele>
        <time>2018-07-18T13:08:37Z</time>
      </trkpt>
      <trkpt lat="47.77407" lon="-3.60843">
        <ele>7</ele>
        <time>2018-07-18T13:08:38Z</time>
      </trkpt>
      <trkpt lat="47.77408" lon="-3.60842">
        <ele>7</ele>
        <time>2018-07-18T13:08:39Z</time>
      </trkpt>
      <trkpt lat="47.7741" lon="-3.6084">
        <ele>7</ele>
        <time>2018-07-18T13:08:40Z</time>
      </trkpt>
      <trkpt lat="47.77411" lon="-3.60838">
        <ele>7</ele>
        <time>2018-07-18T13:08:41Z</time>
      </trkpt>
      <trkpt lat="47.77413" lon="-3.60835">
        <ele>7</ele>
        <time>2018-07-18T13:08:42Z</time>
      </trkpt>
      <trkpt lat="47.77415" lon="-3.60833">
        <ele>7</ele>
        <time>2018-07-18T13:08:43Z</time>
      </trkpt>
      <trkpt lat="47.77417" lon="-3.60831">
        <ele>7</ele>
        <time>2018-07-18T13:08:44Z</time>
      </trkpt>
      <trkpt lat="47.77418" lon="-3.60829">
        <ele>7</ele>
        <time>2018-07-18T13:08:45Z</time>
      </trkpt>
      <trkpt lat="47.77419" lon="-3.60826">
        <ele>8</ele>
        <time>2018-07-18T13:08:46Z</time>
      </trkpt>
      <trkpt lat="47.7742" lon="-3.60824">
        <ele>8</ele>
        <time>2018-07-18T13:08:47Z</time>
      </trkpt>
      <trkpt lat="47.77421" lon="-3.60822">
        <ele>8</ele>
        <time>2018-07-18T13:08:48Z</time>
      </trkpt>
      <trkpt lat="47.77421" lon="-3.6082">
        <ele>8</ele>
        <time>2018-07-18T13:08:49Z</time>
      </trkpt>
      <trkpt lat="47.77421" lon="-3.60818">
        <ele>9</ele>
        <time>2018-07-18T13:08:50Z</time>
      </trkpt>
      <trkpt lat="47.77421" lon="-3.60818">
        <ele>9</ele>
        <time>2018-07-18T13:08:51Z</time>
      </trkpt>
      <trkpt lat="47.77421" lon="-3.60816">
        <ele>9</ele>
        <time>2018-07-18T13:08:52Z</time>
      </trkpt>
      <trkpt lat="47.77421" lon="-3.60814">
        <ele>9</ele>
        <time>2018-07-18T13:08:53Z</time>
      </trkpt>
      <trkpt lat="47.77422" lon="-3.60812">
        <ele>9</ele>
        <time>2018-07-18T13:08:54Z</time>
      </trkpt>
      <trkpt lat="47.77422" lon="-3.6081">
        <ele>10</ele>
        <time>2018-07-18T13:08:55Z</time>
      </trkpt>
      <trkpt lat="47.77423" lon="-3.60807">
        <ele>10</ele>
        <time>2018-07-18T13:08:56Z</time>
      </trkpt>
      <trkpt lat="47.77424" lon="-3.60803">
        <ele>10</ele>
        <time>2018-07-18T13:08:57Z</time>
      </trkpt>
      <trkpt lat="47.77425" lon="-3.608">
        <ele>10</ele>
        <time>2018-07-18T13:08:58Z</time>
      </trkpt>
      <trkpt lat="47.77426" lon="-3.60796">
        <ele>10</ele>
        <time>2018-07-18T13:08:59Z</time>
      </trkpt>
      <trkpt lat="47.77428" lon="-3.60792">
        <ele>11</ele>
        <time>2018-07-18T13:09:00Z</time>
      </trkpt>
      <trkpt lat="47.77428" lon="-3.60789">
        <ele>11</ele>
        <time>2018-07-18T13:09:01Z</time>
      </trkpt>
      <trkpt lat="47.7743" lon="-3.60786">
        <ele>11</ele>
        <time>2018-07-18T13:09:02Z</time>
      </trkpt>
      <trkpt lat="47.7743" lon="-3.60783">
        <ele>11</ele>
        <time>2018-07-18T13:09:03Z</time>
      </trkpt>
      <trkpt lat="47.77431" lon="-3.60778">
        <ele>11</ele>
        <time>2018-07-18T13:09:04Z</time>
      </trkpt>
      <trkpt lat="47.77432" lon="-3.60775">
        <ele>11</ele>
        <time>2018-07-18T13:09:05Z</time>
      </trkpt>
      <trkpt lat="47.77433" lon="-3.60773">
        <ele>11</ele>
        <time>2018-07-18T13:09:06Z</time>
      </trkpt>
      <trkpt lat="47.77436" lon="-3.60771">
        <ele>11</ele>
        <time>2018-07-18T13:09:07Z</time>
      </trkpt>
      <trkpt lat="47.77438" lon="-3.60771">
        <ele>11</ele>
        <time>2018-07-18T13:09:08Z</time>
      </trkpt>
      <trkpt lat="47.77439" lon="-3.6077">
        <ele>11</ele>
        <time>2018-07-18T13:09:09Z</time>
      </trkpt>
      <trkpt lat="47.77439" lon="-3.60769">
        <ele>11</ele>
        <time>2018-07-18T13:09:10Z</time>
      </trkpt>
      <trkpt lat="47.7744" lon="-3.60767">
        <ele>11</ele>
        <time>2018-07-18T13:09:11Z</time>
      </trkpt>
      <trkpt lat="47.7744" lon="-3.60764">
        <ele>11</ele>
        <time>2018-07-18T13:09:12Z</time>
      </trkpt>
      <trkpt lat="47.7744" lon="-3.6076">
        <ele>11</ele>
        <time>2018-07-18T13:09:13Z</time>
      </trkpt>
      <trkpt lat="47.7744" lon="-3.60756">
        <ele>11</ele>
        <time>2018-07-18T13:09:14Z</time>
      </trkpt>
      <trkpt lat="47.77441" lon="-3.6075">
        <ele>11</ele>
        <time>2018-07-18T13:09:15Z</time>
      </trkpt>
      <trkpt lat="47.77442" lon="-3.60745">
        <ele>11</ele>
        <time>2018-07-18T13:09:16Z</time>
      </trkpt>
      <trkpt lat="47.77443" lon="-3.6074">
        <ele>11</ele>
        <time>2018-07-18T13:09:17Z</time>
      </trkpt>
      <trkpt lat="47.77444" lon="-3.60734">
        <ele>11</ele>
        <time>2018-07-18T13:09:18Z</time>
      </trkpt>
      <trkpt lat="47.77444" lon="-3.60728">
        <ele>11</ele>
        <time>2018-07-18T13:09:19Z</time>
      </trkpt>
      <trkpt lat="47.77445" lon="-3.60723">
        <ele>11</ele>
        <time>2018-07-18T13:09:20Z</time>
      </trkpt>
      <trkpt lat="47.77445" lon="-3.60719">
        <ele>11</ele>
        <time>2018-07-18T13:09:21Z</time>
      </trkpt>
      <trkpt lat="47.77445" lon="-3.60717">
        <ele>11</ele>
        <time>2018-07-18T13:09:22Z</time>
      </trkpt>
      <trkpt lat="47.77445" lon="-3.60716">
        <ele>10</ele>
        <time>2018-07-18T13:09:23Z</time>
      </trkpt>
      <trkpt lat="47.77445" lon="-3.60715">
        <ele>10</ele>
        <time>2018-07-18T13:09:24Z</time>
      </trkpt>
      <trkpt lat="47.77445" lon="-3.60715">
        <ele>10</ele>
        <time>2018-07-18T13:09:25Z</time>
      </trkpt>
      <trkpt lat="47.77446" lon="-3.60714">
        <ele>10</ele>
        <time>2018-07-18T13:09:26Z</time>
      </trkpt>
      <trkpt lat="47.77446" lon="-3.60711">
        <ele>10</ele>
        <time>2018-07-18T13:09:27Z</time>
      </trkpt>
      <trkpt lat="47.77445" lon="-3.6071">
        <ele>10</ele>
        <time>2018-07-18T13:09:28Z</time>
      </trkpt>
      <trkpt lat="47.77445" lon="-3.60709">
        <ele>10</ele>
        <time>2018-07-18T13:09:29Z</time>
      </trkpt>
      <trkpt lat="47.77445" lon="-3.60708">
        <ele>10</ele>
        <time>2018-07-18T13:09:30Z</time>
      </trkpt>
      <trkpt lat="47.77445" lon="-3.60708">
        <ele>10</ele>
        <time>2018-07-18T13:09:31Z</time>
      </trkpt>
      <trkpt lat="47.77445" lon="-3.60705">
        <ele>10</ele>
        <time>2018-07-18T13:09:32Z</time>
      </trkpt>
      <trkpt lat="47.77446" lon="-3.60698">
        <ele>10</ele>
        <time>2018-07-18T13:09:33Z</time>
      </trkpt>
      <trkpt lat="47.77447" lon="-3.60696">
        <ele>10</ele>
        <time>2018-07-18T13:09:34Z</time>
      </trkpt>
      <trkpt lat="47.77448" lon="-3.60693">
        <ele>10</ele>
        <time>2018-07-18T13:09:35Z</time>
      </trkpt>
      <trkpt lat="47.77448" lon="-3.6069">
        <ele>10</ele>
        <time>2018-07-18T13:09:36Z</time>
      </trkpt>
      <trkpt lat="47.77449" lon="-3.60686">
        <ele>10</ele>
        <time>2018-07-18T13:09:37Z</time>
      </trkpt>
      <trkpt lat="47.7745" lon="-3.60682">
        <ele>10</ele>
        <time>2018-07-18T13:09:38Z</time>
      </trkpt>
      <trkpt lat="47.7745" lon="-3.60677">
        <ele>10</ele>
        <time>2018-07-18T13:09:39Z</time>
      </trkpt>
      <trkpt lat="47.77451" lon="-3.60673">
        <ele>9</ele>
        <time>2018-07-18T13:09:40Z</time>
      </trkpt>
      <trkpt lat="47.77451" lon="-3.60669">
        <ele>9</ele>
        <time>2018-07-18T13:09:41Z</time>
      </trkpt>
      <trkpt lat="47.77453" lon="-3.60664">
        <ele>9</ele>
        <time>2018-07-18T13:09:42Z</time>
      </trkpt>
      <trkpt lat="47.77454" lon="-3.60659">
        <ele>9</ele>
        <time>2018-07-18T13:09:43Z</time>
      </trkpt>
      <trkpt lat="47.77455" lon="-3.60655">
        <ele>9</ele>
        <time>2018-07-18T13:09:44Z</time>
      </trkpt>
      <trkpt lat="47.77457" lon="-3.60651">
        <ele>9</ele>
        <time>2018-07-18T13:09:45Z</time>
      </trkpt>
      <trkpt lat="47.77457" lon="-3.60651">
        <ele>9</ele>
        <time>2018-07-18T13:09:46Z</time>
      </trkpt>
      <trkpt lat="47.77461" lon="-3.60644">
        <ele>9</ele>
        <time>2018-07-18T13:09:47Z</time>
      </trkpt>
      <trkpt lat="47.77463" lon="-3.6064">
        <ele>9</ele>
        <time>2018-07-18T13:09:48Z</time>
      </trkpt>
      <trkpt lat="47.77464" lon="-3.60638">
        <ele>10</ele>
        <time>2018-07-18T13:09:49Z</time>
      </trkpt>
      <trkpt lat="47.77466" lon="-3.60636">
        <ele>10</ele>
        <time>2018-07-18T13:09:50Z</time>
      </trkpt>
      <trkpt lat="47.77466" lon="-3.60636">
        <ele>10</ele>
        <time>2018-07-18T13:09:51Z</time>
      </trkpt>
      <trkpt lat="47.77468" lon="-3.60629">
        <ele>10</ele>
        <time>2018-07-18T13:09:52Z</time>
      </trkpt>
      <trkpt lat="47.77469" lon="-3.60625">
        <ele>10</ele>
        <time>2018-07-18T13:09:53Z</time>
      </trkpt>
      <trkpt lat="47.77472" lon="-3.60621">
        <ele>9</ele>
        <time>2018-07-18T13:09:54Z</time>
      </trkpt>
      <trkpt lat="47.77474" lon="-3.60618">
        <ele>9</ele>
        <time>2018-07-18T13:09:55Z</time>
      </trkpt>
      <trkpt lat="47.77474" lon="-3.60618">
        <ele>9</ele>
        <time>2018-07-18T13:09:56Z</time>
      </trkpt>
      <trkpt lat="47.7748" lon="-3.60615">
        <ele>9</ele>
        <time>2018-07-18T13:09:57Z</time>
      </trkpt>
      <trkpt lat="47.77483" lon="-3.60613">
        <ele>9</ele>
        <time>2018-07-18T13:09:58Z</time>
      </trkpt>
      <trkpt lat="47.77485" lon="-3.6061">
        <ele>9</ele>
        <time>2018-07-18T13:09:59Z</time>
      </trkpt>
      <trkpt lat="47.77489" lon="-3.60607">
        <ele>9</ele>
        <time>2018-07-18T13:10:00Z</time>
      </trkpt>
      <trkpt lat="47.77492" lon="-3.60605">
        <ele>9</ele>
        <time>2018-07-18T13:10:01Z</time>
      </trkpt>
      <trkpt lat="47.77495" lon="-3.60604">
        <ele>9</ele>
        <time>2018-07-18T13:10:02Z</time>
      </trkpt>
      <trkpt lat="47.77498" lon="-3.60602">
        <ele>9</ele>
        <time>2018-07-18T13:10:03Z</time>
      </trkpt>
      <trkpt lat="47.77498" lon="-3.60602">
        <ele>9</ele>
        <time>2018-07-18T13:10:04Z</time>
      </trkpt>
      <trkpt lat="47.77503" lon="-3.60597">
        <ele>8</ele>
        <time>2018-07-18T13:10:05Z</time>
      </trkpt>
      <trkpt lat="47.77506" lon="-3.60594">
        <ele>8</ele>
        <time>2018-07-18T13:10:06Z</time>
      </trkpt>
      <trkpt lat="47.77509" lon="-3.60592">
        <ele>8</ele>
        <time>2018-07-18T13:10:07Z</time>
      </trkpt>
      <trkpt lat="47.77512" lon="-3.60589">
        <ele>8</ele>
        <time>2018-07-18T13:10:08Z</time>
      </trkpt>
      <trkpt lat="47.77515" lon="-3.60587">
        <ele>8</ele>
        <time>2018-07-18T13:10:09Z</time>
      </trkpt>
      <trkpt lat="47.77519" lon="-3.60586">
        <ele>8</ele>
        <time>2018-07-18T13:10:10Z</time>
      </trkpt>
      <trkpt lat="47.77522" lon="-3.60584">
        <ele>8</ele>
        <time>2018-07-18T13:10:11Z</time>
      </trkpt>
      <trkpt lat="47.77524" lon="-3.60583">
        <ele>8</ele>
        <time>2018-07-18T13:10:12Z</time>
      </trkpt>
      <trkpt lat="47.77526" lon="-3.60581">
        <ele>8</ele>
        <time>2018-07-18T13:10:13Z</time>
      </trkpt>
      <trkpt lat="47.77529" lon="-3.6058">
        <ele>8</ele>
        <time>2018-07-18T13:10:14Z</time>
      </trkpt>
      <trkpt lat="47.77531" lon="-3.60578">
        <ele>7</ele>
        <time>2018-07-18T13:10:15Z</time>
      </trkpt>
      <trkpt lat="47.77534" lon="-3.60576">
        <ele>7</ele>
        <time>2018-07-18T13:10:16Z</time>
      </trkpt>
      <trkpt lat="47.77534" lon="-3.60576">
        <ele>7</ele>
        <time>2018-07-18T13:10:17Z</time>
      </trkpt>
      <trkpt lat="47.77538" lon="-3.60574">
        <ele>7</ele>
        <time>2018-07-18T13:10:18Z</time>
      </trkpt>
      <trkpt lat="47.77545" lon="-3.60574">
        <ele>7</ele>
        <time>2018-07-18T13:10:19Z</time>
      </trkpt>
      <trkpt lat="47.77546" lon="-3.60575">
        <ele>7</ele>
        <time>2018-07-18T13:10:20Z</time>
      </trkpt>
      <trkpt lat="47.77548" lon="-3.60575">
        <ele>7</ele>
        <time>2018-07-18T13:10:21Z</time>
      </trkpt>
      <trkpt lat="47.77548" lon="-3.60575">
        <ele>7</ele>
        <time>2018-07-18T13:10:22Z</time>
      </trkpt>
      <trkpt lat="47.77549" lon="-3.60574">
        <ele>7</ele>
        <time>2018-07-18T13:10:23Z</time>
      </trkpt>
      <trkpt lat="47.77554" lon="-3.60572">
        <ele>7</ele>
        <time>2018-07-18T13:10:24Z</time>
      </trkpt>
      <trkpt lat="47.77556" lon="-3.60571">
        <ele>7</ele>
        <time>2018-07-18T13:10:25Z</time>
      </trkpt>
      <trkpt lat="47.77558" lon="-3.60571">
        <ele>7</ele>
        <time>2018-07-18T13:10:26Z</time>
      </trkpt>
      <trkpt lat="47.7756" lon="-3.60572">
        <ele>7</ele>
        <time>2018-07-18T13:10:27Z</time>
      </trkpt>
      <trkpt lat="47.77562" lon="-3.60573">
        <ele>7</ele>
        <time>2018-07-18T13:10:28Z</time>
      </trkpt>
      <trkpt lat="47.77564" lon="-3.60574">
        <ele>7</ele>
        <time>2018-07-18T13:10:29Z</time>
      </trkpt>
      <trkpt lat="47.77566" lon="-3.60575">
        <ele>7</ele>
        <time>2018-07-18T13:10:30Z</time>
      </trkpt>
      <trkpt lat="47.77568" lon="-3.60576">
        <ele>7</ele>
        <time>2018-07-18T13:10:31Z</time>
      </trkpt>
      <trkpt lat="47.77569" lon="-3.60576">
        <ele>7</ele>
        <time>2018-07-18T13:10:32Z</time>
      </trkpt>
      <trkpt lat="47.77571" lon="-3.60577">
        <ele>7</ele>
        <time>2018-07-18T13:10:33Z</time>
      </trkpt>
      <trkpt lat="47.77573" lon="-3.60579">
        <ele>7</ele>
        <time>2018-07-18T13:10:34Z</time>
      </trkpt>
      <trkpt lat="47.77575" lon="-3.6058">
        <ele>7</ele>
        <time>2018-07-18T13:10:35Z</time>
      </trkpt>
      <trkpt lat="47.77576" lon="-3.60581">
        <ele>7</ele>
        <time>2018-07-18T13:10:36Z</time>
      </trkpt>
      <trkpt lat="47.77576" lon="-3.60581">
        <ele>7</ele>
        <time>2018-07-18T13:10:37Z</time>
      </trkpt>
      <trkpt lat="47.77579" lon="-3.60583">
        <ele>7</ele>
        <time>2018-07-18T13:10:38Z</time>
      </trkpt>
      <trkpt lat="47.77581" lon="-3.60585">
        <ele>6</ele>
        <time>2018-07-18T13:10:39Z</time>
      </trkpt>
      <trkpt lat="47.77583" lon="-3.60588">
        <ele>6</ele>
        <time>2018-07-18T13:10:40Z</time>
      </trkpt>
      <trkpt lat="47.77586" lon="-3.60592">
        <ele>6</ele>
        <time>2018-07-18T13:10:41Z</time>
      </trkpt>
      <trkpt lat="47.77586" lon="-3.60592">
        <ele>6</ele>
        <time>2018-07-18T13:10:42Z</time>
      </trkpt>
      <trkpt lat="47.7759" lon="-3.60595">
        <ele>6</ele>
        <time>2018-07-18T13:10:43Z</time>
      </trkpt>
      <trkpt lat="47.77592" lon="-3.60596">
        <ele>6</ele>
        <time>2018-07-18T13:10:44Z</time>
      </trkpt>
      <trkpt lat="47.77593" lon="-3.60597">
        <ele>6</ele>
        <time>2018-07-18T13:10:45Z</time>
      </trkpt>
      <trkpt lat="47.77594" lon="-3.60597">
        <ele>6</ele>
        <time>2018-07-18T13:10:46Z</time>
      </trkpt>
      <trkpt lat="47.77594" lon="-3.60597">
        <ele>6</ele>
        <time>2018-07-18T13:10:47Z</time>
      </trkpt>
      <trkpt lat="47.77595" lon="-3.60597">
        <ele>6</ele>
        <time>2018-07-18T13:10:48Z</time>
      </trkpt>
      <trkpt lat="47.77596" lon="-3.60596">
        <ele>6</ele>
        <time>2018-07-18T13:10:49Z</time>
      </trkpt>
      <trkpt lat="47.77598" lon="-3.60595">
        <ele>6</ele>
        <time>2018-07-18T13:10:50Z</time>
      </trkpt>
      <trkpt lat="47.77599" lon="-3.60593">
        <ele>6</ele>
        <time>2018-07-18T13:10:51Z</time>
      </trkpt>
      <trkpt lat="47.776" lon="-3.60591">
        <ele>6</ele>
        <time>2018-07-18T13:10:52Z</time>
      </trkpt>
      <trkpt lat="47.77601" lon="-3.60589">
        <ele>6</ele>
        <time>2018-07-18T13:10:53Z</time>
      </trkpt>
      <trkpt lat="47.77602" lon="-3.60587">
        <ele>6</ele>
        <time>2018-07-18T13:10:54Z</time>
      </trkpt>
      <trkpt lat="47.77604" lon="-3.60585">
        <ele>6</ele>
        <time>2018-07-18T13:10:55Z</time>
      </trkpt>
      <trkpt lat="47.77604" lon="-3.60585">
        <ele>6</ele>
        <time>2018-07-18T13:10:56Z</time>
      </trkpt>
      <trkpt lat="47.77607" lon="-3.60579">
        <ele>7</ele>
        <time>2018-07-18T13:10:57Z</time>
      </trkpt>
      <trkpt lat="47.77609" lon="-3.60577">
        <ele>7</ele>
        <time>2018-07-18T13:10:58Z</time>
      </trkpt>
      <trkpt lat="47.77611" lon="-3.60576">
        <ele>7</ele>
        <time>2018-07-18T13:10:59Z</time>
      </trkpt>
      <trkpt lat="47.77613" lon="-3.60574">
        <ele>7</ele>
        <time>2018-07-18T13:11:00Z</time>
      </trkpt>
      <trkpt lat="47.77616" lon="-3.60573">
        <ele>7</ele>
        <time>2018-07-18T13:11:01Z</time>
      </trkpt>
      <trkpt lat="47.77618" lon="-3.60571">
        <ele>7</ele>
        <time>2018-07-18T13:11:02Z</time>
      </trkpt>
      <trkpt lat="47.77621" lon="-3.6057">
        <ele>7</ele>
        <time>2018-07-18T13:11:03Z</time>
      </trkpt>
      <trkpt lat="47.77624" lon="-3.60569">
        <ele>7</ele>
        <time>2018-07-18T13:11:04Z</time>
      </trkpt>
      <trkpt lat="47.77627" lon="-3.60568">
        <ele>7</ele>
        <time>2018-07-18T13:11:05Z</time>
      </trkpt>
      <trkpt lat="47.7763" lon="-3.60567">
        <ele>6</ele>
        <time>2018-07-18T13:11:06Z</time>
      </trkpt>
      <trkpt lat="47.77634" lon="-3.60567">
        <ele>6</ele>
        <time>2018-07-18T13:11:07Z</time>
      </trkpt>
      <trkpt lat="47.77634" lon="-3.60567">
        <ele>6</ele>
        <time>2018-07-18T13:11:08Z</time>
      </trkpt>
      <trkpt lat="47.77637" lon="-3.60567">
        <ele>6</ele>
        <time>2018-07-18T13:11:09Z</time>
      </trkpt>
      <trkpt lat="47.77642" lon="-3.6057">
        <ele>6</ele>
        <time>2018-07-18T13:11:10Z</time>
      </trkpt>
      <trkpt lat="47.77644" lon="-3.60573">
        <ele>6</ele>
        <time>2018-07-18T13:11:11Z</time>
      </trkpt>
      <trkpt lat="47.77644" lon="-3.60573">
        <ele>6</ele>
        <time>2018-07-18T13:11:12Z</time>
      </trkpt>
      <trkpt lat="47.77647" lon="-3.60575">
        <ele>6</ele>
        <time>2018-07-18T13:11:13Z</time>
      </trkpt>
      <trkpt lat="47.77652" lon="-3.6058">
        <ele>6</ele>
        <time>2018-07-18T13:11:14Z</time>
      </trkpt>
      <trkpt lat="47.77654" lon="-3.60582">
        <ele>6</ele>
        <time>2018-07-18T13:11:15Z</time>
      </trkpt>
      <trkpt lat="47.77656" lon="-3.60584">
        <ele>6</ele>
        <time>2018-07-18T13:11:16Z</time>
      </trkpt>
      <trkpt lat="47.77659" lon="-3.60586">
        <ele>6</ele>
        <time>2018-07-18T13:11:17Z</time>
      </trkpt>
      <trkpt lat="47.77661" lon="-3.60587">
        <ele>6</ele>
        <time>2018-07-18T13:11:18Z</time>
      </trkpt>
      <trkpt lat="47.77663" lon="-3.60589">
        <ele>6</ele>
        <time>2018-07-18T13:11:19Z</time>
      </trkpt>
      <trkpt lat="47.77665" lon="-3.60588">
        <ele>6</ele>
        <time>2018-07-18T13:11:20Z</time>
      </trkpt>
      <trkpt lat="47.77668" lon="-3.60586">
        <ele>7</ele>
        <time>2018-07-18T13:11:21Z</time>
      </trkpt>
      <trkpt lat="47.7767" lon="-3.60583">
        <ele>7</ele>
        <time>2018-07-18T13:11:22Z</time>
      </trkpt>
      <trkpt lat="47.77672" lon="-3.60578">
        <ele>7</ele>
        <time>2018-07-18T13:11:23Z</time>
      </trkpt>
      <trkpt lat="47.77674" lon="-3.60575">
        <ele>7</ele>
        <time>2018-07-18T13:11:24Z</time>
      </trkpt>
      <trkpt lat="47.77675" lon="-3.60573">
        <ele>7</ele>
        <time>2018-07-18T13:11:25Z</time>
      </trkpt>
      <trkpt lat="47.77676" lon="-3.60571">
        <ele>7</ele>
        <time>2018-07-18T13:11:26Z</time>
      </trkpt>
      <trkpt lat="47.77676" lon="-3.60571">
        <ele>7</ele>
        <time>2018-07-18T13:11:27Z</time>
      </trkpt>
      <trkpt lat="47.7768" lon="-3.60566">
        <ele>8</ele>
        <time>2018-07-18T13:11:28Z</time>
      </trkpt>
      <trkpt lat="47.77683" lon="-3.60563">
        <ele>8</ele>
        <time>2018-07-18T13:11:29Z</time>
      </trkpt>
      <trkpt lat="47.77684" lon="-3.6056">
        <ele>8</ele>
        <time>2018-07-18T13:11:30Z</time>
      </trkpt>
      <trkpt lat="47.77686" lon="-3.60558">
        <ele>8</ele>
        <time>2018-07-18T13:11:31Z</time>
      </trkpt>
      <trkpt lat="47.77688" lon="-3.60556">
        <ele>8</ele>
        <time>2018-07-18T13:11:32Z</time>
      </trkpt>
      <trkpt lat="47.77688" lon="-3.60556">
        <ele>8</ele>
        <time>2018-07-18T13:11:33Z</time>
      </trkpt>
      <trkpt lat="47.77695" lon="-3.60551">
        <ele>8</ele>
        <time>2018-07-18T13:11:34Z</time>
      </trkpt>
      <trkpt lat="47.77698" lon="-3.60549">
        <ele>8</ele>
        <time>2018-07-18T13:11:35Z</time>
      </trkpt>
      <trkpt lat="47.777" lon="-3.60548">
        <ele>8</ele>
        <time>2018-07-18T13:11:36Z</time>
      </trkpt>
      <trkpt lat="47.77704" lon="-3.60548">
        <ele>7</ele>
        <time>2018-07-18T13:11:37Z</time>
      </trkpt>
      <trkpt lat="47.77707" lon="-3.60547">
        <ele>7</ele>
        <time>2018-07-18T13:11:38Z</time>
      </trkpt>
      <trkpt lat="47.77707" lon="-3.60547">
        <ele>7</ele>
        <time>2018-07-18T13:11:39Z</time>
      </trkpt>
      <trkpt lat="47.77713" lon="-3.60545">
        <ele>7</ele>
        <time>2018-07-18T13:11:40Z</time>
      </trkpt>
      <trkpt lat="47.77715" lon="-3.60543">
        <ele>7</ele>
        <time>2018-07-18T13:11:41Z</time>
      </trkpt>
      <trkpt lat="47.77717" lon="-3.6054">
        <ele>7</ele>
        <time>2018-07-18T13:11:42Z</time>
      </trkpt>
      <trkpt lat="47.77719" lon="-3.60538">
        <ele>7</ele>
        <time>2018-07-18T13:11:43Z</time>
      </trkpt>
      <trkpt lat="47.7772" lon="-3.60533">
        <ele>7</ele>
        <time>2018-07-18T13:11:44Z</time>
      </trkpt>
      <trkpt lat="47.77722" lon="-3.60526">
        <ele>7</ele>
        <time>2018-07-18T13:11:45Z</time>
      </trkpt>
      <trkpt lat="47.77723" lon="-3.60519">
        <ele>6</ele>
        <time>2018-07-18T13:11:46Z</time>
      </trkpt>
      <trkpt lat="47.77723" lon="-3.60519">
        <ele>6</ele>
        <time>2018-07-18T13:11:47Z</time>
      </trkpt>
      <trkpt lat="47.77727" lon="-3.60505">
        <ele>6</ele>
        <time>2018-07-18T13:11:48Z</time>
      </trkpt>
      <trkpt lat="47.77729" lon="-3.60497">
        <ele>6</ele>
        <time>2018-07-18T13:11:49Z</time>
      </trkpt>
      <trkpt lat="47.7773" lon="-3.60491">
        <ele>6</ele>
        <time>2018-07-18T13:11:50Z</time>
      </trkpt>
      <trkpt lat="47.77732" lon="-3.60485">
        <ele>6</ele>
        <time>2018-07-18T13:11:51Z</time>
      </trkpt>
      <trkpt lat="47.77733" lon="-3.6048">
        <ele>6</ele>
        <time>2018-07-18T13:11:52Z</time>
      </trkpt>
      <trkpt lat="47.77734" lon="-3.60475">
        <ele>6</ele>
        <time>2018-07-18T13:11:53Z</time>
      </trkpt>
      <trkpt lat="47.77736" lon="-3.6047">
        <ele>6</ele>
        <time>2018-07-18T13:11:54Z</time>
      </trkpt>
      <trkpt lat="47.77738" lon="-3.60466">
        <ele>6</ele>
        <time>2018-07-18T13:11:55Z</time>
      </trkpt>
      <trkpt lat="47.77739" lon="-3.60462">
        <ele>6</ele>
        <time>2018-07-18T13:11:56Z</time>
      </trkpt>
      <trkpt lat="47.77741" lon="-3.60458">
        <ele>6</ele>
        <time>2018-07-18T13:11:57Z</time>
      </trkpt>
      <trkpt lat="47.7774" lon="-3.60455">
        <ele>6</ele>
        <time>2018-07-18T13:11:58Z</time>
      </trkpt>
      <trkpt lat="47.7774" lon="-3.60455">
        <ele>6</ele>
        <time>2018-07-18T13:11:59Z</time>
      </trkpt>
      <trkpt lat="47.77738" lon="-3.60453">
        <ele>5</ele>
        <time>2018-07-18T13:12:00Z</time>
      </trkpt>
      <trkpt lat="47.77732" lon="-3.60447">
        <ele>5</ele>
        <time>2018-07-18T13:12:01Z</time>
      </trkpt>
      <trkpt lat="47.77729" lon="-3.60444">
        <ele>5</ele>
        <time>2018-07-18T13:12:02Z</time>
      </trkpt>
      <trkpt lat="47.77729" lon="-3.60444">
        <ele>5</ele>
        <time>2018-07-18T13:12:03Z</time>
      </trkpt>
      <trkpt lat="47.77726" lon="-3.60441">
        <ele>5</ele>
        <time>2018-07-18T13:12:04Z</time>
      </trkpt>
      <trkpt lat="47.77719" lon="-3.60435">
        <ele>5</ele>
        <time>2018-07-18T13:12:05Z</time>
      </trkpt>
      <trkpt lat="47.77716" lon="-3.60433">
        <ele>4</ele>
        <time>2018-07-18T13:12:06Z</time>
      </trkpt>
      <trkpt lat="47.77713" lon="-3.6043">
        <ele>4</ele>
        <time>2018-07-18T13:12:07Z</time>
      </trkpt>
      <trkpt lat="47.77709" lon="-3.60427">
        <ele>4</ele>
        <time>2018-07-18T13:12:08Z</time>
      </trkpt>
      <trkpt lat="47.77705" lon="-3.60425">
        <ele>4</ele>
        <time>2018-07-18T13:12:09Z</time>
      </trkpt>
      <trkpt lat="47.77701" lon="-3.60422">
        <ele>4</ele>
        <time>2018-07-18T13:12:10Z</time>
      </trkpt>
      <trkpt lat="47.77698" lon="-3.60419">
        <ele>4</ele>
        <time>2018-07-18T13:12:11Z</time>
      </trkpt>
      <trkpt lat="47.77694" lon="-3.60416">
        <ele>4</ele>
        <time>2018-07-18T13:12:12Z</time>
      </trkpt>
      <trkpt lat="47.7769" lon="-3.60413">
        <ele>4</ele>
        <time>2018-07-18T13:12:13Z</time>
      </trkpt>
      <trkpt lat="47.77687" lon="-3.60411">
        <ele>4</ele>
        <time>2018-07-18T13:12:14Z</time>
      </trkpt>
      <trkpt lat="47.77683" lon="-3.60408">
        <ele>4</ele>
        <time>2018-07-18T13:12:15Z</time>
      </trkpt>
      <trkpt lat="47.77679" lon="-3.60405">
        <ele>4</ele>
        <time>2018-07-18T13:12:16Z</time>
      </trkpt>
      <trkpt lat="47.77676" lon="-3.60402">
        <ele>4</ele>
        <time>2018-07-18T13:12:17Z</time>
      </trkpt>
      <trkpt lat="47.77676" lon="-3.60402">
        <ele>4</ele>
        <time>2018-07-18T13:12:18Z</time>
      </trkpt>
      <trkpt lat="47.77669" lon="-3.60396">
        <ele>4</ele>
        <time>2018-07-18T13:12:19Z</time>
      </trkpt>
      <trkpt lat="47.77665" lon="-3.60394">
        <ele>4</ele>
        <time>2018-07-18T13:12:20Z</time>
      </trkpt>
      <trkpt lat="47.77662" lon="-3.60391">
        <ele>4</ele>
        <time>2018-07-18T13:12:21Z</time>
      </trkpt>
      <trkpt lat="47.77659" lon="-3.60389">
        <ele>5</ele>
        <time>2018-07-18T13:12:22Z</time>
      </trkpt>
      <trkpt lat="47.77656" lon="-3.60386">
        <ele>5</ele>
        <time>2018-07-18T13:12:23Z</time>
      </trkpt>
      <trkpt lat="47.77656" lon="-3.60386">
        <ele>5</ele>
        <time>2018-07-18T13:12:24Z</time>
      </trkpt>
      <trkpt lat="47.77651" lon="-3.6038">
        <ele>5</ele>
        <time>2018-07-18T13:12:25Z</time>
      </trkpt>
      <trkpt lat="47.77649" lon="-3.60378">
        <ele>6</ele>
        <time>2018-07-18T13:12:26Z</time>
      </trkpt>
      <trkpt lat="47.77647" lon="-3.60377">
        <ele>6</ele>
        <time>2018-07-18T13:12:27Z</time>
      </trkpt>
      <trkpt lat="47.77645" lon="-3.60377">
        <ele>6</ele>
        <time>2018-07-18T13:12:28Z</time>
      </trkpt>
      <trkpt lat="47.77644" lon="-3.60378">
        <ele>6</ele>
        <time>2018-07-18T13:12:29Z</time>
      </trkpt>
      <trkpt lat="47.77642" lon="-3.60379">
        <ele>6</ele>
        <time>2018-07-18T13:12:30Z</time>
      </trkpt>
      <trkpt lat="47.77642" lon="-3.60379">
        <ele>6</ele>
        <time>2018-07-18T13:12:31Z</time>
      </trkpt>
      <trkpt lat="47.7764" lon="-3.60379">
        <ele>6</ele>
        <time>2018-07-18T13:12:32Z</time>
      </trkpt>
      <trkpt lat="47.7764" lon="-3.60379">
        <ele>6</ele>
        <time>2018-07-18T13:12:33Z</time>
      </trkpt>
      <trkpt lat="47.7764" lon="-3.60379">
        <ele>6</ele>
        <time>2018-07-18T13:12:34Z</time>
      </trkpt>
      <trkpt lat="47.7764" lon="-3.60379">
        <ele>6</ele>
        <time>2018-07-18T13:12:35Z</time>
      </trkpt>
      <trkpt lat="47.77638" lon="-3.60378">
        <ele>6</ele>
        <time>2018-07-18T13:12:36Z</time>
      </trkpt>
      <trkpt lat="47.77637" lon="-3.60377">
        <ele>6</ele>
        <time>2018-07-18T13:12:37Z</time>
      </trkpt>
      <trkpt lat="47.77635" lon="-3.60375">
        <ele>7</ele>
        <time>2018-07-18T13:12:38Z</time>
      </trkpt>
      <trkpt lat="47.77634" lon="-3.60375">
        <ele>7</ele>
        <time>2018-07-18T13:12:39Z</time>
      </trkpt>
      <trkpt lat="47.77631" lon="-3.60375">
        <ele>7</ele>
        <time>2018-07-18T13:12:40Z</time>
      </trkpt>
      <trkpt lat="47.77628" lon="-3.60375">
        <ele>7</ele>
        <time>2018-07-18T13:12:41Z</time>
      </trkpt>
      <trkpt lat="47.77626" lon="-3.60374">
        <ele>7</ele>
        <time>2018-07-18T13:12:42Z</time>
      </trkpt>
      <trkpt lat="47.77622" lon="-3.60373">
        <ele>7</ele>
        <time>2018-07-18T13:12:43Z</time>
      </trkpt>
      <trkpt lat="47.77619" lon="-3.60373">
        <ele>7</ele>
        <time>2018-07-18T13:12:44Z</time>
      </trkpt>
      <trkpt lat="47.77616" lon="-3.60373">
        <ele>7</ele>
        <time>2018-07-18T13:12:45Z</time>
      </trkpt>
      <trkpt lat="47.77612" lon="-3.60373">
        <ele>7</ele>
        <time>2018-07-18T13:12:46Z</time>
      </trkpt>
      <trkpt lat="47.77608" lon="-3.60372">
        <ele>7</ele>
        <time>2018-07-18T13:12:47Z</time>
      </trkpt>
      <trkpt lat="47.77604" lon="-3.60372">
        <ele>7</ele>
        <time>2018-07-18T13:12:48Z</time>
      </trkpt>
      <trkpt lat="47.776" lon="-3.60373">
        <ele>7</ele>
        <time>2018-07-18T13:12:49Z</time>
      </trkpt>
      <trkpt lat="47.77596" lon="-3.60373">
        <ele>7</ele>
        <time>2018-07-18T13:12:50Z</time>
      </trkpt>
      <trkpt lat="47.77592" lon="-3.60373">
        <ele>7</ele>
        <time>2018-07-18T13:12:51Z</time>
      </trkpt>
      <trkpt lat="47.77588" lon="-3.60374">
        <ele>7</ele>
        <time>2018-07-18T13:12:52Z</time>
      </trkpt>
      <trkpt lat="47.77584" lon="-3.60374">
        <ele>7</ele>
        <time>2018-07-18T13:12:53Z</time>
      </trkpt>
      <trkpt lat="47.7758" lon="-3.60375">
        <ele>7</ele>
        <time>2018-07-18T13:12:54Z</time>
      </trkpt>
      <trkpt lat="47.77577" lon="-3.60376">
        <ele>7</ele>
        <time>2018-07-18T13:12:55Z</time>
      </trkpt>
      <trkpt lat="47.77574" lon="-3.60378">
        <ele>7</ele>
        <time>2018-07-18T13:12:56Z</time>
      </trkpt>
      <trkpt lat="47.77571" lon="-3.6038">
        <ele>7</ele>
        <time>2018-07-18T13:12:57Z</time>
      </trkpt>
      <trkpt lat="47.77569" lon="-3.60381">
        <ele>7</ele>
        <time>2018-07-18T13:12:58Z</time>
      </trkpt>
      <trkpt lat="47.77565" lon="-3.60383">
        <ele>7</ele>
        <time>2018-07-18T13:12:59Z</time>
      </trkpt>
      <trkpt lat="47.77562" lon="-3.60385">
        <ele>7</ele>
        <time>2018-07-18T13:13:00Z</time>
      </trkpt>
      <trkpt lat="47.77559" lon="-3.60388">
        <ele>7</ele>
        <time>2018-07-18T13:13:01Z</time>
      </trkpt>
      <trkpt lat="47.77556" lon="-3.60392">
        <ele>7</ele>
        <time>2018-07-18T13:13:02Z</time>
      </trkpt>
      <trkpt lat="47.77553" lon="-3.60396">
        <ele>7</ele>
        <time>2018-07-18T13:13:03Z</time>
      </trkpt>
      <trkpt lat="47.77551" lon="-3.604">
        <ele>7</ele>
        <time>2018-07-18T13:13:04Z</time>
      </trkpt>
      <trkpt lat="47.77548" lon="-3.60405">
        <ele>7</ele>
        <time>2018-07-18T13:13:05Z</time>
      </trkpt>
      <trkpt lat="47.77546" lon="-3.60409">
        <ele>7</ele>
        <time>2018-07-18T13:13:06Z</time>
      </trkpt>
      <trkpt lat="47.77543" lon="-3.60414">
        <ele>7</ele>
        <time>2018-07-18T13:13:07Z</time>
      </trkpt>
      <trkpt lat="47.77541" lon="-3.60419">
        <ele>8</ele>
        <time>2018-07-18T13:13:08Z</time>
      </trkpt>
      <trkpt lat="47.77539" lon="-3.60424">
        <ele>8</ele>
        <time>2018-07-18T13:13:09Z</time>
      </trkpt>
      <trkpt lat="47.77536" lon="-3.60429">
        <ele>8</ele>
        <time>2018-07-18T13:13:10Z</time>
      </trkpt>
      <trkpt lat="47.77533" lon="-3.60434">
        <ele>8</ele>
        <time>2018-07-18T13:13:11Z</time>
      </trkpt>
      <trkpt lat="47.7753" lon="-3.60439">
        <ele>8</ele>
        <time>2018-07-18T13:13:12Z</time>
      </trkpt>
      <trkpt lat="47.77526" lon="-3.60443">
        <ele>8</ele>
        <time>2018-07-18T13:13:13Z</time>
      </trkpt>
      <trkpt lat="47.77522" lon="-3.60448">
        <ele>8</ele>
        <time>2018-07-18T13:13:14Z</time>
      </trkpt>
      <trkpt lat="47.77517" lon="-3.60452">
        <ele>8</ele>
        <time>2018-07-18T13:13:15Z</time>
      </trkpt>
      <trkpt lat="47.77513" lon="-3.60457">
        <ele>7</ele>
        <time>2018-07-18T13:13:16Z</time>
      </trkpt>
      <trkpt lat="47.77507" lon="-3.6046">
        <ele>7</ele>
        <time>2018-07-18T13:13:17Z</time>
      </trkpt>
      <trkpt lat="47.77502" lon="-3.60464">
        <ele>7</ele>
        <time>2018-07-18T13:13:18Z</time>
      </trkpt>
      <trkpt lat="47.77497" lon="-3.60467">
        <ele>6</ele>
        <time>2018-07-18T13:13:19Z</time>
      </trkpt>
      <trkpt lat="47.77492" lon="-3.60471">
        <ele>6</ele>
        <time>2018-07-18T13:13:20Z</time>
      </trkpt>
      <trkpt lat="47.77487" lon="-3.60473">
        <ele>6</ele>
        <time>2018-07-18T13:13:21Z</time>
      </trkpt>
      <trkpt lat="47.77481" lon="-3.60475">
        <ele>6</ele>
        <time>2018-07-18T13:13:22Z</time>
      </trkpt>
      <trkpt lat="47.77476" lon="-3.60477">
        <ele>5</ele>
        <time>2018-07-18T13:13:23Z</time>
      </trkpt>
      <trkpt lat="47.77471" lon="-3.60478">
        <ele>5</ele>
        <time>2018-07-18T13:13:24Z</time>
      </trkpt>
      <trkpt lat="47.77467" lon="-3.6048">
        <ele>5</ele>
        <time>2018-07-18T13:13:25Z</time>
      </trkpt>
      <trkpt lat="47.77462" lon="-3.60481">
        <ele>5</ele>
        <time>2018-07-18T13:13:26Z</time>
      </trkpt>
      <trkpt lat="47.77458" lon="-3.60483">
        <ele>5</ele>
        <time>2018-07-18T13:13:27Z</time>
      </trkpt>
      <trkpt lat="47.77454" lon="-3.60484">
        <ele>5</ele>
        <time>2018-07-18T13:13:28Z</time>
      </trkpt>
      <trkpt lat="47.7745" lon="-3.60486">
        <ele>5</ele>
        <time>2018-07-18T13:13:29Z</time>
      </trkpt>
      <trkpt lat="47.77447" lon="-3.60488">
        <ele>5</ele>
        <time>2018-07-18T13:13:30Z</time>
      </trkpt>
      <trkpt lat="47.77444" lon="-3.60491">
        <ele>5</ele>
        <time>2018-07-18T13:13:31Z</time>
      </trkpt>
      <trkpt lat="47.77442" lon="-3.60494">
        <ele>5</ele>
        <time>2018-07-18T13:13:32Z</time>
      </trkpt>
      <trkpt lat="47.7744" lon="-3.60496">
        <ele>4</ele>
        <time>2018-07-18T13:13:33Z</time>
      </trkpt>
      <trkpt lat="47.77438" lon="-3.60498">
        <ele>4</ele>
        <time>2018-07-18T13:13:34Z</time>
      </trkpt>
      <trkpt lat="47.77437" lon="-3.60501">
        <ele>4</ele>
        <time>2018-07-18T13:13:35Z</time>
      </trkpt>
      <trkpt lat="47.77435" lon="-3.60504">
        <ele>5</ele>
        <time>2018-07-18T13:13:36Z</time>
      </trkpt>
      <trkpt lat="47.77433" lon="-3.60508">
        <ele>5</ele>
        <time>2018-07-18T13:13:37Z</time>
      </trkpt>
      <trkpt lat="47.77431" lon="-3.60513">
        <ele>5</ele>
        <time>2018-07-18T13:13:38Z</time>
      </trkpt>
      <trkpt lat="47.7743" lon="-3.60517">
        <ele>5</ele>
        <time>2018-07-18T13:13:39Z</time>
      </trkpt>
      <trkpt lat="47.77428" lon="-3.60523">
        <ele>5</ele>
        <time>2018-07-18T13:13:40Z</time>
      </trkpt>
      <trkpt lat="47.77427" lon="-3.60528">
        <ele>5</ele>
        <time>2018-07-18T13:13:41Z</time>
      </trkpt>
      <trkpt lat="47.77425" lon="-3.60534">
        <ele>5</ele>
        <time>2018-07-18T13:13:42Z</time>
      </trkpt>
      <trkpt lat="47.77424" lon="-3.60539">
        <ele>5</ele>
        <time>2018-07-18T13:13:43Z</time>
      </trkpt>
      <trkpt lat="47.77422" lon="-3.60545">
        <ele>5</ele>
        <time>2018-07-18T13:13:44Z</time>
      </trkpt>
      <trkpt lat="47.77421" lon="-3.6055">
        <ele>5</ele>
        <time>2018-07-18T13:13:45Z</time>
      </trkpt>
      <trkpt lat="47.77419" lon="-3.60556">
        <ele>5</ele>
        <time>2018-07-18T13:13:46Z</time>
      </trkpt>
      <trkpt lat="47.77417" lon="-3.60561">
        <ele>5</ele>
        <time>2018-07-18T13:13:47Z</time>
      </trkpt>
      <trkpt lat="47.77415" lon="-3.60567">
        <ele>5</ele>
        <time>2018-07-18T13:13:48Z</time>
      </trkpt>
      <trkpt lat="47.77412" lon="-3.60573">
        <ele>5</ele>
        <time>2018-07-18T13:13:49Z</time>
      </trkpt>
      <trkpt lat="47.7741" lon="-3.60578">
        <ele>5</ele>
        <time>2018-07-18T13:13:50Z</time>
      </trkpt>
      <trkpt lat="47.77408" lon="-3.60584">
        <ele>5</ele>
        <time>2018-07-18T13:13:51Z</time>
      </trkpt>
      <trkpt lat="47.77405" lon="-3.6059">
        <ele>5</ele>
        <time>2018-07-18T13:13:52Z</time>
      </trkpt>
      <trkpt lat="47.77403" lon="-3.60596">
        <ele>5</ele>
        <time>2018-07-18T13:13:53Z</time>
      </trkpt>
      <trkpt lat="47.77401" lon="-3.60601">
        <ele>5</ele>
        <time>2018-07-18T13:13:54Z</time>
      </trkpt>
      <trkpt lat="47.77399" lon="-3.60607">
        <ele>5</ele>
        <time>2018-07-18T13:13:55Z</time>
      </trkpt>
      <trkpt lat="47.77397" lon="-3.60613">
        <ele>6</ele>
        <time>2018-07-18T13:13:56Z</time>
      </trkpt>
      <trkpt lat="47.77395" lon="-3.60619">
        <ele>6</ele>
        <time>2018-07-18T13:13:57Z</time>
      </trkpt>
      <trkpt lat="47.77394" lon="-3.60626">
        <ele>6</ele>
        <time>2018-07-18T13:13:58Z</time>
      </trkpt>
      <trkpt lat="47.77392" lon="-3.60632">
        <ele>6</ele>
        <time>2018-07-18T13:13:59Z</time>
      </trkpt>
      <trkpt lat="47.77391" lon="-3.60639">
        <ele>6</ele>
        <time>2018-07-18T13:14:00Z</time>
      </trkpt>
      <trkpt lat="47.77389" lon="-3.60646">
        <ele>6</ele>
        <time>2018-07-18T13:14:01Z</time>
      </trkpt>
      <trkpt lat="47.77388" lon="-3.60653">
        <ele>6</ele>
        <time>2018-07-18T13:14:02Z</time>
      </trkpt>
      <trkpt lat="47.77387" lon="-3.60659">
        <ele>6</ele>
        <time>2018-07-18T13:14:03Z</time>
      </trkpt>
      <trkpt lat="47.77386" lon="-3.60666">
        <ele>6</ele>
        <time>2018-07-18T13:14:04Z</time>
      </trkpt>
      <trkpt lat="47.77384" lon="-3.60673">
        <ele>6</ele>
        <time>2018-07-18T13:14:05Z</time>
      </trkpt>
      <trkpt lat="47.77383" lon="-3.6068">
        <ele>6</ele>
        <time>2018-07-18T13:14:06Z</time>
      </trkpt>
      <trkpt lat="47.77382" lon="-3.60687">
        <ele>6</ele>
        <time>2018-07-18T13:14:07Z</time>
      </trkpt>
      <trkpt lat="47.77381" lon="-3.60693">
        <ele>6</ele>
        <time>2018-07-18T13:14:08Z</time>
      </trkpt>
      <trkpt lat="47.77379" lon="-3.607">
        <ele>6</ele>
        <time>2018-07-18T13:14:09Z</time>
      </trkpt>
      <trkpt lat="47.77378" lon="-3.60707">
        <ele>6</ele>
        <time>2018-07-18T13:14:10Z</time>
      </trkpt>
      <trkpt lat="47.77377" lon="-3.60714">
        <ele>6</ele>
        <time>2018-07-18T13:14:11Z</time>
      </trkpt>
      <trkpt lat="47.77375" lon="-3.6072">
        <ele>6</ele>
        <time>2018-07-18T13:14:12Z</time>
      </trkpt>
      <trkpt lat="47.77374" lon="-3.60727">
        <ele>6</ele>
        <time>2018-07-18T13:14:13Z</time>
      </trkpt>
      <trkpt lat="47.77372" lon="-3.60733">
        <ele>6</ele>
        <time>2018-07-18T13:14:14Z</time>
      </trkpt>
      <trkpt lat="47.7737" lon="-3.60739">
        <ele>6</ele>
        <time>2018-07-18T13:14:15Z</time>
      </trkpt>
      <trkpt lat="47.77368" lon="-3.60745">
        <ele>7</ele>
        <time>2018-07-18T13:14:16Z</time>
      </trkpt>
      <trkpt lat="47.77366" lon="-3.6075">
        <ele>7</ele>
        <time>2018-07-18T13:14:17Z</time>
      </trkpt>
      <trkpt lat="47.77364" lon="-3.60756">
        <ele>7</ele>
        <time>2018-07-18T13:14:18Z</time>
      </trkpt>
      <trkpt lat="47.77361" lon="-3.60761">
        <ele>7</ele>
        <time>2018-07-18T13:14:19Z</time>
      </trkpt>
      <trkpt lat="47.77358" lon="-3.60766">
        <ele>7</ele>
        <time>2018-07-18T13:14:20Z</time>
      </trkpt>
      <trkpt lat="47.77354" lon="-3.6077">
        <ele>7</ele>
        <time>2018-07-18T13:14:21Z</time>
      </trkpt>
      <trkpt lat="47.7735" lon="-3.60775">
        <ele>7</ele>
        <time>2018-07-18T13:14:22Z</time>
      </trkpt>
      <trkpt lat="47.77346" lon="-3.60778">
        <ele>7</ele>
        <time>2018-07-18T13:14:23Z</time>
      </trkpt>
      <trkpt lat="47.77342" lon="-3.60782">
        <ele>7</ele>
        <time>2018-07-18T13:14:24Z</time>
      </trkpt>
      <trkpt lat="47.77338" lon="-3.60784">
        <ele>7</ele>
        <time>2018-07-18T13:14:25Z</time>
      </trkpt>
      <trkpt lat="47.77334" lon="-3.60787">
        <ele>7</ele>
        <time>2018-07-18T13:14:26Z</time>
      </trkpt>
      <trkpt lat="47.7733" lon="-3.6079">
        <ele>7</ele>
        <time>2018-07-18T13:14:27Z</time>
      </trkpt>
      <trkpt lat="47.77326" lon="-3.60793">
        <ele>7</ele>
        <time>2018-07-18T13:14:28Z</time>
      </trkpt>
      <trkpt lat="47.77323" lon="-3.60796">
        <ele>7</ele>
        <time>2018-07-18T13:14:29Z</time>
      </trkpt>
      <trkpt lat="47.77319" lon="-3.60799">
        <ele>7</ele>
        <time>2018-07-18T13:14:30Z</time>
      </trkpt>
      <trkpt lat="47.77315" lon="-3.60801">
        <ele>7</ele>
        <time>2018-07-18T13:14:31Z</time>
      </trkpt>
      <trkpt lat="47.77312" lon="-3.60804">
        <ele>8</ele>
        <time>2018-07-18T13:14:32Z</time>
      </trkpt>
      <trkpt lat="47.77308" lon="-3.60807">
        <ele>8</ele>
        <time>2018-07-18T13:14:33Z</time>
      </trkpt>
      <trkpt lat="47.77305" lon="-3.60809">
        <ele>8</ele>
        <time>2018-07-18T13:14:34Z</time>
      </trkpt>
      <trkpt lat="47.77302" lon="-3.6081">
        <ele>8</ele>
        <time>2018-07-18T13:14:35Z</time>
      </trkpt>
      <trkpt lat="47.77299" lon="-3.60812">
        <ele>8</ele>
        <time>2018-07-18T13:14:36Z</time>
      </trkpt>
      <trkpt lat="47.77296" lon="-3.60813">
        <ele>8</ele>
        <time>2018-07-18T13:14:37Z</time>
      </trkpt>
      <trkpt lat="47.77293" lon="-3.60814">
        <ele>8</ele>
        <time>2018-07-18T13:14:38Z</time>
      </trkpt>
      <trkpt lat="47.7729" lon="-3.60815">
        <ele>9</ele>
        <time>2018-07-18T13:14:39Z</time>
      </trkpt>
      <trkpt lat="47.77287" lon="-3.60815">
        <ele>9</ele>
        <time>2018-07-18T13:14:40Z</time>
      </trkpt>
      <trkpt lat="47.77284" lon="-3.60816">
        <ele>9</ele>
        <time>2018-07-18T13:14:41Z</time>
      </trkpt>
      <trkpt lat="47.77281" lon="-3.60817">
        <ele>9</ele>
        <time>2018-07-18T13:14:42Z</time>
      </trkpt>
      <trkpt lat="47.77278" lon="-3.60818">
        <ele>10</ele>
        <time>2018-07-18T13:14:43Z</time>
      </trkpt>
      <trkpt lat="47.77275" lon="-3.60819">
        <ele>10</ele>
        <time>2018-07-18T13:14:44Z</time>
      </trkpt>
      <trkpt lat="47.77272" lon="-3.60819">
        <ele>10</ele>
        <time>2018-07-18T13:14:45Z</time>
      </trkpt>
      <trkpt lat="47.77269" lon="-3.6082">
        <ele>10</ele>
        <time>2018-07-18T13:14:46Z</time>
      </trkpt>
      <trkpt lat="47.77266" lon="-3.6082">
        <ele>10</ele>
        <time>2018-07-18T13:14:47Z</time>
      </trkpt>
      <trkpt lat="47.77263" lon="-3.60821">
        <ele>10</ele>
        <time>2018-07-18T13:14:48Z</time>
      </trkpt>
      <trkpt lat="47.7726" lon="-3.60822">
        <ele>10</ele>
        <time>2018-07-18T13:14:49Z</time>
      </trkpt>
      <trkpt lat="47.77257" lon="-3.60823">
        <ele>11</ele>
        <time>2018-07-18T13:14:50Z</time>
      </trkpt>
      <trkpt lat="47.77254" lon="-3.60824">
        <ele>11</ele>
        <time>2018-07-18T13:14:51Z</time>
      </trkpt>
      <trkpt lat="47.77251" lon="-3.60824">
        <ele>11</ele>
        <time>2018-07-18T13:14:52Z</time>
      </trkpt>
      <trkpt lat="47.77247" lon="-3.60825">
        <ele>11</ele>
        <time>2018-07-18T13:14:53Z</time>
      </trkpt>
      <trkpt lat="47.77244" lon="-3.60826">
        <ele>11</ele>
        <time>2018-07-18T13:14:54Z</time>
      </trkpt>
      <trkpt lat="47.77241" lon="-3.60827">
        <ele>11</ele>
        <time>2018-07-18T13:14:55Z</time>
      </trkpt>
      <trkpt lat="47.77238" lon="-3.60828">
        <ele>11</ele>
        <time>2018-07-18T13:14:56Z</time>
      </trkpt>
      <trkpt lat="47.77235" lon="-3.60829">
        <ele>11</ele>
        <time>2018-07-18T13:14:57Z</time>
      </trkpt>
      <trkpt lat="47.77233" lon="-3.6083">
        <ele>11</ele>
        <time>2018-07-18T13:14:58Z</time>
      </trkpt>
      <trkpt lat="47.77229" lon="-3.60832">
        <ele>11</ele>
        <time>2018-07-18T13:14:59Z</time>
      </trkpt>
      <trkpt lat="47.77226" lon="-3.60833">
        <ele>11</ele>
        <time>2018-07-18T13:15:00Z</time>
      </trkpt>
      <trkpt lat="47.77223" lon="-3.60834">
        <ele>11</ele>
        <time>2018-07-18T13:15:01Z</time>
      </trkpt>
      <trkpt lat="47.7722" lon="-3.60835">
        <ele>11</ele>
        <time>2018-07-18T13:15:02Z</time>
      </trkpt>
      <trkpt lat="47.77217" lon="-3.60836">
        <ele>11</ele>
        <time>2018-07-18T13:15:03Z</time>
      </trkpt>
      <trkpt lat="47.77214" lon="-3.60836">
        <ele>11</ele>
        <time>2018-07-18T13:15:04Z</time>
      </trkpt>
      <trkpt lat="47.77211" lon="-3.60837">
        <ele>11</ele>
        <time>2018-07-18T13:15:05Z</time>
      </trkpt>
      <trkpt lat="47.77208" lon="-3.60838">
        <ele>11</ele>
        <time>2018-07-18T13:15:06Z</time>
      </trkpt>
      <trkpt lat="47.77205" lon="-3.60838">
        <ele>12</ele>
        <time>2018-07-18T13:15:07Z</time>
      </trkpt>
      <trkpt lat="47.77202" lon="-3.60838">
        <ele>12</ele>
        <time>2018-07-18T13:15:08Z</time>
      </trkpt>
      <trkpt lat="47.772" lon="-3.60836">
        <ele>12</ele>
        <time>2018-07-18T13:15:09Z</time>
      </trkpt>
      <trkpt lat="47.77199" lon="-3.60832">
        <ele>12</ele>
        <time>2018-07-18T13:15:10Z</time>
      </trkpt>
      <trkpt lat="47.77198" lon="-3.60829">
        <ele>13</ele>
        <time>2018-07-18T13:15:11Z</time>
      </trkpt>
      <trkpt lat="47.77199" lon="-3.60825">
        <ele>13</ele>
        <time>2018-07-18T13:15:12Z</time>
      </trkpt>
      <trkpt lat="47.772" lon="-3.60822">
        <ele>13</ele>
        <time>2018-07-18T13:15:13Z</time>
      </trkpt>
      <trkpt lat="47.77201" lon="-3.60818">
        <ele>13</ele>
        <time>2018-07-18T13:15:14Z</time>
      </trkpt>
      <trkpt lat="47.77202" lon="-3.60815">
        <ele>14</ele>
        <time>2018-07-18T13:15:15Z</time>
      </trkpt>
      <trkpt lat="47.77204" lon="-3.60812">
        <ele>14</ele>
        <time>2018-07-18T13:15:16Z</time>
      </trkpt>
      <trkpt lat="47.77205" lon="-3.60809">
        <ele>14</ele>
        <time>2018-07-18T13:15:17Z</time>
      </trkpt>
      <trkpt lat="47.77206" lon="-3.60805">
        <ele>14</ele>
        <time>2018-07-18T13:15:18Z</time>
      </trkpt>
      <trkpt lat="47.77207" lon="-3.60801">
        <ele>15</ele>
        <time>2018-07-18T13:15:19Z</time>
      </trkpt>
      <trkpt lat="47.77208" lon="-3.60797">
        <ele>15</ele>
        <time>2018-07-18T13:15:20Z</time>
      </trkpt>
      <trkpt lat="47.77208" lon="-3.60793">
        <ele>15</ele>
        <time>2018-07-18T13:15:21Z</time>
      </trkpt>
      <trkpt lat="47.77209" lon="-3.60789">
        <ele>16</ele>
        <time>2018-07-18T13:15:22Z</time>
      </trkpt>
      <trkpt lat="47.77209" lon="-3.60785">
        <ele>16</ele>
        <time>2018-07-18T13:15:23Z</time>
      </trkpt>
      <trkpt lat="47.77209" lon="-3.60781">
        <ele>16</ele>
        <time>2018-07-18T13:15:24Z</time>
      </trkpt>
      <trkpt lat="47.77209" lon="-3.60776">
        <ele>16</ele>
        <time>2018-07-18T13:15:25Z</time>
      </trkpt>
      <trkpt lat="47.77209" lon="-3.60772">
        <ele>17</ele>
        <time>2018-07-18T13:15:26Z</time>
      </trkpt>
      <trkpt lat="47.77209" lon="-3.60768">
        <ele>17</ele>
        <time>2018-07-18T13:15:27Z</time>
      </trkpt>
      <trkpt lat="47.77209" lon="-3.60763">
        <ele>17</ele>
        <time>2018-07-18T13:15:28Z</time>
      </trkpt>
      <trkpt lat="47.77208" lon="-3.60759">
        <ele>17</ele>
        <time>2018-07-18T13:15:29Z</time>
      </trkpt>
      <trkpt lat="47.77208" lon="-3.60754">
        <ele>18</ele>
        <time>2018-07-18T13:15:30Z</time>
      </trkpt>
      <trkpt lat="47.77208" lon="-3.6075">
        <ele>18</ele>
        <time>2018-07-18T13:15:31Z</time>
      </trkpt>
      <trkpt lat="47.77208" lon="-3.60746">
        <ele>18</ele>
        <time>2018-07-18T13:15:32Z</time>
      </trkpt>
      <trkpt lat="47.77207" lon="-3.60741">
        <ele>18</ele>
        <time>2018-07-18T13:15:33Z</time>
      </trkpt>
      <trkpt lat="47.77206" lon="-3.60736">
        <ele>18</ele>
        <time>2018-07-18T13:15:34Z</time>
      </trkpt>
      <trkpt lat="47.77205" lon="-3.60731">
        <ele>18</ele>
        <time>2018-07-18T13:15:35Z</time>
      </trkpt>
      <trkpt lat="47.77204" lon="-3.60726">
        <ele>18</ele>
        <time>2018-07-18T13:15:36Z</time>
      </trkpt>
      <trkpt lat="47.77202" lon="-3.60721">
        <ele>19</ele>
        <time>2018-07-18T13:15:37Z</time>
      </trkpt>
      <trkpt lat="47.77201" lon="-3.60716">
        <ele>19</ele>
        <time>2018-07-18T13:15:38Z</time>
      </trkpt>
      <trkpt lat="47.77198" lon="-3.60712">
        <ele>19</ele>
        <time>2018-07-18T13:15:39Z</time>
      </trkpt>
      <trkpt lat="47.77196" lon="-3.60708">
        <ele>19</ele>
        <time>2018-07-18T13:15:40Z</time>
      </trkpt>
      <trkpt lat="47.77194" lon="-3.60703">
        <ele>19</ele>
        <time>2018-07-18T13:15:41Z</time>
      </trkpt>
      <trkpt lat="47.77192" lon="-3.60698">
        <ele>19</ele>
        <time>2018-07-18T13:15:42Z</time>
      </trkpt>
      <trkpt lat="47.77191" lon="-3.60693">
        <ele>19</ele>
        <time>2018-07-18T13:15:43Z</time>
      </trkpt>
      <trkpt lat="47.7719" lon="-3.60687">
        <ele>19</ele>
        <time>2018-07-18T13:15:44Z</time>
      </trkpt>
      <trkpt lat="47.77188" lon="-3.60682">
        <ele>19</ele>
        <time>2018-07-18T13:15:45Z</time>
      </trkpt>
      <trkpt lat="47.77187" lon="-3.60677">
        <ele>19</ele>
        <time>2018-07-18T13:15:46Z</time>
      </trkpt>
      <trkpt lat="47.77186" lon="-3.60671">
        <ele>19</ele>
        <time>2018-07-18T13:15:47Z</time>
      </trkpt>
      <trkpt lat="47.77185" lon="-3.60665">
        <ele>20</ele>
        <time>2018-07-18T13:15:48Z</time>
      </trkpt>
      <trkpt lat="47.77184" lon="-3.6066">
        <ele>20</ele>
        <time>2018-07-18T13:15:49Z</time>
      </trkpt>
      <trkpt lat="47.77184" lon="-3.60654">
        <ele>20</ele>
        <time>2018-07-18T13:15:50Z</time>
      </trkpt>
      <trkpt lat="47.77183" lon="-3.60648">
        <ele>20</ele>
        <time>2018-07-18T13:15:51Z</time>
      </trkpt>
      <trkpt lat="47.77182" lon="-3.60643">
        <ele>20</ele>
        <time>2018-07-18T13:15:52Z</time>
      </trkpt>
      <trkpt lat="47.77182" lon="-3.60637">
        <ele>20</ele>
        <time>2018-07-18T13:15:53Z</time>
      </trkpt>
      <trkpt lat="47.77182" lon="-3.60631">
        <ele>20</ele>
        <time>2018-07-18T13:15:54Z</time>
      </trkpt>
      <trkpt lat="47.77181" lon="-3.60625">
        <ele>20</ele>
        <time>2018-07-18T13:15:55Z</time>
      </trkpt>
      <trkpt lat="47.77181" lon="-3.6062">
        <ele>20</ele>
        <time>2018-07-18T13:15:56Z</time>
      </trkpt>
      <trkpt lat="47.7718" lon="-3.60614">
        <ele>20</ele>
        <time>2018-07-18T13:15:57Z</time>
      </trkpt>
      <trkpt lat="47.7718" lon="-3.60609">
        <ele>20</ele>
        <time>2018-07-18T13:15:58Z</time>
      </trkpt>
      <trkpt lat="47.77179" lon="-3.60603">
        <ele>20</ele>
        <time>2018-07-18T13:15:59Z</time>
      </trkpt>
      <trkpt lat="47.77179" lon="-3.60596">
        <ele>20</ele>
        <time>2018-07-18T13:16:00Z</time>
      </trkpt>
      <trkpt lat="47.77178" lon="-3.6059">
        <ele>20</ele>
        <time>2018-07-18T13:16:01Z</time>
      </trkpt>
      <trkpt lat="47.77178" lon="-3.60583">
        <ele>20</ele>
        <time>2018-07-18T13:16:02Z</time>
      </trkpt>
      <trkpt lat="47.77177" lon="-3.60576">
        <ele>21</ele>
        <time>2018-07-18T13:16:03Z</time>
      </trkpt>
      <trkpt lat="47.77177" lon="-3.60569">
        <ele>21</ele>
        <time>2018-07-18T13:16:04Z</time>
      </trkpt>
      <trkpt lat="47.77176" lon="-3.60562">
        <ele>21</ele>
        <time>2018-07-18T13:16:05Z</time>
      </trkpt>
      <trkpt lat="47.77176" lon="-3.60555">
        <ele>21</ele>
        <time>2018-07-18T13:16:06Z</time>
      </trkpt>
      <trkpt lat="47.77175" lon="-3.60548">
        <ele>21</ele>
        <time>2018-07-18T13:16:07Z</time>
      </trkpt>
      <trkpt lat="47.77175" lon="-3.6054">
        <ele>21</ele>
        <time>2018-07-18T13:16:08Z</time>
      </trkpt>
      <trkpt lat="47.77174" lon="-3.60533">
        <ele>21</ele>
        <time>2018-07-18T13:16:09Z</time>
      </trkpt>
      <trkpt lat="47.77174" lon="-3.60526">
        <ele>21</ele>
        <time>2018-07-18T13:16:10Z</time>
      </trkpt>
      <trkpt lat="47.77173" lon="-3.60518">
        <ele>21</ele>
        <time>2018-07-18T13:16:11Z</time>
      </trkpt>
      <trkpt lat="47.77172" lon="-3.60511">
        <ele>21</ele>
        <time>2018-07-18T13:16:12Z</time>
      </trkpt>
      <trkpt lat="47.77172" lon="-3.60504">
        <ele>21</ele>
        <time>2018-07-18T13:16:13Z</time>
      </trkpt>
      <trkpt lat="47.77172" lon="-3.60497">
        <ele>21</ele>
        <time>2018-07-18T13:16:14Z</time>
      </trkpt>
      <trkpt lat="47.77172" lon="-3.60489">
        <ele>22</ele>
        <time>2018-07-18T13:16:15Z</time>
      </trkpt>
      <trkpt lat="47.77171" lon="-3.60482">
        <ele>22</ele>
        <time>2018-07-18T13:16:16Z</time>
      </trkpt>
      <trkpt lat="47.7717" lon="-3.60475">
        <ele>22</ele>
        <time>2018-07-18T13:16:17Z</time>
      </trkpt>
      <trkpt lat="47.7717" lon="-3.60467">
        <ele>22</ele>
        <time>2018-07-18T13:16:18Z</time>
      </trkpt>
      <trkpt lat="47.7717" lon="-3.6046">
        <ele>22</ele>
        <time>2018-07-18T13:16:19Z</time>
      </trkpt>
      <trkpt lat="47.7717" lon="-3.60452">
        <ele>22</ele>
        <time>2018-07-18T13:16:20Z</time>
      </trkpt>
      <trkpt lat="47.7717" lon="-3.60445">
        <ele>22</ele>
        <time>2018-07-18T13:16:21Z</time>
      </trkpt>
      <trkpt lat="47.77171" lon="-3.60438">
        <ele>22</ele>
        <time>2018-07-18T13:16:22Z</time>
      </trkpt>
      <trkpt lat="47.77172" lon="-3.6043">
        <ele>23</ele>
        <time>2018-07-18T13:16:23Z</time>
      </trkpt>
      <trkpt lat="47.77173" lon="-3.60423">
        <ele>23</ele>
        <time>2018-07-18T13:16:24Z</time>
      </trkpt>
      <trkpt lat="47.77175" lon="-3.60416">
        <ele>23</ele>
        <time>2018-07-18T13:16:25Z</time>
      </trkpt>
      <trkpt lat="47.77177" lon="-3.6041">
        <ele>23</ele>
        <time>2018-07-18T13:16:26Z</time>
      </trkpt>
      <trkpt lat="47.7718" lon="-3.60405">
        <ele>23</ele>
        <time>2018-07-18T13:16:27Z</time>
      </trkpt>
      <trkpt lat="47.77184" lon="-3.604">
        <ele>23</ele>
        <time>2018-07-18T13:16:28Z</time>
      </trkpt>
      <trkpt lat="47.77188" lon="-3.60396">
        <ele>23</ele>
        <time>2018-07-18T13:16:29Z</time>
      </trkpt>
      <trkpt lat="47.77192" lon="-3.60392">
        <ele>24</ele>
        <time>2018-07-18T13:16:30Z</time>
      </trkpt>
      <trkpt lat="47.77197" lon="-3.60389">
        <ele>24</ele>
        <time>2018-07-18T13:16:31Z</time>
      </trkpt>
      <trkpt lat="47.77202" lon="-3.60387">
        <ele>24</ele>
        <time>2018-07-18T13:16:32Z</time>
      </trkpt>
      <trkpt lat="47.77206" lon="-3.60386">
        <ele>24</ele>
        <time>2018-07-18T13:16:33Z</time>
      </trkpt>
      <trkpt lat="47.77211" lon="-3.60385">
        <ele>24</ele>
        <time>2018-07-18T13:16:34Z</time>
      </trkpt>
      <trkpt lat="47.77215" lon="-3.60384">
        <ele>24</ele>
        <time>2018-07-18T13:16:35Z</time>
      </trkpt>
      <trkpt lat="47.77219" lon="-3.60382">
        <ele>24</ele>
        <time>2018-07-18T13:16:36Z</time>
      </trkpt>
      <trkpt lat="47.77223" lon="-3.60381">
        <ele>24</ele>
        <time>2018-07-18T13:16:37Z</time>
      </trkpt>
      <trkpt lat="47.77227" lon="-3.6038">
        <ele>24</ele>
        <time>2018-07-18T13:16:38Z</time>
      </trkpt>
      <trkpt lat="47.7723" lon="-3.60379">
        <ele>24</ele>
        <time>2018-07-18T13:16:39Z</time>
      </trkpt>
      <trkpt lat="47.77234" lon="-3.60377">
        <ele>24</ele>
        <time>2018-07-18T13:16:40Z</time>
      </trkpt>
      <trkpt lat="47.77237" lon="-3.60375">
        <ele>24</ele>
        <time>2018-07-18T13:16:41Z</time>
      </trkpt>
      <trkpt lat="47.77239" lon="-3.60373">
        <ele>24</ele>
        <time>2018-07-18T13:16:42Z</time>
      </trkpt>
      <trkpt lat="47.77242" lon="-3.60372">
        <ele>24</ele>
        <time>2018-07-18T13:16:43Z</time>
      </trkpt>
      <trkpt lat="47.77243" lon="-3.60374">
        <ele>24</ele>
        <time>2018-07-18T13:16:44Z</time>
      </trkpt>
      <trkpt lat="47.77242" lon="-3.60377">
        <ele>24</ele>
        <time>2018-07-18T13:16:45Z</time>
      </trkpt>
      <trkpt lat="47.7724" lon="-3.60378">
        <ele>24</ele>
        <time>2018-07-18T13:16:46Z</time>
      </trkpt>
      <trkpt lat="47.77237" lon="-3.60379">
        <ele>24</ele>
        <time>2018-07-18T13:16:47Z</time>
      </trkpt>
      <trkpt lat="47.77234" lon="-3.60379">
        <ele>24</ele>
        <time>2018-07-18T13:16:48Z</time>
      </trkpt>
      <trkpt lat="47.7723" lon="-3.60379">
        <ele>24</ele>
        <time>2018-07-18T13:16:49Z</time>
      </trkpt>
      <trkpt lat="47.77225" lon="-3.6038">
        <ele>23</ele>
        <time>2018-07-18T13:16:50Z</time>
      </trkpt>
      <trkpt lat="47.77221" lon="-3.60381">
        <ele>23</ele>
        <time>2018-07-18T13:16:51Z</time>
      </trkpt>
      <trkpt lat="47.77216" lon="-3.60383">
        <ele>23</ele>
        <time>2018-07-18T13:16:52Z</time>
      </trkpt>
      <trkpt lat="47.77212" lon="-3.60386">
        <ele>23</ele>
        <time>2018-07-18T13:16:53Z</time>
      </trkpt>
      <trkpt lat="47.77207" lon="-3.60386">
        <ele>23</ele>
        <time>2018-07-18T13:16:54Z</time>
      </trkpt>
      <trkpt lat="47.77202" lon="-3.60387">
        <ele>23</ele>
        <time>2018-07-18T13:16:55Z</time>
      </trkpt>
      <trkpt lat="47.77197" lon="-3.60387">
        <ele>23</ele>
        <time>2018-07-18T13:16:56Z</time>
      </trkpt>
      <trkpt lat="47.77192" lon="-3.60387">
        <ele>23</ele>
        <time>2018-07-18T13:16:57Z</time>
      </trkpt>
      <trkpt lat="47.77187" lon="-3.60387">
        <ele>23</ele>
        <time>2018-07-18T13:16:58Z</time>
      </trkpt>
      <trkpt lat="47.77182" lon="-3.60388">
        <ele>22</ele>
        <time>2018-07-18T13:16:59Z</time>
      </trkpt>
      <trkpt lat="47.77177" lon="-3.60389">
        <ele>22</ele>
        <time>2018-07-18T13:17:00Z</time>
      </trkpt>
      <trkpt lat="47.77171" lon="-3.6039">
        <ele>22</ele>
        <time>2018-07-18T13:17:01Z</time>
      </trkpt>
      <trkpt lat="47.77166" lon="-3.60392">
        <ele>22</ele>
        <time>2018-07-18T13:17:02Z</time>
      </trkpt>
      <trkpt lat="47.77161" lon="-3.60391">
        <ele>22</ele>
        <time>2018-07-18T13:17:03Z</time>
      </trkpt>
      <trkpt lat="47.77156" lon="-3.60388">
        <ele>21</ele>
        <time>2018-07-18T13:17:04Z</time>
      </trkpt>
      <trkpt lat="47.77153" lon="-3.60383">
        <ele>21</ele>
        <time>2018-07-18T13:17:05Z</time>
      </trkpt>
      <trkpt lat="47.77151" lon="-3.60376">
        <ele>21</ele>
        <time>2018-07-18T13:17:06Z</time>
      </trkpt>
      <trkpt lat="47.7715" lon="-3.60369">
        <ele>21</ele>
        <time>2018-07-18T13:17:07Z</time>
      </trkpt>
      <trkpt lat="47.7715" lon="-3.60363">
        <ele>21</ele>
        <time>2018-07-18T13:17:08Z</time>
      </trkpt>
      <trkpt lat="47.7715" lon="-3.60356">
        <ele>21</ele>
        <time>2018-07-18T13:17:09Z</time>
      </trkpt>
      <trkpt lat="47.7715" lon="-3.6035">
        <ele>22</ele>
        <time>2018-07-18T13:17:10Z</time>
      </trkpt>
      <trkpt lat="47.7715" lon="-3.60343">
        <ele>22</ele>
        <time>2018-07-18T13:17:11Z</time>
      </trkpt>
      <trkpt lat="47.7715" lon="-3.60336">
        <ele>22</ele>
        <time>2018-07-18T13:17:12Z</time>
      </trkpt>
      <trkpt lat="47.7715" lon="-3.60328">
        <ele>22</ele>
        <time>2018-07-18T13:17:13Z</time>
      </trkpt>
      <trkpt lat="47.77151" lon="-3.60321">
        <ele>22</ele>
        <time>2018-07-18T13:17:14Z</time>
      </trkpt>
      <trkpt lat="47.77152" lon="-3.60315">
        <ele>22</ele>
        <time>2018-07-18T13:17:15Z</time>
      </trkpt>
      <trkpt lat="47.77153" lon="-3.60308">
        <ele>22</ele>
        <time>2018-07-18T13:17:16Z</time>
      </trkpt>
      <trkpt lat="47.77152" lon="-3.60301">
        <ele>22</ele>
        <time>2018-07-18T13:17:17Z</time>
      </trkpt>
      <trkpt lat="47.77151" lon="-3.60294">
        <ele>22</ele>
        <time>2018-07-18T13:17:18Z</time>
      </trkpt>
      <trkpt lat="47.7715" lon="-3.60287">
        <ele>21</ele>
        <time>2018-07-18T13:17:19Z</time>
      </trkpt>
      <trkpt lat="47.77149" lon="-3.60279">
        <ele>21</ele>
        <time>2018-07-18T13:17:20Z</time>
      </trkpt>
      <trkpt lat="47.77149" lon="-3.6027">
        <ele>21</ele>
        <time>2018-07-18T13:17:21Z</time>
      </trkpt>
      <trkpt lat="47.77149" lon="-3.60261">
        <ele>21</ele>
        <time>2018-07-18T13:17:22Z</time>
      </trkpt>
      <trkpt lat="47.77149" lon="-3.60252">
        <ele>20</ele>
        <time>2018-07-18T13:17:23Z</time>
      </trkpt>
      <trkpt lat="47.77147" lon="-3.60243">
        <ele>20</ele>
        <time>2018-07-18T13:17:24Z</time>
      </trkpt>
      <trkpt lat="47.77146" lon="-3.60234">
        <ele>20</ele>
        <time>2018-07-18T13:17:25Z</time>
      </trkpt>
      <trkpt lat="47.77145" lon="-3.60226">
        <ele>20</ele>
        <time>2018-07-18T13:17:26Z</time>
      </trkpt>
      <trkpt lat="47.77144" lon="-3.60218">
        <ele>20</ele>
        <time>2018-07-18T13:17:27Z</time>
      </trkpt>
      <trkpt lat="47.77143" lon="-3.60211">
        <ele>20</ele>
        <time>2018-07-18T13:17:28Z</time>
      </trkpt>
      <trkpt lat="47.77142" lon="-3.60204">
        <ele>20</ele>
        <time>2018-07-18T13:17:29Z</time>
      </trkpt>
      <trkpt lat="47.77141" lon="-3.60197">
        <ele>20</ele>
        <time>2018-07-18T13:17:30Z</time>
      </trkpt>
      <trkpt lat="47.7714" lon="-3.6019">
        <ele>20</ele>
        <time>2018-07-18T13:17:31Z</time>
      </trkpt>
      <trkpt lat="47.7714" lon="-3.60184">
        <ele>21</ele>
        <time>2018-07-18T13:17:32Z</time>
      </trkpt>
      <trkpt lat="47.7714" lon="-3.60178">
        <ele>21</ele>
        <time>2018-07-18T13:17:33Z</time>
      </trkpt>
      <trkpt lat="47.7714" lon="-3.60172">
        <ele>21</ele>
        <time>2018-07-18T13:17:34Z</time>
      </trkpt>
      <trkpt lat="47.7714" lon="-3.60166">
        <ele>21</ele>
        <time>2018-07-18T13:17:35Z</time>
      </trkpt>
      <trkpt lat="47.77139" lon="-3.60159">
        <ele>21</ele>
        <time>2018-07-18T13:17:36Z</time>
      </trkpt>
      <trkpt lat="47.77139" lon="-3.60152">
        <ele>21</ele>
        <time>2018-07-18T13:17:37Z</time>
      </trkpt>
      <trkpt lat="47.77138" lon="-3.60144">
        <ele>21</ele>
        <time>2018-07-18T13:17:38Z</time>
      </trkpt>
      <trkpt lat="47.77138" lon="-3.60137">
        <ele>21</ele>
        <time>2018-07-18T13:17:39Z</time>
      </trkpt>
      <trkpt lat="47.77138" lon="-3.60129">
        <ele>21</ele>
        <time>2018-07-18T13:17:40Z</time>
      </trkpt>
      <trkpt lat="47.77138" lon="-3.60121">
        <ele>21</ele>
        <time>2018-07-18T13:17:41Z</time>
      </trkpt>
      <trkpt lat="47.77138" lon="-3.60113">
        <ele>21</ele>
        <time>2018-07-18T13:17:42Z</time>
      </trkpt>
      <trkpt lat="47.77138" lon="-3.60105">
        <ele>21</ele>
        <time>2018-07-18T13:17:43Z</time>
      </trkpt>
      <trkpt lat="47.77139" lon="-3.60097">
        <ele>21</ele>
        <time>2018-07-18T13:17:44Z</time>
      </trkpt>
      <trkpt lat="47.7714" lon="-3.60089">
        <ele>22</ele>
        <time>2018-07-18T13:17:45Z</time>
      </trkpt>
      <trkpt lat="47.77141" lon="-3.60081">
        <ele>22</ele>
        <time>2018-07-18T13:17:46Z</time>
      </trkpt>
      <trkpt lat="47.77142" lon="-3.60074">
        <ele>22</ele>
        <time>2018-07-18T13:17:47Z</time>
      </trkpt>
      <trkpt lat="47.77143" lon="-3.60066">
        <ele>22</ele>
        <time>2018-07-18T13:17:48Z</time>
      </trkpt>
      <trkpt lat="47.77143" lon="-3.60059">
        <ele>22</ele>
        <time>2018-07-18T13:17:49Z</time>
      </trkpt>
      <trkpt lat="47.77141" lon="-3.60052">
        <ele>22</ele>
        <time>2018-07-18T13:17:50Z</time>
      </trkpt>
      <trkpt lat="47.77138" lon="-3.60047">
        <ele>22</ele>
        <time>2018-07-18T13:17:51Z</time>
      </trkpt>
      <trkpt lat="47.77134" lon="-3.60041">
        <ele>22</ele>
        <time>2018-07-18T13:17:52Z</time>
      </trkpt>
      <trkpt lat="47.77131" lon="-3.60035">
        <ele>22</ele>
        <time>2018-07-18T13:17:53Z</time>
      </trkpt>
      <trkpt lat="47.77127" lon="-3.60029">
        <ele>22</ele>
        <time>2018-07-18T13:17:54Z</time>
      </trkpt>
      <trkpt lat="47.77123" lon="-3.60024">
        <ele>22</ele>
        <time>2018-07-18T13:17:55Z</time>
      </trkpt>
      <trkpt lat="47.77119" lon="-3.60017">
        <ele>21</ele>
        <time>2018-07-18T13:17:56Z</time>
      </trkpt>
      <trkpt lat="47.77114" lon="-3.60011">
        <ele>21</ele>
        <time>2018-07-18T13:17:57Z</time>
      </trkpt>
      <trkpt lat="47.77109" lon="-3.60004">
        <ele>20</ele>
        <time>2018-07-18T13:17:58Z</time>
      </trkpt>
      <trkpt lat="47.77103" lon="-3.59997">
        <ele>20</ele>
        <time>2018-07-18T13:17:59Z</time>
      </trkpt>
      <trkpt lat="47.77098" lon="-3.59989">
        <ele>19</ele>
        <time>2018-07-18T13:18:00Z</time>
      </trkpt>
      <trkpt lat="47.77092" lon="-3.59982">
        <ele>19</ele>
        <time>2018-07-18T13:18:01Z</time>
      </trkpt>
      <trkpt lat="47.77087" lon="-3.59976">
        <ele>19</ele>
        <time>2018-07-18T13:18:02Z</time>
      </trkpt>
      <trkpt lat="47.77082" lon="-3.59969">
        <ele>18</ele>
        <time>2018-07-18T13:18:03Z</time>
      </trkpt>
      <trkpt lat="47.77079" lon="-3.59962">
        <ele>18</ele>
        <time>2018-07-18T13:18:04Z</time>
      </trkpt>
      <trkpt lat="47.77078" lon="-3.59955">
        <ele>18</ele>
        <time>2018-07-18T13:18:05Z</time>
      </trkpt>
      <trkpt lat="47.77077" lon="-3.59947">
        <ele>19</ele>
        <time>2018-07-18T13:18:06Z</time>
      </trkpt>
      <trkpt lat="47.77077" lon="-3.59939">
        <ele>19</ele>
        <time>2018-07-18T13:18:07Z</time>
      </trkpt>
      <trkpt lat="47.77076" lon="-3.59932">
        <ele>19</ele>
        <time>2018-07-18T13:18:08Z</time>
      </trkpt>
      <trkpt lat="47.77075" lon="-3.59924">
        <ele>19</ele>
        <time>2018-07-18T13:18:09Z</time>
      </trkpt>
      <trkpt lat="47.77074" lon="-3.59916">
        <ele>19</ele>
        <time>2018-07-18T13:18:10Z</time>
      </trkpt>
      <trkpt lat="47.77073" lon="-3.59908">
        <ele>19</ele>
        <time>2018-07-18T13:18:11Z</time>
      </trkpt>
      <trkpt lat="47.77073" lon="-3.599">
        <ele>19</ele>
        <time>2018-07-18T13:18:12Z</time>
      </trkpt>
      <trkpt lat="47.77071" lon="-3.59892">
        <ele>19</ele>
        <time>2018-07-18T13:18:13Z</time>
      </trkpt>
      <trkpt lat="47.77069" lon="-3.59884">
        <ele>18</ele>
        <time>2018-07-18T13:18:14Z</time>
      </trkpt>
      <trkpt lat="47.77067" lon="-3.59876">
        <ele>18</ele>
        <time>2018-07-18T13:18:15Z</time>
      </trkpt>
      <trkpt lat="47.77066" lon="-3.59867">
        <ele>18</ele>
        <time>2018-07-18T13:18:16Z</time>
      </trkpt>
      <trkpt lat="47.77065" lon="-3.59858">
        <ele>18</ele>
        <time>2018-07-18T13:18:17Z</time>
      </trkpt>
      <trkpt lat="47.77063" lon="-3.59851">
        <ele>17</ele>
        <time>2018-07-18T13:18:18Z</time>
      </trkpt>
      <trkpt lat="47.77059" lon="-3.59847">
        <ele>17</ele>
        <time>2018-07-18T13:18:19Z</time>
      </trkpt>
      <trkpt lat="47.77054" lon="-3.59845">
        <ele>17</ele>
        <time>2018-07-18T13:18:20Z</time>
      </trkpt>
      <trkpt lat="47.77049" lon="-3.59844">
        <ele>17</ele>
        <time>2018-07-18T13:18:21Z</time>
      </trkpt>
      <trkpt lat="47.77046" lon="-3.5984">
        <ele>16</ele>
        <time>2018-07-18T13:18:22Z</time>
      </trkpt>
      <trkpt lat="47.77044" lon="-3.59835">
        <ele>16</ele>
        <time>2018-07-18T13:18:23Z</time>
      </trkpt>
      <trkpt lat="47.77043" lon="-3.5983">
        <ele>16</ele>
        <time>2018-07-18T13:18:24Z</time>
      </trkpt>
      <trkpt lat="47.77043" lon="-3.59823">
        <ele>16</ele>
        <time>2018-07-18T13:18:25Z</time>
      </trkpt>
      <trkpt lat="47.77043" lon="-3.59817">
        <ele>16</ele>
        <time>2018-07-18T13:18:26Z</time>
      </trkpt>
      <trkpt lat="47.77042" lon="-3.5981">
        <ele>16</ele>
        <time>2018-07-18T13:18:27Z</time>
      </trkpt>
      <trkpt lat="47.77041" lon="-3.59804">
        <ele>16</ele>
        <time>2018-07-18T13:18:28Z</time>
      </trkpt>
      <trkpt lat="47.7704" lon="-3.59797">
        <ele>16</ele>
        <time>2018-07-18T13:18:29Z</time>
      </trkpt>
      <trkpt lat="47.77041" lon="-3.5979">
        <ele>17</ele>
        <time>2018-07-18T13:18:30Z</time>
      </trkpt>
      <trkpt lat="47.77041" lon="-3.59784">
        <ele>17</ele>
        <time>2018-07-18T13:18:31Z</time>
      </trkpt>
      <trkpt lat="47.77041" lon="-3.59777">
        <ele>17</ele>
        <time>2018-07-18T13:18:32Z</time>
      </trkpt>
      <trkpt lat="47.77041" lon="-3.5977">
        <ele>17</ele>
        <time>2018-07-18T13:18:33Z</time>
      </trkpt>
      <trkpt lat="47.77042" lon="-3.59764">
        <ele>17</ele>
        <time>2018-07-18T13:18:34Z</time>
      </trkpt>
      <trkpt lat="47.77043" lon="-3.59757">
        <ele>17</ele>
        <time>2018-07-18T13:18:35Z</time>
      </trkpt>
      <trkpt lat="47.77044" lon="-3.59751">
        <ele>17</ele>
        <time>2018-07-18T13:18:36Z</time>
      </trkpt>
      <trkpt lat="47.77046" lon="-3.59745">
        <ele>17</ele>
        <time>2018-07-18T13:18:37Z</time>
      </trkpt>
      <trkpt lat="47.77049" lon="-3.59738">
        <ele>17</ele>
        <time>2018-07-18T13:18:38Z</time>
      </trkpt>
      <trkpt lat="47.77051" lon="-3.59731">
        <ele>16</ele>
        <time>2018-07-18T13:18:39Z</time>
      </trkpt>
      <trkpt lat="47.77055" lon="-3.59722">
        <ele>16</ele>
        <time>2018-07-18T13:18:40Z</time>
      </trkpt>
      <trkpt lat="47.77057" lon="-3.59713">
        <ele>16</ele>
        <time>2018-07-18T13:18:41Z</time>
      </trkpt>
      <trkpt lat="47.77057" lon="-3.59702">
        <ele>15</ele>
        <time>2018-07-18T13:18:42Z</time>
      </trkpt>
      <trkpt lat="47.77056" lon="-3.59692">
        <ele>16</ele>
        <time>2018-07-18T13:18:43Z</time>
      </trkpt>
      <trkpt lat="47.77055" lon="-3.59683">
        <ele>16</ele>
        <time>2018-07-18T13:18:44Z</time>
      </trkpt>
      <trkpt lat="47.77053" lon="-3.59675">
        <ele>16</ele>
        <time>2018-07-18T13:18:45Z</time>
      </trkpt>
      <trkpt lat="47.77051" lon="-3.59667">
        <ele>17</ele>
        <time>2018-07-18T13:18:46Z</time>
      </trkpt>
      <trkpt lat="47.77049" lon="-3.5966">
        <ele>17</ele>
        <time>2018-07-18T13:18:47Z</time>
      </trkpt>
      <trkpt lat="47.77047" lon="-3.59653">
        <ele>17</ele>
        <time>2018-07-18T13:18:48Z</time>
      </trkpt>
      <trkpt lat="47.77045" lon="-3.59646">
        <ele>17</ele>
        <time>2018-07-18T13:18:49Z</time>
      </trkpt>
      <trkpt lat="47.77043" lon="-3.59639">
        <ele>18</ele>
        <time>2018-07-18T13:18:50Z</time>
      </trkpt>
      <trkpt lat="47.7704" lon="-3.59632">
        <ele>18</ele>
        <time>2018-07-18T13:18:51Z</time>
      </trkpt>
      <trkpt lat="47.77038" lon="-3.59625">
        <ele>18</ele>
        <time>2018-07-18T13:18:52Z</time>
      </trkpt>
      <trkpt lat="47.77036" lon="-3.59618">
        <ele>19</ele>
        <time>2018-07-18T13:18:53Z</time>
      </trkpt>
      <trkpt lat="47.77034" lon="-3.59611">
        <ele>19</ele>
        <time>2018-07-18T13:18:54Z</time>
      </trkpt>
      <trkpt lat="47.77032" lon="-3.59605">
        <ele>19</ele>
        <time>2018-07-18T13:18:55Z</time>
      </trkpt>
      <trkpt lat="47.7703" lon="-3.59598">
        <ele>19</ele>
        <time>2018-07-18T13:18:56Z</time>
      </trkpt>
      <trkpt lat="47.77029" lon="-3.59591">
        <ele>20</ele>
        <time>2018-07-18T13:18:57Z</time>
      </trkpt>
      <trkpt lat="47.77027" lon="-3.59583">
        <ele>20</ele>
        <time>2018-07-18T13:18:58Z</time>
      </trkpt>
      <trkpt lat="47.77027" lon="-3.59576">
        <ele>20</ele>
        <time>2018-07-18T13:18:59Z</time>
      </trkpt>
      <trkpt lat="47.77027" lon="-3.59568">
        <ele>20</ele>
        <time>2018-07-18T13:19:00Z</time>
      </trkpt>
      <trkpt lat="47.77027" lon="-3.5956">
        <ele>20</ele>
        <time>2018-07-18T13:19:01Z</time>
      </trkpt>
      <trkpt lat="47.77028" lon="-3.59553">
        <ele>20</ele>
        <time>2018-07-18T13:19:02Z</time>
      </trkpt>
      <trkpt lat="47.7703" lon="-3.59546">
        <ele>21</ele>
        <time>2018-07-18T13:19:03Z</time>
      </trkpt>
      <trkpt lat="47.77032" lon="-3.5954">
        <ele>21</ele>
        <time>2018-07-18T13:19:04Z</time>
      </trkpt>
      <trkpt lat="47.77035" lon="-3.59535">
        <ele>21</ele>
        <time>2018-07-18T13:19:05Z</time>
      </trkpt>
      <trkpt lat="47.77038" lon="-3.5953">
        <ele>22</ele>
        <time>2018-07-18T13:19:06Z</time>
      </trkpt>
      <trkpt lat="47.77041" lon="-3.59527">
        <ele>22</ele>
        <time>2018-07-18T13:19:07Z</time>
      </trkpt>
      <trkpt lat="47.77044" lon="-3.59523">
        <ele>23</ele>
        <time>2018-07-18T13:19:08Z</time>
      </trkpt>
      <trkpt lat="47.77048" lon="-3.59519">
        <ele>23</ele>
        <time>2018-07-18T13:19:09Z</time>
      </trkpt>
      <trkpt lat="47.77051" lon="-3.59515">
        <ele>23</ele>
        <time>2018-07-18T13:19:10Z</time>
      </trkpt>
      <trkpt lat="47.77053" lon="-3.5951">
        <ele>24</ele>
        <time>2018-07-18T13:19:11Z</time>
      </trkpt>
      <trkpt lat="47.77055" lon="-3.59505">
        <ele>24</ele>
        <time>2018-07-18T13:19:12Z</time>
      </trkpt>
      <trkpt lat="47.77057" lon="-3.59499">
        <ele>24</ele>
        <time>2018-07-18T13:19:13Z</time>
      </trkpt>
      <trkpt lat="47.77059" lon="-3.59493">
        <ele>24</ele>
        <time>2018-07-18T13:19:14Z</time>
      </trkpt>
      <trkpt lat="47.7706" lon="-3.59487">
        <ele>24</ele>
        <time>2018-07-18T13:19:15Z</time>
      </trkpt>
      <trkpt lat="47.77061" lon="-3.59482">
        <ele>25</ele>
        <time>2018-07-18T13:19:16Z</time>
      </trkpt>
      <trkpt lat="47.77063" lon="-3.59476">
        <ele>25</ele>
        <time>2018-07-18T13:19:17Z</time>
      </trkpt>
      <trkpt lat="47.77064" lon="-3.59469">
        <ele>25</ele>
        <time>2018-07-18T13:19:18Z</time>
      </trkpt>
      <trkpt lat="47.77066" lon="-3.59463">
        <ele>25</ele>
        <time>2018-07-18T13:19:19Z</time>
      </trkpt>
      <trkpt lat="47.77067" lon="-3.59457">
        <ele>25</ele>
        <time>2018-07-18T13:19:20Z</time>
      </trkpt>
      <trkpt lat="47.77069" lon="-3.59452">
        <ele>25</ele>
        <time>2018-07-18T13:19:21Z</time>
      </trkpt>
      <trkpt lat="47.77069" lon="-3.59446">
        <ele>25</ele>
        <time>2018-07-18T13:19:22Z</time>
      </trkpt>
      <trkpt lat="47.7707" lon="-3.5944">
        <ele>25</ele>
        <time>2018-07-18T13:19:23Z</time>
      </trkpt>
      <trkpt lat="47.77069" lon="-3.59433">
        <ele>25</ele>
        <time>2018-07-18T13:19:24Z</time>
      </trkpt>
      <trkpt lat="47.77068" lon="-3.59427">
        <ele>26</ele>
        <time>2018-07-18T13:19:25Z</time>
      </trkpt>
      <trkpt lat="47.77067" lon="-3.59422">
        <ele>26</ele>
        <time>2018-07-18T13:19:26Z</time>
      </trkpt>
      <trkpt lat="47.77065" lon="-3.59416">
        <ele>26</ele>
        <time>2018-07-18T13:19:27Z</time>
      </trkpt>
      <trkpt lat="47.77064" lon="-3.59409">
        <ele>26</ele>
        <time>2018-07-18T13:19:28Z</time>
      </trkpt>
      <trkpt lat="47.77064" lon="-3.59403">
        <ele>26</ele>
        <time>2018-07-18T13:19:29Z</time>
      </trkpt>
      <trkpt lat="47.77063" lon="-3.59396">
        <ele>26</ele>
        <time>2018-07-18T13:19:30Z</time>
      </trkpt>
      <trkpt lat="47.77063" lon="-3.59391">
        <ele>26</ele>
        <time>2018-07-18T13:19:31Z</time>
      </trkpt>
      <trkpt lat="47.77063" lon="-3.59385">
        <ele>26</ele>
        <time>2018-07-18T13:19:32Z</time>
      </trkpt>
      <trkpt lat="47.77063" lon="-3.59379">
        <ele>27</ele>
        <time>2018-07-18T13:19:33Z</time>
      </trkpt>
      <trkpt lat="47.77064" lon="-3.59373">
        <ele>27</ele>
        <time>2018-07-18T13:19:34Z</time>
      </trkpt>
      <trkpt lat="47.77064" lon="-3.59366">
        <ele>27</ele>
        <time>2018-07-18T13:19:35Z</time>
      </trkpt>
      <trkpt lat="47.77065" lon="-3.59359">
        <ele>27</ele>
        <time>2018-07-18T13:19:36Z</time>
      </trkpt>
      <trkpt lat="47.77066" lon="-3.59353">
        <ele>27</ele>
        <time>2018-07-18T13:19:37Z</time>
      </trkpt>
      <trkpt lat="47.77066" lon="-3.59345">
        <ele>26</ele>
        <time>2018-07-18T13:19:38Z</time>
      </trkpt>
      <trkpt lat="47.77066" lon="-3.59339">
        <ele>26</ele>
        <time>2018-07-18T13:19:39Z</time>
      </trkpt>
      <trkpt lat="47.77067" lon="-3.59331">
        <ele>26</ele>
        <time>2018-07-18T13:19:40Z</time>
      </trkpt>
      <trkpt lat="47.77067" lon="-3.59324">
        <ele>26</ele>
        <time>2018-07-18T13:19:41Z</time>
      </trkpt>
      <trkpt lat="47.77068" lon="-3.59318">
        <ele>26</ele>
        <time>2018-07-18T13:19:42Z</time>
      </trkpt>
      <trkpt lat="47.77068" lon="-3.59312">
        <ele>26</ele>
        <time>2018-07-18T13:19:43Z</time>
      </trkpt>
      <trkpt lat="47.77068" lon="-3.59306">
        <ele>26</ele>
        <time>2018-07-18T13:19:44Z</time>
      </trkpt>
      <trkpt lat="47.77069" lon="-3.593">
        <ele>26</ele>
        <time>2018-07-18T13:19:45Z</time>
      </trkpt>
      <trkpt lat="47.77069" lon="-3.59294">
        <ele>26</ele>
        <time>2018-07-18T13:19:46Z</time>
      </trkpt>
      <trkpt lat="47.7707" lon="-3.59288">
        <ele>27</ele>
        <time>2018-07-18T13:19:47Z</time>
      </trkpt>
      <trkpt lat="47.77071" lon="-3.59282">
        <ele>27</ele>
        <time>2018-07-18T13:19:48Z</time>
      </trkpt>
      <trkpt lat="47.77072" lon="-3.59276">
        <ele>27</ele>
        <time>2018-07-18T13:19:49Z</time>
      </trkpt>
      <trkpt lat="47.77074" lon="-3.59269">
        <ele>27</ele>
        <time>2018-07-18T13:19:50Z</time>
      </trkpt>
      <trkpt lat="47.77075" lon="-3.59262">
        <ele>27</ele>
        <time>2018-07-18T13:19:51Z</time>
      </trkpt>
      <trkpt lat="47.77075" lon="-3.59254">
        <ele>27</ele>
        <time>2018-07-18T13:19:52Z</time>
      </trkpt>
      <trkpt lat="47.77075" lon="-3.59246">
        <ele>27</ele>
        <time>2018-07-18T13:19:53Z</time>
      </trkpt>
      <trkpt lat="47.77075" lon="-3.59237">
        <ele>27</ele>
        <time>2018-07-18T13:19:54Z</time>
      </trkpt>
      <trkpt lat="47.77076" lon="-3.59228">
        <ele>26</ele>
        <time>2018-07-18T13:19:55Z</time>
      </trkpt>
      <trkpt lat="47.77076" lon="-3.5922">
        <ele>26</ele>
        <time>2018-07-18T13:19:56Z</time>
      </trkpt>
      <trkpt lat="47.77077" lon="-3.59211">
        <ele>26</ele>
        <time>2018-07-18T13:19:57Z</time>
      </trkpt>
      <trkpt lat="47.77079" lon="-3.59202">
        <ele>26</ele>
        <time>2018-07-18T13:19:58Z</time>
      </trkpt>
      <trkpt lat="47.7708" lon="-3.59193">
        <ele>26</ele>
        <time>2018-07-18T13:19:59Z</time>
      </trkpt>
      <trkpt lat="47.77081" lon="-3.59183">
        <ele>26</ele>
        <time>2018-07-18T13:20:00Z</time>
      </trkpt>
      <trkpt lat="47.77083" lon="-3.59173">
        <ele>26</ele>
        <time>2018-07-18T13:20:01Z</time>
      </trkpt>
      <trkpt lat="47.77084" lon="-3.59163">
        <ele>26</ele>
        <time>2018-07-18T13:20:02Z</time>
      </trkpt>
      <trkpt lat="47.77085" lon="-3.59155">
        <ele>26</ele>
        <time>2018-07-18T13:20:03Z</time>
      </trkpt>
      <trkpt lat="47.77085" lon="-3.59148">
        <ele>26</ele>
        <time>2018-07-18T13:20:04Z</time>
      </trkpt>
      <trkpt lat="47.77084" lon="-3.59144">
        <ele>25</ele>
        <time>2018-07-18T13:20:05Z</time>
      </trkpt>
      <trkpt lat="47.77083" lon="-3.59143">
        <ele>25</ele>
        <time>2018-07-18T13:20:06Z</time>
      </trkpt>
      <trkpt lat="47.77081" lon="-3.59142">
        <ele>25</ele>
        <time>2018-07-18T13:20:07Z</time>
      </trkpt>
      <trkpt lat="47.7708" lon="-3.5914">
        <ele>25</ele>
        <time>2018-07-18T13:20:08Z</time>
      </trkpt>
      <trkpt lat="47.77078" lon="-3.59139">
        <ele>25</ele>
        <time>2018-07-18T13:20:09Z</time>
      </trkpt>
      <trkpt lat="47.77077" lon="-3.59138">
        <ele>25</ele>
        <time>2018-07-18T13:20:10Z</time>
      </trkpt>
      <trkpt lat="47.77075" lon="-3.59138">
        <ele>24</ele>
        <time>2018-07-18T13:20:11Z</time>
      </trkpt>
      <trkpt lat="47.77074" lon="-3.59137">
        <ele>24</ele>
        <time>2018-07-18T13:20:12Z</time>
      </trkpt>
      <trkpt lat="47.77073" lon="-3.59136">
        <ele>24</ele>
        <time>2018-07-18T13:20:13Z</time>
      </trkpt>
      <trkpt lat="47.77073" lon="-3.59136">
        <ele>24</ele>
        <time>2018-07-18T13:20:14Z</time>
      </trkpt>
      <trkpt lat="47.77073" lon="-3.59135">
        <ele>24</ele>
        <time>2018-07-18T13:20:15Z</time>
      </trkpt>
      <trkpt lat="47.77073" lon="-3.59135">
        <ele>24</ele>
        <time>2018-07-18T13:20:16Z</time>
      </trkpt>
      <trkpt lat="47.77071" lon="-3.59134">
        <ele>24</ele>
        <time>2018-07-18T13:20:17Z</time>
      </trkpt>
      <trkpt lat="47.7707" lon="-3.59133">
        <ele>24</ele>
        <time>2018-07-18T13:20:18Z</time>
      </trkpt>
      <trkpt lat="47.77068" lon="-3.59132">
        <ele>24</ele>
        <time>2018-07-18T13:20:19Z</time>
      </trkpt>
      <trkpt lat="47.77066" lon="-3.59131">
        <ele>24</ele>
        <time>2018-07-18T13:20:20Z</time>
      </trkpt>
      <trkpt lat="47.77064" lon="-3.59129">
        <ele>24</ele>
        <time>2018-07-18T13:20:21Z</time>
      </trkpt>
      <trkpt lat="47.77062" lon="-3.59128">
        <ele>24</ele>
        <time>2018-07-18T13:20:22Z</time>
      </trkpt>
      <trkpt lat="47.77059" lon="-3.59126">
        <ele>24</ele>
        <time>2018-07-18T13:20:23Z</time>
      </trkpt>
      <trkpt lat="47.77057" lon="-3.59123">
        <ele>24</ele>
        <time>2018-07-18T13:20:24Z</time>
      </trkpt>
      <trkpt lat="47.77054" lon="-3.59122">
        <ele>24</ele>
        <time>2018-07-18T13:20:25Z</time>
      </trkpt>
      <trkpt lat="47.77051" lon="-3.59119">
        <ele>24</ele>
        <time>2018-07-18T13:20:26Z</time>
      </trkpt>
      <trkpt lat="47.77048" lon="-3.59117">
        <ele>23</ele>
        <time>2018-07-18T13:20:27Z</time>
      </trkpt>
      <trkpt lat="47.77044" lon="-3.59114">
        <ele>23</ele>
        <time>2018-07-18T13:20:28Z</time>
      </trkpt>
      <trkpt lat="47.77041" lon="-3.5911">
        <ele>23</ele>
        <time>2018-07-18T13:20:29Z</time>
      </trkpt>
      <trkpt lat="47.77036" lon="-3.59106">
        <ele>23</ele>
        <time>2018-07-18T13:20:30Z</time>
      </trkpt>
      <trkpt lat="47.77031" lon="-3.59101">
        <ele>23</ele>
        <time>2018-07-18T13:20:31Z</time>
      </trkpt>
      <trkpt lat="47.77027" lon="-3.59096">
        <ele>22</ele>
        <time>2018-07-18T13:20:32Z</time>
      </trkpt>
      <trkpt lat="47.77022" lon="-3.59091">
        <ele>22</ele>
        <time>2018-07-18T13:20:33Z</time>
      </trkpt>
      <trkpt lat="47.77019" lon="-3.59085">
        <ele>22</ele>
        <time>2018-07-18T13:20:34Z</time>
      </trkpt>
      <trkpt lat="47.77015" lon="-3.59079">
        <ele>21</ele>
        <time>2018-07-18T13:20:35Z</time>
      </trkpt>
      <trkpt lat="47.77012" lon="-3.59073">
        <ele>21</ele>
        <time>2018-07-18T13:20:36Z</time>
      </trkpt>
      <trkpt lat="47.77008" lon="-3.59066">
        <ele>21</ele>
        <time>2018-07-18T13:20:37Z</time>
      </trkpt>
      <trkpt lat="47.77006" lon="-3.59059">
        <ele>21</ele>
        <time>2018-07-18T13:20:38Z</time>
      </trkpt>
      <trkpt lat="47.77003" lon="-3.59053">
        <ele>21</ele>
        <time>2018-07-18T13:20:39Z</time>
      </trkpt>
      <trkpt lat="47.77001" lon="-3.59046">
        <ele>21</ele>
        <time>2018-07-18T13:20:40Z</time>
      </trkpt>
      <trkpt lat="47.76998" lon="-3.59039">
        <ele>21</ele>
        <time>2018-07-18T13:20:41Z</time>
      </trkpt>
      <trkpt lat="47.76995" lon="-3.59033">
        <ele>21</ele>
        <time>2018-07-18T13:20:42Z</time>
      </trkpt>
      <trkpt lat="47.76992" lon="-3.59027">
        <ele>21</ele>
        <time>2018-07-18T13:20:43Z</time>
      </trkpt>
      <trkpt lat="47.7699" lon="-3.5902">
        <ele>21</ele>
        <time>2018-07-18T13:20:44Z</time>
      </trkpt>
      <trkpt lat="47.76986" lon="-3.59014">
        <ele>21</ele>
        <time>2018-07-18T13:20:45Z</time>
      </trkpt>
      <trkpt lat="47.76984" lon="-3.59007">
        <ele>21</ele>
        <time>2018-07-18T13:20:46Z</time>
      </trkpt>
      <trkpt lat="47.76981" lon="-3.59">
        <ele>20</ele>
        <time>2018-07-18T13:20:47Z</time>
      </trkpt>
      <trkpt lat="47.76978" lon="-3.58993">
        <ele>20</ele>
        <time>2018-07-18T13:20:48Z</time>
      </trkpt>
      <trkpt lat="47.76975" lon="-3.58985">
        <ele>20</ele>
        <time>2018-07-18T13:20:49Z</time>
      </trkpt>
      <trkpt lat="47.76972" lon="-3.58978">
        <ele>20</ele>
        <time>2018-07-18T13:20:50Z</time>
      </trkpt>
      <trkpt lat="47.76969" lon="-3.58971">
        <ele>20</ele>
        <time>2018-07-18T13:20:51Z</time>
      </trkpt>
      <trkpt lat="47.76966" lon="-3.58964">
        <ele>20</ele>
        <time>2018-07-18T13:20:52Z</time>
      </trkpt>
      <trkpt lat="47.76964" lon="-3.58958">
        <ele>20</ele>
        <time>2018-07-18T13:20:53Z</time>
      </trkpt>
      <trkpt lat="47.76962" lon="-3.58952">
        <ele>20</ele>
        <time>2018-07-18T13:20:54Z</time>
      </trkpt>
      <trkpt lat="47.76959" lon="-3.58945">
        <ele>20</ele>
        <time>2018-07-18T13:20:55Z</time>
      </trkpt>
      <trkpt lat="47.76957" lon="-3.58939">
        <ele>20</ele>
        <time>2018-07-18T13:20:56Z</time>
      </trkpt>
      <trkpt lat="47.76955" lon="-3.58932">
        <ele>20</ele>
        <time>2018-07-18T13:20:57Z</time>
      </trkpt>
      <trkpt lat="47.76952" lon="-3.58925">
        <ele>20</ele>
        <time>2018-07-18T13:20:58Z</time>
      </trkpt>
      <trkpt lat="47.76951" lon="-3.58917">
        <ele>20</ele>
        <time>2018-07-18T13:20:59Z</time>
      </trkpt>
      <trkpt lat="47.76949" lon="-3.5891">
        <ele>20</ele>
        <time>2018-07-18T13:21:00Z</time>
      </trkpt>
      <trkpt lat="47.76947" lon="-3.58903">
        <ele>20</ele>
        <time>2018-07-18T13:21:01Z</time>
      </trkpt>
      <trkpt lat="47.76945" lon="-3.58897">
        <ele>20</ele>
        <time>2018-07-18T13:21:02Z</time>
      </trkpt>
      <trkpt lat="47.76944" lon="-3.58891">
        <ele>20</ele>
        <time>2018-07-18T13:21:03Z</time>
      </trkpt>
      <trkpt lat="47.76942" lon="-3.58885">
        <ele>20</ele>
        <time>2018-07-18T13:21:04Z</time>
      </trkpt>
      <trkpt lat="47.76942" lon="-3.58878">
        <ele>20</ele>
        <time>2018-07-18T13:21:05Z</time>
      </trkpt>
      <trkpt lat="47.76941" lon="-3.5887">
        <ele>20</ele>
        <time>2018-07-18T13:21:06Z</time>
      </trkpt>
      <trkpt lat="47.76941" lon="-3.58863">
        <ele>19</ele>
        <time>2018-07-18T13:21:07Z</time>
      </trkpt>
      <trkpt lat="47.7694" lon="-3.58855">
        <ele>19</ele>
        <time>2018-07-18T13:21:08Z</time>
      </trkpt>
      <trkpt lat="47.7694" lon="-3.58847">
        <ele>19</ele>
        <time>2018-07-18T13:21:09Z</time>
      </trkpt>
      <trkpt lat="47.76939" lon="-3.5884">
        <ele>19</ele>
        <time>2018-07-18T13:21:10Z</time>
      </trkpt>
      <trkpt lat="47.76939" lon="-3.58833">
        <ele>18</ele>
        <time>2018-07-18T13:21:11Z</time>
      </trkpt>
      <trkpt lat="47.76938" lon="-3.58827">
        <ele>18</ele>
        <time>2018-07-18T13:21:12Z</time>
      </trkpt>
      <trkpt lat="47.76937" lon="-3.58821">
        <ele>17</ele>
        <time>2018-07-18T13:21:13Z</time>
      </trkpt>
      <trkpt lat="47.76935" lon="-3.58814">
        <ele>17</ele>
        <time>2018-07-18T13:21:14Z</time>
      </trkpt>
      <trkpt lat="47.76933" lon="-3.58809">
        <ele>16</ele>
        <time>2018-07-18T13:21:15Z</time>
      </trkpt>
      <trkpt lat="47.76931" lon="-3.58804">
        <ele>16</ele>
        <time>2018-07-18T13:21:16Z</time>
      </trkpt>
      <trkpt lat="47.76928" lon="-3.58798">
        <ele>16</ele>
        <time>2018-07-18T13:21:17Z</time>
      </trkpt>
      <trkpt lat="47.76927" lon="-3.58792">
        <ele>15</ele>
        <time>2018-07-18T13:21:18Z</time>
      </trkpt>
      <trkpt lat="47.76926" lon="-3.58788">
        <ele>15</ele>
        <time>2018-07-18T13:21:19Z</time>
      </trkpt>
      <trkpt lat="47.76926" lon="-3.58785">
        <ele>15</ele>
        <time>2018-07-18T13:21:20Z</time>
      </trkpt>
      <trkpt lat="47.76926" lon="-3.58784">
        <ele>15</ele>
        <time>2018-07-18T13:21:21Z</time>
      </trkpt>
      <trkpt lat="47.76925" lon="-3.58783">
        <ele>15</ele>
        <time>2018-07-18T13:21:22Z</time>
      </trkpt>
      <trkpt lat="47.76925" lon="-3.58783">
        <ele>15</ele>
        <time>2018-07-18T13:21:23Z</time>
      </trkpt>
      <trkpt lat="47.76925" lon="-3.58783">
        <ele>15</ele>
        <time>2018-07-18T13:21:24Z</time>
      </trkpt>
      <trkpt lat="47.76925" lon="-3.58783">
        <ele>15</ele>
        <time>2018-07-18T13:21:25Z</time>
      </trkpt>
      <trkpt lat="47.76923" lon="-3.58782">
        <ele>15</ele>
        <time>2018-07-18T13:21:26Z</time>
      </trkpt>
      <trkpt lat="47.76922" lon="-3.58782">
        <ele>15</ele>
        <time>2018-07-18T13:21:27Z</time>
      </trkpt>
      <trkpt lat="47.76919" lon="-3.58782">
        <ele>15</ele>
        <time>2018-07-18T13:21:28Z</time>
      </trkpt>
      <trkpt lat="47.76917" lon="-3.58781">
        <ele>15</ele>
        <time>2018-07-18T13:21:29Z</time>
      </trkpt>
      <trkpt lat="47.76915" lon="-3.5878">
        <ele>14</ele>
        <time>2018-07-18T13:21:30Z</time>
      </trkpt>
      <trkpt lat="47.76914" lon="-3.58777">
        <ele>14</ele>
        <time>2018-07-18T13:21:31Z</time>
      </trkpt>
      <trkpt lat="47.76914" lon="-3.58774">
        <ele>14</ele>
        <time>2018-07-18T13:21:32Z</time>
      </trkpt>
      <trkpt lat="47.76914" lon="-3.58771">
        <ele>14</ele>
        <time>2018-07-18T13:21:33Z</time>
      </trkpt>
      <trkpt lat="47.76914" lon="-3.58768">
        <ele>13</ele>
        <time>2018-07-18T13:21:34Z</time>
      </trkpt>
      <trkpt lat="47.76914" lon="-3.58765">
        <ele>13</ele>
        <time>2018-07-18T13:21:35Z</time>
      </trkpt>
      <trkpt lat="47.76913" lon="-3.58762">
        <ele>13</ele>
        <time>2018-07-18T13:21:36Z</time>
      </trkpt>
      <trkpt lat="47.76912" lon="-3.58759">
        <ele>13</ele>
        <time>2018-07-18T13:21:37Z</time>
      </trkpt>
      <trkpt lat="47.7691" lon="-3.58757">
        <ele>13</ele>
        <time>2018-07-18T13:21:38Z</time>
      </trkpt>
      <trkpt lat="47.76909" lon="-3.58754">
        <ele>13</ele>
        <time>2018-07-18T13:21:39Z</time>
      </trkpt>
      <trkpt lat="47.76909" lon="-3.58753">
        <ele>13</ele>
        <time>2018-07-18T13:21:40Z</time>
      </trkpt>
      <trkpt lat="47.76909" lon="-3.58753">
        <ele>13</ele>
        <time>2018-07-18T13:21:41Z</time>
      </trkpt>
      <trkpt lat="47.76909" lon="-3.58753">
        <ele>13</ele>
        <time>2018-07-18T13:21:42Z</time>
      </trkpt>
      <trkpt lat="47.76909" lon="-3.58753">
        <ele>13</ele>
        <time>2018-07-18T13:21:43Z</time>
      </trkpt>
      <trkpt lat="47.76908" lon="-3.58752">
        <ele>13</ele>
        <time>2018-07-18T13:21:44Z</time>
      </trkpt>
      <trkpt lat="47.76908" lon="-3.58751">
        <ele>13</ele>
        <time>2018-07-18T13:21:45Z</time>
      </trkpt>
      <trkpt lat="47.76908" lon="-3.5875">
        <ele>13</ele>
        <time>2018-07-18T13:21:46Z</time>
      </trkpt>
      <trkpt lat="47.76908" lon="-3.58749">
        <ele>13</ele>
        <time>2018-07-18T13:21:47Z</time>
      </trkpt>
      <trkpt lat="47.76908" lon="-3.58749">
        <ele>13</ele>
        <time>2018-07-18T13:21:48Z</time>
      </trkpt>
      <trkpt lat="47.76908" lon="-3.58748">
        <ele>14</ele>
        <time>2018-07-18T13:21:49Z</time>
      </trkpt>
      <trkpt lat="47.76908" lon="-3.58748">
        <ele>14</ele>
        <time>2018-07-18T13:21:50Z</time>
      </trkpt>
      <trkpt lat="47.76908" lon="-3.58747">
        <ele>14</ele>
        <time>2018-07-18T13:21:51Z</time>
      </trkpt>
      <trkpt lat="47.76909" lon="-3.58746">
        <ele>14</ele>
        <time>2018-07-18T13:21:52Z</time>
      </trkpt>
      <trkpt lat="47.76908" lon="-3.58745">
        <ele>15</ele>
        <time>2018-07-18T13:21:53Z</time>
      </trkpt>
      <trkpt lat="47.76909" lon="-3.58744">
        <ele>15</ele>
        <time>2018-07-18T13:21:54Z</time>
      </trkpt>
      <trkpt lat="47.76908" lon="-3.58743">
        <ele>15</ele>
        <time>2018-07-18T13:21:55Z</time>
      </trkpt>
      <trkpt lat="47.76908" lon="-3.58742">
        <ele>15</ele>
        <time>2018-07-18T13:21:56Z</time>
      </trkpt>
      <trkpt lat="47.76908" lon="-3.5874">
        <ele>15</ele>
        <time>2018-07-18T13:21:57Z</time>
      </trkpt>
      <trkpt lat="47.76908" lon="-3.58739">
        <ele>15</ele>
        <time>2018-07-18T13:21:58Z</time>
      </trkpt>
      <trkpt lat="47.76908" lon="-3.58739">
        <ele>15</ele>
        <time>2018-07-18T13:21:59Z</time>
      </trkpt>
      <trkpt lat="47.76908" lon="-3.58738">
        <ele>15</ele>
        <time>2018-07-18T13:22:00Z</time>
      </trkpt>
      <trkpt lat="47.76907" lon="-3.58737">
        <ele>15</ele>
        <time>2018-07-18T13:22:01Z</time>
      </trkpt>
      <trkpt lat="47.76906" lon="-3.58734">
        <ele>15</ele>
        <time>2018-07-18T13:22:02Z</time>
      </trkpt>
      <trkpt lat="47.76904" lon="-3.58731">
        <ele>15</ele>
        <time>2018-07-18T13:22:03Z</time>
      </trkpt>
      <trkpt lat="47.76903" lon="-3.58728">
        <ele>14</ele>
        <time>2018-07-18T13:22:04Z</time>
      </trkpt>
      <trkpt lat="47.76902" lon="-3.58724">
        <ele>14</ele>
        <time>2018-07-18T13:22:05Z</time>
      </trkpt>
      <trkpt lat="47.76902" lon="-3.5872">
        <ele>14</ele>
        <time>2018-07-18T13:22:06Z</time>
      </trkpt>
      <trkpt lat="47.76902" lon="-3.58717">
        <ele>14</ele>
        <time>2018-07-18T13:22:07Z</time>
      </trkpt>
      <trkpt lat="47.76903" lon="-3.58714">
        <ele>14</ele>
        <time>2018-07-18T13:22:08Z</time>
      </trkpt>
      <trkpt lat="47.76904" lon="-3.58711">
        <ele>14</ele>
        <time>2018-07-18T13:22:09Z</time>
      </trkpt>
      <trkpt lat="47.76905" lon="-3.58709">
        <ele>14</ele>
        <time>2018-07-18T13:22:10Z</time>
      </trkpt>
      <trkpt lat="47.76906" lon="-3.58706">
        <ele>14</ele>
        <time>2018-07-18T13:22:11Z</time>
      </trkpt>
      <trkpt lat="47.76907" lon="-3.58704">
        <ele>14</ele>
        <time>2018-07-18T13:22:12Z</time>
      </trkpt>
      <trkpt lat="47.76908" lon="-3.58702">
        <ele>14</ele>
        <time>2018-07-18T13:22:13Z</time>
      </trkpt>
      <trkpt lat="47.76908" lon="-3.587">
        <ele>14</ele>
        <time>2018-07-18T13:22:14Z</time>
      </trkpt>
      <trkpt lat="47.76908" lon="-3.58697">
        <ele>14</ele>
        <time>2018-07-18T13:22:15Z</time>
      </trkpt>
      <trkpt lat="47.76908" lon="-3.58695">
        <ele>14</ele>
        <time>2018-07-18T13:22:16Z</time>
      </trkpt>
      <trkpt lat="47.7691" lon="-3.58693">
        <ele>13</ele>
        <time>2018-07-18T13:22:17Z</time>
      </trkpt>
      <trkpt lat="47.76911" lon="-3.58692">
        <ele>13</ele>
        <time>2018-07-18T13:22:18Z</time>
      </trkpt>
      <trkpt lat="47.76911" lon="-3.58692">
        <ele>13</ele>
        <time>2018-07-18T13:22:19Z</time>
      </trkpt>
      <trkpt lat="47.76911" lon="-3.58692">
        <ele>13</ele>
        <time>2018-07-18T13:22:20Z</time>
      </trkpt>
      <trkpt lat="47.76912" lon="-3.58692">
        <ele>13</ele>
        <time>2018-07-18T13:22:21Z</time>
      </trkpt>
      <trkpt lat="47.76912" lon="-3.58692">
        <ele>13</ele>
        <time>2018-07-18T13:22:22Z</time>
      </trkpt>
      <trkpt lat="47.76912" lon="-3.58691">
        <ele>13</ele>
        <time>2018-07-18T13:22:23Z</time>
      </trkpt>
      <trkpt lat="47.76912" lon="-3.5869">
        <ele>13</ele>
        <time>2018-07-18T13:22:24Z</time>
      </trkpt>
      <trkpt lat="47.76912" lon="-3.58689">
        <ele>13</ele>
        <time>2018-07-18T13:22:25Z</time>
      </trkpt>
      <trkpt lat="47.76913" lon="-3.58688">
        <ele>13</ele>
        <time>2018-07-18T13:22:26Z</time>
      </trkpt>
      <trkpt lat="47.76913" lon="-3.58686">
        <ele>13</ele>
        <time>2018-07-18T13:22:27Z</time>
      </trkpt>
      <trkpt lat="47.76914" lon="-3.58685">
        <ele>13</ele>
        <time>2018-07-18T13:22:28Z</time>
      </trkpt>
      <trkpt lat="47.76915" lon="-3.58684">
        <ele>12</ele>
        <time>2018-07-18T13:22:29Z</time>
      </trkpt>
      <trkpt lat="47.76915" lon="-3.58683">
        <ele>12</ele>
        <time>2018-07-18T13:22:30Z</time>
      </trkpt>
      <trkpt lat="47.76916" lon="-3.58682">
        <ele>12</ele>
        <time>2018-07-18T13:22:31Z</time>
      </trkpt>
      <trkpt lat="47.76917" lon="-3.5868">
        <ele>12</ele>
        <time>2018-07-18T13:22:32Z</time>
      </trkpt>
      <trkpt lat="47.76919" lon="-3.58677">
        <ele>12</ele>
        <time>2018-07-18T13:22:33Z</time>
      </trkpt>
      <trkpt lat="47.7692" lon="-3.58673">
        <ele>12</ele>
        <time>2018-07-18T13:22:34Z</time>
      </trkpt>
      <trkpt lat="47.76922" lon="-3.58669">
        <ele>11</ele>
        <time>2018-07-18T13:22:35Z</time>
      </trkpt>
      <trkpt lat="47.76924" lon="-3.58665">
        <ele>11</ele>
        <time>2018-07-18T13:22:36Z</time>
      </trkpt>
      <trkpt lat="47.76925" lon="-3.58662">
        <ele>11</ele>
        <time>2018-07-18T13:22:37Z</time>
      </trkpt>
      <trkpt lat="47.76925" lon="-3.58661">
        <ele>11</ele>
        <time>2018-07-18T13:22:38Z</time>
      </trkpt>
      <trkpt lat="47.76925" lon="-3.5866">
        <ele>11</ele>
        <time>2018-07-18T13:22:39Z</time>
      </trkpt>
      <trkpt lat="47.76925" lon="-3.58659">
        <ele>10</ele>
        <time>2018-07-18T13:22:40Z</time>
      </trkpt>
      <trkpt lat="47.76925" lon="-3.58659">
        <ele>10</ele>
        <time>2018-07-18T13:22:41Z</time>
      </trkpt>
      <trkpt lat="47.76925" lon="-3.58658">
        <ele>10</ele>
        <time>2018-07-18T13:22:42Z</time>
      </trkpt>
      <trkpt lat="47.76925" lon="-3.58656">
        <ele>10</ele>
        <time>2018-07-18T13:22:43Z</time>
      </trkpt>
      <trkpt lat="47.76924" lon="-3.58655">
        <ele>9</ele>
        <time>2018-07-18T13:22:44Z</time>
      </trkpt>
      <trkpt lat="47.76923" lon="-3.58653">
        <ele>9</ele>
        <time>2018-07-18T13:22:45Z</time>
      </trkpt>
      <trkpt lat="47.76922" lon="-3.5865">
        <ele>9</ele>
        <time>2018-07-18T13:22:46Z</time>
      </trkpt>
      <trkpt lat="47.7692" lon="-3.58647">
        <ele>9</ele>
        <time>2018-07-18T13:22:47Z</time>
      </trkpt>
      <trkpt lat="47.76918" lon="-3.58643">
        <ele>9</ele>
        <time>2018-07-18T13:22:48Z</time>
      </trkpt>
      <trkpt lat="47.76915" lon="-3.5864">
        <ele>9</ele>
        <time>2018-07-18T13:22:49Z</time>
      </trkpt>
      <trkpt lat="47.76913" lon="-3.58637">
        <ele>9</ele>
        <time>2018-07-18T13:22:50Z</time>
      </trkpt>
      <trkpt lat="47.7691" lon="-3.58634">
        <ele>9</ele>
        <time>2018-07-18T13:22:51Z</time>
      </trkpt>
      <trkpt lat="47.76908" lon="-3.58632">
        <ele>9</ele>
        <time>2018-07-18T13:22:52Z</time>
      </trkpt>
      <trkpt lat="47.76906" lon="-3.58631">
        <ele>9</ele>
        <time>2018-07-18T13:22:53Z</time>
      </trkpt>
      <trkpt lat="47.76904" lon="-3.5863">
        <ele>9</ele>
        <time>2018-07-18T13:22:54Z</time>
      </trkpt>
      <trkpt lat="47.76902" lon="-3.5863">
        <ele>9</ele>
        <time>2018-07-18T13:22:55Z</time>
      </trkpt>
      <trkpt lat="47.76901" lon="-3.58629">
        <ele>9</ele>
        <time>2018-07-18T13:22:56Z</time>
      </trkpt>
      <trkpt lat="47.76899" lon="-3.58629">
        <ele>9</ele>
        <time>2018-07-18T13:22:57Z</time>
      </trkpt>
      <trkpt lat="47.76898" lon="-3.58628">
        <ele>9</ele>
        <time>2018-07-18T13:22:58Z</time>
      </trkpt>
      <trkpt lat="47.76897" lon="-3.58627">
        <ele>9</ele>
        <time>2018-07-18T13:22:59Z</time>
      </trkpt>
      <trkpt lat="47.76897" lon="-3.58627">
        <ele>9</ele>
        <time>2018-07-18T13:23:00Z</time>
      </trkpt>
      <trkpt lat="47.76897" lon="-3.58627">
        <ele>9</ele>
        <time>2018-07-18T13:23:01Z</time>
      </trkpt>
      <trkpt lat="47.76896" lon="-3.58627">
        <ele>9</ele>
        <time>2018-07-18T13:23:02Z</time>
      </trkpt>
      <trkpt lat="47.76896" lon="-3.58627">
        <ele>9</ele>
        <time>2018-07-18T13:23:03Z</time>
      </trkpt>
      <trkpt lat="47.76895" lon="-3.58627">
        <ele>9</ele>
        <time>2018-07-18T13:23:04Z</time>
      </trkpt>
      <trkpt lat="47.76895" lon="-3.58627">
        <ele>9</ele>
        <time>2018-07-18T13:23:05Z</time>
      </trkpt>
      <trkpt lat="47.76894" lon="-3.58626">
        <ele>9</ele>
        <time>2018-07-18T13:23:06Z</time>
      </trkpt>
      <trkpt lat="47.76893" lon="-3.58626">
        <ele>9</ele>
        <time>2018-07-18T13:23:07Z</time>
      </trkpt>
      <trkpt lat="47.76892" lon="-3.58626">
        <ele>9</ele>
        <time>2018-07-18T13:23:08Z</time>
      </trkpt>
      <trkpt lat="47.76892" lon="-3.58626">
        <ele>10</ele>
        <time>2018-07-18T13:23:09Z</time>
      </trkpt>
      <trkpt lat="47.7689" lon="-3.58625">
        <ele>10</ele>
        <time>2018-07-18T13:23:10Z</time>
      </trkpt>
      <trkpt lat="47.7689" lon="-3.58624">
        <ele>10</ele>
        <time>2018-07-18T13:23:11Z</time>
      </trkpt>
      <trkpt lat="47.76889" lon="-3.58623">
        <ele>10</ele>
        <time>2018-07-18T13:23:12Z</time>
      </trkpt>
      <trkpt lat="47.76889" lon="-3.58621">
        <ele>10</ele>
        <time>2018-07-18T13:23:13Z</time>
      </trkpt>
      <trkpt lat="47.76888" lon="-3.5862">
        <ele>11</ele>
        <time>2018-07-18T13:23:14Z</time>
      </trkpt>
      <trkpt lat="47.76888" lon="-3.58619">
        <ele>11</ele>
        <time>2018-07-18T13:23:15Z</time>
      </trkpt>
      <trkpt lat="47.76887" lon="-3.58618">
        <ele>11</ele>
        <time>2018-07-18T13:23:16Z</time>
      </trkpt>
      <trkpt lat="47.76887" lon="-3.58618">
        <ele>11</ele>
        <time>2018-07-18T13:23:17Z</time>
      </trkpt>
      <trkpt lat="47.76887" lon="-3.58618">
        <ele>11</ele>
        <time>2018-07-18T13:23:18Z</time>
      </trkpt>
      <trkpt lat="47.76887" lon="-3.58617">
        <ele>11</ele>
        <time>2018-07-18T13:23:19Z</time>
      </trkpt>
      <trkpt lat="47.76886" lon="-3.58616">
        <ele>11</ele>
        <time>2018-07-18T13:23:20Z</time>
      </trkpt>
      <trkpt lat="47.76886" lon="-3.58613">
        <ele>11</ele>
        <time>2018-07-18T13:23:21Z</time>
      </trkpt>
      <trkpt lat="47.76885" lon="-3.58611">
        <ele>11</ele>
        <time>2018-07-18T13:23:22Z</time>
      </trkpt>
      <trkpt lat="47.76883" lon="-3.58609">
        <ele>11</ele>
        <time>2018-07-18T13:23:23Z</time>
      </trkpt>
      <trkpt lat="47.76882" lon="-3.58607">
        <ele>11</ele>
        <time>2018-07-18T13:23:24Z</time>
      </trkpt>
      <trkpt lat="47.76881" lon="-3.58605">
        <ele>11</ele>
        <time>2018-07-18T13:23:25Z</time>
      </trkpt>
      <trkpt lat="47.7688" lon="-3.58605">
        <ele>11</ele>
        <time>2018-07-18T13:23:26Z</time>
      </trkpt>
      <trkpt lat="47.7688" lon="-3.58605">
        <ele>11</ele>
        <time>2018-07-18T13:23:27Z</time>
      </trkpt>
      <trkpt lat="47.7688" lon="-3.58605">
        <ele>11</ele>
        <time>2018-07-18T13:23:28Z</time>
      </trkpt>
      <trkpt lat="47.7688" lon="-3.58605">
        <ele>11</ele>
        <time>2018-07-18T13:23:29Z</time>
      </trkpt>
      <trkpt lat="47.7688" lon="-3.58605">
        <ele>11</ele>
        <time>2018-07-18T13:23:30Z</time>
      </trkpt>
      <trkpt lat="47.76879" lon="-3.58603">
        <ele>11</ele>
        <time>2018-07-18T13:23:31Z</time>
      </trkpt>
      <trkpt lat="47.76877" lon="-3.58602">
        <ele>11</ele>
        <time>2018-07-18T13:23:32Z</time>
      </trkpt>
      <trkpt lat="47.76876" lon="-3.58601">
        <ele>11</ele>
        <time>2018-07-18T13:23:33Z</time>
      </trkpt>
      <trkpt lat="47.76874" lon="-3.58601">
        <ele>11</ele>
        <time>2018-07-18T13:23:34Z</time>
      </trkpt>
      <trkpt lat="47.76871" lon="-3.58601">
        <ele>11</ele>
        <time>2018-07-18T13:23:35Z</time>
      </trkpt>
      <trkpt lat="47.76868" lon="-3.58602">
        <ele>11</ele>
        <time>2018-07-18T13:23:36Z</time>
      </trkpt>
      <trkpt lat="47.76865" lon="-3.58602">
        <ele>11</ele>
        <time>2018-07-18T13:23:37Z</time>
      </trkpt>
      <trkpt lat="47.76863" lon="-3.586">
        <ele>10</ele>
        <time>2018-07-18T13:23:38Z</time>
      </trkpt>
      <trkpt lat="47.76863" lon="-3.58596">
        <ele>10</ele>
        <time>2018-07-18T13:23:39Z</time>
      </trkpt>
      <trkpt lat="47.76863" lon="-3.58593">
        <ele>10</ele>
        <time>2018-07-18T13:23:40Z</time>
      </trkpt>
      <trkpt lat="47.76863" lon="-3.58589">
        <ele>10</ele>
        <time>2018-07-18T13:23:41Z</time>
      </trkpt>
      <trkpt lat="47.76863" lon="-3.58585">
        <ele>10</ele>
        <time>2018-07-18T13:23:42Z</time>
      </trkpt>
      <trkpt lat="47.76862" lon="-3.58581">
        <ele>10</ele>
        <time>2018-07-18T13:23:43Z</time>
      </trkpt>
      <trkpt lat="47.76862" lon="-3.58576">
        <ele>10</ele>
        <time>2018-07-18T13:23:44Z</time>
      </trkpt>
      <trkpt lat="47.76861" lon="-3.58572">
        <ele>10</ele>
        <time>2018-07-18T13:23:45Z</time>
      </trkpt>
      <trkpt lat="47.76861" lon="-3.58568">
        <ele>11</ele>
        <time>2018-07-18T13:23:46Z</time>
      </trkpt>
      <trkpt lat="47.7686" lon="-3.58564">
        <ele>11</ele>
        <time>2018-07-18T13:23:47Z</time>
      </trkpt>
      <trkpt lat="47.76859" lon="-3.5856">
        <ele>11</ele>
        <time>2018-07-18T13:23:48Z</time>
      </trkpt>
      <trkpt lat="47.76858" lon="-3.58555">
        <ele>11</ele>
        <time>2018-07-18T13:23:49Z</time>
      </trkpt>
      <trkpt lat="47.76856" lon="-3.58552">
        <ele>11</ele>
        <time>2018-07-18T13:23:50Z</time>
      </trkpt>
      <trkpt lat="47.76854" lon="-3.5855">
        <ele>10</ele>
        <time>2018-07-18T13:23:51Z</time>
      </trkpt>
      <trkpt lat="47.76852" lon="-3.58546">
        <ele>10</ele>
        <time>2018-07-18T13:23:52Z</time>
      </trkpt>
      <trkpt lat="47.76851" lon="-3.58541">
        <ele>10</ele>
        <time>2018-07-18T13:23:53Z</time>
      </trkpt>
      <trkpt lat="47.7685" lon="-3.58536">
        <ele>10</ele>
        <time>2018-07-18T13:23:54Z</time>
      </trkpt>
      <trkpt lat="47.7685" lon="-3.58531">
        <ele>10</ele>
        <time>2018-07-18T13:23:55Z</time>
      </trkpt>
      <trkpt lat="47.76851" lon="-3.58526">
        <ele>10</ele>
        <time>2018-07-18T13:23:56Z</time>
      </trkpt>
      <trkpt lat="47.76852" lon="-3.58521">
        <ele>10</ele>
        <time>2018-07-18T13:23:57Z</time>
      </trkpt>
      <trkpt lat="47.76854" lon="-3.58518">
        <ele>10</ele>
        <time>2018-07-18T13:23:58Z</time>
      </trkpt>
      <trkpt lat="47.76856" lon="-3.58516">
        <ele>10</ele>
        <time>2018-07-18T13:23:59Z</time>
      </trkpt>
      <trkpt lat="47.76859" lon="-3.58516">
        <ele>10</ele>
        <time>2018-07-18T13:24:00Z</time>
      </trkpt>
      <trkpt lat="47.76861" lon="-3.58515">
        <ele>10</ele>
        <time>2018-07-18T13:24:01Z</time>
      </trkpt>
      <trkpt lat="47.76864" lon="-3.58515">
        <ele>10</ele>
        <time>2018-07-18T13:24:02Z</time>
      </trkpt>
      <trkpt lat="47.76867" lon="-3.58515">
        <ele>10</ele>
        <time>2018-07-18T13:24:03Z</time>
      </trkpt>
      <trkpt lat="47.76869" lon="-3.58514">
        <ele>10</ele>
        <time>2018-07-18T13:24:04Z</time>
      </trkpt>
      <trkpt lat="47.76871" lon="-3.58511">
        <ele>10</ele>
        <time>2018-07-18T13:24:05Z</time>
      </trkpt>
      <trkpt lat="47.76872" lon="-3.58508">
        <ele>10</ele>
        <time>2018-07-18T13:24:06Z</time>
      </trkpt>
      <trkpt lat="47.76872" lon="-3.58505">
        <ele>11</ele>
        <time>2018-07-18T13:24:07Z</time>
      </trkpt>
      <trkpt lat="47.7687" lon="-3.58502">
        <ele>11</ele>
        <time>2018-07-18T13:24:08Z</time>
      </trkpt>
      <trkpt lat="47.76867" lon="-3.58498">
        <ele>11</ele>
        <time>2018-07-18T13:24:09Z</time>
      </trkpt>
      <trkpt lat="47.76866" lon="-3.58494">
        <ele>11</ele>
        <time>2018-07-18T13:24:10Z</time>
      </trkpt>
      <trkpt lat="47.76865" lon="-3.58489">
        <ele>11</ele>
        <time>2018-07-18T13:24:11Z</time>
      </trkpt>
      <trkpt lat="47.76865" lon="-3.58483">
        <ele>11</ele>
        <time>2018-07-18T13:24:12Z</time>
      </trkpt>
      <trkpt lat="47.76865" lon="-3.58478">
        <ele>11</ele>
        <time>2018-07-18T13:24:13Z</time>
      </trkpt>
      <trkpt lat="47.76866" lon="-3.58473">
        <ele>11</ele>
        <time>2018-07-18T13:24:14Z</time>
      </trkpt>
      <trkpt lat="47.76868" lon="-3.58469">
        <ele>11</ele>
        <time>2018-07-18T13:24:15Z</time>
      </trkpt>
      <trkpt lat="47.7687" lon="-3.58465">
        <ele>11</ele>
        <time>2018-07-18T13:24:16Z</time>
      </trkpt>
      <trkpt lat="47.76872" lon="-3.58461">
        <ele>11</ele>
        <time>2018-07-18T13:24:17Z</time>
      </trkpt>
      <trkpt lat="47.76874" lon="-3.58457">
        <ele>11</ele>
        <time>2018-07-18T13:24:18Z</time>
      </trkpt>
      <trkpt lat="47.76876" lon="-3.58452">
        <ele>11</ele>
        <time>2018-07-18T13:24:19Z</time>
      </trkpt>
      <trkpt lat="47.76877" lon="-3.58448">
        <ele>11</ele>
        <time>2018-07-18T13:24:20Z</time>
      </trkpt>
      <trkpt lat="47.76877" lon="-3.58442">
        <ele>11</ele>
        <time>2018-07-18T13:24:21Z</time>
      </trkpt>
      <trkpt lat="47.76877" lon="-3.58437">
        <ele>11</ele>
        <time>2018-07-18T13:24:22Z</time>
      </trkpt>
      <trkpt lat="47.76877" lon="-3.58433">
        <ele>11</ele>
        <time>2018-07-18T13:24:23Z</time>
      </trkpt>
      <trkpt lat="47.76876" lon="-3.58429">
        <ele>10</ele>
        <time>2018-07-18T13:24:24Z</time>
      </trkpt>
      <trkpt lat="47.76875" lon="-3.58425">
        <ele>10</ele>
        <time>2018-07-18T13:24:25Z</time>
      </trkpt>
      <trkpt lat="47.76873" lon="-3.58421">
        <ele>9</ele>
        <time>2018-07-18T13:24:26Z</time>
      </trkpt>
      <trkpt lat="47.76871" lon="-3.58418">
        <ele>9</ele>
        <time>2018-07-18T13:24:27Z</time>
      </trkpt>
      <trkpt lat="47.76868" lon="-3.58416">
        <ele>9</ele>
        <time>2018-07-18T13:24:28Z</time>
      </trkpt>
      <trkpt lat="47.76866" lon="-3.58413">
        <ele>8</ele>
        <time>2018-07-18T13:24:29Z</time>
      </trkpt>
      <trkpt lat="47.76864" lon="-3.58408">
        <ele>8</ele>
        <time>2018-07-18T13:24:30Z</time>
      </trkpt>
      <trkpt lat="47.76862" lon="-3.58404">
        <ele>8</ele>
        <time>2018-07-18T13:24:31Z</time>
      </trkpt>
      <trkpt lat="47.7686" lon="-3.584">
        <ele>8</ele>
        <time>2018-07-18T13:24:32Z</time>
      </trkpt>
      <trkpt lat="47.76857" lon="-3.58396">
        <ele>8</ele>
        <time>2018-07-18T13:24:33Z</time>
      </trkpt>
      <trkpt lat="47.76856" lon="-3.58392">
        <ele>8</ele>
        <time>2018-07-18T13:24:34Z</time>
      </trkpt>
      <trkpt lat="47.76854" lon="-3.58389">
        <ele>9</ele>
        <time>2018-07-18T13:24:35Z</time>
      </trkpt>
      <trkpt lat="47.76852" lon="-3.58386">
        <ele>9</ele>
        <time>2018-07-18T13:24:36Z</time>
      </trkpt>
      <trkpt lat="47.7685" lon="-3.58382">
        <ele>9</ele>
        <time>2018-07-18T13:24:37Z</time>
      </trkpt>
      <trkpt lat="47.76849" lon="-3.58378">
        <ele>10</ele>
        <time>2018-07-18T13:24:38Z</time>
      </trkpt>
      <trkpt lat="47.76849" lon="-3.58375">
        <ele>10</ele>
        <time>2018-07-18T13:24:39Z</time>
      </trkpt>
      <trkpt lat="47.7685" lon="-3.58372">
        <ele>10</ele>
        <time>2018-07-18T13:24:40Z</time>
      </trkpt>
      <trkpt lat="47.76851" lon="-3.58368">
        <ele>11</ele>
        <time>2018-07-18T13:24:41Z</time>
      </trkpt>
      <trkpt lat="47.76852" lon="-3.58365">
        <ele>11</ele>
        <time>2018-07-18T13:24:42Z</time>
      </trkpt>
      <trkpt lat="47.76853" lon="-3.58362">
        <ele>11</ele>
        <time>2018-07-18T13:24:43Z</time>
      </trkpt>
      <trkpt lat="47.76854" lon="-3.58358">
        <ele>12</ele>
        <time>2018-07-18T13:24:44Z</time>
      </trkpt>
      <trkpt lat="47.76856" lon="-3.58354">
        <ele>12</ele>
        <time>2018-07-18T13:24:45Z</time>
      </trkpt>
      <trkpt lat="47.76857" lon="-3.58351">
        <ele>12</ele>
        <time>2018-07-18T13:24:46Z</time>
      </trkpt>
      <trkpt lat="47.76858" lon="-3.58347">
        <ele>12</ele>
        <time>2018-07-18T13:24:47Z</time>
      </trkpt>
      <trkpt lat="47.7686" lon="-3.58343">
        <ele>13</ele>
        <time>2018-07-18T13:24:48Z</time>
      </trkpt>
      <trkpt lat="47.76861" lon="-3.58338">
        <ele>13</ele>
        <time>2018-07-18T13:24:49Z</time>
      </trkpt>
      <trkpt lat="47.76861" lon="-3.58334">
        <ele>13</ele>
        <time>2018-07-18T13:24:50Z</time>
      </trkpt>
      <trkpt lat="47.76862" lon="-3.5833">
        <ele>13</ele>
        <time>2018-07-18T13:24:51Z</time>
      </trkpt>
      <trkpt lat="47.76863" lon="-3.58327">
        <ele>13</ele>
        <time>2018-07-18T13:24:52Z</time>
      </trkpt>
      <trkpt lat="47.76863" lon="-3.58322">
        <ele>13</ele>
        <time>2018-07-18T13:24:53Z</time>
      </trkpt>
      <trkpt lat="47.76863" lon="-3.58318">
        <ele>14</ele>
        <time>2018-07-18T13:24:54Z</time>
      </trkpt>
      <trkpt lat="47.76862" lon="-3.58313">
        <ele>14</ele>
        <time>2018-07-18T13:24:55Z</time>
      </trkpt>
      <trkpt lat="47.7686" lon="-3.58309">
        <ele>14</ele>
        <time>2018-07-18T13:24:56Z</time>
      </trkpt>
      <trkpt lat="47.76858" lon="-3.58306">
        <ele>14</ele>
        <time>2018-07-18T13:24:57Z</time>
      </trkpt>
      <trkpt lat="47.76856" lon="-3.58303">
        <ele>14</ele>
        <time>2018-07-18T13:24:58Z</time>
      </trkpt>
      <trkpt lat="47.76853" lon="-3.58299">
        <ele>14</ele>
        <time>2018-07-18T13:24:59Z</time>
      </trkpt>
      <trkpt lat="47.7685" lon="-3.58296">
        <ele>14</ele>
        <time>2018-07-18T13:25:00Z</time>
      </trkpt>
      <trkpt lat="47.76848" lon="-3.58293">
        <ele>14</ele>
        <time>2018-07-18T13:25:01Z</time>
      </trkpt>
      <trkpt lat="47.76845" lon="-3.58289">
        <ele>14</ele>
        <time>2018-07-18T13:25:02Z</time>
      </trkpt>
      <trkpt lat="47.76843" lon="-3.58286">
        <ele>13</ele>
        <time>2018-07-18T13:25:03Z</time>
      </trkpt>
      <trkpt lat="47.76841" lon="-3.58283">
        <ele>13</ele>
        <time>2018-07-18T13:25:04Z</time>
      </trkpt>
      <trkpt lat="47.76839" lon="-3.58279">
        <ele>13</ele>
        <time>2018-07-18T13:25:05Z</time>
      </trkpt>
      <trkpt lat="47.76837" lon="-3.58276">
        <ele>13</ele>
        <time>2018-07-18T13:25:06Z</time>
      </trkpt>
      <trkpt lat="47.76835" lon="-3.58272">
        <ele>13</ele>
        <time>2018-07-18T13:25:07Z</time>
      </trkpt>
      <trkpt lat="47.76834" lon="-3.58268">
        <ele>13</ele>
        <time>2018-07-18T13:25:08Z</time>
      </trkpt>
      <trkpt lat="47.76833" lon="-3.58264">
        <ele>13</ele>
        <time>2018-07-18T13:25:09Z</time>
      </trkpt>
      <trkpt lat="47.76832" lon="-3.5826">
        <ele>14</ele>
        <time>2018-07-18T13:25:10Z</time>
      </trkpt>
      <trkpt lat="47.76831" lon="-3.58256">
        <ele>14</ele>
        <time>2018-07-18T13:25:11Z</time>
      </trkpt>
      <trkpt lat="47.7683" lon="-3.58252">
        <ele>14</ele>
        <time>2018-07-18T13:25:12Z</time>
      </trkpt>
      <trkpt lat="47.76829" lon="-3.58248">
        <ele>14</ele>
        <time>2018-07-18T13:25:13Z</time>
      </trkpt>
      <trkpt lat="47.76828" lon="-3.58243">
        <ele>14</ele>
        <time>2018-07-18T13:25:14Z</time>
      </trkpt>
      <trkpt lat="47.76828" lon="-3.58238">
        <ele>14</ele>
        <time>2018-07-18T13:25:15Z</time>
      </trkpt>
      <trkpt lat="47.76828" lon="-3.58233">
        <ele>14</ele>
        <time>2018-07-18T13:25:16Z</time>
      </trkpt>
      <trkpt lat="47.76827" lon="-3.58227">
        <ele>14</ele>
        <time>2018-07-18T13:25:17Z</time>
      </trkpt>
      <trkpt lat="47.76827" lon="-3.58223">
        <ele>14</ele>
        <time>2018-07-18T13:25:18Z</time>
      </trkpt>
      <trkpt lat="47.76827" lon="-3.58219">
        <ele>14</ele>
        <time>2018-07-18T13:25:19Z</time>
      </trkpt>
      <trkpt lat="47.76827" lon="-3.58217">
        <ele>14</ele>
        <time>2018-07-18T13:25:20Z</time>
      </trkpt>
      <trkpt lat="47.76827" lon="-3.58216">
        <ele>14</ele>
        <time>2018-07-18T13:25:21Z</time>
      </trkpt>
      <trkpt lat="47.76827" lon="-3.58216">
        <ele>14</ele>
        <time>2018-07-18T13:25:22Z</time>
      </trkpt>
      <trkpt lat="47.76827" lon="-3.58216">
        <ele>14</ele>
        <time>2018-07-18T13:25:23Z</time>
      </trkpt>
      <trkpt lat="47.76827" lon="-3.58216">
        <ele>14</ele>
        <time>2018-07-18T13:25:24Z</time>
      </trkpt>
      <trkpt lat="47.76827" lon="-3.58215">
        <ele>14</ele>
        <time>2018-07-18T13:25:25Z</time>
      </trkpt>
      <trkpt lat="47.76827" lon="-3.58213">
        <ele>14</ele>
        <time>2018-07-18T13:25:26Z</time>
      </trkpt>
      <trkpt lat="47.76827" lon="-3.58212">
        <ele>14</ele>
        <time>2018-07-18T13:25:27Z</time>
      </trkpt>
      <trkpt lat="47.76828" lon="-3.5821">
        <ele>14</ele>
        <time>2018-07-18T13:25:28Z</time>
      </trkpt>
      <trkpt lat="47.76829" lon="-3.58209">
        <ele>14</ele>
        <time>2018-07-18T13:25:29Z</time>
      </trkpt>
      <trkpt lat="47.76829" lon="-3.58207">
        <ele>14</ele>
        <time>2018-07-18T13:25:30Z</time>
      </trkpt>
      <trkpt lat="47.76828" lon="-3.58206">
        <ele>14</ele>
        <time>2018-07-18T13:25:31Z</time>
      </trkpt>
      <trkpt lat="47.76828" lon="-3.58206">
        <ele>14</ele>
        <time>2018-07-18T13:25:32Z</time>
      </trkpt>
      <trkpt lat="47.76828" lon="-3.58205">
        <ele>14</ele>
        <time>2018-07-18T13:25:33Z</time>
      </trkpt>
      <trkpt lat="47.76828" lon="-3.58205">
        <ele>14</ele>
        <time>2018-07-18T13:25:34Z</time>
      </trkpt>
      <trkpt lat="47.76828" lon="-3.58205">
        <ele>14</ele>
        <time>2018-07-18T13:25:35Z</time>
      </trkpt>
      <trkpt lat="47.76827" lon="-3.58204">
        <ele>14</ele>
        <time>2018-07-18T13:25:36Z</time>
      </trkpt>
      <trkpt lat="47.76827" lon="-3.58202">
        <ele>14</ele>
        <time>2018-07-18T13:25:37Z</time>
      </trkpt>
      <trkpt lat="47.76826" lon="-3.58199">
        <ele>14</ele>
        <time>2018-07-18T13:25:38Z</time>
      </trkpt>
      <trkpt lat="47.76825" lon="-3.58196">
        <ele>14</ele>
        <time>2018-07-18T13:25:39Z</time>
      </trkpt>
      <trkpt lat="47.76824" lon="-3.58192">
        <ele>14</ele>
        <time>2018-07-18T13:25:40Z</time>
      </trkpt>
      <trkpt lat="47.76822" lon="-3.58187">
        <ele>14</ele>
        <time>2018-07-18T13:25:41Z</time>
      </trkpt>
      <trkpt lat="47.76821" lon="-3.58183">
        <ele>14</ele>
        <time>2018-07-18T13:25:42Z</time>
      </trkpt>
      <trkpt lat="47.7682" lon="-3.58178">
        <ele>14</ele>
        <time>2018-07-18T13:25:43Z</time>
      </trkpt>
      <trkpt lat="47.76819" lon="-3.58173">
        <ele>14</ele>
        <time>2018-07-18T13:25:44Z</time>
      </trkpt>
      <trkpt lat="47.76818" lon="-3.58168">
        <ele>14</ele>
        <time>2018-07-18T13:25:45Z</time>
      </trkpt>
      <trkpt lat="47.76817" lon="-3.58163">
        <ele>14</ele>
        <time>2018-07-18T13:25:46Z</time>
      </trkpt>
      <trkpt lat="47.76817" lon="-3.58158">
        <ele>14</ele>
        <time>2018-07-18T13:25:47Z</time>
      </trkpt>
      <trkpt lat="47.76816" lon="-3.58153">
        <ele>15</ele>
        <time>2018-07-18T13:25:48Z</time>
      </trkpt>
      <trkpt lat="47.76816" lon="-3.58147">
        <ele>15</ele>
        <time>2018-07-18T13:25:49Z</time>
      </trkpt>
      <trkpt lat="47.76815" lon="-3.58141">
        <ele>15</ele>
        <time>2018-07-18T13:25:50Z</time>
      </trkpt>
      <trkpt lat="47.76814" lon="-3.58136">
        <ele>15</ele>
        <time>2018-07-18T13:25:51Z</time>
      </trkpt>
      <trkpt lat="47.76814" lon="-3.58131">
        <ele>15</ele>
        <time>2018-07-18T13:25:52Z</time>
      </trkpt>
      <trkpt lat="47.76814" lon="-3.58125">
        <ele>15</ele>
        <time>2018-07-18T13:25:53Z</time>
      </trkpt>
      <trkpt lat="47.76814" lon="-3.5812">
        <ele>15</ele>
        <time>2018-07-18T13:25:54Z</time>
      </trkpt>
      <trkpt lat="47.76813" lon="-3.58114">
        <ele>15</ele>
        <time>2018-07-18T13:25:55Z</time>
      </trkpt>
      <trkpt lat="47.76813" lon="-3.58108">
        <ele>15</ele>
        <time>2018-07-18T13:25:56Z</time>
      </trkpt>
      <trkpt lat="47.76813" lon="-3.58102">
        <ele>15</ele>
        <time>2018-07-18T13:25:57Z</time>
      </trkpt>
      <trkpt lat="47.76813" lon="-3.58097">
        <ele>15</ele>
        <time>2018-07-18T13:25:58Z</time>
      </trkpt>
      <trkpt lat="47.76813" lon="-3.58091">
        <ele>15</ele>
        <time>2018-07-18T13:25:59Z</time>
      </trkpt>
      <trkpt lat="47.76813" lon="-3.58084">
        <ele>16</ele>
        <time>2018-07-18T13:26:00Z</time>
      </trkpt>
      <trkpt lat="47.76813" lon="-3.58078">
        <ele>16</ele>
        <time>2018-07-18T13:26:01Z</time>
      </trkpt>
      <trkpt lat="47.76813" lon="-3.58072">
        <ele>16</ele>
        <time>2018-07-18T13:26:02Z</time>
      </trkpt>
      <trkpt lat="47.76813" lon="-3.58065">
        <ele>16</ele>
        <time>2018-07-18T13:26:03Z</time>
      </trkpt>
      <trkpt lat="47.76814" lon="-3.58059">
        <ele>16</ele>
        <time>2018-07-18T13:26:04Z</time>
      </trkpt>
      <trkpt lat="47.76814" lon="-3.58053">
        <ele>16</ele>
        <time>2018-07-18T13:26:05Z</time>
      </trkpt>
      <trkpt lat="47.76815" lon="-3.58046">
        <ele>16</ele>
        <time>2018-07-18T13:26:06Z</time>
      </trkpt>
      <trkpt lat="47.76815" lon="-3.58041">
        <ele>16</ele>
        <time>2018-07-18T13:26:07Z</time>
      </trkpt>
      <trkpt lat="47.76816" lon="-3.58035">
        <ele>16</ele>
        <time>2018-07-18T13:26:08Z</time>
      </trkpt>
      <trkpt lat="47.76817" lon="-3.58029">
        <ele>16</ele>
        <time>2018-07-18T13:26:09Z</time>
      </trkpt>
      <trkpt lat="47.76817" lon="-3.58023">
        <ele>16</ele>
        <time>2018-07-18T13:26:10Z</time>
      </trkpt>
      <trkpt lat="47.76818" lon="-3.58017">
        <ele>15</ele>
        <time>2018-07-18T13:26:11Z</time>
      </trkpt>
      <trkpt lat="47.76818" lon="-3.58012">
        <ele>15</ele>
        <time>2018-07-18T13:26:12Z</time>
      </trkpt>
      <trkpt lat="47.76819" lon="-3.58006">
        <ele>15</ele>
        <time>2018-07-18T13:26:13Z</time>
      </trkpt>
      <trkpt lat="47.76819" lon="-3.58">
        <ele>15</ele>
        <time>2018-07-18T13:26:14Z</time>
      </trkpt>
      <trkpt lat="47.7682" lon="-3.57995">
        <ele>15</ele>
        <time>2018-07-18T13:26:15Z</time>
      </trkpt>
      <trkpt lat="47.76821" lon="-3.5799">
        <ele>15</ele>
        <time>2018-07-18T13:26:16Z</time>
      </trkpt>
      <trkpt lat="47.76823" lon="-3.57984">
        <ele>15</ele>
        <time>2018-07-18T13:26:17Z</time>
      </trkpt>
      <trkpt lat="47.76824" lon="-3.5798">
        <ele>15</ele>
        <time>2018-07-18T13:26:18Z</time>
      </trkpt>
      <trkpt lat="47.76826" lon="-3.57976">
        <ele>15</ele>
        <time>2018-07-18T13:26:19Z</time>
      </trkpt>
      <trkpt lat="47.76827" lon="-3.57973">
        <ele>15</ele>
        <time>2018-07-18T13:26:20Z</time>
      </trkpt>
      <trkpt lat="47.76828" lon="-3.57972">
        <ele>15</ele>
        <time>2018-07-18T13:26:21Z</time>
      </trkpt>
      <trkpt lat="47.76828" lon="-3.57972">
        <ele>15</ele>
        <time>2018-07-18T13:26:22Z</time>
      </trkpt>
      <trkpt lat="47.76828" lon="-3.57971">
        <ele>15</ele>
        <time>2018-07-18T13:26:23Z</time>
      </trkpt>
      <trkpt lat="47.76828" lon="-3.57971">
        <ele>15</ele>
        <time>2018-07-18T13:26:24Z</time>
      </trkpt>
      <trkpt lat="47.76828" lon="-3.57971">
        <ele>15</ele>
        <time>2018-07-18T13:26:25Z</time>
      </trkpt>
      <trkpt lat="47.7683" lon="-3.5797">
        <ele>15</ele>
        <time>2018-07-18T13:26:26Z</time>
      </trkpt>
      <trkpt lat="47.76831" lon="-3.57967">
        <ele>14</ele>
        <time>2018-07-18T13:26:27Z</time>
      </trkpt>
      <trkpt lat="47.76833" lon="-3.57965">
        <ele>14</ele>
        <time>2018-07-18T13:26:28Z</time>
      </trkpt>
      <trkpt lat="47.76835" lon="-3.57962">
        <ele>14</ele>
        <time>2018-07-18T13:26:29Z</time>
      </trkpt>
      <trkpt lat="47.76837" lon="-3.57958">
        <ele>14</ele>
        <time>2018-07-18T13:26:30Z</time>
      </trkpt>
      <trkpt lat="47.76839" lon="-3.57955">
        <ele>14</ele>
        <time>2018-07-18T13:26:31Z</time>
      </trkpt>
      <trkpt lat="47.76842" lon="-3.57952">
        <ele>14</ele>
        <time>2018-07-18T13:26:32Z</time>
      </trkpt>
      <trkpt lat="47.76846" lon="-3.57949">
        <ele>14</ele>
        <time>2018-07-18T13:26:33Z</time>
      </trkpt>
      <trkpt lat="47.7685" lon="-3.57947">
        <ele>14</ele>
        <time>2018-07-18T13:26:34Z</time>
      </trkpt>
      <trkpt lat="47.76855" lon="-3.57946">
        <ele>14</ele>
        <time>2018-07-18T13:26:35Z</time>
      </trkpt>
      <trkpt lat="47.7686" lon="-3.57944">
        <ele>14</ele>
        <time>2018-07-18T13:26:36Z</time>
      </trkpt>
      <trkpt lat="47.76866" lon="-3.57941">
        <ele>14</ele>
        <time>2018-07-18T13:26:37Z</time>
      </trkpt>
      <trkpt lat="47.76872" lon="-3.57937">
        <ele>14</ele>
        <time>2018-07-18T13:26:38Z</time>
      </trkpt>
      <trkpt lat="47.76877" lon="-3.57931">
        <ele>14</ele>
        <time>2018-07-18T13:26:39Z</time>
      </trkpt>
      <trkpt lat="47.76882" lon="-3.57925">
        <ele>14</ele>
        <time>2018-07-18T13:26:40Z</time>
      </trkpt>
      <trkpt lat="47.76887" lon="-3.57918">
        <ele>13</ele>
        <time>2018-07-18T13:26:41Z</time>
      </trkpt>
      <trkpt lat="47.76891" lon="-3.5791">
        <ele>13</ele>
        <time>2018-07-18T13:26:42Z</time>
      </trkpt>
      <trkpt lat="47.76894" lon="-3.57901">
        <ele>12</ele>
        <time>2018-07-18T13:26:43Z</time>
      </trkpt>
      <trkpt lat="47.76896" lon="-3.57892">
        <ele>12</ele>
        <time>2018-07-18T13:26:44Z</time>
      </trkpt>
      <trkpt lat="47.76895" lon="-3.57884">
        <ele>11</ele>
        <time>2018-07-18T13:26:45Z</time>
      </trkpt>
      <trkpt lat="47.76893" lon="-3.57876">
        <ele>11</ele>
        <time>2018-07-18T13:26:46Z</time>
      </trkpt>
      <trkpt lat="47.76891" lon="-3.57872">
        <ele>11</ele>
        <time>2018-07-18T13:26:47Z</time>
      </trkpt>
      <trkpt lat="47.76888" lon="-3.5787">
        <ele>11</ele>
        <time>2018-07-18T13:26:48Z</time>
      </trkpt>
      <trkpt lat="47.76885" lon="-3.57868">
        <ele>10</ele>
        <time>2018-07-18T13:26:49Z</time>
      </trkpt>
      <trkpt lat="47.76882" lon="-3.57867">
        <ele>10</ele>
        <time>2018-07-18T13:26:50Z</time>
      </trkpt>
      <trkpt lat="47.76879" lon="-3.57865">
        <ele>10</ele>
        <time>2018-07-18T13:26:51Z</time>
      </trkpt>
      <trkpt lat="47.76876" lon="-3.57864">
        <ele>10</ele>
        <time>2018-07-18T13:26:52Z</time>
      </trkpt>
      <trkpt lat="47.76874" lon="-3.57863">
        <ele>10</ele>
        <time>2018-07-18T13:26:53Z</time>
      </trkpt>
      <trkpt lat="47.76872" lon="-3.57861">
        <ele>10</ele>
        <time>2018-07-18T13:26:54Z</time>
      </trkpt>
      <trkpt lat="47.7687" lon="-3.5786">
        <ele>9</ele>
        <time>2018-07-18T13:26:55Z</time>
      </trkpt>
      <trkpt lat="47.76867" lon="-3.57858">
        <ele>9</ele>
        <time>2018-07-18T13:26:56Z</time>
      </trkpt>
      <trkpt lat="47.76865" lon="-3.57856">
        <ele>9</ele>
        <time>2018-07-18T13:26:57Z</time>
      </trkpt>
      <trkpt lat="47.76862" lon="-3.57854">
        <ele>9</ele>
        <time>2018-07-18T13:26:58Z</time>
      </trkpt>
      <trkpt lat="47.7686" lon="-3.57852">
        <ele>9</ele>
        <time>2018-07-18T13:26:59Z</time>
      </trkpt>
      <trkpt lat="47.76858" lon="-3.5785">
        <ele>9</ele>
        <time>2018-07-18T13:27:00Z</time>
      </trkpt>
      <trkpt lat="47.76856" lon="-3.57847">
        <ele>10</ele>
        <time>2018-07-18T13:27:01Z</time>
      </trkpt>
      <trkpt lat="47.76854" lon="-3.57844">
        <ele>10</ele>
        <time>2018-07-18T13:27:02Z</time>
      </trkpt>
      <trkpt lat="47.76853" lon="-3.57841">
        <ele>10</ele>
        <time>2018-07-18T13:27:03Z</time>
      </trkpt>
      <trkpt lat="47.76852" lon="-3.57837">
        <ele>10</ele>
        <time>2018-07-18T13:27:04Z</time>
      </trkpt>
      <trkpt lat="47.7685" lon="-3.57834">
        <ele>10</ele>
        <time>2018-07-18T13:27:05Z</time>
      </trkpt>
      <trkpt lat="47.7685" lon="-3.5783">
        <ele>10</ele>
        <time>2018-07-18T13:27:06Z</time>
      </trkpt>
      <trkpt lat="47.7685" lon="-3.57826">
        <ele>10</ele>
        <time>2018-07-18T13:27:07Z</time>
      </trkpt>
      <trkpt lat="47.76849" lon="-3.57822">
        <ele>10</ele>
        <time>2018-07-18T13:27:08Z</time>
      </trkpt>
      <trkpt lat="47.76848" lon="-3.5782">
        <ele>11</ele>
        <time>2018-07-18T13:27:09Z</time>
      </trkpt>
      <trkpt lat="47.76847" lon="-3.57816">
        <ele>11</ele>
        <time>2018-07-18T13:27:10Z</time>
      </trkpt>
      <trkpt lat="47.76847" lon="-3.57812">
        <ele>11</ele>
        <time>2018-07-18T13:27:11Z</time>
      </trkpt>
      <trkpt lat="47.76847" lon="-3.57809">
        <ele>11</ele>
        <time>2018-07-18T13:27:12Z</time>
      </trkpt>
      <trkpt lat="47.76847" lon="-3.57805">
        <ele>11</ele>
        <time>2018-07-18T13:27:13Z</time>
      </trkpt>
      <trkpt lat="47.76847" lon="-3.57801">
        <ele>11</ele>
        <time>2018-07-18T13:27:14Z</time>
      </trkpt>
      <trkpt lat="47.76847" lon="-3.57797">
        <ele>11</ele>
        <time>2018-07-18T13:27:15Z</time>
      </trkpt>
      <trkpt lat="47.76848" lon="-3.57793">
        <ele>11</ele>
        <time>2018-07-18T13:27:16Z</time>
      </trkpt>
      <trkpt lat="47.7685" lon="-3.5779">
        <ele>11</ele>
        <time>2018-07-18T13:27:17Z</time>
      </trkpt>
      <trkpt lat="47.76851" lon="-3.57787">
        <ele>11</ele>
        <time>2018-07-18T13:27:18Z</time>
      </trkpt>
      <trkpt lat="47.76853" lon="-3.57784">
        <ele>11</ele>
        <time>2018-07-18T13:27:19Z</time>
      </trkpt>
      <trkpt lat="47.76854" lon="-3.57781">
        <ele>12</ele>
        <time>2018-07-18T13:27:20Z</time>
      </trkpt>
      <trkpt lat="47.76856" lon="-3.57778">
        <ele>12</ele>
        <time>2018-07-18T13:27:21Z</time>
      </trkpt>
      <trkpt lat="47.76857" lon="-3.57775">
        <ele>12</ele>
        <time>2018-07-18T13:27:22Z</time>
      </trkpt>
      <trkpt lat="47.76859" lon="-3.57772">
        <ele>12</ele>
        <time>2018-07-18T13:27:23Z</time>
      </trkpt>
      <trkpt lat="47.7686" lon="-3.57769">
        <ele>12</ele>
        <time>2018-07-18T13:27:24Z</time>
      </trkpt>
      <trkpt lat="47.76862" lon="-3.57766">
        <ele>12</ele>
        <time>2018-07-18T13:27:25Z</time>
      </trkpt>
      <trkpt lat="47.76863" lon="-3.57763">
        <ele>13</ele>
        <time>2018-07-18T13:27:26Z</time>
      </trkpt>
      <trkpt lat="47.76865" lon="-3.5776">
        <ele>13</ele>
        <time>2018-07-18T13:27:27Z</time>
      </trkpt>
      <trkpt lat="47.76867" lon="-3.57759">
        <ele>13</ele>
        <time>2018-07-18T13:27:28Z</time>
      </trkpt>
      <trkpt lat="47.76869" lon="-3.57757">
        <ele>13</ele>
        <time>2018-07-18T13:27:29Z</time>
      </trkpt>
      <trkpt lat="47.76871" lon="-3.57755">
        <ele>13</ele>
        <time>2018-07-18T13:27:30Z</time>
      </trkpt>
      <trkpt lat="47.76873" lon="-3.57753">
        <ele>14</ele>
        <time>2018-07-18T13:27:31Z</time>
      </trkpt>
      <trkpt lat="47.76876" lon="-3.57751">
        <ele>14</ele>
        <time>2018-07-18T13:27:32Z</time>
      </trkpt>
      <trkpt lat="47.76877" lon="-3.57748">
        <ele>14</ele>
        <time>2018-07-18T13:27:33Z</time>
      </trkpt>
      <trkpt lat="47.76877" lon="-3.57746">
        <ele>14</ele>
        <time>2018-07-18T13:27:34Z</time>
      </trkpt>
      <trkpt lat="47.76877" lon="-3.57746">
        <ele>14</ele>
        <time>2018-07-18T13:27:35Z</time>
      </trkpt>
      <trkpt lat="47.76878" lon="-3.57745">
        <ele>14</ele>
        <time>2018-07-18T13:27:36Z</time>
      </trkpt>
      <trkpt lat="47.76878" lon="-3.57745">
        <ele>14</ele>
        <time>2018-07-18T13:27:37Z</time>
      </trkpt>
      <trkpt lat="47.76878" lon="-3.57745">
        <ele>14</ele>
        <time>2018-07-18T13:27:38Z</time>
      </trkpt>
      <trkpt lat="47.76882" lon="-3.57745">
        <ele>14</ele>
        <time>2018-07-18T13:27:39Z</time>
      </trkpt>
      <trkpt lat="47.76883" lon="-3.57745">
        <ele>14</ele>
        <time>2018-07-18T13:27:40Z</time>
      </trkpt>
      <trkpt lat="47.76885" lon="-3.57745">
        <ele>15</ele>
        <time>2018-07-18T13:27:41Z</time>
      </trkpt>
      <trkpt lat="47.76887" lon="-3.57744">
        <ele>15</ele>
        <time>2018-07-18T13:27:42Z</time>
      </trkpt>
      <trkpt lat="47.76887" lon="-3.57744">
        <ele>15</ele>
        <time>2018-07-18T13:27:43Z</time>
      </trkpt>
      <trkpt lat="47.76891" lon="-3.57741">
        <ele>15</ele>
        <time>2018-07-18T13:27:44Z</time>
      </trkpt>
      <trkpt lat="47.76893" lon="-3.5774">
        <ele>15</ele>
        <time>2018-07-18T13:27:45Z</time>
      </trkpt>
      <trkpt lat="47.76895" lon="-3.5774">
        <ele>15</ele>
        <time>2018-07-18T13:27:46Z</time>
      </trkpt>
      <trkpt lat="47.76896" lon="-3.57739">
        <ele>15</ele>
        <time>2018-07-18T13:27:47Z</time>
      </trkpt>
      <trkpt lat="47.76899" lon="-3.57738">
        <ele>15</ele>
        <time>2018-07-18T13:27:48Z</time>
      </trkpt>
      <trkpt lat="47.769" lon="-3.57737">
        <ele>16</ele>
        <time>2018-07-18T13:27:49Z</time>
      </trkpt>
      <trkpt lat="47.769" lon="-3.57737">
        <ele>16</ele>
        <time>2018-07-18T13:27:50Z</time>
      </trkpt>
      <trkpt lat="47.76903" lon="-3.57734">
        <ele>16</ele>
        <time>2018-07-18T13:27:51Z</time>
      </trkpt>
      <trkpt lat="47.76905" lon="-3.57732">
        <ele>16</ele>
        <time>2018-07-18T13:27:52Z</time>
      </trkpt>
      <trkpt lat="47.76907" lon="-3.5773">
        <ele>16</ele>
        <time>2018-07-18T13:27:53Z</time>
      </trkpt>
      <trkpt lat="47.76909" lon="-3.57729">
        <ele>16</ele>
        <time>2018-07-18T13:27:54Z</time>
      </trkpt>
      <trkpt lat="47.7691" lon="-3.57728">
        <ele>17</ele>
        <time>2018-07-18T13:27:55Z</time>
      </trkpt>
      <trkpt lat="47.7691" lon="-3.57728">
        <ele>17</ele>
        <time>2018-07-18T13:27:56Z</time>
      </trkpt>
      <trkpt lat="47.76914" lon="-3.57724">
        <ele>17</ele>
        <time>2018-07-18T13:27:57Z</time>
      </trkpt>
      <trkpt lat="47.76915" lon="-3.57721">
        <ele>17</ele>
        <time>2018-07-18T13:27:58Z</time>
      </trkpt>
      <trkpt lat="47.76917" lon="-3.57717">
        <ele>17</ele>
        <time>2018-07-18T13:27:59Z</time>
      </trkpt>
      <trkpt lat="47.76916" lon="-3.57712">
        <ele>17</ele>
        <time>2018-07-18T13:28:00Z</time>
      </trkpt>
      <trkpt lat="47.76916" lon="-3.57707">
        <ele>17</ele>
        <time>2018-07-18T13:28:01Z</time>
      </trkpt>
      <trkpt lat="47.76915" lon="-3.57703">
        <ele>17</ele>
        <time>2018-07-18T13:28:02Z</time>
      </trkpt>
      <trkpt lat="47.76914" lon="-3.57699">
        <ele>17</ele>
        <time>2018-07-18T13:28:03Z</time>
      </trkpt>
      <trkpt lat="47.76913" lon="-3.57694">
        <ele>17</ele>
        <time>2018-07-18T13:28:04Z</time>
      </trkpt>
      <trkpt lat="47.76913" lon="-3.57689">
        <ele>17</ele>
        <time>2018-07-18T13:28:05Z</time>
      </trkpt>
      <trkpt lat="47.76914" lon="-3.57684">
        <ele>17</ele>
        <time>2018-07-18T13:28:06Z</time>
      </trkpt>
      <trkpt lat="47.76915" lon="-3.57677">
        <ele>17</ele>
        <time>2018-07-18T13:28:07Z</time>
      </trkpt>
      <trkpt lat="47.76916" lon="-3.5767">
        <ele>17</ele>
        <time>2018-07-18T13:28:08Z</time>
      </trkpt>
      <trkpt lat="47.76918" lon="-3.57663">
        <ele>17</ele>
        <time>2018-07-18T13:28:09Z</time>
      </trkpt>
      <trkpt lat="47.76919" lon="-3.57656">
        <ele>17</ele>
        <time>2018-07-18T13:28:10Z</time>
      </trkpt>
      <trkpt lat="47.76921" lon="-3.57649">
        <ele>17</ele>
        <time>2018-07-18T13:28:11Z</time>
      </trkpt>
      <trkpt lat="47.76923" lon="-3.57642">
        <ele>17</ele>
        <time>2018-07-18T13:28:12Z</time>
      </trkpt>
      <trkpt lat="47.76923" lon="-3.57642">
        <ele>17</ele>
        <time>2018-07-18T13:28:13Z</time>
      </trkpt>
      <trkpt lat="47.76926" lon="-3.57631">
        <ele>17</ele>
        <time>2018-07-18T13:28:14Z</time>
      </trkpt>
      <trkpt lat="47.76926" lon="-3.57625">
        <ele>17</ele>
        <time>2018-07-18T13:28:15Z</time>
      </trkpt>
      <trkpt lat="47.76927" lon="-3.5762">
        <ele>18</ele>
        <time>2018-07-18T13:28:16Z</time>
      </trkpt>
      <trkpt lat="47.76927" lon="-3.57615">
        <ele>18</ele>
        <time>2018-07-18T13:28:17Z</time>
      </trkpt>
      <trkpt lat="47.76928" lon="-3.5761">
        <ele>18</ele>
        <time>2018-07-18T13:28:18Z</time>
      </trkpt>
      <trkpt lat="47.76929" lon="-3.57605">
        <ele>18</ele>
        <time>2018-07-18T13:28:19Z</time>
      </trkpt>
      <trkpt lat="47.76929" lon="-3.57599">
        <ele>18</ele>
        <time>2018-07-18T13:28:20Z</time>
      </trkpt>
      <trkpt lat="47.76929" lon="-3.57599">
        <ele>18</ele>
        <time>2018-07-18T13:28:21Z</time>
      </trkpt>
      <trkpt lat="47.76932" lon="-3.57586">
        <ele>18</ele>
        <time>2018-07-18T13:28:22Z</time>
      </trkpt>
      <trkpt lat="47.76932" lon="-3.57586">
        <ele>18</ele>
        <time>2018-07-18T13:28:23Z</time>
      </trkpt>
      <trkpt lat="47.76934" lon="-3.57572">
        <ele>17</ele>
        <time>2018-07-18T13:28:24Z</time>
      </trkpt>
      <trkpt lat="47.76936" lon="-3.57565">
        <ele>17</ele>
        <time>2018-07-18T13:28:25Z</time>
      </trkpt>
      <trkpt lat="47.76937" lon="-3.57558">
        <ele>17</ele>
        <time>2018-07-18T13:28:26Z</time>
      </trkpt>
      <trkpt lat="47.76939" lon="-3.5755">
        <ele>17</ele>
        <time>2018-07-18T13:28:27Z</time>
      </trkpt>
      <trkpt lat="47.76939" lon="-3.5755">
        <ele>17</ele>
        <time>2018-07-18T13:28:28Z</time>
      </trkpt>
      <trkpt lat="47.76941" lon="-3.57543">
        <ele>17</ele>
        <time>2018-07-18T13:28:29Z</time>
      </trkpt>
      <trkpt lat="47.76944" lon="-3.5753">
        <ele>17</ele>
        <time>2018-07-18T13:28:30Z</time>
      </trkpt>
      <trkpt lat="47.76946" lon="-3.57524">
        <ele>17</ele>
        <time>2018-07-18T13:28:31Z</time>
      </trkpt>
      <trkpt lat="47.76947" lon="-3.57518">
        <ele>17</ele>
        <time>2018-07-18T13:28:32Z</time>
      </trkpt>
      <trkpt lat="47.76949" lon="-3.57512">
        <ele>17</ele>
        <time>2018-07-18T13:28:33Z</time>
      </trkpt>
      <trkpt lat="47.76949" lon="-3.57512">
        <ele>17</ele>
        <time>2018-07-18T13:28:34Z</time>
      </trkpt>
      <trkpt lat="47.76952" lon="-3.575">
        <ele>17</ele>
        <time>2018-07-18T13:28:35Z</time>
      </trkpt>
      <trkpt lat="47.76955" lon="-3.57494">
        <ele>17</ele>
        <time>2018-07-18T13:28:36Z</time>
      </trkpt>
      <trkpt lat="47.76958" lon="-3.5749">
        <ele>17</ele>
        <time>2018-07-18T13:28:37Z</time>
      </trkpt>
      <trkpt lat="47.7696" lon="-3.57485">
        <ele>17</ele>
        <time>2018-07-18T13:28:38Z</time>
      </trkpt>
      <trkpt lat="47.76963" lon="-3.5748">
        <ele>17</ele>
        <time>2018-07-18T13:28:39Z</time>
      </trkpt>
      <trkpt lat="47.76965" lon="-3.57474">
        <ele>17</ele>
        <time>2018-07-18T13:28:40Z</time>
      </trkpt>
      <trkpt lat="47.76965" lon="-3.57474">
        <ele>17</ele>
        <time>2018-07-18T13:28:41Z</time>
      </trkpt>
      <trkpt lat="47.76966" lon="-3.57461">
        <ele>17</ele>
        <time>2018-07-18T13:28:42Z</time>
      </trkpt>
      <trkpt lat="47.76964" lon="-3.57455">
        <ele>17</ele>
        <time>2018-07-18T13:28:43Z</time>
      </trkpt>
      <trkpt lat="47.76961" lon="-3.57449">
        <ele>16</ele>
        <time>2018-07-18T13:28:44Z</time>
      </trkpt>
      <trkpt lat="47.76959" lon="-3.57442">
        <ele>16</ele>
        <time>2018-07-18T13:28:45Z</time>
      </trkpt>
      <trkpt lat="47.76957" lon="-3.57435">
        <ele>16</ele>
        <time>2018-07-18T13:28:46Z</time>
      </trkpt>
      <trkpt lat="47.76957" lon="-3.57435">
        <ele>16</ele>
        <time>2018-07-18T13:28:47Z</time>
      </trkpt>
      <trkpt lat="47.76957" lon="-3.5742">
        <ele>16</ele>
        <time>2018-07-18T13:28:48Z</time>
      </trkpt>
      <trkpt lat="47.76959" lon="-3.57413">
        <ele>16</ele>
        <time>2018-07-18T13:28:49Z</time>
      </trkpt>
      <trkpt lat="47.76959" lon="-3.57406">
        <ele>16</ele>
        <time>2018-07-18T13:28:50Z</time>
      </trkpt>
      <trkpt lat="47.7696" lon="-3.57399">
        <ele>16</ele>
        <time>2018-07-18T13:28:51Z</time>
      </trkpt>
      <trkpt lat="47.7696" lon="-3.57391">
        <ele>15</ele>
        <time>2018-07-18T13:28:52Z</time>
      </trkpt>
      <trkpt lat="47.76961" lon="-3.57384">
        <ele>15</ele>
        <time>2018-07-18T13:28:53Z</time>
      </trkpt>
      <trkpt lat="47.76962" lon="-3.57378">
        <ele>15</ele>
        <time>2018-07-18T13:28:54Z</time>
      </trkpt>
      <trkpt lat="47.76965" lon="-3.57374">
        <ele>14</ele>
        <time>2018-07-18T13:28:55Z</time>
      </trkpt>
      <trkpt lat="47.76968" lon="-3.5737">
        <ele>14</ele>
        <time>2018-07-18T13:28:56Z</time>
      </trkpt>
      <trkpt lat="47.76969" lon="-3.57367">
        <ele>14</ele>
        <time>2018-07-18T13:28:57Z</time>
      </trkpt>
      <trkpt lat="47.76971" lon="-3.57365">
        <ele>14</ele>
        <time>2018-07-18T13:28:58Z</time>
      </trkpt>
      <trkpt lat="47.76973" lon="-3.57362">
        <ele>13</ele>
        <time>2018-07-18T13:28:59Z</time>
      </trkpt>
      <trkpt lat="47.76975" lon="-3.5736">
        <ele>13</ele>
        <time>2018-07-18T13:29:00Z</time>
      </trkpt>
      <trkpt lat="47.76977" lon="-3.5736">
        <ele>13</ele>
        <time>2018-07-18T13:29:01Z</time>
      </trkpt>
      <trkpt lat="47.76979" lon="-3.57361">
        <ele>13</ele>
        <time>2018-07-18T13:29:02Z</time>
      </trkpt>
      <trkpt lat="47.76981" lon="-3.57363">
        <ele>13</ele>
        <time>2018-07-18T13:29:03Z</time>
      </trkpt>
      <trkpt lat="47.76981" lon="-3.57363">
        <ele>13</ele>
        <time>2018-07-18T13:29:04Z</time>
      </trkpt>
      <trkpt lat="47.76983" lon="-3.57363">
        <ele>12</ele>
        <time>2018-07-18T13:29:05Z</time>
      </trkpt>
      <trkpt lat="47.76983" lon="-3.57363">
        <ele>12</ele>
        <time>2018-07-18T13:29:06Z</time>
      </trkpt>
      <trkpt lat="47.76983" lon="-3.57363">
        <ele>12</ele>
        <time>2018-07-18T13:29:07Z</time>
      </trkpt>
      <trkpt lat="47.76983" lon="-3.57363">
        <ele>12</ele>
        <time>2018-07-18T13:29:08Z</time>
      </trkpt>
      <trkpt lat="47.76985" lon="-3.57363">
        <ele>12</ele>
        <time>2018-07-18T13:29:09Z</time>
      </trkpt>
      <trkpt lat="47.76987" lon="-3.57363">
        <ele>12</ele>
        <time>2018-07-18T13:29:10Z</time>
      </trkpt>
      <trkpt lat="47.76988" lon="-3.57363">
        <ele>12</ele>
        <time>2018-07-18T13:29:11Z</time>
      </trkpt>
      <trkpt lat="47.7699" lon="-3.57363">
        <ele>12</ele>
        <time>2018-07-18T13:29:12Z</time>
      </trkpt>
      <trkpt lat="47.76991" lon="-3.57364">
        <ele>12</ele>
        <time>2018-07-18T13:29:13Z</time>
      </trkpt>
      <trkpt lat="47.76993" lon="-3.57363">
        <ele>12</ele>
        <time>2018-07-18T13:29:14Z</time>
      </trkpt>
      <trkpt lat="47.76995" lon="-3.57363">
        <ele>12</ele>
        <time>2018-07-18T13:29:15Z</time>
      </trkpt>
      <trkpt lat="47.76997" lon="-3.57363">
        <ele>12</ele>
        <time>2018-07-18T13:29:16Z</time>
      </trkpt>
      <trkpt lat="47.76999" lon="-3.57363">
        <ele>13</ele>
        <time>2018-07-18T13:29:17Z</time>
      </trkpt>
      <trkpt lat="47.77001" lon="-3.57364">
        <ele>13</ele>
        <time>2018-07-18T13:29:18Z</time>
      </trkpt>
      <trkpt lat="47.77003" lon="-3.57364">
        <ele>13</ele>
        <time>2018-07-18T13:29:19Z</time>
      </trkpt>
      <trkpt lat="47.77006" lon="-3.57364">
        <ele>13</ele>
        <time>2018-07-18T13:29:20Z</time>
      </trkpt>
      <trkpt lat="47.77008" lon="-3.57364">
        <ele>14</ele>
        <time>2018-07-18T13:29:21Z</time>
      </trkpt>
      <trkpt lat="47.7701" lon="-3.57364">
        <ele>14</ele>
        <time>2018-07-18T13:29:22Z</time>
      </trkpt>
      <trkpt lat="47.77012" lon="-3.57364">
        <ele>14</ele>
        <time>2018-07-18T13:29:23Z</time>
      </trkpt>
      <trkpt lat="47.77014" lon="-3.57364">
        <ele>14</ele>
        <time>2018-07-18T13:29:24Z</time>
      </trkpt>
      <trkpt lat="47.77016" lon="-3.57364">
        <ele>14</ele>
        <time>2018-07-18T13:29:25Z</time>
      </trkpt>
      <trkpt lat="47.77018" lon="-3.57364">
        <ele>14</ele>
        <time>2018-07-18T13:29:26Z</time>
      </trkpt>
      <trkpt lat="47.7702" lon="-3.57364">
        <ele>15</ele>
        <time>2018-07-18T13:29:27Z</time>
      </trkpt>
      <trkpt lat="47.77022" lon="-3.57364">
        <ele>15</ele>
        <time>2018-07-18T13:29:28Z</time>
      </trkpt>
      <trkpt lat="47.77024" lon="-3.57364">
        <ele>15</ele>
        <time>2018-07-18T13:29:29Z</time>
      </trkpt>
      <trkpt lat="47.77026" lon="-3.57365">
        <ele>15</ele>
        <time>2018-07-18T13:29:30Z</time>
      </trkpt>
      <trkpt lat="47.77028" lon="-3.57366">
        <ele>15</ele>
        <time>2018-07-18T13:29:31Z</time>
      </trkpt>
      <trkpt lat="47.7703" lon="-3.57366">
        <ele>16</ele>
        <time>2018-07-18T13:29:32Z</time>
      </trkpt>
      <trkpt lat="47.77032" lon="-3.57367">
        <ele>16</ele>
        <time>2018-07-18T13:29:33Z</time>
      </trkpt>
      <trkpt lat="47.77034" lon="-3.57368">
        <ele>16</ele>
        <time>2018-07-18T13:29:34Z</time>
      </trkpt>
      <trkpt lat="47.77036" lon="-3.5737">
        <ele>16</ele>
        <time>2018-07-18T13:29:35Z</time>
      </trkpt>
      <trkpt lat="47.77038" lon="-3.57371">
        <ele>16</ele>
        <time>2018-07-18T13:29:36Z</time>
      </trkpt>
      <trkpt lat="47.7704" lon="-3.57373">
        <ele>16</ele>
        <time>2018-07-18T13:29:37Z</time>
      </trkpt>
      <trkpt lat="47.77041" lon="-3.57373">
        <ele>17</ele>
        <time>2018-07-18T13:29:38Z</time>
      </trkpt>
      <trkpt lat="47.77043" lon="-3.57375">
        <ele>17</ele>
        <time>2018-07-18T13:29:39Z</time>
      </trkpt>
      <trkpt lat="47.77045" lon="-3.57376">
        <ele>17</ele>
        <time>2018-07-18T13:29:40Z</time>
      </trkpt>
      <trkpt lat="47.77047" lon="-3.57378">
        <ele>17</ele>
        <time>2018-07-18T13:29:41Z</time>
      </trkpt>
      <trkpt lat="47.77049" lon="-3.57379">
        <ele>17</ele>
        <time>2018-07-18T13:29:42Z</time>
      </trkpt>
      <trkpt lat="47.7705" lon="-3.5738">
        <ele>17</ele>
        <time>2018-07-18T13:29:43Z</time>
      </trkpt>
      <trkpt lat="47.77051" lon="-3.57381">
        <ele>17</ele>
        <time>2018-07-18T13:29:44Z</time>
      </trkpt>
      <trkpt lat="47.77053" lon="-3.57382">
        <ele>17</ele>
        <time>2018-07-18T13:29:45Z</time>
      </trkpt>
      <trkpt lat="47.77054" lon="-3.57383">
        <ele>17</ele>
        <time>2018-07-18T13:29:46Z</time>
      </trkpt>
      <trkpt lat="47.77056" lon="-3.57384">
        <ele>17</ele>
        <time>2018-07-18T13:29:47Z</time>
      </trkpt>
      <trkpt lat="47.77058" lon="-3.57385">
        <ele>17</ele>
        <time>2018-07-18T13:29:48Z</time>
      </trkpt>
      <trkpt lat="47.77059" lon="-3.57386">
        <ele>17</ele>
        <time>2018-07-18T13:29:49Z</time>
      </trkpt>
      <trkpt lat="47.7706" lon="-3.57387">
        <ele>17</ele>
        <time>2018-07-18T13:29:50Z</time>
      </trkpt>
      <trkpt lat="47.77061" lon="-3.57388">
        <ele>17</ele>
        <time>2018-07-18T13:29:51Z</time>
      </trkpt>
      <trkpt lat="47.77063" lon="-3.57389">
        <ele>18</ele>
        <time>2018-07-18T13:29:52Z</time>
      </trkpt>
      <trkpt lat="47.77064" lon="-3.57391">
        <ele>18</ele>
        <time>2018-07-18T13:29:53Z</time>
      </trkpt>
      <trkpt lat="47.77066" lon="-3.57392">
        <ele>18</ele>
        <time>2018-07-18T13:29:54Z</time>
      </trkpt>
      <trkpt lat="47.77068" lon="-3.57393">
        <ele>18</ele>
        <time>2018-07-18T13:29:55Z</time>
      </trkpt>
      <trkpt lat="47.77069" lon="-3.57395">
        <ele>18</ele>
        <time>2018-07-18T13:29:56Z</time>
      </trkpt>
      <trkpt lat="47.77071" lon="-3.57396">
        <ele>18</ele>
        <time>2018-07-18T13:29:57Z</time>
      </trkpt>
      <trkpt lat="47.77072" lon="-3.57398">
        <ele>18</ele>
        <time>2018-07-18T13:29:58Z</time>
      </trkpt>
      <trkpt lat="47.77074" lon="-3.57399">
        <ele>18</ele>
        <time>2018-07-18T13:29:59Z</time>
      </trkpt>
      <trkpt lat="47.77076" lon="-3.57401">
        <ele>18</ele>
        <time>2018-07-18T13:30:00Z</time>
      </trkpt>
      <trkpt lat="47.77078" lon="-3.57402">
        <ele>18</ele>
        <time>2018-07-18T13:30:01Z</time>
      </trkpt>
      <trkpt lat="47.7708" lon="-3.57404">
        <ele>19</ele>
        <time>2018-07-18T13:30:02Z</time>
      </trkpt>
      <trkpt lat="47.77082" lon="-3.57405">
        <ele>19</ele>
        <time>2018-07-18T13:30:03Z</time>
      </trkpt>
      <trkpt lat="47.77084" lon="-3.57407">
        <ele>19</ele>
        <time>2018-07-18T13:30:04Z</time>
      </trkpt>
      <trkpt lat="47.77086" lon="-3.57408">
        <ele>19</ele>
        <time>2018-07-18T13:30:05Z</time>
      </trkpt>
      <trkpt lat="47.77088" lon="-3.57409">
        <ele>19</ele>
        <time>2018-07-18T13:30:06Z</time>
      </trkpt>
      <trkpt lat="47.7709" lon="-3.5741">
        <ele>20</ele>
        <time>2018-07-18T13:30:07Z</time>
      </trkpt>
      <trkpt lat="47.77092" lon="-3.57411">
        <ele>20</ele>
        <time>2018-07-18T13:30:08Z</time>
      </trkpt>
      <trkpt lat="47.77094" lon="-3.57412">
        <ele>20</ele>
        <time>2018-07-18T13:30:09Z</time>
      </trkpt>
      <trkpt lat="47.77096" lon="-3.57413">
        <ele>21</ele>
        <time>2018-07-18T13:30:10Z</time>
      </trkpt>
      <trkpt lat="47.77098" lon="-3.57413">
        <ele>21</ele>
        <time>2018-07-18T13:30:11Z</time>
      </trkpt>
      <trkpt lat="47.771" lon="-3.57414">
        <ele>21</ele>
        <time>2018-07-18T13:30:12Z</time>
      </trkpt>
      <trkpt lat="47.77102" lon="-3.57414">
        <ele>22</ele>
        <time>2018-07-18T13:30:13Z</time>
      </trkpt>
      <trkpt lat="47.77104" lon="-3.57414">
        <ele>22</ele>
        <time>2018-07-18T13:30:14Z</time>
      </trkpt>
      <trkpt lat="47.77106" lon="-3.57415">
        <ele>22</ele>
        <time>2018-07-18T13:30:15Z</time>
      </trkpt>
      <trkpt lat="47.77108" lon="-3.57415">
        <ele>22</ele>
        <time>2018-07-18T13:30:16Z</time>
      </trkpt>
      <trkpt lat="47.7711" lon="-3.57416">
        <ele>23</ele>
        <time>2018-07-18T13:30:17Z</time>
      </trkpt>
      <trkpt lat="47.77112" lon="-3.57416">
        <ele>23</ele>
        <time>2018-07-18T13:30:18Z</time>
      </trkpt>
      <trkpt lat="47.77115" lon="-3.57416">
        <ele>23</ele>
        <time>2018-07-18T13:30:19Z</time>
      </trkpt>
      <trkpt lat="47.77117" lon="-3.57417">
        <ele>24</ele>
        <time>2018-07-18T13:30:20Z</time>
      </trkpt>
      <trkpt lat="47.77119" lon="-3.57418">
        <ele>24</ele>
        <time>2018-07-18T13:30:21Z</time>
      </trkpt>
      <trkpt lat="47.77122" lon="-3.57418">
        <ele>24</ele>
        <time>2018-07-18T13:30:22Z</time>
      </trkpt>
      <trkpt lat="47.77124" lon="-3.57417">
        <ele>25</ele>
        <time>2018-07-18T13:30:23Z</time>
      </trkpt>
      <trkpt lat="47.77125" lon="-3.57416">
        <ele>25</ele>
        <time>2018-07-18T13:30:24Z</time>
      </trkpt>
      <trkpt lat="47.77127" lon="-3.57415">
        <ele>25</ele>
        <time>2018-07-18T13:30:25Z</time>
      </trkpt>
      <trkpt lat="47.77128" lon="-3.57415">
        <ele>25</ele>
        <time>2018-07-18T13:30:26Z</time>
      </trkpt>
      <trkpt lat="47.77128" lon="-3.57415">
        <ele>25</ele>
        <time>2018-07-18T13:30:27Z</time>
      </trkpt>
      <trkpt lat="47.77128" lon="-3.57415">
        <ele>26</ele>
        <time>2018-07-18T13:30:28Z</time>
      </trkpt>
      <trkpt lat="47.77128" lon="-3.57415">
        <ele>26</ele>
        <time>2018-07-18T13:30:29Z</time>
      </trkpt>
      <trkpt lat="47.77129" lon="-3.57415">
        <ele>26</ele>
        <time>2018-07-18T13:30:30Z</time>
      </trkpt>
      <trkpt lat="47.7713" lon="-3.57414">
        <ele>26</ele>
        <time>2018-07-18T13:30:31Z</time>
      </trkpt>
      <trkpt lat="47.77132" lon="-3.57413">
        <ele>26</ele>
        <time>2018-07-18T13:30:32Z</time>
      </trkpt>
      <trkpt lat="47.77134" lon="-3.57413">
        <ele>26</ele>
        <time>2018-07-18T13:30:33Z</time>
      </trkpt>
      <trkpt lat="47.77136" lon="-3.57413">
        <ele>26</ele>
        <time>2018-07-18T13:30:34Z</time>
      </trkpt>
      <trkpt lat="47.77139" lon="-3.57413">
        <ele>26</ele>
        <time>2018-07-18T13:30:35Z</time>
      </trkpt>
      <trkpt lat="47.77141" lon="-3.57413">
        <ele>27</ele>
        <time>2018-07-18T13:30:36Z</time>
      </trkpt>
      <trkpt lat="47.77143" lon="-3.57414">
        <ele>27</ele>
        <time>2018-07-18T13:30:37Z</time>
      </trkpt>
      <trkpt lat="47.77145" lon="-3.57416">
        <ele>27</ele>
        <time>2018-07-18T13:30:38Z</time>
      </trkpt>
      <trkpt lat="47.77147" lon="-3.57417">
        <ele>27</ele>
        <time>2018-07-18T13:30:39Z</time>
      </trkpt>
      <trkpt lat="47.77148" lon="-3.57418">
        <ele>28</ele>
        <time>2018-07-18T13:30:40Z</time>
      </trkpt>
      <trkpt lat="47.77149" lon="-3.57419">
        <ele>28</ele>
        <time>2018-07-18T13:30:41Z</time>
      </trkpt>
      <trkpt lat="47.7715" lon="-3.5742">
        <ele>28</ele>
        <time>2018-07-18T13:30:42Z</time>
      </trkpt>
      <trkpt lat="47.7715" lon="-3.5742">
        <ele>28</ele>
        <time>2018-07-18T13:30:43Z</time>
      </trkpt>
      <trkpt lat="47.77151" lon="-3.5742">
        <ele>28</ele>
        <time>2018-07-18T13:30:44Z</time>
      </trkpt>
      <trkpt lat="47.77151" lon="-3.5742">
        <ele>28</ele>
        <time>2018-07-18T13:30:45Z</time>
      </trkpt>
      <trkpt lat="47.77151" lon="-3.5742">
        <ele>28</ele>
        <time>2018-07-18T13:30:46Z</time>
      </trkpt>
      <trkpt lat="47.77152" lon="-3.57419">
        <ele>29</ele>
        <time>2018-07-18T13:30:47Z</time>
      </trkpt>
      <trkpt lat="47.77152" lon="-3.57418">
        <ele>29</ele>
        <time>2018-07-18T13:30:48Z</time>
      </trkpt>
      <trkpt lat="47.77153" lon="-3.57416">
        <ele>29</ele>
        <time>2018-07-18T13:30:49Z</time>
      </trkpt>
      <trkpt lat="47.77154" lon="-3.57412">
        <ele>29</ele>
        <time>2018-07-18T13:30:50Z</time>
      </trkpt>
      <trkpt lat="47.77154" lon="-3.57409">
        <ele>29</ele>
        <time>2018-07-18T13:30:51Z</time>
      </trkpt>
      <trkpt lat="47.77154" lon="-3.57405">
        <ele>29</ele>
        <time>2018-07-18T13:30:52Z</time>
      </trkpt>
      <trkpt lat="47.77153" lon="-3.57402">
        <ele>29</ele>
        <time>2018-07-18T13:30:53Z</time>
      </trkpt>
      <trkpt lat="47.77153" lon="-3.57398">
        <ele>29</ele>
        <time>2018-07-18T13:30:54Z</time>
      </trkpt>
      <trkpt lat="47.77152" lon="-3.57393">
        <ele>29</ele>
        <time>2018-07-18T13:30:55Z</time>
      </trkpt>
      <trkpt lat="47.77152" lon="-3.57388">
        <ele>29</ele>
        <time>2018-07-18T13:30:56Z</time>
      </trkpt>
      <trkpt lat="47.77152" lon="-3.57382">
        <ele>29</ele>
        <time>2018-07-18T13:30:57Z</time>
      </trkpt>
      <trkpt lat="47.77152" lon="-3.57376">
        <ele>28</ele>
        <time>2018-07-18T13:30:58Z</time>
      </trkpt>
      <trkpt lat="47.77154" lon="-3.5737">
        <ele>28</ele>
        <time>2018-07-18T13:30:59Z</time>
      </trkpt>
      <trkpt lat="47.77156" lon="-3.57365">
        <ele>28</ele>
        <time>2018-07-18T13:31:00Z</time>
      </trkpt>
      <trkpt lat="47.77158" lon="-3.57359">
        <ele>28</ele>
        <time>2018-07-18T13:31:01Z</time>
      </trkpt>
      <trkpt lat="47.77162" lon="-3.57355">
        <ele>28</ele>
        <time>2018-07-18T13:31:02Z</time>
      </trkpt>
      <trkpt lat="47.77166" lon="-3.57351">
        <ele>28</ele>
        <time>2018-07-18T13:31:03Z</time>
      </trkpt>
      <trkpt lat="47.7717" lon="-3.57348">
        <ele>28</ele>
        <time>2018-07-18T13:31:04Z</time>
      </trkpt>
      <trkpt lat="47.77174" lon="-3.57344">
        <ele>27</ele>
        <time>2018-07-18T13:31:05Z</time>
      </trkpt>
      <trkpt lat="47.77179" lon="-3.57342">
        <ele>27</ele>
        <time>2018-07-18T13:31:06Z</time>
      </trkpt>
      <trkpt lat="47.77185" lon="-3.5734">
        <ele>27</ele>
        <time>2018-07-18T13:31:07Z</time>
      </trkpt>
      <trkpt lat="47.7719" lon="-3.57339">
        <ele>27</ele>
        <time>2018-07-18T13:31:08Z</time>
      </trkpt>
      <trkpt lat="47.77194" lon="-3.57339">
        <ele>27</ele>
        <time>2018-07-18T13:31:09Z</time>
      </trkpt>
      <trkpt lat="47.772" lon="-3.57338">
        <ele>27</ele>
        <time>2018-07-18T13:31:10Z</time>
      </trkpt>
      <trkpt lat="47.77205" lon="-3.57337">
        <ele>27</ele>
        <time>2018-07-18T13:31:11Z</time>
      </trkpt>
      <trkpt lat="47.77211" lon="-3.57336">
        <ele>27</ele>
        <time>2018-07-18T13:31:12Z</time>
      </trkpt>
      <trkpt lat="47.77216" lon="-3.57335">
        <ele>27</ele>
        <time>2018-07-18T13:31:13Z</time>
      </trkpt>
      <trkpt lat="47.77221" lon="-3.57335">
        <ele>27</ele>
        <time>2018-07-18T13:31:14Z</time>
      </trkpt>
      <trkpt lat="47.77226" lon="-3.57335">
        <ele>27</ele>
        <time>2018-07-18T13:31:15Z</time>
      </trkpt>
      <trkpt lat="47.7723" lon="-3.57334">
        <ele>27</ele>
        <time>2018-07-18T13:31:16Z</time>
      </trkpt>
      <trkpt lat="47.77234" lon="-3.57335">
        <ele>27</ele>
        <time>2018-07-18T13:31:17Z</time>
      </trkpt>
      <trkpt lat="47.77239" lon="-3.57336">
        <ele>27</ele>
        <time>2018-07-18T13:31:18Z</time>
      </trkpt>
      <trkpt lat="47.77243" lon="-3.57337">
        <ele>27</ele>
        <time>2018-07-18T13:31:19Z</time>
      </trkpt>
      <trkpt lat="47.77248" lon="-3.57337">
        <ele>27</ele>
        <time>2018-07-18T13:31:20Z</time>
      </trkpt>
      <trkpt lat="47.77255" lon="-3.57337">
        <ele>27</ele>
        <time>2018-07-18T13:31:21Z</time>
      </trkpt>
      <trkpt lat="47.7726" lon="-3.57337">
        <ele>27</ele>
        <time>2018-07-18T13:31:22Z</time>
      </trkpt>
      <trkpt lat="47.77266" lon="-3.57338">
        <ele>27</ele>
        <time>2018-07-18T13:31:23Z</time>
      </trkpt>
      <trkpt lat="47.77271" lon="-3.57339">
        <ele>27</ele>
        <time>2018-07-18T13:31:24Z</time>
      </trkpt>
      <trkpt lat="47.77276" lon="-3.57339">
        <ele>27</ele>
        <time>2018-07-18T13:31:25Z</time>
      </trkpt>
      <trkpt lat="47.7728" lon="-3.57336">
        <ele>27</ele>
        <time>2018-07-18T13:31:26Z</time>
      </trkpt>
      <trkpt lat="47.77283" lon="-3.57333">
        <ele>27</ele>
        <time>2018-07-18T13:31:27Z</time>
      </trkpt>
      <trkpt lat="47.77286" lon="-3.57328">
        <ele>27</ele>
        <time>2018-07-18T13:31:28Z</time>
      </trkpt>
      <trkpt lat="47.77286" lon="-3.57325">
        <ele>27</ele>
        <time>2018-07-18T13:31:29Z</time>
      </trkpt>
      <trkpt lat="47.77287" lon="-3.57322">
        <ele>27</ele>
        <time>2018-07-18T13:31:30Z</time>
      </trkpt>
      <trkpt lat="47.77287" lon="-3.5732">
        <ele>27</ele>
        <time>2018-07-18T13:31:31Z</time>
      </trkpt>
      <trkpt lat="47.77288" lon="-3.57317">
        <ele>27</ele>
        <time>2018-07-18T13:31:32Z</time>
      </trkpt>
      <trkpt lat="47.77289" lon="-3.57315">
        <ele>27</ele>
        <time>2018-07-18T13:31:33Z</time>
      </trkpt>
      <trkpt lat="47.77289" lon="-3.57313">
        <ele>26</ele>
        <time>2018-07-18T13:31:34Z</time>
      </trkpt>
      <trkpt lat="47.7729" lon="-3.57313">
        <ele>26</ele>
        <time>2018-07-18T13:31:35Z</time>
      </trkpt>
      <trkpt lat="47.7729" lon="-3.57312">
        <ele>26</ele>
        <time>2018-07-18T13:31:36Z</time>
      </trkpt>
      <trkpt lat="47.7729" lon="-3.57312">
        <ele>26</ele>
        <time>2018-07-18T13:31:37Z</time>
      </trkpt>
      <trkpt lat="47.7729" lon="-3.57311">
        <ele>26</ele>
        <time>2018-07-18T13:31:38Z</time>
      </trkpt>
      <trkpt lat="47.77293" lon="-3.57309">
        <ele>26</ele>
        <time>2018-07-18T13:31:39Z</time>
      </trkpt>
      <trkpt lat="47.77294" lon="-3.57309">
        <ele>26</ele>
        <time>2018-07-18T13:31:40Z</time>
      </trkpt>
      <trkpt lat="47.77295" lon="-3.57308">
        <ele>26</ele>
        <time>2018-07-18T13:31:41Z</time>
      </trkpt>
      <trkpt lat="47.77296" lon="-3.57308">
        <ele>26</ele>
        <time>2018-07-18T13:31:42Z</time>
      </trkpt>
      <trkpt lat="47.77297" lon="-3.57308">
        <ele>26</ele>
        <time>2018-07-18T13:31:43Z</time>
      </trkpt>
      <trkpt lat="47.77298" lon="-3.57308">
        <ele>26</ele>
        <time>2018-07-18T13:31:44Z</time>
      </trkpt>
      <trkpt lat="47.77299" lon="-3.57308">
        <ele>26</ele>
        <time>2018-07-18T13:31:45Z</time>
      </trkpt>
      <trkpt lat="47.773" lon="-3.57309">
        <ele>26</ele>
        <time>2018-07-18T13:31:46Z</time>
      </trkpt>
      <trkpt lat="47.77301" lon="-3.57309">
        <ele>26</ele>
        <time>2018-07-18T13:31:47Z</time>
      </trkpt>
      <trkpt lat="47.77302" lon="-3.5731">
        <ele>26</ele>
        <time>2018-07-18T13:31:48Z</time>
      </trkpt>
      <trkpt lat="47.77303" lon="-3.5731">
        <ele>26</ele>
        <time>2018-07-18T13:31:49Z</time>
      </trkpt>
      <trkpt lat="47.77305" lon="-3.57311">
        <ele>26</ele>
        <time>2018-07-18T13:31:50Z</time>
      </trkpt>
      <trkpt lat="47.77307" lon="-3.57312">
        <ele>26</ele>
        <time>2018-07-18T13:31:51Z</time>
      </trkpt>
      <trkpt lat="47.77309" lon="-3.57313">
        <ele>26</ele>
        <time>2018-07-18T13:31:52Z</time>
      </trkpt>
      <trkpt lat="47.7731" lon="-3.57314">
        <ele>26</ele>
        <time>2018-07-18T13:31:53Z</time>
      </trkpt>
      <trkpt lat="47.77312" lon="-3.57316">
        <ele>27</ele>
        <time>2018-07-18T13:31:54Z</time>
      </trkpt>
      <trkpt lat="47.77313" lon="-3.57317">
        <ele>27</ele>
        <time>2018-07-18T13:31:55Z</time>
      </trkpt>
      <trkpt lat="47.77315" lon="-3.57317">
        <ele>26</ele>
        <time>2018-07-18T13:31:56Z</time>
      </trkpt>
      <trkpt lat="47.77316" lon="-3.57318">
        <ele>26</ele>
        <time>2018-07-18T13:31:57Z</time>
      </trkpt>
      <trkpt lat="47.77317" lon="-3.57318">
        <ele>26</ele>
        <time>2018-07-18T13:31:58Z</time>
      </trkpt>
      <trkpt lat="47.77319" lon="-3.57318">
        <ele>26</ele>
        <time>2018-07-18T13:31:59Z</time>
      </trkpt>
      <trkpt lat="47.77321" lon="-3.57318">
        <ele>26</ele>
        <time>2018-07-18T13:32:00Z</time>
      </trkpt>
      <trkpt lat="47.77323" lon="-3.57317">
        <ele>26</ele>
        <time>2018-07-18T13:32:01Z</time>
      </trkpt>
      <trkpt lat="47.77323" lon="-3.57317">
        <ele>26</ele>
        <time>2018-07-18T13:32:02Z</time>
      </trkpt>
      <trkpt lat="47.77324" lon="-3.57317">
        <ele>26</ele>
        <time>2018-07-18T13:32:03Z</time>
      </trkpt>
      <trkpt lat="47.77325" lon="-3.57317">
        <ele>26</ele>
        <time>2018-07-18T13:32:04Z</time>
      </trkpt>
      <trkpt lat="47.77325" lon="-3.57317">
        <ele>26</ele>
        <time>2018-07-18T13:32:05Z</time>
      </trkpt>
      <trkpt lat="47.77326" lon="-3.57317">
        <ele>26</ele>
        <time>2018-07-18T13:32:06Z</time>
      </trkpt>
      <trkpt lat="47.77327" lon="-3.57317">
        <ele>26</ele>
        <time>2018-07-18T13:32:07Z</time>
      </trkpt>
      <trkpt lat="47.77327" lon="-3.57317">
        <ele>26</ele>
        <time>2018-07-18T13:32:08Z</time>
      </trkpt>
      <trkpt lat="47.77326" lon="-3.57317">
        <ele>26</ele>
        <time>2018-07-18T13:32:09Z</time>
      </trkpt>
      <trkpt lat="47.77326" lon="-3.57317">
        <ele>26</ele>
        <time>2018-07-18T13:32:10Z</time>
      </trkpt>
      <trkpt lat="47.77324" lon="-3.57317">
        <ele>26</ele>
        <time>2018-07-18T13:32:11Z</time>
      </trkpt>
      <trkpt lat="47.77323" lon="-3.57316">
        <ele>26</ele>
        <time>2018-07-18T13:32:12Z</time>
      </trkpt>
      <trkpt lat="47.77322" lon="-3.57315">
        <ele>26</ele>
        <time>2018-07-18T13:32:13Z</time>
      </trkpt>
      <trkpt lat="47.77321" lon="-3.57313">
        <ele>26</ele>
        <time>2018-07-18T13:32:14Z</time>
      </trkpt>
      <trkpt lat="47.7732" lon="-3.57312">
        <ele>26</ele>
        <time>2018-07-18T13:32:15Z</time>
      </trkpt>
      <trkpt lat="47.77319" lon="-3.5731">
        <ele>26</ele>
        <time>2018-07-18T13:32:16Z</time>
      </trkpt>
      <trkpt lat="47.77318" lon="-3.57309">
        <ele>26</ele>
        <time>2018-07-18T13:32:17Z</time>
      </trkpt>
      <trkpt lat="47.77317" lon="-3.57308">
        <ele>26</ele>
        <time>2018-07-18T13:32:18Z</time>
      </trkpt>
      <trkpt lat="47.77316" lon="-3.57307">
        <ele>26</ele>
        <time>2018-07-18T13:32:19Z</time>
      </trkpt>
      <trkpt lat="47.77315" lon="-3.57306">
        <ele>26</ele>
        <time>2018-07-18T13:32:20Z</time>
      </trkpt>
      <trkpt lat="47.77312" lon="-3.57305">
        <ele>26</ele>
        <time>2018-07-18T13:32:21Z</time>
      </trkpt>
      <trkpt lat="47.7731" lon="-3.57304">
        <ele>26</ele>
        <time>2018-07-18T13:32:22Z</time>
      </trkpt>
      <trkpt lat="47.77307" lon="-3.57304">
        <ele>26</ele>
        <time>2018-07-18T13:32:23Z</time>
      </trkpt>
      <trkpt lat="47.77303" lon="-3.57305">
        <ele>26</ele>
        <time>2018-07-18T13:32:24Z</time>
      </trkpt>
      <trkpt lat="47.773" lon="-3.57306">
        <ele>25</ele>
        <time>2018-07-18T13:32:25Z</time>
      </trkpt>
      <trkpt lat="47.77299" lon="-3.57307">
        <ele>25</ele>
        <time>2018-07-18T13:32:26Z</time>
      </trkpt>
      <trkpt lat="47.77298" lon="-3.5731">
        <ele>25</ele>
        <time>2018-07-18T13:32:27Z</time>
      </trkpt>
      <trkpt lat="47.77297" lon="-3.57312">
        <ele>25</ele>
        <time>2018-07-18T13:32:28Z</time>
      </trkpt>
      <trkpt lat="47.77298" lon="-3.57315">
        <ele>25</ele>
        <time>2018-07-18T13:32:29Z</time>
      </trkpt>
      <trkpt lat="47.77299" lon="-3.57318">
        <ele>25</ele>
        <time>2018-07-18T13:32:30Z</time>
      </trkpt>
      <trkpt lat="47.77299" lon="-3.5732">
        <ele>25</ele>
        <time>2018-07-18T13:32:31Z</time>
      </trkpt>
      <trkpt lat="47.77297" lon="-3.57323">
        <ele>25</ele>
        <time>2018-07-18T13:32:32Z</time>
      </trkpt>
      <trkpt lat="47.77296" lon="-3.57326">
        <ele>25</ele>
        <time>2018-07-18T13:32:33Z</time>
      </trkpt>
      <trkpt lat="47.77293" lon="-3.57327">
        <ele>25</ele>
        <time>2018-07-18T13:32:34Z</time>
      </trkpt>
      <trkpt lat="47.7729" lon="-3.57327">
        <ele>25</ele>
        <time>2018-07-18T13:32:35Z</time>
      </trkpt>
      <trkpt lat="47.77289" lon="-3.57327">
        <ele>25</ele>
        <time>2018-07-18T13:32:36Z</time>
      </trkpt>
      <trkpt lat="47.77287" lon="-3.57326">
        <ele>25</ele>
        <time>2018-07-18T13:32:37Z</time>
      </trkpt>
      <trkpt lat="47.77285" lon="-3.57325">
        <ele>25</ele>
        <time>2018-07-18T13:32:38Z</time>
      </trkpt>
      <trkpt lat="47.77283" lon="-3.57324">
        <ele>25</ele>
        <time>2018-07-18T13:32:39Z</time>
      </trkpt>
      <trkpt lat="47.7728" lon="-3.57324">
        <ele>26</ele>
        <time>2018-07-18T13:32:40Z</time>
      </trkpt>
      <trkpt lat="47.77277" lon="-3.57325">
        <ele>26</ele>
        <time>2018-07-18T13:32:41Z</time>
      </trkpt>
      <trkpt lat="47.77274" lon="-3.57326">
        <ele>26</ele>
        <time>2018-07-18T13:32:42Z</time>
      </trkpt>
      <trkpt lat="47.77271" lon="-3.57326">
        <ele>26</ele>
        <time>2018-07-18T13:32:43Z</time>
      </trkpt>
      <trkpt lat="47.77267" lon="-3.57326">
        <ele>26</ele>
        <time>2018-07-18T13:32:44Z</time>
      </trkpt>
      <trkpt lat="47.77265" lon="-3.57327">
        <ele>27</ele>
        <time>2018-07-18T13:32:45Z</time>
      </trkpt>
      <trkpt lat="47.77262" lon="-3.57327">
        <ele>27</ele>
        <time>2018-07-18T13:32:46Z</time>
      </trkpt>
      <trkpt lat="47.77259" lon="-3.57327">
        <ele>27</ele>
        <time>2018-07-18T13:32:47Z</time>
      </trkpt>
      <trkpt lat="47.77256" lon="-3.57326">
        <ele>27</ele>
        <time>2018-07-18T13:32:48Z</time>
      </trkpt>
      <trkpt lat="47.77253" lon="-3.57326">
        <ele>27</ele>
        <time>2018-07-18T13:32:49Z</time>
      </trkpt>
      <trkpt lat="47.7725" lon="-3.57326">
        <ele>27</ele>
        <time>2018-07-18T13:32:50Z</time>
      </trkpt>
      <trkpt lat="47.77248" lon="-3.57326">
        <ele>27</ele>
        <time>2018-07-18T13:32:51Z</time>
      </trkpt>
      <trkpt lat="47.77245" lon="-3.57325">
        <ele>27</ele>
        <time>2018-07-18T13:32:52Z</time>
      </trkpt>
      <trkpt lat="47.77242" lon="-3.57326">
        <ele>27</ele>
        <time>2018-07-18T13:32:53Z</time>
      </trkpt>
      <trkpt lat="47.77239" lon="-3.57326">
        <ele>27</ele>
        <time>2018-07-18T13:32:54Z</time>
      </trkpt>
      <trkpt lat="47.77236" lon="-3.57327">
        <ele>27</ele>
        <time>2018-07-18T13:32:55Z</time>
      </trkpt>
      <trkpt lat="47.77232" lon="-3.57328">
        <ele>27</ele>
        <time>2018-07-18T13:32:56Z</time>
      </trkpt>
      <trkpt lat="47.77228" lon="-3.57329">
        <ele>27</ele>
        <time>2018-07-18T13:32:57Z</time>
      </trkpt>
      <trkpt lat="47.77225" lon="-3.5733">
        <ele>27</ele>
        <time>2018-07-18T13:32:58Z</time>
      </trkpt>
      <trkpt lat="47.77222" lon="-3.5733">
        <ele>27</ele>
        <time>2018-07-18T13:32:59Z</time>
      </trkpt>
      <trkpt lat="47.77218" lon="-3.57331">
        <ele>27</ele>
        <time>2018-07-18T13:33:00Z</time>
      </trkpt>
      <trkpt lat="47.77214" lon="-3.57331">
        <ele>27</ele>
        <time>2018-07-18T13:33:01Z</time>
      </trkpt>
      <trkpt lat="47.77211" lon="-3.57332">
        <ele>27</ele>
        <time>2018-07-18T13:33:02Z</time>
      </trkpt>
      <trkpt lat="47.77207" lon="-3.57333">
        <ele>27</ele>
        <time>2018-07-18T13:33:03Z</time>
      </trkpt>
      <trkpt lat="47.77204" lon="-3.57334">
        <ele>27</ele>
        <time>2018-07-18T13:33:04Z</time>
      </trkpt>
      <trkpt lat="47.77201" lon="-3.57335">
        <ele>26</ele>
        <time>2018-07-18T13:33:05Z</time>
      </trkpt>
      <trkpt lat="47.772" lon="-3.57335">
        <ele>26</ele>
        <time>2018-07-18T13:33:06Z</time>
      </trkpt>
      <trkpt lat="47.77199" lon="-3.57335">
        <ele>26</ele>
        <time>2018-07-18T13:33:07Z</time>
      </trkpt>
      <trkpt lat="47.77199" lon="-3.57335">
        <ele>26</ele>
        <time>2018-07-18T13:33:08Z</time>
      </trkpt>
      <trkpt lat="47.77198" lon="-3.57335">
        <ele>26</ele>
        <time>2018-07-18T13:33:09Z</time>
      </trkpt>
      <trkpt lat="47.77198" lon="-3.57335">
        <ele>26</ele>
        <time>2018-07-18T13:33:10Z</time>
      </trkpt>
      <trkpt lat="47.77197" lon="-3.57335">
        <ele>26</ele>
        <time>2018-07-18T13:33:11Z</time>
      </trkpt>
      <trkpt lat="47.77197" lon="-3.57336">
        <ele>26</ele>
        <time>2018-07-18T13:33:12Z</time>
      </trkpt>
      <trkpt lat="47.77195" lon="-3.57336">
        <ele>25</ele>
        <time>2018-07-18T13:33:13Z</time>
      </trkpt>
      <trkpt lat="47.77196" lon="-3.57336">
        <ele>25</ele>
        <time>2018-07-18T13:33:14Z</time>
      </trkpt>
      <trkpt lat="47.77197" lon="-3.57336">
        <ele>25</ele>
        <time>2018-07-18T13:33:15Z</time>
      </trkpt>
      <trkpt lat="47.77198" lon="-3.57336">
        <ele>25</ele>
        <time>2018-07-18T13:33:16Z</time>
      </trkpt>
      <trkpt lat="47.772" lon="-3.57336">
        <ele>25</ele>
        <time>2018-07-18T13:33:17Z</time>
      </trkpt>
      <trkpt lat="47.77202" lon="-3.57335">
        <ele>25</ele>
        <time>2018-07-18T13:33:18Z</time>
      </trkpt>
      <trkpt lat="47.77204" lon="-3.57335">
        <ele>25</ele>
        <time>2018-07-18T13:33:19Z</time>
      </trkpt>
      <trkpt lat="47.77205" lon="-3.57335">
        <ele>25</ele>
        <time>2018-07-18T13:33:20Z</time>
      </trkpt>
      <trkpt lat="47.77207" lon="-3.57335">
        <ele>25</ele>
        <time>2018-07-18T13:33:21Z</time>
      </trkpt>
      <trkpt lat="47.77209" lon="-3.57335">
        <ele>25</ele>
        <time>2018-07-18T13:33:22Z</time>
      </trkpt>
      <trkpt lat="47.77209" lon="-3.57335">
        <ele>25</ele>
        <time>2018-07-18T13:33:23Z</time>
      </trkpt>
      <trkpt lat="47.77214" lon="-3.57334">
        <ele>25</ele>
        <time>2018-07-18T13:33:24Z</time>
      </trkpt>
      <trkpt lat="47.77214" lon="-3.57334">
        <ele>25</ele>
        <time>2018-07-18T13:33:25Z</time>
      </trkpt>
      <trkpt lat="47.7722" lon="-3.57333">
        <ele>25</ele>
        <time>2018-07-18T13:33:26Z</time>
      </trkpt>
      <trkpt lat="47.7722" lon="-3.57333">
        <ele>25</ele>
        <time>2018-07-18T13:33:27Z</time>
      </trkpt>
      <trkpt lat="47.77223" lon="-3.57333">
        <ele>25</ele>
        <time>2018-07-18T13:33:28Z</time>
      </trkpt>
      <trkpt lat="47.77228" lon="-3.57333">
        <ele>25</ele>
        <time>2018-07-18T13:33:29Z</time>
      </trkpt>
      <trkpt lat="47.77231" lon="-3.57333">
        <ele>25</ele>
        <time>2018-07-18T13:33:30Z</time>
      </trkpt>
      <trkpt lat="47.77233" lon="-3.57333">
        <ele>25</ele>
        <time>2018-07-18T13:33:31Z</time>
      </trkpt>
      <trkpt lat="47.77236" lon="-3.57333">
        <ele>25</ele>
        <time>2018-07-18T13:33:32Z</time>
      </trkpt>
      <trkpt lat="47.77238" lon="-3.57333">
        <ele>25</ele>
        <time>2018-07-18T13:33:33Z</time>
      </trkpt>
      <trkpt lat="47.7724" lon="-3.57334">
        <ele>25</ele>
        <time>2018-07-18T13:33:34Z</time>
      </trkpt>
      <trkpt lat="47.77243" lon="-3.57335">
        <ele>25</ele>
        <time>2018-07-18T13:33:35Z</time>
      </trkpt>
      <trkpt lat="47.77246" lon="-3.57335">
        <ele>25</ele>
        <time>2018-07-18T13:33:36Z</time>
      </trkpt>
      <trkpt lat="47.77249" lon="-3.57336">
        <ele>25</ele>
        <time>2018-07-18T13:33:37Z</time>
      </trkpt>
      <trkpt lat="47.77252" lon="-3.57336">
        <ele>25</ele>
        <time>2018-07-18T13:33:38Z</time>
      </trkpt>
      <trkpt lat="47.77252" lon="-3.57336">
        <ele>25</ele>
        <time>2018-07-18T13:33:39Z</time>
      </trkpt>
      <trkpt lat="47.77256" lon="-3.57336">
        <ele>24</ele>
        <time>2018-07-18T13:33:40Z</time>
      </trkpt>
      <trkpt lat="47.77257" lon="-3.57336">
        <ele>24</ele>
        <time>2018-07-18T13:33:41Z</time>
      </trkpt>
      <trkpt lat="47.77257" lon="-3.57336">
        <ele>24</ele>
        <time>2018-07-18T13:33:42Z</time>
      </trkpt>
      <trkpt lat="47.77259" lon="-3.57336">
        <ele>25</ele>
        <time>2018-07-18T13:33:43Z</time>
      </trkpt>
      <trkpt lat="47.7726" lon="-3.57336">
        <ele>25</ele>
        <time>2018-07-18T13:33:44Z</time>
      </trkpt>
      <trkpt lat="47.7726" lon="-3.57336">
        <ele>25</ele>
        <time>2018-07-18T13:33:45Z</time>
      </trkpt>
      <trkpt lat="47.7726" lon="-3.57336">
        <ele>25</ele>
        <time>2018-07-18T13:33:46Z</time>
      </trkpt>
      <trkpt lat="47.77263" lon="-3.57336">
        <ele>25</ele>
        <time>2018-07-18T13:33:47Z</time>
      </trkpt>
      <trkpt lat="47.77265" lon="-3.57336">
        <ele>25</ele>
        <time>2018-07-18T13:33:48Z</time>
      </trkpt>
      <trkpt lat="47.77267" lon="-3.57337">
        <ele>25</ele>
        <time>2018-07-18T13:33:49Z</time>
      </trkpt>
      <trkpt lat="47.77269" lon="-3.57338">
        <ele>25</ele>
        <time>2018-07-18T13:33:50Z</time>
      </trkpt>
      <trkpt lat="47.77271" lon="-3.57339">
        <ele>25</ele>
        <time>2018-07-18T13:33:51Z</time>
      </trkpt>
      <trkpt lat="47.77273" lon="-3.5734">
        <ele>25</ele>
        <time>2018-07-18T13:33:52Z</time>
      </trkpt>
      <trkpt lat="47.77275" lon="-3.5734">
        <ele>25</ele>
        <time>2018-07-18T13:33:53Z</time>
      </trkpt>
      <trkpt lat="47.77278" lon="-3.5734">
        <ele>25</ele>
        <time>2018-07-18T13:33:54Z</time>
      </trkpt>
      <trkpt lat="47.77281" lon="-3.57338">
        <ele>25</ele>
        <time>2018-07-18T13:33:55Z</time>
      </trkpt>
      <trkpt lat="47.77283" lon="-3.57336">
        <ele>25</ele>
        <time>2018-07-18T13:33:56Z</time>
      </trkpt>
      <trkpt lat="47.77285" lon="-3.57334">
        <ele>25</ele>
        <time>2018-07-18T13:33:57Z</time>
      </trkpt>
      <trkpt lat="47.77286" lon="-3.57331">
        <ele>26</ele>
        <time>2018-07-18T13:33:58Z</time>
      </trkpt>
      <trkpt lat="47.77286" lon="-3.57328">
        <ele>26</ele>
        <time>2018-07-18T13:33:59Z</time>
      </trkpt>
      <trkpt lat="47.77287" lon="-3.57326">
        <ele>26</ele>
        <time>2018-07-18T13:34:00Z</time>
      </trkpt>
      <trkpt lat="47.77287" lon="-3.57324">
        <ele>26</ele>
        <time>2018-07-18T13:34:01Z</time>
      </trkpt>
      <trkpt lat="47.77288" lon="-3.57321">
        <ele>26</ele>
        <time>2018-07-18T13:34:02Z</time>
      </trkpt>
      <trkpt lat="47.77288" lon="-3.57319">
        <ele>26</ele>
        <time>2018-07-18T13:34:03Z</time>
      </trkpt>
      <trkpt lat="47.77288" lon="-3.57316">
        <ele>26</ele>
        <time>2018-07-18T13:34:04Z</time>
      </trkpt>
      <trkpt lat="47.77289" lon="-3.57314">
        <ele>25</ele>
        <time>2018-07-18T13:34:05Z</time>
      </trkpt>
      <trkpt lat="47.77291" lon="-3.57312">
        <ele>25</ele>
        <time>2018-07-18T13:34:06Z</time>
      </trkpt>
      <trkpt lat="47.77293" lon="-3.57311">
        <ele>25</ele>
        <time>2018-07-18T13:34:07Z</time>
      </trkpt>
      <trkpt lat="47.77295" lon="-3.57311">
        <ele>25</ele>
        <time>2018-07-18T13:34:08Z</time>
      </trkpt>
      <trkpt lat="47.77297" lon="-3.57311">
        <ele>25</ele>
        <time>2018-07-18T13:34:09Z</time>
      </trkpt>
      <trkpt lat="47.77299" lon="-3.57311">
        <ele>25</ele>
        <time>2018-07-18T13:34:10Z</time>
      </trkpt>
      <trkpt lat="47.773" lon="-3.57311">
        <ele>25</ele>
        <time>2018-07-18T13:34:11Z</time>
      </trkpt>
      <trkpt lat="47.77302" lon="-3.57312">
        <ele>25</ele>
        <time>2018-07-18T13:34:12Z</time>
      </trkpt>
      <trkpt lat="47.77304" lon="-3.57313">
        <ele>25</ele>
        <time>2018-07-18T13:34:13Z</time>
      </trkpt>
      <trkpt lat="47.77306" lon="-3.57314">
        <ele>25</ele>
        <time>2018-07-18T13:34:14Z</time>
      </trkpt>
      <trkpt lat="47.77308" lon="-3.57315">
        <ele>25</ele>
        <time>2018-07-18T13:34:15Z</time>
      </trkpt>
      <trkpt lat="47.77311" lon="-3.57316">
        <ele>25</ele>
        <time>2018-07-18T13:34:16Z</time>
      </trkpt>
      <trkpt lat="47.77313" lon="-3.57317">
        <ele>25</ele>
        <time>2018-07-18T13:34:17Z</time>
      </trkpt>
      <trkpt lat="47.77315" lon="-3.57318">
        <ele>25</ele>
        <time>2018-07-18T13:34:18Z</time>
      </trkpt>
      <trkpt lat="47.77316" lon="-3.57319">
        <ele>25</ele>
        <time>2018-07-18T13:34:19Z</time>
      </trkpt>
      <trkpt lat="47.77317" lon="-3.5732">
        <ele>25</ele>
        <time>2018-07-18T13:34:20Z</time>
      </trkpt>
      <trkpt lat="47.77319" lon="-3.5732">
        <ele>25</ele>
        <time>2018-07-18T13:34:21Z</time>
      </trkpt>
      <trkpt lat="47.77321" lon="-3.5732">
        <ele>25</ele>
        <time>2018-07-18T13:34:22Z</time>
      </trkpt>
      <trkpt lat="47.77322" lon="-3.5732">
        <ele>26</ele>
        <time>2018-07-18T13:34:23Z</time>
      </trkpt>
      <trkpt lat="47.77325" lon="-3.5732">
        <ele>26</ele>
        <time>2018-07-18T13:34:24Z</time>
      </trkpt>
      <trkpt lat="47.77327" lon="-3.5732">
        <ele>26</ele>
        <time>2018-07-18T13:34:25Z</time>
      </trkpt>
      <trkpt lat="47.77329" lon="-3.5732">
        <ele>26</ele>
        <time>2018-07-18T13:34:26Z</time>
      </trkpt>
      <trkpt lat="47.77331" lon="-3.5732">
        <ele>26</ele>
        <time>2018-07-18T13:34:27Z</time>
      </trkpt>
      <trkpt lat="47.77333" lon="-3.57319">
        <ele>26</ele>
        <time>2018-07-18T13:34:28Z</time>
      </trkpt>
      <trkpt lat="47.77335" lon="-3.57319">
        <ele>27</ele>
        <time>2018-07-18T13:34:29Z</time>
      </trkpt>
      <trkpt lat="47.77337" lon="-3.57318">
        <ele>27</ele>
        <time>2018-07-18T13:34:30Z</time>
      </trkpt>
      <trkpt lat="47.7734" lon="-3.57318">
        <ele>27</ele>
        <time>2018-07-18T13:34:31Z</time>
      </trkpt>
      <trkpt lat="47.77343" lon="-3.57317">
        <ele>27</ele>
        <time>2018-07-18T13:34:32Z</time>
      </trkpt>
      <trkpt lat="47.77346" lon="-3.57316">
        <ele>27</ele>
        <time>2018-07-18T13:34:33Z</time>
      </trkpt>
      <trkpt lat="47.77349" lon="-3.57315">
        <ele>27</ele>
        <time>2018-07-18T13:34:34Z</time>
      </trkpt>
      <trkpt lat="47.77352" lon="-3.57314">
        <ele>27</ele>
        <time>2018-07-18T13:34:35Z</time>
      </trkpt>
      <trkpt lat="47.77356" lon="-3.57313">
        <ele>28</ele>
        <time>2018-07-18T13:34:36Z</time>
      </trkpt>
      <trkpt lat="47.77359" lon="-3.57313">
        <ele>28</ele>
        <time>2018-07-18T13:34:37Z</time>
      </trkpt>
      <trkpt lat="47.77361" lon="-3.57313">
        <ele>28</ele>
        <time>2018-07-18T13:34:38Z</time>
      </trkpt>
      <trkpt lat="47.77364" lon="-3.57312">
        <ele>28</ele>
        <time>2018-07-18T13:34:39Z</time>
      </trkpt>
      <trkpt lat="47.77367" lon="-3.57312">
        <ele>28</ele>
        <time>2018-07-18T13:34:40Z</time>
      </trkpt>
      <trkpt lat="47.7737" lon="-3.57311">
        <ele>29</ele>
        <time>2018-07-18T13:34:41Z</time>
      </trkpt>
      <trkpt lat="47.77373" lon="-3.57311">
        <ele>29</ele>
        <time>2018-07-18T13:34:42Z</time>
      </trkpt>
      <trkpt lat="47.77376" lon="-3.5731">
        <ele>29</ele>
        <time>2018-07-18T13:34:43Z</time>
      </trkpt>
      <trkpt lat="47.77379" lon="-3.57309">
        <ele>29</ele>
        <time>2018-07-18T13:34:44Z</time>
      </trkpt>
      <trkpt lat="47.77382" lon="-3.57308">
        <ele>30</ele>
        <time>2018-07-18T13:34:45Z</time>
      </trkpt>
      <trkpt lat="47.77385" lon="-3.57307">
        <ele>30</ele>
        <time>2018-07-18T13:34:46Z</time>
      </trkpt>
      <trkpt lat="47.77388" lon="-3.57306">
        <ele>30</ele>
        <time>2018-07-18T13:34:47Z</time>
      </trkpt>
      <trkpt lat="47.77392" lon="-3.57304">
        <ele>30</ele>
        <time>2018-07-18T13:34:48Z</time>
      </trkpt>
      <trkpt lat="47.77395" lon="-3.57303">
        <ele>30</ele>
        <time>2018-07-18T13:34:49Z</time>
      </trkpt>
      <trkpt lat="47.77398" lon="-3.57302">
        <ele>30</ele>
        <time>2018-07-18T13:34:50Z</time>
      </trkpt>
      <trkpt lat="47.77401" lon="-3.573">
        <ele>31</ele>
        <time>2018-07-18T13:34:51Z</time>
      </trkpt>
      <trkpt lat="47.77404" lon="-3.57299">
        <ele>31</ele>
        <time>2018-07-18T13:34:52Z</time>
      </trkpt>
      <trkpt lat="47.77407" lon="-3.57298">
        <ele>31</ele>
        <time>2018-07-18T13:34:53Z</time>
      </trkpt>
      <trkpt lat="47.77411" lon="-3.57296">
        <ele>31</ele>
        <time>2018-07-18T13:34:54Z</time>
      </trkpt>
      <trkpt lat="47.77414" lon="-3.57294">
        <ele>31</ele>
        <time>2018-07-18T13:34:55Z</time>
      </trkpt>
      <trkpt lat="47.77417" lon="-3.57293">
        <ele>32</ele>
        <time>2018-07-18T13:34:56Z</time>
      </trkpt>
      <trkpt lat="47.7742" lon="-3.57292">
        <ele>32</ele>
        <time>2018-07-18T13:34:57Z</time>
      </trkpt>
      <trkpt lat="47.77424" lon="-3.57291">
        <ele>32</ele>
        <time>2018-07-18T13:34:58Z</time>
      </trkpt>
      <trkpt lat="47.77427" lon="-3.5729">
        <ele>32</ele>
        <time>2018-07-18T13:34:59Z</time>
      </trkpt>
      <trkpt lat="47.7743" lon="-3.5729">
        <ele>32</ele>
        <time>2018-07-18T13:35:00Z</time>
      </trkpt>
      <trkpt lat="47.77433" lon="-3.5729">
        <ele>32</ele>
        <time>2018-07-18T13:35:01Z</time>
      </trkpt>
      <trkpt lat="47.77437" lon="-3.57289">
        <ele>32</ele>
        <time>2018-07-18T13:35:02Z</time>
      </trkpt>
      <trkpt lat="47.7744" lon="-3.57288">
        <ele>32</ele>
        <time>2018-07-18T13:35:03Z</time>
      </trkpt>
      <trkpt lat="47.77444" lon="-3.57287">
        <ele>32</ele>
        <time>2018-07-18T13:35:04Z</time>
      </trkpt>
      <trkpt lat="47.77447" lon="-3.57285">
        <ele>32</ele>
        <time>2018-07-18T13:35:05Z</time>
      </trkpt>
      <trkpt lat="47.77451" lon="-3.57284">
        <ele>32</ele>
        <time>2018-07-18T13:35:06Z</time>
      </trkpt>
      <trkpt lat="47.77454" lon="-3.57282">
        <ele>32</ele>
        <time>2018-07-18T13:35:07Z</time>
      </trkpt>
      <trkpt lat="47.77457" lon="-3.5728">
        <ele>33</ele>
        <time>2018-07-18T13:35:08Z</time>
      </trkpt>
      <trkpt lat="47.7746" lon="-3.57278">
        <ele>33</ele>
        <time>2018-07-18T13:35:09Z</time>
      </trkpt>
      <trkpt lat="47.77463" lon="-3.57275">
        <ele>33</ele>
        <time>2018-07-18T13:35:10Z</time>
      </trkpt>
      <trkpt lat="47.77466" lon="-3.57273">
        <ele>33</ele>
        <time>2018-07-18T13:35:11Z</time>
      </trkpt>
      <trkpt lat="47.77469" lon="-3.57271">
        <ele>33</ele>
        <time>2018-07-18T13:35:12Z</time>
      </trkpt>
      <trkpt lat="47.77472" lon="-3.5727">
        <ele>33</ele>
        <time>2018-07-18T13:35:13Z</time>
      </trkpt>
      <trkpt lat="47.77476" lon="-3.57267">
        <ele>33</ele>
        <time>2018-07-18T13:35:14Z</time>
      </trkpt>
      <trkpt lat="47.77479" lon="-3.57265">
        <ele>33</ele>
        <time>2018-07-18T13:35:15Z</time>
      </trkpt>
      <trkpt lat="47.77482" lon="-3.57263">
        <ele>33</ele>
        <time>2018-07-18T13:35:16Z</time>
      </trkpt>
      <trkpt lat="47.77486" lon="-3.57261">
        <ele>33</ele>
        <time>2018-07-18T13:35:17Z</time>
      </trkpt>
      <trkpt lat="47.77489" lon="-3.57259">
        <ele>33</ele>
        <time>2018-07-18T13:35:18Z</time>
      </trkpt>
      <trkpt lat="47.77492" lon="-3.57256">
        <ele>33</ele>
        <time>2018-07-18T13:35:19Z</time>
      </trkpt>
      <trkpt lat="47.77496" lon="-3.57253">
        <ele>34</ele>
        <time>2018-07-18T13:35:20Z</time>
      </trkpt>
      <trkpt lat="47.77499" lon="-3.5725">
        <ele>34</ele>
        <time>2018-07-18T13:35:21Z</time>
      </trkpt>
      <trkpt lat="47.77502" lon="-3.57248">
        <ele>34</ele>
        <time>2018-07-18T13:35:22Z</time>
      </trkpt>
      <trkpt lat="47.77505" lon="-3.57246">
        <ele>34</ele>
        <time>2018-07-18T13:35:23Z</time>
      </trkpt>
      <trkpt lat="47.77509" lon="-3.57244">
        <ele>34</ele>
        <time>2018-07-18T13:35:24Z</time>
      </trkpt>
      <trkpt lat="47.77512" lon="-3.57243">
        <ele>34</ele>
        <time>2018-07-18T13:35:25Z</time>
      </trkpt>
      <trkpt lat="47.77516" lon="-3.57242">
        <ele>34</ele>
        <time>2018-07-18T13:35:26Z</time>
      </trkpt>
      <trkpt lat="47.77519" lon="-3.57242">
        <ele>34</ele>
        <time>2018-07-18T13:35:27Z</time>
      </trkpt>
      <trkpt lat="47.77522" lon="-3.57242">
        <ele>35</ele>
        <time>2018-07-18T13:35:28Z</time>
      </trkpt>
      <trkpt lat="47.77525" lon="-3.57243">
        <ele>35</ele>
        <time>2018-07-18T13:35:29Z</time>
      </trkpt>
      <trkpt lat="47.77527" lon="-3.57244">
        <ele>35</ele>
        <time>2018-07-18T13:35:30Z</time>
      </trkpt>
      <trkpt lat="47.7753" lon="-3.57244">
        <ele>35</ele>
        <time>2018-07-18T13:35:31Z</time>
      </trkpt>
      <trkpt lat="47.77533" lon="-3.57246">
        <ele>35</ele>
        <time>2018-07-18T13:35:32Z</time>
      </trkpt>
      <trkpt lat="47.77536" lon="-3.57247">
        <ele>36</ele>
        <time>2018-07-18T13:35:33Z</time>
      </trkpt>
      <trkpt lat="47.77539" lon="-3.57249">
        <ele>36</ele>
        <time>2018-07-18T13:35:34Z</time>
      </trkpt>
      <trkpt lat="47.77541" lon="-3.57251">
        <ele>36</ele>
        <time>2018-07-18T13:35:35Z</time>
      </trkpt>
      <trkpt lat="47.77544" lon="-3.57253">
        <ele>36</ele>
        <time>2018-07-18T13:35:36Z</time>
      </trkpt>
      <trkpt lat="47.77548" lon="-3.57255">
        <ele>36</ele>
        <time>2018-07-18T13:35:37Z</time>
      </trkpt>
      <trkpt lat="47.77551" lon="-3.57256">
        <ele>36</ele>
        <time>2018-07-18T13:35:38Z</time>
      </trkpt>
      <trkpt lat="47.77554" lon="-3.57257">
        <ele>36</ele>
        <time>2018-07-18T13:35:39Z</time>
      </trkpt>
      <trkpt lat="47.77558" lon="-3.57258">
        <ele>37</ele>
        <time>2018-07-18T13:35:40Z</time>
      </trkpt>
      <trkpt lat="47.77561" lon="-3.57259">
        <ele>37</ele>
        <time>2018-07-18T13:35:41Z</time>
      </trkpt>
      <trkpt lat="47.77565" lon="-3.5726">
        <ele>37</ele>
        <time>2018-07-18T13:35:42Z</time>
      </trkpt>
      <trkpt lat="47.77568" lon="-3.57261">
        <ele>37</ele>
        <time>2018-07-18T13:35:43Z</time>
      </trkpt>
      <trkpt lat="47.77572" lon="-3.57262">
        <ele>37</ele>
        <time>2018-07-18T13:35:44Z</time>
      </trkpt>
      <trkpt lat="47.77575" lon="-3.57263">
        <ele>37</ele>
        <time>2018-07-18T13:35:45Z</time>
      </trkpt>
      <trkpt lat="47.77579" lon="-3.57264">
        <ele>37</ele>
        <time>2018-07-18T13:35:46Z</time>
      </trkpt>
      <trkpt lat="47.77583" lon="-3.57264">
        <ele>37</ele>
        <time>2018-07-18T13:35:47Z</time>
      </trkpt>
      <trkpt lat="47.77587" lon="-3.57265">
        <ele>37</ele>
        <time>2018-07-18T13:35:48Z</time>
      </trkpt>
      <trkpt lat="47.77591" lon="-3.57265">
        <ele>37</ele>
        <time>2018-07-18T13:35:49Z</time>
      </trkpt>
      <trkpt lat="47.77595" lon="-3.57265">
        <ele>37</ele>
        <time>2018-07-18T13:35:50Z</time>
      </trkpt>
      <trkpt lat="47.77598" lon="-3.57266">
        <ele>37</ele>
        <time>2018-07-18T13:35:51Z</time>
      </trkpt>
      <trkpt lat="47.77601" lon="-3.57267">
        <ele>37</ele>
        <time>2018-07-18T13:35:52Z</time>
      </trkpt>
      <trkpt lat="47.77604" lon="-3.57268">
        <ele>37</ele>
        <time>2018-07-18T13:35:53Z</time>
      </trkpt>
      <trkpt lat="47.77608" lon="-3.57269">
        <ele>37</ele>
        <time>2018-07-18T13:35:54Z</time>
      </trkpt>
      <trkpt lat="47.77611" lon="-3.57269">
        <ele>37</ele>
        <time>2018-07-18T13:35:55Z</time>
      </trkpt>
      <trkpt lat="47.77615" lon="-3.5727">
        <ele>37</ele>
        <time>2018-07-18T13:35:56Z</time>
      </trkpt>
      <trkpt lat="47.77618" lon="-3.5727">
        <ele>37</ele>
        <time>2018-07-18T13:35:57Z</time>
      </trkpt>
      <trkpt lat="47.77621" lon="-3.5727">
        <ele>37</ele>
        <time>2018-07-18T13:35:58Z</time>
      </trkpt>
      <trkpt lat="47.77625" lon="-3.57271">
        <ele>37</ele>
        <time>2018-07-18T13:35:59Z</time>
      </trkpt>
      <trkpt lat="47.77629" lon="-3.5727">
        <ele>37</ele>
        <time>2018-07-18T13:36:00Z</time>
      </trkpt>
      <trkpt lat="47.77632" lon="-3.5727">
        <ele>38</ele>
        <time>2018-07-18T13:36:01Z</time>
      </trkpt>
      <trkpt lat="47.77635" lon="-3.57268">
        <ele>38</ele>
        <time>2018-07-18T13:36:02Z</time>
      </trkpt>
      <trkpt lat="47.77638" lon="-3.57266">
        <ele>38</ele>
        <time>2018-07-18T13:36:03Z</time>
      </trkpt>
      <trkpt lat="47.77641" lon="-3.57264">
        <ele>37</ele>
        <time>2018-07-18T13:36:04Z</time>
      </trkpt>
      <trkpt lat="47.77644" lon="-3.5726">
        <ele>37</ele>
        <time>2018-07-18T13:36:05Z</time>
      </trkpt>
      <trkpt lat="47.77646" lon="-3.57255">
        <ele>37</ele>
        <time>2018-07-18T13:36:06Z</time>
      </trkpt>
      <trkpt lat="47.77648" lon="-3.57251">
        <ele>37</ele>
        <time>2018-07-18T13:36:07Z</time>
      </trkpt>
      <trkpt lat="47.7765" lon="-3.57246">
        <ele>37</ele>
        <time>2018-07-18T13:36:08Z</time>
      </trkpt>
      <trkpt lat="47.77651" lon="-3.57241">
        <ele>37</ele>
        <time>2018-07-18T13:36:09Z</time>
      </trkpt>
      <trkpt lat="47.77652" lon="-3.57235">
        <ele>37</ele>
        <time>2018-07-18T13:36:10Z</time>
      </trkpt>
      <trkpt lat="47.77653" lon="-3.5723">
        <ele>37</ele>
        <time>2018-07-18T13:36:11Z</time>
      </trkpt>
      <trkpt lat="47.77654" lon="-3.57224">
        <ele>37</ele>
        <time>2018-07-18T13:36:12Z</time>
      </trkpt>
      <trkpt lat="47.77654" lon="-3.57218">
        <ele>37</ele>
        <time>2018-07-18T13:36:13Z</time>
      </trkpt>
      <trkpt lat="47.77655" lon="-3.57212">
        <ele>37</ele>
        <time>2018-07-18T13:36:14Z</time>
      </trkpt>
      <trkpt lat="47.77656" lon="-3.57206">
        <ele>37</ele>
        <time>2018-07-18T13:36:15Z</time>
      </trkpt>
      <trkpt lat="47.77656" lon="-3.57199">
        <ele>37</ele>
        <time>2018-07-18T13:36:16Z</time>
      </trkpt>
      <trkpt lat="47.77657" lon="-3.57192">
        <ele>37</ele>
        <time>2018-07-18T13:36:17Z</time>
      </trkpt>
      <trkpt lat="47.77657" lon="-3.57186">
        <ele>37</ele>
        <time>2018-07-18T13:36:18Z</time>
      </trkpt>
      <trkpt lat="47.77656" lon="-3.57179">
        <ele>37</ele>
        <time>2018-07-18T13:36:19Z</time>
      </trkpt>
      <trkpt lat="47.77655" lon="-3.57172">
        <ele>36</ele>
        <time>2018-07-18T13:36:20Z</time>
      </trkpt>
      <trkpt lat="47.77654" lon="-3.57165">
        <ele>36</ele>
        <time>2018-07-18T13:36:21Z</time>
      </trkpt>
      <trkpt lat="47.77654" lon="-3.57158">
        <ele>36</ele>
        <time>2018-07-18T13:36:22Z</time>
      </trkpt>
      <trkpt lat="47.77652" lon="-3.57153">
        <ele>36</ele>
        <time>2018-07-18T13:36:23Z</time>
      </trkpt>
      <trkpt lat="47.77651" lon="-3.57149">
        <ele>36</ele>
        <time>2018-07-18T13:36:24Z</time>
      </trkpt>
      <trkpt lat="47.77651" lon="-3.57147">
        <ele>36</ele>
        <time>2018-07-18T13:36:25Z</time>
      </trkpt>
      <trkpt lat="47.77651" lon="-3.57147">
        <ele>36</ele>
        <time>2018-07-18T13:36:26Z</time>
      </trkpt>
      <trkpt lat="47.77651" lon="-3.57147">
        <ele>36</ele>
        <time>2018-07-18T13:36:27Z</time>
      </trkpt>
      <trkpt lat="47.77651" lon="-3.57147">
        <ele>36</ele>
        <time>2018-07-18T13:36:28Z</time>
      </trkpt>
      <trkpt lat="47.77651" lon="-3.57147">
        <ele>36</ele>
        <time>2018-07-18T13:36:29Z</time>
      </trkpt>
      <trkpt lat="47.77652" lon="-3.57145">
        <ele>37</ele>
        <time>2018-07-18T13:36:30Z</time>
      </trkpt>
      <trkpt lat="47.77652" lon="-3.57142">
        <ele>37</ele>
        <time>2018-07-18T13:36:31Z</time>
      </trkpt>
      <trkpt lat="47.77651" lon="-3.57139">
        <ele>37</ele>
        <time>2018-07-18T13:36:32Z</time>
      </trkpt>
      <trkpt lat="47.77651" lon="-3.57135">
        <ele>37</ele>
        <time>2018-07-18T13:36:33Z</time>
      </trkpt>
      <trkpt lat="47.77651" lon="-3.5713">
        <ele>37</ele>
        <time>2018-07-18T13:36:34Z</time>
      </trkpt>
      <trkpt lat="47.7765" lon="-3.57125">
        <ele>37</ele>
        <time>2018-07-18T13:36:35Z</time>
      </trkpt>
      <trkpt lat="47.7765" lon="-3.5712">
        <ele>37</ele>
        <time>2018-07-18T13:36:36Z</time>
      </trkpt>
      <trkpt lat="47.77649" lon="-3.57115">
        <ele>37</ele>
        <time>2018-07-18T13:36:37Z</time>
      </trkpt>
      <trkpt lat="47.77648" lon="-3.57111">
        <ele>37</ele>
        <time>2018-07-18T13:36:38Z</time>
      </trkpt>
      <trkpt lat="47.77648" lon="-3.57108">
        <ele>37</ele>
        <time>2018-07-18T13:36:39Z</time>
      </trkpt>
      <trkpt lat="47.77647" lon="-3.57104">
        <ele>38</ele>
        <time>2018-07-18T13:36:40Z</time>
      </trkpt>
      <trkpt lat="47.77647" lon="-3.57102">
        <ele>38</ele>
        <time>2018-07-18T13:36:41Z</time>
      </trkpt>
      <trkpt lat="47.77647" lon="-3.57099">
        <ele>38</ele>
        <time>2018-07-18T13:36:42Z</time>
      </trkpt>
      <trkpt lat="47.77647" lon="-3.57097">
        <ele>38</ele>
        <time>2018-07-18T13:36:43Z</time>
      </trkpt>
      <trkpt lat="47.77647" lon="-3.57094">
        <ele>38</ele>
        <time>2018-07-18T13:36:44Z</time>
      </trkpt>
      <trkpt lat="47.77646" lon="-3.57091">
        <ele>37</ele>
        <time>2018-07-18T13:36:45Z</time>
      </trkpt>
      <trkpt lat="47.77646" lon="-3.57088">
        <ele>37</ele>
        <time>2018-07-18T13:36:46Z</time>
      </trkpt>
      <trkpt lat="47.77645" lon="-3.57084">
        <ele>37</ele>
        <time>2018-07-18T13:36:47Z</time>
      </trkpt>
      <trkpt lat="47.77645" lon="-3.5708">
        <ele>37</ele>
        <time>2018-07-18T13:36:48Z</time>
      </trkpt>
      <trkpt lat="47.77644" lon="-3.57074">
        <ele>37</ele>
        <time>2018-07-18T13:36:49Z</time>
      </trkpt>
      <trkpt lat="47.77644" lon="-3.57069">
        <ele>37</ele>
        <time>2018-07-18T13:36:50Z</time>
      </trkpt>
      <trkpt lat="47.77643" lon="-3.57064">
        <ele>37</ele>
        <time>2018-07-18T13:36:51Z</time>
      </trkpt>
      <trkpt lat="47.77643" lon="-3.57058">
        <ele>37</ele>
        <time>2018-07-18T13:36:52Z</time>
      </trkpt>
      <trkpt lat="47.77642" lon="-3.57052">
        <ele>37</ele>
        <time>2018-07-18T13:36:53Z</time>
      </trkpt>
      <trkpt lat="47.77642" lon="-3.57046">
        <ele>37</ele>
        <time>2018-07-18T13:36:54Z</time>
      </trkpt>
      <trkpt lat="47.77642" lon="-3.57041">
        <ele>37</ele>
        <time>2018-07-18T13:36:55Z</time>
      </trkpt>
      <trkpt lat="47.77641" lon="-3.57035">
        <ele>37</ele>
        <time>2018-07-18T13:36:56Z</time>
      </trkpt>
      <trkpt lat="47.77641" lon="-3.5703">
        <ele>37</ele>
        <time>2018-07-18T13:36:57Z</time>
      </trkpt>
      <trkpt lat="47.77641" lon="-3.57024">
        <ele>37</ele>
        <time>2018-07-18T13:36:58Z</time>
      </trkpt>
      <trkpt lat="47.7764" lon="-3.57019">
        <ele>37</ele>
        <time>2018-07-18T13:36:59Z</time>
      </trkpt>
      <trkpt lat="47.7764" lon="-3.57013">
        <ele>37</ele>
        <time>2018-07-18T13:37:00Z</time>
      </trkpt>
      <trkpt lat="47.77639" lon="-3.57007">
        <ele>37</ele>
        <time>2018-07-18T13:37:01Z</time>
      </trkpt>
      <trkpt lat="47.77639" lon="-3.57001">
        <ele>37</ele>
        <time>2018-07-18T13:37:02Z</time>
      </trkpt>
      <trkpt lat="47.77638" lon="-3.56995">
        <ele>37</ele>
        <time>2018-07-18T13:37:03Z</time>
      </trkpt>
      <trkpt lat="47.77638" lon="-3.56989">
        <ele>37</ele>
        <time>2018-07-18T13:37:04Z</time>
      </trkpt>
      <trkpt lat="47.77638" lon="-3.56983">
        <ele>37</ele>
        <time>2018-07-18T13:37:05Z</time>
      </trkpt>
      <trkpt lat="47.77637" lon="-3.56978">
        <ele>37</ele>
        <time>2018-07-18T13:37:06Z</time>
      </trkpt>
      <trkpt lat="47.77637" lon="-3.56972">
        <ele>38</ele>
        <time>2018-07-18T13:37:07Z</time>
      </trkpt>
      <trkpt lat="47.77636" lon="-3.56966">
        <ele>38</ele>
        <time>2018-07-18T13:37:08Z</time>
      </trkpt>
      <trkpt lat="47.77636" lon="-3.5696">
        <ele>38</ele>
        <time>2018-07-18T13:37:09Z</time>
      </trkpt>
      <trkpt lat="47.77635" lon="-3.56954">
        <ele>38</ele>
        <time>2018-07-18T13:37:10Z</time>
      </trkpt>
      <trkpt lat="47.77635" lon="-3.56948">
        <ele>39</ele>
        <time>2018-07-18T13:37:11Z</time>
      </trkpt>
      <trkpt lat="47.77635" lon="-3.56943">
        <ele>39</ele>
        <time>2018-07-18T13:37:12Z</time>
      </trkpt>
      <trkpt lat="47.77634" lon="-3.56937">
        <ele>39</ele>
        <time>2018-07-18T13:37:13Z</time>
      </trkpt>
      <trkpt lat="47.77634" lon="-3.56931">
        <ele>39</ele>
        <time>2018-07-18T13:37:14Z</time>
      </trkpt>
      <trkpt lat="47.77633" lon="-3.56926">
        <ele>39</ele>
        <time>2018-07-18T13:37:15Z</time>
      </trkpt>
      <trkpt lat="47.77632" lon="-3.5692">
        <ele>40</ele>
        <time>2018-07-18T13:37:16Z</time>
      </trkpt>
      <trkpt lat="47.77631" lon="-3.56915">
        <ele>40</ele>
        <time>2018-07-18T13:37:17Z</time>
      </trkpt>
      <trkpt lat="47.7763" lon="-3.5691">
        <ele>40</ele>
        <time>2018-07-18T13:37:18Z</time>
      </trkpt>
      <trkpt lat="47.77627" lon="-3.56907">
        <ele>40</ele>
        <time>2018-07-18T13:37:19Z</time>
      </trkpt>
      <trkpt lat="47.77623" lon="-3.56905">
        <ele>40</ele>
        <time>2018-07-18T13:37:20Z</time>
      </trkpt>
      <trkpt lat="47.77619" lon="-3.56904">
        <ele>41</ele>
        <time>2018-07-18T13:37:21Z</time>
      </trkpt>
      <trkpt lat="47.77615" lon="-3.56905">
        <ele>41</ele>
        <time>2018-07-18T13:37:22Z</time>
      </trkpt>
      <trkpt lat="47.77611" lon="-3.56906">
        <ele>41</ele>
        <time>2018-07-18T13:37:23Z</time>
      </trkpt>
      <trkpt lat="47.77607" lon="-3.56906">
        <ele>41</ele>
        <time>2018-07-18T13:37:24Z</time>
      </trkpt>
      <trkpt lat="47.77603" lon="-3.56907">
        <ele>41</ele>
        <time>2018-07-18T13:37:25Z</time>
      </trkpt>
      <trkpt lat="47.77598" lon="-3.56908">
        <ele>41</ele>
        <time>2018-07-18T13:37:26Z</time>
      </trkpt>
      <trkpt lat="47.77594" lon="-3.5691">
        <ele>41</ele>
        <time>2018-07-18T13:37:27Z</time>
      </trkpt>
      <trkpt lat="47.77589" lon="-3.56911">
        <ele>41</ele>
        <time>2018-07-18T13:37:28Z</time>
      </trkpt>
      <trkpt lat="47.77585" lon="-3.56913">
        <ele>40</ele>
        <time>2018-07-18T13:37:29Z</time>
      </trkpt>
      <trkpt lat="47.7758" lon="-3.56915">
        <ele>40</ele>
        <time>2018-07-18T13:37:30Z</time>
      </trkpt>
      <trkpt lat="47.77575" lon="-3.56917">
        <ele>40</ele>
        <time>2018-07-18T13:37:31Z</time>
      </trkpt>
      <trkpt lat="47.7757" lon="-3.56919">
        <ele>40</ele>
        <time>2018-07-18T13:37:32Z</time>
      </trkpt>
      <trkpt lat="47.77565" lon="-3.56921">
        <ele>40</ele>
        <time>2018-07-18T13:37:33Z</time>
      </trkpt>
      <trkpt lat="47.77561" lon="-3.56923">
        <ele>40</ele>
        <time>2018-07-18T13:37:34Z</time>
      </trkpt>
      <trkpt lat="47.77557" lon="-3.56926">
        <ele>40</ele>
        <time>2018-07-18T13:37:35Z</time>
      </trkpt>
      <trkpt lat="47.77552" lon="-3.56929">
        <ele>40</ele>
        <time>2018-07-18T13:37:36Z</time>
      </trkpt>
      <trkpt lat="47.77548" lon="-3.56932">
        <ele>40</ele>
        <time>2018-07-18T13:37:37Z</time>
      </trkpt>
      <trkpt lat="47.77544" lon="-3.56934">
        <ele>40</ele>
        <time>2018-07-18T13:37:38Z</time>
      </trkpt>
      <trkpt lat="47.77539" lon="-3.56937">
        <ele>40</ele>
        <time>2018-07-18T13:37:39Z</time>
      </trkpt>
      <trkpt lat="47.77535" lon="-3.5694">
        <ele>41</ele>
        <time>2018-07-18T13:37:40Z</time>
      </trkpt>
      <trkpt lat="47.77531" lon="-3.56943">
        <ele>41</ele>
        <time>2018-07-18T13:37:41Z</time>
      </trkpt>
      <trkpt lat="47.77527" lon="-3.56947">
        <ele>41</ele>
        <time>2018-07-18T13:37:42Z</time>
      </trkpt>
      <trkpt lat="47.77523" lon="-3.5695">
        <ele>41</ele>
        <time>2018-07-18T13:37:43Z</time>
      </trkpt>
      <trkpt lat="47.77519" lon="-3.56954">
        <ele>41</ele>
        <time>2018-07-18T13:37:44Z</time>
      </trkpt>
      <trkpt lat="47.77515" lon="-3.56957">
        <ele>41</ele>
        <time>2018-07-18T13:37:45Z</time>
      </trkpt>
      <trkpt lat="47.77511" lon="-3.5696">
        <ele>41</ele>
        <time>2018-07-18T13:37:46Z</time>
      </trkpt>
      <trkpt lat="47.77507" lon="-3.56964">
        <ele>41</ele>
        <time>2018-07-18T13:37:47Z</time>
      </trkpt>
      <trkpt lat="47.77502" lon="-3.56967">
        <ele>41</ele>
        <time>2018-07-18T13:37:48Z</time>
      </trkpt>
      <trkpt lat="47.77498" lon="-3.56971">
        <ele>41</ele>
        <time>2018-07-18T13:37:49Z</time>
      </trkpt>
      <trkpt lat="47.77493" lon="-3.56975">
        <ele>41</ele>
        <time>2018-07-18T13:37:50Z</time>
      </trkpt>
      <trkpt lat="47.77489" lon="-3.56979">
        <ele>41</ele>
        <time>2018-07-18T13:37:51Z</time>
      </trkpt>
      <trkpt lat="47.77484" lon="-3.56982">
        <ele>41</ele>
        <time>2018-07-18T13:37:52Z</time>
      </trkpt>
      <trkpt lat="47.7748" lon="-3.56985">
        <ele>41</ele>
        <time>2018-07-18T13:37:53Z</time>
      </trkpt>
      <trkpt lat="47.77474" lon="-3.56988">
        <ele>41</ele>
        <time>2018-07-18T13:37:54Z</time>
      </trkpt>
      <trkpt lat="47.7747" lon="-3.5699">
        <ele>41</ele>
        <time>2018-07-18T13:37:55Z</time>
      </trkpt>
      <trkpt lat="47.77464" lon="-3.56992">
        <ele>40</ele>
        <time>2018-07-18T13:37:56Z</time>
      </trkpt>
      <trkpt lat="47.77459" lon="-3.56995">
        <ele>40</ele>
        <time>2018-07-18T13:37:57Z</time>
      </trkpt>
      <trkpt lat="47.77454" lon="-3.56996">
        <ele>40</ele>
        <time>2018-07-18T13:37:58Z</time>
      </trkpt>
      <trkpt lat="47.77448" lon="-3.56998">
        <ele>40</ele>
        <time>2018-07-18T13:37:59Z</time>
      </trkpt>
      <trkpt lat="47.77443" lon="-3.56999">
        <ele>39</ele>
        <time>2018-07-18T13:38:00Z</time>
      </trkpt>
      <trkpt lat="47.77436" lon="-3.56999">
        <ele>39</ele>
        <time>2018-07-18T13:38:01Z</time>
      </trkpt>
      <trkpt lat="47.7743" lon="-3.56999">
        <ele>39</ele>
        <time>2018-07-18T13:38:02Z</time>
      </trkpt>
      <trkpt lat="47.77424" lon="-3.56997">
        <ele>39</ele>
        <time>2018-07-18T13:38:03Z</time>
      </trkpt>
      <trkpt lat="47.77417" lon="-3.56995">
        <ele>38</ele>
        <time>2018-07-18T13:38:04Z</time>
      </trkpt>
      <trkpt lat="47.77411" lon="-3.56991">
        <ele>38</ele>
        <time>2018-07-18T13:38:05Z</time>
      </trkpt>
      <trkpt lat="47.77405" lon="-3.56986">
        <ele>38</ele>
        <time>2018-07-18T13:38:06Z</time>
      </trkpt>
      <trkpt lat="47.77399" lon="-3.56981">
        <ele>38</ele>
        <time>2018-07-18T13:38:07Z</time>
      </trkpt>
      <trkpt lat="47.77393" lon="-3.56976">
        <ele>38</ele>
        <time>2018-07-18T13:38:08Z</time>
      </trkpt>
      <trkpt lat="47.77388" lon="-3.5697">
        <ele>38</ele>
        <time>2018-07-18T13:38:09Z</time>
      </trkpt>
      <trkpt lat="47.77383" lon="-3.56964">
        <ele>37</ele>
        <time>2018-07-18T13:38:10Z</time>
      </trkpt>
      <trkpt lat="47.77378" lon="-3.56958">
        <ele>37</ele>
        <time>2018-07-18T13:38:11Z</time>
      </trkpt>
      <trkpt lat="47.77372" lon="-3.56952">
        <ele>37</ele>
        <time>2018-07-18T13:38:12Z</time>
      </trkpt>
      <trkpt lat="47.77367" lon="-3.56947">
        <ele>37</ele>
        <time>2018-07-18T13:38:13Z</time>
      </trkpt>
      <trkpt lat="47.77362" lon="-3.56942">
        <ele>37</ele>
        <time>2018-07-18T13:38:14Z</time>
      </trkpt>
      <trkpt lat="47.77356" lon="-3.56937">
        <ele>37</ele>
        <time>2018-07-18T13:38:15Z</time>
      </trkpt>
      <trkpt lat="47.77351" lon="-3.56933">
        <ele>37</ele>
        <time>2018-07-18T13:38:16Z</time>
      </trkpt>
      <trkpt lat="47.77346" lon="-3.56929">
        <ele>37</ele>
        <time>2018-07-18T13:38:17Z</time>
      </trkpt>
      <trkpt lat="47.7734" lon="-3.56926">
        <ele>38</ele>
        <time>2018-07-18T13:38:18Z</time>
      </trkpt>
      <trkpt lat="47.77336" lon="-3.56924">
        <ele>38</ele>
        <time>2018-07-18T13:38:19Z</time>
      </trkpt>
      <trkpt lat="47.7733" lon="-3.56922">
        <ele>38</ele>
        <time>2018-07-18T13:38:20Z</time>
      </trkpt>
      <trkpt lat="47.77326" lon="-3.56919">
        <ele>38</ele>
        <time>2018-07-18T13:38:21Z</time>
      </trkpt>
      <trkpt lat="47.7732" lon="-3.56917">
        <ele>38</ele>
        <time>2018-07-18T13:38:22Z</time>
      </trkpt>
      <trkpt lat="47.77315" lon="-3.56914">
        <ele>38</ele>
        <time>2018-07-18T13:38:23Z</time>
      </trkpt>
      <trkpt lat="47.7731" lon="-3.56912">
        <ele>38</ele>
        <time>2018-07-18T13:38:24Z</time>
      </trkpt>
      <trkpt lat="47.77305" lon="-3.56909">
        <ele>38</ele>
        <time>2018-07-18T13:38:25Z</time>
      </trkpt>
      <trkpt lat="47.77299" lon="-3.56906">
        <ele>38</ele>
        <time>2018-07-18T13:38:26Z</time>
      </trkpt>
      <trkpt lat="47.77294" lon="-3.56903">
        <ele>38</ele>
        <time>2018-07-18T13:38:27Z</time>
      </trkpt>
      <trkpt lat="47.77289" lon="-3.569">
        <ele>38</ele>
        <time>2018-07-18T13:38:28Z</time>
      </trkpt>
      <trkpt lat="47.77284" lon="-3.56897">
        <ele>38</ele>
        <time>2018-07-18T13:38:29Z</time>
      </trkpt>
      <trkpt lat="47.77278" lon="-3.56894">
        <ele>38</ele>
        <time>2018-07-18T13:38:30Z</time>
      </trkpt>
      <trkpt lat="47.77273" lon="-3.5689">
        <ele>38</ele>
        <time>2018-07-18T13:38:31Z</time>
      </trkpt>
      <trkpt lat="47.77267" lon="-3.56886">
        <ele>38</ele>
        <time>2018-07-18T13:38:32Z</time>
      </trkpt>
      <trkpt lat="47.77261" lon="-3.56883">
        <ele>38</ele>
        <time>2018-07-18T13:38:33Z</time>
      </trkpt>
      <trkpt lat="47.77256" lon="-3.56879">
        <ele>37</ele>
        <time>2018-07-18T13:38:34Z</time>
      </trkpt>
      <trkpt lat="47.7725" lon="-3.56876">
        <ele>37</ele>
        <time>2018-07-18T13:38:35Z</time>
      </trkpt>
      <trkpt lat="47.77244" lon="-3.56872">
        <ele>37</ele>
        <time>2018-07-18T13:38:36Z</time>
      </trkpt>
      <trkpt lat="47.77238" lon="-3.56868">
        <ele>37</ele>
        <time>2018-07-18T13:38:37Z</time>
      </trkpt>
      <trkpt lat="47.77233" lon="-3.56864">
        <ele>36</ele>
        <time>2018-07-18T13:38:38Z</time>
      </trkpt>
      <trkpt lat="47.77227" lon="-3.56861">
        <ele>36</ele>
        <time>2018-07-18T13:38:39Z</time>
      </trkpt>
      <trkpt lat="47.77221" lon="-3.56858">
        <ele>36</ele>
        <time>2018-07-18T13:38:40Z</time>
      </trkpt>
      <trkpt lat="47.77215" lon="-3.56855">
        <ele>36</ele>
        <time>2018-07-18T13:38:41Z</time>
      </trkpt>
      <trkpt lat="47.7721" lon="-3.56852">
        <ele>35</ele>
        <time>2018-07-18T13:38:42Z</time>
      </trkpt>
      <trkpt lat="47.77205" lon="-3.5685">
        <ele>35</ele>
        <time>2018-07-18T13:38:43Z</time>
      </trkpt>
      <trkpt lat="47.772" lon="-3.56847">
        <ele>35</ele>
        <time>2018-07-18T13:38:44Z</time>
      </trkpt>
      <trkpt lat="47.77194" lon="-3.56844">
        <ele>35</ele>
        <time>2018-07-18T13:38:45Z</time>
      </trkpt>
      <trkpt lat="47.77188" lon="-3.56842">
        <ele>35</ele>
        <time>2018-07-18T13:38:46Z</time>
      </trkpt>
      <trkpt lat="47.77183" lon="-3.56839">
        <ele>35</ele>
        <time>2018-07-18T13:38:47Z</time>
      </trkpt>
      <trkpt lat="47.77177" lon="-3.56837">
        <ele>35</ele>
        <time>2018-07-18T13:38:48Z</time>
      </trkpt>
      <trkpt lat="47.77171" lon="-3.56835">
        <ele>34</ele>
        <time>2018-07-18T13:38:49Z</time>
      </trkpt>
      <trkpt lat="47.77166" lon="-3.56832">
        <ele>34</ele>
        <time>2018-07-18T13:38:50Z</time>
      </trkpt>
      <trkpt lat="47.7716" lon="-3.56831">
        <ele>34</ele>
        <time>2018-07-18T13:38:51Z</time>
      </trkpt>
      <trkpt lat="47.77154" lon="-3.56828">
        <ele>34</ele>
        <time>2018-07-18T13:38:52Z</time>
      </trkpt>
      <trkpt lat="47.77147" lon="-3.56827">
        <ele>33</ele>
        <time>2018-07-18T13:38:53Z</time>
      </trkpt>
      <trkpt lat="47.7714" lon="-3.56824">
        <ele>33</ele>
        <time>2018-07-18T13:38:54Z</time>
      </trkpt>
      <trkpt lat="47.77134" lon="-3.56822">
        <ele>33</ele>
        <time>2018-07-18T13:38:55Z</time>
      </trkpt>
      <trkpt lat="47.77128" lon="-3.56821">
        <ele>32</ele>
        <time>2018-07-18T13:38:56Z</time>
      </trkpt>
      <trkpt lat="47.77121" lon="-3.56821">
        <ele>32</ele>
        <time>2018-07-18T13:38:57Z</time>
      </trkpt>
      <trkpt lat="47.77116" lon="-3.56821">
        <ele>32</ele>
        <time>2018-07-18T13:38:58Z</time>
      </trkpt>
      <trkpt lat="47.77111" lon="-3.56821">
        <ele>31</ele>
        <time>2018-07-18T13:38:59Z</time>
      </trkpt>
      <trkpt lat="47.77109" lon="-3.5682">
        <ele>31</ele>
        <time>2018-07-18T13:39:00Z</time>
      </trkpt>
      <trkpt lat="47.77108" lon="-3.56816">
        <ele>31</ele>
        <time>2018-07-18T13:39:01Z</time>
      </trkpt>
      <trkpt lat="47.77109" lon="-3.56811">
        <ele>31</ele>
        <time>2018-07-18T13:39:02Z</time>
      </trkpt>
      <trkpt lat="47.7711" lon="-3.56805">
        <ele>31</ele>
        <time>2018-07-18T13:39:03Z</time>
      </trkpt>
      <trkpt lat="47.77111" lon="-3.56797">
        <ele>31</ele>
        <time>2018-07-18T13:39:04Z</time>
      </trkpt>
      <trkpt lat="47.77112" lon="-3.5679">
        <ele>31</ele>
        <time>2018-07-18T13:39:05Z</time>
      </trkpt>
      <trkpt lat="47.77113" lon="-3.56782">
        <ele>30</ele>
        <time>2018-07-18T13:39:06Z</time>
      </trkpt>
      <trkpt lat="47.77115" lon="-3.56774">
        <ele>30</ele>
        <time>2018-07-18T13:39:07Z</time>
      </trkpt>
      <trkpt lat="47.77116" lon="-3.56766">
        <ele>30</ele>
        <time>2018-07-18T13:39:08Z</time>
      </trkpt>
      <trkpt lat="47.77118" lon="-3.56759">
        <ele>30</ele>
        <time>2018-07-18T13:39:09Z</time>
      </trkpt>
      <trkpt lat="47.77119" lon="-3.56751">
        <ele>30</ele>
        <time>2018-07-18T13:39:10Z</time>
      </trkpt>
      <trkpt lat="47.77121" lon="-3.56743">
        <ele>29</ele>
        <time>2018-07-18T13:39:11Z</time>
      </trkpt>
      <trkpt lat="47.77122" lon="-3.56734">
        <ele>29</ele>
        <time>2018-07-18T13:39:12Z</time>
      </trkpt>
      <trkpt lat="47.77124" lon="-3.56726">
        <ele>29</ele>
        <time>2018-07-18T13:39:13Z</time>
      </trkpt>
      <trkpt lat="47.77126" lon="-3.56716">
        <ele>28</ele>
        <time>2018-07-18T13:39:14Z</time>
      </trkpt>
      <trkpt lat="47.77129" lon="-3.56707">
        <ele>28</ele>
        <time>2018-07-18T13:39:15Z</time>
      </trkpt>
      <trkpt lat="47.77131" lon="-3.56698">
        <ele>27</ele>
        <time>2018-07-18T13:39:16Z</time>
      </trkpt>
      <trkpt lat="47.77134" lon="-3.56689">
        <ele>27</ele>
        <time>2018-07-18T13:39:17Z</time>
      </trkpt>
      <trkpt lat="47.77136" lon="-3.56682">
        <ele>27</ele>
        <time>2018-07-18T13:39:18Z</time>
      </trkpt>
      <trkpt lat="47.77138" lon="-3.56677">
        <ele>27</ele>
        <time>2018-07-18T13:39:19Z</time>
      </trkpt>
      <trkpt lat="47.77139" lon="-3.56673">
        <ele>26</ele>
        <time>2018-07-18T13:39:20Z</time>
      </trkpt>
      <trkpt lat="47.77139" lon="-3.56671">
        <ele>26</ele>
        <time>2018-07-18T13:39:21Z</time>
      </trkpt>
      <trkpt lat="47.7714" lon="-3.56669">
        <ele>26</ele>
        <time>2018-07-18T13:39:22Z</time>
      </trkpt>
      <trkpt lat="47.7714" lon="-3.56667">
        <ele>26</ele>
        <time>2018-07-18T13:39:23Z</time>
      </trkpt>
      <trkpt lat="47.77141" lon="-3.56666">
        <ele>26</ele>
        <time>2018-07-18T13:39:24Z</time>
      </trkpt>
      <trkpt lat="47.77141" lon="-3.56664">
        <ele>26</ele>
        <time>2018-07-18T13:39:25Z</time>
      </trkpt>
      <trkpt lat="47.77142" lon="-3.56661">
        <ele>26</ele>
        <time>2018-07-18T13:39:26Z</time>
      </trkpt>
      <trkpt lat="47.77143" lon="-3.56658">
        <ele>26</ele>
        <time>2018-07-18T13:39:27Z</time>
      </trkpt>
      <trkpt lat="47.77145" lon="-3.56655">
        <ele>26</ele>
        <time>2018-07-18T13:39:28Z</time>
      </trkpt>
      <trkpt lat="47.77146" lon="-3.56652">
        <ele>26</ele>
        <time>2018-07-18T13:39:29Z</time>
      </trkpt>
      <trkpt lat="47.77147" lon="-3.56648">
        <ele>26</ele>
        <time>2018-07-18T13:39:30Z</time>
      </trkpt>
      <trkpt lat="47.77149" lon="-3.56644">
        <ele>26</ele>
        <time>2018-07-18T13:39:31Z</time>
      </trkpt>
      <trkpt lat="47.7715" lon="-3.56641">
        <ele>26</ele>
        <time>2018-07-18T13:39:32Z</time>
      </trkpt>
      <trkpt lat="47.77151" lon="-3.56637">
        <ele>26</ele>
        <time>2018-07-18T13:39:33Z</time>
      </trkpt>
      <trkpt lat="47.77152" lon="-3.56633">
        <ele>27</ele>
        <time>2018-07-18T13:39:34Z</time>
      </trkpt>
      <trkpt lat="47.77154" lon="-3.56628">
        <ele>27</ele>
        <time>2018-07-18T13:39:35Z</time>
      </trkpt>
      <trkpt lat="47.77155" lon="-3.56625">
        <ele>27</ele>
        <time>2018-07-18T13:39:36Z</time>
      </trkpt>
      <trkpt lat="47.77156" lon="-3.56621">
        <ele>27</ele>
        <time>2018-07-18T13:39:37Z</time>
      </trkpt>
      <trkpt lat="47.77158" lon="-3.56617">
        <ele>27</ele>
        <time>2018-07-18T13:39:38Z</time>
      </trkpt>
      <trkpt lat="47.7716" lon="-3.56614">
        <ele>27</ele>
        <time>2018-07-18T13:39:39Z</time>
      </trkpt>
      <trkpt lat="47.77162" lon="-3.56611">
        <ele>28</ele>
        <time>2018-07-18T13:39:40Z</time>
      </trkpt>
      <trkpt lat="47.77164" lon="-3.56608">
        <ele>28</ele>
        <time>2018-07-18T13:39:41Z</time>
      </trkpt>
      <trkpt lat="47.77165" lon="-3.56604">
        <ele>28</ele>
        <time>2018-07-18T13:39:42Z</time>
      </trkpt>
      <trkpt lat="47.77167" lon="-3.56601">
        <ele>28</ele>
        <time>2018-07-18T13:39:43Z</time>
      </trkpt>
      <trkpt lat="47.77169" lon="-3.56598">
        <ele>29</ele>
        <time>2018-07-18T13:39:44Z</time>
      </trkpt>
      <trkpt lat="47.77171" lon="-3.56594">
        <ele>29</ele>
        <time>2018-07-18T13:39:45Z</time>
      </trkpt>
      <trkpt lat="47.77173" lon="-3.56591">
        <ele>29</ele>
        <time>2018-07-18T13:39:46Z</time>
      </trkpt>
      <trkpt lat="47.77175" lon="-3.56587">
        <ele>29</ele>
        <time>2018-07-18T13:39:47Z</time>
      </trkpt>
      <trkpt lat="47.77178" lon="-3.56583">
        <ele>30</ele>
        <time>2018-07-18T13:39:48Z</time>
      </trkpt>
      <trkpt lat="47.7718" lon="-3.56579">
        <ele>30</ele>
        <time>2018-07-18T13:39:49Z</time>
      </trkpt>
      <trkpt lat="47.77182" lon="-3.56576">
        <ele>30</ele>
        <time>2018-07-18T13:39:50Z</time>
      </trkpt>
      <trkpt lat="47.77185" lon="-3.56573">
        <ele>30</ele>
        <time>2018-07-18T13:39:51Z</time>
      </trkpt>
      <trkpt lat="47.77187" lon="-3.5657">
        <ele>30</ele>
        <time>2018-07-18T13:39:52Z</time>
      </trkpt>
      <trkpt lat="47.7719" lon="-3.56568">
        <ele>31</ele>
        <time>2018-07-18T13:39:53Z</time>
      </trkpt>
      <trkpt lat="47.77193" lon="-3.56565">
        <ele>31</ele>
        <time>2018-07-18T13:39:54Z</time>
      </trkpt>
      <trkpt lat="47.77196" lon="-3.56562">
        <ele>31</ele>
        <time>2018-07-18T13:39:55Z</time>
      </trkpt>
      <trkpt lat="47.77199" lon="-3.56559">
        <ele>31</ele>
        <time>2018-07-18T13:39:56Z</time>
      </trkpt>
      <trkpt lat="47.77202" lon="-3.56556">
        <ele>31</ele>
        <time>2018-07-18T13:39:57Z</time>
      </trkpt>
      <trkpt lat="47.77205" lon="-3.56554">
        <ele>31</ele>
        <time>2018-07-18T13:39:58Z</time>
      </trkpt>
      <trkpt lat="47.77208" lon="-3.56551">
        <ele>31</ele>
        <time>2018-07-18T13:39:59Z</time>
      </trkpt>
      <trkpt lat="47.77211" lon="-3.56549">
        <ele>32</ele>
        <time>2018-07-18T13:40:00Z</time>
      </trkpt>
      <trkpt lat="47.77214" lon="-3.56547">
        <ele>32</ele>
        <time>2018-07-18T13:40:01Z</time>
      </trkpt>
      <trkpt lat="47.77218" lon="-3.56546">
        <ele>32</ele>
        <time>2018-07-18T13:40:02Z</time>
      </trkpt>
      <trkpt lat="47.77221" lon="-3.56545">
        <ele>32</ele>
        <time>2018-07-18T13:40:03Z</time>
      </trkpt>
      <trkpt lat="47.77225" lon="-3.56544">
        <ele>32</ele>
        <time>2018-07-18T13:40:04Z</time>
      </trkpt>
      <trkpt lat="47.77228" lon="-3.56543">
        <ele>32</ele>
        <time>2018-07-18T13:40:05Z</time>
      </trkpt>
      <trkpt lat="47.77231" lon="-3.56542">
        <ele>32</ele>
        <time>2018-07-18T13:40:06Z</time>
      </trkpt>
      <trkpt lat="47.77235" lon="-3.56541">
        <ele>32</ele>
        <time>2018-07-18T13:40:07Z</time>
      </trkpt>
      <trkpt lat="47.77238" lon="-3.56538">
        <ele>32</ele>
        <time>2018-07-18T13:40:08Z</time>
      </trkpt>
      <trkpt lat="47.77241" lon="-3.56535">
        <ele>32</ele>
        <time>2018-07-18T13:40:09Z</time>
      </trkpt>
      <trkpt lat="47.77244" lon="-3.56531">
        <ele>32</ele>
        <time>2018-07-18T13:40:10Z</time>
      </trkpt>
      <trkpt lat="47.77247" lon="-3.56527">
        <ele>32</ele>
        <time>2018-07-18T13:40:11Z</time>
      </trkpt>
      <trkpt lat="47.7725" lon="-3.56523">
        <ele>33</ele>
        <time>2018-07-18T13:40:12Z</time>
      </trkpt>
      <trkpt lat="47.77253" lon="-3.56519">
        <ele>33</ele>
        <time>2018-07-18T13:40:13Z</time>
      </trkpt>
      <trkpt lat="47.77256" lon="-3.56516">
        <ele>33</ele>
        <time>2018-07-18T13:40:14Z</time>
      </trkpt>
      <trkpt lat="47.77259" lon="-3.56514">
        <ele>33</ele>
        <time>2018-07-18T13:40:15Z</time>
      </trkpt>
      <trkpt lat="47.77263" lon="-3.56512">
        <ele>33</ele>
        <time>2018-07-18T13:40:16Z</time>
      </trkpt>
      <trkpt lat="47.77266" lon="-3.56511">
        <ele>33</ele>
        <time>2018-07-18T13:40:17Z</time>
      </trkpt>
      <trkpt lat="47.7727" lon="-3.5651">
        <ele>33</ele>
        <time>2018-07-18T13:40:18Z</time>
      </trkpt>
      <trkpt lat="47.77273" lon="-3.56508">
        <ele>33</ele>
        <time>2018-07-18T13:40:19Z</time>
      </trkpt>
      <trkpt lat="47.77277" lon="-3.56506">
        <ele>33</ele>
        <time>2018-07-18T13:40:20Z</time>
      </trkpt>
      <trkpt lat="47.7728" lon="-3.56504">
        <ele>33</ele>
        <time>2018-07-18T13:40:21Z</time>
      </trkpt>
      <trkpt lat="47.77283" lon="-3.56503">
        <ele>33</ele>
        <time>2018-07-18T13:40:22Z</time>
      </trkpt>
      <trkpt lat="47.77284" lon="-3.56502">
        <ele>33</ele>
        <time>2018-07-18T13:40:23Z</time>
      </trkpt>
      <trkpt lat="47.77286" lon="-3.56502">
        <ele>34</ele>
        <time>2018-07-18T13:40:24Z</time>
      </trkpt>
      <trkpt lat="47.77287" lon="-3.56503">
        <ele>34</ele>
        <time>2018-07-18T13:40:25Z</time>
      </trkpt>
      <trkpt lat="47.77289" lon="-3.56504">
        <ele>34</ele>
        <time>2018-07-18T13:40:26Z</time>
      </trkpt>
      <trkpt lat="47.7729" lon="-3.56506">
        <ele>34</ele>
        <time>2018-07-18T13:40:27Z</time>
      </trkpt>
      <trkpt lat="47.77293" lon="-3.56507">
        <ele>34</ele>
        <time>2018-07-18T13:40:28Z</time>
      </trkpt>
      <trkpt lat="47.77295" lon="-3.56509">
        <ele>34</ele>
        <time>2018-07-18T13:40:29Z</time>
      </trkpt>
      <trkpt lat="47.77298" lon="-3.56511">
        <ele>34</ele>
        <time>2018-07-18T13:40:30Z</time>
      </trkpt>
      <trkpt lat="47.77301" lon="-3.56513">
        <ele>34</ele>
        <time>2018-07-18T13:40:31Z</time>
      </trkpt>
      <trkpt lat="47.77304" lon="-3.56514">
        <ele>34</ele>
        <time>2018-07-18T13:40:32Z</time>
      </trkpt>
      <trkpt lat="47.77307" lon="-3.56515">
        <ele>34</ele>
        <time>2018-07-18T13:40:33Z</time>
      </trkpt>
      <trkpt lat="47.7731" lon="-3.56516">
        <ele>34</ele>
        <time>2018-07-18T13:40:34Z</time>
      </trkpt>
      <trkpt lat="47.77313" lon="-3.56518">
        <ele>35</ele>
        <time>2018-07-18T13:40:35Z</time>
      </trkpt>
      <trkpt lat="47.77317" lon="-3.5652">
        <ele>35</ele>
        <time>2018-07-18T13:40:36Z</time>
      </trkpt>
      <trkpt lat="47.7732" lon="-3.56523">
        <ele>35</ele>
        <time>2018-07-18T13:40:37Z</time>
      </trkpt>
      <trkpt lat="47.77323" lon="-3.56526">
        <ele>35</ele>
        <time>2018-07-18T13:40:38Z</time>
      </trkpt>
      <trkpt lat="47.77326" lon="-3.56529">
        <ele>35</ele>
        <time>2018-07-18T13:40:39Z</time>
      </trkpt>
      <trkpt lat="47.7733" lon="-3.56532">
        <ele>36</ele>
        <time>2018-07-18T13:40:40Z</time>
      </trkpt>
      <trkpt lat="47.77333" lon="-3.56535">
        <ele>36</ele>
        <time>2018-07-18T13:40:41Z</time>
      </trkpt>
      <trkpt lat="47.77336" lon="-3.56537">
        <ele>36</ele>
        <time>2018-07-18T13:40:42Z</time>
      </trkpt>
      <trkpt lat="47.7734" lon="-3.56538">
        <ele>36</ele>
        <time>2018-07-18T13:40:43Z</time>
      </trkpt>
      <trkpt lat="47.77344" lon="-3.5654">
        <ele>36</ele>
        <time>2018-07-18T13:40:44Z</time>
      </trkpt>
      <trkpt lat="47.77348" lon="-3.56542">
        <ele>36</ele>
        <time>2018-07-18T13:40:45Z</time>
      </trkpt>
      <trkpt lat="47.77352" lon="-3.56543">
        <ele>36</ele>
        <time>2018-07-18T13:40:46Z</time>
      </trkpt>
      <trkpt lat="47.77356" lon="-3.56545">
        <ele>36</ele>
        <time>2018-07-18T13:40:47Z</time>
      </trkpt>
      <trkpt lat="47.77361" lon="-3.56547">
        <ele>37</ele>
        <time>2018-07-18T13:40:48Z</time>
      </trkpt>
      <trkpt lat="47.77366" lon="-3.56549">
        <ele>37</ele>
        <time>2018-07-18T13:40:49Z</time>
      </trkpt>
      <trkpt lat="47.77371" lon="-3.56551">
        <ele>37</ele>
        <time>2018-07-18T13:40:50Z</time>
      </trkpt>
      <trkpt lat="47.77375" lon="-3.56552">
        <ele>37</ele>
        <time>2018-07-18T13:40:51Z</time>
      </trkpt>
      <trkpt lat="47.7738" lon="-3.56553">
        <ele>37</ele>
        <time>2018-07-18T13:40:52Z</time>
      </trkpt>
      <trkpt lat="47.77385" lon="-3.56554">
        <ele>37</ele>
        <time>2018-07-18T13:40:53Z</time>
      </trkpt>
      <trkpt lat="47.77389" lon="-3.56554">
        <ele>37</ele>
        <time>2018-07-18T13:40:54Z</time>
      </trkpt>
      <trkpt lat="47.77394" lon="-3.56555">
        <ele>37</ele>
        <time>2018-07-18T13:40:55Z</time>
      </trkpt>
      <trkpt lat="47.77399" lon="-3.56556">
        <ele>37</ele>
        <time>2018-07-18T13:40:56Z</time>
      </trkpt>
      <trkpt lat="47.77405" lon="-3.56556">
        <ele>37</ele>
        <time>2018-07-18T13:40:57Z</time>
      </trkpt>
      <trkpt lat="47.7741" lon="-3.56557">
        <ele>37</ele>
        <time>2018-07-18T13:40:58Z</time>
      </trkpt>
      <trkpt lat="47.77415" lon="-3.56558">
        <ele>37</ele>
        <time>2018-07-18T13:40:59Z</time>
      </trkpt>
      <trkpt lat="47.77421" lon="-3.56558">
        <ele>36</ele>
        <time>2018-07-18T13:41:00Z</time>
      </trkpt>
      <trkpt lat="47.77426" lon="-3.56558">
        <ele>36</ele>
        <time>2018-07-18T13:41:01Z</time>
      </trkpt>
      <trkpt lat="47.77431" lon="-3.56556">
        <ele>36</ele>
        <time>2018-07-18T13:41:02Z</time>
      </trkpt>
      <trkpt lat="47.77434" lon="-3.56553">
        <ele>37</ele>
        <time>2018-07-18T13:41:03Z</time>
      </trkpt>
      <trkpt lat="47.77436" lon="-3.56549">
        <ele>36</ele>
        <time>2018-07-18T13:41:04Z</time>
      </trkpt>
      <trkpt lat="47.77437" lon="-3.56545">
        <ele>36</ele>
        <time>2018-07-18T13:41:05Z</time>
      </trkpt>
      <trkpt lat="47.77438" lon="-3.56541">
        <ele>36</ele>
        <time>2018-07-18T13:41:06Z</time>
      </trkpt>
      <trkpt lat="47.77439" lon="-3.56536">
        <ele>36</ele>
        <time>2018-07-18T13:41:07Z</time>
      </trkpt>
      <trkpt lat="47.7744" lon="-3.56532">
        <ele>36</ele>
        <time>2018-07-18T13:41:08Z</time>
      </trkpt>
      <trkpt lat="47.77441" lon="-3.56526">
        <ele>36</ele>
        <time>2018-07-18T13:41:09Z</time>
      </trkpt>
      <trkpt lat="47.77441" lon="-3.56519">
        <ele>36</ele>
        <time>2018-07-18T13:41:10Z</time>
      </trkpt>
      <trkpt lat="47.7744" lon="-3.56513">
        <ele>36</ele>
        <time>2018-07-18T13:41:11Z</time>
      </trkpt>
      <trkpt lat="47.77438" lon="-3.5651">
        <ele>36</ele>
        <time>2018-07-18T13:41:12Z</time>
      </trkpt>
      <trkpt lat="47.77437" lon="-3.56507">
        <ele>36</ele>
        <time>2018-07-18T13:41:13Z</time>
      </trkpt>
      <trkpt lat="47.77436" lon="-3.56506">
        <ele>36</ele>
        <time>2018-07-18T13:41:14Z</time>
      </trkpt>
      <trkpt lat="47.77435" lon="-3.56505">
        <ele>36</ele>
        <time>2018-07-18T13:41:15Z</time>
      </trkpt>
      <trkpt lat="47.77435" lon="-3.56503">
        <ele>36</ele>
        <time>2018-07-18T13:41:16Z</time>
      </trkpt>
      <trkpt lat="47.77435" lon="-3.56502">
        <ele>36</ele>
        <time>2018-07-18T13:41:17Z</time>
      </trkpt>
      <trkpt lat="47.77435" lon="-3.56502">
        <ele>36</ele>
        <time>2018-07-18T13:41:18Z</time>
      </trkpt>
      <trkpt lat="47.77436" lon="-3.56503">
        <ele>36</ele>
        <time>2018-07-18T13:41:19Z</time>
      </trkpt>
      <trkpt lat="47.77437" lon="-3.56505">
        <ele>36</ele>
        <time>2018-07-18T13:41:20Z</time>
      </trkpt>
      <trkpt lat="47.77439" lon="-3.56508">
        <ele>36</ele>
        <time>2018-07-18T13:41:21Z</time>
      </trkpt>
      <trkpt lat="47.7744" lon="-3.56511">
        <ele>36</ele>
        <time>2018-07-18T13:41:22Z</time>
      </trkpt>
      <trkpt lat="47.77441" lon="-3.56515">
        <ele>36</ele>
        <time>2018-07-18T13:41:23Z</time>
      </trkpt>
      <trkpt lat="47.77442" lon="-3.56518">
        <ele>36</ele>
        <time>2018-07-18T13:41:24Z</time>
      </trkpt>
      <trkpt lat="47.77443" lon="-3.56522">
        <ele>36</ele>
        <time>2018-07-18T13:41:25Z</time>
      </trkpt>
      <trkpt lat="47.77444" lon="-3.56526">
        <ele>37</ele>
        <time>2018-07-18T13:41:26Z</time>
      </trkpt>
      <trkpt lat="47.77446" lon="-3.5653">
        <ele>37</ele>
        <time>2018-07-18T13:41:27Z</time>
      </trkpt>
      <trkpt lat="47.77448" lon="-3.56534">
        <ele>37</ele>
        <time>2018-07-18T13:41:28Z</time>
      </trkpt>
      <trkpt lat="47.77451" lon="-3.56537">
        <ele>37</ele>
        <time>2018-07-18T13:41:29Z</time>
      </trkpt>
      <trkpt lat="47.77454" lon="-3.56539">
        <ele>37</ele>
        <time>2018-07-18T13:41:30Z</time>
      </trkpt>
      <trkpt lat="47.77457" lon="-3.56542">
        <ele>37</ele>
        <time>2018-07-18T13:41:31Z</time>
      </trkpt>
      <trkpt lat="47.7746" lon="-3.56544">
        <ele>37</ele>
        <time>2018-07-18T13:41:32Z</time>
      </trkpt>
      <trkpt lat="47.77464" lon="-3.56546">
        <ele>38</ele>
        <time>2018-07-18T13:41:33Z</time>
      </trkpt>
      <trkpt lat="47.77467" lon="-3.56546">
        <ele>38</ele>
        <time>2018-07-18T13:41:34Z</time>
      </trkpt>
      <trkpt lat="47.7747" lon="-3.56543">
        <ele>37</ele>
        <time>2018-07-18T13:41:35Z</time>
      </trkpt>
      <trkpt lat="47.77473" lon="-3.56538">
        <ele>37</ele>
        <time>2018-07-18T13:41:36Z</time>
      </trkpt>
      <trkpt lat="47.77475" lon="-3.56533">
        <ele>37</ele>
        <time>2018-07-18T13:41:37Z</time>
      </trkpt>
      <trkpt lat="47.77478" lon="-3.56527">
        <ele>37</ele>
        <time>2018-07-18T13:41:38Z</time>
      </trkpt>
      <trkpt lat="47.77481" lon="-3.56521">
        <ele>37</ele>
        <time>2018-07-18T13:41:39Z</time>
      </trkpt>
      <trkpt lat="47.77484" lon="-3.56515">
        <ele>36</ele>
        <time>2018-07-18T13:41:40Z</time>
      </trkpt>
      <trkpt lat="47.77488" lon="-3.5651">
        <ele>36</ele>
        <time>2018-07-18T13:41:41Z</time>
      </trkpt>
      <trkpt lat="47.77491" lon="-3.56505">
        <ele>36</ele>
        <time>2018-07-18T13:41:42Z</time>
      </trkpt>
      <trkpt lat="47.77495" lon="-3.56499">
        <ele>36</ele>
        <time>2018-07-18T13:41:43Z</time>
      </trkpt>
      <trkpt lat="47.77498" lon="-3.56494">
        <ele>36</ele>
        <time>2018-07-18T13:41:44Z</time>
      </trkpt>
      <trkpt lat="47.77502" lon="-3.56489">
        <ele>36</ele>
        <time>2018-07-18T13:41:45Z</time>
      </trkpt>
      <trkpt lat="47.77506" lon="-3.56484">
        <ele>36</ele>
        <time>2018-07-18T13:41:46Z</time>
      </trkpt>
      <trkpt lat="47.7751" lon="-3.56479">
        <ele>36</ele>
        <time>2018-07-18T13:41:47Z</time>
      </trkpt>
      <trkpt lat="47.77513" lon="-3.56475">
        <ele>36</ele>
        <time>2018-07-18T13:41:48Z</time>
      </trkpt>
      <trkpt lat="47.77518" lon="-3.56471">
        <ele>35</ele>
        <time>2018-07-18T13:41:49Z</time>
      </trkpt>
      <trkpt lat="47.77522" lon="-3.56468">
        <ele>35</ele>
        <time>2018-07-18T13:41:50Z</time>
      </trkpt>
      <trkpt lat="47.77526" lon="-3.56465">
        <ele>35</ele>
        <time>2018-07-18T13:41:51Z</time>
      </trkpt>
      <trkpt lat="47.77531" lon="-3.56461">
        <ele>35</ele>
        <time>2018-07-18T13:41:52Z</time>
      </trkpt>
      <trkpt lat="47.77535" lon="-3.56457">
        <ele>35</ele>
        <time>2018-07-18T13:41:53Z</time>
      </trkpt>
      <trkpt lat="47.77538" lon="-3.56451">
        <ele>35</ele>
        <time>2018-07-18T13:41:54Z</time>
      </trkpt>
      <trkpt lat="47.77542" lon="-3.56445">
        <ele>35</ele>
        <time>2018-07-18T13:41:55Z</time>
      </trkpt>
      <trkpt lat="47.77546" lon="-3.56439">
        <ele>35</ele>
        <time>2018-07-18T13:41:56Z</time>
      </trkpt>
      <trkpt lat="47.77549" lon="-3.56433">
        <ele>35</ele>
        <time>2018-07-18T13:41:57Z</time>
      </trkpt>
      <trkpt lat="47.77554" lon="-3.56427">
        <ele>35</ele>
        <time>2018-07-18T13:41:58Z</time>
      </trkpt>
      <trkpt lat="47.77558" lon="-3.56422">
        <ele>35</ele>
        <time>2018-07-18T13:41:59Z</time>
      </trkpt>
      <trkpt lat="47.77563" lon="-3.56417">
        <ele>35</ele>
        <time>2018-07-18T13:42:00Z</time>
      </trkpt>
      <trkpt lat="47.77567" lon="-3.56413">
        <ele>35</ele>
        <time>2018-07-18T13:42:01Z</time>
      </trkpt>
      <trkpt lat="47.77571" lon="-3.56409">
        <ele>35</ele>
        <time>2018-07-18T13:42:02Z</time>
      </trkpt>
      <trkpt lat="47.77573" lon="-3.56405">
        <ele>35</ele>
        <time>2018-07-18T13:42:03Z</time>
      </trkpt>
      <trkpt lat="47.77575" lon="-3.564">
        <ele>36</ele>
        <time>2018-07-18T13:42:04Z</time>
      </trkpt>
      <trkpt lat="47.77576" lon="-3.56396">
        <ele>36</ele>
        <time>2018-07-18T13:42:05Z</time>
      </trkpt>
      <trkpt lat="47.77576" lon="-3.56391">
        <ele>36</ele>
        <time>2018-07-18T13:42:06Z</time>
      </trkpt>
      <trkpt lat="47.77577" lon="-3.56387">
        <ele>36</ele>
        <time>2018-07-18T13:42:07Z</time>
      </trkpt>
      <trkpt lat="47.77578" lon="-3.56382">
        <ele>36</ele>
        <time>2018-07-18T13:42:08Z</time>
      </trkpt>
      <trkpt lat="47.77579" lon="-3.56378">
        <ele>36</ele>
        <time>2018-07-18T13:42:09Z</time>
      </trkpt>
      <trkpt lat="47.77582" lon="-3.56375">
        <ele>36</ele>
        <time>2018-07-18T13:42:10Z</time>
      </trkpt>
      <trkpt lat="47.77586" lon="-3.56373">
        <ele>36</ele>
        <time>2018-07-18T13:42:11Z</time>
      </trkpt>
      <trkpt lat="47.77589" lon="-3.56372">
        <ele>36</ele>
        <time>2018-07-18T13:42:12Z</time>
      </trkpt>
      <trkpt lat="47.77592" lon="-3.56371">
        <ele>36</ele>
        <time>2018-07-18T13:42:13Z</time>
      </trkpt>
      <trkpt lat="47.77595" lon="-3.56369">
        <ele>36</ele>
        <time>2018-07-18T13:42:14Z</time>
      </trkpt>
      <trkpt lat="47.77598" lon="-3.56368">
        <ele>37</ele>
        <time>2018-07-18T13:42:15Z</time>
      </trkpt>
      <trkpt lat="47.77602" lon="-3.56367">
        <ele>37</ele>
        <time>2018-07-18T13:42:16Z</time>
      </trkpt>
      <trkpt lat="47.77605" lon="-3.56366">
        <ele>37</ele>
        <time>2018-07-18T13:42:17Z</time>
      </trkpt>
      <trkpt lat="47.77609" lon="-3.56365">
        <ele>37</ele>
        <time>2018-07-18T13:42:18Z</time>
      </trkpt>
      <trkpt lat="47.77614" lon="-3.56364">
        <ele>37</ele>
        <time>2018-07-18T13:42:19Z</time>
      </trkpt>
      <trkpt lat="47.77618" lon="-3.56364">
        <ele>37</ele>
        <time>2018-07-18T13:42:20Z</time>
      </trkpt>
      <trkpt lat="47.77622" lon="-3.56363">
        <ele>37</ele>
        <time>2018-07-18T13:42:21Z</time>
      </trkpt>
      <trkpt lat="47.77626" lon="-3.56362">
        <ele>38</ele>
        <time>2018-07-18T13:42:22Z</time>
      </trkpt>
      <trkpt lat="47.7763" lon="-3.56362">
        <ele>38</ele>
        <time>2018-07-18T13:42:23Z</time>
      </trkpt>
      <trkpt lat="47.77634" lon="-3.56361">
        <ele>38</ele>
        <time>2018-07-18T13:42:24Z</time>
      </trkpt>
      <trkpt lat="47.77638" lon="-3.5636">
        <ele>38</ele>
        <time>2018-07-18T13:42:25Z</time>
      </trkpt>
      <trkpt lat="47.77641" lon="-3.56359">
        <ele>38</ele>
        <time>2018-07-18T13:42:26Z</time>
      </trkpt>
      <trkpt lat="47.77645" lon="-3.56358">
        <ele>38</ele>
        <time>2018-07-18T13:42:27Z</time>
      </trkpt>
      <trkpt lat="47.77649" lon="-3.56357">
        <ele>38</ele>
        <time>2018-07-18T13:42:28Z</time>
      </trkpt>
      <trkpt lat="47.77652" lon="-3.56356">
        <ele>38</ele>
        <time>2018-07-18T13:42:29Z</time>
      </trkpt>
      <trkpt lat="47.77656" lon="-3.56355">
        <ele>39</ele>
        <time>2018-07-18T13:42:30Z</time>
      </trkpt>
      <trkpt lat="47.7766" lon="-3.56355">
        <ele>39</ele>
        <time>2018-07-18T13:42:31Z</time>
      </trkpt>
      <trkpt lat="47.77664" lon="-3.56355">
        <ele>39</ele>
        <time>2018-07-18T13:42:32Z</time>
      </trkpt>
      <trkpt lat="47.77668" lon="-3.56355">
        <ele>39</ele>
        <time>2018-07-18T13:42:33Z</time>
      </trkpt>
      <trkpt lat="47.77672" lon="-3.56355">
        <ele>40</ele>
        <time>2018-07-18T13:42:34Z</time>
      </trkpt>
      <trkpt lat="47.77677" lon="-3.56355">
        <ele>40</ele>
        <time>2018-07-18T13:42:35Z</time>
      </trkpt>
      <trkpt lat="47.77681" lon="-3.56354">
        <ele>40</ele>
        <time>2018-07-18T13:42:36Z</time>
      </trkpt>
      <trkpt lat="47.77686" lon="-3.56353">
        <ele>40</ele>
        <time>2018-07-18T13:42:37Z</time>
      </trkpt>
      <trkpt lat="47.7769" lon="-3.56351">
        <ele>40</ele>
        <time>2018-07-18T13:42:38Z</time>
      </trkpt>
      <trkpt lat="47.77694" lon="-3.5635">
        <ele>40</ele>
        <time>2018-07-18T13:42:39Z</time>
      </trkpt>
      <trkpt lat="47.77699" lon="-3.56349">
        <ele>40</ele>
        <time>2018-07-18T13:42:40Z</time>
      </trkpt>
      <trkpt lat="47.77702" lon="-3.56348">
        <ele>41</ele>
        <time>2018-07-18T13:42:41Z</time>
      </trkpt>
      <trkpt lat="47.77705" lon="-3.56346">
        <ele>41</ele>
        <time>2018-07-18T13:42:42Z</time>
      </trkpt>
      <trkpt lat="47.77706" lon="-3.56344">
        <ele>41</ele>
        <time>2018-07-18T13:42:43Z</time>
      </trkpt>
      <trkpt lat="47.77706" lon="-3.56341">
        <ele>41</ele>
        <time>2018-07-18T13:42:44Z</time>
      </trkpt>
      <trkpt lat="47.77705" lon="-3.56338">
        <ele>41</ele>
        <time>2018-07-18T13:42:45Z</time>
      </trkpt>
      <trkpt lat="47.77704" lon="-3.56334">
        <ele>41</ele>
        <time>2018-07-18T13:42:46Z</time>
      </trkpt>
      <trkpt lat="47.77703" lon="-3.56328">
        <ele>41</ele>
        <time>2018-07-18T13:42:47Z</time>
      </trkpt>
      <trkpt lat="47.77702" lon="-3.56322">
        <ele>40</ele>
        <time>2018-07-18T13:42:48Z</time>
      </trkpt>
      <trkpt lat="47.77702" lon="-3.56315">
        <ele>40</ele>
        <time>2018-07-18T13:42:49Z</time>
      </trkpt>
      <trkpt lat="47.77701" lon="-3.56308">
        <ele>40</ele>
        <time>2018-07-18T13:42:50Z</time>
      </trkpt>
      <trkpt lat="47.77701" lon="-3.56301">
        <ele>40</ele>
        <time>2018-07-18T13:42:51Z</time>
      </trkpt>
      <trkpt lat="47.77701" lon="-3.56295">
        <ele>39</ele>
        <time>2018-07-18T13:42:52Z</time>
      </trkpt>
      <trkpt lat="47.777" lon="-3.56288">
        <ele>39</ele>
        <time>2018-07-18T13:42:53Z</time>
      </trkpt>
      <trkpt lat="47.77699" lon="-3.56282">
        <ele>39</ele>
        <time>2018-07-18T13:42:54Z</time>
      </trkpt>
      <trkpt lat="47.77698" lon="-3.56276">
        <ele>39</ele>
        <time>2018-07-18T13:42:55Z</time>
      </trkpt>
      <trkpt lat="47.77697" lon="-3.5627">
        <ele>39</ele>
        <time>2018-07-18T13:42:56Z</time>
      </trkpt>
      <trkpt lat="47.77695" lon="-3.56263">
        <ele>39</ele>
        <time>2018-07-18T13:42:57Z</time>
      </trkpt>
      <trkpt lat="47.77694" lon="-3.56257">
        <ele>39</ele>
        <time>2018-07-18T13:42:58Z</time>
      </trkpt>
      <trkpt lat="47.77693" lon="-3.5625">
        <ele>39</ele>
        <time>2018-07-18T13:42:59Z</time>
      </trkpt>
      <trkpt lat="47.77693" lon="-3.56244">
        <ele>39</ele>
        <time>2018-07-18T13:43:00Z</time>
      </trkpt>
      <trkpt lat="47.77694" lon="-3.56237">
        <ele>39</ele>
        <time>2018-07-18T13:43:01Z</time>
      </trkpt>
      <trkpt lat="47.77696" lon="-3.5623">
        <ele>39</ele>
        <time>2018-07-18T13:43:02Z</time>
      </trkpt>
      <trkpt lat="47.77697" lon="-3.56223">
        <ele>39</ele>
        <time>2018-07-18T13:43:03Z</time>
      </trkpt>
      <trkpt lat="47.77699" lon="-3.56217">
        <ele>39</ele>
        <time>2018-07-18T13:43:04Z</time>
      </trkpt>
      <trkpt lat="47.777" lon="-3.5621">
        <ele>39</ele>
        <time>2018-07-18T13:43:05Z</time>
      </trkpt>
      <trkpt lat="47.77702" lon="-3.56203">
        <ele>39</ele>
        <time>2018-07-18T13:43:06Z</time>
      </trkpt>
      <trkpt lat="47.77705" lon="-3.56196">
        <ele>39</ele>
        <time>2018-07-18T13:43:07Z</time>
      </trkpt>
      <trkpt lat="47.77707" lon="-3.5619">
        <ele>39</ele>
        <time>2018-07-18T13:43:08Z</time>
      </trkpt>
      <trkpt lat="47.77709" lon="-3.56183">
        <ele>39</ele>
        <time>2018-07-18T13:43:09Z</time>
      </trkpt>
      <trkpt lat="47.77711" lon="-3.56176">
        <ele>39</ele>
        <time>2018-07-18T13:43:10Z</time>
      </trkpt>
      <trkpt lat="47.77714" lon="-3.5617">
        <ele>39</ele>
        <time>2018-07-18T13:43:11Z</time>
      </trkpt>
      <trkpt lat="47.77716" lon="-3.56164">
        <ele>39</ele>
        <time>2018-07-18T13:43:12Z</time>
      </trkpt>
      <trkpt lat="47.77718" lon="-3.56158">
        <ele>39</ele>
        <time>2018-07-18T13:43:13Z</time>
      </trkpt>
      <trkpt lat="47.7772" lon="-3.56151">
        <ele>39</ele>
        <time>2018-07-18T13:43:14Z</time>
      </trkpt>
      <trkpt lat="47.77723" lon="-3.56144">
        <ele>39</ele>
        <time>2018-07-18T13:43:15Z</time>
      </trkpt>
      <trkpt lat="47.77725" lon="-3.56137">
        <ele>39</ele>
        <time>2018-07-18T13:43:16Z</time>
      </trkpt>
      <trkpt lat="47.77727" lon="-3.5613">
        <ele>39</ele>
        <time>2018-07-18T13:43:17Z</time>
      </trkpt>
      <trkpt lat="47.77729" lon="-3.56123">
        <ele>39</ele>
        <time>2018-07-18T13:43:18Z</time>
      </trkpt>
      <trkpt lat="47.77732" lon="-3.56117">
        <ele>38</ele>
        <time>2018-07-18T13:43:19Z</time>
      </trkpt>
      <trkpt lat="47.77734" lon="-3.5611">
        <ele>38</ele>
        <time>2018-07-18T13:43:20Z</time>
      </trkpt>
      <trkpt lat="47.77736" lon="-3.56103">
        <ele>38</ele>
        <time>2018-07-18T13:43:21Z</time>
      </trkpt>
      <trkpt lat="47.77737" lon="-3.56096">
        <ele>38</ele>
        <time>2018-07-18T13:43:22Z</time>
      </trkpt>
      <trkpt lat="47.77739" lon="-3.5609">
        <ele>38</ele>
        <time>2018-07-18T13:43:23Z</time>
      </trkpt>
      <trkpt lat="47.77741" lon="-3.56084">
        <ele>38</ele>
        <time>2018-07-18T13:43:24Z</time>
      </trkpt>
      <trkpt lat="47.77743" lon="-3.56077">
        <ele>38</ele>
        <time>2018-07-18T13:43:25Z</time>
      </trkpt>
      <trkpt lat="47.77745" lon="-3.5607">
        <ele>38</ele>
        <time>2018-07-18T13:43:26Z</time>
      </trkpt>
      <trkpt lat="47.77747" lon="-3.56063">
        <ele>38</ele>
        <time>2018-07-18T13:43:27Z</time>
      </trkpt>
      <trkpt lat="47.77748" lon="-3.56057">
        <ele>37</ele>
        <time>2018-07-18T13:43:28Z</time>
      </trkpt>
      <trkpt lat="47.7775" lon="-3.56051">
        <ele>37</ele>
        <time>2018-07-18T13:43:29Z</time>
      </trkpt>
      <trkpt lat="47.77752" lon="-3.56046">
        <ele>38</ele>
        <time>2018-07-18T13:43:30Z</time>
      </trkpt>
      <trkpt lat="47.77753" lon="-3.56041">
        <ele>38</ele>
        <time>2018-07-18T13:43:31Z</time>
      </trkpt>
      <trkpt lat="47.77755" lon="-3.56036">
        <ele>38</ele>
        <time>2018-07-18T13:43:32Z</time>
      </trkpt>
      <trkpt lat="47.77756" lon="-3.56031">
        <ele>38</ele>
        <time>2018-07-18T13:43:33Z</time>
      </trkpt>
      <trkpt lat="47.77758" lon="-3.56026">
        <ele>38</ele>
        <time>2018-07-18T13:43:34Z</time>
      </trkpt>
      <trkpt lat="47.77759" lon="-3.5602">
        <ele>38</ele>
        <time>2018-07-18T13:43:35Z</time>
      </trkpt>
      <trkpt lat="47.7776" lon="-3.56015">
        <ele>38</ele>
        <time>2018-07-18T13:43:36Z</time>
      </trkpt>
      <trkpt lat="47.77762" lon="-3.5601">
        <ele>38</ele>
        <time>2018-07-18T13:43:37Z</time>
      </trkpt>
      <trkpt lat="47.77764" lon="-3.56005">
        <ele>38</ele>
        <time>2018-07-18T13:43:38Z</time>
      </trkpt>
      <trkpt lat="47.77765" lon="-3.56001">
        <ele>38</ele>
        <time>2018-07-18T13:43:39Z</time>
      </trkpt>
      <trkpt lat="47.77767" lon="-3.55996">
        <ele>38</ele>
        <time>2018-07-18T13:43:40Z</time>
      </trkpt>
      <trkpt lat="47.77769" lon="-3.55991">
        <ele>38</ele>
        <time>2018-07-18T13:43:41Z</time>
      </trkpt>
      <trkpt lat="47.7777" lon="-3.55986">
        <ele>38</ele>
        <time>2018-07-18T13:43:42Z</time>
      </trkpt>
      <trkpt lat="47.77772" lon="-3.55981">
        <ele>38</ele>
        <time>2018-07-18T13:43:43Z</time>
      </trkpt>
      <trkpt lat="47.77775" lon="-3.55975">
        <ele>38</ele>
        <time>2018-07-18T13:43:44Z</time>
      </trkpt>
      <trkpt lat="47.77777" lon="-3.55969">
        <ele>38</ele>
        <time>2018-07-18T13:43:45Z</time>
      </trkpt>
      <trkpt lat="47.77779" lon="-3.55963">
        <ele>38</ele>
        <time>2018-07-18T13:43:46Z</time>
      </trkpt>
      <trkpt lat="47.77782" lon="-3.55957">
        <ele>38</ele>
        <time>2018-07-18T13:43:47Z</time>
      </trkpt>
      <trkpt lat="47.77785" lon="-3.5595">
        <ele>38</ele>
        <time>2018-07-18T13:43:48Z</time>
      </trkpt>
      <trkpt lat="47.77787" lon="-3.55943">
        <ele>38</ele>
        <time>2018-07-18T13:43:49Z</time>
      </trkpt>
      <trkpt lat="47.77789" lon="-3.55936">
        <ele>38</ele>
        <time>2018-07-18T13:43:50Z</time>
      </trkpt>
      <trkpt lat="47.77792" lon="-3.55929">
        <ele>38</ele>
        <time>2018-07-18T13:43:51Z</time>
      </trkpt>
      <trkpt lat="47.77794" lon="-3.55922">
        <ele>37</ele>
        <time>2018-07-18T13:43:52Z</time>
      </trkpt>
      <trkpt lat="47.77797" lon="-3.55916">
        <ele>37</ele>
        <time>2018-07-18T13:43:53Z</time>
      </trkpt>
      <trkpt lat="47.77799" lon="-3.55909">
        <ele>37</ele>
        <time>2018-07-18T13:43:54Z</time>
      </trkpt>
      <trkpt lat="47.77802" lon="-3.55902">
        <ele>37</ele>
        <time>2018-07-18T13:43:55Z</time>
      </trkpt>
      <trkpt lat="47.77805" lon="-3.55896">
        <ele>37</ele>
        <time>2018-07-18T13:43:56Z</time>
      </trkpt>
      <trkpt lat="47.77808" lon="-3.55889">
        <ele>37</ele>
        <time>2018-07-18T13:43:57Z</time>
      </trkpt>
      <trkpt lat="47.77811" lon="-3.55884">
        <ele>37</ele>
        <time>2018-07-18T13:43:58Z</time>
      </trkpt>
      <trkpt lat="47.77814" lon="-3.55878">
        <ele>36</ele>
        <time>2018-07-18T13:43:59Z</time>
      </trkpt>
      <trkpt lat="47.77816" lon="-3.55872">
        <ele>36</ele>
        <time>2018-07-18T13:44:00Z</time>
      </trkpt>
      <trkpt lat="47.77819" lon="-3.55866">
        <ele>36</ele>
        <time>2018-07-18T13:44:01Z</time>
      </trkpt>
      <trkpt lat="47.77822" lon="-3.5586">
        <ele>36</ele>
        <time>2018-07-18T13:44:02Z</time>
      </trkpt>
      <trkpt lat="47.77826" lon="-3.55855">
        <ele>36</ele>
        <time>2018-07-18T13:44:03Z</time>
      </trkpt>
      <trkpt lat="47.77829" lon="-3.5585">
        <ele>36</ele>
        <time>2018-07-18T13:44:04Z</time>
      </trkpt>
      <trkpt lat="47.77832" lon="-3.55845">
        <ele>36</ele>
        <time>2018-07-18T13:44:05Z</time>
      </trkpt>
      <trkpt lat="47.77835" lon="-3.5584">
        <ele>36</ele>
        <time>2018-07-18T13:44:06Z</time>
      </trkpt>
      <trkpt lat="47.77838" lon="-3.55835">
        <ele>35</ele>
        <time>2018-07-18T13:44:07Z</time>
      </trkpt>
      <trkpt lat="47.77841" lon="-3.5583">
        <ele>35</ele>
        <time>2018-07-18T13:44:08Z</time>
      </trkpt>
      <trkpt lat="47.77844" lon="-3.55825">
        <ele>35</ele>
        <time>2018-07-18T13:44:09Z</time>
      </trkpt>
      <trkpt lat="47.77847" lon="-3.5582">
        <ele>35</ele>
        <time>2018-07-18T13:44:10Z</time>
      </trkpt>
      <trkpt lat="47.7785" lon="-3.55815">
        <ele>35</ele>
        <time>2018-07-18T13:44:11Z</time>
      </trkpt>
      <trkpt lat="47.77854" lon="-3.55809">
        <ele>35</ele>
        <time>2018-07-18T13:44:12Z</time>
      </trkpt>
      <trkpt lat="47.77857" lon="-3.55804">
        <ele>35</ele>
        <time>2018-07-18T13:44:13Z</time>
      </trkpt>
      <trkpt lat="47.7786" lon="-3.55799">
        <ele>35</ele>
        <time>2018-07-18T13:44:14Z</time>
      </trkpt>
      <trkpt lat="47.77864" lon="-3.55794">
        <ele>35</ele>
        <time>2018-07-18T13:44:15Z</time>
      </trkpt>
      <trkpt lat="47.77867" lon="-3.55791">
        <ele>35</ele>
        <time>2018-07-18T13:44:16Z</time>
      </trkpt>
      <trkpt lat="47.7787" lon="-3.55788">
        <ele>35</ele>
        <time>2018-07-18T13:44:17Z</time>
      </trkpt>
      <trkpt lat="47.77873" lon="-3.55785">
        <ele>35</ele>
        <time>2018-07-18T13:44:18Z</time>
      </trkpt>
      <trkpt lat="47.77874" lon="-3.55781">
        <ele>35</ele>
        <time>2018-07-18T13:44:19Z</time>
      </trkpt>
      <trkpt lat="47.77875" lon="-3.55777">
        <ele>35</ele>
        <time>2018-07-18T13:44:20Z</time>
      </trkpt>
      <trkpt lat="47.77874" lon="-3.55773">
        <ele>35</ele>
        <time>2018-07-18T13:44:21Z</time>
      </trkpt>
      <trkpt lat="47.77873" lon="-3.55768">
        <ele>35</ele>
        <time>2018-07-18T13:44:22Z</time>
      </trkpt>
      <trkpt lat="47.77871" lon="-3.55763">
        <ele>35</ele>
        <time>2018-07-18T13:44:23Z</time>
      </trkpt>
      <trkpt lat="47.77869" lon="-3.55758">
        <ele>35</ele>
        <time>2018-07-18T13:44:24Z</time>
      </trkpt>
      <trkpt lat="47.77867" lon="-3.55753">
        <ele>35</ele>
        <time>2018-07-18T13:44:25Z</time>
      </trkpt>
      <trkpt lat="47.77864" lon="-3.55747">
        <ele>35</ele>
        <time>2018-07-18T13:44:26Z</time>
      </trkpt>
      <trkpt lat="47.77862" lon="-3.55741">
        <ele>35</ele>
        <time>2018-07-18T13:44:27Z</time>
      </trkpt>
      <trkpt lat="47.77859" lon="-3.55735">
        <ele>35</ele>
        <time>2018-07-18T13:44:28Z</time>
      </trkpt>
      <trkpt lat="47.77857" lon="-3.55729">
        <ele>34</ele>
        <time>2018-07-18T13:44:29Z</time>
      </trkpt>
      <trkpt lat="47.77854" lon="-3.55724">
        <ele>34</ele>
        <time>2018-07-18T13:44:30Z</time>
      </trkpt>
      <trkpt lat="47.77852" lon="-3.55718">
        <ele>34</ele>
        <time>2018-07-18T13:44:31Z</time>
      </trkpt>
      <trkpt lat="47.7785" lon="-3.55713">
        <ele>34</ele>
        <time>2018-07-18T13:44:32Z</time>
      </trkpt>
      <trkpt lat="47.77848" lon="-3.55708">
        <ele>34</ele>
        <time>2018-07-18T13:44:33Z</time>
      </trkpt>
      <trkpt lat="47.77845" lon="-3.55703">
        <ele>34</ele>
        <time>2018-07-18T13:44:34Z</time>
      </trkpt>
      <trkpt lat="47.77844" lon="-3.55699">
        <ele>34</ele>
        <time>2018-07-18T13:44:35Z</time>
      </trkpt>
      <trkpt lat="47.77842" lon="-3.55696">
        <ele>34</ele>
        <time>2018-07-18T13:44:36Z</time>
      </trkpt>
      <trkpt lat="47.77841" lon="-3.55692">
        <ele>34</ele>
        <time>2018-07-18T13:44:37Z</time>
      </trkpt>
      <trkpt lat="47.77839" lon="-3.55688">
        <ele>34</ele>
        <time>2018-07-18T13:44:38Z</time>
      </trkpt>
      <trkpt lat="47.77837" lon="-3.55683">
        <ele>34</ele>
        <time>2018-07-18T13:44:39Z</time>
      </trkpt>
      <trkpt lat="47.77835" lon="-3.55679">
        <ele>34</ele>
        <time>2018-07-18T13:44:40Z</time>
      </trkpt>
      <trkpt lat="47.77834" lon="-3.55675">
        <ele>34</ele>
        <time>2018-07-18T13:44:41Z</time>
      </trkpt>
      <trkpt lat="47.77832" lon="-3.5567">
        <ele>34</ele>
        <time>2018-07-18T13:44:42Z</time>
      </trkpt>
      <trkpt lat="47.7783" lon="-3.55665">
        <ele>34</ele>
        <time>2018-07-18T13:44:43Z</time>
      </trkpt>
      <trkpt lat="47.77828" lon="-3.5566">
        <ele>34</ele>
        <time>2018-07-18T13:44:44Z</time>
      </trkpt>
      <trkpt lat="47.77827" lon="-3.55655">
        <ele>34</ele>
        <time>2018-07-18T13:44:45Z</time>
      </trkpt>
      <trkpt lat="47.77825" lon="-3.5565">
        <ele>34</ele>
        <time>2018-07-18T13:44:46Z</time>
      </trkpt>
      <trkpt lat="47.77822" lon="-3.55646">
        <ele>34</ele>
        <time>2018-07-18T13:44:47Z</time>
      </trkpt>
      <trkpt lat="47.7782" lon="-3.55641">
        <ele>34</ele>
        <time>2018-07-18T13:44:48Z</time>
      </trkpt>
      <trkpt lat="47.77818" lon="-3.55636">
        <ele>34</ele>
        <time>2018-07-18T13:44:49Z</time>
      </trkpt>
      <trkpt lat="47.77816" lon="-3.55631">
        <ele>34</ele>
        <time>2018-07-18T13:44:50Z</time>
      </trkpt>
      <trkpt lat="47.77814" lon="-3.55625">
        <ele>34</ele>
        <time>2018-07-18T13:44:51Z</time>
      </trkpt>
      <trkpt lat="47.77811" lon="-3.5562">
        <ele>34</ele>
        <time>2018-07-18T13:44:52Z</time>
      </trkpt>
      <trkpt lat="47.77808" lon="-3.55613">
        <ele>34</ele>
        <time>2018-07-18T13:44:53Z</time>
      </trkpt>
      <trkpt lat="47.77806" lon="-3.55607">
        <ele>34</ele>
        <time>2018-07-18T13:44:54Z</time>
      </trkpt>
      <trkpt lat="47.77803" lon="-3.55601">
        <ele>34</ele>
        <time>2018-07-18T13:44:55Z</time>
      </trkpt>
      <trkpt lat="47.778" lon="-3.55594">
        <ele>34</ele>
        <time>2018-07-18T13:44:56Z</time>
      </trkpt>
      <trkpt lat="47.77797" lon="-3.55587">
        <ele>34</ele>
        <time>2018-07-18T13:44:57Z</time>
      </trkpt>
      <trkpt lat="47.77794" lon="-3.55581">
        <ele>34</ele>
        <time>2018-07-18T13:44:58Z</time>
      </trkpt>
      <trkpt lat="47.77791" lon="-3.55574">
        <ele>34</ele>
        <time>2018-07-18T13:44:59Z</time>
      </trkpt>
      <trkpt lat="47.77789" lon="-3.55566">
        <ele>33</ele>
        <time>2018-07-18T13:45:00Z</time>
      </trkpt>
      <trkpt lat="47.77787" lon="-3.55558">
        <ele>33</ele>
        <time>2018-07-18T13:45:01Z</time>
      </trkpt>
      <trkpt lat="47.77786" lon="-3.5555">
        <ele>33</ele>
        <time>2018-07-18T13:45:02Z</time>
      </trkpt>
      <trkpt lat="47.77786" lon="-3.55543">
        <ele>33</ele>
        <time>2018-07-18T13:45:03Z</time>
      </trkpt>
      <trkpt lat="47.77789" lon="-3.55538">
        <ele>33</ele>
        <time>2018-07-18T13:45:04Z</time>
      </trkpt>
      <trkpt lat="47.77793" lon="-3.55536">
        <ele>33</ele>
        <time>2018-07-18T13:45:05Z</time>
      </trkpt>
      <trkpt lat="47.77797" lon="-3.55535">
        <ele>33</ele>
        <time>2018-07-18T13:45:06Z</time>
      </trkpt>
      <trkpt lat="47.77801" lon="-3.55534">
        <ele>33</ele>
        <time>2018-07-18T13:45:07Z</time>
      </trkpt>
      <trkpt lat="47.77806" lon="-3.55532">
        <ele>33</ele>
        <time>2018-07-18T13:45:08Z</time>
      </trkpt>
      <trkpt lat="47.7781" lon="-3.55532">
        <ele>34</ele>
        <time>2018-07-18T13:45:09Z</time>
      </trkpt>
      <trkpt lat="47.77815" lon="-3.55531">
        <ele>34</ele>
        <time>2018-07-18T13:45:10Z</time>
      </trkpt>
      <trkpt lat="47.77819" lon="-3.5553">
        <ele>34</ele>
        <time>2018-07-18T13:45:11Z</time>
      </trkpt>
      <trkpt lat="47.77824" lon="-3.55528">
        <ele>34</ele>
        <time>2018-07-18T13:45:12Z</time>
      </trkpt>
      <trkpt lat="47.77829" lon="-3.55526">
        <ele>34</ele>
        <time>2018-07-18T13:45:13Z</time>
      </trkpt>
      <trkpt lat="47.77834" lon="-3.55525">
        <ele>34</ele>
        <time>2018-07-18T13:45:14Z</time>
      </trkpt>
      <trkpt lat="47.77839" lon="-3.55523">
        <ele>34</ele>
        <time>2018-07-18T13:45:15Z</time>
      </trkpt>
      <trkpt lat="47.77844" lon="-3.55521">
        <ele>34</ele>
        <time>2018-07-18T13:45:16Z</time>
      </trkpt>
      <trkpt lat="47.77849" lon="-3.55518">
        <ele>34</ele>
        <time>2018-07-18T13:45:17Z</time>
      </trkpt>
      <trkpt lat="47.77854" lon="-3.55515">
        <ele>34</ele>
        <time>2018-07-18T13:45:18Z</time>
      </trkpt>
      <trkpt lat="47.77858" lon="-3.55511">
        <ele>34</ele>
        <time>2018-07-18T13:45:19Z</time>
      </trkpt>
      <trkpt lat="47.77862" lon="-3.55506">
        <ele>34</ele>
        <time>2018-07-18T13:45:20Z</time>
      </trkpt>
      <trkpt lat="47.77866" lon="-3.55501">
        <ele>35</ele>
        <time>2018-07-18T13:45:21Z</time>
      </trkpt>
      <trkpt lat="47.7787" lon="-3.55495">
        <ele>35</ele>
        <time>2018-07-18T13:45:22Z</time>
      </trkpt>
      <trkpt lat="47.77873" lon="-3.55489">
        <ele>35</ele>
        <time>2018-07-18T13:45:23Z</time>
      </trkpt>
      <trkpt lat="47.77875" lon="-3.55482">
        <ele>35</ele>
        <time>2018-07-18T13:45:24Z</time>
      </trkpt>
      <trkpt lat="47.77878" lon="-3.55475">
        <ele>35</ele>
        <time>2018-07-18T13:45:25Z</time>
      </trkpt>
      <trkpt lat="47.7788" lon="-3.55468">
        <ele>35</ele>
        <time>2018-07-18T13:45:26Z</time>
      </trkpt>
      <trkpt lat="47.77883" lon="-3.55461">
        <ele>35</ele>
        <time>2018-07-18T13:45:27Z</time>
      </trkpt>
      <trkpt lat="47.77884" lon="-3.55454">
        <ele>36</ele>
        <time>2018-07-18T13:45:28Z</time>
      </trkpt>
      <trkpt lat="47.77886" lon="-3.55446">
        <ele>36</ele>
        <time>2018-07-18T13:45:29Z</time>
      </trkpt>
      <trkpt lat="47.77888" lon="-3.55439">
        <ele>36</ele>
        <time>2018-07-18T13:45:30Z</time>
      </trkpt>
      <trkpt lat="47.7789" lon="-3.55432">
        <ele>36</ele>
        <time>2018-07-18T13:45:31Z</time>
      </trkpt>
      <trkpt lat="47.77892" lon="-3.55425">
        <ele>36</ele>
        <time>2018-07-18T13:45:32Z</time>
      </trkpt>
      <trkpt lat="47.77894" lon="-3.55418">
        <ele>36</ele>
        <time>2018-07-18T13:45:33Z</time>
      </trkpt>
      <trkpt lat="47.77896" lon="-3.55412">
        <ele>37</ele>
        <time>2018-07-18T13:45:34Z</time>
      </trkpt>
      <trkpt lat="47.77898" lon="-3.55405">
        <ele>37</ele>
        <time>2018-07-18T13:45:35Z</time>
      </trkpt>
      <trkpt lat="47.779" lon="-3.55398">
        <ele>37</ele>
        <time>2018-07-18T13:45:36Z</time>
      </trkpt>
      <trkpt lat="47.77902" lon="-3.55391">
        <ele>37</ele>
        <time>2018-07-18T13:45:37Z</time>
      </trkpt>
      <trkpt lat="47.77903" lon="-3.55383">
        <ele>37</ele>
        <time>2018-07-18T13:45:38Z</time>
      </trkpt>
      <trkpt lat="47.77904" lon="-3.55376">
        <ele>37</ele>
        <time>2018-07-18T13:45:39Z</time>
      </trkpt>
      <trkpt lat="47.77905" lon="-3.55368">
        <ele>37</ele>
        <time>2018-07-18T13:45:40Z</time>
      </trkpt>
      <trkpt lat="47.77906" lon="-3.55361">
        <ele>38</ele>
        <time>2018-07-18T13:45:41Z</time>
      </trkpt>
      <trkpt lat="47.77907" lon="-3.55354">
        <ele>38</ele>
        <time>2018-07-18T13:45:42Z</time>
      </trkpt>
      <trkpt lat="47.77907" lon="-3.55347">
        <ele>38</ele>
        <time>2018-07-18T13:45:43Z</time>
      </trkpt>
      <trkpt lat="47.77907" lon="-3.55341">
        <ele>38</ele>
        <time>2018-07-18T13:45:44Z</time>
      </trkpt>
      <trkpt lat="47.77906" lon="-3.55336">
        <ele>38</ele>
        <time>2018-07-18T13:45:45Z</time>
      </trkpt>
      <trkpt lat="47.77903" lon="-3.55334">
        <ele>38</ele>
        <time>2018-07-18T13:45:46Z</time>
      </trkpt>
      <trkpt lat="47.77899" lon="-3.55333">
        <ele>38</ele>
        <time>2018-07-18T13:45:47Z</time>
      </trkpt>
      <trkpt lat="47.77895" lon="-3.55333">
        <ele>38</ele>
        <time>2018-07-18T13:45:48Z</time>
      </trkpt>
      <trkpt lat="47.77891" lon="-3.55333">
        <ele>38</ele>
        <time>2018-07-18T13:45:49Z</time>
      </trkpt>
      <trkpt lat="47.77887" lon="-3.55333">
        <ele>38</ele>
        <time>2018-07-18T13:45:50Z</time>
      </trkpt>
      <trkpt lat="47.77882" lon="-3.55334">
        <ele>38</ele>
        <time>2018-07-18T13:45:51Z</time>
      </trkpt>
      <trkpt lat="47.77877" lon="-3.55334">
        <ele>38</ele>
        <time>2018-07-18T13:45:52Z</time>
      </trkpt>
      <trkpt lat="47.77871" lon="-3.55334">
        <ele>38</ele>
        <time>2018-07-18T13:45:53Z</time>
      </trkpt>
      <trkpt lat="47.77866" lon="-3.55335">
        <ele>37</ele>
        <time>2018-07-18T13:45:54Z</time>
      </trkpt>
      <trkpt lat="47.77861" lon="-3.55334">
        <ele>37</ele>
        <time>2018-07-18T13:45:55Z</time>
      </trkpt>
      <trkpt lat="47.77855" lon="-3.55334">
        <ele>37</ele>
        <time>2018-07-18T13:45:56Z</time>
      </trkpt>
      <trkpt lat="47.7785" lon="-3.55334">
        <ele>37</ele>
        <time>2018-07-18T13:45:57Z</time>
      </trkpt>
      <trkpt lat="47.77845" lon="-3.55333">
        <ele>37</ele>
        <time>2018-07-18T13:45:58Z</time>
      </trkpt>
      <trkpt lat="47.7784" lon="-3.55333">
        <ele>37</ele>
        <time>2018-07-18T13:45:59Z</time>
      </trkpt>
      <trkpt lat="47.77834" lon="-3.55333">
        <ele>37</ele>
        <time>2018-07-18T13:46:00Z</time>
      </trkpt>
      <trkpt lat="47.77829" lon="-3.55333">
        <ele>37</ele>
        <time>2018-07-18T13:46:01Z</time>
      </trkpt>
      <trkpt lat="47.77825" lon="-3.55332">
        <ele>37</ele>
        <time>2018-07-18T13:46:02Z</time>
      </trkpt>
      <trkpt lat="47.7782" lon="-3.55332">
        <ele>37</ele>
        <time>2018-07-18T13:46:03Z</time>
      </trkpt>
      <trkpt lat="47.77815" lon="-3.55332">
        <ele>37</ele>
        <time>2018-07-18T13:46:04Z</time>
      </trkpt>
      <trkpt lat="47.77811" lon="-3.55331">
        <ele>36</ele>
        <time>2018-07-18T13:46:05Z</time>
      </trkpt>
      <trkpt lat="47.77807" lon="-3.5533">
        <ele>36</ele>
        <time>2018-07-18T13:46:06Z</time>
      </trkpt>
      <trkpt lat="47.77803" lon="-3.55326">
        <ele>37</ele>
        <time>2018-07-18T13:46:07Z</time>
      </trkpt>
      <trkpt lat="47.77801" lon="-3.5532">
        <ele>37</ele>
        <time>2018-07-18T13:46:08Z</time>
      </trkpt>
      <trkpt lat="47.77798" lon="-3.55315">
        <ele>37</ele>
        <time>2018-07-18T13:46:09Z</time>
      </trkpt>
      <trkpt lat="47.77795" lon="-3.55312">
        <ele>37</ele>
        <time>2018-07-18T13:46:10Z</time>
      </trkpt>
      <trkpt lat="47.77792" lon="-3.55311">
        <ele>37</ele>
        <time>2018-07-18T13:46:11Z</time>
      </trkpt>
      <trkpt lat="47.77789" lon="-3.55312">
        <ele>37</ele>
        <time>2018-07-18T13:46:12Z</time>
      </trkpt>
      <trkpt lat="47.77784" lon="-3.55313">
        <ele>37</ele>
        <time>2018-07-18T13:46:13Z</time>
      </trkpt>
      <trkpt lat="47.7778" lon="-3.55314">
        <ele>37</ele>
        <time>2018-07-18T13:46:14Z</time>
      </trkpt>
      <trkpt lat="47.77776" lon="-3.55315">
        <ele>37</ele>
        <time>2018-07-18T13:46:15Z</time>
      </trkpt>
      <trkpt lat="47.77772" lon="-3.55317">
        <ele>37</ele>
        <time>2018-07-18T13:46:16Z</time>
      </trkpt>
      <trkpt lat="47.77768" lon="-3.55319">
        <ele>38</ele>
        <time>2018-07-18T13:46:17Z</time>
      </trkpt>
      <trkpt lat="47.77764" lon="-3.55322">
        <ele>38</ele>
        <time>2018-07-18T13:46:18Z</time>
      </trkpt>
      <trkpt lat="47.77759" lon="-3.55326">
        <ele>38</ele>
        <time>2018-07-18T13:46:19Z</time>
      </trkpt>
      <trkpt lat="47.77755" lon="-3.55329">
        <ele>38</ele>
        <time>2018-07-18T13:46:20Z</time>
      </trkpt>
      <trkpt lat="47.77751" lon="-3.55333">
        <ele>39</ele>
        <time>2018-07-18T13:46:21Z</time>
      </trkpt>
      <trkpt lat="47.77747" lon="-3.55337">
        <ele>39</ele>
        <time>2018-07-18T13:46:22Z</time>
      </trkpt>
      <trkpt lat="47.77743" lon="-3.55341">
        <ele>38</ele>
        <time>2018-07-18T13:46:23Z</time>
      </trkpt>
      <trkpt lat="47.77738" lon="-3.55343">
        <ele>38</ele>
        <time>2018-07-18T13:46:24Z</time>
      </trkpt>
      <trkpt lat="47.77734" lon="-3.55344">
        <ele>38</ele>
        <time>2018-07-18T13:46:25Z</time>
      </trkpt>
      <trkpt lat="47.7773" lon="-3.55345">
        <ele>38</ele>
        <time>2018-07-18T13:46:26Z</time>
      </trkpt>
      <trkpt lat="47.77726" lon="-3.55347">
        <ele>38</ele>
        <time>2018-07-18T13:46:27Z</time>
      </trkpt>
      <trkpt lat="47.77724" lon="-3.55347">
        <ele>37</ele>
        <time>2018-07-18T13:46:28Z</time>
      </trkpt>
      <trkpt lat="47.77723" lon="-3.55345">
        <ele>37</ele>
        <time>2018-07-18T13:46:29Z</time>
      </trkpt>
      <trkpt lat="47.77724" lon="-3.55344">
        <ele>37</ele>
        <time>2018-07-18T13:46:30Z</time>
      </trkpt>
      <trkpt lat="47.77726" lon="-3.55344">
        <ele>37</ele>
        <time>2018-07-18T13:46:31Z</time>
      </trkpt>
      <trkpt lat="47.77728" lon="-3.55344">
        <ele>37</ele>
        <time>2018-07-18T13:46:32Z</time>
      </trkpt>
      <trkpt lat="47.77731" lon="-3.55343">
        <ele>37</ele>
        <time>2018-07-18T13:46:33Z</time>
      </trkpt>
      <trkpt lat="47.77734" lon="-3.55343">
        <ele>37</ele>
        <time>2018-07-18T13:46:34Z</time>
      </trkpt>
      <trkpt lat="47.77737" lon="-3.55341">
        <ele>37</ele>
        <time>2018-07-18T13:46:35Z</time>
      </trkpt>
      <trkpt lat="47.7774" lon="-3.55339">
        <ele>37</ele>
        <time>2018-07-18T13:46:36Z</time>
      </trkpt>
      <trkpt lat="47.77743" lon="-3.55336">
        <ele>37</ele>
        <time>2018-07-18T13:46:37Z</time>
      </trkpt>
      <trkpt lat="47.77745" lon="-3.55333">
        <ele>37</ele>
        <time>2018-07-18T13:46:38Z</time>
      </trkpt>
      <trkpt lat="47.77747" lon="-3.55331">
        <ele>37</ele>
        <time>2018-07-18T13:46:39Z</time>
      </trkpt>
      <trkpt lat="47.77749" lon="-3.55328">
        <ele>37</ele>
        <time>2018-07-18T13:46:40Z</time>
      </trkpt>
      <trkpt lat="47.77752" lon="-3.55326">
        <ele>37</ele>
        <time>2018-07-18T13:46:41Z</time>
      </trkpt>
      <trkpt lat="47.77754" lon="-3.55324">
        <ele>37</ele>
        <time>2018-07-18T13:46:42Z</time>
      </trkpt>
      <trkpt lat="47.77757" lon="-3.55323">
        <ele>36</ele>
        <time>2018-07-18T13:46:43Z</time>
      </trkpt>
      <trkpt lat="47.77759" lon="-3.55321">
        <ele>36</ele>
        <time>2018-07-18T13:46:44Z</time>
      </trkpt>
      <trkpt lat="47.77762" lon="-3.5532">
        <ele>36</ele>
        <time>2018-07-18T13:46:45Z</time>
      </trkpt>
      <trkpt lat="47.77764" lon="-3.5532">
        <ele>36</ele>
        <time>2018-07-18T13:46:46Z</time>
      </trkpt>
      <trkpt lat="47.77767" lon="-3.55319">
        <ele>36</ele>
        <time>2018-07-18T13:46:47Z</time>
      </trkpt>
      <trkpt lat="47.7777" lon="-3.55318">
        <ele>36</ele>
        <time>2018-07-18T13:46:48Z</time>
      </trkpt>
      <trkpt lat="47.77772" lon="-3.55317">
        <ele>36</ele>
        <time>2018-07-18T13:46:49Z</time>
      </trkpt>
      <trkpt lat="47.77775" lon="-3.55316">
        <ele>36</ele>
        <time>2018-07-18T13:46:50Z</time>
      </trkpt>
      <trkpt lat="47.77778" lon="-3.55315">
        <ele>36</ele>
        <time>2018-07-18T13:46:51Z</time>
      </trkpt>
      <trkpt lat="47.77782" lon="-3.55314">
        <ele>36</ele>
        <time>2018-07-18T13:46:52Z</time>
      </trkpt>
      <trkpt lat="47.77785" lon="-3.55314">
        <ele>37</ele>
        <time>2018-07-18T13:46:53Z</time>
      </trkpt>
      <trkpt lat="47.77788" lon="-3.55314">
        <ele>37</ele>
        <time>2018-07-18T13:46:54Z</time>
      </trkpt>
      <trkpt lat="47.7779" lon="-3.55313">
        <ele>37</ele>
        <time>2018-07-18T13:46:55Z</time>
      </trkpt>
      <trkpt lat="47.77792" lon="-3.55314">
        <ele>37</ele>
        <time>2018-07-18T13:46:56Z</time>
      </trkpt>
      <trkpt lat="47.77793" lon="-3.55316">
        <ele>36</ele>
        <time>2018-07-18T13:46:57Z</time>
      </trkpt>
      <trkpt lat="47.77792" lon="-3.55316">
        <ele>36</ele>
        <time>2018-07-18T13:46:58Z</time>
      </trkpt>
      <trkpt lat="47.77791" lon="-3.55316">
        <ele>36</ele>
        <time>2018-07-18T13:46:59Z</time>
      </trkpt>
      <trkpt lat="47.7779" lon="-3.55314">
        <ele>36</ele>
        <time>2018-07-18T13:47:00Z</time>
      </trkpt>
      <trkpt lat="47.77788" lon="-3.55314">
        <ele>36</ele>
        <time>2018-07-18T13:47:01Z</time>
      </trkpt>
      <trkpt lat="47.77786" lon="-3.55314">
        <ele>36</ele>
        <time>2018-07-18T13:47:02Z</time>
      </trkpt>
      <trkpt lat="47.77782" lon="-3.55315">
        <ele>36</ele>
        <time>2018-07-18T13:47:03Z</time>
      </trkpt>
      <trkpt lat="47.77779" lon="-3.55316">
        <ele>36</ele>
        <time>2018-07-18T13:47:04Z</time>
      </trkpt>
      <trkpt lat="47.77776" lon="-3.55317">
        <ele>36</ele>
        <time>2018-07-18T13:47:05Z</time>
      </trkpt>
      <trkpt lat="47.77773" lon="-3.55318">
        <ele>36</ele>
        <time>2018-07-18T13:47:06Z</time>
      </trkpt>
      <trkpt lat="47.7777" lon="-3.55319">
        <ele>36</ele>
        <time>2018-07-18T13:47:07Z</time>
      </trkpt>
      <trkpt lat="47.77767" lon="-3.5532">
        <ele>36</ele>
        <time>2018-07-18T13:47:08Z</time>
      </trkpt>
      <trkpt lat="47.77764" lon="-3.55321">
        <ele>37</ele>
        <time>2018-07-18T13:47:09Z</time>
      </trkpt>
      <trkpt lat="47.7776" lon="-3.55324">
        <ele>37</ele>
        <time>2018-07-18T13:47:10Z</time>
      </trkpt>
      <trkpt lat="47.77757" lon="-3.55327">
        <ele>37</ele>
        <time>2018-07-18T13:47:11Z</time>
      </trkpt>
      <trkpt lat="47.77753" lon="-3.5533">
        <ele>37</ele>
        <time>2018-07-18T13:47:12Z</time>
      </trkpt>
      <trkpt lat="47.77749" lon="-3.55334">
        <ele>37</ele>
        <time>2018-07-18T13:47:13Z</time>
      </trkpt>
      <trkpt lat="47.77745" lon="-3.55338">
        <ele>37</ele>
        <time>2018-07-18T13:47:14Z</time>
      </trkpt>
      <trkpt lat="47.77741" lon="-3.55341">
        <ele>37</ele>
        <time>2018-07-18T13:47:15Z</time>
      </trkpt>
      <trkpt lat="47.77736" lon="-3.55344">
        <ele>37</ele>
        <time>2018-07-18T13:47:16Z</time>
      </trkpt>
      <trkpt lat="47.7773" lon="-3.55345">
        <ele>37</ele>
        <time>2018-07-18T13:47:17Z</time>
      </trkpt>
      <trkpt lat="47.77725" lon="-3.55347">
        <ele>37</ele>
        <time>2018-07-18T13:47:18Z</time>
      </trkpt>
      <trkpt lat="47.77719" lon="-3.55348">
        <ele>36</ele>
        <time>2018-07-18T13:47:19Z</time>
      </trkpt>
      <trkpt lat="47.77713" lon="-3.55348">
        <ele>36</ele>
        <time>2018-07-18T13:47:20Z</time>
      </trkpt>
      <trkpt lat="47.77708" lon="-3.55348">
        <ele>36</ele>
        <time>2018-07-18T13:47:21Z</time>
      </trkpt>
      <trkpt lat="47.77702" lon="-3.55348">
        <ele>36</ele>
        <time>2018-07-18T13:47:22Z</time>
      </trkpt>
      <trkpt lat="47.77697" lon="-3.55349">
        <ele>36</ele>
        <time>2018-07-18T13:47:23Z</time>
      </trkpt>
      <trkpt lat="47.77691" lon="-3.5535">
        <ele>36</ele>
        <time>2018-07-18T13:47:24Z</time>
      </trkpt>
      <trkpt lat="47.77686" lon="-3.5535">
        <ele>36</ele>
        <time>2018-07-18T13:47:25Z</time>
      </trkpt>
      <trkpt lat="47.77683" lon="-3.5535">
        <ele>36</ele>
        <time>2018-07-18T13:47:26Z</time>
      </trkpt>
      <trkpt lat="47.7768" lon="-3.55351">
        <ele>36</ele>
        <time>2018-07-18T13:47:27Z</time>
      </trkpt>
      <trkpt lat="47.77677" lon="-3.55351">
        <ele>36</ele>
        <time>2018-07-18T13:47:28Z</time>
      </trkpt>
      <trkpt lat="47.77672" lon="-3.55352">
        <ele>35</ele>
        <time>2018-07-18T13:47:29Z</time>
      </trkpt>
      <trkpt lat="47.77667" lon="-3.55351">
        <ele>35</ele>
        <time>2018-07-18T13:47:30Z</time>
      </trkpt>
      <trkpt lat="47.77662" lon="-3.5535">
        <ele>35</ele>
        <time>2018-07-18T13:47:31Z</time>
      </trkpt>
      <trkpt lat="47.77657" lon="-3.5535">
        <ele>35</ele>
        <time>2018-07-18T13:47:32Z</time>
      </trkpt>
      <trkpt lat="47.77651" lon="-3.55349">
        <ele>36</ele>
        <time>2018-07-18T13:47:33Z</time>
      </trkpt>
      <trkpt lat="47.77646" lon="-3.5535">
        <ele>36</ele>
        <time>2018-07-18T13:47:34Z</time>
      </trkpt>
      <trkpt lat="47.77642" lon="-3.55352">
        <ele>36</ele>
        <time>2018-07-18T13:47:35Z</time>
      </trkpt>
      <trkpt lat="47.77638" lon="-3.55354">
        <ele>36</ele>
        <time>2018-07-18T13:47:36Z</time>
      </trkpt>
      <trkpt lat="47.77634" lon="-3.55357">
        <ele>36</ele>
        <time>2018-07-18T13:47:37Z</time>
      </trkpt>
      <trkpt lat="47.7763" lon="-3.55359">
        <ele>36</ele>
        <time>2018-07-18T13:47:38Z</time>
      </trkpt>
      <trkpt lat="47.77625" lon="-3.55361">
        <ele>36</ele>
        <time>2018-07-18T13:47:39Z</time>
      </trkpt>
      <trkpt lat="47.77621" lon="-3.55363">
        <ele>36</ele>
        <time>2018-07-18T13:47:40Z</time>
      </trkpt>
      <trkpt lat="47.77617" lon="-3.55364">
        <ele>37</ele>
        <time>2018-07-18T13:47:41Z</time>
      </trkpt>
      <trkpt lat="47.77612" lon="-3.55366">
        <ele>37</ele>
        <time>2018-07-18T13:47:42Z</time>
      </trkpt>
      <trkpt lat="47.77607" lon="-3.55367">
        <ele>37</ele>
        <time>2018-07-18T13:47:43Z</time>
      </trkpt>
      <trkpt lat="47.77603" lon="-3.55368">
        <ele>37</ele>
        <time>2018-07-18T13:47:44Z</time>
      </trkpt>
      <trkpt lat="47.77598" lon="-3.55369">
        <ele>37</ele>
        <time>2018-07-18T13:47:45Z</time>
      </trkpt>
      <trkpt lat="47.77593" lon="-3.5537">
        <ele>37</ele>
        <time>2018-07-18T13:47:46Z</time>
      </trkpt>
      <trkpt lat="47.77589" lon="-3.55371">
        <ele>38</ele>
        <time>2018-07-18T13:47:47Z</time>
      </trkpt>
      <trkpt lat="47.77585" lon="-3.55372">
        <ele>38</ele>
        <time>2018-07-18T13:47:48Z</time>
      </trkpt>
      <trkpt lat="47.77581" lon="-3.55372">
        <ele>38</ele>
        <time>2018-07-18T13:47:49Z</time>
      </trkpt>
      <trkpt lat="47.77576" lon="-3.55372">
        <ele>38</ele>
        <time>2018-07-18T13:47:50Z</time>
      </trkpt>
      <trkpt lat="47.77572" lon="-3.55373">
        <ele>38</ele>
        <time>2018-07-18T13:47:51Z</time>
      </trkpt>
      <trkpt lat="47.77567" lon="-3.55373">
        <ele>38</ele>
        <time>2018-07-18T13:47:52Z</time>
      </trkpt>
      <trkpt lat="47.77562" lon="-3.55373">
        <ele>38</ele>
        <time>2018-07-18T13:47:53Z</time>
      </trkpt>
      <trkpt lat="47.77557" lon="-3.55375">
        <ele>38</ele>
        <time>2018-07-18T13:47:54Z</time>
      </trkpt>
      <trkpt lat="47.77552" lon="-3.55377">
        <ele>38</ele>
        <time>2018-07-18T13:47:55Z</time>
      </trkpt>
      <trkpt lat="47.77548" lon="-3.55379">
        <ele>38</ele>
        <time>2018-07-18T13:47:56Z</time>
      </trkpt>
      <trkpt lat="47.77543" lon="-3.5538">
        <ele>39</ele>
        <time>2018-07-18T13:47:57Z</time>
      </trkpt>
      <trkpt lat="47.77538" lon="-3.55381">
        <ele>39</ele>
        <time>2018-07-18T13:47:58Z</time>
      </trkpt>
      <trkpt lat="47.77533" lon="-3.55382">
        <ele>39</ele>
        <time>2018-07-18T13:47:59Z</time>
      </trkpt>
      <trkpt lat="47.77529" lon="-3.55384">
        <ele>39</ele>
        <time>2018-07-18T13:48:00Z</time>
      </trkpt>
      <trkpt lat="47.77525" lon="-3.55383">
        <ele>39</ele>
        <time>2018-07-18T13:48:01Z</time>
      </trkpt>
      <trkpt lat="47.77521" lon="-3.55381">
        <ele>39</ele>
        <time>2018-07-18T13:48:02Z</time>
      </trkpt>
      <trkpt lat="47.77518" lon="-3.55379">
        <ele>39</ele>
        <time>2018-07-18T13:48:03Z</time>
      </trkpt>
      <trkpt lat="47.77514" lon="-3.55375">
        <ele>39</ele>
        <time>2018-07-18T13:48:04Z</time>
      </trkpt>
      <trkpt lat="47.77509" lon="-3.5537">
        <ele>39</ele>
        <time>2018-07-18T13:48:05Z</time>
      </trkpt>
      <trkpt lat="47.77505" lon="-3.55367">
        <ele>39</ele>
        <time>2018-07-18T13:48:06Z</time>
      </trkpt>
      <trkpt lat="47.77501" lon="-3.55363">
        <ele>38</ele>
        <time>2018-07-18T13:48:07Z</time>
      </trkpt>
      <trkpt lat="47.77496" lon="-3.55358">
        <ele>38</ele>
        <time>2018-07-18T13:48:08Z</time>
      </trkpt>
      <trkpt lat="47.77491" lon="-3.55354">
        <ele>38</ele>
        <time>2018-07-18T13:48:09Z</time>
      </trkpt>
      <trkpt lat="47.77486" lon="-3.5535">
        <ele>38</ele>
        <time>2018-07-18T13:48:10Z</time>
      </trkpt>
      <trkpt lat="47.77481" lon="-3.55345">
        <ele>38</ele>
        <time>2018-07-18T13:48:11Z</time>
      </trkpt>
      <trkpt lat="47.77477" lon="-3.55342">
        <ele>37</ele>
        <time>2018-07-18T13:48:12Z</time>
      </trkpt>
      <trkpt lat="47.77473" lon="-3.55338">
        <ele>37</ele>
        <time>2018-07-18T13:48:13Z</time>
      </trkpt>
      <trkpt lat="47.7747" lon="-3.55335">
        <ele>37</ele>
        <time>2018-07-18T13:48:14Z</time>
      </trkpt>
      <trkpt lat="47.77467" lon="-3.55332">
        <ele>37</ele>
        <time>2018-07-18T13:48:15Z</time>
      </trkpt>
      <trkpt lat="47.77466" lon="-3.55329">
        <ele>37</ele>
        <time>2018-07-18T13:48:16Z</time>
      </trkpt>
      <trkpt lat="47.77467" lon="-3.55326">
        <ele>37</ele>
        <time>2018-07-18T13:48:17Z</time>
      </trkpt>
      <trkpt lat="47.77467" lon="-3.55321">
        <ele>37</ele>
        <time>2018-07-18T13:48:18Z</time>
      </trkpt>
      <trkpt lat="47.77468" lon="-3.55317">
        <ele>37</ele>
        <time>2018-07-18T13:48:19Z</time>
      </trkpt>
      <trkpt lat="47.77468" lon="-3.55312">
        <ele>37</ele>
        <time>2018-07-18T13:48:20Z</time>
      </trkpt>
      <trkpt lat="47.7747" lon="-3.55307">
        <ele>37</ele>
        <time>2018-07-18T13:48:21Z</time>
      </trkpt>
      <trkpt lat="47.77471" lon="-3.55301">
        <ele>36</ele>
        <time>2018-07-18T13:48:22Z</time>
      </trkpt>
      <trkpt lat="47.77473" lon="-3.55294">
        <ele>36</ele>
        <time>2018-07-18T13:48:23Z</time>
      </trkpt>
      <trkpt lat="47.77474" lon="-3.55287">
        <ele>36</ele>
        <time>2018-07-18T13:48:24Z</time>
      </trkpt>
      <trkpt lat="47.77476" lon="-3.55279">
        <ele>36</ele>
        <time>2018-07-18T13:48:25Z</time>
      </trkpt>
      <trkpt lat="47.77478" lon="-3.55271">
        <ele>36</ele>
        <time>2018-07-18T13:48:26Z</time>
      </trkpt>
      <trkpt lat="47.77479" lon="-3.55264">
        <ele>35</ele>
        <time>2018-07-18T13:48:27Z</time>
      </trkpt>
      <trkpt lat="47.7748" lon="-3.55256">
        <ele>35</ele>
        <time>2018-07-18T13:48:28Z</time>
      </trkpt>
      <trkpt lat="47.77482" lon="-3.55249">
        <ele>35</ele>
        <time>2018-07-18T13:48:29Z</time>
      </trkpt>
      <trkpt lat="47.77483" lon="-3.55242">
        <ele>35</ele>
        <time>2018-07-18T13:48:30Z</time>
      </trkpt>
      <trkpt lat="47.77484" lon="-3.55235">
        <ele>35</ele>
        <time>2018-07-18T13:48:31Z</time>
      </trkpt>
      <trkpt lat="47.77485" lon="-3.55228">
        <ele>34</ele>
        <time>2018-07-18T13:48:32Z</time>
      </trkpt>
      <trkpt lat="47.77486" lon="-3.55222">
        <ele>34</ele>
        <time>2018-07-18T13:48:33Z</time>
      </trkpt>
      <trkpt lat="47.77486" lon="-3.55216">
        <ele>34</ele>
        <time>2018-07-18T13:48:34Z</time>
      </trkpt>
      <trkpt lat="47.77486" lon="-3.5521">
        <ele>34</ele>
        <time>2018-07-18T13:48:35Z</time>
      </trkpt>
      <trkpt lat="47.77484" lon="-3.55206">
        <ele>34</ele>
        <time>2018-07-18T13:48:36Z</time>
      </trkpt>
      <trkpt lat="47.77481" lon="-3.55203">
        <ele>34</ele>
        <time>2018-07-18T13:48:37Z</time>
      </trkpt>
      <trkpt lat="47.77478" lon="-3.552">
        <ele>34</ele>
        <time>2018-07-18T13:48:38Z</time>
      </trkpt>
      <trkpt lat="47.77475" lon="-3.55198">
        <ele>34</ele>
        <time>2018-07-18T13:48:39Z</time>
      </trkpt>
      <trkpt lat="47.77473" lon="-3.55196">
        <ele>34</ele>
        <time>2018-07-18T13:48:40Z</time>
      </trkpt>
      <trkpt lat="47.7747" lon="-3.55193">
        <ele>35</ele>
        <time>2018-07-18T13:48:41Z</time>
      </trkpt>
      <trkpt lat="47.77466" lon="-3.5519">
        <ele>35</ele>
        <time>2018-07-18T13:48:42Z</time>
      </trkpt>
      <trkpt lat="47.77462" lon="-3.55187">
        <ele>35</ele>
        <time>2018-07-18T13:48:43Z</time>
      </trkpt>
      <trkpt lat="47.77458" lon="-3.55183">
        <ele>35</ele>
        <time>2018-07-18T13:48:44Z</time>
      </trkpt>
      <trkpt lat="47.77454" lon="-3.55179">
        <ele>35</ele>
        <time>2018-07-18T13:48:45Z</time>
      </trkpt>
      <trkpt lat="47.7745" lon="-3.55176">
        <ele>35</ele>
        <time>2018-07-18T13:48:46Z</time>
      </trkpt>
      <trkpt lat="47.77446" lon="-3.55172">
        <ele>35</ele>
        <time>2018-07-18T13:48:47Z</time>
      </trkpt>
      <trkpt lat="47.77442" lon="-3.55169">
        <ele>35</ele>
        <time>2018-07-18T13:48:48Z</time>
      </trkpt>
      <trkpt lat="47.77437" lon="-3.55164">
        <ele>35</ele>
        <time>2018-07-18T13:48:49Z</time>
      </trkpt>
      <trkpt lat="47.77432" lon="-3.5516">
        <ele>35</ele>
        <time>2018-07-18T13:48:50Z</time>
      </trkpt>
      <trkpt lat="47.77427" lon="-3.55156">
        <ele>35</ele>
        <time>2018-07-18T13:48:51Z</time>
      </trkpt>
      <trkpt lat="47.77422" lon="-3.55152">
        <ele>35</ele>
        <time>2018-07-18T13:48:52Z</time>
      </trkpt>
      <trkpt lat="47.77417" lon="-3.55148">
        <ele>35</ele>
        <time>2018-07-18T13:48:53Z</time>
      </trkpt>
      <trkpt lat="47.77412" lon="-3.55143">
        <ele>35</ele>
        <time>2018-07-18T13:48:54Z</time>
      </trkpt>
      <trkpt lat="47.77408" lon="-3.55137">
        <ele>34</ele>
        <time>2018-07-18T13:48:55Z</time>
      </trkpt>
      <trkpt lat="47.77404" lon="-3.55131">
        <ele>34</ele>
        <time>2018-07-18T13:48:56Z</time>
      </trkpt>
      <trkpt lat="47.774" lon="-3.55125">
        <ele>34</ele>
        <time>2018-07-18T13:48:57Z</time>
      </trkpt>
      <trkpt lat="47.77396" lon="-3.55119">
        <ele>34</ele>
        <time>2018-07-18T13:48:58Z</time>
      </trkpt>
      <trkpt lat="47.77391" lon="-3.55114">
        <ele>34</ele>
        <time>2018-07-18T13:48:59Z</time>
      </trkpt>
      <trkpt lat="47.77387" lon="-3.55111">
        <ele>34</ele>
        <time>2018-07-18T13:49:00Z</time>
      </trkpt>
      <trkpt lat="47.77382" lon="-3.5511">
        <ele>34</ele>
        <time>2018-07-18T13:49:01Z</time>
      </trkpt>
      <trkpt lat="47.77376" lon="-3.55109">
        <ele>34</ele>
        <time>2018-07-18T13:49:02Z</time>
      </trkpt>
      <trkpt lat="47.77371" lon="-3.55109">
        <ele>34</ele>
        <time>2018-07-18T13:49:03Z</time>
      </trkpt>
      <trkpt lat="47.77365" lon="-3.5511">
        <ele>34</ele>
        <time>2018-07-18T13:49:04Z</time>
      </trkpt>
      <trkpt lat="47.7736" lon="-3.5511">
        <ele>34</ele>
        <time>2018-07-18T13:49:05Z</time>
      </trkpt>
      <trkpt lat="47.77354" lon="-3.5511">
        <ele>34</ele>
        <time>2018-07-18T13:49:06Z</time>
      </trkpt>
      <trkpt lat="47.77348" lon="-3.55109">
        <ele>35</ele>
        <time>2018-07-18T13:49:07Z</time>
      </trkpt>
      <trkpt lat="47.77343" lon="-3.55108">
        <ele>35</ele>
        <time>2018-07-18T13:49:08Z</time>
      </trkpt>
      <trkpt lat="47.77338" lon="-3.55106">
        <ele>35</ele>
        <time>2018-07-18T13:49:09Z</time>
      </trkpt>
      <trkpt lat="47.77334" lon="-3.55104">
        <ele>35</ele>
        <time>2018-07-18T13:49:10Z</time>
      </trkpt>
      <trkpt lat="47.7733" lon="-3.55101">
        <ele>35</ele>
        <time>2018-07-18T13:49:11Z</time>
      </trkpt>
      <trkpt lat="47.77326" lon="-3.55099">
        <ele>35</ele>
        <time>2018-07-18T13:49:12Z</time>
      </trkpt>
      <trkpt lat="47.77323" lon="-3.55098">
        <ele>36</ele>
        <time>2018-07-18T13:49:13Z</time>
      </trkpt>
      <trkpt lat="47.77318" lon="-3.55096">
        <ele>36</ele>
        <time>2018-07-18T13:49:14Z</time>
      </trkpt>
      <trkpt lat="47.77314" lon="-3.55094">
        <ele>36</ele>
        <time>2018-07-18T13:49:15Z</time>
      </trkpt>
      <trkpt lat="47.77311" lon="-3.55092">
        <ele>36</ele>
        <time>2018-07-18T13:49:16Z</time>
      </trkpt>
      <trkpt lat="47.77307" lon="-3.5509">
        <ele>36</ele>
        <time>2018-07-18T13:49:17Z</time>
      </trkpt>
      <trkpt lat="47.77302" lon="-3.55088">
        <ele>36</ele>
        <time>2018-07-18T13:49:18Z</time>
      </trkpt>
      <trkpt lat="47.77299" lon="-3.55087">
        <ele>36</ele>
        <time>2018-07-18T13:49:19Z</time>
      </trkpt>
      <trkpt lat="47.77295" lon="-3.55086">
        <ele>36</ele>
        <time>2018-07-18T13:49:20Z</time>
      </trkpt>
      <trkpt lat="47.77291" lon="-3.55085">
        <ele>36</ele>
        <time>2018-07-18T13:49:21Z</time>
      </trkpt>
      <trkpt lat="47.77288" lon="-3.55085">
        <ele>36</ele>
        <time>2018-07-18T13:49:22Z</time>
      </trkpt>
      <trkpt lat="47.77286" lon="-3.55086">
        <ele>36</ele>
        <time>2018-07-18T13:49:23Z</time>
      </trkpt>
      <trkpt lat="47.77284" lon="-3.55088">
        <ele>36</ele>
        <time>2018-07-18T13:49:24Z</time>
      </trkpt>
      <trkpt lat="47.77282" lon="-3.55089">
        <ele>36</ele>
        <time>2018-07-18T13:49:25Z</time>
      </trkpt>
      <trkpt lat="47.77281" lon="-3.55092">
        <ele>36</ele>
        <time>2018-07-18T13:49:26Z</time>
      </trkpt>
      <trkpt lat="47.7728" lon="-3.55095">
        <ele>36</ele>
        <time>2018-07-18T13:49:27Z</time>
      </trkpt>
      <trkpt lat="47.77279" lon="-3.55098">
        <ele>36</ele>
        <time>2018-07-18T13:49:28Z</time>
      </trkpt>
      <trkpt lat="47.77278" lon="-3.55099">
        <ele>36</ele>
        <time>2018-07-18T13:49:29Z</time>
      </trkpt>
      <trkpt lat="47.77277" lon="-3.55099">
        <ele>35</ele>
        <time>2018-07-18T13:49:30Z</time>
      </trkpt>
      <trkpt lat="47.77277" lon="-3.55099">
        <ele>35</ele>
        <time>2018-07-18T13:49:31Z</time>
      </trkpt>
      <trkpt lat="47.77277" lon="-3.55099">
        <ele>35</ele>
        <time>2018-07-18T13:49:32Z</time>
      </trkpt>
      <trkpt lat="47.77274" lon="-3.55101">
        <ele>35</ele>
        <time>2018-07-18T13:49:33Z</time>
      </trkpt>
      <trkpt lat="47.77274" lon="-3.55102">
        <ele>35</ele>
        <time>2018-07-18T13:49:34Z</time>
      </trkpt>
      <trkpt lat="47.77274" lon="-3.55102">
        <ele>35</ele>
        <time>2018-07-18T13:49:35Z</time>
      </trkpt>
      <trkpt lat="47.77273" lon="-3.55102">
        <ele>35</ele>
        <time>2018-07-18T13:49:36Z</time>
      </trkpt>
      <trkpt lat="47.77272" lon="-3.55102">
        <ele>35</ele>
        <time>2018-07-18T13:49:37Z</time>
      </trkpt>
      <trkpt lat="47.77271" lon="-3.55102">
        <ele>35</ele>
        <time>2018-07-18T13:49:38Z</time>
      </trkpt>
      <trkpt lat="47.77271" lon="-3.55102">
        <ele>35</ele>
        <time>2018-07-18T13:49:39Z</time>
      </trkpt>
      <trkpt lat="47.7727" lon="-3.55102">
        <ele>36</ele>
        <time>2018-07-18T13:49:40Z</time>
      </trkpt>
      <trkpt lat="47.77269" lon="-3.55102">
        <ele>36</ele>
        <time>2018-07-18T13:49:41Z</time>
      </trkpt>
      <trkpt lat="47.77269" lon="-3.55103">
        <ele>36</ele>
        <time>2018-07-18T13:49:42Z</time>
      </trkpt>
      <trkpt lat="47.77268" lon="-3.55103">
        <ele>36</ele>
        <time>2018-07-18T13:49:43Z</time>
      </trkpt>
    </trkseg>
  </trk>
</gpx>